<?xml version="1.0" encoding="UTF-8" standalone="no" ?>
<gpx xmlns="http://www.topografix.com/GPX/1/1" xmlns:xsi="http://www.w3.org/2001/XMLSchema-instance" xsi:schemaLocation="http://www.topografix.com/GPX/1/1 http://www.topografix.com/GPX/1/1/gpx.xsd" version="1.1" creator="VisuGPX - https://www.visugpx.com">
  <metadata>
    <name>Rando VeloLyonOuest 2016</name>
  </metadata>
  <trk>
    <name><![CDATA[Yzeron]]></name>
    <extensions>
      <line xmlns="http://www.topografix.com/GPX/gpx_style/0/2">
        <color>0000FF</color>
        <width>4</width>
      </line>
    </extensions>
    <trkseg>
      <trkpt lat="45.69859" lon="4.67874">
        <ele>349.239594</ele>
        <time>2016-06-05T06:00:03Z</time>
      </trkpt>
      <trkpt lat="45.69865" lon="4.67876">
        <ele>349.267517</ele>
        <time>2016-06-05T06:00:05Z</time>
      </trkpt>
      <trkpt lat="45.69887" lon="4.6789">
        <ele>349.243896</ele>
        <time>2016-06-05T06:00:07Z</time>
      </trkpt>
      <trkpt lat="45.69884" lon="4.67895">
        <ele>349.136597</ele>
        <time>2016-06-05T06:00:09Z</time>
      </trkpt>
      <trkpt lat="45.6988" lon="4.67898">
        <ele>349.138123</ele>
        <time>2016-06-05T06:00:11Z</time>
      </trkpt>
      <trkpt lat="45.69876" lon="4.67902">
        <ele>349.01178</ele>
        <time>2016-06-05T06:00:13Z</time>
      </trkpt>
      <trkpt lat="45.69872" lon="4.67906">
        <ele>349.038391</ele>
        <time>2016-06-05T06:00:15Z</time>
      </trkpt>
      <trkpt lat="45.69867" lon="4.6791">
        <ele>348.999786</ele>
        <time>2016-06-05T06:00:17Z</time>
      </trkpt>
      <trkpt lat="45.69862" lon="4.67912">
        <ele>348.97406</ele>
        <time>2016-06-05T06:00:19Z</time>
      </trkpt>
      <trkpt lat="45.69857" lon="4.67916">
        <ele>348.89679</ele>
        <time>2016-06-05T06:00:21Z</time>
      </trkpt>
      <trkpt lat="45.69852" lon="4.67918">
        <ele>348.860352</ele>
        <time>2016-06-05T06:00:23Z</time>
      </trkpt>
      <trkpt lat="45.69848" lon="4.67921">
        <ele>348.764038</ele>
        <time>2016-06-05T06:00:25Z</time>
      </trkpt>
      <trkpt lat="45.69844" lon="4.67925">
        <ele>348.74472</ele>
        <time>2016-06-05T06:00:27Z</time>
      </trkpt>
      <trkpt lat="45.69842" lon="4.67928">
        <ele>348.732605</ele>
        <time>2016-06-05T06:00:29Z</time>
      </trkpt>
      <trkpt lat="45.6984" lon="4.67929">
        <ele>348.67038</ele>
        <time>2016-06-05T06:00:31Z</time>
      </trkpt>
      <trkpt lat="45.69836" lon="4.67927">
        <ele>348.668243</ele>
        <time>2016-06-05T06:00:33Z</time>
      </trkpt>
      <trkpt lat="45.69835" lon="4.67924">
        <ele>348.621033</ele>
        <time>2016-06-05T06:00:35Z</time>
      </trkpt>
      <trkpt lat="45.69835" lon="4.67921">
        <ele>348.541718</ele>
        <time>2016-06-05T06:00:37Z</time>
      </trkpt>
      <trkpt lat="45.69836" lon="4.67919">
        <ele>348.514404</ele>
        <time>2016-06-05T06:00:39Z</time>
      </trkpt>
      <trkpt lat="45.69836" lon="4.67917">
        <ele>348.399963</ele>
        <time>2016-06-05T06:00:41Z</time>
      </trkpt>
      <trkpt lat="45.69836" lon="4.67912">
        <ele>348.417114</ele>
        <time>2016-06-05T06:00:43Z</time>
      </trkpt>
      <trkpt lat="45.69836" lon="4.67906">
        <ele>348.460022</ele>
        <time>2016-06-05T06:00:45Z</time>
      </trkpt>
      <trkpt lat="45.69836" lon="4.67899">
        <ele>347.348541</ele>
        <time>2016-06-05T06:00:47Z</time>
      </trkpt>
      <trkpt lat="45.69837" lon="4.67892">
        <ele>347.425751</ele>
        <time>2016-06-05T06:00:49Z</time>
      </trkpt>
      <trkpt lat="45.69837" lon="4.67885">
        <ele>347.419617</ele>
        <time>2016-06-05T06:00:51Z</time>
      </trkpt>
      <trkpt lat="45.69837" lon="4.67879">
        <ele>347.606323</ele>
        <time>2016-06-05T06:00:53Z</time>
      </trkpt>
      <trkpt lat="45.69838" lon="4.67872">
        <ele>347.780121</ele>
        <time>2016-06-05T06:00:55Z</time>
      </trkpt>
      <trkpt lat="45.69838" lon="4.67865">
        <ele>347.813568</ele>
        <time>2016-06-05T06:00:57Z</time>
      </trkpt>
      <trkpt lat="45.69839" lon="4.67858">
        <ele>347.914124</ele>
        <time>2016-06-05T06:00:59Z</time>
      </trkpt>
      <trkpt lat="45.6984" lon="4.6785">
        <ele>348.029968</ele>
        <time>2016-06-05T06:01:01Z</time>
      </trkpt>
      <trkpt lat="45.6984" lon="4.67843">
        <ele>348.128693</ele>
        <time>2016-06-05T06:01:03Z</time>
      </trkpt>
      <trkpt lat="45.69841" lon="4.67836">
        <ele>348.334656</ele>
        <time>2016-06-05T06:01:05Z</time>
      </trkpt>
      <trkpt lat="45.69841" lon="4.67829">
        <ele>348.499878</ele>
        <time>2016-06-05T06:01:07Z</time>
      </trkpt>
      <trkpt lat="45.69842" lon="4.67821">
        <ele>348.491302</ele>
        <time>2016-06-05T06:01:09Z</time>
      </trkpt>
      <trkpt lat="45.69842" lon="4.67814">
        <ele>348.768127</ele>
        <time>2016-06-05T06:01:11Z</time>
      </trkpt>
      <trkpt lat="45.69843" lon="4.67806">
        <ele>348.935547</ele>
        <time>2016-06-05T06:01:13Z</time>
      </trkpt>
      <trkpt lat="45.69843" lon="4.67801">
        <ele>349.038666</ele>
        <time>2016-06-05T06:01:15Z</time>
      </trkpt>
      <trkpt lat="45.69843" lon="4.67797">
        <ele>349.274719</ele>
        <time>2016-06-05T06:01:17Z</time>
      </trkpt>
      <trkpt lat="45.69843" lon="4.67795">
        <ele>349.407776</ele>
        <time>2016-06-05T06:01:19Z</time>
      </trkpt>
      <trkpt lat="45.69843" lon="4.67793">
        <ele>349.597473</ele>
        <time>2016-06-05T06:01:21Z</time>
      </trkpt>
      <trkpt lat="45.69844" lon="4.67791">
        <ele>349.80426</ele>
        <time>2016-06-05T06:01:23Z</time>
      </trkpt>
      <trkpt lat="45.69844" lon="4.67789">
        <ele>349.922668</ele>
        <time>2016-06-05T06:01:25Z</time>
      </trkpt>
      <trkpt lat="45.69843" lon="4.67786">
        <ele>350.248871</ele>
        <time>2016-06-05T06:01:27Z</time>
      </trkpt>
      <trkpt lat="45.69841" lon="4.67782">
        <ele>351.476257</ele>
        <time>2016-06-05T06:01:29Z</time>
      </trkpt>
      <trkpt lat="45.6984" lon="4.67777">
        <ele>351.587891</ele>
        <time>2016-06-05T06:01:31Z</time>
      </trkpt>
      <trkpt lat="45.6984" lon="4.67771">
        <ele>351.72525</ele>
        <time>2016-06-05T06:01:33Z</time>
      </trkpt>
      <trkpt lat="45.6984" lon="4.67766">
        <ele>351.836853</ele>
        <time>2016-06-05T06:01:35Z</time>
      </trkpt>
      <trkpt lat="45.69841" lon="4.67762">
        <ele>351.871155</ele>
        <time>2016-06-05T06:01:37Z</time>
      </trkpt>
      <trkpt lat="45.69843" lon="4.67759">
        <ele>352.077545</ele>
        <time>2016-06-05T06:01:39Z</time>
      </trkpt>
      <trkpt lat="45.69842" lon="4.67754">
        <ele>352.264252</ele>
        <time>2016-06-05T06:01:41Z</time>
      </trkpt>
      <trkpt lat="45.69842" lon="4.67748">
        <ele>352.378021</ele>
        <time>2016-06-05T06:01:43Z</time>
      </trkpt>
      <trkpt lat="45.69842" lon="4.67742">
        <ele>352.511749</ele>
        <time>2016-06-05T06:01:45Z</time>
      </trkpt>
      <trkpt lat="45.69842" lon="4.67736">
        <ele>352.715942</ele>
        <time>2016-06-05T06:01:47Z</time>
      </trkpt>
      <trkpt lat="45.69841" lon="4.6773">
        <ele>352.94989</ele>
        <time>2016-06-05T06:01:49Z</time>
      </trkpt>
      <trkpt lat="45.69842" lon="4.67725">
        <ele>353.005676</ele>
        <time>2016-06-05T06:01:51Z</time>
      </trkpt>
      <trkpt lat="45.69844" lon="4.67718">
        <ele>353.089386</ele>
        <time>2016-06-05T06:01:53Z</time>
      </trkpt>
      <trkpt lat="45.69846" lon="4.67711">
        <ele>353.207458</ele>
        <time>2016-06-05T06:01:55Z</time>
      </trkpt>
      <trkpt lat="45.69849" lon="4.67704">
        <ele>353.414185</ele>
        <time>2016-06-05T06:01:57Z</time>
      </trkpt>
      <trkpt lat="45.6985" lon="4.67697">
        <ele>353.487152</ele>
        <time>2016-06-05T06:01:59Z</time>
      </trkpt>
      <trkpt lat="45.6985" lon="4.6769">
        <ele>353.731903</ele>
        <time>2016-06-05T06:02:01Z</time>
      </trkpt>
      <trkpt lat="45.6985" lon="4.67682">
        <ele>353.946472</ele>
        <time>2016-06-05T06:02:03Z</time>
      </trkpt>
      <trkpt lat="45.6985" lon="4.67673">
        <ele>354.082672</ele>
        <time>2016-06-05T06:02:05Z</time>
      </trkpt>
      <trkpt lat="45.69849" lon="4.67665">
        <ele>354.290955</ele>
        <time>2016-06-05T06:02:07Z</time>
      </trkpt>
      <trkpt lat="45.69849" lon="4.67659">
        <ele>354.507782</ele>
        <time>2016-06-05T06:02:09Z</time>
      </trkpt>
      <trkpt lat="45.69849" lon="4.67653">
        <ele>354.732361</ele>
        <time>2016-06-05T06:02:11Z</time>
      </trkpt>
      <trkpt lat="45.69848" lon="4.67649">
        <ele>355.079742</ele>
        <time>2016-06-05T06:02:13Z</time>
      </trkpt>
      <trkpt lat="45.69846" lon="4.67646">
        <ele>355.35025</ele>
        <time>2016-06-05T06:02:15Z</time>
      </trkpt>
      <trkpt lat="45.69845" lon="4.67644">
        <ele>355.575684</ele>
        <time>2016-06-05T06:02:17Z</time>
      </trkpt>
      <trkpt lat="45.69844" lon="4.67641">
        <ele>355.88916</ele>
        <time>2016-06-05T06:02:19Z</time>
      </trkpt>
      <trkpt lat="45.69844" lon="4.67638">
        <ele>356.144684</ele>
        <time>2016-06-05T06:02:21Z</time>
      </trkpt>
      <trkpt lat="45.69853" lon="4.67646">
        <ele>358.806396</ele>
        <time>2016-06-05T06:08:28Z</time>
      </trkpt>
      <trkpt lat="45.69862" lon="4.67647">
        <ele>358.312103</ele>
        <time>2016-06-05T06:09:34Z</time>
      </trkpt>
      <trkpt lat="45.69861" lon="4.67652">
        <ele>358.342194</ele>
        <time>2016-06-05T06:09:36Z</time>
      </trkpt>
      <trkpt lat="45.69861" lon="4.67659">
        <ele>358.33136</ele>
        <time>2016-06-05T06:09:38Z</time>
      </trkpt>
      <trkpt lat="45.69862" lon="4.67662">
        <ele>358.342102</ele>
        <time>2016-06-05T06:09:40Z</time>
      </trkpt>
      <trkpt lat="45.69866" lon="4.67662">
        <ele>358.281921</ele>
        <time>2016-06-05T06:09:42Z</time>
      </trkpt>
      <trkpt lat="45.69872" lon="4.67659">
        <ele>358.286224</ele>
        <time>2016-06-05T06:09:44Z</time>
      </trkpt>
      <trkpt lat="45.69878" lon="4.67659">
        <ele>358.174622</ele>
        <time>2016-06-05T06:09:46Z</time>
      </trkpt>
      <trkpt lat="45.69883" lon="4.67657">
        <ele>358.108002</ele>
        <time>2016-06-05T06:09:48Z</time>
      </trkpt>
      <trkpt lat="45.69888" lon="4.67657">
        <ele>358.018951</ele>
        <time>2016-06-05T06:09:50Z</time>
      </trkpt>
      <trkpt lat="45.6989" lon="4.67663">
        <ele>357.928772</ele>
        <time>2016-06-05T06:09:52Z</time>
      </trkpt>
      <trkpt lat="45.6989" lon="4.67674">
        <ele>357.808533</ele>
        <time>2016-06-05T06:09:54Z</time>
      </trkpt>
      <trkpt lat="45.69889" lon="4.67686">
        <ele>357.441406</ele>
        <time>2016-06-05T06:09:56Z</time>
      </trkpt>
      <trkpt lat="45.69882" lon="4.67696">
        <ele>357.366272</ele>
        <time>2016-06-05T06:09:58Z</time>
      </trkpt>
      <trkpt lat="45.69875" lon="4.677">
        <ele>357.259888</ele>
        <time>2016-06-05T06:10:00Z</time>
      </trkpt>
      <trkpt lat="45.69869" lon="4.67703">
        <ele>357.158966</ele>
        <time>2016-06-05T06:10:02Z</time>
      </trkpt>
      <trkpt lat="45.69864" lon="4.67705">
        <ele>357.420807</ele>
        <time>2016-06-05T06:10:04Z</time>
      </trkpt>
      <trkpt lat="45.69859" lon="4.67707">
        <ele>357.671661</ele>
        <time>2016-06-05T06:10:06Z</time>
      </trkpt>
      <trkpt lat="45.69855" lon="4.67708">
        <ele>357.408722</ele>
        <time>2016-06-05T06:10:08Z</time>
      </trkpt>
      <trkpt lat="45.69851" lon="4.67714">
        <ele>357.114563</ele>
        <time>2016-06-05T06:10:10Z</time>
      </trkpt>
      <trkpt lat="45.69848" lon="4.67721">
        <ele>356.574463</ele>
        <time>2016-06-05T06:10:12Z</time>
      </trkpt>
      <trkpt lat="45.69847" lon="4.67722">
        <ele>356.376923</ele>
        <time>2016-06-05T06:10:14Z</time>
      </trkpt>
      <trkpt lat="45.69846" lon="4.67726">
        <ele>356.142883</ele>
        <time>2016-06-05T06:10:16Z</time>
      </trkpt>
      <trkpt lat="45.69846" lon="4.67734">
        <ele>355.861633</ele>
        <time>2016-06-05T06:10:18Z</time>
      </trkpt>
      <trkpt lat="45.69846" lon="4.67743">
        <ele>355.653442</ele>
        <time>2016-06-05T06:10:20Z</time>
      </trkpt>
      <trkpt lat="45.69847" lon="4.67752">
        <ele>355.443054</ele>
        <time>2016-06-05T06:10:22Z</time>
      </trkpt>
      <trkpt lat="45.69846" lon="4.67756">
        <ele>355.279846</ele>
        <time>2016-06-05T06:10:24Z</time>
      </trkpt>
      <trkpt lat="45.69844" lon="4.67761">
        <ele>355.03717</ele>
        <time>2016-06-05T06:10:26Z</time>
      </trkpt>
      <trkpt lat="45.69843" lon="4.67767">
        <ele>354.798889</ele>
        <time>2016-06-05T06:10:28Z</time>
      </trkpt>
      <trkpt lat="45.6984" lon="4.6777">
        <ele>354.556274</ele>
        <time>2016-06-05T06:10:30Z</time>
      </trkpt>
      <trkpt lat="45.69835" lon="4.67771">
        <ele>354.266479</ele>
        <time>2016-06-05T06:10:32Z</time>
      </trkpt>
      <trkpt lat="45.69832" lon="4.6777">
        <ele>354.075409</ele>
        <time>2016-06-05T06:10:34Z</time>
      </trkpt>
      <trkpt lat="45.69829" lon="4.67769">
        <ele>354.098999</ele>
        <time>2016-06-05T06:10:36Z</time>
      </trkpt>
      <trkpt lat="45.69827" lon="4.67768">
        <ele>353.998108</ele>
        <time>2016-06-05T06:10:38Z</time>
      </trkpt>
      <trkpt lat="45.69823" lon="4.67768">
        <ele>353.71048</ele>
        <time>2016-06-05T06:10:40Z</time>
      </trkpt>
      <trkpt lat="45.69817" lon="4.67767">
        <ele>353.536591</ele>
        <time>2016-06-05T06:10:42Z</time>
      </trkpt>
      <trkpt lat="45.69812" lon="4.67766">
        <ele>353.3992</ele>
        <time>2016-06-05T06:10:44Z</time>
      </trkpt>
      <trkpt lat="45.69807" lon="4.67764">
        <ele>353.210297</ele>
        <time>2016-06-05T06:10:46Z</time>
      </trkpt>
      <trkpt lat="45.69801" lon="4.67762">
        <ele>353.141602</ele>
        <time>2016-06-05T06:10:48Z</time>
      </trkpt>
      <trkpt lat="45.69795" lon="4.67761">
        <ele>352.990143</ele>
        <time>2016-06-05T06:10:50Z</time>
      </trkpt>
      <trkpt lat="45.6979" lon="4.67759">
        <ele>353.020172</ele>
        <time>2016-06-05T06:10:52Z</time>
      </trkpt>
      <trkpt lat="45.69785" lon="4.67758">
        <ele>352.934967</ele>
        <time>2016-06-05T06:10:54Z</time>
      </trkpt>
      <trkpt lat="45.69781" lon="4.67756">
        <ele>352.868713</ele>
        <time>2016-06-05T06:10:56Z</time>
      </trkpt>
      <trkpt lat="45.69777" lon="4.67755">
        <ele>352.819916</ele>
        <time>2016-06-05T06:10:58Z</time>
      </trkpt>
      <trkpt lat="45.69774" lon="4.67755">
        <ele>352.796326</ele>
        <time>2016-06-05T06:11:00Z</time>
      </trkpt>
      <trkpt lat="45.6977" lon="4.67757">
        <ele>352.746948</ele>
        <time>2016-06-05T06:11:02Z</time>
      </trkpt>
      <trkpt lat="45.69766" lon="4.67761">
        <ele>352.658936</ele>
        <time>2016-06-05T06:11:04Z</time>
      </trkpt>
      <trkpt lat="45.69761" lon="4.67766">
        <ele>352.62674</ele>
        <time>2016-06-05T06:11:06Z</time>
      </trkpt>
      <trkpt lat="45.69755" lon="4.67769">
        <ele>352.532288</ele>
        <time>2016-06-05T06:11:08Z</time>
      </trkpt>
      <trkpt lat="45.69749" lon="4.67768">
        <ele>352.568634</ele>
        <time>2016-06-05T06:11:10Z</time>
      </trkpt>
      <trkpt lat="45.69743" lon="4.67767">
        <ele>352.598663</ele>
        <time>2016-06-05T06:11:12Z</time>
      </trkpt>
      <trkpt lat="45.69737" lon="4.67766">
        <ele>352.596497</ele>
        <time>2016-06-05T06:11:14Z</time>
      </trkpt>
      <trkpt lat="45.69732" lon="4.67765">
        <ele>352.658752</ele>
        <time>2016-06-05T06:11:16Z</time>
      </trkpt>
      <trkpt lat="45.69729" lon="4.6776">
        <ele>352.671631</ele>
        <time>2016-06-05T06:11:18Z</time>
      </trkpt>
      <trkpt lat="45.69729" lon="4.67753">
        <ele>352.622253</ele>
        <time>2016-06-05T06:11:20Z</time>
      </trkpt>
      <trkpt lat="45.69729" lon="4.67745">
        <ele>352.718872</ele>
        <time>2016-06-05T06:11:22Z</time>
      </trkpt>
      <trkpt lat="45.6973" lon="4.67737">
        <ele>352.682617</ele>
        <time>2016-06-05T06:11:24Z</time>
      </trkpt>
      <trkpt lat="45.6973" lon="4.67729">
        <ele>352.747009</ele>
        <time>2016-06-05T06:11:26Z</time>
      </trkpt>
      <trkpt lat="45.69731" lon="4.67721">
        <ele>352.815704</ele>
        <time>2016-06-05T06:11:28Z</time>
      </trkpt>
      <trkpt lat="45.69731" lon="4.67713">
        <ele>352.996033</ele>
        <time>2016-06-05T06:11:30Z</time>
      </trkpt>
      <trkpt lat="45.69732" lon="4.67703">
        <ele>353.161316</ele>
        <time>2016-06-05T06:11:32Z</time>
      </trkpt>
      <trkpt lat="45.69732" lon="4.67694">
        <ele>353.255829</ele>
        <time>2016-06-05T06:11:34Z</time>
      </trkpt>
      <trkpt lat="45.69733" lon="4.67685">
        <ele>353.407959</ele>
        <time>2016-06-05T06:11:36Z</time>
      </trkpt>
      <trkpt lat="45.69735" lon="4.67676">
        <ele>353.626373</ele>
        <time>2016-06-05T06:11:38Z</time>
      </trkpt>
      <trkpt lat="45.69738" lon="4.67668">
        <ele>353.853943</ele>
        <time>2016-06-05T06:11:40Z</time>
      </trkpt>
      <trkpt lat="45.69742" lon="4.6766">
        <ele>354.068665</ele>
        <time>2016-06-05T06:11:42Z</time>
      </trkpt>
      <trkpt lat="45.69746" lon="4.67652">
        <ele>354.313385</ele>
        <time>2016-06-05T06:11:44Z</time>
      </trkpt>
      <trkpt lat="45.69749" lon="4.67645">
        <ele>354.532379</ele>
        <time>2016-06-05T06:11:46Z</time>
      </trkpt>
      <trkpt lat="45.69753" lon="4.67638">
        <ele>354.878021</ele>
        <time>2016-06-05T06:11:48Z</time>
      </trkpt>
      <trkpt lat="45.69756" lon="4.67629">
        <ele>355.021637</ele>
        <time>2016-06-05T06:11:50Z</time>
      </trkpt>
      <trkpt lat="45.6976" lon="4.67622">
        <ele>355.27301</ele>
        <time>2016-06-05T06:11:52Z</time>
      </trkpt>
      <trkpt lat="45.69763" lon="4.67614">
        <ele>355.638</ele>
        <time>2016-06-05T06:11:54Z</time>
      </trkpt>
      <trkpt lat="45.69767" lon="4.67607">
        <ele>355.95575</ele>
        <time>2016-06-05T06:11:56Z</time>
      </trkpt>
      <trkpt lat="45.6977" lon="4.67599">
        <ele>356.288605</ele>
        <time>2016-06-05T06:11:58Z</time>
      </trkpt>
      <trkpt lat="45.69773" lon="4.67592">
        <ele>356.67981</ele>
        <time>2016-06-05T06:12:00Z</time>
      </trkpt>
      <trkpt lat="45.69775" lon="4.67584">
        <ele>357.026764</ele>
        <time>2016-06-05T06:12:02Z</time>
      </trkpt>
      <trkpt lat="45.69777" lon="4.67575">
        <ele>357.445251</ele>
        <time>2016-06-05T06:12:04Z</time>
      </trkpt>
      <trkpt lat="45.69777" lon="4.67566">
        <ele>357.797424</ele>
        <time>2016-06-05T06:12:06Z</time>
      </trkpt>
      <trkpt lat="45.69778" lon="4.67557">
        <ele>358.151764</ele>
        <time>2016-06-05T06:12:08Z</time>
      </trkpt>
      <trkpt lat="45.69779" lon="4.67548">
        <ele>358.542664</ele>
        <time>2016-06-05T06:12:10Z</time>
      </trkpt>
      <trkpt lat="45.69777" lon="4.6754">
        <ele>358.757416</ele>
        <time>2016-06-05T06:12:12Z</time>
      </trkpt>
      <trkpt lat="45.69772" lon="4.67534">
        <ele>359.173645</ele>
        <time>2016-06-05T06:12:14Z</time>
      </trkpt>
      <trkpt lat="45.69766" lon="4.67532">
        <ele>359.339386</ele>
        <time>2016-06-05T06:12:16Z</time>
      </trkpt>
      <trkpt lat="45.69759" lon="4.6753">
        <ele>359.696838</ele>
        <time>2016-06-05T06:12:18Z</time>
      </trkpt>
      <trkpt lat="45.69752" lon="4.67529">
        <ele>359.942047</ele>
        <time>2016-06-05T06:12:20Z</time>
      </trkpt>
      <trkpt lat="45.69745" lon="4.67528">
        <ele>360.225525</ele>
        <time>2016-06-05T06:12:22Z</time>
      </trkpt>
      <trkpt lat="45.69738" lon="4.67527">
        <ele>360.375885</ele>
        <time>2016-06-05T06:12:24Z</time>
      </trkpt>
      <trkpt lat="45.69731" lon="4.67526">
        <ele>360.663727</ele>
        <time>2016-06-05T06:12:26Z</time>
      </trkpt>
      <trkpt lat="45.69724" lon="4.67525">
        <ele>360.888031</ele>
        <time>2016-06-05T06:12:28Z</time>
      </trkpt>
      <trkpt lat="45.69716" lon="4.67523">
        <ele>361.139343</ele>
        <time>2016-06-05T06:12:30Z</time>
      </trkpt>
      <trkpt lat="45.69709" lon="4.67522">
        <ele>361.38446</ele>
        <time>2016-06-05T06:12:32Z</time>
      </trkpt>
      <trkpt lat="45.69703" lon="4.6752">
        <ele>361.600769</ele>
        <time>2016-06-05T06:12:34Z</time>
      </trkpt>
      <trkpt lat="45.69697" lon="4.67518">
        <ele>361.733948</ele>
        <time>2016-06-05T06:12:36Z</time>
      </trkpt>
      <trkpt lat="45.6969" lon="4.67517">
        <ele>361.914398</ele>
        <time>2016-06-05T06:12:38Z</time>
      </trkpt>
      <trkpt lat="45.69684" lon="4.67518">
        <ele>362.054047</ele>
        <time>2016-06-05T06:12:40Z</time>
      </trkpt>
      <trkpt lat="45.69676" lon="4.6752">
        <ele>362.196289</ele>
        <time>2016-06-05T06:12:42Z</time>
      </trkpt>
      <trkpt lat="45.69669" lon="4.67522">
        <ele>362.277924</ele>
        <time>2016-06-05T06:12:44Z</time>
      </trkpt>
      <trkpt lat="45.69661" lon="4.67525">
        <ele>362.320862</ele>
        <time>2016-06-05T06:12:46Z</time>
      </trkpt>
      <trkpt lat="45.69655" lon="4.67524">
        <ele>362.316559</ele>
        <time>2016-06-05T06:12:48Z</time>
      </trkpt>
      <trkpt lat="45.6965" lon="4.6752">
        <ele>362.320862</ele>
        <time>2016-06-05T06:12:50Z</time>
      </trkpt>
      <trkpt lat="45.69647" lon="4.67512">
        <ele>362.344482</ele>
        <time>2016-06-05T06:12:52Z</time>
      </trkpt>
      <trkpt lat="45.69645" lon="4.67503">
        <ele>362.477692</ele>
        <time>2016-06-05T06:12:54Z</time>
      </trkpt>
      <trkpt lat="45.69644" lon="4.67495">
        <ele>362.508911</ele>
        <time>2016-06-05T06:12:56Z</time>
      </trkpt>
      <trkpt lat="45.69643" lon="4.67487">
        <ele>362.651611</ele>
        <time>2016-06-05T06:12:58Z</time>
      </trkpt>
      <trkpt lat="45.69641" lon="4.67478">
        <ele>362.672852</ele>
        <time>2016-06-05T06:13:00Z</time>
      </trkpt>
      <trkpt lat="45.6964" lon="4.67469">
        <ele>362.765228</ele>
        <time>2016-06-05T06:13:02Z</time>
      </trkpt>
      <trkpt lat="45.6964" lon="4.6746">
        <ele>362.950012</ele>
        <time>2016-06-05T06:13:04Z</time>
      </trkpt>
      <trkpt lat="45.6964" lon="4.67452">
        <ele>363.106873</ele>
        <time>2016-06-05T06:13:06Z</time>
      </trkpt>
      <trkpt lat="45.6964" lon="4.67445">
        <ele>363.117615</ele>
        <time>2016-06-05T06:13:08Z</time>
      </trkpt>
      <trkpt lat="45.69637" lon="4.67439">
        <ele>363.291565</ele>
        <time>2016-06-05T06:13:10Z</time>
      </trkpt>
      <trkpt lat="45.69631" lon="4.67437">
        <ele>363.426697</ele>
        <time>2016-06-05T06:13:12Z</time>
      </trkpt>
      <trkpt lat="45.69623" lon="4.67435">
        <ele>363.59433</ele>
        <time>2016-06-05T06:13:14Z</time>
      </trkpt>
      <trkpt lat="45.69615" lon="4.67433">
        <ele>363.785645</ele>
        <time>2016-06-05T06:13:16Z</time>
      </trkpt>
      <trkpt lat="45.69606" lon="4.67431">
        <ele>363.925293</ele>
        <time>2016-06-05T06:13:18Z</time>
      </trkpt>
      <trkpt lat="45.69597" lon="4.6743">
        <ele>363.942474</ele>
        <time>2016-06-05T06:13:20Z</time>
      </trkpt>
      <trkpt lat="45.69586" lon="4.67429">
        <ele>364.088623</ele>
        <time>2016-06-05T06:13:22Z</time>
      </trkpt>
      <trkpt lat="45.69574" lon="4.67429">
        <ele>364.176025</ele>
        <time>2016-06-05T06:13:24Z</time>
      </trkpt>
      <trkpt lat="45.69562" lon="4.67429">
        <ele>364.148102</ele>
        <time>2016-06-05T06:13:26Z</time>
      </trkpt>
      <trkpt lat="45.69549" lon="4.67432">
        <ele>364.10083</ele>
        <time>2016-06-05T06:13:28Z</time>
      </trkpt>
      <trkpt lat="45.69535" lon="4.67436">
        <ele>364.100891</ele>
        <time>2016-06-05T06:13:30Z</time>
      </trkpt>
      <trkpt lat="45.69523" lon="4.67442">
        <ele>363.969879</ele>
        <time>2016-06-05T06:13:32Z</time>
      </trkpt>
      <trkpt lat="45.69512" lon="4.67447">
        <ele>363.765717</ele>
        <time>2016-06-05T06:13:34Z</time>
      </trkpt>
      <trkpt lat="45.69499" lon="4.67453">
        <ele>363.397369</ele>
        <time>2016-06-05T06:13:36Z</time>
      </trkpt>
      <trkpt lat="45.69484" lon="4.67459">
        <ele>363.165405</ele>
        <time>2016-06-05T06:13:38Z</time>
      </trkpt>
      <trkpt lat="45.69467" lon="4.67465">
        <ele>362.791168</ele>
        <time>2016-06-05T06:13:40Z</time>
      </trkpt>
      <trkpt lat="45.6945" lon="4.67471">
        <ele>362.338165</ele>
        <time>2016-06-05T06:13:42Z</time>
      </trkpt>
      <trkpt lat="45.69432" lon="4.67477">
        <ele>361.642456</ele>
        <time>2016-06-05T06:13:44Z</time>
      </trkpt>
      <trkpt lat="45.69412" lon="4.67481">
        <ele>360.972382</ele>
        <time>2016-06-05T06:13:46Z</time>
      </trkpt>
      <trkpt lat="45.69391" lon="4.67483">
        <ele>360.154327</ele>
        <time>2016-06-05T06:13:48Z</time>
      </trkpt>
      <trkpt lat="45.69369" lon="4.67487">
        <ele>359.359009</ele>
        <time>2016-06-05T06:13:50Z</time>
      </trkpt>
      <trkpt lat="45.69346" lon="4.67491">
        <ele>358.538391</ele>
        <time>2016-06-05T06:13:52Z</time>
      </trkpt>
      <trkpt lat="45.69322" lon="4.67493">
        <ele>357.333923</ele>
        <time>2016-06-05T06:13:54Z</time>
      </trkpt>
      <trkpt lat="45.69299" lon="4.67488">
        <ele>356.065308</ele>
        <time>2016-06-05T06:13:56Z</time>
      </trkpt>
      <trkpt lat="45.69277" lon="4.67478">
        <ele>354.730896</ele>
        <time>2016-06-05T06:13:58Z</time>
      </trkpt>
      <trkpt lat="45.69256" lon="4.67464">
        <ele>353.359589</ele>
        <time>2016-06-05T06:14:00Z</time>
      </trkpt>
      <trkpt lat="45.69237" lon="4.6745">
        <ele>351.96048</ele>
        <time>2016-06-05T06:14:02Z</time>
      </trkpt>
      <trkpt lat="45.69218" lon="4.67437">
        <ele>350.636902</ele>
        <time>2016-06-05T06:14:04Z</time>
      </trkpt>
      <trkpt lat="45.692" lon="4.67425">
        <ele>349.287323</ele>
        <time>2016-06-05T06:14:06Z</time>
      </trkpt>
      <trkpt lat="45.69181" lon="4.67416">
        <ele>348.628601</ele>
        <time>2016-06-05T06:14:08Z</time>
      </trkpt>
      <trkpt lat="45.69162" lon="4.67411">
        <ele>347.452759</ele>
        <time>2016-06-05T06:14:10Z</time>
      </trkpt>
      <trkpt lat="45.69144" lon="4.67409">
        <ele>346.122528</ele>
        <time>2016-06-05T06:14:12Z</time>
      </trkpt>
      <trkpt lat="45.69126" lon="4.6741">
        <ele>345.056213</ele>
        <time>2016-06-05T06:14:14Z</time>
      </trkpt>
      <trkpt lat="45.69109" lon="4.6741">
        <ele>343.796906</ele>
        <time>2016-06-05T06:14:16Z</time>
      </trkpt>
      <trkpt lat="45.69093" lon="4.6741">
        <ele>342.690216</ele>
        <time>2016-06-05T06:14:18Z</time>
      </trkpt>
      <trkpt lat="45.69077" lon="4.67411">
        <ele>341.627838</ele>
        <time>2016-06-05T06:14:20Z</time>
      </trkpt>
      <trkpt lat="45.69062" lon="4.67411">
        <ele>340.467194</ele>
        <time>2016-06-05T06:14:22Z</time>
      </trkpt>
      <trkpt lat="45.69048" lon="4.6741">
        <ele>339.607239</ele>
        <time>2016-06-05T06:14:24Z</time>
      </trkpt>
      <trkpt lat="45.69033" lon="4.67409">
        <ele>338.998291</ele>
        <time>2016-06-05T06:14:26Z</time>
      </trkpt>
      <trkpt lat="45.69017" lon="4.67408">
        <ele>338.013916</ele>
        <time>2016-06-05T06:14:28Z</time>
      </trkpt>
      <trkpt lat="45.69002" lon="4.67407">
        <ele>337.276428</ele>
        <time>2016-06-05T06:14:30Z</time>
      </trkpt>
      <trkpt lat="45.68986" lon="4.67406">
        <ele>336.402191</ele>
        <time>2016-06-05T06:14:32Z</time>
      </trkpt>
      <trkpt lat="45.68969" lon="4.67405">
        <ele>335.812744</ele>
        <time>2016-06-05T06:14:34Z</time>
      </trkpt>
      <trkpt lat="45.68953" lon="4.67404">
        <ele>335.489105</ele>
        <time>2016-06-05T06:14:36Z</time>
      </trkpt>
      <trkpt lat="45.68938" lon="4.67405">
        <ele>335.081635</ele>
        <time>2016-06-05T06:14:38Z</time>
      </trkpt>
      <trkpt lat="45.68923" lon="4.67406">
        <ele>334.723785</ele>
        <time>2016-06-05T06:14:40Z</time>
      </trkpt>
      <trkpt lat="45.68908" lon="4.67408">
        <ele>334.460785</ele>
        <time>2016-06-05T06:14:42Z</time>
      </trkpt>
      <trkpt lat="45.68894" lon="4.67408">
        <ele>334.250824</ele>
        <time>2016-06-05T06:14:44Z</time>
      </trkpt>
      <trkpt lat="45.68879" lon="4.67405">
        <ele>333.809479</ele>
        <time>2016-06-05T06:14:46Z</time>
      </trkpt>
      <trkpt lat="45.68866" lon="4.67398">
        <ele>333.493835</ele>
        <time>2016-06-05T06:14:48Z</time>
      </trkpt>
      <trkpt lat="45.68854" lon="4.67393">
        <ele>333.091064</ele>
        <time>2016-06-05T06:14:50Z</time>
      </trkpt>
      <trkpt lat="45.68845" lon="4.67391">
        <ele>332.83609</ele>
        <time>2016-06-05T06:14:52Z</time>
      </trkpt>
      <trkpt lat="45.68836" lon="4.6739">
        <ele>332.529724</ele>
        <time>2016-06-05T06:14:54Z</time>
      </trkpt>
      <trkpt lat="45.68829" lon="4.6739">
        <ele>332.101318</ele>
        <time>2016-06-05T06:14:56Z</time>
      </trkpt>
      <trkpt lat="45.68821" lon="4.67394">
        <ele>331.981293</ele>
        <time>2016-06-05T06:14:58Z</time>
      </trkpt>
      <trkpt lat="45.68815" lon="4.67402">
        <ele>331.76593</ele>
        <time>2016-06-05T06:15:00Z</time>
      </trkpt>
      <trkpt lat="45.68805" lon="4.67406">
        <ele>331.494141</ele>
        <time>2016-06-05T06:15:02Z</time>
      </trkpt>
      <trkpt lat="45.68795" lon="4.67404">
        <ele>331.21994</ele>
        <time>2016-06-05T06:15:04Z</time>
      </trkpt>
      <trkpt lat="45.68784" lon="4.674">
        <ele>330.836548</ele>
        <time>2016-06-05T06:15:06Z</time>
      </trkpt>
      <trkpt lat="45.68772" lon="4.67396">
        <ele>330.738007</ele>
        <time>2016-06-05T06:15:08Z</time>
      </trkpt>
      <trkpt lat="45.68762" lon="4.67391">
        <ele>330.550323</ele>
        <time>2016-06-05T06:15:10Z</time>
      </trkpt>
      <trkpt lat="45.68752" lon="4.67387">
        <ele>330.329529</ele>
        <time>2016-06-05T06:15:12Z</time>
      </trkpt>
      <trkpt lat="45.68742" lon="4.67383">
        <ele>330.081085</ele>
        <time>2016-06-05T06:15:14Z</time>
      </trkpt>
      <trkpt lat="45.68733" lon="4.67379">
        <ele>329.886261</ele>
        <time>2016-06-05T06:15:16Z</time>
      </trkpt>
      <trkpt lat="45.68724" lon="4.67374">
        <ele>329.687286</ele>
        <time>2016-06-05T06:15:18Z</time>
      </trkpt>
      <trkpt lat="45.68714" lon="4.6737">
        <ele>329.500946</ele>
        <time>2016-06-05T06:15:20Z</time>
      </trkpt>
      <trkpt lat="45.68704" lon="4.67365">
        <ele>329.303192</ele>
        <time>2016-06-05T06:15:22Z</time>
      </trkpt>
      <trkpt lat="45.68693" lon="4.6736">
        <ele>329.097626</ele>
        <time>2016-06-05T06:15:24Z</time>
      </trkpt>
      <trkpt lat="45.68682" lon="4.67354">
        <ele>328.872772</ele>
        <time>2016-06-05T06:15:26Z</time>
      </trkpt>
      <trkpt lat="45.68671" lon="4.67349">
        <ele>328.732117</ele>
        <time>2016-06-05T06:15:28Z</time>
      </trkpt>
      <trkpt lat="45.6866" lon="4.67343">
        <ele>328.682892</ele>
        <time>2016-06-05T06:15:30Z</time>
      </trkpt>
      <trkpt lat="45.68649" lon="4.67337">
        <ele>328.479431</ele>
        <time>2016-06-05T06:15:32Z</time>
      </trkpt>
      <trkpt lat="45.68639" lon="4.6733">
        <ele>328.228943</ele>
        <time>2016-06-05T06:15:34Z</time>
      </trkpt>
      <trkpt lat="45.68629" lon="4.67323">
        <ele>328.147583</ele>
        <time>2016-06-05T06:15:36Z</time>
      </trkpt>
      <trkpt lat="45.68619" lon="4.67316">
        <ele>328.132599</ele>
        <time>2016-06-05T06:15:38Z</time>
      </trkpt>
      <trkpt lat="45.68609" lon="4.6731">
        <ele>327.798523</ele>
        <time>2016-06-05T06:15:40Z</time>
      </trkpt>
      <trkpt lat="45.68601" lon="4.67304">
        <ele>327.652893</ele>
        <time>2016-06-05T06:15:42Z</time>
      </trkpt>
      <trkpt lat="45.68592" lon="4.67298">
        <ele>327.489899</ele>
        <time>2016-06-05T06:15:44Z</time>
      </trkpt>
      <trkpt lat="45.68583" lon="4.67291">
        <ele>327.354584</ele>
        <time>2016-06-05T06:15:46Z</time>
      </trkpt>
      <trkpt lat="45.68575" lon="4.67285">
        <ele>327.294922</ele>
        <time>2016-06-05T06:15:48Z</time>
      </trkpt>
      <trkpt lat="45.68567" lon="4.67279">
        <ele>326.917297</ele>
        <time>2016-06-05T06:15:50Z</time>
      </trkpt>
      <trkpt lat="45.6856" lon="4.67277">
        <ele>326.784882</ele>
        <time>2016-06-05T06:15:52Z</time>
      </trkpt>
      <trkpt lat="45.68553" lon="4.6728">
        <ele>326.47879</ele>
        <time>2016-06-05T06:15:54Z</time>
      </trkpt>
      <trkpt lat="45.68546" lon="4.67289">
        <ele>326.119049</ele>
        <time>2016-06-05T06:15:56Z</time>
      </trkpt>
      <trkpt lat="45.68537" lon="4.673">
        <ele>325.740173</ele>
        <time>2016-06-05T06:15:58Z</time>
      </trkpt>
      <trkpt lat="45.68528" lon="4.67313">
        <ele>325.385773</ele>
        <time>2016-06-05T06:16:00Z</time>
      </trkpt>
      <trkpt lat="45.68519" lon="4.67326">
        <ele>324.852936</ele>
        <time>2016-06-05T06:16:02Z</time>
      </trkpt>
      <trkpt lat="45.6851" lon="4.67339">
        <ele>324.538452</ele>
        <time>2016-06-05T06:16:04Z</time>
      </trkpt>
      <trkpt lat="45.68502" lon="4.67353">
        <ele>324.157654</ele>
        <time>2016-06-05T06:16:06Z</time>
      </trkpt>
      <trkpt lat="45.68495" lon="4.67371">
        <ele>323.676605</ele>
        <time>2016-06-05T06:16:08Z</time>
      </trkpt>
      <trkpt lat="45.68488" lon="4.67388">
        <ele>323.034241</ele>
        <time>2016-06-05T06:16:10Z</time>
      </trkpt>
      <trkpt lat="45.68483" lon="4.67404">
        <ele>322.319641</ele>
        <time>2016-06-05T06:16:12Z</time>
      </trkpt>
      <trkpt lat="45.68478" lon="4.6742">
        <ele>321.613098</ele>
        <time>2016-06-05T06:16:14Z</time>
      </trkpt>
      <trkpt lat="45.68476" lon="4.6744">
        <ele>320.834534</ele>
        <time>2016-06-05T06:16:16Z</time>
      </trkpt>
      <trkpt lat="45.68477" lon="4.67462">
        <ele>320.030182</ele>
        <time>2016-06-05T06:16:18Z</time>
      </trkpt>
      <trkpt lat="45.68478" lon="4.67483">
        <ele>319.046204</ele>
        <time>2016-06-05T06:16:20Z</time>
      </trkpt>
      <trkpt lat="45.68483" lon="4.67503">
        <ele>318.209045</ele>
        <time>2016-06-05T06:16:22Z</time>
      </trkpt>
      <trkpt lat="45.68488" lon="4.67513">
        <ele>317.210144</ele>
        <time>2016-06-05T06:16:24Z</time>
      </trkpt>
      <trkpt lat="45.68491" lon="4.67519">
        <ele>316.149719</ele>
        <time>2016-06-05T06:16:26Z</time>
      </trkpt>
      <trkpt lat="45.68492" lon="4.67526">
        <ele>315.52536</ele>
        <time>2016-06-05T06:16:28Z</time>
      </trkpt>
      <trkpt lat="45.6849" lon="4.67533">
        <ele>314.357513</ele>
        <time>2016-06-05T06:16:30Z</time>
      </trkpt>
      <trkpt lat="45.68487" lon="4.6754">
        <ele>313.452087</ele>
        <time>2016-06-05T06:16:32Z</time>
      </trkpt>
      <trkpt lat="45.68483" lon="4.67547">
        <ele>312.262421</ele>
        <time>2016-06-05T06:16:34Z</time>
      </trkpt>
      <trkpt lat="45.68478" lon="4.67555">
        <ele>311.167908</ele>
        <time>2016-06-05T06:16:36Z</time>
      </trkpt>
      <trkpt lat="45.68475" lon="4.67563">
        <ele>310.248383</ele>
        <time>2016-06-05T06:16:38Z</time>
      </trkpt>
      <trkpt lat="45.68477" lon="4.67572">
        <ele>309.363251</ele>
        <time>2016-06-05T06:16:40Z</time>
      </trkpt>
      <trkpt lat="45.6848" lon="4.6758">
        <ele>308.310486</ele>
        <time>2016-06-05T06:16:42Z</time>
      </trkpt>
      <trkpt lat="45.68483" lon="4.67589">
        <ele>307.647888</ele>
        <time>2016-06-05T06:16:44Z</time>
      </trkpt>
      <trkpt lat="45.68485" lon="4.67597">
        <ele>306.886597</ele>
        <time>2016-06-05T06:16:46Z</time>
      </trkpt>
      <trkpt lat="45.68487" lon="4.67605">
        <ele>306.363739</ele>
        <time>2016-06-05T06:16:48Z</time>
      </trkpt>
      <trkpt lat="45.68489" lon="4.67613">
        <ele>305.865967</ele>
        <time>2016-06-05T06:16:50Z</time>
      </trkpt>
      <trkpt lat="45.6849" lon="4.6762">
        <ele>305.551788</ele>
        <time>2016-06-05T06:16:52Z</time>
      </trkpt>
      <trkpt lat="45.6849" lon="4.67628">
        <ele>305.192719</ele>
        <time>2016-06-05T06:16:54Z</time>
      </trkpt>
      <trkpt lat="45.6849" lon="4.67636">
        <ele>304.913116</ele>
        <time>2016-06-05T06:16:56Z</time>
      </trkpt>
      <trkpt lat="45.68489" lon="4.67645">
        <ele>304.804138</ele>
        <time>2016-06-05T06:16:58Z</time>
      </trkpt>
      <trkpt lat="45.68486" lon="4.67653">
        <ele>304.684387</ele>
        <time>2016-06-05T06:17:00Z</time>
      </trkpt>
      <trkpt lat="45.68483" lon="4.67661">
        <ele>304.671661</ele>
        <time>2016-06-05T06:17:02Z</time>
      </trkpt>
      <trkpt lat="45.6848" lon="4.67669">
        <ele>304.518524</ele>
        <time>2016-06-05T06:17:04Z</time>
      </trkpt>
      <trkpt lat="45.68475" lon="4.67676">
        <ele>304.659607</ele>
        <time>2016-06-05T06:17:06Z</time>
      </trkpt>
      <trkpt lat="45.68471" lon="4.67682">
        <ele>304.792084</ele>
        <time>2016-06-05T06:17:08Z</time>
      </trkpt>
      <trkpt lat="45.68466" lon="4.67688">
        <ele>305.160034</ele>
        <time>2016-06-05T06:17:10Z</time>
      </trkpt>
      <trkpt lat="45.68461" lon="4.67693">
        <ele>305.566956</ele>
        <time>2016-06-05T06:17:12Z</time>
      </trkpt>
      <trkpt lat="45.68456" lon="4.67698">
        <ele>306.052063</ele>
        <time>2016-06-05T06:17:14Z</time>
      </trkpt>
      <trkpt lat="45.6845" lon="4.67701">
        <ele>306.695557</ele>
        <time>2016-06-05T06:17:16Z</time>
      </trkpt>
      <trkpt lat="45.68445" lon="4.67703">
        <ele>307.09967</ele>
        <time>2016-06-05T06:17:18Z</time>
      </trkpt>
      <trkpt lat="45.6844" lon="4.67705">
        <ele>307.599731</ele>
        <time>2016-06-05T06:17:20Z</time>
      </trkpt>
      <trkpt lat="45.68435" lon="4.67707">
        <ele>308.185028</ele>
        <time>2016-06-05T06:17:22Z</time>
      </trkpt>
      <trkpt lat="45.68429" lon="4.67709">
        <ele>308.856171</ele>
        <time>2016-06-05T06:17:24Z</time>
      </trkpt>
      <trkpt lat="45.68424" lon="4.67712">
        <ele>309.366943</ele>
        <time>2016-06-05T06:17:26Z</time>
      </trkpt>
      <trkpt lat="45.68417" lon="4.67714">
        <ele>309.450317</ele>
        <time>2016-06-05T06:17:28Z</time>
      </trkpt>
      <trkpt lat="45.68411" lon="4.67715">
        <ele>309.942719</ele>
        <time>2016-06-05T06:17:30Z</time>
      </trkpt>
      <trkpt lat="45.68406" lon="4.67717">
        <ele>310.355286</ele>
        <time>2016-06-05T06:17:32Z</time>
      </trkpt>
      <trkpt lat="45.684" lon="4.6772">
        <ele>310.829834</ele>
        <time>2016-06-05T06:17:34Z</time>
      </trkpt>
      <trkpt lat="45.68394" lon="4.67722">
        <ele>311.298004</ele>
        <time>2016-06-05T06:17:36Z</time>
      </trkpt>
      <trkpt lat="45.68388" lon="4.67724">
        <ele>311.666565</ele>
        <time>2016-06-05T06:17:38Z</time>
      </trkpt>
      <trkpt lat="45.68382" lon="4.67726">
        <ele>312.115448</ele>
        <time>2016-06-05T06:17:40Z</time>
      </trkpt>
      <trkpt lat="45.68375" lon="4.67728">
        <ele>312.6521</ele>
        <time>2016-06-05T06:17:42Z</time>
      </trkpt>
      <trkpt lat="45.6837" lon="4.6773">
        <ele>313.103027</ele>
        <time>2016-06-05T06:17:44Z</time>
      </trkpt>
      <trkpt lat="45.68364" lon="4.67732">
        <ele>313.48999</ele>
        <time>2016-06-05T06:17:46Z</time>
      </trkpt>
      <trkpt lat="45.68358" lon="4.67734">
        <ele>314.001007</ele>
        <time>2016-06-05T06:17:48Z</time>
      </trkpt>
      <trkpt lat="45.68353" lon="4.67736">
        <ele>314.460754</ele>
        <time>2016-06-05T06:17:50Z</time>
      </trkpt>
      <trkpt lat="45.68347" lon="4.67737">
        <ele>314.8367</ele>
        <time>2016-06-05T06:17:52Z</time>
      </trkpt>
      <trkpt lat="45.68342" lon="4.67739">
        <ele>315.03772</ele>
        <time>2016-06-05T06:17:54Z</time>
      </trkpt>
      <trkpt lat="45.68337" lon="4.67741">
        <ele>315.501862</ele>
        <time>2016-06-05T06:17:56Z</time>
      </trkpt>
      <trkpt lat="45.68331" lon="4.67743">
        <ele>315.841949</ele>
        <time>2016-06-05T06:17:58Z</time>
      </trkpt>
      <trkpt lat="45.68325" lon="4.67744">
        <ele>316.017334</ele>
        <time>2016-06-05T06:18:00Z</time>
      </trkpt>
      <trkpt lat="45.6832" lon="4.67746">
        <ele>316.422516</ele>
        <time>2016-06-05T06:18:02Z</time>
      </trkpt>
      <trkpt lat="45.68315" lon="4.67748">
        <ele>316.768005</ele>
        <time>2016-06-05T06:18:04Z</time>
      </trkpt>
      <trkpt lat="45.68309" lon="4.6775">
        <ele>316.949829</ele>
        <time>2016-06-05T06:18:06Z</time>
      </trkpt>
      <trkpt lat="45.68304" lon="4.67752">
        <ele>317.238586</ele>
        <time>2016-06-05T06:18:08Z</time>
      </trkpt>
      <trkpt lat="45.68298" lon="4.67754">
        <ele>317.922546</ele>
        <time>2016-06-05T06:18:10Z</time>
      </trkpt>
      <trkpt lat="45.68293" lon="4.67755">
        <ele>318.179291</ele>
        <time>2016-06-05T06:18:12Z</time>
      </trkpt>
      <trkpt lat="45.68288" lon="4.67757">
        <ele>318.515137</ele>
        <time>2016-06-05T06:18:14Z</time>
      </trkpt>
      <trkpt lat="45.68284" lon="4.67759">
        <ele>318.966492</ele>
        <time>2016-06-05T06:18:16Z</time>
      </trkpt>
      <trkpt lat="45.68279" lon="4.67761">
        <ele>319.387146</ele>
        <time>2016-06-05T06:18:18Z</time>
      </trkpt>
      <trkpt lat="45.68274" lon="4.67762">
        <ele>319.815002</ele>
        <time>2016-06-05T06:18:20Z</time>
      </trkpt>
      <trkpt lat="45.68269" lon="4.67764">
        <ele>320.118835</ele>
        <time>2016-06-05T06:18:22Z</time>
      </trkpt>
      <trkpt lat="45.68264" lon="4.67766">
        <ele>320.527496</ele>
        <time>2016-06-05T06:18:24Z</time>
      </trkpt>
      <trkpt lat="45.68259" lon="4.67767">
        <ele>321.034821</ele>
        <time>2016-06-05T06:18:26Z</time>
      </trkpt>
      <trkpt lat="45.68254" lon="4.67768">
        <ele>321.317291</ele>
        <time>2016-06-05T06:18:28Z</time>
      </trkpt>
      <trkpt lat="45.68249" lon="4.6777">
        <ele>321.512207</ele>
        <time>2016-06-05T06:18:30Z</time>
      </trkpt>
      <trkpt lat="45.68245" lon="4.67772">
        <ele>321.740143</ele>
        <time>2016-06-05T06:18:32Z</time>
      </trkpt>
      <trkpt lat="45.6824" lon="4.67774">
        <ele>322.114594</ele>
        <time>2016-06-05T06:18:34Z</time>
      </trkpt>
      <trkpt lat="45.68237" lon="4.67776">
        <ele>322.574707</ele>
        <time>2016-06-05T06:18:36Z</time>
      </trkpt>
      <trkpt lat="45.68235" lon="4.6778">
        <ele>322.770111</ele>
        <time>2016-06-05T06:18:38Z</time>
      </trkpt>
      <trkpt lat="45.68234" lon="4.67786">
        <ele>323.168213</ele>
        <time>2016-06-05T06:18:40Z</time>
      </trkpt>
      <trkpt lat="45.68234" lon="4.67793">
        <ele>323.603943</ele>
        <time>2016-06-05T06:18:42Z</time>
      </trkpt>
      <trkpt lat="45.68234" lon="4.67801">
        <ele>323.967041</ele>
        <time>2016-06-05T06:18:44Z</time>
      </trkpt>
      <trkpt lat="45.68235" lon="4.67809">
        <ele>324.348938</ele>
        <time>2016-06-05T06:18:46Z</time>
      </trkpt>
      <trkpt lat="45.68236" lon="4.67817">
        <ele>324.80957</ele>
        <time>2016-06-05T06:18:48Z</time>
      </trkpt>
      <trkpt lat="45.68237" lon="4.67826">
        <ele>324.878021</ele>
        <time>2016-06-05T06:18:50Z</time>
      </trkpt>
      <trkpt lat="45.68238" lon="4.67835">
        <ele>325.306824</ele>
        <time>2016-06-05T06:18:52Z</time>
      </trkpt>
      <trkpt lat="45.68239" lon="4.67844">
        <ele>325.65033</ele>
        <time>2016-06-05T06:18:54Z</time>
      </trkpt>
      <trkpt lat="45.6824" lon="4.67853">
        <ele>325.965027</ele>
        <time>2016-06-05T06:18:56Z</time>
      </trkpt>
      <trkpt lat="45.68242" lon="4.67862">
        <ele>326.301086</ele>
        <time>2016-06-05T06:18:58Z</time>
      </trkpt>
      <trkpt lat="45.68243" lon="4.67871">
        <ele>326.401764</ele>
        <time>2016-06-05T06:19:00Z</time>
      </trkpt>
      <trkpt lat="45.68245" lon="4.6788">
        <ele>326.750793</ele>
        <time>2016-06-05T06:19:02Z</time>
      </trkpt>
      <trkpt lat="45.68247" lon="4.6789">
        <ele>327.08905</ele>
        <time>2016-06-05T06:19:04Z</time>
      </trkpt>
      <trkpt lat="45.68251" lon="4.67899">
        <ele>327.427826</ele>
        <time>2016-06-05T06:19:06Z</time>
      </trkpt>
      <trkpt lat="45.68254" lon="4.67909">
        <ele>327.676208</ele>
        <time>2016-06-05T06:19:08Z</time>
      </trkpt>
      <trkpt lat="45.68257" lon="4.67919">
        <ele>327.978088</ele>
        <time>2016-06-05T06:19:10Z</time>
      </trkpt>
      <trkpt lat="45.68261" lon="4.67928">
        <ele>328.324768</ele>
        <time>2016-06-05T06:19:12Z</time>
      </trkpt>
      <trkpt lat="45.68263" lon="4.67938">
        <ele>328.56134</ele>
        <time>2016-06-05T06:19:14Z</time>
      </trkpt>
      <trkpt lat="45.68266" lon="4.67947">
        <ele>328.796906</ele>
        <time>2016-06-05T06:19:16Z</time>
      </trkpt>
      <trkpt lat="45.68269" lon="4.67957">
        <ele>329.017822</ele>
        <time>2016-06-05T06:19:18Z</time>
      </trkpt>
      <trkpt lat="45.68272" lon="4.67967">
        <ele>329.317627</ele>
        <time>2016-06-05T06:19:20Z</time>
      </trkpt>
      <trkpt lat="45.68274" lon="4.67977">
        <ele>329.560394</ele>
        <time>2016-06-05T06:19:22Z</time>
      </trkpt>
      <trkpt lat="45.68276" lon="4.67987">
        <ele>329.721497</ele>
        <time>2016-06-05T06:19:24Z</time>
      </trkpt>
      <trkpt lat="45.68277" lon="4.67997">
        <ele>329.924957</ele>
        <time>2016-06-05T06:19:26Z</time>
      </trkpt>
      <trkpt lat="45.68279" lon="4.68007">
        <ele>330.174652</ele>
        <time>2016-06-05T06:19:28Z</time>
      </trkpt>
      <trkpt lat="45.68281" lon="4.68017">
        <ele>330.480469</ele>
        <time>2016-06-05T06:19:30Z</time>
      </trkpt>
      <trkpt lat="45.68282" lon="4.68027">
        <ele>330.773895</ele>
        <time>2016-06-05T06:19:32Z</time>
      </trkpt>
      <trkpt lat="45.68284" lon="4.68038">
        <ele>330.80603</ele>
        <time>2016-06-05T06:19:34Z</time>
      </trkpt>
      <trkpt lat="45.68286" lon="4.68048">
        <ele>331.102844</ele>
        <time>2016-06-05T06:19:36Z</time>
      </trkpt>
      <trkpt lat="45.68287" lon="4.68059">
        <ele>331.214233</ele>
        <time>2016-06-05T06:19:38Z</time>
      </trkpt>
      <trkpt lat="45.68288" lon="4.68069">
        <ele>331.464539</ele>
        <time>2016-06-05T06:19:40Z</time>
      </trkpt>
      <trkpt lat="45.6829" lon="4.68079">
        <ele>331.661591</ele>
        <time>2016-06-05T06:19:42Z</time>
      </trkpt>
      <trkpt lat="45.68291" lon="4.6809">
        <ele>331.706604</ele>
        <time>2016-06-05T06:19:44Z</time>
      </trkpt>
      <trkpt lat="45.68292" lon="4.68102">
        <ele>331.836792</ele>
        <time>2016-06-05T06:19:46Z</time>
      </trkpt>
      <trkpt lat="45.68293" lon="4.68116">
        <ele>331.885895</ele>
        <time>2016-06-05T06:19:48Z</time>
      </trkpt>
      <trkpt lat="45.68294" lon="4.6813">
        <ele>331.920166</ele>
        <time>2016-06-05T06:19:50Z</time>
      </trkpt>
      <trkpt lat="45.68296" lon="4.68145">
        <ele>332.020813</ele>
        <time>2016-06-05T06:19:52Z</time>
      </trkpt>
      <trkpt lat="45.68297" lon="4.68161">
        <ele>332.020813</ele>
        <time>2016-06-05T06:19:54Z</time>
      </trkpt>
      <trkpt lat="45.68297" lon="4.68177">
        <ele>331.899902</ele>
        <time>2016-06-05T06:19:56Z</time>
      </trkpt>
      <trkpt lat="45.68298" lon="4.68194">
        <ele>331.982422</ele>
        <time>2016-06-05T06:19:58Z</time>
      </trkpt>
      <trkpt lat="45.68299" lon="4.68211">
        <ele>331.742554</ele>
        <time>2016-06-05T06:20:00Z</time>
      </trkpt>
      <trkpt lat="45.683" lon="4.68228">
        <ele>331.574707</ele>
        <time>2016-06-05T06:20:02Z</time>
      </trkpt>
      <trkpt lat="45.68301" lon="4.68246">
        <ele>331.366241</ele>
        <time>2016-06-05T06:20:04Z</time>
      </trkpt>
      <trkpt lat="45.68302" lon="4.68263">
        <ele>331.284363</ele>
        <time>2016-06-05T06:20:06Z</time>
      </trkpt>
      <trkpt lat="45.68304" lon="4.6828">
        <ele>331.08075</ele>
        <time>2016-06-05T06:20:08Z</time>
      </trkpt>
      <trkpt lat="45.68305" lon="4.68298">
        <ele>330.906342</ele>
        <time>2016-06-05T06:20:10Z</time>
      </trkpt>
      <trkpt lat="45.68306" lon="4.68317">
        <ele>330.480164</ele>
        <time>2016-06-05T06:20:12Z</time>
      </trkpt>
      <trkpt lat="45.68308" lon="4.68338">
        <ele>330.148163</ele>
        <time>2016-06-05T06:20:14Z</time>
      </trkpt>
      <trkpt lat="45.68308" lon="4.68361">
        <ele>329.664337</ele>
        <time>2016-06-05T06:20:16Z</time>
      </trkpt>
      <trkpt lat="45.68308" lon="4.68382">
        <ele>329.086151</ele>
        <time>2016-06-05T06:20:18Z</time>
      </trkpt>
      <trkpt lat="45.68311" lon="4.68402">
        <ele>328.660248</ele>
        <time>2016-06-05T06:20:20Z</time>
      </trkpt>
      <trkpt lat="45.68316" lon="4.68419">
        <ele>328.392548</ele>
        <time>2016-06-05T06:20:22Z</time>
      </trkpt>
      <trkpt lat="45.68322" lon="4.68433">
        <ele>327.880798</ele>
        <time>2016-06-05T06:20:24Z</time>
      </trkpt>
      <trkpt lat="45.68329" lon="4.68445">
        <ele>327.563843</ele>
        <time>2016-06-05T06:20:26Z</time>
      </trkpt>
      <trkpt lat="45.68335" lon="4.68457">
        <ele>327.161072</ele>
        <time>2016-06-05T06:20:28Z</time>
      </trkpt>
      <trkpt lat="45.68341" lon="4.68468">
        <ele>326.850586</ele>
        <time>2016-06-05T06:20:30Z</time>
      </trkpt>
      <trkpt lat="45.68347" lon="4.68479">
        <ele>326.775635</ele>
        <time>2016-06-05T06:20:32Z</time>
      </trkpt>
      <trkpt lat="45.68353" lon="4.6849">
        <ele>326.545715</ele>
        <time>2016-06-05T06:20:34Z</time>
      </trkpt>
      <trkpt lat="45.68358" lon="4.685">
        <ele>326.337341</ele>
        <time>2016-06-05T06:20:36Z</time>
      </trkpt>
      <trkpt lat="45.68363" lon="4.6851">
        <ele>326.334076</ele>
        <time>2016-06-05T06:20:38Z</time>
      </trkpt>
      <trkpt lat="45.68369" lon="4.68519">
        <ele>326.158508</ele>
        <time>2016-06-05T06:20:40Z</time>
      </trkpt>
      <trkpt lat="45.68374" lon="4.68529">
        <ele>326.164886</ele>
        <time>2016-06-05T06:20:42Z</time>
      </trkpt>
      <trkpt lat="45.68379" lon="4.68539">
        <ele>326.180725</ele>
        <time>2016-06-05T06:20:44Z</time>
      </trkpt>
      <trkpt lat="45.68383" lon="4.68549">
        <ele>326.284851</ele>
        <time>2016-06-05T06:20:46Z</time>
      </trkpt>
      <trkpt lat="45.68388" lon="4.68558">
        <ele>326.492584</ele>
        <time>2016-06-05T06:20:48Z</time>
      </trkpt>
      <trkpt lat="45.68393" lon="4.68569">
        <ele>326.608398</ele>
        <time>2016-06-05T06:20:50Z</time>
      </trkpt>
      <trkpt lat="45.68398" lon="4.68578">
        <ele>326.88559</ele>
        <time>2016-06-05T06:20:52Z</time>
      </trkpt>
      <trkpt lat="45.68404" lon="4.68588">
        <ele>327.129791</ele>
        <time>2016-06-05T06:20:54Z</time>
      </trkpt>
      <trkpt lat="45.68409" lon="4.68599">
        <ele>327.615814</ele>
        <time>2016-06-05T06:20:56Z</time>
      </trkpt>
      <trkpt lat="45.68414" lon="4.68609">
        <ele>327.891998</ele>
        <time>2016-06-05T06:20:58Z</time>
      </trkpt>
      <trkpt lat="45.6842" lon="4.6862">
        <ele>328.189606</ele>
        <time>2016-06-05T06:21:00Z</time>
      </trkpt>
      <trkpt lat="45.68425" lon="4.68632">
        <ele>328.527893</ele>
        <time>2016-06-05T06:21:02Z</time>
      </trkpt>
      <trkpt lat="45.68431" lon="4.68643">
        <ele>328.718597</ele>
        <time>2016-06-05T06:21:04Z</time>
      </trkpt>
      <trkpt lat="45.68436" lon="4.68654">
        <ele>329.183258</ele>
        <time>2016-06-05T06:21:06Z</time>
      </trkpt>
      <trkpt lat="45.68441" lon="4.68665">
        <ele>329.322418</ele>
        <time>2016-06-05T06:21:08Z</time>
      </trkpt>
      <trkpt lat="45.68448" lon="4.68677">
        <ele>329.452972</ele>
        <time>2016-06-05T06:21:10Z</time>
      </trkpt>
      <trkpt lat="45.68454" lon="4.6869">
        <ele>329.654266</ele>
        <time>2016-06-05T06:21:12Z</time>
      </trkpt>
      <trkpt lat="45.68459" lon="4.68702">
        <ele>329.796356</ele>
        <time>2016-06-05T06:21:14Z</time>
      </trkpt>
      <trkpt lat="45.68465" lon="4.68714">
        <ele>329.880554</ele>
        <time>2016-06-05T06:21:16Z</time>
      </trkpt>
      <trkpt lat="45.6847" lon="4.68726">
        <ele>330.080841</ele>
        <time>2016-06-05T06:21:18Z</time>
      </trkpt>
      <trkpt lat="45.68476" lon="4.68738">
        <ele>330.031586</ele>
        <time>2016-06-05T06:21:20Z</time>
      </trkpt>
      <trkpt lat="45.68482" lon="4.6875">
        <ele>330.254303</ele>
        <time>2016-06-05T06:21:22Z</time>
      </trkpt>
      <trkpt lat="45.68487" lon="4.68762">
        <ele>330.410614</ele>
        <time>2016-06-05T06:21:24Z</time>
      </trkpt>
      <trkpt lat="45.68493" lon="4.68774">
        <ele>330.387085</ele>
        <time>2016-06-05T06:21:26Z</time>
      </trkpt>
      <trkpt lat="45.68499" lon="4.68786">
        <ele>330.315002</ele>
        <time>2016-06-05T06:21:28Z</time>
      </trkpt>
      <trkpt lat="45.68504" lon="4.68799">
        <ele>330.1651</ele>
        <time>2016-06-05T06:21:30Z</time>
      </trkpt>
      <trkpt lat="45.6851" lon="4.68812">
        <ele>330.171509</ele>
        <time>2016-06-05T06:21:32Z</time>
      </trkpt>
      <trkpt lat="45.68516" lon="4.68826">
        <ele>330.017395</ele>
        <time>2016-06-05T06:21:34Z</time>
      </trkpt>
      <trkpt lat="45.68521" lon="4.6884">
        <ele>329.898499</ele>
        <time>2016-06-05T06:21:36Z</time>
      </trkpt>
      <trkpt lat="45.68525" lon="4.68854">
        <ele>329.712646</ele>
        <time>2016-06-05T06:21:38Z</time>
      </trkpt>
      <trkpt lat="45.6853" lon="4.68869">
        <ele>329.584167</ele>
        <time>2016-06-05T06:21:40Z</time>
      </trkpt>
      <trkpt lat="45.68534" lon="4.68884">
        <ele>329.318634</ele>
        <time>2016-06-05T06:21:42Z</time>
      </trkpt>
      <trkpt lat="45.68538" lon="4.68899">
        <ele>329.098633</ele>
        <time>2016-06-05T06:21:44Z</time>
      </trkpt>
      <trkpt lat="45.68541" lon="4.68914">
        <ele>328.760162</ele>
        <time>2016-06-05T06:21:46Z</time>
      </trkpt>
      <trkpt lat="45.68544" lon="4.6893">
        <ele>328.586731</ele>
        <time>2016-06-05T06:21:48Z</time>
      </trkpt>
      <trkpt lat="45.68546" lon="4.68946">
        <ele>328.492828</ele>
        <time>2016-06-05T06:21:50Z</time>
      </trkpt>
      <trkpt lat="45.68549" lon="4.68962">
        <ele>328.298035</ele>
        <time>2016-06-05T06:21:52Z</time>
      </trkpt>
      <trkpt lat="45.68551" lon="4.68979">
        <ele>327.996124</ele>
        <time>2016-06-05T06:21:54Z</time>
      </trkpt>
      <trkpt lat="45.68553" lon="4.68997">
        <ele>327.867645</ele>
        <time>2016-06-05T06:21:56Z</time>
      </trkpt>
      <trkpt lat="45.68554" lon="4.69014">
        <ele>327.570068</ele>
        <time>2016-06-05T06:21:58Z</time>
      </trkpt>
      <trkpt lat="45.68555" lon="4.69032">
        <ele>327.320557</ele>
        <time>2016-06-05T06:22:00Z</time>
      </trkpt>
      <trkpt lat="45.68556" lon="4.69049">
        <ele>327.149292</ele>
        <time>2016-06-05T06:22:02Z</time>
      </trkpt>
      <trkpt lat="45.68559" lon="4.69066">
        <ele>326.654724</ele>
        <time>2016-06-05T06:22:04Z</time>
      </trkpt>
      <trkpt lat="45.68564" lon="4.69082">
        <ele>326.006134</ele>
        <time>2016-06-05T06:22:06Z</time>
      </trkpt>
      <trkpt lat="45.68567" lon="4.69098">
        <ele>325.67218</ele>
        <time>2016-06-05T06:22:08Z</time>
      </trkpt>
      <trkpt lat="45.68572" lon="4.69113">
        <ele>325.460022</ele>
        <time>2016-06-05T06:22:10Z</time>
      </trkpt>
      <trkpt lat="45.68575" lon="4.69129">
        <ele>325.121765</ele>
        <time>2016-06-05T06:22:12Z</time>
      </trkpt>
      <trkpt lat="45.68577" lon="4.69144">
        <ele>324.684906</ele>
        <time>2016-06-05T06:22:14Z</time>
      </trkpt>
      <trkpt lat="45.68578" lon="4.69159">
        <ele>324.49115</ele>
        <time>2016-06-05T06:22:16Z</time>
      </trkpt>
      <trkpt lat="45.6858" lon="4.69173">
        <ele>324.312958</ele>
        <time>2016-06-05T06:22:18Z</time>
      </trkpt>
      <trkpt lat="45.6858" lon="4.69186">
        <ele>323.925598</ele>
        <time>2016-06-05T06:22:20Z</time>
      </trkpt>
      <trkpt lat="45.6858" lon="4.69198">
        <ele>323.834167</ele>
        <time>2016-06-05T06:22:22Z</time>
      </trkpt>
      <trkpt lat="45.68579" lon="4.69209">
        <ele>323.82132</ele>
        <time>2016-06-05T06:22:24Z</time>
      </trkpt>
      <trkpt lat="45.68579" lon="4.6922">
        <ele>323.865692</ele>
        <time>2016-06-05T06:22:26Z</time>
      </trkpt>
      <trkpt lat="45.68578" lon="4.69231">
        <ele>323.900818</ele>
        <time>2016-06-05T06:22:28Z</time>
      </trkpt>
      <trkpt lat="45.68577" lon="4.69241">
        <ele>324.03067</ele>
        <time>2016-06-05T06:22:30Z</time>
      </trkpt>
      <trkpt lat="45.68576" lon="4.69252">
        <ele>324.015686</ele>
        <time>2016-06-05T06:22:32Z</time>
      </trkpt>
      <trkpt lat="45.68573" lon="4.69262">
        <ele>324.36676</ele>
        <time>2016-06-05T06:22:34Z</time>
      </trkpt>
      <trkpt lat="45.68571" lon="4.69271">
        <ele>324.653687</ele>
        <time>2016-06-05T06:22:36Z</time>
      </trkpt>
      <trkpt lat="45.68568" lon="4.69281">
        <ele>324.939636</ele>
        <time>2016-06-05T06:22:38Z</time>
      </trkpt>
      <trkpt lat="45.68566" lon="4.6929">
        <ele>325.335754</ele>
        <time>2016-06-05T06:22:40Z</time>
      </trkpt>
      <trkpt lat="45.68564" lon="4.69299">
        <ele>325.701996</ele>
        <time>2016-06-05T06:22:42Z</time>
      </trkpt>
      <trkpt lat="45.68561" lon="4.69308">
        <ele>326.155914</ele>
        <time>2016-06-05T06:22:44Z</time>
      </trkpt>
      <trkpt lat="45.68559" lon="4.69317">
        <ele>326.841064</ele>
        <time>2016-06-05T06:22:46Z</time>
      </trkpt>
      <trkpt lat="45.68556" lon="4.69325">
        <ele>327.543274</ele>
        <time>2016-06-05T06:22:48Z</time>
      </trkpt>
      <trkpt lat="45.68552" lon="4.69334">
        <ele>327.997467</ele>
        <time>2016-06-05T06:22:50Z</time>
      </trkpt>
      <trkpt lat="45.68549" lon="4.69343">
        <ele>328.410736</ele>
        <time>2016-06-05T06:22:52Z</time>
      </trkpt>
      <trkpt lat="45.68546" lon="4.69352">
        <ele>328.723328</ele>
        <time>2016-06-05T06:22:54Z</time>
      </trkpt>
      <trkpt lat="45.68543" lon="4.69361">
        <ele>329.318604</ele>
        <time>2016-06-05T06:22:56Z</time>
      </trkpt>
      <trkpt lat="45.6854" lon="4.6937">
        <ele>329.74054</ele>
        <time>2016-06-05T06:22:58Z</time>
      </trkpt>
      <trkpt lat="45.68536" lon="4.69379">
        <ele>330.271667</ele>
        <time>2016-06-05T06:23:00Z</time>
      </trkpt>
      <trkpt lat="45.68533" lon="4.69388">
        <ele>330.931976</ele>
        <time>2016-06-05T06:23:02Z</time>
      </trkpt>
      <trkpt lat="45.6853" lon="4.69397">
        <ele>331.524719</ele>
        <time>2016-06-05T06:23:04Z</time>
      </trkpt>
      <trkpt lat="45.68527" lon="4.69406">
        <ele>332.081604</ele>
        <time>2016-06-05T06:23:06Z</time>
      </trkpt>
      <trkpt lat="45.68524" lon="4.69414">
        <ele>332.63559</ele>
        <time>2016-06-05T06:23:08Z</time>
      </trkpt>
      <trkpt lat="45.68521" lon="4.69423">
        <ele>333.154785</ele>
        <time>2016-06-05T06:23:10Z</time>
      </trkpt>
      <trkpt lat="45.68518" lon="4.69431">
        <ele>333.598297</ele>
        <time>2016-06-05T06:23:12Z</time>
      </trkpt>
      <trkpt lat="45.68515" lon="4.6944">
        <ele>334.052429</ele>
        <time>2016-06-05T06:23:14Z</time>
      </trkpt>
      <trkpt lat="45.68512" lon="4.69448">
        <ele>334.534515</ele>
        <time>2016-06-05T06:23:16Z</time>
      </trkpt>
      <trkpt lat="45.68509" lon="4.69457">
        <ele>334.955505</ele>
        <time>2016-06-05T06:23:18Z</time>
      </trkpt>
      <trkpt lat="45.68506" lon="4.69465">
        <ele>335.38147</ele>
        <time>2016-06-05T06:23:20Z</time>
      </trkpt>
      <trkpt lat="45.68503" lon="4.69474">
        <ele>335.660034</ele>
        <time>2016-06-05T06:23:22Z</time>
      </trkpt>
      <trkpt lat="45.685" lon="4.69484">
        <ele>336.071991</ele>
        <time>2016-06-05T06:23:24Z</time>
      </trkpt>
      <trkpt lat="45.68497" lon="4.69494">
        <ele>336.53064</ele>
        <time>2016-06-05T06:23:26Z</time>
      </trkpt>
      <trkpt lat="45.68494" lon="4.69503">
        <ele>336.698792</ele>
        <time>2016-06-05T06:23:28Z</time>
      </trkpt>
      <trkpt lat="45.68492" lon="4.69513">
        <ele>336.964539</ele>
        <time>2016-06-05T06:23:30Z</time>
      </trkpt>
      <trkpt lat="45.68491" lon="4.69523">
        <ele>337.341736</ele>
        <time>2016-06-05T06:23:32Z</time>
      </trkpt>
      <trkpt lat="45.6849" lon="4.69534">
        <ele>337.686707</ele>
        <time>2016-06-05T06:23:34Z</time>
      </trkpt>
      <trkpt lat="45.68489" lon="4.69544">
        <ele>338.02533</ele>
        <time>2016-06-05T06:23:36Z</time>
      </trkpt>
      <trkpt lat="45.68488" lon="4.69555">
        <ele>338.338196</ele>
        <time>2016-06-05T06:23:38Z</time>
      </trkpt>
      <trkpt lat="45.68487" lon="4.69566">
        <ele>338.644745</ele>
        <time>2016-06-05T06:23:40Z</time>
      </trkpt>
      <trkpt lat="45.68487" lon="4.69577">
        <ele>338.90744</ele>
        <time>2016-06-05T06:23:42Z</time>
      </trkpt>
      <trkpt lat="45.68486" lon="4.69587">
        <ele>339.207489</ele>
        <time>2016-06-05T06:23:44Z</time>
      </trkpt>
      <trkpt lat="45.68486" lon="4.69598">
        <ele>339.456177</ele>
        <time>2016-06-05T06:23:46Z</time>
      </trkpt>
      <trkpt lat="45.68485" lon="4.69608">
        <ele>339.60672</ele>
        <time>2016-06-05T06:23:48Z</time>
      </trkpt>
      <trkpt lat="45.68483" lon="4.69618">
        <ele>339.709534</ele>
        <time>2016-06-05T06:23:50Z</time>
      </trkpt>
      <trkpt lat="45.68481" lon="4.69628">
        <ele>339.90033</ele>
        <time>2016-06-05T06:23:52Z</time>
      </trkpt>
      <trkpt lat="45.68479" lon="4.69637">
        <ele>340.170471</ele>
        <time>2016-06-05T06:23:54Z</time>
      </trkpt>
      <trkpt lat="45.68477" lon="4.69646">
        <ele>340.427734</ele>
        <time>2016-06-05T06:23:56Z</time>
      </trkpt>
      <trkpt lat="45.68474" lon="4.69654">
        <ele>340.519958</ele>
        <time>2016-06-05T06:23:58Z</time>
      </trkpt>
      <trkpt lat="45.68471" lon="4.69663">
        <ele>340.702667</ele>
        <time>2016-06-05T06:24:00Z</time>
      </trkpt>
      <trkpt lat="45.68469" lon="4.69671">
        <ele>340.969482</ele>
        <time>2016-06-05T06:24:02Z</time>
      </trkpt>
      <trkpt lat="45.68466" lon="4.6968">
        <ele>341.316101</ele>
        <time>2016-06-05T06:24:04Z</time>
      </trkpt>
      <trkpt lat="45.68464" lon="4.69688">
        <ele>341.656403</ele>
        <time>2016-06-05T06:24:06Z</time>
      </trkpt>
      <trkpt lat="45.68462" lon="4.69697">
        <ele>341.903015</ele>
        <time>2016-06-05T06:24:08Z</time>
      </trkpt>
      <trkpt lat="45.68459" lon="4.69705">
        <ele>342.231995</ele>
        <time>2016-06-05T06:24:10Z</time>
      </trkpt>
      <trkpt lat="45.68457" lon="4.69714">
        <ele>342.667389</ele>
        <time>2016-06-05T06:24:12Z</time>
      </trkpt>
      <trkpt lat="45.68454" lon="4.69722">
        <ele>343.070496</ele>
        <time>2016-06-05T06:24:14Z</time>
      </trkpt>
      <trkpt lat="45.68452" lon="4.69731">
        <ele>343.426086</ele>
        <time>2016-06-05T06:24:16Z</time>
      </trkpt>
      <trkpt lat="45.6845" lon="4.69739">
        <ele>343.970856</ele>
        <time>2016-06-05T06:24:18Z</time>
      </trkpt>
      <trkpt lat="45.68448" lon="4.69746">
        <ele>344.393372</ele>
        <time>2016-06-05T06:24:20Z</time>
      </trkpt>
      <trkpt lat="45.68445" lon="4.69754">
        <ele>344.822357</ele>
        <time>2016-06-05T06:24:22Z</time>
      </trkpt>
      <trkpt lat="45.68443" lon="4.69762">
        <ele>345.298523</ele>
        <time>2016-06-05T06:24:24Z</time>
      </trkpt>
      <trkpt lat="45.68441" lon="4.6977">
        <ele>345.609558</ele>
        <time>2016-06-05T06:24:26Z</time>
      </trkpt>
      <trkpt lat="45.68438" lon="4.69777">
        <ele>346.180237</ele>
        <time>2016-06-05T06:24:28Z</time>
      </trkpt>
      <trkpt lat="45.68435" lon="4.69785">
        <ele>346.698822</ele>
        <time>2016-06-05T06:24:30Z</time>
      </trkpt>
      <trkpt lat="45.68432" lon="4.69792">
        <ele>347.327332</ele>
        <time>2016-06-05T06:24:32Z</time>
      </trkpt>
      <trkpt lat="45.68429" lon="4.69799">
        <ele>347.840027</ele>
        <time>2016-06-05T06:24:34Z</time>
      </trkpt>
      <trkpt lat="45.68425" lon="4.69806">
        <ele>348.271301</ele>
        <time>2016-06-05T06:24:36Z</time>
      </trkpt>
      <trkpt lat="45.68421" lon="4.69813">
        <ele>348.850586</ele>
        <time>2016-06-05T06:24:38Z</time>
      </trkpt>
      <trkpt lat="45.68418" lon="4.6982">
        <ele>349.41803</ele>
        <time>2016-06-05T06:24:40Z</time>
      </trkpt>
      <trkpt lat="45.68415" lon="4.69827">
        <ele>349.913239</ele>
        <time>2016-06-05T06:24:42Z</time>
      </trkpt>
      <trkpt lat="45.68411" lon="4.69834">
        <ele>350.387695</ele>
        <time>2016-06-05T06:24:44Z</time>
      </trkpt>
      <trkpt lat="45.68407" lon="4.69841">
        <ele>350.769684</ele>
        <time>2016-06-05T06:24:46Z</time>
      </trkpt>
      <trkpt lat="45.68404" lon="4.69849">
        <ele>351.250366</ele>
        <time>2016-06-05T06:24:48Z</time>
      </trkpt>
      <trkpt lat="45.68401" lon="4.69856">
        <ele>351.673401</ele>
        <time>2016-06-05T06:24:50Z</time>
      </trkpt>
      <trkpt lat="45.68398" lon="4.69864">
        <ele>352.214264</ele>
        <time>2016-06-05T06:24:52Z</time>
      </trkpt>
      <trkpt lat="45.68396" lon="4.69872">
        <ele>352.392395</ele>
        <time>2016-06-05T06:24:54Z</time>
      </trkpt>
      <trkpt lat="45.68393" lon="4.6988">
        <ele>352.869598</ele>
        <time>2016-06-05T06:24:56Z</time>
      </trkpt>
      <trkpt lat="45.6839" lon="4.69889">
        <ele>353.350891</ele>
        <time>2016-06-05T06:24:58Z</time>
      </trkpt>
      <trkpt lat="45.68388" lon="4.69898">
        <ele>353.653564</ele>
        <time>2016-06-05T06:25:00Z</time>
      </trkpt>
      <trkpt lat="45.68385" lon="4.69907">
        <ele>354.036041</ele>
        <time>2016-06-05T06:25:02Z</time>
      </trkpt>
      <trkpt lat="45.68383" lon="4.69917">
        <ele>354.338684</ele>
        <time>2016-06-05T06:25:04Z</time>
      </trkpt>
      <trkpt lat="45.6838" lon="4.69925">
        <ele>354.712219</ele>
        <time>2016-06-05T06:25:06Z</time>
      </trkpt>
      <trkpt lat="45.68378" lon="4.69933">
        <ele>354.984924</ele>
        <time>2016-06-05T06:25:08Z</time>
      </trkpt>
      <trkpt lat="45.68376" lon="4.69942">
        <ele>355.273743</ele>
        <time>2016-06-05T06:25:10Z</time>
      </trkpt>
      <trkpt lat="45.68374" lon="4.6995">
        <ele>355.475525</ele>
        <time>2016-06-05T06:25:12Z</time>
      </trkpt>
      <trkpt lat="45.68375" lon="4.69959">
        <ele>355.761017</ele>
        <time>2016-06-05T06:25:14Z</time>
      </trkpt>
      <trkpt lat="45.6838" lon="4.69964">
        <ele>355.949951</ele>
        <time>2016-06-05T06:25:16Z</time>
      </trkpt>
      <trkpt lat="45.68385" lon="4.69969">
        <ele>356.194702</ele>
        <time>2016-06-05T06:25:18Z</time>
      </trkpt>
      <trkpt lat="45.68391" lon="4.69973">
        <ele>356.365448</ele>
        <time>2016-06-05T06:25:20Z</time>
      </trkpt>
      <trkpt lat="45.68396" lon="4.69976">
        <ele>356.425568</ele>
        <time>2016-06-05T06:25:22Z</time>
      </trkpt>
      <trkpt lat="45.68401" lon="4.69979">
        <ele>356.54425</ele>
        <time>2016-06-05T06:25:24Z</time>
      </trkpt>
      <trkpt lat="45.68407" lon="4.69982">
        <ele>356.756653</ele>
        <time>2016-06-05T06:25:26Z</time>
      </trkpt>
      <trkpt lat="45.68413" lon="4.69986">
        <ele>356.909119</ele>
        <time>2016-06-05T06:25:28Z</time>
      </trkpt>
      <trkpt lat="45.6842" lon="4.69992">
        <ele>357.029358</ele>
        <time>2016-06-05T06:25:30Z</time>
      </trkpt>
      <trkpt lat="45.68427" lon="4.69999">
        <ele>357.12384</ele>
        <time>2016-06-05T06:25:32Z</time>
      </trkpt>
      <trkpt lat="45.68435" lon="4.70006">
        <ele>357.055115</ele>
        <time>2016-06-05T06:25:34Z</time>
      </trkpt>
      <trkpt lat="45.68441" lon="4.70018">
        <ele>356.98822</ele>
        <time>2016-06-05T06:25:36Z</time>
      </trkpt>
      <trkpt lat="45.68443" lon="4.70034">
        <ele>356.972809</ele>
        <time>2016-06-05T06:25:38Z</time>
      </trkpt>
      <trkpt lat="45.68445" lon="4.70049">
        <ele>356.822479</ele>
        <time>2016-06-05T06:25:40Z</time>
      </trkpt>
      <trkpt lat="45.68448" lon="4.70064">
        <ele>356.725616</ele>
        <time>2016-06-05T06:25:42Z</time>
      </trkpt>
      <trkpt lat="45.68449" lon="4.70078">
        <ele>356.727722</ele>
        <time>2016-06-05T06:25:44Z</time>
      </trkpt>
      <trkpt lat="45.68452" lon="4.70091">
        <ele>356.586029</ele>
        <time>2016-06-05T06:25:46Z</time>
      </trkpt>
      <trkpt lat="45.68454" lon="4.70104">
        <ele>356.432556</ele>
        <time>2016-06-05T06:25:48Z</time>
      </trkpt>
      <trkpt lat="45.68457" lon="4.70118">
        <ele>356.128754</ele>
        <time>2016-06-05T06:25:50Z</time>
      </trkpt>
      <trkpt lat="45.68462" lon="4.7013">
        <ele>356.025696</ele>
        <time>2016-06-05T06:25:52Z</time>
      </trkpt>
      <trkpt lat="45.68468" lon="4.7014">
        <ele>355.890442</ele>
        <time>2016-06-05T06:25:54Z</time>
      </trkpt>
      <trkpt lat="45.68475" lon="4.70149">
        <ele>355.733734</ele>
        <time>2016-06-05T06:25:56Z</time>
      </trkpt>
      <trkpt lat="45.68481" lon="4.70159">
        <ele>355.631622</ele>
        <time>2016-06-05T06:25:58Z</time>
      </trkpt>
      <trkpt lat="45.68486" lon="4.7017">
        <ele>355.509216</ele>
        <time>2016-06-05T06:26:00Z</time>
      </trkpt>
      <trkpt lat="45.68492" lon="4.70182">
        <ele>355.337463</ele>
        <time>2016-06-05T06:26:02Z</time>
      </trkpt>
      <trkpt lat="45.68496" lon="4.70195">
        <ele>355.160828</ele>
        <time>2016-06-05T06:26:04Z</time>
      </trkpt>
      <trkpt lat="45.685" lon="4.70209">
        <ele>354.976715</ele>
        <time>2016-06-05T06:26:06Z</time>
      </trkpt>
      <trkpt lat="45.68503" lon="4.70223">
        <ele>354.839294</ele>
        <time>2016-06-05T06:26:08Z</time>
      </trkpt>
      <trkpt lat="45.68507" lon="4.70236">
        <ele>354.664734</ele>
        <time>2016-06-05T06:26:10Z</time>
      </trkpt>
      <trkpt lat="45.6851" lon="4.70248">
        <ele>354.475769</ele>
        <time>2016-06-05T06:26:12Z</time>
      </trkpt>
      <trkpt lat="45.68514" lon="4.70259">
        <ele>354.389893</ele>
        <time>2016-06-05T06:26:14Z</time>
      </trkpt>
      <trkpt lat="45.68516" lon="4.70271">
        <ele>354.237488</ele>
        <time>2016-06-05T06:26:16Z</time>
      </trkpt>
      <trkpt lat="45.68517" lon="4.70284">
        <ele>353.883301</ele>
        <time>2016-06-05T06:26:18Z</time>
      </trkpt>
      <trkpt lat="45.68517" lon="4.703">
        <ele>353.771667</ele>
        <time>2016-06-05T06:26:20Z</time>
      </trkpt>
      <trkpt lat="45.68516" lon="4.70318">
        <ele>353.649353</ele>
        <time>2016-06-05T06:26:22Z</time>
      </trkpt>
      <trkpt lat="45.68514" lon="4.70337">
        <ele>353.447693</ele>
        <time>2016-06-05T06:26:24Z</time>
      </trkpt>
      <trkpt lat="45.68511" lon="4.70355">
        <ele>353.207214</ele>
        <time>2016-06-05T06:26:26Z</time>
      </trkpt>
      <trkpt lat="45.68504" lon="4.70369">
        <ele>352.872437</ele>
        <time>2016-06-05T06:26:28Z</time>
      </trkpt>
      <trkpt lat="45.68498" lon="4.70381">
        <ele>352.455017</ele>
        <time>2016-06-05T06:26:30Z</time>
      </trkpt>
      <trkpt lat="45.68494" lon="4.70391">
        <ele>352.17395</ele>
        <time>2016-06-05T06:26:32Z</time>
      </trkpt>
      <trkpt lat="45.68492" lon="4.70401">
        <ele>351.817749</ele>
        <time>2016-06-05T06:26:34Z</time>
      </trkpt>
      <trkpt lat="45.68489" lon="4.70409">
        <ele>351.413971</ele>
        <time>2016-06-05T06:26:36Z</time>
      </trkpt>
      <trkpt lat="45.68486" lon="4.70414">
        <ele>351.078247</ele>
        <time>2016-06-05T06:26:38Z</time>
      </trkpt>
      <trkpt lat="45.68485" lon="4.7042">
        <ele>350.66925</ele>
        <time>2016-06-05T06:26:40Z</time>
      </trkpt>
      <trkpt lat="45.68483" lon="4.70428">
        <ele>350.330139</ele>
        <time>2016-06-05T06:26:42Z</time>
      </trkpt>
      <trkpt lat="45.68482" lon="4.70436">
        <ele>349.961029</ele>
        <time>2016-06-05T06:26:44Z</time>
      </trkpt>
      <trkpt lat="45.6848" lon="4.70445">
        <ele>349.692169</ele>
        <time>2016-06-05T06:26:46Z</time>
      </trkpt>
      <trkpt lat="45.68478" lon="4.70454">
        <ele>349.305481</ele>
        <time>2016-06-05T06:26:48Z</time>
      </trkpt>
      <trkpt lat="45.68475" lon="4.70463">
        <ele>349.123077</ele>
        <time>2016-06-05T06:26:50Z</time>
      </trkpt>
      <trkpt lat="45.68473" lon="4.7047">
        <ele>348.827576</ele>
        <time>2016-06-05T06:26:52Z</time>
      </trkpt>
      <trkpt lat="45.6847" lon="4.70478">
        <ele>348.516418</ele>
        <time>2016-06-05T06:26:54Z</time>
      </trkpt>
      <trkpt lat="45.68468" lon="4.70485">
        <ele>348.143005</ele>
        <time>2016-06-05T06:26:56Z</time>
      </trkpt>
      <trkpt lat="45.68465" lon="4.70494">
        <ele>347.936981</ele>
        <time>2016-06-05T06:26:58Z</time>
      </trkpt>
      <trkpt lat="45.68463" lon="4.70502">
        <ele>347.911224</ele>
        <time>2016-06-05T06:27:00Z</time>
      </trkpt>
      <trkpt lat="45.68461" lon="4.70512">
        <ele>347.713806</ele>
        <time>2016-06-05T06:27:02Z</time>
      </trkpt>
      <trkpt lat="45.6846" lon="4.70522">
        <ele>347.710022</ele>
        <time>2016-06-05T06:27:04Z</time>
      </trkpt>
      <trkpt lat="45.68459" lon="4.70532">
        <ele>347.55307</ele>
        <time>2016-06-05T06:27:06Z</time>
      </trkpt>
      <trkpt lat="45.68459" lon="4.70542">
        <ele>347.510162</ele>
        <time>2016-06-05T06:27:08Z</time>
      </trkpt>
      <trkpt lat="45.68459" lon="4.70552">
        <ele>347.651764</ele>
        <time>2016-06-05T06:27:10Z</time>
      </trkpt>
      <trkpt lat="45.68459" lon="4.70563">
        <ele>347.883453</ele>
        <time>2016-06-05T06:27:12Z</time>
      </trkpt>
      <trkpt lat="45.68459" lon="4.70574">
        <ele>348.145172</ele>
        <time>2016-06-05T06:27:14Z</time>
      </trkpt>
      <trkpt lat="45.68459" lon="4.70586">
        <ele>348.226715</ele>
        <time>2016-06-05T06:27:16Z</time>
      </trkpt>
      <trkpt lat="45.68459" lon="4.70597">
        <ele>348.203369</ele>
        <time>2016-06-05T06:27:18Z</time>
      </trkpt>
      <trkpt lat="45.6846" lon="4.7061">
        <ele>348.29364</ele>
        <time>2016-06-05T06:27:20Z</time>
      </trkpt>
      <trkpt lat="45.6846" lon="4.70623">
        <ele>348.344238</ele>
        <time>2016-06-05T06:27:22Z</time>
      </trkpt>
      <trkpt lat="45.6846" lon="4.70637">
        <ele>348.395721</ele>
        <time>2016-06-05T06:27:24Z</time>
      </trkpt>
      <trkpt lat="45.68463" lon="4.70649">
        <ele>348.440765</ele>
        <time>2016-06-05T06:27:26Z</time>
      </trkpt>
      <trkpt lat="45.68467" lon="4.70661">
        <ele>348.46286</ele>
        <time>2016-06-05T06:27:28Z</time>
      </trkpt>
      <trkpt lat="45.68473" lon="4.70674">
        <ele>348.484344</ele>
        <time>2016-06-05T06:27:30Z</time>
      </trkpt>
      <trkpt lat="45.68478" lon="4.70682">
        <ele>348.451721</ele>
        <time>2016-06-05T06:27:32Z</time>
      </trkpt>
      <trkpt lat="45.6848" lon="4.70685">
        <ele>348.344299</ele>
        <time>2016-06-05T06:27:34Z</time>
      </trkpt>
      <trkpt lat="45.68481" lon="4.70683">
        <ele>348.282074</ele>
        <time>2016-06-05T06:27:36Z</time>
      </trkpt>
      <trkpt lat="45.68479" lon="4.7068">
        <ele>348.164093</ele>
        <time>2016-06-05T06:27:38Z</time>
      </trkpt>
      <trkpt lat="45.68477" lon="4.70676">
        <ele>348.097595</ele>
        <time>2016-06-05T06:27:40Z</time>
      </trkpt>
      <trkpt lat="45.68473" lon="4.70672">
        <ele>347.968872</ele>
        <time>2016-06-05T06:27:42Z</time>
      </trkpt>
      <trkpt lat="45.6847" lon="4.70665">
        <ele>347.927643</ele>
        <time>2016-06-05T06:27:44Z</time>
      </trkpt>
      <trkpt lat="45.68468" lon="4.70659">
        <ele>347.839661</ele>
        <time>2016-06-05T06:27:46Z</time>
      </trkpt>
      <trkpt lat="45.68466" lon="4.70652">
        <ele>347.732391</ele>
        <time>2016-06-05T06:27:48Z</time>
      </trkpt>
      <trkpt lat="45.68464" lon="4.70645">
        <ele>347.749573</ele>
        <time>2016-06-05T06:27:50Z</time>
      </trkpt>
      <trkpt lat="45.68463" lon="4.70637">
        <ele>347.69165</ele>
        <time>2016-06-05T06:27:52Z</time>
      </trkpt>
      <trkpt lat="45.68462" lon="4.70629">
        <ele>347.617981</ele>
        <time>2016-06-05T06:27:54Z</time>
      </trkpt>
      <trkpt lat="45.68462" lon="4.7062">
        <ele>347.611542</ele>
        <time>2016-06-05T06:27:56Z</time>
      </trkpt>
      <trkpt lat="45.68462" lon="4.70611">
        <ele>347.52359</ele>
        <time>2016-06-05T06:27:58Z</time>
      </trkpt>
      <trkpt lat="45.68461" lon="4.70601">
        <ele>347.567047</ele>
        <time>2016-06-05T06:28:00Z</time>
      </trkpt>
      <trkpt lat="45.68461" lon="4.70592">
        <ele>347.524658</ele>
        <time>2016-06-05T06:28:02Z</time>
      </trkpt>
      <trkpt lat="45.68461" lon="4.70582">
        <ele>347.53363</ele>
        <time>2016-06-05T06:28:04Z</time>
      </trkpt>
      <trkpt lat="45.68461" lon="4.70572">
        <ele>347.546539</ele>
        <time>2016-06-05T06:28:06Z</time>
      </trkpt>
      <trkpt lat="45.68461" lon="4.70563">
        <ele>347.595978</ele>
        <time>2016-06-05T06:28:08Z</time>
      </trkpt>
      <trkpt lat="45.68461" lon="4.70553">
        <ele>347.589539</ele>
        <time>2016-06-05T06:28:10Z</time>
      </trkpt>
      <trkpt lat="45.68461" lon="4.70543">
        <ele>347.857727</ele>
        <time>2016-06-05T06:28:12Z</time>
      </trkpt>
      <trkpt lat="45.68461" lon="4.70534">
        <ele>347.920563</ele>
        <time>2016-06-05T06:28:14Z</time>
      </trkpt>
      <trkpt lat="45.68462" lon="4.70524">
        <ele>348.171814</ele>
        <time>2016-06-05T06:28:16Z</time>
      </trkpt>
      <trkpt lat="45.68463" lon="4.70513">
        <ele>348.276917</ele>
        <time>2016-06-05T06:28:18Z</time>
      </trkpt>
      <trkpt lat="45.68466" lon="4.70503">
        <ele>348.528473</ele>
        <time>2016-06-05T06:28:20Z</time>
      </trkpt>
      <trkpt lat="45.68469" lon="4.70491">
        <ele>348.605713</ele>
        <time>2016-06-05T06:28:22Z</time>
      </trkpt>
      <trkpt lat="45.68473" lon="4.70479">
        <ele>348.665771</ele>
        <time>2016-06-05T06:28:24Z</time>
      </trkpt>
      <trkpt lat="45.68477" lon="4.70467">
        <ele>348.710846</ele>
        <time>2016-06-05T06:28:26Z</time>
      </trkpt>
      <trkpt lat="45.68481" lon="4.70453">
        <ele>348.65506</ele>
        <time>2016-06-05T06:28:28Z</time>
      </trkpt>
      <trkpt lat="45.68483" lon="4.70439">
        <ele>348.573547</ele>
        <time>2016-06-05T06:28:30Z</time>
      </trkpt>
      <trkpt lat="45.68485" lon="4.7043">
        <ele>348.427643</ele>
        <time>2016-06-05T06:28:32Z</time>
      </trkpt>
      <trkpt lat="45.68488" lon="4.70424">
        <ele>348.378967</ele>
        <time>2016-06-05T06:28:34Z</time>
      </trkpt>
      <trkpt lat="45.6849" lon="4.70416">
        <ele>348.239532</ele>
        <time>2016-06-05T06:28:36Z</time>
      </trkpt>
      <trkpt lat="45.68493" lon="4.70407">
        <ele>348.121521</ele>
        <time>2016-06-05T06:28:38Z</time>
      </trkpt>
      <trkpt lat="45.68496" lon="4.70396">
        <ele>348.022614</ele>
        <time>2016-06-05T06:28:40Z</time>
      </trkpt>
      <trkpt lat="45.68498" lon="4.70387">
        <ele>348.0047</ele>
        <time>2016-06-05T06:28:42Z</time>
      </trkpt>
      <trkpt lat="45.68503" lon="4.70378">
        <ele>347.929138</ele>
        <time>2016-06-05T06:28:44Z</time>
      </trkpt>
      <trkpt lat="45.68507" lon="4.7037">
        <ele>347.922302</ele>
        <time>2016-06-05T06:28:46Z</time>
      </trkpt>
      <trkpt lat="45.6851" lon="4.70361">
        <ele>347.99527</ele>
        <time>2016-06-05T06:28:48Z</time>
      </trkpt>
      <trkpt lat="45.68512" lon="4.70351">
        <ele>347.924377</ele>
        <time>2016-06-05T06:28:50Z</time>
      </trkpt>
      <trkpt lat="45.68514" lon="4.70341">
        <ele>347.909363</ele>
        <time>2016-06-05T06:28:52Z</time>
      </trkpt>
      <trkpt lat="45.68515" lon="4.70331">
        <ele>347.915802</ele>
        <time>2016-06-05T06:28:54Z</time>
      </trkpt>
      <trkpt lat="45.68517" lon="4.7032">
        <ele>347.930817</ele>
        <time>2016-06-05T06:28:56Z</time>
      </trkpt>
      <trkpt lat="45.68518" lon="4.7031">
        <ele>347.971344</ele>
        <time>2016-06-05T06:28:58Z</time>
      </trkpt>
      <trkpt lat="45.68518" lon="4.703">
        <ele>348.127502</ele>
        <time>2016-06-05T06:29:00Z</time>
      </trkpt>
      <trkpt lat="45.68518" lon="4.70289">
        <ele>348.273407</ele>
        <time>2016-06-05T06:29:02Z</time>
      </trkpt>
      <trkpt lat="45.68518" lon="4.70278">
        <ele>348.606079</ele>
        <time>2016-06-05T06:29:04Z</time>
      </trkpt>
      <trkpt lat="45.68517" lon="4.70268">
        <ele>348.757538</ele>
        <time>2016-06-05T06:29:06Z</time>
      </trkpt>
      <trkpt lat="45.68515" lon="4.70258">
        <ele>348.849792</ele>
        <time>2016-06-05T06:29:08Z</time>
      </trkpt>
      <trkpt lat="45.68512" lon="4.70248">
        <ele>349.206299</ele>
        <time>2016-06-05T06:29:10Z</time>
      </trkpt>
      <trkpt lat="45.6851" lon="4.70238">
        <ele>349.518707</ele>
        <time>2016-06-05T06:29:12Z</time>
      </trkpt>
      <trkpt lat="45.68508" lon="4.7023">
        <ele>349.909271</ele>
        <time>2016-06-05T06:29:14Z</time>
      </trkpt>
      <trkpt lat="45.68506" lon="4.70221">
        <ele>350.263367</ele>
        <time>2016-06-05T06:29:16Z</time>
      </trkpt>
      <trkpt lat="45.68505" lon="4.70212">
        <ele>350.593811</ele>
        <time>2016-06-05T06:29:18Z</time>
      </trkpt>
      <trkpt lat="45.68502" lon="4.70203">
        <ele>350.994812</ele>
        <time>2016-06-05T06:29:20Z</time>
      </trkpt>
      <trkpt lat="45.68499" lon="4.70195">
        <ele>351.358215</ele>
        <time>2016-06-05T06:29:22Z</time>
      </trkpt>
      <trkpt lat="45.68495" lon="4.70186">
        <ele>351.669373</ele>
        <time>2016-06-05T06:29:24Z</time>
      </trkpt>
      <trkpt lat="45.68491" lon="4.70177">
        <ele>352.092102</ele>
        <time>2016-06-05T06:29:26Z</time>
      </trkpt>
      <trkpt lat="45.68487" lon="4.70168">
        <ele>352.236267</ele>
        <time>2016-06-05T06:29:28Z</time>
      </trkpt>
      <trkpt lat="45.68481" lon="4.70161">
        <ele>352.618225</ele>
        <time>2016-06-05T06:29:30Z</time>
      </trkpt>
      <trkpt lat="45.68475" lon="4.70152">
        <ele>352.87793</ele>
        <time>2016-06-05T06:29:32Z</time>
      </trkpt>
      <trkpt lat="45.68469" lon="4.70143">
        <ele>353.116089</ele>
        <time>2016-06-05T06:29:34Z</time>
      </trkpt>
      <trkpt lat="45.68464" lon="4.70133">
        <ele>353.161194</ele>
        <time>2016-06-05T06:29:36Z</time>
      </trkpt>
      <trkpt lat="45.6846" lon="4.70122">
        <ele>353.493835</ele>
        <time>2016-06-05T06:29:38Z</time>
      </trkpt>
      <trkpt lat="45.68457" lon="4.70111">
        <ele>353.64621</ele>
        <time>2016-06-05T06:29:40Z</time>
      </trkpt>
      <trkpt lat="45.68455" lon="4.701">
        <ele>353.744995</ele>
        <time>2016-06-05T06:29:42Z</time>
      </trkpt>
      <trkpt lat="45.68453" lon="4.70088">
        <ele>353.923157</ele>
        <time>2016-06-05T06:29:44Z</time>
      </trkpt>
      <trkpt lat="45.68451" lon="4.70076">
        <ele>353.87381</ele>
        <time>2016-06-05T06:29:46Z</time>
      </trkpt>
      <trkpt lat="45.68449" lon="4.70063">
        <ele>353.964874</ele>
        <time>2016-06-05T06:29:48Z</time>
      </trkpt>
      <trkpt lat="45.68447" lon="4.70051">
        <ele>354.071503</ele>
        <time>2016-06-05T06:29:50Z</time>
      </trkpt>
      <trkpt lat="45.68446" lon="4.7004">
        <ele>354.22052</ele>
        <time>2016-06-05T06:29:52Z</time>
      </trkpt>
      <trkpt lat="45.68444" lon="4.7003">
        <ele>354.437317</ele>
        <time>2016-06-05T06:29:54Z</time>
      </trkpt>
      <trkpt lat="45.68444" lon="4.70024">
        <ele>354.433044</ele>
        <time>2016-06-05T06:29:56Z</time>
      </trkpt>
      <trkpt lat="45.68443" lon="4.70019">
        <ele>354.463074</ele>
        <time>2016-06-05T06:29:58Z</time>
      </trkpt>
      <trkpt lat="45.68439" lon="4.70015">
        <ele>354.632935</ele>
        <time>2016-06-05T06:30:00Z</time>
      </trkpt>
      <trkpt lat="45.68435" lon="4.70011">
        <ele>354.748383</ele>
        <time>2016-06-05T06:30:02Z</time>
      </trkpt>
      <trkpt lat="45.68431" lon="4.70008">
        <ele>354.907257</ele>
        <time>2016-06-05T06:30:04Z</time>
      </trkpt>
      <trkpt lat="45.68427" lon="4.70004">
        <ele>354.986694</ele>
        <time>2016-06-05T06:30:06Z</time>
      </trkpt>
      <trkpt lat="45.68423" lon="4.69999">
        <ele>355.034027</ele>
        <time>2016-06-05T06:30:08Z</time>
      </trkpt>
      <trkpt lat="45.68419" lon="4.69994">
        <ele>355.239777</ele>
        <time>2016-06-05T06:30:10Z</time>
      </trkpt>
      <trkpt lat="45.68415" lon="4.6999">
        <ele>355.367767</ele>
        <time>2016-06-05T06:30:12Z</time>
      </trkpt>
      <trkpt lat="45.6841" lon="4.69986">
        <ele>355.484833</ele>
        <time>2016-06-05T06:30:14Z</time>
      </trkpt>
      <trkpt lat="45.68406" lon="4.69984">
        <ele>355.663025</ele>
        <time>2016-06-05T06:30:16Z</time>
      </trkpt>
      <trkpt lat="45.68401" lon="4.69981">
        <ele>355.805847</ele>
        <time>2016-06-05T06:30:18Z</time>
      </trkpt>
      <trkpt lat="45.68396" lon="4.69978">
        <ele>355.888397</ele>
        <time>2016-06-05T06:30:20Z</time>
      </trkpt>
      <trkpt lat="45.68391" lon="4.69975">
        <ele>356.015076</ele>
        <time>2016-06-05T06:30:22Z</time>
      </trkpt>
      <trkpt lat="45.68386" lon="4.69972">
        <ele>356.154663</ele>
        <time>2016-06-05T06:30:24Z</time>
      </trkpt>
      <trkpt lat="45.68381" lon="4.69969">
        <ele>356.201904</ele>
        <time>2016-06-05T06:30:26Z</time>
      </trkpt>
      <trkpt lat="45.68376" lon="4.69965">
        <ele>356.29422</ele>
        <time>2016-06-05T06:30:28Z</time>
      </trkpt>
      <trkpt lat="45.68377" lon="4.69959">
        <ele>356.535126</ele>
        <time>2016-06-05T06:30:30Z</time>
      </trkpt>
      <trkpt lat="45.6838" lon="4.69955">
        <ele>356.642487</ele>
        <time>2016-06-05T06:30:32Z</time>
      </trkpt>
      <trkpt lat="45.68385" lon="4.69952">
        <ele>356.672546</ele>
        <time>2016-06-05T06:30:34Z</time>
      </trkpt>
      <trkpt lat="45.68391" lon="4.69949">
        <ele>356.764893</ele>
        <time>2016-06-05T06:30:36Z</time>
      </trkpt>
      <trkpt lat="45.68396" lon="4.69947">
        <ele>356.90448</ele>
        <time>2016-06-05T06:30:38Z</time>
      </trkpt>
      <trkpt lat="45.68403" lon="4.69944">
        <ele>356.975311</ele>
        <time>2016-06-05T06:30:40Z</time>
      </trkpt>
      <trkpt lat="45.68411" lon="4.69942">
        <ele>357.069824</ele>
        <time>2016-06-05T06:30:42Z</time>
      </trkpt>
      <trkpt lat="45.68418" lon="4.6994">
        <ele>357.132111</ele>
        <time>2016-06-05T06:30:44Z</time>
      </trkpt>
      <trkpt lat="45.68426" lon="4.6994">
        <ele>357.121399</ele>
        <time>2016-06-05T06:30:46Z</time>
      </trkpt>
      <trkpt lat="45.68434" lon="4.69942">
        <ele>357.157898</ele>
        <time>2016-06-05T06:30:48Z</time>
      </trkpt>
      <trkpt lat="45.68441" lon="4.69944">
        <ele>357.134827</ele>
        <time>2016-06-05T06:30:50Z</time>
      </trkpt>
      <trkpt lat="45.68449" lon="4.69945">
        <ele>357.107758</ele>
        <time>2016-06-05T06:30:52Z</time>
      </trkpt>
      <trkpt lat="45.68459" lon="4.69944">
        <ele>357.037933</ele>
        <time>2016-06-05T06:30:54Z</time>
      </trkpt>
      <trkpt lat="45.68466" lon="4.69938">
        <ele>356.947784</ele>
        <time>2016-06-05T06:30:56Z</time>
      </trkpt>
      <trkpt lat="45.68469" lon="4.69928">
        <ele>356.720215</ele>
        <time>2016-06-05T06:30:58Z</time>
      </trkpt>
      <trkpt lat="45.68471" lon="4.69915">
        <ele>356.540955</ele>
        <time>2016-06-05T06:31:00Z</time>
      </trkpt>
      <trkpt lat="45.68475" lon="4.69902">
        <ele>356.32959</ele>
        <time>2016-06-05T06:31:02Z</time>
      </trkpt>
      <trkpt lat="45.68482" lon="4.69892">
        <ele>356.13205</ele>
        <time>2016-06-05T06:31:04Z</time>
      </trkpt>
      <trkpt lat="45.68491" lon="4.69883">
        <ele>356.028778</ele>
        <time>2016-06-05T06:31:06Z</time>
      </trkpt>
      <trkpt lat="45.68503" lon="4.69876">
        <ele>355.826965</ele>
        <time>2016-06-05T06:31:08Z</time>
      </trkpt>
      <trkpt lat="45.68514" lon="4.69867">
        <ele>355.38913</ele>
        <time>2016-06-05T06:31:10Z</time>
      </trkpt>
      <trkpt lat="45.68528" lon="4.69857">
        <ele>354.989166</ele>
        <time>2016-06-05T06:31:12Z</time>
      </trkpt>
      <trkpt lat="45.68545" lon="4.69846">
        <ele>354.291687</ele>
        <time>2016-06-05T06:31:14Z</time>
      </trkpt>
      <trkpt lat="45.68562" lon="4.69833">
        <ele>353.562073</ele>
        <time>2016-06-05T06:31:16Z</time>
      </trkpt>
      <trkpt lat="45.68578" lon="4.69822">
        <ele>352.761597</ele>
        <time>2016-06-05T06:31:18Z</time>
      </trkpt>
      <trkpt lat="45.68597" lon="4.69809">
        <ele>351.965942</ele>
        <time>2016-06-05T06:31:20Z</time>
      </trkpt>
      <trkpt lat="45.68617" lon="4.69795">
        <ele>350.814087</ele>
        <time>2016-06-05T06:31:22Z</time>
      </trkpt>
      <trkpt lat="45.68639" lon="4.69781">
        <ele>349.55722</ele>
        <time>2016-06-05T06:31:24Z</time>
      </trkpt>
      <trkpt lat="45.68661" lon="4.69765">
        <ele>348.332611</ele>
        <time>2016-06-05T06:31:26Z</time>
      </trkpt>
      <trkpt lat="45.68684" lon="4.6975">
        <ele>347.04541</ele>
        <time>2016-06-05T06:31:28Z</time>
      </trkpt>
      <trkpt lat="45.68705" lon="4.69736">
        <ele>345.608734</ele>
        <time>2016-06-05T06:31:30Z</time>
      </trkpt>
      <trkpt lat="45.68726" lon="4.6972">
        <ele>344.79126</ele>
        <time>2016-06-05T06:31:32Z</time>
      </trkpt>
      <trkpt lat="45.68747" lon="4.69704">
        <ele>343.209747</ele>
        <time>2016-06-05T06:31:34Z</time>
      </trkpt>
      <trkpt lat="45.68766" lon="4.69686">
        <ele>341.63559</ele>
        <time>2016-06-05T06:31:36Z</time>
      </trkpt>
      <trkpt lat="45.68783" lon="4.69671">
        <ele>339.850311</ele>
        <time>2016-06-05T06:31:38Z</time>
      </trkpt>
      <trkpt lat="45.68798" lon="4.6966">
        <ele>338.059113</ele>
        <time>2016-06-05T06:31:40Z</time>
      </trkpt>
      <trkpt lat="45.6881" lon="4.6965">
        <ele>336.220673</ele>
        <time>2016-06-05T06:31:42Z</time>
      </trkpt>
      <trkpt lat="45.68821" lon="4.69643">
        <ele>334.34375</ele>
        <time>2016-06-05T06:31:44Z</time>
      </trkpt>
      <trkpt lat="45.68831" lon="4.69634">
        <ele>332.548981</ele>
        <time>2016-06-05T06:31:46Z</time>
      </trkpt>
      <trkpt lat="45.68842" lon="4.69628">
        <ele>330.569519</ele>
        <time>2016-06-05T06:31:48Z</time>
      </trkpt>
      <trkpt lat="45.68853" lon="4.69622">
        <ele>328.956177</ele>
        <time>2016-06-05T06:31:50Z</time>
      </trkpt>
      <trkpt lat="45.68864" lon="4.69617">
        <ele>327.277039</ele>
        <time>2016-06-05T06:31:52Z</time>
      </trkpt>
      <trkpt lat="45.68875" lon="4.69612">
        <ele>325.904022</ele>
        <time>2016-06-05T06:31:54Z</time>
      </trkpt>
      <trkpt lat="45.68887" lon="4.69607">
        <ele>324.473541</ele>
        <time>2016-06-05T06:31:56Z</time>
      </trkpt>
      <trkpt lat="45.68898" lon="4.69599">
        <ele>323.205627</ele>
        <time>2016-06-05T06:31:58Z</time>
      </trkpt>
      <trkpt lat="45.6891" lon="4.69589">
        <ele>322.158325</ele>
        <time>2016-06-05T06:32:00Z</time>
      </trkpt>
      <trkpt lat="45.68921" lon="4.69579">
        <ele>321.553833</ele>
        <time>2016-06-05T06:32:02Z</time>
      </trkpt>
      <trkpt lat="45.68931" lon="4.69568">
        <ele>320.628906</ele>
        <time>2016-06-05T06:32:04Z</time>
      </trkpt>
      <trkpt lat="45.68942" lon="4.69557">
        <ele>319.742798</ele>
        <time>2016-06-05T06:32:06Z</time>
      </trkpt>
      <trkpt lat="45.68952" lon="4.69547">
        <ele>318.799011</ele>
        <time>2016-06-05T06:32:08Z</time>
      </trkpt>
      <trkpt lat="45.68963" lon="4.69538">
        <ele>318.165955</ele>
        <time>2016-06-05T06:32:10Z</time>
      </trkpt>
      <trkpt lat="45.68973" lon="4.69531">
        <ele>317.576599</ele>
        <time>2016-06-05T06:32:12Z</time>
      </trkpt>
      <trkpt lat="45.68986" lon="4.69527">
        <ele>316.498077</ele>
        <time>2016-06-05T06:32:14Z</time>
      </trkpt>
      <trkpt lat="45.68998" lon="4.69523">
        <ele>315.863525</ele>
        <time>2016-06-05T06:32:16Z</time>
      </trkpt>
      <trkpt lat="45.69011" lon="4.69521">
        <ele>315.456238</ele>
        <time>2016-06-05T06:32:18Z</time>
      </trkpt>
      <trkpt lat="45.69024" lon="4.69518">
        <ele>315.139709</ele>
        <time>2016-06-05T06:32:20Z</time>
      </trkpt>
      <trkpt lat="45.69037" lon="4.69516">
        <ele>314.191101</ele>
        <time>2016-06-05T06:32:22Z</time>
      </trkpt>
      <trkpt lat="45.6905" lon="4.69513">
        <ele>313.434692</ele>
        <time>2016-06-05T06:32:24Z</time>
      </trkpt>
      <trkpt lat="45.69062" lon="4.69509">
        <ele>313.076752</ele>
        <time>2016-06-05T06:32:26Z</time>
      </trkpt>
      <trkpt lat="45.69074" lon="4.69503">
        <ele>312.595947</ele>
        <time>2016-06-05T06:32:28Z</time>
      </trkpt>
      <trkpt lat="45.69087" lon="4.69494">
        <ele>312.232605</ele>
        <time>2016-06-05T06:32:30Z</time>
      </trkpt>
      <trkpt lat="45.69101" lon="4.69485">
        <ele>311.445984</ele>
        <time>2016-06-05T06:32:32Z</time>
      </trkpt>
      <trkpt lat="45.69116" lon="4.69476">
        <ele>310.845245</ele>
        <time>2016-06-05T06:32:34Z</time>
      </trkpt>
      <trkpt lat="45.6913" lon="4.69468">
        <ele>309.979248</ele>
        <time>2016-06-05T06:32:36Z</time>
      </trkpt>
      <trkpt lat="45.69143" lon="4.69457">
        <ele>308.94519</ele>
        <time>2016-06-05T06:32:38Z</time>
      </trkpt>
      <trkpt lat="45.69154" lon="4.69442">
        <ele>307.996338</ele>
        <time>2016-06-05T06:32:40Z</time>
      </trkpt>
      <trkpt lat="45.69166" lon="4.69428">
        <ele>307.060028</ele>
        <time>2016-06-05T06:32:42Z</time>
      </trkpt>
      <trkpt lat="45.69177" lon="4.69411">
        <ele>306.28775</ele>
        <time>2016-06-05T06:32:44Z</time>
      </trkpt>
      <trkpt lat="45.69188" lon="4.69392">
        <ele>304.743622</ele>
        <time>2016-06-05T06:32:46Z</time>
      </trkpt>
      <trkpt lat="45.69199" lon="4.69373">
        <ele>304.171661</ele>
        <time>2016-06-05T06:32:48Z</time>
      </trkpt>
      <trkpt lat="45.6921" lon="4.69355">
        <ele>302.943268</ele>
        <time>2016-06-05T06:32:50Z</time>
      </trkpt>
      <trkpt lat="45.69219" lon="4.69339">
        <ele>302.045807</ele>
        <time>2016-06-05T06:32:52Z</time>
      </trkpt>
      <trkpt lat="45.69228" lon="4.69325">
        <ele>300.933777</ele>
        <time>2016-06-05T06:32:54Z</time>
      </trkpt>
      <trkpt lat="45.69238" lon="4.69317">
        <ele>299.817047</ele>
        <time>2016-06-05T06:32:56Z</time>
      </trkpt>
      <trkpt lat="45.69246" lon="4.69312">
        <ele>298.684021</ele>
        <time>2016-06-05T06:32:58Z</time>
      </trkpt>
      <trkpt lat="45.69249" lon="4.6931">
        <ele>298.229248</ele>
        <time>2016-06-05T06:33:00Z</time>
      </trkpt>
      <trkpt lat="45.69251" lon="4.69307">
        <ele>296.64386</ele>
        <time>2016-06-05T06:33:04Z</time>
      </trkpt>
      <trkpt lat="45.69252" lon="4.69305">
        <ele>295.941345</ele>
        <time>2016-06-05T06:33:06Z</time>
      </trkpt>
      <trkpt lat="45.69256" lon="4.693">
        <ele>292.069489</ele>
        <time>2016-06-05T06:33:15Z</time>
      </trkpt>
      <trkpt lat="45.69258" lon="4.69294">
        <ele>291.448456</ele>
        <time>2016-06-05T06:33:17Z</time>
      </trkpt>
      <trkpt lat="45.69259" lon="4.69291">
        <ele>290.600006</ele>
        <time>2016-06-05T06:33:21Z</time>
      </trkpt>
      <trkpt lat="45.6926" lon="4.69289">
        <ele>289.904236</ele>
        <time>2016-06-05T06:33:23Z</time>
      </trkpt>
      <trkpt lat="45.69261" lon="4.69282">
        <ele>287.617371</ele>
        <time>2016-06-05T06:33:41Z</time>
      </trkpt>
      <trkpt lat="45.69262" lon="4.69278">
        <ele>287.524597</ele>
        <time>2016-06-05T06:33:43Z</time>
      </trkpt>
      <trkpt lat="45.69264" lon="4.69275">
        <ele>287.460632</ele>
        <time>2016-06-05T06:33:45Z</time>
      </trkpt>
      <trkpt lat="45.69267" lon="4.69271">
        <ele>287.476563</ele>
        <time>2016-06-05T06:33:47Z</time>
      </trkpt>
      <trkpt lat="45.69269" lon="4.69268">
        <ele>287.51709</ele>
        <time>2016-06-05T06:33:49Z</time>
      </trkpt>
      <trkpt lat="45.69271" lon="4.69265">
        <ele>287.615234</ele>
        <time>2016-06-05T06:33:51Z</time>
      </trkpt>
      <trkpt lat="45.69273" lon="4.69262">
        <ele>287.710266</ele>
        <time>2016-06-05T06:33:53Z</time>
      </trkpt>
      <trkpt lat="45.69275" lon="4.69259">
        <ele>287.702881</ele>
        <time>2016-06-05T06:33:55Z</time>
      </trkpt>
      <trkpt lat="45.69278" lon="4.69256">
        <ele>287.786377</ele>
        <time>2016-06-05T06:33:57Z</time>
      </trkpt>
      <trkpt lat="45.69281" lon="4.69254">
        <ele>287.833313</ele>
        <time>2016-06-05T06:33:59Z</time>
      </trkpt>
      <trkpt lat="45.69284" lon="4.69253">
        <ele>287.951965</ele>
        <time>2016-06-05T06:34:01Z</time>
      </trkpt>
      <trkpt lat="45.69288" lon="4.69254">
        <ele>287.949829</ele>
        <time>2016-06-05T06:34:03Z</time>
      </trkpt>
      <trkpt lat="45.6929" lon="4.69255">
        <ele>288.067139</ele>
        <time>2016-06-05T06:34:05Z</time>
      </trkpt>
      <trkpt lat="45.69292" lon="4.69257">
        <ele>288.212097</ele>
        <time>2016-06-05T06:34:07Z</time>
      </trkpt>
      <trkpt lat="45.69294" lon="4.6926">
        <ele>288.44455</ele>
        <time>2016-06-05T06:34:09Z</time>
      </trkpt>
      <trkpt lat="45.69297" lon="4.69263">
        <ele>288.664276</ele>
        <time>2016-06-05T06:34:11Z</time>
      </trkpt>
      <trkpt lat="45.69299" lon="4.69264">
        <ele>288.856323</ele>
        <time>2016-06-05T06:34:13Z</time>
      </trkpt>
      <trkpt lat="45.69301" lon="4.69266">
        <ele>289.189148</ele>
        <time>2016-06-05T06:34:15Z</time>
      </trkpt>
      <trkpt lat="45.69304" lon="4.69267">
        <ele>289.498322</ele>
        <time>2016-06-05T06:34:17Z</time>
      </trkpt>
      <trkpt lat="45.69306" lon="4.69268">
        <ele>289.779938</ele>
        <time>2016-06-05T06:34:19Z</time>
      </trkpt>
      <trkpt lat="45.6931" lon="4.6927">
        <ele>290.230896</ele>
        <time>2016-06-05T06:34:21Z</time>
      </trkpt>
      <trkpt lat="45.69313" lon="4.69272">
        <ele>290.653381</ele>
        <time>2016-06-05T06:34:23Z</time>
      </trkpt>
      <trkpt lat="45.69317" lon="4.69273">
        <ele>290.898773</ele>
        <time>2016-06-05T06:34:25Z</time>
      </trkpt>
      <trkpt lat="45.69321" lon="4.69275">
        <ele>291.3703</ele>
        <time>2016-06-05T06:34:27Z</time>
      </trkpt>
      <trkpt lat="45.69325" lon="4.69275">
        <ele>291.791809</ele>
        <time>2016-06-05T06:34:29Z</time>
      </trkpt>
      <trkpt lat="45.69329" lon="4.69276">
        <ele>292.218628</ele>
        <time>2016-06-05T06:34:31Z</time>
      </trkpt>
      <trkpt lat="45.69332" lon="4.69276">
        <ele>292.61557</ele>
        <time>2016-06-05T06:34:33Z</time>
      </trkpt>
      <trkpt lat="45.69335" lon="4.69277">
        <ele>293.060455</ele>
        <time>2016-06-05T06:34:35Z</time>
      </trkpt>
      <trkpt lat="45.69338" lon="4.69276">
        <ele>293.504333</ele>
        <time>2016-06-05T06:34:37Z</time>
      </trkpt>
      <trkpt lat="45.69341" lon="4.69276">
        <ele>293.933411</ele>
        <time>2016-06-05T06:34:39Z</time>
      </trkpt>
      <trkpt lat="45.69344" lon="4.69276">
        <ele>294.402252</ele>
        <time>2016-06-05T06:34:41Z</time>
      </trkpt>
      <trkpt lat="45.69347" lon="4.69275">
        <ele>294.947998</ele>
        <time>2016-06-05T06:34:43Z</time>
      </trkpt>
      <trkpt lat="45.6935" lon="4.69275">
        <ele>295.58194</ele>
        <time>2016-06-05T06:34:45Z</time>
      </trkpt>
      <trkpt lat="45.69354" lon="4.69274">
        <ele>296.109222</ele>
        <time>2016-06-05T06:34:47Z</time>
      </trkpt>
      <trkpt lat="45.69357" lon="4.69273">
        <ele>296.642944</ele>
        <time>2016-06-05T06:34:49Z</time>
      </trkpt>
      <trkpt lat="45.6936" lon="4.69273">
        <ele>297.170258</ele>
        <time>2016-06-05T06:34:51Z</time>
      </trkpt>
      <trkpt lat="45.69363" lon="4.69272">
        <ele>297.452087</ele>
        <time>2016-06-05T06:34:53Z</time>
      </trkpt>
      <trkpt lat="45.69367" lon="4.6927">
        <ele>297.920593</ele>
        <time>2016-06-05T06:34:55Z</time>
      </trkpt>
      <trkpt lat="45.6937" lon="4.69269">
        <ele>298.356171</ele>
        <time>2016-06-05T06:34:57Z</time>
      </trkpt>
      <trkpt lat="45.69374" lon="4.69268">
        <ele>298.821869</ele>
        <time>2016-06-05T06:34:59Z</time>
      </trkpt>
      <trkpt lat="45.69376" lon="4.69267">
        <ele>299.428314</ele>
        <time>2016-06-05T06:35:01Z</time>
      </trkpt>
      <trkpt lat="45.69379" lon="4.69265">
        <ele>299.776855</ele>
        <time>2016-06-05T06:35:03Z</time>
      </trkpt>
      <trkpt lat="45.69383" lon="4.69264">
        <ele>300.147766</ele>
        <time>2016-06-05T06:35:05Z</time>
      </trkpt>
      <trkpt lat="45.69386" lon="4.69263">
        <ele>300.58078</ele>
        <time>2016-06-05T06:35:07Z</time>
      </trkpt>
      <trkpt lat="45.69389" lon="4.69262">
        <ele>301.093353</ele>
        <time>2016-06-05T06:35:09Z</time>
      </trkpt>
      <trkpt lat="45.69392" lon="4.69261">
        <ele>301.492737</ele>
        <time>2016-06-05T06:35:11Z</time>
      </trkpt>
      <trkpt lat="45.69395" lon="4.69261">
        <ele>301.939148</ele>
        <time>2016-06-05T06:35:13Z</time>
      </trkpt>
      <trkpt lat="45.69398" lon="4.6926">
        <ele>302.171967</ele>
        <time>2016-06-05T06:35:15Z</time>
      </trkpt>
      <trkpt lat="45.69401" lon="4.69259">
        <ele>302.611023</ele>
        <time>2016-06-05T06:35:17Z</time>
      </trkpt>
      <trkpt lat="45.69404" lon="4.69257">
        <ele>303.162109</ele>
        <time>2016-06-05T06:35:19Z</time>
      </trkpt>
      <trkpt lat="45.69407" lon="4.69256">
        <ele>303.674652</ele>
        <time>2016-06-05T06:35:21Z</time>
      </trkpt>
      <trkpt lat="45.6941" lon="4.69255">
        <ele>304.115356</ele>
        <time>2016-06-05T06:35:23Z</time>
      </trkpt>
      <trkpt lat="45.69413" lon="4.69253">
        <ele>304.552612</ele>
        <time>2016-06-05T06:35:25Z</time>
      </trkpt>
      <trkpt lat="45.69415" lon="4.69252">
        <ele>304.946167</ele>
        <time>2016-06-05T06:35:27Z</time>
      </trkpt>
      <trkpt lat="45.69418" lon="4.6925">
        <ele>305.431274</ele>
        <time>2016-06-05T06:35:29Z</time>
      </trkpt>
      <trkpt lat="45.69421" lon="4.69248">
        <ele>305.85437</ele>
        <time>2016-06-05T06:35:31Z</time>
      </trkpt>
      <trkpt lat="45.69423" lon="4.69247">
        <ele>306.25824</ele>
        <time>2016-06-05T06:35:33Z</time>
      </trkpt>
      <trkpt lat="45.69426" lon="4.69245">
        <ele>306.714539</ele>
        <time>2016-06-05T06:35:35Z</time>
      </trkpt>
      <trkpt lat="45.69429" lon="4.69244">
        <ele>307.159271</ele>
        <time>2016-06-05T06:35:37Z</time>
      </trkpt>
      <trkpt lat="45.69432" lon="4.69242">
        <ele>307.618744</ele>
        <time>2016-06-05T06:35:39Z</time>
      </trkpt>
      <trkpt lat="45.69434" lon="4.6924">
        <ele>307.883789</ele>
        <time>2016-06-05T06:35:41Z</time>
      </trkpt>
      <trkpt lat="45.69437" lon="4.69238">
        <ele>308.223663</ele>
        <time>2016-06-05T06:35:43Z</time>
      </trkpt>
      <trkpt lat="45.69439" lon="4.69236">
        <ele>308.654907</ele>
        <time>2016-06-05T06:35:45Z</time>
      </trkpt>
      <trkpt lat="45.69441" lon="4.69233">
        <ele>309.224091</ele>
        <time>2016-06-05T06:35:47Z</time>
      </trkpt>
      <trkpt lat="45.69444" lon="4.69231">
        <ele>309.786804</ele>
        <time>2016-06-05T06:35:49Z</time>
      </trkpt>
      <trkpt lat="45.69445" lon="4.69228">
        <ele>310.181091</ele>
        <time>2016-06-05T06:35:51Z</time>
      </trkpt>
      <trkpt lat="45.69447" lon="4.69225">
        <ele>310.736603</ele>
        <time>2016-06-05T06:35:53Z</time>
      </trkpt>
      <trkpt lat="45.6945" lon="4.69224">
        <ele>311.16629</ele>
        <time>2016-06-05T06:35:55Z</time>
      </trkpt>
      <trkpt lat="45.69453" lon="4.69224">
        <ele>311.592712</ele>
        <time>2016-06-05T06:35:57Z</time>
      </trkpt>
      <trkpt lat="45.69455" lon="4.69225">
        <ele>311.923462</ele>
        <time>2016-06-05T06:35:59Z</time>
      </trkpt>
      <trkpt lat="45.69458" lon="4.69227">
        <ele>312.35321</ele>
        <time>2016-06-05T06:36:01Z</time>
      </trkpt>
      <trkpt lat="45.69464" lon="4.6923">
        <ele>312.557281</ele>
        <time>2016-06-05T06:36:05Z</time>
      </trkpt>
      <trkpt lat="45.69466" lon="4.69231">
        <ele>312.999847</ele>
        <time>2016-06-05T06:36:07Z</time>
      </trkpt>
      <trkpt lat="45.6947" lon="4.69231">
        <ele>313.457153</ele>
        <time>2016-06-05T06:36:09Z</time>
      </trkpt>
      <trkpt lat="45.69473" lon="4.6923">
        <ele>313.887421</ele>
        <time>2016-06-05T06:36:11Z</time>
      </trkpt>
      <trkpt lat="45.69475" lon="4.69228">
        <ele>314.310852</ele>
        <time>2016-06-05T06:36:13Z</time>
      </trkpt>
      <trkpt lat="45.69476" lon="4.69225">
        <ele>314.676819</ele>
        <time>2016-06-05T06:36:15Z</time>
      </trkpt>
      <trkpt lat="45.69478" lon="4.69221">
        <ele>315.113068</ele>
        <time>2016-06-05T06:36:17Z</time>
      </trkpt>
      <trkpt lat="45.69478" lon="4.69217">
        <ele>315.478088</ele>
        <time>2016-06-05T06:36:19Z</time>
      </trkpt>
      <trkpt lat="45.69479" lon="4.69213">
        <ele>315.906189</ele>
        <time>2016-06-05T06:36:21Z</time>
      </trkpt>
      <trkpt lat="45.69481" lon="4.69209">
        <ele>316.368195</ele>
        <time>2016-06-05T06:36:23Z</time>
      </trkpt>
      <trkpt lat="45.69482" lon="4.69205">
        <ele>316.70752</ele>
        <time>2016-06-05T06:36:25Z</time>
      </trkpt>
      <trkpt lat="45.69483" lon="4.69202">
        <ele>317.220856</ele>
        <time>2016-06-05T06:36:27Z</time>
      </trkpt>
      <trkpt lat="45.69484" lon="4.69198">
        <ele>317.449738</ele>
        <time>2016-06-05T06:36:29Z</time>
      </trkpt>
      <trkpt lat="45.69486" lon="4.69194">
        <ele>317.779785</ele>
        <time>2016-06-05T06:36:31Z</time>
      </trkpt>
      <trkpt lat="45.69487" lon="4.6919">
        <ele>318.151917</ele>
        <time>2016-06-05T06:36:33Z</time>
      </trkpt>
      <trkpt lat="45.69488" lon="4.69186">
        <ele>318.59845</ele>
        <time>2016-06-05T06:36:35Z</time>
      </trkpt>
      <trkpt lat="45.69489" lon="4.69182">
        <ele>318.970398</ele>
        <time>2016-06-05T06:36:37Z</time>
      </trkpt>
      <trkpt lat="45.6949" lon="4.69179">
        <ele>319.381195</ele>
        <time>2016-06-05T06:36:39Z</time>
      </trkpt>
      <trkpt lat="45.69491" lon="4.69175">
        <ele>319.871185</ele>
        <time>2016-06-05T06:36:41Z</time>
      </trkpt>
      <trkpt lat="45.69492" lon="4.69171">
        <ele>320.323242</ele>
        <time>2016-06-05T06:36:43Z</time>
      </trkpt>
      <trkpt lat="45.69493" lon="4.69167">
        <ele>320.806885</ele>
        <time>2016-06-05T06:36:45Z</time>
      </trkpt>
      <trkpt lat="45.69494" lon="4.69163">
        <ele>321.293854</ele>
        <time>2016-06-05T06:36:47Z</time>
      </trkpt>
      <trkpt lat="45.69495" lon="4.69159">
        <ele>321.50116</ele>
        <time>2016-06-05T06:36:49Z</time>
      </trkpt>
      <trkpt lat="45.69497" lon="4.69156">
        <ele>321.947937</ele>
        <time>2016-06-05T06:36:51Z</time>
      </trkpt>
      <trkpt lat="45.69498" lon="4.69152">
        <ele>322.376617</ele>
        <time>2016-06-05T06:36:53Z</time>
      </trkpt>
      <trkpt lat="45.695" lon="4.69149">
        <ele>322.798279</ele>
        <time>2016-06-05T06:36:55Z</time>
      </trkpt>
      <trkpt lat="45.69503" lon="4.69148">
        <ele>323.279541</ele>
        <time>2016-06-05T06:36:57Z</time>
      </trkpt>
      <trkpt lat="45.69507" lon="4.69147">
        <ele>323.746887</ele>
        <time>2016-06-05T06:36:59Z</time>
      </trkpt>
      <trkpt lat="45.6951" lon="4.69147">
        <ele>324.233398</ele>
        <time>2016-06-05T06:37:01Z</time>
      </trkpt>
      <trkpt lat="45.69513" lon="4.69146">
        <ele>324.759369</ele>
        <time>2016-06-05T06:37:03Z</time>
      </trkpt>
      <trkpt lat="45.69516" lon="4.69144">
        <ele>325.178955</ele>
        <time>2016-06-05T06:37:05Z</time>
      </trkpt>
      <trkpt lat="45.69519" lon="4.69141">
        <ele>325.663513</ele>
        <time>2016-06-05T06:37:07Z</time>
      </trkpt>
      <trkpt lat="45.69522" lon="4.69137">
        <ele>326.070313</ele>
        <time>2016-06-05T06:37:09Z</time>
      </trkpt>
      <trkpt lat="45.69525" lon="4.69133">
        <ele>326.521393</ele>
        <time>2016-06-05T06:37:11Z</time>
      </trkpt>
      <trkpt lat="45.69528" lon="4.69127">
        <ele>326.699097</ele>
        <time>2016-06-05T06:37:13Z</time>
      </trkpt>
      <trkpt lat="45.6953" lon="4.6912">
        <ele>326.957642</ele>
        <time>2016-06-05T06:37:15Z</time>
      </trkpt>
      <trkpt lat="45.69532" lon="4.69113">
        <ele>327.38974</ele>
        <time>2016-06-05T06:37:17Z</time>
      </trkpt>
      <trkpt lat="45.69534" lon="4.69105">
        <ele>327.835663</ele>
        <time>2016-06-05T06:37:19Z</time>
      </trkpt>
      <trkpt lat="45.69536" lon="4.69098">
        <ele>328.247467</ele>
        <time>2016-06-05T06:37:21Z</time>
      </trkpt>
      <trkpt lat="45.69538" lon="4.69091">
        <ele>328.44873</ele>
        <time>2016-06-05T06:37:23Z</time>
      </trkpt>
      <trkpt lat="45.6954" lon="4.69084">
        <ele>328.827728</ele>
        <time>2016-06-05T06:37:25Z</time>
      </trkpt>
      <trkpt lat="45.69543" lon="4.69077">
        <ele>329.208954</ele>
        <time>2016-06-05T06:37:27Z</time>
      </trkpt>
      <trkpt lat="45.69545" lon="4.6907">
        <ele>329.483093</ele>
        <time>2016-06-05T06:37:29Z</time>
      </trkpt>
      <trkpt lat="45.69548" lon="4.69063">
        <ele>329.864471</ele>
        <time>2016-06-05T06:37:31Z</time>
      </trkpt>
      <trkpt lat="45.69552" lon="4.69055">
        <ele>330.134338</ele>
        <time>2016-06-05T06:37:33Z</time>
      </trkpt>
      <trkpt lat="45.69555" lon="4.69046">
        <ele>330.276184</ele>
        <time>2016-06-05T06:37:35Z</time>
      </trkpt>
      <trkpt lat="45.69559" lon="4.69037">
        <ele>330.466827</ele>
        <time>2016-06-05T06:37:37Z</time>
      </trkpt>
      <trkpt lat="45.69563" lon="4.69027">
        <ele>330.503235</ele>
        <time>2016-06-05T06:37:39Z</time>
      </trkpt>
      <trkpt lat="45.69567" lon="4.69017">
        <ele>330.551819</ele>
        <time>2016-06-05T06:37:41Z</time>
      </trkpt>
      <trkpt lat="45.69571" lon="4.69007">
        <ele>330.566803</ele>
        <time>2016-06-05T06:37:43Z</time>
      </trkpt>
      <trkpt lat="45.69576" lon="4.68996">
        <ele>330.575378</ele>
        <time>2016-06-05T06:37:45Z</time>
      </trkpt>
      <trkpt lat="45.69581" lon="4.68983">
        <ele>330.589081</ele>
        <time>2016-06-05T06:37:47Z</time>
      </trkpt>
      <trkpt lat="45.69587" lon="4.68969">
        <ele>330.631897</ele>
        <time>2016-06-05T06:37:49Z</time>
      </trkpt>
      <trkpt lat="45.69595" lon="4.68953">
        <ele>330.434875</ele>
        <time>2016-06-05T06:37:51Z</time>
      </trkpt>
      <trkpt lat="45.69603" lon="4.68933">
        <ele>330.249664</ele>
        <time>2016-06-05T06:37:53Z</time>
      </trkpt>
      <trkpt lat="45.69611" lon="4.68912">
        <ele>330.114807</ele>
        <time>2016-06-05T06:37:55Z</time>
      </trkpt>
      <trkpt lat="45.6962" lon="4.68891">
        <ele>329.862152</ele>
        <time>2016-06-05T06:37:57Z</time>
      </trkpt>
      <trkpt lat="45.69628" lon="4.68869">
        <ele>329.461761</ele>
        <time>2016-06-05T06:37:59Z</time>
      </trkpt>
      <trkpt lat="45.69636" lon="4.68848">
        <ele>329.225494</ele>
        <time>2016-06-05T06:38:01Z</time>
      </trkpt>
      <trkpt lat="45.69643" lon="4.68827">
        <ele>328.8078</ele>
        <time>2016-06-05T06:38:03Z</time>
      </trkpt>
      <trkpt lat="45.6965" lon="4.68806">
        <ele>328.32135</ele>
        <time>2016-06-05T06:38:05Z</time>
      </trkpt>
      <trkpt lat="45.69656" lon="4.68786">
        <ele>328.038727</ele>
        <time>2016-06-05T06:38:07Z</time>
      </trkpt>
      <trkpt lat="45.69661" lon="4.68767">
        <ele>327.523132</ele>
        <time>2016-06-05T06:38:09Z</time>
      </trkpt>
      <trkpt lat="45.69668" lon="4.6875">
        <ele>327.030701</ele>
        <time>2016-06-05T06:38:11Z</time>
      </trkpt>
      <trkpt lat="45.69675" lon="4.68734">
        <ele>326.529724</ele>
        <time>2016-06-05T06:38:13Z</time>
      </trkpt>
      <trkpt lat="45.69684" lon="4.68722">
        <ele>325.925964</ele>
        <time>2016-06-05T06:38:15Z</time>
      </trkpt>
      <trkpt lat="45.69692" lon="4.6871">
        <ele>325.572754</ele>
        <time>2016-06-05T06:38:17Z</time>
      </trkpt>
      <trkpt lat="45.697" lon="4.68699">
        <ele>325.040924</ele>
        <time>2016-06-05T06:38:19Z</time>
      </trkpt>
      <trkpt lat="45.69707" lon="4.68687">
        <ele>324.422363</ele>
        <time>2016-06-05T06:38:21Z</time>
      </trkpt>
      <trkpt lat="45.69714" lon="4.68676">
        <ele>324.08197</ele>
        <time>2016-06-05T06:38:23Z</time>
      </trkpt>
      <trkpt lat="45.69721" lon="4.68665">
        <ele>323.705231</ele>
        <time>2016-06-05T06:38:25Z</time>
      </trkpt>
      <trkpt lat="45.69727" lon="4.68655">
        <ele>323.263275</ele>
        <time>2016-06-05T06:38:27Z</time>
      </trkpt>
      <trkpt lat="45.69735" lon="4.68652">
        <ele>323.08136</ele>
        <time>2016-06-05T06:38:29Z</time>
      </trkpt>
      <trkpt lat="45.6974" lon="4.68659">
        <ele>322.663361</ele>
        <time>2016-06-05T06:38:31Z</time>
      </trkpt>
      <trkpt lat="45.69738" lon="4.6867">
        <ele>322.508301</ele>
        <time>2016-06-05T06:38:33Z</time>
      </trkpt>
      <trkpt lat="45.69735" lon="4.68683">
        <ele>322.235413</ele>
        <time>2016-06-05T06:38:35Z</time>
      </trkpt>
      <trkpt lat="45.69733" lon="4.68697">
        <ele>322.047668</ele>
        <time>2016-06-05T06:38:37Z</time>
      </trkpt>
      <trkpt lat="45.6973" lon="4.68712">
        <ele>321.897888</ele>
        <time>2016-06-05T06:38:39Z</time>
      </trkpt>
      <trkpt lat="45.69727" lon="4.68727">
        <ele>321.856628</ele>
        <time>2016-06-05T06:38:41Z</time>
      </trkpt>
      <trkpt lat="45.69724" lon="4.68742">
        <ele>321.608337</ele>
        <time>2016-06-05T06:38:43Z</time>
      </trkpt>
      <trkpt lat="45.69724" lon="4.68758">
        <ele>321.555908</ele>
        <time>2016-06-05T06:38:45Z</time>
      </trkpt>
      <trkpt lat="45.69728" lon="4.68772">
        <ele>321.552185</ele>
        <time>2016-06-05T06:38:47Z</time>
      </trkpt>
      <trkpt lat="45.69735" lon="4.68785">
        <ele>321.485107</ele>
        <time>2016-06-05T06:38:49Z</time>
      </trkpt>
      <trkpt lat="45.69742" lon="4.68798">
        <ele>321.296814</ele>
        <time>2016-06-05T06:38:51Z</time>
      </trkpt>
      <trkpt lat="45.6975" lon="4.68812">
        <ele>321.226196</ele>
        <time>2016-06-05T06:38:53Z</time>
      </trkpt>
      <trkpt lat="45.69759" lon="4.68825">
        <ele>320.960846</ele>
        <time>2016-06-05T06:38:55Z</time>
      </trkpt>
      <trkpt lat="45.69768" lon="4.68839">
        <ele>320.791809</ele>
        <time>2016-06-05T06:38:57Z</time>
      </trkpt>
      <trkpt lat="45.69777" lon="4.68853">
        <ele>320.677307</ele>
        <time>2016-06-05T06:38:59Z</time>
      </trkpt>
      <trkpt lat="45.69785" lon="4.68867">
        <ele>320.406464</ele>
        <time>2016-06-05T06:39:01Z</time>
      </trkpt>
      <trkpt lat="45.69795" lon="4.68881">
        <ele>320.498688</ele>
        <time>2016-06-05T06:39:03Z</time>
      </trkpt>
      <trkpt lat="45.69804" lon="4.68895">
        <ele>320.423126</ele>
        <time>2016-06-05T06:39:05Z</time>
      </trkpt>
      <trkpt lat="45.69813" lon="4.68909">
        <ele>320.304138</ele>
        <time>2016-06-05T06:39:07Z</time>
      </trkpt>
      <trkpt lat="45.69823" lon="4.68923">
        <ele>320.045288</ele>
        <time>2016-06-05T06:39:09Z</time>
      </trkpt>
      <trkpt lat="45.69832" lon="4.68938">
        <ele>319.791168</ele>
        <time>2016-06-05T06:39:11Z</time>
      </trkpt>
      <trkpt lat="45.69841" lon="4.68951">
        <ele>319.468414</ele>
        <time>2016-06-05T06:39:13Z</time>
      </trkpt>
      <trkpt lat="45.69851" lon="4.68964">
        <ele>319.185974</ele>
        <time>2016-06-05T06:39:15Z</time>
      </trkpt>
      <trkpt lat="45.69859" lon="4.68978">
        <ele>318.922791</ele>
        <time>2016-06-05T06:39:17Z</time>
      </trkpt>
      <trkpt lat="45.69867" lon="4.68991">
        <ele>318.805115</ele>
        <time>2016-06-05T06:39:19Z</time>
      </trkpt>
      <trkpt lat="45.69873" lon="4.69005">
        <ele>318.588867</ele>
        <time>2016-06-05T06:39:21Z</time>
      </trkpt>
      <trkpt lat="45.69879" lon="4.69018">
        <ele>318.198792</ele>
        <time>2016-06-05T06:39:23Z</time>
      </trkpt>
      <trkpt lat="45.69886" lon="4.6903">
        <ele>317.883881</ele>
        <time>2016-06-05T06:39:25Z</time>
      </trkpt>
      <trkpt lat="45.6989" lon="4.69042">
        <ele>317.589539</ele>
        <time>2016-06-05T06:39:27Z</time>
      </trkpt>
      <trkpt lat="45.69893" lon="4.69053">
        <ele>317.359314</ele>
        <time>2016-06-05T06:39:29Z</time>
      </trkpt>
      <trkpt lat="45.69897" lon="4.69059">
        <ele>317.072815</ele>
        <time>2016-06-05T06:39:31Z</time>
      </trkpt>
      <trkpt lat="45.69902" lon="4.69057">
        <ele>316.784088</ele>
        <time>2016-06-05T06:39:33Z</time>
      </trkpt>
      <trkpt lat="45.6991" lon="4.69055">
        <ele>316.544525</ele>
        <time>2016-06-05T06:39:35Z</time>
      </trkpt>
      <trkpt lat="45.69918" lon="4.69052">
        <ele>316.544525</ele>
        <time>2016-06-05T06:39:37Z</time>
      </trkpt>
      <trkpt lat="45.69926" lon="4.6905">
        <ele>316.333862</ele>
        <time>2016-06-05T06:39:39Z</time>
      </trkpt>
      <trkpt lat="45.69935" lon="4.69046">
        <ele>316.154205</ele>
        <time>2016-06-05T06:39:41Z</time>
      </trkpt>
      <trkpt lat="45.69944" lon="4.69042">
        <ele>316.179871</ele>
        <time>2016-06-05T06:39:43Z</time>
      </trkpt>
      <trkpt lat="45.69954" lon="4.69038">
        <ele>315.932434</ele>
        <time>2016-06-05T06:39:45Z</time>
      </trkpt>
      <trkpt lat="45.69964" lon="4.69034">
        <ele>315.676392</ele>
        <time>2016-06-05T06:39:47Z</time>
      </trkpt>
      <trkpt lat="45.69975" lon="4.6903">
        <ele>315.421021</ele>
        <time>2016-06-05T06:39:49Z</time>
      </trkpt>
      <trkpt lat="45.69984" lon="4.69031">
        <ele>315.241394</ele>
        <time>2016-06-05T06:39:51Z</time>
      </trkpt>
      <trkpt lat="45.69991" lon="4.69042">
        <ele>315.070282</ele>
        <time>2016-06-05T06:39:53Z</time>
      </trkpt>
      <trkpt lat="45.69994" lon="4.69056">
        <ele>314.921204</ele>
        <time>2016-06-05T06:39:55Z</time>
      </trkpt>
      <trkpt lat="45.69997" lon="4.69071">
        <ele>314.711639</ele>
        <time>2016-06-05T06:39:57Z</time>
      </trkpt>
      <trkpt lat="45.70001" lon="4.69086">
        <ele>314.423004</ele>
        <time>2016-06-05T06:39:59Z</time>
      </trkpt>
      <trkpt lat="45.70004" lon="4.69102">
        <ele>314.2435</ele>
        <time>2016-06-05T06:40:01Z</time>
      </trkpt>
      <trkpt lat="45.70009" lon="4.69117">
        <ele>314.024506</ele>
        <time>2016-06-05T06:40:03Z</time>
      </trkpt>
      <trkpt lat="45.70013" lon="4.69132">
        <ele>313.834259</ele>
        <time>2016-06-05T06:40:05Z</time>
      </trkpt>
      <trkpt lat="45.70018" lon="4.69146">
        <ele>313.456238</ele>
        <time>2016-06-05T06:40:07Z</time>
      </trkpt>
      <trkpt lat="45.70025" lon="4.6916">
        <ele>313.203491</ele>
        <time>2016-06-05T06:40:09Z</time>
      </trkpt>
      <trkpt lat="45.70031" lon="4.69174">
        <ele>312.88504</ele>
        <time>2016-06-05T06:40:11Z</time>
      </trkpt>
      <trkpt lat="45.70037" lon="4.69187">
        <ele>312.665466</ele>
        <time>2016-06-05T06:40:13Z</time>
      </trkpt>
      <trkpt lat="45.70043" lon="4.69201">
        <ele>312.565002</ele>
        <time>2016-06-05T06:40:15Z</time>
      </trkpt>
      <trkpt lat="45.70047" lon="4.69217">
        <ele>312.43457</ele>
        <time>2016-06-05T06:40:17Z</time>
      </trkpt>
      <trkpt lat="45.70052" lon="4.69233">
        <ele>312.118103</ele>
        <time>2016-06-05T06:40:19Z</time>
      </trkpt>
      <trkpt lat="45.70059" lon="4.69248">
        <ele>311.951355</ele>
        <time>2016-06-05T06:40:21Z</time>
      </trkpt>
      <trkpt lat="45.70066" lon="4.6926">
        <ele>311.7146</ele>
        <time>2016-06-05T06:40:23Z</time>
      </trkpt>
      <trkpt lat="45.70075" lon="4.69271">
        <ele>311.369446</ele>
        <time>2016-06-05T06:40:25Z</time>
      </trkpt>
      <trkpt lat="45.70081" lon="4.69283">
        <ele>311.067993</ele>
        <time>2016-06-05T06:40:27Z</time>
      </trkpt>
      <trkpt lat="45.7008" lon="4.69297">
        <ele>310.723816</ele>
        <time>2016-06-05T06:40:29Z</time>
      </trkpt>
      <trkpt lat="45.70076" lon="4.69311">
        <ele>310.454437</ele>
        <time>2016-06-05T06:40:31Z</time>
      </trkpt>
      <trkpt lat="45.70072" lon="4.69326">
        <ele>310.338135</ele>
        <time>2016-06-05T06:40:33Z</time>
      </trkpt>
      <trkpt lat="45.70068" lon="4.69341">
        <ele>310.194916</ele>
        <time>2016-06-05T06:40:35Z</time>
      </trkpt>
      <trkpt lat="45.7006" lon="4.69353">
        <ele>309.972595</ele>
        <time>2016-06-05T06:40:37Z</time>
      </trkpt>
      <trkpt lat="45.7005" lon="4.69365">
        <ele>309.722748</ele>
        <time>2016-06-05T06:40:39Z</time>
      </trkpt>
      <trkpt lat="45.70041" lon="4.69377">
        <ele>309.468384</ele>
        <time>2016-06-05T06:40:41Z</time>
      </trkpt>
      <trkpt lat="45.70029" lon="4.69389">
        <ele>309.036591</ele>
        <time>2016-06-05T06:40:43Z</time>
      </trkpt>
      <trkpt lat="45.70016" lon="4.69401">
        <ele>308.675415</ele>
        <time>2016-06-05T06:40:45Z</time>
      </trkpt>
      <trkpt lat="45.7" lon="4.69409">
        <ele>308.162628</ele>
        <time>2016-06-05T06:40:47Z</time>
      </trkpt>
      <trkpt lat="45.69983" lon="4.69414">
        <ele>307.918152</ele>
        <time>2016-06-05T06:40:49Z</time>
      </trkpt>
      <trkpt lat="45.69968" lon="4.69424">
        <ele>307.204651</ele>
        <time>2016-06-05T06:40:51Z</time>
      </trkpt>
      <trkpt lat="45.69959" lon="4.69444">
        <ele>306.844696</ele>
        <time>2016-06-05T06:40:53Z</time>
      </trkpt>
      <trkpt lat="45.69952" lon="4.69465">
        <ele>306.208282</ele>
        <time>2016-06-05T06:40:55Z</time>
      </trkpt>
      <trkpt lat="45.69946" lon="4.69487">
        <ele>305.336609</ele>
        <time>2016-06-05T06:40:57Z</time>
      </trkpt>
      <trkpt lat="45.69939" lon="4.69507">
        <ele>304.781128</ele>
        <time>2016-06-05T06:40:59Z</time>
      </trkpt>
      <trkpt lat="45.69928" lon="4.69524">
        <ele>303.849884</ele>
        <time>2016-06-05T06:41:01Z</time>
      </trkpt>
      <trkpt lat="45.69914" lon="4.69542">
        <ele>302.995483</ele>
        <time>2016-06-05T06:41:03Z</time>
      </trkpt>
      <trkpt lat="45.69901" lon="4.69557">
        <ele>302.411926</ele>
        <time>2016-06-05T06:41:05Z</time>
      </trkpt>
      <trkpt lat="45.6989" lon="4.69577">
        <ele>301.571106</ele>
        <time>2016-06-05T06:41:07Z</time>
      </trkpt>
      <trkpt lat="45.69881" lon="4.69598">
        <ele>300.350067</ele>
        <time>2016-06-05T06:41:09Z</time>
      </trkpt>
      <trkpt lat="45.69873" lon="4.6962">
        <ele>299.408478</ele>
        <time>2016-06-05T06:41:11Z</time>
      </trkpt>
      <trkpt lat="45.69866" lon="4.69641">
        <ele>298.148804</ele>
        <time>2016-06-05T06:41:13Z</time>
      </trkpt>
      <trkpt lat="45.69859" lon="4.69662">
        <ele>297.120575</ele>
        <time>2016-06-05T06:41:15Z</time>
      </trkpt>
      <trkpt lat="45.69852" lon="4.69682">
        <ele>295.649963</ele>
        <time>2016-06-05T06:41:17Z</time>
      </trkpt>
      <trkpt lat="45.6985" lon="4.69703">
        <ele>294.541779</ele>
        <time>2016-06-05T06:41:19Z</time>
      </trkpt>
      <trkpt lat="45.69851" lon="4.69721">
        <ele>293.391541</ele>
        <time>2016-06-05T06:41:21Z</time>
      </trkpt>
      <trkpt lat="45.69849" lon="4.69735">
        <ele>292.027924</ele>
        <time>2016-06-05T06:41:23Z</time>
      </trkpt>
      <trkpt lat="45.69848" lon="4.6974">
        <ele>291.366455</ele>
        <time>2016-06-05T06:41:25Z</time>
      </trkpt>
      <trkpt lat="45.69847" lon="4.69742">
        <ele>290.151306</ele>
        <time>2016-06-05T06:41:27Z</time>
      </trkpt>
      <trkpt lat="45.69845" lon="4.69746">
        <ele>289.138184</ele>
        <time>2016-06-05T06:41:29Z</time>
      </trkpt>
      <trkpt lat="45.69845" lon="4.69749">
        <ele>287.971863</ele>
        <time>2016-06-05T06:41:31Z</time>
      </trkpt>
      <trkpt lat="45.69847" lon="4.6975">
        <ele>287.080261</ele>
        <time>2016-06-05T06:41:33Z</time>
      </trkpt>
      <trkpt lat="45.69848" lon="4.69748">
        <ele>286.089508</ele>
        <time>2016-06-05T06:41:35Z</time>
      </trkpt>
      <trkpt lat="45.69846" lon="4.69745">
        <ele>285.366394</ele>
        <time>2016-06-05T06:41:37Z</time>
      </trkpt>
      <trkpt lat="45.69848" lon="4.69742">
        <ele>284.547302</ele>
        <time>2016-06-05T06:41:39Z</time>
      </trkpt>
      <trkpt lat="45.69851" lon="4.69747">
        <ele>283.632141</ele>
        <time>2016-06-05T06:41:41Z</time>
      </trkpt>
      <trkpt lat="45.69854" lon="4.69756">
        <ele>283.124512</ele>
        <time>2016-06-05T06:41:43Z</time>
      </trkpt>
      <trkpt lat="45.69857" lon="4.69765">
        <ele>282.51236</ele>
        <time>2016-06-05T06:41:45Z</time>
      </trkpt>
      <trkpt lat="45.69859" lon="4.69776">
        <ele>281.950928</ele>
        <time>2016-06-05T06:41:47Z</time>
      </trkpt>
      <trkpt lat="45.69862" lon="4.69788">
        <ele>281.718567</ele>
        <time>2016-06-05T06:41:49Z</time>
      </trkpt>
      <trkpt lat="45.69864" lon="4.69801">
        <ele>281.499756</ele>
        <time>2016-06-05T06:41:51Z</time>
      </trkpt>
      <trkpt lat="45.69863" lon="4.69813">
        <ele>281.094238</ele>
        <time>2016-06-05T06:41:53Z</time>
      </trkpt>
      <trkpt lat="45.69857" lon="4.69824">
        <ele>280.945007</ele>
        <time>2016-06-05T06:41:55Z</time>
      </trkpt>
      <trkpt lat="45.69852" lon="4.69835">
        <ele>280.330994</ele>
        <time>2016-06-05T06:41:57Z</time>
      </trkpt>
      <trkpt lat="45.69848" lon="4.69844">
        <ele>280.30542</ele>
        <time>2016-06-05T06:41:59Z</time>
      </trkpt>
      <trkpt lat="45.69846" lon="4.6985">
        <ele>280.047852</ele>
        <time>2016-06-05T06:42:01Z</time>
      </trkpt>
      <trkpt lat="45.6985" lon="4.69859">
        <ele>279.796143</ele>
        <time>2016-06-05T06:42:03Z</time>
      </trkpt>
      <trkpt lat="45.69856" lon="4.69866">
        <ele>279.955994</ele>
        <time>2016-06-05T06:42:05Z</time>
      </trkpt>
      <trkpt lat="45.69861" lon="4.69873">
        <ele>279.88446</ele>
        <time>2016-06-05T06:42:07Z</time>
      </trkpt>
      <trkpt lat="45.69867" lon="4.69879">
        <ele>279.607147</ele>
        <time>2016-06-05T06:42:09Z</time>
      </trkpt>
      <trkpt lat="45.69875" lon="4.69883">
        <ele>279.315277</ele>
        <time>2016-06-05T06:42:11Z</time>
      </trkpt>
      <trkpt lat="45.69882" lon="4.69886">
        <ele>279.317413</ele>
        <time>2016-06-05T06:42:13Z</time>
      </trkpt>
      <trkpt lat="45.69888" lon="4.69889">
        <ele>279.285461</ele>
        <time>2016-06-05T06:42:15Z</time>
      </trkpt>
      <trkpt lat="45.69894" lon="4.69893">
        <ele>279.138214</ele>
        <time>2016-06-05T06:42:17Z</time>
      </trkpt>
      <trkpt lat="45.69901" lon="4.69897">
        <ele>278.999237</ele>
        <time>2016-06-05T06:42:19Z</time>
      </trkpt>
      <trkpt lat="45.69907" lon="4.69899">
        <ele>278.935303</ele>
        <time>2016-06-05T06:42:21Z</time>
      </trkpt>
      <trkpt lat="45.69914" lon="4.69901">
        <ele>278.869232</ele>
        <time>2016-06-05T06:42:23Z</time>
      </trkpt>
      <trkpt lat="45.69919" lon="4.69905">
        <ele>278.622009</ele>
        <time>2016-06-05T06:42:25Z</time>
      </trkpt>
      <trkpt lat="45.69926" lon="4.69909">
        <ele>278.478455</ele>
        <time>2016-06-05T06:42:27Z</time>
      </trkpt>
      <trkpt lat="45.69932" lon="4.69914">
        <ele>278.354858</ele>
        <time>2016-06-05T06:42:29Z</time>
      </trkpt>
      <trkpt lat="45.69938" lon="4.69918">
        <ele>278.371124</ele>
        <time>2016-06-05T06:42:31Z</time>
      </trkpt>
      <trkpt lat="45.69943" lon="4.69921">
        <ele>278.235138</ele>
        <time>2016-06-05T06:42:33Z</time>
      </trkpt>
      <trkpt lat="45.69948" lon="4.69925">
        <ele>278.034851</ele>
        <time>2016-06-05T06:42:35Z</time>
      </trkpt>
      <trkpt lat="45.69951" lon="4.69928">
        <ele>278.135742</ele>
        <time>2016-06-05T06:42:37Z</time>
      </trkpt>
      <trkpt lat="45.69956" lon="4.69931">
        <ele>278.056885</ele>
        <time>2016-06-05T06:42:39Z</time>
      </trkpt>
      <trkpt lat="45.6996" lon="4.69936">
        <ele>278.052185</ele>
        <time>2016-06-05T06:42:41Z</time>
      </trkpt>
      <trkpt lat="45.69965" lon="4.69942">
        <ele>277.937134</ele>
        <time>2016-06-05T06:42:43Z</time>
      </trkpt>
      <trkpt lat="45.69968" lon="4.69948">
        <ele>277.909698</ele>
        <time>2016-06-05T06:42:45Z</time>
      </trkpt>
      <trkpt lat="45.69972" lon="4.69956">
        <ele>277.837219</ele>
        <time>2016-06-05T06:42:47Z</time>
      </trkpt>
      <trkpt lat="45.69975" lon="4.69965">
        <ele>277.662537</ele>
        <time>2016-06-05T06:42:49Z</time>
      </trkpt>
      <trkpt lat="45.6998" lon="4.69976">
        <ele>277.996887</ele>
        <time>2016-06-05T06:42:51Z</time>
      </trkpt>
      <trkpt lat="45.69985" lon="4.6999">
        <ele>278.252563</ele>
        <time>2016-06-05T06:42:53Z</time>
      </trkpt>
      <trkpt lat="45.6999" lon="4.70003">
        <ele>278.197937</ele>
        <time>2016-06-05T06:42:55Z</time>
      </trkpt>
      <trkpt lat="45.69996" lon="4.70016">
        <ele>278.231842</ele>
        <time>2016-06-05T06:42:57Z</time>
      </trkpt>
      <trkpt lat="45.70001" lon="4.70028">
        <ele>278.230011</ele>
        <time>2016-06-05T06:42:59Z</time>
      </trkpt>
      <trkpt lat="45.70003" lon="4.70039">
        <ele>278.200134</ele>
        <time>2016-06-05T06:43:01Z</time>
      </trkpt>
      <trkpt lat="45.70008" lon="4.7005">
        <ele>278.140472</ele>
        <time>2016-06-05T06:43:03Z</time>
      </trkpt>
      <trkpt lat="45.70013" lon="4.70061">
        <ele>278.046692</ele>
        <time>2016-06-05T06:43:05Z</time>
      </trkpt>
      <trkpt lat="45.70018" lon="4.70073">
        <ele>278.104248</ele>
        <time>2016-06-05T06:43:07Z</time>
      </trkpt>
      <trkpt lat="45.70024" lon="4.70084">
        <ele>278.131897</ele>
        <time>2016-06-05T06:43:09Z</time>
      </trkpt>
      <trkpt lat="45.7003" lon="4.70094">
        <ele>278.183044</ele>
        <time>2016-06-05T06:43:11Z</time>
      </trkpt>
      <trkpt lat="45.70036" lon="4.70102">
        <ele>278.106323</ele>
        <time>2016-06-05T06:43:13Z</time>
      </trkpt>
      <trkpt lat="45.70041" lon="4.70106">
        <ele>278.191559</ele>
        <time>2016-06-05T06:43:15Z</time>
      </trkpt>
      <trkpt lat="45.70047" lon="4.70109">
        <ele>278.38327</ele>
        <time>2016-06-05T06:43:17Z</time>
      </trkpt>
      <trkpt lat="45.70053" lon="4.70113">
        <ele>278.386688</ele>
        <time>2016-06-05T06:43:19Z</time>
      </trkpt>
      <trkpt lat="45.70057" lon="4.70116">
        <ele>278.256714</ele>
        <time>2016-06-05T06:43:21Z</time>
      </trkpt>
      <trkpt lat="45.70062" lon="4.70124">
        <ele>278.024414</ele>
        <time>2016-06-05T06:43:23Z</time>
      </trkpt>
      <trkpt lat="45.70068" lon="4.70132">
        <ele>278.043274</ele>
        <time>2016-06-05T06:43:25Z</time>
      </trkpt>
      <trkpt lat="45.70073" lon="4.7014">
        <ele>277.821716</ele>
        <time>2016-06-05T06:43:27Z</time>
      </trkpt>
      <trkpt lat="45.70075" lon="4.70147">
        <ele>277.687469</ele>
        <time>2016-06-05T06:43:29Z</time>
      </trkpt>
      <trkpt lat="45.70074" lon="4.70153">
        <ele>277.63208</ele>
        <time>2016-06-05T06:43:31Z</time>
      </trkpt>
      <trkpt lat="45.70076" lon="4.70161">
        <ele>277.352234</ele>
        <time>2016-06-05T06:43:33Z</time>
      </trkpt>
      <trkpt lat="45.7008" lon="4.70169">
        <ele>276.89212</ele>
        <time>2016-06-05T06:43:35Z</time>
      </trkpt>
      <trkpt lat="45.70085" lon="4.70176">
        <ele>276.441833</ele>
        <time>2016-06-05T06:43:37Z</time>
      </trkpt>
      <trkpt lat="45.70089" lon="4.70182">
        <ele>276.164337</ele>
        <time>2016-06-05T06:43:39Z</time>
      </trkpt>
      <trkpt lat="45.70092" lon="4.70185">
        <ele>275.947815</ele>
        <time>2016-06-05T06:43:41Z</time>
      </trkpt>
      <trkpt lat="45.70094" lon="4.70189">
        <ele>275.599426</ele>
        <time>2016-06-05T06:43:43Z</time>
      </trkpt>
      <trkpt lat="45.70094" lon="4.70193">
        <ele>275.402039</ele>
        <time>2016-06-05T06:43:45Z</time>
      </trkpt>
      <trkpt lat="45.70094" lon="4.70196">
        <ele>275.137909</ele>
        <time>2016-06-05T06:43:47Z</time>
      </trkpt>
      <trkpt lat="45.70095" lon="4.702">
        <ele>274.524231</ele>
        <time>2016-06-05T06:43:51Z</time>
      </trkpt>
      <trkpt lat="45.70095" lon="4.70205">
        <ele>274.061981</ele>
        <time>2016-06-05T06:43:53Z</time>
      </trkpt>
      <trkpt lat="45.70095" lon="4.70211">
        <ele>273.75528</ele>
        <time>2016-06-05T06:43:55Z</time>
      </trkpt>
      <trkpt lat="45.70099" lon="4.7022">
        <ele>273.382477</ele>
        <time>2016-06-05T06:43:57Z</time>
      </trkpt>
      <trkpt lat="45.70101" lon="4.70226">
        <ele>273.037323</ele>
        <time>2016-06-05T06:43:59Z</time>
      </trkpt>
      <trkpt lat="45.70104" lon="4.70234">
        <ele>272.596802</ele>
        <time>2016-06-05T06:44:01Z</time>
      </trkpt>
      <trkpt lat="45.70107" lon="4.70242">
        <ele>272.281555</ele>
        <time>2016-06-05T06:44:03Z</time>
      </trkpt>
      <trkpt lat="45.7011" lon="4.70249">
        <ele>272.057892</ele>
        <time>2016-06-05T06:44:05Z</time>
      </trkpt>
      <trkpt lat="45.70113" lon="4.70258">
        <ele>271.817078</ele>
        <time>2016-06-05T06:44:07Z</time>
      </trkpt>
      <trkpt lat="45.70116" lon="4.70265">
        <ele>271.814941</ele>
        <time>2016-06-05T06:44:09Z</time>
      </trkpt>
      <trkpt lat="45.70117" lon="4.70271">
        <ele>271.763489</ele>
        <time>2016-06-05T06:44:11Z</time>
      </trkpt>
      <trkpt lat="45.70118" lon="4.70277">
        <ele>271.691925</ele>
        <time>2016-06-05T06:44:13Z</time>
      </trkpt>
      <trkpt lat="45.7012" lon="4.70282">
        <ele>271.824005</ele>
        <time>2016-06-05T06:44:15Z</time>
      </trkpt>
      <trkpt lat="45.70122" lon="4.70288">
        <ele>272.305359</ele>
        <time>2016-06-05T06:44:17Z</time>
      </trkpt>
      <trkpt lat="45.70124" lon="4.70293">
        <ele>272.578064</ele>
        <time>2016-06-05T06:44:19Z</time>
      </trkpt>
      <trkpt lat="45.70126" lon="4.70298">
        <ele>272.831543</ele>
        <time>2016-06-05T06:44:21Z</time>
      </trkpt>
      <trkpt lat="45.70128" lon="4.70304">
        <ele>273.06842</ele>
        <time>2016-06-05T06:44:23Z</time>
      </trkpt>
      <trkpt lat="45.70129" lon="4.70309">
        <ele>273.353882</ele>
        <time>2016-06-05T06:44:25Z</time>
      </trkpt>
      <trkpt lat="45.70131" lon="4.70315">
        <ele>273.626862</ele>
        <time>2016-06-05T06:44:27Z</time>
      </trkpt>
      <trkpt lat="45.70132" lon="4.70321">
        <ele>273.965607</ele>
        <time>2016-06-05T06:44:29Z</time>
      </trkpt>
      <trkpt lat="45.70132" lon="4.70326">
        <ele>274.372406</ele>
        <time>2016-06-05T06:44:31Z</time>
      </trkpt>
      <trkpt lat="45.70132" lon="4.70331">
        <ele>274.853119</ele>
        <time>2016-06-05T06:44:33Z</time>
      </trkpt>
      <trkpt lat="45.70132" lon="4.70336">
        <ele>275.368622</ele>
        <time>2016-06-05T06:44:35Z</time>
      </trkpt>
      <trkpt lat="45.70133" lon="4.7034">
        <ele>276.012024</ele>
        <time>2016-06-05T06:44:37Z</time>
      </trkpt>
      <trkpt lat="45.70134" lon="4.70346">
        <ele>276.450867</ele>
        <time>2016-06-05T06:44:39Z</time>
      </trkpt>
      <trkpt lat="45.70134" lon="4.70352">
        <ele>276.991638</ele>
        <time>2016-06-05T06:44:41Z</time>
      </trkpt>
      <trkpt lat="45.70135" lon="4.70358">
        <ele>277.658569</ele>
        <time>2016-06-05T06:44:43Z</time>
      </trkpt>
      <trkpt lat="45.70135" lon="4.70365">
        <ele>278.2211</ele>
        <time>2016-06-05T06:44:45Z</time>
      </trkpt>
      <trkpt lat="45.70136" lon="4.70371">
        <ele>278.72229</ele>
        <time>2016-06-05T06:44:47Z</time>
      </trkpt>
      <trkpt lat="45.70136" lon="4.70377">
        <ele>279.316864</ele>
        <time>2016-06-05T06:44:49Z</time>
      </trkpt>
      <trkpt lat="45.70137" lon="4.70382">
        <ele>279.561951</ele>
        <time>2016-06-05T06:44:51Z</time>
      </trkpt>
      <trkpt lat="45.7014" lon="4.70383">
        <ele>280.079437</ele>
        <time>2016-06-05T06:44:53Z</time>
      </trkpt>
      <trkpt lat="45.70142" lon="4.70381">
        <ele>280.58429</ele>
        <time>2016-06-05T06:44:55Z</time>
      </trkpt>
      <trkpt lat="45.70145" lon="4.70379">
        <ele>281.065948</ele>
        <time>2016-06-05T06:44:57Z</time>
      </trkpt>
      <trkpt lat="45.70147" lon="4.70375">
        <ele>281.443237</ele>
        <time>2016-06-05T06:44:59Z</time>
      </trkpt>
      <trkpt lat="45.7015" lon="4.70371">
        <ele>281.822693</ele>
        <time>2016-06-05T06:45:01Z</time>
      </trkpt>
      <trkpt lat="45.70154" lon="4.70367">
        <ele>282.231262</ele>
        <time>2016-06-05T06:45:03Z</time>
      </trkpt>
      <trkpt lat="45.70157" lon="4.70363">
        <ele>282.630554</ele>
        <time>2016-06-05T06:45:05Z</time>
      </trkpt>
      <trkpt lat="45.70159" lon="4.70359">
        <ele>282.880005</ele>
        <time>2016-06-05T06:45:07Z</time>
      </trkpt>
      <trkpt lat="45.70163" lon="4.70355">
        <ele>283.194489</ele>
        <time>2016-06-05T06:45:09Z</time>
      </trkpt>
      <trkpt lat="45.70165" lon="4.7035">
        <ele>283.676086</ele>
        <time>2016-06-05T06:45:11Z</time>
      </trkpt>
      <trkpt lat="45.70168" lon="4.70346">
        <ele>283.914917</ele>
        <time>2016-06-05T06:45:13Z</time>
      </trkpt>
      <trkpt lat="45.70172" lon="4.70342">
        <ele>284.373383</ele>
        <time>2016-06-05T06:45:15Z</time>
      </trkpt>
      <trkpt lat="45.70175" lon="4.70338">
        <ele>284.582336</ele>
        <time>2016-06-05T06:45:17Z</time>
      </trkpt>
      <trkpt lat="45.70178" lon="4.70334">
        <ele>284.925659</ele>
        <time>2016-06-05T06:45:19Z</time>
      </trkpt>
      <trkpt lat="45.70181" lon="4.7033">
        <ele>285.399048</ele>
        <time>2016-06-05T06:45:21Z</time>
      </trkpt>
      <trkpt lat="45.70184" lon="4.70325">
        <ele>285.710388</ele>
        <time>2016-06-05T06:45:23Z</time>
      </trkpt>
      <trkpt lat="45.70187" lon="4.70322">
        <ele>286.02179</ele>
        <time>2016-06-05T06:45:25Z</time>
      </trkpt>
      <trkpt lat="45.7019" lon="4.70318">
        <ele>286.294739</ele>
        <time>2016-06-05T06:45:27Z</time>
      </trkpt>
      <trkpt lat="45.70193" lon="4.70315">
        <ele>286.778473</ele>
        <time>2016-06-05T06:45:29Z</time>
      </trkpt>
      <trkpt lat="45.70195" lon="4.70311">
        <ele>287.149597</ele>
        <time>2016-06-05T06:45:31Z</time>
      </trkpt>
      <trkpt lat="45.70197" lon="4.70307">
        <ele>287.495178</ele>
        <time>2016-06-05T06:45:33Z</time>
      </trkpt>
      <trkpt lat="45.70198" lon="4.70302">
        <ele>287.901154</ele>
        <time>2016-06-05T06:45:35Z</time>
      </trkpt>
      <trkpt lat="45.70198" lon="4.70297">
        <ele>288.225647</ele>
        <time>2016-06-05T06:45:37Z</time>
      </trkpt>
      <trkpt lat="45.70197" lon="4.70292">
        <ele>288.415466</ele>
        <time>2016-06-05T06:45:39Z</time>
      </trkpt>
      <trkpt lat="45.70196" lon="4.70287">
        <ele>288.827209</ele>
        <time>2016-06-05T06:45:41Z</time>
      </trkpt>
      <trkpt lat="45.70196" lon="4.70281">
        <ele>289.223999</ele>
        <time>2016-06-05T06:45:43Z</time>
      </trkpt>
      <trkpt lat="45.70195" lon="4.70276">
        <ele>289.636414</ele>
        <time>2016-06-05T06:45:45Z</time>
      </trkpt>
      <trkpt lat="45.70194" lon="4.7027">
        <ele>290.045441</ele>
        <time>2016-06-05T06:45:47Z</time>
      </trkpt>
      <trkpt lat="45.70193" lon="4.70265">
        <ele>290.512634</ele>
        <time>2016-06-05T06:45:49Z</time>
      </trkpt>
      <trkpt lat="45.70192" lon="4.7026">
        <ele>290.922241</ele>
        <time>2016-06-05T06:45:51Z</time>
      </trkpt>
      <trkpt lat="45.70191" lon="4.70255">
        <ele>291.250305</ele>
        <time>2016-06-05T06:45:53Z</time>
      </trkpt>
      <trkpt lat="45.7019" lon="4.7025">
        <ele>291.593445</ele>
        <time>2016-06-05T06:45:55Z</time>
      </trkpt>
      <trkpt lat="45.70189" lon="4.70244">
        <ele>291.854553</ele>
        <time>2016-06-05T06:45:57Z</time>
      </trkpt>
      <trkpt lat="45.70188" lon="4.70239">
        <ele>292.210907</ele>
        <time>2016-06-05T06:45:59Z</time>
      </trkpt>
      <trkpt lat="45.70187" lon="4.70235">
        <ele>292.387878</ele>
        <time>2016-06-05T06:46:01Z</time>
      </trkpt>
      <trkpt lat="45.70186" lon="4.70231">
        <ele>292.686615</ele>
        <time>2016-06-05T06:46:03Z</time>
      </trkpt>
      <trkpt lat="45.70184" lon="4.70226">
        <ele>293.139099</ele>
        <time>2016-06-05T06:46:05Z</time>
      </trkpt>
      <trkpt lat="45.70182" lon="4.70222">
        <ele>293.437866</ele>
        <time>2016-06-05T06:46:07Z</time>
      </trkpt>
      <trkpt lat="45.70181" lon="4.70217">
        <ele>293.911652</ele>
        <time>2016-06-05T06:46:09Z</time>
      </trkpt>
      <trkpt lat="45.70179" lon="4.70213">
        <ele>294.204468</ele>
        <time>2016-06-05T06:46:11Z</time>
      </trkpt>
      <trkpt lat="45.70178" lon="4.70208">
        <ele>294.684753</ele>
        <time>2016-06-05T06:46:13Z</time>
      </trkpt>
      <trkpt lat="45.70176" lon="4.70203">
        <ele>295.192871</ele>
        <time>2016-06-05T06:46:15Z</time>
      </trkpt>
      <trkpt lat="45.70175" lon="4.70196">
        <ele>295.498108</ele>
        <time>2016-06-05T06:46:17Z</time>
      </trkpt>
      <trkpt lat="45.70173" lon="4.7019">
        <ele>295.916534</ele>
        <time>2016-06-05T06:46:19Z</time>
      </trkpt>
      <trkpt lat="45.70171" lon="4.70185">
        <ele>296.30719</ele>
        <time>2016-06-05T06:46:21Z</time>
      </trkpt>
      <trkpt lat="45.70169" lon="4.70181">
        <ele>296.721375</ele>
        <time>2016-06-05T06:46:23Z</time>
      </trkpt>
      <trkpt lat="45.70167" lon="4.70176">
        <ele>297.139862</ele>
        <time>2016-06-05T06:46:25Z</time>
      </trkpt>
      <trkpt lat="45.70165" lon="4.70171">
        <ele>297.601013</ele>
        <time>2016-06-05T06:46:27Z</time>
      </trkpt>
      <trkpt lat="45.70162" lon="4.70166">
        <ele>297.731262</ele>
        <time>2016-06-05T06:46:29Z</time>
      </trkpt>
      <trkpt lat="45.7016" lon="4.70161">
        <ele>298.168457</ele>
        <time>2016-06-05T06:46:31Z</time>
      </trkpt>
      <trkpt lat="45.70158" lon="4.70155">
        <ele>298.612122</ele>
        <time>2016-06-05T06:46:33Z</time>
      </trkpt>
      <trkpt lat="45.70155" lon="4.7015">
        <ele>299.022583</ele>
        <time>2016-06-05T06:46:35Z</time>
      </trkpt>
      <trkpt lat="45.70153" lon="4.70145">
        <ele>299.409454</ele>
        <time>2016-06-05T06:46:37Z</time>
      </trkpt>
      <trkpt lat="45.70151" lon="4.70139">
        <ele>299.843384</ele>
        <time>2016-06-05T06:46:39Z</time>
      </trkpt>
      <trkpt lat="45.70149" lon="4.70133">
        <ele>300.305664</ele>
        <time>2016-06-05T06:46:41Z</time>
      </trkpt>
      <trkpt lat="45.70147" lon="4.70128">
        <ele>300.779877</ele>
        <time>2016-06-05T06:46:43Z</time>
      </trkpt>
      <trkpt lat="45.70144" lon="4.70122">
        <ele>301.275421</ele>
        <time>2016-06-05T06:46:45Z</time>
      </trkpt>
      <trkpt lat="45.70142" lon="4.70117">
        <ele>301.666595</ele>
        <time>2016-06-05T06:46:47Z</time>
      </trkpt>
      <trkpt lat="45.7014" lon="4.70111">
        <ele>302.226166</ele>
        <time>2016-06-05T06:46:49Z</time>
      </trkpt>
      <trkpt lat="45.70138" lon="4.70106">
        <ele>302.6427</ele>
        <time>2016-06-05T06:46:51Z</time>
      </trkpt>
      <trkpt lat="45.70135" lon="4.701">
        <ele>302.70636</ele>
        <time>2016-06-05T06:46:53Z</time>
      </trkpt>
      <trkpt lat="45.70133" lon="4.70094">
        <ele>303.056732</ele>
        <time>2016-06-05T06:46:55Z</time>
      </trkpt>
      <trkpt lat="45.7013" lon="4.70089">
        <ele>303.289612</ele>
        <time>2016-06-05T06:46:57Z</time>
      </trkpt>
      <trkpt lat="45.70128" lon="4.70083">
        <ele>303.827942</ele>
        <time>2016-06-05T06:46:59Z</time>
      </trkpt>
      <trkpt lat="45.70126" lon="4.70078">
        <ele>304.26239</ele>
        <time>2016-06-05T06:47:01Z</time>
      </trkpt>
      <trkpt lat="45.70124" lon="4.70072">
        <ele>304.633667</ele>
        <time>2016-06-05T06:47:03Z</time>
      </trkpt>
      <trkpt lat="45.70124" lon="4.70067">
        <ele>305.048157</ele>
        <time>2016-06-05T06:47:05Z</time>
      </trkpt>
      <trkpt lat="45.70126" lon="4.70062">
        <ele>305.345154</ele>
        <time>2016-06-05T06:47:07Z</time>
      </trkpt>
      <trkpt lat="45.70129" lon="4.70059">
        <ele>305.757568</ele>
        <time>2016-06-05T06:47:09Z</time>
      </trkpt>
      <trkpt lat="45.70133" lon="4.70057">
        <ele>306.243195</ele>
        <time>2016-06-05T06:47:11Z</time>
      </trkpt>
      <trkpt lat="45.70137" lon="4.70055">
        <ele>306.675354</ele>
        <time>2016-06-05T06:47:13Z</time>
      </trkpt>
      <trkpt lat="45.70141" lon="4.70053">
        <ele>306.983063</ele>
        <time>2016-06-05T06:47:15Z</time>
      </trkpt>
      <trkpt lat="45.70145" lon="4.70051">
        <ele>307.223236</ele>
        <time>2016-06-05T06:47:17Z</time>
      </trkpt>
      <trkpt lat="45.70149" lon="4.70049">
        <ele>307.629211</ele>
        <time>2016-06-05T06:47:19Z</time>
      </trkpt>
      <trkpt lat="45.70153" lon="4.70047">
        <ele>308.15799</ele>
        <time>2016-06-05T06:47:21Z</time>
      </trkpt>
      <trkpt lat="45.70158" lon="4.70046">
        <ele>308.552399</ele>
        <time>2016-06-05T06:47:23Z</time>
      </trkpt>
      <trkpt lat="45.70163" lon="4.70044">
        <ele>308.97345</ele>
        <time>2016-06-05T06:47:25Z</time>
      </trkpt>
      <trkpt lat="45.70167" lon="4.70043">
        <ele>309.295471</ele>
        <time>2016-06-05T06:47:27Z</time>
      </trkpt>
      <trkpt lat="45.70172" lon="4.70041">
        <ele>309.705536</ele>
        <time>2016-06-05T06:47:29Z</time>
      </trkpt>
      <trkpt lat="45.70178" lon="4.7004">
        <ele>310.032135</ele>
        <time>2016-06-05T06:47:31Z</time>
      </trkpt>
      <trkpt lat="45.70182" lon="4.70038">
        <ele>310.44046</ele>
        <time>2016-06-05T06:47:33Z</time>
      </trkpt>
      <trkpt lat="45.70188" lon="4.70037">
        <ele>310.908478</ele>
        <time>2016-06-05T06:47:35Z</time>
      </trkpt>
      <trkpt lat="45.70195" lon="4.70036">
        <ele>311.259033</ele>
        <time>2016-06-05T06:47:37Z</time>
      </trkpt>
      <trkpt lat="45.70202" lon="4.70034">
        <ele>311.624603</ele>
        <time>2016-06-05T06:47:39Z</time>
      </trkpt>
      <trkpt lat="45.70208" lon="4.70033">
        <ele>311.878998</ele>
        <time>2016-06-05T06:47:41Z</time>
      </trkpt>
      <trkpt lat="45.70215" lon="4.70031">
        <ele>312.05777</ele>
        <time>2016-06-05T06:47:43Z</time>
      </trkpt>
      <trkpt lat="45.70222" lon="4.7003">
        <ele>312.414337</ele>
        <time>2016-06-05T06:47:45Z</time>
      </trkpt>
      <trkpt lat="45.7023" lon="4.7003">
        <ele>312.785187</ele>
        <time>2016-06-05T06:47:47Z</time>
      </trkpt>
      <trkpt lat="45.70237" lon="4.70028">
        <ele>313.026764</ele>
        <time>2016-06-05T06:47:49Z</time>
      </trkpt>
      <trkpt lat="45.70245" lon="4.70025">
        <ele>313.197815</ele>
        <time>2016-06-05T06:47:51Z</time>
      </trkpt>
      <trkpt lat="45.70253" lon="4.7002">
        <ele>313.501465</ele>
        <time>2016-06-05T06:47:53Z</time>
      </trkpt>
      <trkpt lat="45.7026" lon="4.70015">
        <ele>313.61792</ele>
        <time>2016-06-05T06:47:55Z</time>
      </trkpt>
      <trkpt lat="45.70266" lon="4.70009">
        <ele>313.76767</ele>
        <time>2016-06-05T06:47:57Z</time>
      </trkpt>
      <trkpt lat="45.7027" lon="4.7">
        <ele>314.027679</ele>
        <time>2016-06-05T06:47:59Z</time>
      </trkpt>
      <trkpt lat="45.70275" lon="4.69991">
        <ele>314.224426</ele>
        <time>2016-06-05T06:48:01Z</time>
      </trkpt>
      <trkpt lat="45.7028" lon="4.69983">
        <ele>314.410461</ele>
        <time>2016-06-05T06:48:03Z</time>
      </trkpt>
      <trkpt lat="45.70285" lon="4.69975">
        <ele>314.50885</ele>
        <time>2016-06-05T06:48:05Z</time>
      </trkpt>
      <trkpt lat="45.70289" lon="4.69967">
        <ele>314.582306</ele>
        <time>2016-06-05T06:48:07Z</time>
      </trkpt>
      <trkpt lat="45.70294" lon="4.69959">
        <ele>314.727722</ele>
        <time>2016-06-05T06:48:09Z</time>
      </trkpt>
      <trkpt lat="45.70298" lon="4.69951">
        <ele>314.637939</ele>
        <time>2016-06-05T06:48:11Z</time>
      </trkpt>
      <trkpt lat="45.70304" lon="4.69942">
        <ele>314.780945</ele>
        <time>2016-06-05T06:48:13Z</time>
      </trkpt>
      <trkpt lat="45.70309" lon="4.69933">
        <ele>314.827972</ele>
        <time>2016-06-05T06:48:15Z</time>
      </trkpt>
      <trkpt lat="45.70315" lon="4.69923">
        <ele>315.018341</ele>
        <time>2016-06-05T06:48:17Z</time>
      </trkpt>
      <trkpt lat="45.70321" lon="4.69913">
        <ele>315.096802</ele>
        <time>2016-06-05T06:48:19Z</time>
      </trkpt>
      <trkpt lat="45.70326" lon="4.69902">
        <ele>315.122467</ele>
        <time>2016-06-05T06:48:21Z</time>
      </trkpt>
      <trkpt lat="45.70329" lon="4.6989">
        <ele>315.312805</ele>
        <time>2016-06-05T06:48:23Z</time>
      </trkpt>
      <trkpt lat="45.70331" lon="4.69876">
        <ele>315.450653</ele>
        <time>2016-06-05T06:48:25Z</time>
      </trkpt>
      <trkpt lat="45.70332" lon="4.69862">
        <ele>315.411224</ele>
        <time>2016-06-05T06:48:27Z</time>
      </trkpt>
      <trkpt lat="45.70332" lon="4.69847">
        <ele>315.513885</ele>
        <time>2016-06-05T06:48:29Z</time>
      </trkpt>
      <trkpt lat="45.7033" lon="4.69832">
        <ele>315.618713</ele>
        <time>2016-06-05T06:48:31Z</time>
      </trkpt>
      <trkpt lat="45.70329" lon="4.69818">
        <ele>315.697815</ele>
        <time>2016-06-05T06:48:33Z</time>
      </trkpt>
      <trkpt lat="45.70327" lon="4.69805">
        <ele>315.852997</ele>
        <time>2016-06-05T06:48:35Z</time>
      </trkpt>
      <trkpt lat="45.70325" lon="4.69791">
        <ele>315.906372</ele>
        <time>2016-06-05T06:48:37Z</time>
      </trkpt>
      <trkpt lat="45.70323" lon="4.69779">
        <ele>316.105865</ele>
        <time>2016-06-05T06:48:39Z</time>
      </trkpt>
      <trkpt lat="45.70325" lon="4.69769">
        <ele>316.217072</ele>
        <time>2016-06-05T06:48:41Z</time>
      </trkpt>
      <trkpt lat="45.70331" lon="4.69765">
        <ele>316.296204</ele>
        <time>2016-06-05T06:48:43Z</time>
      </trkpt>
      <trkpt lat="45.70339" lon="4.69766">
        <ele>316.268372</ele>
        <time>2016-06-05T06:48:45Z</time>
      </trkpt>
      <trkpt lat="45.70348" lon="4.69768">
        <ele>316.106384</ele>
        <time>2016-06-05T06:48:47Z</time>
      </trkpt>
      <trkpt lat="45.70359" lon="4.69771">
        <ele>316.208679</ele>
        <time>2016-06-05T06:48:49Z</time>
      </trkpt>
      <trkpt lat="45.7037" lon="4.69771">
        <ele>316.224457</ele>
        <time>2016-06-05T06:48:51Z</time>
      </trkpt>
      <trkpt lat="45.70382" lon="4.69768">
        <ele>316.394135</ele>
        <time>2016-06-05T06:48:53Z</time>
      </trkpt>
      <trkpt lat="45.70395" lon="4.69763">
        <ele>316.056335</ele>
        <time>2016-06-05T06:48:55Z</time>
      </trkpt>
      <trkpt lat="45.70407" lon="4.69758">
        <ele>315.965698</ele>
        <time>2016-06-05T06:48:57Z</time>
      </trkpt>
      <trkpt lat="45.70414" lon="4.69755">
        <ele>315.718292</ele>
        <time>2016-06-05T06:48:59Z</time>
      </trkpt>
      <trkpt lat="45.70416" lon="4.69748">
        <ele>315.641296</ele>
        <time>2016-06-05T06:49:01Z</time>
      </trkpt>
      <trkpt lat="45.70418" lon="4.69739">
        <ele>315.399658</ele>
        <time>2016-06-05T06:49:03Z</time>
      </trkpt>
      <trkpt lat="45.70421" lon="4.6973">
        <ele>315.076813</ele>
        <time>2016-06-05T06:49:05Z</time>
      </trkpt>
      <trkpt lat="45.70423" lon="4.69721">
        <ele>314.867218</ele>
        <time>2016-06-05T06:49:07Z</time>
      </trkpt>
      <trkpt lat="45.70427" lon="4.6971">
        <ele>314.679016</ele>
        <time>2016-06-05T06:49:09Z</time>
      </trkpt>
      <trkpt lat="45.70433" lon="4.69699">
        <ele>314.315491</ele>
        <time>2016-06-05T06:49:11Z</time>
      </trkpt>
      <trkpt lat="45.7044" lon="4.69689">
        <ele>313.986206</ele>
        <time>2016-06-05T06:49:13Z</time>
      </trkpt>
      <trkpt lat="45.70448" lon="4.69681">
        <ele>313.654785</ele>
        <time>2016-06-05T06:49:15Z</time>
      </trkpt>
      <trkpt lat="45.70455" lon="4.69674">
        <ele>313.244202</ele>
        <time>2016-06-05T06:49:17Z</time>
      </trkpt>
      <trkpt lat="45.70462" lon="4.69667">
        <ele>312.844391</ele>
        <time>2016-06-05T06:49:19Z</time>
      </trkpt>
      <trkpt lat="45.7047" lon="4.69661">
        <ele>312.345581</ele>
        <time>2016-06-05T06:49:21Z</time>
      </trkpt>
      <trkpt lat="45.70478" lon="4.69656">
        <ele>311.967133</ele>
        <time>2016-06-05T06:49:23Z</time>
      </trkpt>
      <trkpt lat="45.70487" lon="4.69651">
        <ele>311.935059</ele>
        <time>2016-06-05T06:49:25Z</time>
      </trkpt>
      <trkpt lat="45.70495" lon="4.69646">
        <ele>311.800446</ele>
        <time>2016-06-05T06:49:27Z</time>
      </trkpt>
      <trkpt lat="45.70502" lon="4.6964">
        <ele>311.626892</ele>
        <time>2016-06-05T06:49:29Z</time>
      </trkpt>
      <trkpt lat="45.70509" lon="4.69637">
        <ele>311.413391</ele>
        <time>2016-06-05T06:49:31Z</time>
      </trkpt>
      <trkpt lat="45.70515" lon="4.69633">
        <ele>311.091888</ele>
        <time>2016-06-05T06:49:33Z</time>
      </trkpt>
      <trkpt lat="45.70522" lon="4.6963">
        <ele>310.643005</ele>
        <time>2016-06-05T06:49:35Z</time>
      </trkpt>
      <trkpt lat="45.70527" lon="4.69628">
        <ele>310.77124</ele>
        <time>2016-06-05T06:49:37Z</time>
      </trkpt>
      <trkpt lat="45.70533" lon="4.69626">
        <ele>310.75708</ele>
        <time>2016-06-05T06:49:39Z</time>
      </trkpt>
      <trkpt lat="45.7054" lon="4.69623">
        <ele>310.43869</ele>
        <time>2016-06-05T06:49:41Z</time>
      </trkpt>
      <trkpt lat="45.70546" lon="4.6962">
        <ele>310.079651</ele>
        <time>2016-06-05T06:49:43Z</time>
      </trkpt>
      <trkpt lat="45.70553" lon="4.69616">
        <ele>309.926788</ele>
        <time>2016-06-05T06:49:45Z</time>
      </trkpt>
      <trkpt lat="45.70561" lon="4.69614">
        <ele>309.708649</ele>
        <time>2016-06-05T06:49:47Z</time>
      </trkpt>
      <trkpt lat="45.70569" lon="4.69616">
        <ele>309.578979</ele>
        <time>2016-06-05T06:49:49Z</time>
      </trkpt>
      <trkpt lat="45.70576" lon="4.6962">
        <ele>309.564026</ele>
        <time>2016-06-05T06:49:51Z</time>
      </trkpt>
      <trkpt lat="45.70582" lon="4.69621">
        <ele>309.151611</ele>
        <time>2016-06-05T06:49:53Z</time>
      </trkpt>
      <trkpt lat="45.70586" lon="4.69618">
        <ele>309.068268</ele>
        <time>2016-06-05T06:49:55Z</time>
      </trkpt>
      <trkpt lat="45.70591" lon="4.69613">
        <ele>308.850281</ele>
        <time>2016-06-05T06:49:57Z</time>
      </trkpt>
      <trkpt lat="45.70594" lon="4.69605">
        <ele>308.666443</ele>
        <time>2016-06-05T06:49:59Z</time>
      </trkpt>
      <trkpt lat="45.70596" lon="4.69597">
        <ele>308.623718</ele>
        <time>2016-06-05T06:50:01Z</time>
      </trkpt>
      <trkpt lat="45.70598" lon="4.69587">
        <ele>308.527405</ele>
        <time>2016-06-05T06:50:03Z</time>
      </trkpt>
      <trkpt lat="45.70597" lon="4.69577">
        <ele>308.398285</ele>
        <time>2016-06-05T06:50:05Z</time>
      </trkpt>
      <trkpt lat="45.70596" lon="4.69567">
        <ele>307.964264</ele>
        <time>2016-06-05T06:50:07Z</time>
      </trkpt>
      <trkpt lat="45.70597" lon="4.69556">
        <ele>307.52655</ele>
        <time>2016-06-05T06:50:09Z</time>
      </trkpt>
      <trkpt lat="45.70599" lon="4.69545">
        <ele>307.473083</ele>
        <time>2016-06-05T06:50:11Z</time>
      </trkpt>
      <trkpt lat="45.70602" lon="4.69533">
        <ele>307.041321</ele>
        <time>2016-06-05T06:50:13Z</time>
      </trkpt>
      <trkpt lat="45.70605" lon="4.69522">
        <ele>306.857452</ele>
        <time>2016-06-05T06:50:15Z</time>
      </trkpt>
      <trkpt lat="45.70609" lon="4.69509">
        <ele>306.799744</ele>
        <time>2016-06-05T06:50:17Z</time>
      </trkpt>
      <trkpt lat="45.70613" lon="4.69497">
        <ele>306.361603</ele>
        <time>2016-06-05T06:50:19Z</time>
      </trkpt>
      <trkpt lat="45.70617" lon="4.69483">
        <ele>306.250305</ele>
        <time>2016-06-05T06:50:21Z</time>
      </trkpt>
      <trkpt lat="45.70621" lon="4.6947">
        <ele>306.079376</ele>
        <time>2016-06-05T06:50:23Z</time>
      </trkpt>
      <trkpt lat="45.70625" lon="4.69456">
        <ele>305.958679</ele>
        <time>2016-06-05T06:50:25Z</time>
      </trkpt>
      <trkpt lat="45.7063" lon="4.69443">
        <ele>305.851837</ele>
        <time>2016-06-05T06:50:27Z</time>
      </trkpt>
      <trkpt lat="45.70634" lon="4.69429">
        <ele>305.764099</ele>
        <time>2016-06-05T06:50:29Z</time>
      </trkpt>
      <trkpt lat="45.70638" lon="4.69415">
        <ele>305.538971</ele>
        <time>2016-06-05T06:50:31Z</time>
      </trkpt>
      <trkpt lat="45.70643" lon="4.69401">
        <ele>305.328461</ele>
        <time>2016-06-05T06:50:33Z</time>
      </trkpt>
      <trkpt lat="45.70648" lon="4.69387">
        <ele>305.302795</ele>
        <time>2016-06-05T06:50:35Z</time>
      </trkpt>
      <trkpt lat="45.70653" lon="4.69372">
        <ele>305.324188</ele>
        <time>2016-06-05T06:50:37Z</time>
      </trkpt>
      <trkpt lat="45.70657" lon="4.69358">
        <ele>305.245544</ele>
        <time>2016-06-05T06:50:39Z</time>
      </trkpt>
      <trkpt lat="45.70661" lon="4.69344">
        <ele>305.080994</ele>
        <time>2016-06-05T06:50:41Z</time>
      </trkpt>
      <trkpt lat="45.70665" lon="4.69331">
        <ele>304.97821</ele>
        <time>2016-06-05T06:50:43Z</time>
      </trkpt>
      <trkpt lat="45.70669" lon="4.69318">
        <ele>304.904358</ele>
        <time>2016-06-05T06:50:45Z</time>
      </trkpt>
      <trkpt lat="45.70673" lon="4.69305">
        <ele>304.782532</ele>
        <time>2016-06-05T06:50:47Z</time>
      </trkpt>
      <trkpt lat="45.70678" lon="4.69292">
        <ele>304.679993</ele>
        <time>2016-06-05T06:50:49Z</time>
      </trkpt>
      <trkpt lat="45.70681" lon="4.69278">
        <ele>304.544861</ele>
        <time>2016-06-05T06:50:51Z</time>
      </trkpt>
      <trkpt lat="45.70686" lon="4.69265">
        <ele>304.4487</ele>
        <time>2016-06-05T06:50:53Z</time>
      </trkpt>
      <trkpt lat="45.7069" lon="4.69252">
        <ele>304.4487</ele>
        <time>2016-06-05T06:50:55Z</time>
      </trkpt>
      <trkpt lat="45.70694" lon="4.69239">
        <ele>304.398926</ele>
        <time>2016-06-05T06:50:57Z</time>
      </trkpt>
      <trkpt lat="45.70698" lon="4.69226">
        <ele>304.36261</ele>
        <time>2016-06-05T06:50:59Z</time>
      </trkpt>
      <trkpt lat="45.70702" lon="4.69213">
        <ele>304.345245</ele>
        <time>2016-06-05T06:51:01Z</time>
      </trkpt>
      <trkpt lat="45.70707" lon="4.69201">
        <ele>304.251251</ele>
        <time>2016-06-05T06:51:03Z</time>
      </trkpt>
      <trkpt lat="45.70711" lon="4.69188">
        <ele>304.300385</ele>
        <time>2016-06-05T06:51:05Z</time>
      </trkpt>
      <trkpt lat="45.70716" lon="4.69176">
        <ele>304.345245</ele>
        <time>2016-06-05T06:51:07Z</time>
      </trkpt>
      <trkpt lat="45.70721" lon="4.69164">
        <ele>304.388</ele>
        <time>2016-06-05T06:51:09Z</time>
      </trkpt>
      <trkpt lat="45.70726" lon="4.69152">
        <ele>304.324005</ele>
        <time>2016-06-05T06:51:11Z</time>
      </trkpt>
      <trkpt lat="45.70731" lon="4.69141">
        <ele>304.244904</ele>
        <time>2016-06-05T06:51:13Z</time>
      </trkpt>
      <trkpt lat="45.70738" lon="4.6913">
        <ele>304.345215</ele>
        <time>2016-06-05T06:51:15Z</time>
      </trkpt>
      <trkpt lat="45.70744" lon="4.69121">
        <ele>304.276855</ele>
        <time>2016-06-05T06:51:17Z</time>
      </trkpt>
      <trkpt lat="45.70752" lon="4.69112">
        <ele>304.257629</ele>
        <time>2016-06-05T06:51:19Z</time>
      </trkpt>
      <trkpt lat="45.70762" lon="4.69108">
        <ele>304.357605</ele>
        <time>2016-06-05T06:51:21Z</time>
      </trkpt>
      <trkpt lat="45.70771" lon="4.69103">
        <ele>304.507507</ele>
        <time>2016-06-05T06:51:23Z</time>
      </trkpt>
      <trkpt lat="45.70779" lon="4.69094">
        <ele>304.595154</ele>
        <time>2016-06-05T06:51:25Z</time>
      </trkpt>
      <trkpt lat="45.70784" lon="4.69081">
        <ele>304.612213</ele>
        <time>2016-06-05T06:51:27Z</time>
      </trkpt>
      <trkpt lat="45.70784" lon="4.69066">
        <ele>304.721191</ele>
        <time>2016-06-05T06:51:29Z</time>
      </trkpt>
      <trkpt lat="45.70778" lon="4.69052">
        <ele>304.811829</ele>
        <time>2016-06-05T06:51:31Z</time>
      </trkpt>
      <trkpt lat="45.70769" lon="4.69044">
        <ele>304.899414</ele>
        <time>2016-06-05T06:51:33Z</time>
      </trkpt>
      <trkpt lat="45.70759" lon="4.69038">
        <ele>304.991272</ele>
        <time>2016-06-05T06:51:35Z</time>
      </trkpt>
      <trkpt lat="45.70751" lon="4.69029">
        <ele>305.040405</ele>
        <time>2016-06-05T06:51:37Z</time>
      </trkpt>
      <trkpt lat="45.70743" lon="4.69018">
        <ele>305.058136</ele>
        <time>2016-06-05T06:51:39Z</time>
      </trkpt>
      <trkpt lat="45.70735" lon="4.69009">
        <ele>305.103241</ele>
        <time>2016-06-05T06:51:41Z</time>
      </trkpt>
      <trkpt lat="45.70728" lon="4.69002">
        <ele>305.143829</ele>
        <time>2016-06-05T06:51:43Z</time>
      </trkpt>
      <trkpt lat="45.70722" lon="4.68997">
        <ele>305.237854</ele>
        <time>2016-06-05T06:51:45Z</time>
      </trkpt>
      <trkpt lat="45.7072" lon="4.69002">
        <ele>305.35968</ele>
        <time>2016-06-05T06:51:47Z</time>
      </trkpt>
      <trkpt lat="45.70724" lon="4.69007">
        <ele>305.338318</ele>
        <time>2016-06-05T06:51:49Z</time>
      </trkpt>
      <trkpt lat="45.7073" lon="4.69012">
        <ele>305.445129</ele>
        <time>2016-06-05T06:51:51Z</time>
      </trkpt>
      <trkpt lat="45.70736" lon="4.69015">
        <ele>305.669464</ele>
        <time>2016-06-05T06:51:53Z</time>
      </trkpt>
      <trkpt lat="45.70742" lon="4.69011">
        <ele>305.798798</ele>
        <time>2016-06-05T06:51:55Z</time>
      </trkpt>
      <trkpt lat="45.70744" lon="4.69">
        <ele>305.736938</ele>
        <time>2016-06-05T06:51:57Z</time>
      </trkpt>
      <trkpt lat="45.70743" lon="4.68989">
        <ele>305.840881</ele>
        <time>2016-06-05T06:51:59Z</time>
      </trkpt>
      <trkpt lat="45.70739" lon="4.6898">
        <ele>305.848206</ele>
        <time>2016-06-05T06:52:01Z</time>
      </trkpt>
      <trkpt lat="45.70736" lon="4.68973">
        <ele>305.754211</ele>
        <time>2016-06-05T06:52:03Z</time>
      </trkpt>
      <trkpt lat="45.70733" lon="4.68967">
        <ele>305.720001</ele>
        <time>2016-06-05T06:52:05Z</time>
      </trkpt>
      <trkpt lat="45.70731" lon="4.68961">
        <ele>305.713593</ele>
        <time>2016-06-05T06:52:07Z</time>
      </trkpt>
      <trkpt lat="45.70729" lon="4.68954">
        <ele>305.676392</ele>
        <time>2016-06-05T06:52:09Z</time>
      </trkpt>
      <trkpt lat="45.70726" lon="4.68945">
        <ele>305.695618</ele>
        <time>2016-06-05T06:52:11Z</time>
      </trkpt>
      <trkpt lat="45.70723" lon="4.68937">
        <ele>305.743866</ele>
        <time>2016-06-05T06:52:13Z</time>
      </trkpt>
      <trkpt lat="45.70721" lon="4.68928">
        <ele>305.752411</ele>
        <time>2016-06-05T06:52:15Z</time>
      </trkpt>
      <trkpt lat="45.70718" lon="4.6892">
        <ele>305.765228</ele>
        <time>2016-06-05T06:52:17Z</time>
      </trkpt>
      <trkpt lat="45.70716" lon="4.68912">
        <ele>305.891296</ele>
        <time>2016-06-05T06:52:19Z</time>
      </trkpt>
      <trkpt lat="45.70713" lon="4.68904">
        <ele>305.981049</ele>
        <time>2016-06-05T06:52:21Z</time>
      </trkpt>
      <trkpt lat="45.7071" lon="4.68896">
        <ele>306.097717</ele>
        <time>2016-06-05T06:52:23Z</time>
      </trkpt>
      <trkpt lat="45.70707" lon="4.68888">
        <ele>306.253723</ele>
        <time>2016-06-05T06:52:25Z</time>
      </trkpt>
      <trkpt lat="45.70704" lon="4.68879">
        <ele>306.324158</ele>
        <time>2016-06-05T06:52:27Z</time>
      </trkpt>
      <trkpt lat="45.707" lon="4.68871">
        <ele>306.369019</ele>
        <time>2016-06-05T06:52:29Z</time>
      </trkpt>
      <trkpt lat="45.70697" lon="4.68863">
        <ele>306.456604</ele>
        <time>2016-06-05T06:52:31Z</time>
      </trkpt>
      <trkpt lat="45.70693" lon="4.68854">
        <ele>306.468445</ele>
        <time>2016-06-05T06:52:33Z</time>
      </trkpt>
      <trkpt lat="45.7069" lon="4.68846">
        <ele>306.526184</ele>
        <time>2016-06-05T06:52:35Z</time>
      </trkpt>
      <trkpt lat="45.70688" lon="4.68837">
        <ele>306.618225</ele>
        <time>2016-06-05T06:52:37Z</time>
      </trkpt>
      <trkpt lat="45.70685" lon="4.68829">
        <ele>306.871124</ele>
        <time>2016-06-05T06:52:39Z</time>
      </trkpt>
      <trkpt lat="45.70683" lon="4.68821">
        <ele>307.105286</ele>
        <time>2016-06-05T06:52:41Z</time>
      </trkpt>
      <trkpt lat="45.7068" lon="4.68812">
        <ele>307.400208</ele>
        <time>2016-06-05T06:52:43Z</time>
      </trkpt>
      <trkpt lat="45.70677" lon="4.68802">
        <ele>307.477142</ele>
        <time>2016-06-05T06:52:45Z</time>
      </trkpt>
      <trkpt lat="45.70675" lon="4.68793">
        <ele>307.588257</ele>
        <time>2016-06-05T06:52:47Z</time>
      </trkpt>
      <trkpt lat="45.70672" lon="4.68784">
        <ele>307.776459</ele>
        <time>2016-06-05T06:52:49Z</time>
      </trkpt>
      <trkpt lat="45.70669" lon="4.68774">
        <ele>308.010284</ele>
        <time>2016-06-05T06:52:51Z</time>
      </trkpt>
      <trkpt lat="45.70667" lon="4.68764">
        <ele>308.119263</ele>
        <time>2016-06-05T06:52:53Z</time>
      </trkpt>
      <trkpt lat="45.70664" lon="4.68754">
        <ele>308.290222</ele>
        <time>2016-06-05T06:52:55Z</time>
      </trkpt>
      <trkpt lat="45.70662" lon="4.68745">
        <ele>308.375732</ele>
        <time>2016-06-05T06:52:57Z</time>
      </trkpt>
      <trkpt lat="45.7066" lon="4.68738">
        <ele>308.50824</ele>
        <time>2016-06-05T06:52:59Z</time>
      </trkpt>
      <trkpt lat="45.70656" lon="4.68729">
        <ele>308.666412</ele>
        <time>2016-06-05T06:53:01Z</time>
      </trkpt>
      <trkpt lat="45.70653" lon="4.68721">
        <ele>308.819031</ele>
        <time>2016-06-05T06:53:03Z</time>
      </trkpt>
      <trkpt lat="45.7065" lon="4.68714">
        <ele>308.983643</ele>
        <time>2016-06-05T06:53:05Z</time>
      </trkpt>
      <trkpt lat="45.70647" lon="4.68706">
        <ele>309.080383</ele>
        <time>2016-06-05T06:53:07Z</time>
      </trkpt>
      <trkpt lat="45.70644" lon="4.68699">
        <ele>309.135986</ele>
        <time>2016-06-05T06:53:09Z</time>
      </trkpt>
      <trkpt lat="45.70641" lon="4.68691">
        <ele>309.315521</ele>
        <time>2016-06-05T06:53:11Z</time>
      </trkpt>
      <trkpt lat="45.70637" lon="4.68684">
        <ele>309.428802</ele>
        <time>2016-06-05T06:53:13Z</time>
      </trkpt>
      <trkpt lat="45.70634" lon="4.68676">
        <ele>309.572998</ele>
        <time>2016-06-05T06:53:15Z</time>
      </trkpt>
      <trkpt lat="45.70631" lon="4.6867">
        <ele>309.722473</ele>
        <time>2016-06-05T06:53:17Z</time>
      </trkpt>
      <trkpt lat="45.7063" lon="4.68666">
        <ele>309.660492</ele>
        <time>2016-06-05T06:53:19Z</time>
      </trkpt>
      <trkpt lat="45.70628" lon="4.68662">
        <ele>309.75238</ele>
        <time>2016-06-05T06:53:21Z</time>
      </trkpt>
      <trkpt lat="45.70626" lon="4.68659">
        <ele>309.760925</ele>
        <time>2016-06-05T06:53:23Z</time>
      </trkpt>
      <trkpt lat="45.70624" lon="4.68654">
        <ele>309.853668</ele>
        <time>2016-06-05T06:53:25Z</time>
      </trkpt>
      <trkpt lat="45.7062" lon="4.68649">
        <ele>310.035339</ele>
        <time>2016-06-05T06:53:27Z</time>
      </trkpt>
      <trkpt lat="45.70617" lon="4.68643">
        <ele>310.120697</ele>
        <time>2016-06-05T06:53:29Z</time>
      </trkpt>
      <trkpt lat="45.70614" lon="4.68638">
        <ele>310.201904</ele>
        <time>2016-06-05T06:53:31Z</time>
      </trkpt>
      <trkpt lat="45.70611" lon="4.68632">
        <ele>310.394348</ele>
        <time>2016-06-05T06:53:33Z</time>
      </trkpt>
      <trkpt lat="45.70608" lon="4.68627">
        <ele>310.485901</ele>
        <time>2016-06-05T06:53:35Z</time>
      </trkpt>
      <trkpt lat="45.70605" lon="4.68621">
        <ele>310.768066</ele>
        <time>2016-06-05T06:53:37Z</time>
      </trkpt>
      <trkpt lat="45.70602" lon="4.68615">
        <ele>310.899811</ele>
        <time>2016-06-05T06:53:39Z</time>
      </trkpt>
      <trkpt lat="45.70599" lon="4.68609">
        <ele>311.188385</ele>
        <time>2016-06-05T06:53:41Z</time>
      </trkpt>
      <trkpt lat="45.70596" lon="4.68603">
        <ele>311.335876</ele>
        <time>2016-06-05T06:53:43Z</time>
      </trkpt>
      <trkpt lat="45.70597" lon="4.68597">
        <ele>311.496674</ele>
        <time>2016-06-05T06:53:45Z</time>
      </trkpt>
      <trkpt lat="45.70598" lon="4.68592">
        <ele>311.575256</ele>
        <time>2016-06-05T06:53:47Z</time>
      </trkpt>
      <trkpt lat="45.70601" lon="4.68587">
        <ele>311.851044</ele>
        <time>2016-06-05T06:53:49Z</time>
      </trkpt>
      <trkpt lat="45.70603" lon="4.68582">
        <ele>312.041321</ele>
        <time>2016-06-05T06:53:51Z</time>
      </trkpt>
      <trkpt lat="45.70606" lon="4.68577">
        <ele>312.193176</ele>
        <time>2016-06-05T06:53:53Z</time>
      </trkpt>
      <trkpt lat="45.70609" lon="4.68572">
        <ele>312.44516</ele>
        <time>2016-06-05T06:53:55Z</time>
      </trkpt>
      <trkpt lat="45.70611" lon="4.68567">
        <ele>312.663269</ele>
        <time>2016-06-05T06:53:57Z</time>
      </trkpt>
      <trkpt lat="45.70615" lon="4.68562">
        <ele>312.90918</ele>
        <time>2016-06-05T06:53:59Z</time>
      </trkpt>
      <trkpt lat="45.70618" lon="4.68556">
        <ele>313.306885</ele>
        <time>2016-06-05T06:54:01Z</time>
      </trkpt>
      <trkpt lat="45.7062" lon="4.6855">
        <ele>313.574158</ele>
        <time>2016-06-05T06:54:03Z</time>
      </trkpt>
      <trkpt lat="45.70622" lon="4.68544">
        <ele>313.80368</ele>
        <time>2016-06-05T06:54:05Z</time>
      </trkpt>
      <trkpt lat="45.70623" lon="4.68537">
        <ele>313.914886</ele>
        <time>2016-06-05T06:54:07Z</time>
      </trkpt>
      <trkpt lat="45.70624" lon="4.6853">
        <ele>314.177887</ele>
        <time>2016-06-05T06:54:09Z</time>
      </trkpt>
      <trkpt lat="45.70624" lon="4.68524">
        <ele>314.390381</ele>
        <time>2016-06-05T06:54:11Z</time>
      </trkpt>
      <trkpt lat="45.70624" lon="4.68518">
        <ele>314.62558</ele>
        <time>2016-06-05T06:54:13Z</time>
      </trkpt>
      <trkpt lat="45.70624" lon="4.68511">
        <ele>314.722046</ele>
        <time>2016-06-05T06:54:15Z</time>
      </trkpt>
      <trkpt lat="45.70623" lon="4.68504">
        <ele>314.857117</ele>
        <time>2016-06-05T06:54:17Z</time>
      </trkpt>
      <trkpt lat="45.70623" lon="4.68497">
        <ele>315.107361</ele>
        <time>2016-06-05T06:54:19Z</time>
      </trkpt>
      <trkpt lat="45.70622" lon="4.68489">
        <ele>315.316406</ele>
        <time>2016-06-05T06:54:21Z</time>
      </trkpt>
      <trkpt lat="45.7062" lon="4.68482">
        <ele>315.449036</ele>
        <time>2016-06-05T06:54:23Z</time>
      </trkpt>
      <trkpt lat="45.70619" lon="4.68475">
        <ele>315.632965</ele>
        <time>2016-06-05T06:54:25Z</time>
      </trkpt>
      <trkpt lat="45.70617" lon="4.68469">
        <ele>315.775818</ele>
        <time>2016-06-05T06:54:27Z</time>
      </trkpt>
      <trkpt lat="45.70616" lon="4.68462">
        <ele>316.013214</ele>
        <time>2016-06-05T06:54:29Z</time>
      </trkpt>
      <trkpt lat="45.70614" lon="4.68455">
        <ele>316.066681</ele>
        <time>2016-06-05T06:54:31Z</time>
      </trkpt>
      <trkpt lat="45.70612" lon="4.68449">
        <ele>316.215912</ele>
        <time>2016-06-05T06:54:33Z</time>
      </trkpt>
      <trkpt lat="45.7061" lon="4.68442">
        <ele>316.361664</ele>
        <time>2016-06-05T06:54:35Z</time>
      </trkpt>
      <trkpt lat="45.70609" lon="4.68435">
        <ele>316.556305</ele>
        <time>2016-06-05T06:54:37Z</time>
      </trkpt>
      <trkpt lat="45.70606" lon="4.68428">
        <ele>316.596954</ele>
        <time>2016-06-05T06:54:39Z</time>
      </trkpt>
      <trkpt lat="45.70605" lon="4.68421">
        <ele>316.717041</ele>
        <time>2016-06-05T06:54:41Z</time>
      </trkpt>
      <trkpt lat="45.70603" lon="4.68414">
        <ele>316.733246</ele>
        <time>2016-06-05T06:54:43Z</time>
      </trkpt>
      <trkpt lat="45.70601" lon="4.68407">
        <ele>316.865875</ele>
        <time>2016-06-05T06:54:45Z</time>
      </trkpt>
      <trkpt lat="45.70599" lon="4.68401">
        <ele>316.902893</ele>
        <time>2016-06-05T06:54:47Z</time>
      </trkpt>
      <trkpt lat="45.70598" lon="4.68395">
        <ele>317.129181</ele>
        <time>2016-06-05T06:54:49Z</time>
      </trkpt>
      <trkpt lat="45.70596" lon="4.6839">
        <ele>317.306732</ele>
        <time>2016-06-05T06:54:51Z</time>
      </trkpt>
      <trkpt lat="45.70593" lon="4.68384">
        <ele>317.452301</ele>
        <time>2016-06-05T06:54:53Z</time>
      </trkpt>
      <trkpt lat="45.70592" lon="4.6838">
        <ele>317.543121</ele>
        <time>2016-06-05T06:54:55Z</time>
      </trkpt>
      <trkpt lat="45.70592" lon="4.68375">
        <ele>317.684052</ele>
        <time>2016-06-05T06:54:57Z</time>
      </trkpt>
      <trkpt lat="45.70591" lon="4.68369">
        <ele>317.776611</ele>
        <time>2016-06-05T06:54:59Z</time>
      </trkpt>
      <trkpt lat="45.7059" lon="4.68362">
        <ele>317.857086</ele>
        <time>2016-06-05T06:55:01Z</time>
      </trkpt>
      <trkpt lat="45.70589" lon="4.68356">
        <ele>318.002563</ele>
        <time>2016-06-05T06:55:03Z</time>
      </trkpt>
      <trkpt lat="45.70587" lon="4.68349">
        <ele>318.085999</ele>
        <time>2016-06-05T06:55:05Z</time>
      </trkpt>
      <trkpt lat="45.70585" lon="4.68343">
        <ele>318.295624</ele>
        <time>2016-06-05T06:55:07Z</time>
      </trkpt>
      <trkpt lat="45.70583" lon="4.68336">
        <ele>318.477875</ele>
        <time>2016-06-05T06:55:09Z</time>
      </trkpt>
      <trkpt lat="45.7058" lon="4.6833">
        <ele>318.576263</ele>
        <time>2016-06-05T06:55:11Z</time>
      </trkpt>
      <trkpt lat="45.70578" lon="4.68324">
        <ele>318.743591</ele>
        <time>2016-06-05T06:55:13Z</time>
      </trkpt>
      <trkpt lat="45.70578" lon="4.68317">
        <ele>318.777832</ele>
        <time>2016-06-05T06:55:15Z</time>
      </trkpt>
      <trkpt lat="45.70579" lon="4.68309">
        <ele>319.006775</ele>
        <time>2016-06-05T06:55:17Z</time>
      </trkpt>
      <trkpt lat="45.7058" lon="4.68302">
        <ele>319.064545</ele>
        <time>2016-06-05T06:55:19Z</time>
      </trkpt>
      <trkpt lat="45.70579" lon="4.68294">
        <ele>319.140137</ele>
        <time>2016-06-05T06:55:21Z</time>
      </trkpt>
      <trkpt lat="45.70578" lon="4.68286">
        <ele>319.295074</ele>
        <time>2016-06-05T06:55:23Z</time>
      </trkpt>
      <trkpt lat="45.70577" lon="4.68279">
        <ele>319.514343</ele>
        <time>2016-06-05T06:55:25Z</time>
      </trkpt>
      <trkpt lat="45.70574" lon="4.68272">
        <ele>319.760437</ele>
        <time>2016-06-05T06:55:27Z</time>
      </trkpt>
      <trkpt lat="45.70572" lon="4.68265">
        <ele>320.117828</ele>
        <time>2016-06-05T06:55:29Z</time>
      </trkpt>
      <trkpt lat="45.70569" lon="4.68259">
        <ele>320.383301</ele>
        <time>2016-06-05T06:55:31Z</time>
      </trkpt>
      <trkpt lat="45.70567" lon="4.68253">
        <ele>320.600647</ele>
        <time>2016-06-05T06:55:33Z</time>
      </trkpt>
      <trkpt lat="45.70564" lon="4.68248">
        <ele>320.917328</ele>
        <time>2016-06-05T06:55:35Z</time>
      </trkpt>
      <trkpt lat="45.70561" lon="4.68243">
        <ele>321.173157</ele>
        <time>2016-06-05T06:55:37Z</time>
      </trkpt>
      <trkpt lat="45.70558" lon="4.68238">
        <ele>321.493591</ele>
        <time>2016-06-05T06:55:39Z</time>
      </trkpt>
      <trkpt lat="45.70556" lon="4.68233">
        <ele>321.803406</ele>
        <time>2016-06-05T06:55:41Z</time>
      </trkpt>
      <trkpt lat="45.70552" lon="4.68229">
        <ele>322.115845</ele>
        <time>2016-06-05T06:55:43Z</time>
      </trkpt>
      <trkpt lat="45.7055" lon="4.68225">
        <ele>322.272095</ele>
        <time>2016-06-05T06:55:45Z</time>
      </trkpt>
      <trkpt lat="45.70548" lon="4.68221">
        <ele>322.631683</ele>
        <time>2016-06-05T06:55:47Z</time>
      </trkpt>
      <trkpt lat="45.70545" lon="4.68217">
        <ele>323.100494</ele>
        <time>2016-06-05T06:55:49Z</time>
      </trkpt>
      <trkpt lat="45.70544" lon="4.68212">
        <ele>323.513245</ele>
        <time>2016-06-05T06:55:51Z</time>
      </trkpt>
      <trkpt lat="45.70541" lon="4.68208">
        <ele>324.018402</ele>
        <time>2016-06-05T06:55:53Z</time>
      </trkpt>
      <trkpt lat="45.70538" lon="4.68204">
        <ele>324.549286</ele>
        <time>2016-06-05T06:55:55Z</time>
      </trkpt>
      <trkpt lat="45.70536" lon="4.682">
        <ele>325.06662</ele>
        <time>2016-06-05T06:55:57Z</time>
      </trkpt>
      <trkpt lat="45.70533" lon="4.68196">
        <ele>325.543182</ele>
        <time>2016-06-05T06:55:59Z</time>
      </trkpt>
      <trkpt lat="45.70531" lon="4.68193">
        <ele>326.109833</ele>
        <time>2016-06-05T06:56:01Z</time>
      </trkpt>
      <trkpt lat="45.70528" lon="4.68189">
        <ele>326.658905</ele>
        <time>2016-06-05T06:56:03Z</time>
      </trkpt>
      <trkpt lat="45.70526" lon="4.68185">
        <ele>327.131226</ele>
        <time>2016-06-05T06:56:05Z</time>
      </trkpt>
      <trkpt lat="45.70522" lon="4.68178">
        <ele>327.362518</ele>
        <time>2016-06-05T06:56:08Z</time>
      </trkpt>
      <trkpt lat="45.70519" lon="4.68174">
        <ele>327.863586</ele>
        <time>2016-06-05T06:56:10Z</time>
      </trkpt>
      <trkpt lat="45.70515" lon="4.6817">
        <ele>328.229706</ele>
        <time>2016-06-05T06:56:12Z</time>
      </trkpt>
      <trkpt lat="45.70512" lon="4.68166">
        <ele>328.703339</ele>
        <time>2016-06-05T06:56:14Z</time>
      </trkpt>
      <trkpt lat="45.70508" lon="4.68162">
        <ele>329.191132</ele>
        <time>2016-06-05T06:56:16Z</time>
      </trkpt>
      <trkpt lat="45.70505" lon="4.68159">
        <ele>329.615112</ele>
        <time>2016-06-05T06:56:18Z</time>
      </trkpt>
      <trkpt lat="45.70503" lon="4.68155">
        <ele>330.090515</ele>
        <time>2016-06-05T06:56:20Z</time>
      </trkpt>
      <trkpt lat="45.70499" lon="4.68151">
        <ele>330.557404</ele>
        <time>2016-06-05T06:56:22Z</time>
      </trkpt>
      <trkpt lat="45.70497" lon="4.68146">
        <ele>331.1362</ele>
        <time>2016-06-05T06:56:24Z</time>
      </trkpt>
      <trkpt lat="45.70494" lon="4.68141">
        <ele>331.558136</ele>
        <time>2016-06-05T06:56:26Z</time>
      </trkpt>
      <trkpt lat="45.70492" lon="4.68136">
        <ele>331.980042</ele>
        <time>2016-06-05T06:56:28Z</time>
      </trkpt>
      <trkpt lat="45.70489" lon="4.68131">
        <ele>332.357056</ele>
        <time>2016-06-05T06:56:30Z</time>
      </trkpt>
      <trkpt lat="45.70487" lon="4.68127">
        <ele>332.714874</ele>
        <time>2016-06-05T06:56:32Z</time>
      </trkpt>
      <trkpt lat="45.70484" lon="4.68123">
        <ele>333.074829</ele>
        <time>2016-06-05T06:56:34Z</time>
      </trkpt>
      <trkpt lat="45.70482" lon="4.68118">
        <ele>333.250488</ele>
        <time>2016-06-05T06:56:36Z</time>
      </trkpt>
      <trkpt lat="45.7048" lon="4.68113">
        <ele>333.579437</ele>
        <time>2016-06-05T06:56:38Z</time>
      </trkpt>
      <trkpt lat="45.70477" lon="4.68109">
        <ele>333.933716</ele>
        <time>2016-06-05T06:56:40Z</time>
      </trkpt>
      <trkpt lat="45.70475" lon="4.68105">
        <ele>334.26239</ele>
        <time>2016-06-05T06:56:42Z</time>
      </trkpt>
      <trkpt lat="45.70473" lon="4.68101">
        <ele>334.517365</ele>
        <time>2016-06-05T06:56:44Z</time>
      </trkpt>
      <trkpt lat="45.7047" lon="4.68098">
        <ele>334.948059</ele>
        <time>2016-06-05T06:56:46Z</time>
      </trkpt>
      <trkpt lat="45.70469" lon="4.68094">
        <ele>335.342224</ele>
        <time>2016-06-05T06:56:48Z</time>
      </trkpt>
      <trkpt lat="45.70466" lon="4.68091">
        <ele>335.73645</ele>
        <time>2016-06-05T06:56:50Z</time>
      </trkpt>
      <trkpt lat="45.70464" lon="4.68087">
        <ele>336.118011</ele>
        <time>2016-06-05T06:56:52Z</time>
      </trkpt>
      <trkpt lat="45.70461" lon="4.68084">
        <ele>336.482361</ele>
        <time>2016-06-05T06:56:54Z</time>
      </trkpt>
      <trkpt lat="45.70459" lon="4.6808">
        <ele>336.795685</ele>
        <time>2016-06-05T06:56:56Z</time>
      </trkpt>
      <trkpt lat="45.70457" lon="4.68077">
        <ele>337.172882</ele>
        <time>2016-06-05T06:56:58Z</time>
      </trkpt>
      <trkpt lat="45.70454" lon="4.68072">
        <ele>337.485748</ele>
        <time>2016-06-05T06:57:00Z</time>
      </trkpt>
      <trkpt lat="45.70453" lon="4.68068">
        <ele>337.92511</ele>
        <time>2016-06-05T06:57:02Z</time>
      </trkpt>
      <trkpt lat="45.70451" lon="4.68063">
        <ele>338.219421</ele>
        <time>2016-06-05T06:57:04Z</time>
      </trkpt>
      <trkpt lat="45.70448" lon="4.68059">
        <ele>338.358765</ele>
        <time>2016-06-05T06:57:06Z</time>
      </trkpt>
      <trkpt lat="45.70445" lon="4.68054">
        <ele>338.836731</ele>
        <time>2016-06-05T06:57:08Z</time>
      </trkpt>
      <trkpt lat="45.70443" lon="4.68049">
        <ele>339.224701</ele>
        <time>2016-06-05T06:57:10Z</time>
      </trkpt>
      <trkpt lat="45.70441" lon="4.68044">
        <ele>339.737091</ele>
        <time>2016-06-05T06:57:12Z</time>
      </trkpt>
      <trkpt lat="45.70438" lon="4.68039">
        <ele>340.163727</ele>
        <time>2016-06-05T06:57:14Z</time>
      </trkpt>
      <trkpt lat="45.70436" lon="4.68035">
        <ele>340.528076</ele>
        <time>2016-06-05T06:57:16Z</time>
      </trkpt>
      <trkpt lat="45.70434" lon="4.68029">
        <ele>341.017883</ele>
        <time>2016-06-05T06:57:18Z</time>
      </trkpt>
      <trkpt lat="45.70432" lon="4.68025">
        <ele>341.457306</ele>
        <time>2016-06-05T06:57:20Z</time>
      </trkpt>
      <trkpt lat="45.7043" lon="4.68019">
        <ele>341.903259</ele>
        <time>2016-06-05T06:57:22Z</time>
      </trkpt>
      <trkpt lat="45.70429" lon="4.68014">
        <ele>342.396423</ele>
        <time>2016-06-05T06:57:24Z</time>
      </trkpt>
      <trkpt lat="45.70427" lon="4.68008">
        <ele>342.580872</ele>
        <time>2016-06-05T06:57:26Z</time>
      </trkpt>
      <trkpt lat="45.70425" lon="4.68003">
        <ele>343.014069</ele>
        <time>2016-06-05T06:57:28Z</time>
      </trkpt>
      <trkpt lat="45.70423" lon="4.67997">
        <ele>343.452332</ele>
        <time>2016-06-05T06:57:30Z</time>
      </trkpt>
      <trkpt lat="45.70421" lon="4.67992">
        <ele>343.800568</ele>
        <time>2016-06-05T06:57:32Z</time>
      </trkpt>
      <trkpt lat="45.70418" lon="4.67987">
        <ele>344.223114</ele>
        <time>2016-06-05T06:57:34Z</time>
      </trkpt>
      <trkpt lat="45.70415" lon="4.67982">
        <ele>344.718597</ele>
        <time>2016-06-05T06:57:36Z</time>
      </trkpt>
      <trkpt lat="45.70412" lon="4.67978">
        <ele>345.217529</ele>
        <time>2016-06-05T06:57:38Z</time>
      </trkpt>
      <trkpt lat="45.70408" lon="4.67974">
        <ele>345.695862</ele>
        <time>2016-06-05T06:57:40Z</time>
      </trkpt>
      <trkpt lat="45.70405" lon="4.67971">
        <ele>346.257782</ele>
        <time>2016-06-05T06:57:42Z</time>
      </trkpt>
      <trkpt lat="45.70402" lon="4.67966">
        <ele>346.652496</ele>
        <time>2016-06-05T06:57:44Z</time>
      </trkpt>
      <trkpt lat="45.70399" lon="4.6796">
        <ele>347.072235</ele>
        <time>2016-06-05T06:57:46Z</time>
      </trkpt>
      <trkpt lat="45.70396" lon="4.67955">
        <ele>347.479797</ele>
        <time>2016-06-05T06:57:48Z</time>
      </trkpt>
      <trkpt lat="45.70393" lon="4.6795">
        <ele>347.660034</ele>
        <time>2016-06-05T06:57:50Z</time>
      </trkpt>
      <trkpt lat="45.7039" lon="4.67945">
        <ele>348.067596</ele>
        <time>2016-06-05T06:57:52Z</time>
      </trkpt>
      <trkpt lat="45.70387" lon="4.67939">
        <ele>348.407104</ele>
        <time>2016-06-05T06:57:54Z</time>
      </trkpt>
      <trkpt lat="45.70384" lon="4.67933">
        <ele>348.720886</ele>
        <time>2016-06-05T06:57:56Z</time>
      </trkpt>
      <trkpt lat="45.70382" lon="4.67928">
        <ele>349.027771</ele>
        <time>2016-06-05T06:57:58Z</time>
      </trkpt>
      <trkpt lat="45.70379" lon="4.67922">
        <ele>349.274506</ele>
        <time>2016-06-05T06:58:00Z</time>
      </trkpt>
      <trkpt lat="45.70377" lon="4.67916">
        <ele>349.632843</ele>
        <time>2016-06-05T06:58:02Z</time>
      </trkpt>
      <trkpt lat="45.70374" lon="4.67909">
        <ele>349.987488</ele>
        <time>2016-06-05T06:58:04Z</time>
      </trkpt>
      <trkpt lat="45.70371" lon="4.67901">
        <ele>350.293427</ele>
        <time>2016-06-05T06:58:06Z</time>
      </trkpt>
      <trkpt lat="45.70368" lon="4.67893">
        <ele>350.574554</ele>
        <time>2016-06-05T06:58:08Z</time>
      </trkpt>
      <trkpt lat="45.70366" lon="4.67884">
        <ele>350.791321</ele>
        <time>2016-06-05T06:58:10Z</time>
      </trkpt>
      <trkpt lat="45.70364" lon="4.67876">
        <ele>351.178864</ele>
        <time>2016-06-05T06:58:12Z</time>
      </trkpt>
      <trkpt lat="45.70368" lon="4.6787">
        <ele>351.5802</ele>
        <time>2016-06-05T06:58:14Z</time>
      </trkpt>
      <trkpt lat="45.70375" lon="4.67868">
        <ele>351.659607</ele>
        <time>2016-06-05T06:58:16Z</time>
      </trkpt>
      <trkpt lat="45.70385" lon="4.67869">
        <ele>351.737976</ele>
        <time>2016-06-05T06:58:18Z</time>
      </trkpt>
      <trkpt lat="45.70395" lon="4.6787">
        <ele>351.852509</ele>
        <time>2016-06-05T06:58:20Z</time>
      </trkpt>
      <trkpt lat="45.70406" lon="4.67871">
        <ele>352.033478</ele>
        <time>2016-06-05T06:58:22Z</time>
      </trkpt>
      <trkpt lat="45.70418" lon="4.67871">
        <ele>352.072144</ele>
        <time>2016-06-05T06:58:24Z</time>
      </trkpt>
      <trkpt lat="45.7043" lon="4.67871">
        <ele>352.039978</ele>
        <time>2016-06-05T06:58:26Z</time>
      </trkpt>
      <trkpt lat="45.70443" lon="4.67871">
        <ele>352.0271</ele>
        <time>2016-06-05T06:58:28Z</time>
      </trkpt>
      <trkpt lat="45.70456" lon="4.6787">
        <ele>352.177368</ele>
        <time>2016-06-05T06:58:30Z</time>
      </trkpt>
      <trkpt lat="45.70469" lon="4.67867">
        <ele>352.177368</ele>
        <time>2016-06-05T06:58:32Z</time>
      </trkpt>
      <trkpt lat="45.7048" lon="4.6786">
        <ele>352.048218</ele>
        <time>2016-06-05T06:58:34Z</time>
      </trkpt>
      <trkpt lat="45.70487" lon="4.67848">
        <ele>351.925385</ele>
        <time>2016-06-05T06:58:36Z</time>
      </trkpt>
      <trkpt lat="45.70488" lon="4.67833">
        <ele>351.836395</ele>
        <time>2016-06-05T06:58:38Z</time>
      </trkpt>
      <trkpt lat="45.70488" lon="4.67818">
        <ele>351.80423</ele>
        <time>2016-06-05T06:58:40Z</time>
      </trkpt>
      <trkpt lat="45.70485" lon="4.67802">
        <ele>351.548889</ele>
        <time>2016-06-05T06:58:42Z</time>
      </trkpt>
      <trkpt lat="45.70483" lon="4.67784">
        <ele>351.445862</ele>
        <time>2016-06-05T06:58:44Z</time>
      </trkpt>
      <trkpt lat="45.7048" lon="4.67765">
        <ele>351.19635</ele>
        <time>2016-06-05T06:58:46Z</time>
      </trkpt>
      <trkpt lat="45.70478" lon="4.67746">
        <ele>350.873383</ele>
        <time>2016-06-05T06:58:48Z</time>
      </trkpt>
      <trkpt lat="45.70475" lon="4.67728">
        <ele>350.515015</ele>
        <time>2016-06-05T06:58:50Z</time>
      </trkpt>
      <trkpt lat="45.70477" lon="4.67712">
        <ele>350.107361</ele>
        <time>2016-06-05T06:58:52Z</time>
      </trkpt>
      <trkpt lat="45.70483" lon="4.67701">
        <ele>349.836975</ele>
        <time>2016-06-05T06:58:54Z</time>
      </trkpt>
      <trkpt lat="45.70491" lon="4.67695">
        <ele>349.381989</ele>
        <time>2016-06-05T06:58:56Z</time>
      </trkpt>
      <trkpt lat="45.70498" lon="4.67694">
        <ele>348.980774</ele>
        <time>2016-06-05T06:58:58Z</time>
      </trkpt>
      <trkpt lat="45.70504" lon="4.67696">
        <ele>348.488342</ele>
        <time>2016-06-05T06:59:00Z</time>
      </trkpt>
      <trkpt lat="45.70507" lon="4.67699">
        <ele>348.198669</ele>
        <time>2016-06-05T06:59:02Z</time>
      </trkpt>
      <trkpt lat="45.70511" lon="4.67702">
        <ele>347.878326</ele>
        <time>2016-06-05T06:59:04Z</time>
      </trkpt>
      <trkpt lat="45.70512" lon="4.67706">
        <ele>347.751678</ele>
        <time>2016-06-05T06:59:06Z</time>
      </trkpt>
      <trkpt lat="45.70515" lon="4.67708">
        <ele>347.571442</ele>
        <time>2016-06-05T06:59:08Z</time>
      </trkpt>
      <trkpt lat="45.70518" lon="4.6771">
        <ele>347.466248</ele>
        <time>2016-06-05T06:59:10Z</time>
      </trkpt>
      <trkpt lat="45.70522" lon="4.67714">
        <ele>347.260223</ele>
        <time>2016-06-05T06:59:12Z</time>
      </trkpt>
      <trkpt lat="45.70525" lon="4.67717">
        <ele>347.350281</ele>
        <time>2016-06-05T06:59:14Z</time>
      </trkpt>
      <trkpt lat="45.70528" lon="4.6772">
        <ele>347.2258</ele>
        <time>2016-06-05T06:59:16Z</time>
      </trkpt>
      <trkpt lat="45.70532" lon="4.67723">
        <ele>347.196106</ele>
        <time>2016-06-05T06:59:18Z</time>
      </trkpt>
      <trkpt lat="45.70535" lon="4.67724">
        <ele>347.19928</ele>
        <time>2016-06-05T06:59:20Z</time>
      </trkpt>
      <trkpt lat="45.70539" lon="4.67726">
        <ele>347.328033</ele>
        <time>2016-06-05T06:59:22Z</time>
      </trkpt>
      <trkpt lat="45.70542" lon="4.67727">
        <ele>347.600525</ele>
        <time>2016-06-05T06:59:24Z</time>
      </trkpt>
      <trkpt lat="45.70546" lon="4.67728">
        <ele>347.855896</ele>
        <time>2016-06-05T06:59:26Z</time>
      </trkpt>
      <trkpt lat="45.70549" lon="4.67729">
        <ele>348.028381</ele>
        <time>2016-06-05T06:59:28Z</time>
      </trkpt>
      <trkpt lat="45.70553" lon="4.67731">
        <ele>348.401733</ele>
        <time>2016-06-05T06:59:30Z</time>
      </trkpt>
      <trkpt lat="45.70557" lon="4.67732">
        <ele>348.893127</ele>
        <time>2016-06-05T06:59:32Z</time>
      </trkpt>
      <trkpt lat="45.7056" lon="4.67734">
        <ele>349.279419</ele>
        <time>2016-06-05T06:59:34Z</time>
      </trkpt>
      <trkpt lat="45.70563" lon="4.67735">
        <ele>349.680756</ele>
        <time>2016-06-05T06:59:36Z</time>
      </trkpt>
      <trkpt lat="45.70566" lon="4.67737">
        <ele>350.217255</ele>
        <time>2016-06-05T06:59:38Z</time>
      </trkpt>
      <trkpt lat="45.70569" lon="4.6774">
        <ele>350.878143</ele>
        <time>2016-06-05T06:59:40Z</time>
      </trkpt>
      <trkpt lat="45.70572" lon="4.67742">
        <ele>351.434021</ele>
        <time>2016-06-05T06:59:42Z</time>
      </trkpt>
      <trkpt lat="45.70575" lon="4.67744">
        <ele>351.68512</ele>
        <time>2016-06-05T06:59:44Z</time>
      </trkpt>
      <trkpt lat="45.70578" lon="4.67745">
        <ele>352.302032</ele>
        <time>2016-06-05T06:59:46Z</time>
      </trkpt>
      <trkpt lat="45.70582" lon="4.67747">
        <ele>352.763519</ele>
        <time>2016-06-05T06:59:48Z</time>
      </trkpt>
      <trkpt lat="45.70586" lon="4.6775">
        <ele>353.209961</ele>
        <time>2016-06-05T06:59:50Z</time>
      </trkpt>
      <trkpt lat="45.7059" lon="4.67752">
        <ele>353.649994</ele>
        <time>2016-06-05T06:59:52Z</time>
      </trkpt>
      <trkpt lat="45.70594" lon="4.67755">
        <ele>354.130859</ele>
        <time>2016-06-05T06:59:54Z</time>
      </trkpt>
      <trkpt lat="45.70598" lon="4.67758">
        <ele>354.540833</ele>
        <time>2016-06-05T06:59:56Z</time>
      </trkpt>
      <trkpt lat="45.70602" lon="4.67762">
        <ele>355.130859</ele>
        <time>2016-06-05T06:59:58Z</time>
      </trkpt>
      <trkpt lat="45.70606" lon="4.67766">
        <ele>355.555908</ele>
        <time>2016-06-05T07:00:00Z</time>
      </trkpt>
      <trkpt lat="45.70609" lon="4.6777">
        <ele>355.955261</ele>
        <time>2016-06-05T07:00:02Z</time>
      </trkpt>
      <trkpt lat="45.70613" lon="4.67774">
        <ele>356.353516</ele>
        <time>2016-06-05T07:00:04Z</time>
      </trkpt>
      <trkpt lat="45.70618" lon="4.6778">
        <ele>356.701324</ele>
        <time>2016-06-05T07:00:06Z</time>
      </trkpt>
      <trkpt lat="45.70625" lon="4.67788">
        <ele>356.969788</ele>
        <time>2016-06-05T07:00:08Z</time>
      </trkpt>
      <trkpt lat="45.70633" lon="4.67796">
        <ele>357.233063</ele>
        <time>2016-06-05T07:00:10Z</time>
      </trkpt>
      <trkpt lat="45.70643" lon="4.67807">
        <ele>357.406982</ele>
        <time>2016-06-05T07:00:12Z</time>
      </trkpt>
      <trkpt lat="45.70654" lon="4.67819">
        <ele>357.177338</ele>
        <time>2016-06-05T07:00:14Z</time>
      </trkpt>
      <trkpt lat="45.70667" lon="4.6783">
        <ele>357.276031</ele>
        <time>2016-06-05T07:00:16Z</time>
      </trkpt>
      <trkpt lat="45.70679" lon="4.67838">
        <ele>357.419861</ele>
        <time>2016-06-05T07:00:18Z</time>
      </trkpt>
      <trkpt lat="45.70692" lon="4.67844">
        <ele>357.055115</ele>
        <time>2016-06-05T07:00:20Z</time>
      </trkpt>
      <trkpt lat="45.70703" lon="4.67847">
        <ele>356.98642</ele>
        <time>2016-06-05T07:00:22Z</time>
      </trkpt>
      <trkpt lat="45.70713" lon="4.67851">
        <ele>356.839355</ele>
        <time>2016-06-05T07:00:24Z</time>
      </trkpt>
      <trkpt lat="45.70723" lon="4.67854">
        <ele>356.750244</ele>
        <time>2016-06-05T07:00:26Z</time>
      </trkpt>
      <trkpt lat="45.70734" lon="4.67856">
        <ele>356.546295</ele>
        <time>2016-06-05T07:00:28Z</time>
      </trkpt>
      <trkpt lat="45.70742" lon="4.67857">
        <ele>356.524811</ele>
        <time>2016-06-05T07:00:30Z</time>
      </trkpt>
      <trkpt lat="45.70751" lon="4.67858">
        <ele>356.359528</ele>
        <time>2016-06-05T07:00:32Z</time>
      </trkpt>
      <trkpt lat="45.70761" lon="4.6786">
        <ele>355.994537</ele>
        <time>2016-06-05T07:00:34Z</time>
      </trkpt>
      <trkpt lat="45.70771" lon="4.6786">
        <ele>355.936707</ele>
        <time>2016-06-05T07:00:36Z</time>
      </trkpt>
      <trkpt lat="45.70781" lon="4.67861">
        <ele>355.798828</ele>
        <time>2016-06-05T07:00:38Z</time>
      </trkpt>
      <trkpt lat="45.70792" lon="4.67862">
        <ele>355.519684</ele>
        <time>2016-06-05T07:00:40Z</time>
      </trkpt>
      <trkpt lat="45.70803" lon="4.67862">
        <ele>355.320129</ele>
        <time>2016-06-05T07:00:42Z</time>
      </trkpt>
      <trkpt lat="45.70816" lon="4.67862">
        <ele>354.824219</ele>
        <time>2016-06-05T07:00:44Z</time>
      </trkpt>
      <trkpt lat="45.70829" lon="4.67862">
        <ele>354.59137</ele>
        <time>2016-06-05T07:00:46Z</time>
      </trkpt>
      <trkpt lat="45.70842" lon="4.67862">
        <ele>354.11908</ele>
        <time>2016-06-05T07:00:48Z</time>
      </trkpt>
      <trkpt lat="45.70857" lon="4.67862">
        <ele>353.614563</ele>
        <time>2016-06-05T07:00:50Z</time>
      </trkpt>
      <trkpt lat="45.70871" lon="4.67862">
        <ele>353.219391</ele>
        <time>2016-06-05T07:00:52Z</time>
      </trkpt>
      <trkpt lat="45.70885" lon="4.67864">
        <ele>352.88678</ele>
        <time>2016-06-05T07:00:54Z</time>
      </trkpt>
      <trkpt lat="45.709" lon="4.6787">
        <ele>352.848175</ele>
        <time>2016-06-05T07:00:56Z</time>
      </trkpt>
      <trkpt lat="45.70915" lon="4.67877">
        <ele>352.536926</ele>
        <time>2016-06-05T07:00:58Z</time>
      </trkpt>
      <trkpt lat="45.70928" lon="4.67883">
        <ele>352.523834</ele>
        <time>2016-06-05T07:01:00Z</time>
      </trkpt>
      <trkpt lat="45.70942" lon="4.67886">
        <ele>351.910126</ele>
        <time>2016-06-05T07:01:02Z</time>
      </trkpt>
      <trkpt lat="45.70954" lon="4.67888">
        <ele>351.36731</ele>
        <time>2016-06-05T07:01:04Z</time>
      </trkpt>
      <trkpt lat="45.70966" lon="4.67888">
        <ele>350.915619</ele>
        <time>2016-06-05T07:01:06Z</time>
      </trkpt>
      <trkpt lat="45.70976" lon="4.67886">
        <ele>350.666779</ele>
        <time>2016-06-05T07:01:08Z</time>
      </trkpt>
      <trkpt lat="45.70985" lon="4.67883">
        <ele>350.460724</ele>
        <time>2016-06-05T07:01:10Z</time>
      </trkpt>
      <trkpt lat="45.70993" lon="4.67881">
        <ele>350.413483</ele>
        <time>2016-06-05T07:01:12Z</time>
      </trkpt>
      <trkpt lat="45.71001" lon="4.67879">
        <ele>350.324585</ele>
        <time>2016-06-05T07:01:14Z</time>
      </trkpt>
      <trkpt lat="45.71004" lon="4.67873">
        <ele>350.513489</ele>
        <time>2016-06-05T07:01:16Z</time>
      </trkpt>
      <trkpt lat="45.71003" lon="4.67865">
        <ele>350.592773</ele>
        <time>2016-06-05T07:01:18Z</time>
      </trkpt>
      <trkpt lat="45.71002" lon="4.67856">
        <ele>350.468719</ele>
        <time>2016-06-05T07:01:20Z</time>
      </trkpt>
      <trkpt lat="45.71001" lon="4.67848">
        <ele>350.361267</ele>
        <time>2016-06-05T07:01:22Z</time>
      </trkpt>
      <trkpt lat="45.71001" lon="4.67839">
        <ele>350.541595</ele>
        <time>2016-06-05T07:01:24Z</time>
      </trkpt>
      <trkpt lat="45.71001" lon="4.67831">
        <ele>350.626617</ele>
        <time>2016-06-05T07:01:26Z</time>
      </trkpt>
      <trkpt lat="45.71001" lon="4.67822">
        <ele>350.758057</ele>
        <time>2016-06-05T07:01:28Z</time>
      </trkpt>
      <trkpt lat="45.71001" lon="4.67813">
        <ele>351.019928</ele>
        <time>2016-06-05T07:01:30Z</time>
      </trkpt>
      <trkpt lat="45.71" lon="4.67805">
        <ele>351.122955</ele>
        <time>2016-06-05T07:01:32Z</time>
      </trkpt>
      <trkpt lat="45.71001" lon="4.67796">
        <ele>351.397705</ele>
        <time>2016-06-05T07:01:34Z</time>
      </trkpt>
      <trkpt lat="45.71001" lon="4.67788">
        <ele>351.726044</ele>
        <time>2016-06-05T07:01:36Z</time>
      </trkpt>
      <trkpt lat="45.71002" lon="4.6778">
        <ele>351.867737</ele>
        <time>2016-06-05T07:01:38Z</time>
      </trkpt>
      <trkpt lat="45.71003" lon="4.67772">
        <ele>352.015839</ele>
        <time>2016-06-05T07:01:40Z</time>
      </trkpt>
      <trkpt lat="45.71003" lon="4.67765">
        <ele>352.344299</ele>
        <time>2016-06-05T07:01:42Z</time>
      </trkpt>
      <trkpt lat="45.71002" lon="4.67757">
        <ele>352.919373</ele>
        <time>2016-06-05T07:01:44Z</time>
      </trkpt>
      <trkpt lat="45.71001" lon="4.6775">
        <ele>353.698364</ele>
        <time>2016-06-05T07:01:46Z</time>
      </trkpt>
      <trkpt lat="45.70999" lon="4.67742">
        <ele>354.286438</ele>
        <time>2016-06-05T07:01:48Z</time>
      </trkpt>
      <trkpt lat="45.70997" lon="4.67736">
        <ele>354.825165</ele>
        <time>2016-06-05T07:01:50Z</time>
      </trkpt>
      <trkpt lat="45.70994" lon="4.67729">
        <ele>355.194397</ele>
        <time>2016-06-05T07:01:52Z</time>
      </trkpt>
      <trkpt lat="45.70992" lon="4.67723">
        <ele>355.583923</ele>
        <time>2016-06-05T07:01:54Z</time>
      </trkpt>
      <trkpt lat="45.7099" lon="4.67715">
        <ele>355.671936</ele>
        <time>2016-06-05T07:01:56Z</time>
      </trkpt>
      <trkpt lat="45.70989" lon="4.67707">
        <ele>355.815826</ele>
        <time>2016-06-05T07:01:58Z</time>
      </trkpt>
      <trkpt lat="45.70988" lon="4.677">
        <ele>356.108337</ele>
        <time>2016-06-05T07:02:00Z</time>
      </trkpt>
      <trkpt lat="45.70987" lon="4.67693">
        <ele>356.576385</ele>
        <time>2016-06-05T07:02:02Z</time>
      </trkpt>
      <trkpt lat="45.70986" lon="4.67685">
        <ele>356.769684</ele>
        <time>2016-06-05T07:02:04Z</time>
      </trkpt>
      <trkpt lat="45.70984" lon="4.67678">
        <ele>357.169922</ele>
        <time>2016-06-05T07:02:06Z</time>
      </trkpt>
      <trkpt lat="45.70983" lon="4.6767">
        <ele>357.824493</ele>
        <time>2016-06-05T07:02:08Z</time>
      </trkpt>
      <trkpt lat="45.70982" lon="4.67664">
        <ele>358.243195</ele>
        <time>2016-06-05T07:02:10Z</time>
      </trkpt>
      <trkpt lat="45.70981" lon="4.67657">
        <ele>358.408569</ele>
        <time>2016-06-05T07:02:12Z</time>
      </trkpt>
      <trkpt lat="45.70979" lon="4.6765">
        <ele>358.778351</ele>
        <time>2016-06-05T07:02:14Z</time>
      </trkpt>
      <trkpt lat="45.70977" lon="4.67644">
        <ele>359.14563</ele>
        <time>2016-06-05T07:02:16Z</time>
      </trkpt>
      <trkpt lat="45.70976" lon="4.67638">
        <ele>359.542938</ele>
        <time>2016-06-05T07:02:18Z</time>
      </trkpt>
      <trkpt lat="45.70974" lon="4.67633">
        <ele>360.061951</ele>
        <time>2016-06-05T07:02:20Z</time>
      </trkpt>
      <trkpt lat="45.70973" lon="4.67627">
        <ele>360.54303</ele>
        <time>2016-06-05T07:02:22Z</time>
      </trkpt>
      <trkpt lat="45.70972" lon="4.67621">
        <ele>360.747375</ele>
        <time>2016-06-05T07:02:24Z</time>
      </trkpt>
      <trkpt lat="45.70971" lon="4.67615">
        <ele>361.277893</ele>
        <time>2016-06-05T07:02:26Z</time>
      </trkpt>
      <trkpt lat="45.7097" lon="4.67609">
        <ele>361.572693</ele>
        <time>2016-06-05T07:02:28Z</time>
      </trkpt>
      <trkpt lat="45.70969" lon="4.67603">
        <ele>361.931458</ele>
        <time>2016-06-05T07:02:30Z</time>
      </trkpt>
      <trkpt lat="45.70968" lon="4.67597">
        <ele>362.331085</ele>
        <time>2016-06-05T07:02:32Z</time>
      </trkpt>
      <trkpt lat="45.70967" lon="4.67591">
        <ele>362.644806</ele>
        <time>2016-06-05T07:02:34Z</time>
      </trkpt>
      <trkpt lat="45.70966" lon="4.67585">
        <ele>363.130341</ele>
        <time>2016-06-05T07:02:36Z</time>
      </trkpt>
      <trkpt lat="45.70964" lon="4.67579">
        <ele>363.426819</ele>
        <time>2016-06-05T07:02:38Z</time>
      </trkpt>
      <trkpt lat="45.70963" lon="4.67573">
        <ele>363.778778</ele>
        <time>2016-06-05T07:02:40Z</time>
      </trkpt>
      <trkpt lat="45.70962" lon="4.67568">
        <ele>364.362488</ele>
        <time>2016-06-05T07:02:42Z</time>
      </trkpt>
      <trkpt lat="45.70961" lon="4.67562">
        <ele>364.7901</ele>
        <time>2016-06-05T07:02:44Z</time>
      </trkpt>
      <trkpt lat="45.7096" lon="4.67556">
        <ele>365.224182</ele>
        <time>2016-06-05T07:02:46Z</time>
      </trkpt>
      <trkpt lat="45.70958" lon="4.6755">
        <ele>365.611023</ele>
        <time>2016-06-05T07:02:48Z</time>
      </trkpt>
      <trkpt lat="45.70957" lon="4.67544">
        <ele>365.739929</ele>
        <time>2016-06-05T07:02:50Z</time>
      </trkpt>
      <trkpt lat="45.70956" lon="4.67538">
        <ele>366.088104</ele>
        <time>2016-06-05T07:02:52Z</time>
      </trkpt>
      <trkpt lat="45.70954" lon="4.67532">
        <ele>366.487854</ele>
        <time>2016-06-05T07:02:54Z</time>
      </trkpt>
      <trkpt lat="45.70953" lon="4.67526">
        <ele>366.943115</ele>
        <time>2016-06-05T07:02:56Z</time>
      </trkpt>
      <trkpt lat="45.70952" lon="4.67519">
        <ele>367.351501</ele>
        <time>2016-06-05T07:02:58Z</time>
      </trkpt>
      <trkpt lat="45.70951" lon="4.67513">
        <ele>367.788574</ele>
        <time>2016-06-05T07:03:00Z</time>
      </trkpt>
      <trkpt lat="45.70951" lon="4.67507">
        <ele>368.285156</ele>
        <time>2016-06-05T07:03:02Z</time>
      </trkpt>
      <trkpt lat="45.70951" lon="4.67501">
        <ele>368.749512</ele>
        <time>2016-06-05T07:03:04Z</time>
      </trkpt>
      <trkpt lat="45.70952" lon="4.67494">
        <ele>368.994324</ele>
        <time>2016-06-05T07:03:06Z</time>
      </trkpt>
      <trkpt lat="45.70953" lon="4.67487">
        <ele>369.37561</ele>
        <time>2016-06-05T07:03:08Z</time>
      </trkpt>
      <trkpt lat="45.70954" lon="4.67479">
        <ele>369.792236</ele>
        <time>2016-06-05T07:03:10Z</time>
      </trkpt>
      <trkpt lat="45.70955" lon="4.67472">
        <ele>370.181519</ele>
        <time>2016-06-05T07:03:12Z</time>
      </trkpt>
      <trkpt lat="45.70956" lon="4.67465">
        <ele>370.506165</ele>
        <time>2016-06-05T07:03:14Z</time>
      </trkpt>
      <trkpt lat="45.70957" lon="4.67458">
        <ele>370.878906</ele>
        <time>2016-06-05T07:03:16Z</time>
      </trkpt>
      <trkpt lat="45.70958" lon="4.67448">
        <ele>370.794922</ele>
        <time>2016-06-05T07:03:18Z</time>
      </trkpt>
      <trkpt lat="45.70958" lon="4.67438">
        <ele>371.20816</ele>
        <time>2016-06-05T07:03:20Z</time>
      </trkpt>
      <trkpt lat="45.70959" lon="4.67426">
        <ele>371.54837</ele>
        <time>2016-06-05T07:03:22Z</time>
      </trkpt>
      <trkpt lat="45.70959" lon="4.67414">
        <ele>371.69458</ele>
        <time>2016-06-05T07:03:24Z</time>
      </trkpt>
      <trkpt lat="45.7096" lon="4.674">
        <ele>371.869446</ele>
        <time>2016-06-05T07:03:26Z</time>
      </trkpt>
      <trkpt lat="45.70959" lon="4.67386">
        <ele>371.753387</ele>
        <time>2016-06-05T07:03:28Z</time>
      </trkpt>
      <trkpt lat="45.70956" lon="4.67372">
        <ele>371.996399</ele>
        <time>2016-06-05T07:03:30Z</time>
      </trkpt>
      <trkpt lat="45.70952" lon="4.6736">
        <ele>372.12326</ele>
        <time>2016-06-05T07:03:32Z</time>
      </trkpt>
      <trkpt lat="45.70948" lon="4.67348">
        <ele>372.282349</ele>
        <time>2016-06-05T07:03:34Z</time>
      </trkpt>
      <trkpt lat="45.70943" lon="4.67338">
        <ele>372.252258</ele>
        <time>2016-06-05T07:03:36Z</time>
      </trkpt>
      <trkpt lat="45.70938" lon="4.67329">
        <ele>372.329681</ele>
        <time>2016-06-05T07:03:38Z</time>
      </trkpt>
      <trkpt lat="45.70934" lon="4.67319">
        <ele>372.351166</ele>
        <time>2016-06-05T07:03:40Z</time>
      </trkpt>
      <trkpt lat="45.70929" lon="4.6731">
        <ele>372.428619</ele>
        <time>2016-06-05T07:03:42Z</time>
      </trkpt>
      <trkpt lat="45.70925" lon="4.673">
        <ele>372.220032</ele>
        <time>2016-06-05T07:03:44Z</time>
      </trkpt>
      <trkpt lat="45.70921" lon="4.6729">
        <ele>372.073822</ele>
        <time>2016-06-05T07:03:46Z</time>
      </trkpt>
      <trkpt lat="45.70916" lon="4.67281">
        <ele>372.148376</ele>
        <time>2016-06-05T07:03:48Z</time>
      </trkpt>
      <trkpt lat="45.70913" lon="4.67272">
        <ele>372.113983</ele>
        <time>2016-06-05T07:03:50Z</time>
      </trkpt>
      <trkpt lat="45.7091" lon="4.67263">
        <ele>372.172058</ele>
        <time>2016-06-05T07:03:52Z</time>
      </trkpt>
      <trkpt lat="45.70908" lon="4.67254">
        <ele>372.284149</ele>
        <time>2016-06-05T07:03:54Z</time>
      </trkpt>
      <trkpt lat="45.70906" lon="4.67244">
        <ele>372.285522</ele>
        <time>2016-06-05T07:03:56Z</time>
      </trkpt>
      <trkpt lat="45.70904" lon="4.67234">
        <ele>372.738983</ele>
        <time>2016-06-05T07:03:58Z</time>
      </trkpt>
      <trkpt lat="45.70903" lon="4.67224">
        <ele>372.670532</ele>
        <time>2016-06-05T07:04:00Z</time>
      </trkpt>
      <trkpt lat="45.70902" lon="4.67214">
        <ele>372.823303</ele>
        <time>2016-06-05T07:04:02Z</time>
      </trkpt>
      <trkpt lat="45.70902" lon="4.67205">
        <ele>372.812286</ele>
        <time>2016-06-05T07:04:04Z</time>
      </trkpt>
      <trkpt lat="45.709" lon="4.67197">
        <ele>372.927612</ele>
        <time>2016-06-05T07:04:06Z</time>
      </trkpt>
      <trkpt lat="45.70899" lon="4.67188">
        <ele>373.01947</ele>
        <time>2016-06-05T07:04:08Z</time>
      </trkpt>
      <trkpt lat="45.70898" lon="4.67181">
        <ele>373.378479</ele>
        <time>2016-06-05T07:04:10Z</time>
      </trkpt>
      <trkpt lat="45.709" lon="4.67175">
        <ele>373.458435</ele>
        <time>2016-06-05T07:04:12Z</time>
      </trkpt>
      <trkpt lat="45.70905" lon="4.67173">
        <ele>373.462738</ele>
        <time>2016-06-05T07:04:14Z</time>
      </trkpt>
      <trkpt lat="45.70911" lon="4.67169">
        <ele>373.533722</ele>
        <time>2016-06-05T07:04:16Z</time>
      </trkpt>
      <trkpt lat="45.70919" lon="4.67165">
        <ele>373.703003</ele>
        <time>2016-06-05T07:04:18Z</time>
      </trkpt>
      <trkpt lat="45.70928" lon="4.67162">
        <ele>373.65274</ele>
        <time>2016-06-05T07:04:20Z</time>
      </trkpt>
      <trkpt lat="45.70939" lon="4.67157">
        <ele>373.663483</ele>
        <time>2016-06-05T07:04:22Z</time>
      </trkpt>
      <trkpt lat="45.7095" lon="4.67153">
        <ele>373.407654</ele>
        <time>2016-06-05T07:04:24Z</time>
      </trkpt>
      <trkpt lat="45.70961" lon="4.67149">
        <ele>373.414124</ele>
        <time>2016-06-05T07:04:26Z</time>
      </trkpt>
      <trkpt lat="45.70971" lon="4.67145">
        <ele>373.089355</ele>
        <time>2016-06-05T07:04:28Z</time>
      </trkpt>
      <trkpt lat="45.70975" lon="4.67137">
        <ele>372.94101</ele>
        <time>2016-06-05T07:04:30Z</time>
      </trkpt>
      <trkpt lat="45.70974" lon="4.6713">
        <ele>372.766785</ele>
        <time>2016-06-05T07:04:32Z</time>
      </trkpt>
      <trkpt lat="45.7097" lon="4.67125">
        <ele>372.721252</ele>
        <time>2016-06-05T07:04:34Z</time>
      </trkpt>
      <trkpt lat="45.70966" lon="4.6712">
        <ele>372.695465</ele>
        <time>2016-06-05T07:04:36Z</time>
      </trkpt>
      <trkpt lat="45.70963" lon="4.67114">
        <ele>372.559357</ele>
        <time>2016-06-05T07:04:38Z</time>
      </trkpt>
      <trkpt lat="45.7096" lon="4.67108">
        <ele>372.449646</ele>
        <time>2016-06-05T07:04:40Z</time>
      </trkpt>
      <trkpt lat="45.70958" lon="4.67102">
        <ele>372.305573</ele>
        <time>2016-06-05T07:04:42Z</time>
      </trkpt>
      <trkpt lat="45.70956" lon="4.67097">
        <ele>372.065033</ele>
        <time>2016-06-05T07:04:44Z</time>
      </trkpt>
      <trkpt lat="45.70953" lon="4.67092">
        <ele>372.104584</ele>
        <time>2016-06-05T07:04:46Z</time>
      </trkpt>
      <trkpt lat="45.70952" lon="4.67088">
        <ele>372.059387</ele>
        <time>2016-06-05T07:04:48Z</time>
      </trkpt>
      <trkpt lat="45.7095" lon="4.67084">
        <ele>372.080872</ele>
        <time>2016-06-05T07:04:50Z</time>
      </trkpt>
      <trkpt lat="45.70947" lon="4.6708">
        <ele>372.071899</ele>
        <time>2016-06-05T07:04:52Z</time>
      </trkpt>
      <trkpt lat="45.70946" lon="4.67076">
        <ele>372.142883</ele>
        <time>2016-06-05T07:04:54Z</time>
      </trkpt>
      <trkpt lat="45.70945" lon="4.67072">
        <ele>372.347229</ele>
        <time>2016-06-05T07:04:56Z</time>
      </trkpt>
      <trkpt lat="45.70944" lon="4.67067">
        <ele>372.439728</ele>
        <time>2016-06-05T07:04:58Z</time>
      </trkpt>
      <trkpt lat="45.70942" lon="4.67063">
        <ele>372.556458</ele>
        <time>2016-06-05T07:05:00Z</time>
      </trkpt>
      <trkpt lat="45.7094" lon="4.6706">
        <ele>372.823975</ele>
        <time>2016-06-05T07:05:02Z</time>
      </trkpt>
      <trkpt lat="45.70937" lon="4.67055">
        <ele>373.04718</ele>
        <time>2016-06-05T07:05:04Z</time>
      </trkpt>
      <trkpt lat="45.70935" lon="4.67051">
        <ele>373.548248</ele>
        <time>2016-06-05T07:05:06Z</time>
      </trkpt>
      <trkpt lat="45.70933" lon="4.67046">
        <ele>374.085876</ele>
        <time>2016-06-05T07:05:08Z</time>
      </trkpt>
      <trkpt lat="45.70931" lon="4.67042">
        <ele>374.556946</ele>
        <time>2016-06-05T07:05:10Z</time>
      </trkpt>
      <trkpt lat="45.70929" lon="4.67037">
        <ele>375.114014</ele>
        <time>2016-06-05T07:05:12Z</time>
      </trkpt>
      <trkpt lat="45.70927" lon="4.67033">
        <ele>375.546448</ele>
        <time>2016-06-05T07:05:14Z</time>
      </trkpt>
      <trkpt lat="45.70925" lon="4.67028">
        <ele>375.94223</ele>
        <time>2016-06-05T07:05:16Z</time>
      </trkpt>
      <trkpt lat="45.70923" lon="4.67023">
        <ele>376.330078</ele>
        <time>2016-06-05T07:05:18Z</time>
      </trkpt>
      <trkpt lat="45.70921" lon="4.67018">
        <ele>376.814148</ele>
        <time>2016-06-05T07:05:20Z</time>
      </trkpt>
      <trkpt lat="45.70919" lon="4.67014">
        <ele>377.298462</ele>
        <time>2016-06-05T07:05:22Z</time>
      </trkpt>
      <trkpt lat="45.70918" lon="4.67009">
        <ele>377.926727</ele>
        <time>2016-06-05T07:05:24Z</time>
      </trkpt>
      <trkpt lat="45.70916" lon="4.67005">
        <ele>378.322235</ele>
        <time>2016-06-05T07:05:26Z</time>
      </trkpt>
      <trkpt lat="45.70915" lon="4.67">
        <ele>378.546082</ele>
        <time>2016-06-05T07:05:28Z</time>
      </trkpt>
      <trkpt lat="45.70913" lon="4.66996">
        <ele>378.933411</ele>
        <time>2016-06-05T07:05:30Z</time>
      </trkpt>
      <trkpt lat="45.70912" lon="4.66991">
        <ele>379.344421</ele>
        <time>2016-06-05T07:05:32Z</time>
      </trkpt>
      <trkpt lat="45.70911" lon="4.66987">
        <ele>379.770508</ele>
        <time>2016-06-05T07:05:34Z</time>
      </trkpt>
      <trkpt lat="45.7091" lon="4.66982">
        <ele>380.183746</ele>
        <time>2016-06-05T07:05:36Z</time>
      </trkpt>
      <trkpt lat="45.70909" lon="4.66978">
        <ele>380.663727</ele>
        <time>2016-06-05T07:05:38Z</time>
      </trkpt>
      <trkpt lat="45.70908" lon="4.66973">
        <ele>381.094177</ele>
        <time>2016-06-05T07:05:40Z</time>
      </trkpt>
      <trkpt lat="45.70907" lon="4.66969">
        <ele>381.520325</ele>
        <time>2016-06-05T07:05:42Z</time>
      </trkpt>
      <trkpt lat="45.70905" lon="4.66964">
        <ele>381.959259</ele>
        <time>2016-06-05T07:05:44Z</time>
      </trkpt>
      <trkpt lat="45.70904" lon="4.66959">
        <ele>382.48877</ele>
        <time>2016-06-05T07:05:46Z</time>
      </trkpt>
      <trkpt lat="45.70903" lon="4.66954">
        <ele>382.904236</ele>
        <time>2016-06-05T07:05:48Z</time>
      </trkpt>
      <trkpt lat="45.70902" lon="4.6695">
        <ele>383.319702</ele>
        <time>2016-06-05T07:05:50Z</time>
      </trkpt>
      <trkpt lat="45.709" lon="4.66945">
        <ele>383.763153</ele>
        <time>2016-06-05T07:05:52Z</time>
      </trkpt>
      <trkpt lat="45.70898" lon="4.66941">
        <ele>383.969849</ele>
        <time>2016-06-05T07:05:54Z</time>
      </trkpt>
      <trkpt lat="45.70897" lon="4.66936">
        <ele>384.277863</ele>
        <time>2016-06-05T07:05:56Z</time>
      </trkpt>
      <trkpt lat="45.70896" lon="4.66931">
        <ele>384.708435</ele>
        <time>2016-06-05T07:05:58Z</time>
      </trkpt>
      <trkpt lat="45.70895" lon="4.66926">
        <ele>385.067963</ele>
        <time>2016-06-05T07:06:00Z</time>
      </trkpt>
      <trkpt lat="45.70894" lon="4.66921">
        <ele>385.431885</ele>
        <time>2016-06-05T07:06:02Z</time>
      </trkpt>
      <trkpt lat="45.70893" lon="4.66916">
        <ele>385.819275</ele>
        <time>2016-06-05T07:06:04Z</time>
      </trkpt>
      <trkpt lat="45.70892" lon="4.66911">
        <ele>386.140137</ele>
        <time>2016-06-05T07:06:06Z</time>
      </trkpt>
      <trkpt lat="45.70892" lon="4.66905">
        <ele>386.563232</ele>
        <time>2016-06-05T07:06:08Z</time>
      </trkpt>
      <trkpt lat="45.7089" lon="4.669">
        <ele>386.881958</ele>
        <time>2016-06-05T07:06:10Z</time>
      </trkpt>
      <trkpt lat="45.70889" lon="4.66895">
        <ele>387.360107</ele>
        <time>2016-06-05T07:06:12Z</time>
      </trkpt>
      <trkpt lat="45.70889" lon="4.6689">
        <ele>387.728363</ele>
        <time>2016-06-05T07:06:14Z</time>
      </trkpt>
      <trkpt lat="45.70888" lon="4.66885">
        <ele>388.271088</ele>
        <time>2016-06-05T07:06:16Z</time>
      </trkpt>
      <trkpt lat="45.70886" lon="4.6688">
        <ele>388.512329</ele>
        <time>2016-06-05T07:06:18Z</time>
      </trkpt>
      <trkpt lat="45.70885" lon="4.66875">
        <ele>388.803223</ele>
        <time>2016-06-05T07:06:20Z</time>
      </trkpt>
      <trkpt lat="45.70883" lon="4.66871">
        <ele>389.027222</ele>
        <time>2016-06-05T07:06:22Z</time>
      </trkpt>
      <trkpt lat="45.70882" lon="4.66866">
        <ele>389.354614</ele>
        <time>2016-06-05T07:06:24Z</time>
      </trkpt>
      <trkpt lat="45.70881" lon="4.66862">
        <ele>389.71933</ele>
        <time>2016-06-05T07:06:26Z</time>
      </trkpt>
      <trkpt lat="45.70879" lon="4.66858">
        <ele>390.065338</ele>
        <time>2016-06-05T07:06:28Z</time>
      </trkpt>
      <trkpt lat="45.70878" lon="4.66854">
        <ele>390.414978</ele>
        <time>2016-06-05T07:06:30Z</time>
      </trkpt>
      <trkpt lat="45.70876" lon="4.66851">
        <ele>390.755371</ele>
        <time>2016-06-05T07:06:32Z</time>
      </trkpt>
      <trkpt lat="45.70874" lon="4.66847">
        <ele>391.048462</ele>
        <time>2016-06-05T07:06:34Z</time>
      </trkpt>
      <trkpt lat="45.70872" lon="4.66843">
        <ele>391.464294</ele>
        <time>2016-06-05T07:06:36Z</time>
      </trkpt>
      <trkpt lat="45.70869" lon="4.6684">
        <ele>391.817444</ele>
        <time>2016-06-05T07:06:38Z</time>
      </trkpt>
      <trkpt lat="45.70867" lon="4.66838">
        <ele>392.179382</ele>
        <time>2016-06-05T07:06:40Z</time>
      </trkpt>
      <trkpt lat="45.70865" lon="4.66835">
        <ele>392.56076</ele>
        <time>2016-06-05T07:06:42Z</time>
      </trkpt>
      <trkpt lat="45.70861" lon="4.66833">
        <ele>392.86673</ele>
        <time>2016-06-05T07:06:44Z</time>
      </trkpt>
      <trkpt lat="45.70858" lon="4.66831">
        <ele>393.166229</ele>
        <time>2016-06-05T07:06:46Z</time>
      </trkpt>
      <trkpt lat="45.70855" lon="4.66829">
        <ele>393.49469</ele>
        <time>2016-06-05T07:06:48Z</time>
      </trkpt>
      <trkpt lat="45.70852" lon="4.66827">
        <ele>393.877228</ele>
        <time>2016-06-05T07:06:50Z</time>
      </trkpt>
      <trkpt lat="45.70849" lon="4.66825">
        <ele>394.08197</ele>
        <time>2016-06-05T07:06:52Z</time>
      </trkpt>
      <trkpt lat="45.70846" lon="4.66823">
        <ele>394.336304</ele>
        <time>2016-06-05T07:06:54Z</time>
      </trkpt>
      <trkpt lat="45.70843" lon="4.66822">
        <ele>394.674377</ele>
        <time>2016-06-05T07:06:56Z</time>
      </trkpt>
      <trkpt lat="45.7084" lon="4.6682">
        <ele>394.991211</ele>
        <time>2016-06-05T07:06:58Z</time>
      </trkpt>
      <trkpt lat="45.70837" lon="4.66818">
        <ele>395.37915</ele>
        <time>2016-06-05T07:07:00Z</time>
      </trkpt>
      <trkpt lat="45.70834" lon="4.66815">
        <ele>395.723907</ele>
        <time>2016-06-05T07:07:02Z</time>
      </trkpt>
      <trkpt lat="45.70831" lon="4.66813">
        <ele>396.122772</ele>
        <time>2016-06-05T07:07:04Z</time>
      </trkpt>
      <trkpt lat="45.70828" lon="4.66811">
        <ele>396.534485</ele>
        <time>2016-06-05T07:07:06Z</time>
      </trkpt>
      <trkpt lat="45.70824" lon="4.66809">
        <ele>396.907959</ele>
        <time>2016-06-05T07:07:08Z</time>
      </trkpt>
      <trkpt lat="45.70822" lon="4.66806">
        <ele>397.181763</ele>
        <time>2016-06-05T07:07:10Z</time>
      </trkpt>
      <trkpt lat="45.70819" lon="4.66804">
        <ele>397.615082</ele>
        <time>2016-06-05T07:07:12Z</time>
      </trkpt>
      <trkpt lat="45.70816" lon="4.66801">
        <ele>398.115295</ele>
        <time>2016-06-05T07:07:14Z</time>
      </trkpt>
      <trkpt lat="45.70816" lon="4.66797">
        <ele>398.488037</ele>
        <time>2016-06-05T07:07:16Z</time>
      </trkpt>
      <trkpt lat="45.70818" lon="4.66795">
        <ele>398.92572</ele>
        <time>2016-06-05T07:07:18Z</time>
      </trkpt>
      <trkpt lat="45.70821" lon="4.66793">
        <ele>399.294403</ele>
        <time>2016-06-05T07:07:20Z</time>
      </trkpt>
      <trkpt lat="45.70825" lon="4.6679">
        <ele>399.542389</ele>
        <time>2016-06-05T07:07:22Z</time>
      </trkpt>
      <trkpt lat="45.70829" lon="4.66788">
        <ele>399.90033</ele>
        <time>2016-06-05T07:07:24Z</time>
      </trkpt>
      <trkpt lat="45.70832" lon="4.66784">
        <ele>400.34668</ele>
        <time>2016-06-05T07:07:26Z</time>
      </trkpt>
      <trkpt lat="45.70836" lon="4.66781">
        <ele>400.780121</ele>
        <time>2016-06-05T07:07:28Z</time>
      </trkpt>
      <trkpt lat="45.70839" lon="4.66778">
        <ele>401.12854</ele>
        <time>2016-06-05T07:07:30Z</time>
      </trkpt>
      <trkpt lat="45.70844" lon="4.66774">
        <ele>401.426117</ele>
        <time>2016-06-05T07:07:32Z</time>
      </trkpt>
      <trkpt lat="45.70849" lon="4.6677">
        <ele>401.728027</ele>
        <time>2016-06-05T07:07:34Z</time>
      </trkpt>
      <trkpt lat="45.70853" lon="4.66766">
        <ele>402.069061</ele>
        <time>2016-06-05T07:07:36Z</time>
      </trkpt>
      <trkpt lat="45.70858" lon="4.66762">
        <ele>402.304138</ele>
        <time>2016-06-05T07:07:38Z</time>
      </trkpt>
      <trkpt lat="45.70862" lon="4.66758">
        <ele>402.568237</ele>
        <time>2016-06-05T07:07:40Z</time>
      </trkpt>
      <trkpt lat="45.70866" lon="4.66754">
        <ele>402.867981</ele>
        <time>2016-06-05T07:07:42Z</time>
      </trkpt>
      <trkpt lat="45.70871" lon="4.6675">
        <ele>403.092316</ele>
        <time>2016-06-05T07:07:44Z</time>
      </trkpt>
      <trkpt lat="45.70876" lon="4.66745">
        <ele>403.439453</ele>
        <time>2016-06-05T07:07:46Z</time>
      </trkpt>
      <trkpt lat="45.70881" lon="4.66741">
        <ele>403.702881</ele>
        <time>2016-06-05T07:07:48Z</time>
      </trkpt>
      <trkpt lat="45.70886" lon="4.66737">
        <ele>403.885315</ele>
        <time>2016-06-05T07:07:50Z</time>
      </trkpt>
      <trkpt lat="45.70892" lon="4.66734">
        <ele>404.081604</ele>
        <time>2016-06-05T07:07:52Z</time>
      </trkpt>
      <trkpt lat="45.70897" lon="4.66731">
        <ele>404.11615</ele>
        <time>2016-06-05T07:07:54Z</time>
      </trkpt>
      <trkpt lat="45.70903" lon="4.66726">
        <ele>404.204559</ele>
        <time>2016-06-05T07:07:56Z</time>
      </trkpt>
      <trkpt lat="45.70908" lon="4.66722">
        <ele>404.362213</ele>
        <time>2016-06-05T07:07:58Z</time>
      </trkpt>
      <trkpt lat="45.70914" lon="4.66719">
        <ele>404.342804</ele>
        <time>2016-06-05T07:08:00Z</time>
      </trkpt>
      <trkpt lat="45.70919" lon="4.66715">
        <ele>404.422638</ele>
        <time>2016-06-05T07:08:02Z</time>
      </trkpt>
      <trkpt lat="45.70925" lon="4.66711">
        <ele>404.43988</ele>
        <time>2016-06-05T07:08:04Z</time>
      </trkpt>
      <trkpt lat="45.70931" lon="4.66707">
        <ele>404.489471</ele>
        <time>2016-06-05T07:08:06Z</time>
      </trkpt>
      <trkpt lat="45.70937" lon="4.66703">
        <ele>404.828217</ele>
        <time>2016-06-05T07:08:08Z</time>
      </trkpt>
      <trkpt lat="45.70943" lon="4.66698">
        <ele>404.972809</ele>
        <time>2016-06-05T07:08:10Z</time>
      </trkpt>
      <trkpt lat="45.70949" lon="4.66694">
        <ele>405.130249</ele>
        <time>2016-06-05T07:08:12Z</time>
      </trkpt>
      <trkpt lat="45.70955" lon="4.6669">
        <ele>405.337341</ele>
        <time>2016-06-05T07:08:14Z</time>
      </trkpt>
      <trkpt lat="45.70961" lon="4.66686">
        <ele>405.501312</ele>
        <time>2016-06-05T07:08:16Z</time>
      </trkpt>
      <trkpt lat="45.70967" lon="4.66681">
        <ele>405.684692</ele>
        <time>2016-06-05T07:08:18Z</time>
      </trkpt>
      <trkpt lat="45.70973" lon="4.66677">
        <ele>405.794708</ele>
        <time>2016-06-05T07:08:20Z</time>
      </trkpt>
      <trkpt lat="45.70978" lon="4.66672">
        <ele>406.013824</ele>
        <time>2016-06-05T07:08:22Z</time>
      </trkpt>
      <trkpt lat="45.70984" lon="4.66669">
        <ele>406.282135</ele>
        <time>2016-06-05T07:08:24Z</time>
      </trkpt>
      <trkpt lat="45.7099" lon="4.66667">
        <ele>406.554016</ele>
        <time>2016-06-05T07:08:26Z</time>
      </trkpt>
      <trkpt lat="45.70998" lon="4.66667">
        <ele>406.74823</ele>
        <time>2016-06-05T07:08:28Z</time>
      </trkpt>
      <trkpt lat="45.71005" lon="4.66668">
        <ele>406.948486</ele>
        <time>2016-06-05T07:08:30Z</time>
      </trkpt>
      <trkpt lat="45.71012" lon="4.66668">
        <ele>407.203278</ele>
        <time>2016-06-05T07:08:32Z</time>
      </trkpt>
      <trkpt lat="45.71018" lon="4.66666">
        <ele>407.42981</ele>
        <time>2016-06-05T07:08:34Z</time>
      </trkpt>
      <trkpt lat="45.71022" lon="4.66663">
        <ele>407.86145</ele>
        <time>2016-06-05T07:08:36Z</time>
      </trkpt>
      <trkpt lat="45.71026" lon="4.66658">
        <ele>408.129059</ele>
        <time>2016-06-05T07:08:38Z</time>
      </trkpt>
      <trkpt lat="45.7103" lon="4.66655">
        <ele>408.608124</ele>
        <time>2016-06-05T07:08:40Z</time>
      </trkpt>
      <trkpt lat="45.71035" lon="4.66652">
        <ele>408.96698</ele>
        <time>2016-06-05T07:08:42Z</time>
      </trkpt>
      <trkpt lat="45.71039" lon="4.6665">
        <ele>409.275574</ele>
        <time>2016-06-05T07:08:44Z</time>
      </trkpt>
      <trkpt lat="45.71043" lon="4.66649">
        <ele>409.761169</ele>
        <time>2016-06-05T07:08:46Z</time>
      </trkpt>
      <trkpt lat="45.71048" lon="4.66648">
        <ele>409.922516</ele>
        <time>2016-06-05T07:08:48Z</time>
      </trkpt>
      <trkpt lat="45.71053" lon="4.66649">
        <ele>410.079041</ele>
        <time>2016-06-05T07:08:50Z</time>
      </trkpt>
      <trkpt lat="45.71058" lon="4.66651">
        <ele>410.403503</ele>
        <time>2016-06-05T07:08:52Z</time>
      </trkpt>
      <trkpt lat="45.71062" lon="4.66652">
        <ele>410.774811</ele>
        <time>2016-06-05T07:08:54Z</time>
      </trkpt>
      <trkpt lat="45.71067" lon="4.66652">
        <ele>411.176331</ele>
        <time>2016-06-05T07:08:56Z</time>
      </trkpt>
      <trkpt lat="45.71073" lon="4.66653">
        <ele>411.510895</ele>
        <time>2016-06-05T07:08:58Z</time>
      </trkpt>
      <trkpt lat="45.71079" lon="4.66653">
        <ele>411.934082</ele>
        <time>2016-06-05T07:09:00Z</time>
      </trkpt>
      <trkpt lat="45.71084" lon="4.66653">
        <ele>412.307526</ele>
        <time>2016-06-05T07:09:02Z</time>
      </trkpt>
      <trkpt lat="45.71089" lon="4.66653">
        <ele>412.631409</ele>
        <time>2016-06-05T07:09:04Z</time>
      </trkpt>
      <trkpt lat="45.71094" lon="4.66653">
        <ele>412.996246</ele>
        <time>2016-06-05T07:09:06Z</time>
      </trkpt>
      <trkpt lat="45.711" lon="4.66653">
        <ele>413.337402</ele>
        <time>2016-06-05T07:09:08Z</time>
      </trkpt>
      <trkpt lat="45.71105" lon="4.66653">
        <ele>413.708679</ele>
        <time>2016-06-05T07:09:10Z</time>
      </trkpt>
      <trkpt lat="45.71111" lon="4.66654">
        <ele>414.082672</ele>
        <time>2016-06-05T07:09:12Z</time>
      </trkpt>
      <trkpt lat="45.71116" lon="4.66653">
        <ele>414.514557</ele>
        <time>2016-06-05T07:09:14Z</time>
      </trkpt>
      <trkpt lat="45.71121" lon="4.66653">
        <ele>414.633301</ele>
        <time>2016-06-05T07:09:16Z</time>
      </trkpt>
      <trkpt lat="45.71127" lon="4.66652">
        <ele>414.894592</ele>
        <time>2016-06-05T07:09:18Z</time>
      </trkpt>
      <trkpt lat="45.71133" lon="4.66651">
        <ele>415.283264</ele>
        <time>2016-06-05T07:09:20Z</time>
      </trkpt>
      <trkpt lat="45.71139" lon="4.6665">
        <ele>415.527283</ele>
        <time>2016-06-05T07:09:22Z</time>
      </trkpt>
      <trkpt lat="45.71145" lon="4.66648">
        <ele>415.792236</ele>
        <time>2016-06-05T07:09:24Z</time>
      </trkpt>
      <trkpt lat="45.71151" lon="4.66646">
        <ele>416.209045</ele>
        <time>2016-06-05T07:09:26Z</time>
      </trkpt>
      <trkpt lat="45.71156" lon="4.66643">
        <ele>416.496277</ele>
        <time>2016-06-05T07:09:28Z</time>
      </trkpt>
      <trkpt lat="45.71162" lon="4.6664">
        <ele>416.788391</ele>
        <time>2016-06-05T07:09:30Z</time>
      </trkpt>
      <trkpt lat="45.71168" lon="4.66638">
        <ele>417.013275</ele>
        <time>2016-06-05T07:09:32Z</time>
      </trkpt>
      <trkpt lat="45.71174" lon="4.66634">
        <ele>417.276794</ele>
        <time>2016-06-05T07:09:34Z</time>
      </trkpt>
      <trkpt lat="45.71178" lon="4.6663">
        <ele>417.504547</ele>
        <time>2016-06-05T07:09:36Z</time>
      </trkpt>
      <trkpt lat="45.71184" lon="4.66627">
        <ele>417.816711</ele>
        <time>2016-06-05T07:09:38Z</time>
      </trkpt>
      <trkpt lat="45.7119" lon="4.66624">
        <ele>418.039154</ele>
        <time>2016-06-05T07:09:40Z</time>
      </trkpt>
      <trkpt lat="45.71197" lon="4.66621">
        <ele>418.119781</ele>
        <time>2016-06-05T07:09:42Z</time>
      </trkpt>
      <trkpt lat="45.71204" lon="4.66616">
        <ele>418.409241</ele>
        <time>2016-06-05T07:09:44Z</time>
      </trkpt>
      <trkpt lat="45.71211" lon="4.66611">
        <ele>418.560394</ele>
        <time>2016-06-05T07:09:46Z</time>
      </trkpt>
      <trkpt lat="45.71217" lon="4.66607">
        <ele>418.710938</ele>
        <time>2016-06-05T07:09:48Z</time>
      </trkpt>
      <trkpt lat="45.71224" lon="4.66602">
        <ele>418.860016</ele>
        <time>2016-06-05T07:09:50Z</time>
      </trkpt>
      <trkpt lat="45.7123" lon="4.66597">
        <ele>419.160309</ele>
        <time>2016-06-05T07:09:52Z</time>
      </trkpt>
      <trkpt lat="45.71236" lon="4.66593">
        <ele>419.251038</ele>
        <time>2016-06-05T07:09:54Z</time>
      </trkpt>
      <trkpt lat="45.71241" lon="4.6659">
        <ele>419.497314</ele>
        <time>2016-06-05T07:09:56Z</time>
      </trkpt>
      <trkpt lat="45.71248" lon="4.66587">
        <ele>419.717682</ele>
        <time>2016-06-05T07:09:58Z</time>
      </trkpt>
      <trkpt lat="45.71255" lon="4.66585">
        <ele>419.881836</ele>
        <time>2016-06-05T07:10:00Z</time>
      </trkpt>
      <trkpt lat="45.71264" lon="4.66584">
        <ele>419.987732</ele>
        <time>2016-06-05T07:10:02Z</time>
      </trkpt>
      <trkpt lat="45.71272" lon="4.66581">
        <ele>420.192932</ele>
        <time>2016-06-05T07:10:04Z</time>
      </trkpt>
      <trkpt lat="45.71281" lon="4.66579">
        <ele>420.357117</ele>
        <time>2016-06-05T07:10:06Z</time>
      </trkpt>
      <trkpt lat="45.7129" lon="4.66578">
        <ele>420.335541</ele>
        <time>2016-06-05T07:10:08Z</time>
      </trkpt>
      <trkpt lat="45.71299" lon="4.66575">
        <ele>420.48761</ele>
        <time>2016-06-05T07:10:10Z</time>
      </trkpt>
      <trkpt lat="45.71308" lon="4.66573">
        <ele>420.593414</ele>
        <time>2016-06-05T07:10:12Z</time>
      </trkpt>
      <trkpt lat="45.71315" lon="4.6657">
        <ele>420.781403</ele>
        <time>2016-06-05T07:10:14Z</time>
      </trkpt>
      <trkpt lat="45.71322" lon="4.6657">
        <ele>420.872131</ele>
        <time>2016-06-05T07:10:16Z</time>
      </trkpt>
      <trkpt lat="45.71329" lon="4.66569">
        <ele>420.953278</ele>
        <time>2016-06-05T07:10:18Z</time>
      </trkpt>
      <trkpt lat="45.71336" lon="4.66567">
        <ele>420.997559</ele>
        <time>2016-06-05T07:10:20Z</time>
      </trkpt>
      <trkpt lat="45.71344" lon="4.66565">
        <ele>421.003906</ele>
        <time>2016-06-05T07:10:22Z</time>
      </trkpt>
      <trkpt lat="45.71351" lon="4.66564">
        <ele>420.990234</ele>
        <time>2016-06-05T07:10:24Z</time>
      </trkpt>
      <trkpt lat="45.71359" lon="4.66561">
        <ele>421.074463</ele>
        <time>2016-06-05T07:10:26Z</time>
      </trkpt>
      <trkpt lat="45.71366" lon="4.66557">
        <ele>421.197601</ele>
        <time>2016-06-05T07:10:28Z</time>
      </trkpt>
      <trkpt lat="45.71374" lon="4.66554">
        <ele>421.314301</ele>
        <time>2016-06-05T07:10:30Z</time>
      </trkpt>
      <trkpt lat="45.71382" lon="4.66551">
        <ele>421.37915</ele>
        <time>2016-06-05T07:10:32Z</time>
      </trkpt>
      <trkpt lat="45.71389" lon="4.66547">
        <ele>421.461243</ele>
        <time>2016-06-05T07:10:34Z</time>
      </trkpt>
      <trkpt lat="45.71395" lon="4.66542">
        <ele>421.526062</ele>
        <time>2016-06-05T07:10:36Z</time>
      </trkpt>
      <trkpt lat="45.71402" lon="4.66538">
        <ele>421.524506</ele>
        <time>2016-06-05T07:10:38Z</time>
      </trkpt>
      <trkpt lat="45.71407" lon="4.66533">
        <ele>421.554779</ele>
        <time>2016-06-05T07:10:40Z</time>
      </trkpt>
      <trkpt lat="45.71414" lon="4.66529">
        <ele>421.576019</ele>
        <time>2016-06-05T07:10:42Z</time>
      </trkpt>
      <trkpt lat="45.7142" lon="4.66524">
        <ele>421.627869</ele>
        <time>2016-06-05T07:10:44Z</time>
      </trkpt>
      <trkpt lat="45.71426" lon="4.6652">
        <ele>421.727295</ele>
        <time>2016-06-05T07:10:46Z</time>
      </trkpt>
      <trkpt lat="45.71433" lon="4.66516">
        <ele>421.921783</ele>
        <time>2016-06-05T07:10:48Z</time>
      </trkpt>
      <trkpt lat="45.71439" lon="4.66512">
        <ele>422.048584</ele>
        <time>2016-06-05T07:10:50Z</time>
      </trkpt>
      <trkpt lat="45.71446" lon="4.66508">
        <ele>422.106934</ele>
        <time>2016-06-05T07:10:52Z</time>
      </trkpt>
      <trkpt lat="45.71452" lon="4.66505">
        <ele>422.385681</ele>
        <time>2016-06-05T07:10:54Z</time>
      </trkpt>
      <trkpt lat="45.71458" lon="4.66502">
        <ele>422.513733</ele>
        <time>2016-06-05T07:10:56Z</time>
      </trkpt>
      <trkpt lat="45.71465" lon="4.66499">
        <ele>422.697418</ele>
        <time>2016-06-05T07:10:58Z</time>
      </trkpt>
      <trkpt lat="45.71471" lon="4.66496">
        <ele>422.913513</ele>
        <time>2016-06-05T07:11:00Z</time>
      </trkpt>
      <trkpt lat="45.71478" lon="4.66492">
        <ele>423.105865</ele>
        <time>2016-06-05T07:11:02Z</time>
      </trkpt>
      <trkpt lat="45.71483" lon="4.66488">
        <ele>423.229187</ele>
        <time>2016-06-05T07:11:04Z</time>
      </trkpt>
      <trkpt lat="45.71487" lon="4.66484">
        <ele>423.527435</ele>
        <time>2016-06-05T07:11:06Z</time>
      </trkpt>
      <trkpt lat="45.71492" lon="4.66479">
        <ele>423.782532</ele>
        <time>2016-06-05T07:11:08Z</time>
      </trkpt>
      <trkpt lat="45.71496" lon="4.66475">
        <ele>424.033203</ele>
        <time>2016-06-05T07:11:10Z</time>
      </trkpt>
      <trkpt lat="45.71501" lon="4.66471">
        <ele>424.238586</ele>
        <time>2016-06-05T07:11:12Z</time>
      </trkpt>
      <trkpt lat="45.71506" lon="4.66467">
        <ele>424.469818</ele>
        <time>2016-06-05T07:11:14Z</time>
      </trkpt>
      <trkpt lat="45.7151" lon="4.66463">
        <ele>424.841644</ele>
        <time>2016-06-05T07:11:16Z</time>
      </trkpt>
      <trkpt lat="45.71515" lon="4.6646">
        <ele>425.064392</ele>
        <time>2016-06-05T07:11:18Z</time>
      </trkpt>
      <trkpt lat="45.71519" lon="4.66456">
        <ele>425.395081</ele>
        <time>2016-06-05T07:11:20Z</time>
      </trkpt>
      <trkpt lat="45.71523" lon="4.66452">
        <ele>425.787842</ele>
        <time>2016-06-05T07:11:22Z</time>
      </trkpt>
      <trkpt lat="45.71527" lon="4.66448">
        <ele>426.172668</ele>
        <time>2016-06-05T07:11:24Z</time>
      </trkpt>
      <trkpt lat="45.7153" lon="4.66444">
        <ele>426.550964</ele>
        <time>2016-06-05T07:11:26Z</time>
      </trkpt>
      <trkpt lat="45.71534" lon="4.66441">
        <ele>426.866638</ele>
        <time>2016-06-05T07:11:28Z</time>
      </trkpt>
      <trkpt lat="45.71537" lon="4.66437">
        <ele>427.211121</ele>
        <time>2016-06-05T07:11:30Z</time>
      </trkpt>
      <trkpt lat="45.71541" lon="4.66433">
        <ele>427.669495</ele>
        <time>2016-06-05T07:11:32Z</time>
      </trkpt>
      <trkpt lat="45.71545" lon="4.6643">
        <ele>428.050049</ele>
        <time>2016-06-05T07:11:34Z</time>
      </trkpt>
      <trkpt lat="45.71549" lon="4.66426">
        <ele>428.419281</ele>
        <time>2016-06-05T07:11:36Z</time>
      </trkpt>
      <trkpt lat="45.71552" lon="4.66422">
        <ele>428.606049</ele>
        <time>2016-06-05T07:11:38Z</time>
      </trkpt>
      <trkpt lat="45.71556" lon="4.66418">
        <ele>428.973572</ele>
        <time>2016-06-05T07:11:40Z</time>
      </trkpt>
      <trkpt lat="45.71559" lon="4.66414">
        <ele>429.30658</ele>
        <time>2016-06-05T07:11:42Z</time>
      </trkpt>
      <trkpt lat="45.71562" lon="4.66409">
        <ele>429.677002</ele>
        <time>2016-06-05T07:11:44Z</time>
      </trkpt>
      <trkpt lat="45.71565" lon="4.66404">
        <ele>430.111664</ele>
        <time>2016-06-05T07:11:46Z</time>
      </trkpt>
      <trkpt lat="45.71568" lon="4.66399">
        <ele>430.49823</ele>
        <time>2016-06-05T07:11:48Z</time>
      </trkpt>
      <trkpt lat="45.71571" lon="4.66394">
        <ele>430.772217</ele>
        <time>2016-06-05T07:11:50Z</time>
      </trkpt>
      <trkpt lat="45.71574" lon="4.66389">
        <ele>431.291199</ele>
        <time>2016-06-05T07:11:52Z</time>
      </trkpt>
      <trkpt lat="45.71578" lon="4.66385">
        <ele>431.745453</ele>
        <time>2016-06-05T07:11:54Z</time>
      </trkpt>
      <trkpt lat="45.7158" lon="4.66379">
        <ele>432.091553</ele>
        <time>2016-06-05T07:11:56Z</time>
      </trkpt>
      <trkpt lat="45.71583" lon="4.66374">
        <ele>432.565247</ele>
        <time>2016-06-05T07:11:58Z</time>
      </trkpt>
      <trkpt lat="45.71586" lon="4.66369">
        <ele>432.979828</ele>
        <time>2016-06-05T07:12:00Z</time>
      </trkpt>
      <trkpt lat="45.71589" lon="4.66363">
        <ele>433.424408</ele>
        <time>2016-06-05T07:12:02Z</time>
      </trkpt>
      <trkpt lat="45.71592" lon="4.66357">
        <ele>433.911224</ele>
        <time>2016-06-05T07:12:04Z</time>
      </trkpt>
      <trkpt lat="45.71595" lon="4.66351">
        <ele>434.144867</ele>
        <time>2016-06-05T07:12:06Z</time>
      </trkpt>
      <trkpt lat="45.71598" lon="4.66345">
        <ele>434.58905</ele>
        <time>2016-06-05T07:12:08Z</time>
      </trkpt>
      <trkpt lat="45.71602" lon="4.66339">
        <ele>435.043396</ele>
        <time>2016-06-05T07:12:10Z</time>
      </trkpt>
      <trkpt lat="45.71606" lon="4.66333">
        <ele>435.477478</ele>
        <time>2016-06-05T07:12:12Z</time>
      </trkpt>
      <trkpt lat="45.71609" lon="4.66326">
        <ele>435.781342</ele>
        <time>2016-06-05T07:12:14Z</time>
      </trkpt>
      <trkpt lat="45.71612" lon="4.6632">
        <ele>436.231445</ele>
        <time>2016-06-05T07:12:16Z</time>
      </trkpt>
      <trkpt lat="45.71615" lon="4.66314">
        <ele>436.560364</ele>
        <time>2016-06-05T07:12:18Z</time>
      </trkpt>
      <trkpt lat="45.71618" lon="4.66309">
        <ele>436.935608</ele>
        <time>2016-06-05T07:12:20Z</time>
      </trkpt>
      <trkpt lat="45.71621" lon="4.66303">
        <ele>437.28833</ele>
        <time>2016-06-05T07:12:22Z</time>
      </trkpt>
      <trkpt lat="45.71624" lon="4.66296">
        <ele>437.71402</ele>
        <time>2016-06-05T07:12:24Z</time>
      </trkpt>
      <trkpt lat="45.71627" lon="4.66289">
        <ele>438.055908</ele>
        <time>2016-06-05T07:12:26Z</time>
      </trkpt>
      <trkpt lat="45.7163" lon="4.66283">
        <ele>438.324371</ele>
        <time>2016-06-05T07:12:28Z</time>
      </trkpt>
      <trkpt lat="45.71633" lon="4.66276">
        <ele>438.716553</ele>
        <time>2016-06-05T07:12:30Z</time>
      </trkpt>
      <trkpt lat="45.71636" lon="4.66269">
        <ele>438.918457</ele>
        <time>2016-06-05T07:12:32Z</time>
      </trkpt>
      <trkpt lat="45.71639" lon="4.66262">
        <ele>439.117584</ele>
        <time>2016-06-05T07:12:34Z</time>
      </trkpt>
      <trkpt lat="45.71641" lon="4.66254">
        <ele>439.195496</ele>
        <time>2016-06-05T07:12:36Z</time>
      </trkpt>
      <trkpt lat="45.71643" lon="4.66246">
        <ele>439.517151</ele>
        <time>2016-06-05T07:12:38Z</time>
      </trkpt>
      <trkpt lat="45.71645" lon="4.66239">
        <ele>439.738098</ele>
        <time>2016-06-05T07:12:40Z</time>
      </trkpt>
      <trkpt lat="45.71646" lon="4.66232">
        <ele>439.979889</ele>
        <time>2016-06-05T07:12:42Z</time>
      </trkpt>
      <trkpt lat="45.71648" lon="4.66225">
        <ele>440.265625</ele>
        <time>2016-06-05T07:12:44Z</time>
      </trkpt>
      <trkpt lat="45.71649" lon="4.66215">
        <ele>440.350037</ele>
        <time>2016-06-05T07:12:46Z</time>
      </trkpt>
      <trkpt lat="45.71651" lon="4.66205">
        <ele>440.405701</ele>
        <time>2016-06-05T07:12:48Z</time>
      </trkpt>
      <trkpt lat="45.71651" lon="4.66198">
        <ele>440.468506</ele>
        <time>2016-06-05T07:12:50Z</time>
      </trkpt>
      <trkpt lat="45.71648" lon="4.66195">
        <ele>440.624359</ele>
        <time>2016-06-05T07:12:52Z</time>
      </trkpt>
      <trkpt lat="45.71645" lon="4.66191">
        <ele>440.987152</ele>
        <time>2016-06-05T07:12:54Z</time>
      </trkpt>
      <trkpt lat="45.71644" lon="4.66187">
        <ele>441.088928</ele>
        <time>2016-06-05T07:12:56Z</time>
      </trkpt>
      <trkpt lat="45.71642" lon="4.66182">
        <ele>441.31842</ele>
        <time>2016-06-05T07:12:58Z</time>
      </trkpt>
      <trkpt lat="45.71639" lon="4.66178">
        <ele>441.597717</ele>
        <time>2016-06-05T07:13:00Z</time>
      </trkpt>
      <trkpt lat="45.71637" lon="4.66174">
        <ele>441.758301</ele>
        <time>2016-06-05T07:13:02Z</time>
      </trkpt>
      <trkpt lat="45.71634" lon="4.6617">
        <ele>442.039734</ele>
        <time>2016-06-05T07:13:04Z</time>
      </trkpt>
      <trkpt lat="45.71631" lon="4.66166">
        <ele>442.096039</ele>
        <time>2016-06-05T07:13:06Z</time>
      </trkpt>
      <trkpt lat="45.71629" lon="4.66162">
        <ele>442.351318</ele>
        <time>2016-06-05T07:13:08Z</time>
      </trkpt>
      <trkpt lat="45.71627" lon="4.66157">
        <ele>442.665283</ele>
        <time>2016-06-05T07:13:10Z</time>
      </trkpt>
      <trkpt lat="45.71624" lon="4.66153">
        <ele>442.944641</ele>
        <time>2016-06-05T07:13:12Z</time>
      </trkpt>
      <trkpt lat="45.71621" lon="4.66149">
        <ele>443.360352</ele>
        <time>2016-06-05T07:13:14Z</time>
      </trkpt>
      <trkpt lat="45.71619" lon="4.66145">
        <ele>443.706787</ele>
        <time>2016-06-05T07:13:16Z</time>
      </trkpt>
      <trkpt lat="45.71616" lon="4.66141">
        <ele>443.999207</ele>
        <time>2016-06-05T07:13:18Z</time>
      </trkpt>
      <trkpt lat="45.71613" lon="4.66137">
        <ele>444.305176</ele>
        <time>2016-06-05T07:13:20Z</time>
      </trkpt>
      <trkpt lat="45.71611" lon="4.66134">
        <ele>444.637146</ele>
        <time>2016-06-05T07:13:22Z</time>
      </trkpt>
      <trkpt lat="45.71609" lon="4.6613">
        <ele>444.903259</ele>
        <time>2016-06-05T07:13:24Z</time>
      </trkpt>
      <trkpt lat="45.71606" lon="4.66126">
        <ele>445.12207</ele>
        <time>2016-06-05T07:13:26Z</time>
      </trkpt>
      <trkpt lat="45.71604" lon="4.66122">
        <ele>445.648285</ele>
        <time>2016-06-05T07:13:28Z</time>
      </trkpt>
      <trkpt lat="45.71602" lon="4.66118">
        <ele>446.139954</ele>
        <time>2016-06-05T07:13:30Z</time>
      </trkpt>
      <trkpt lat="45.716" lon="4.66114">
        <ele>446.423645</ele>
        <time>2016-06-05T07:13:32Z</time>
      </trkpt>
      <trkpt lat="45.71598" lon="4.6611">
        <ele>446.722565</ele>
        <time>2016-06-05T07:13:34Z</time>
      </trkpt>
      <trkpt lat="45.71595" lon="4.66107">
        <ele>447.099457</ele>
        <time>2016-06-05T07:13:36Z</time>
      </trkpt>
      <trkpt lat="45.71594" lon="4.66103">
        <ele>447.510986</ele>
        <time>2016-06-05T07:13:38Z</time>
      </trkpt>
      <trkpt lat="45.71592" lon="4.66099">
        <ele>447.630127</ele>
        <time>2016-06-05T07:13:40Z</time>
      </trkpt>
      <trkpt lat="45.7159" lon="4.66095">
        <ele>447.922668</ele>
        <time>2016-06-05T07:13:42Z</time>
      </trkpt>
      <trkpt lat="45.71588" lon="4.66092">
        <ele>448.407867</ele>
        <time>2016-06-05T07:13:44Z</time>
      </trkpt>
      <trkpt lat="45.71586" lon="4.66088">
        <ele>448.797913</ele>
        <time>2016-06-05T07:13:46Z</time>
      </trkpt>
      <trkpt lat="45.71584" lon="4.66085">
        <ele>449.263916</ele>
        <time>2016-06-05T07:13:48Z</time>
      </trkpt>
      <trkpt lat="45.71582" lon="4.66081">
        <ele>449.630066</ele>
        <time>2016-06-05T07:13:50Z</time>
      </trkpt>
      <trkpt lat="45.71581" lon="4.66078">
        <ele>449.955078</ele>
        <time>2016-06-05T07:13:52Z</time>
      </trkpt>
      <trkpt lat="45.71579" lon="4.66075">
        <ele>450.306091</ele>
        <time>2016-06-05T07:13:54Z</time>
      </trkpt>
      <trkpt lat="45.71577" lon="4.66072">
        <ele>450.672302</ele>
        <time>2016-06-05T07:13:56Z</time>
      </trkpt>
      <trkpt lat="45.71574" lon="4.66069">
        <ele>451.049225</ele>
        <time>2016-06-05T07:13:58Z</time>
      </trkpt>
      <trkpt lat="45.71572" lon="4.66066">
        <ele>451.452301</ele>
        <time>2016-06-05T07:14:00Z</time>
      </trkpt>
      <trkpt lat="45.7157" lon="4.66063">
        <ele>451.835876</ele>
        <time>2016-06-05T07:14:02Z</time>
      </trkpt>
      <trkpt lat="45.71567" lon="4.6606">
        <ele>452.195953</ele>
        <time>2016-06-05T07:14:04Z</time>
      </trkpt>
      <trkpt lat="45.71565" lon="4.66058">
        <ele>452.670593</ele>
        <time>2016-06-05T07:14:06Z</time>
      </trkpt>
      <trkpt lat="45.71562" lon="4.66056">
        <ele>453.073395</ele>
        <time>2016-06-05T07:14:08Z</time>
      </trkpt>
      <trkpt lat="45.71559" lon="4.66053">
        <ele>453.509094</ele>
        <time>2016-06-05T07:14:10Z</time>
      </trkpt>
      <trkpt lat="45.71557" lon="4.66051">
        <ele>453.864563</ele>
        <time>2016-06-05T07:14:12Z</time>
      </trkpt>
      <trkpt lat="45.71554" lon="4.66049">
        <ele>454.088287</ele>
        <time>2016-06-05T07:14:14Z</time>
      </trkpt>
      <trkpt lat="45.71552" lon="4.66047">
        <ele>454.452454</ele>
        <time>2016-06-05T07:14:16Z</time>
      </trkpt>
      <trkpt lat="45.71549" lon="4.66045">
        <ele>454.88385</ele>
        <time>2016-06-05T07:14:18Z</time>
      </trkpt>
      <trkpt lat="45.71545" lon="4.66042">
        <ele>455.295715</ele>
        <time>2016-06-05T07:14:21Z</time>
      </trkpt>
      <trkpt lat="45.71541" lon="4.66038">
        <ele>455.755859</ele>
        <time>2016-06-05T07:14:24Z</time>
      </trkpt>
      <trkpt lat="45.71538" lon="4.66037">
        <ele>456.25885</ele>
        <time>2016-06-05T07:14:26Z</time>
      </trkpt>
      <trkpt lat="45.71536" lon="4.66035">
        <ele>456.820465</ele>
        <time>2016-06-05T07:14:28Z</time>
      </trkpt>
      <trkpt lat="45.71533" lon="4.66033">
        <ele>457.156555</ele>
        <time>2016-06-05T07:14:30Z</time>
      </trkpt>
      <trkpt lat="45.71531" lon="4.66032">
        <ele>457.635803</ele>
        <time>2016-06-05T07:14:32Z</time>
      </trkpt>
      <trkpt lat="45.71529" lon="4.6603">
        <ele>458.138916</ele>
        <time>2016-06-05T07:14:34Z</time>
      </trkpt>
      <trkpt lat="45.71526" lon="4.66028">
        <ele>458.616028</ele>
        <time>2016-06-05T07:14:36Z</time>
      </trkpt>
      <trkpt lat="45.71524" lon="4.66026">
        <ele>459.078278</ele>
        <time>2016-06-05T07:14:38Z</time>
      </trkpt>
      <trkpt lat="45.71521" lon="4.66024">
        <ele>459.527191</ele>
        <time>2016-06-05T07:14:40Z</time>
      </trkpt>
      <trkpt lat="45.71519" lon="4.66022">
        <ele>459.987122</ele>
        <time>2016-06-05T07:14:42Z</time>
      </trkpt>
      <trkpt lat="45.71516" lon="4.6602">
        <ele>460.470764</ele>
        <time>2016-06-05T07:14:44Z</time>
      </trkpt>
      <trkpt lat="45.71514" lon="4.66018">
        <ele>460.989166</ele>
        <time>2016-06-05T07:14:46Z</time>
      </trkpt>
      <trkpt lat="45.71512" lon="4.66016">
        <ele>461.260254</ele>
        <time>2016-06-05T07:14:48Z</time>
      </trkpt>
      <trkpt lat="45.7151" lon="4.66013">
        <ele>461.665375</ele>
        <time>2016-06-05T07:14:50Z</time>
      </trkpt>
      <trkpt lat="45.71508" lon="4.6601">
        <ele>462.114807</ele>
        <time>2016-06-05T07:14:52Z</time>
      </trkpt>
      <trkpt lat="45.71506" lon="4.66008">
        <ele>462.531311</ele>
        <time>2016-06-05T07:14:54Z</time>
      </trkpt>
      <trkpt lat="45.71503" lon="4.66005">
        <ele>463.021637</ele>
        <time>2016-06-05T07:14:56Z</time>
      </trkpt>
      <trkpt lat="45.71501" lon="4.66003">
        <ele>463.507141</ele>
        <time>2016-06-05T07:14:58Z</time>
      </trkpt>
      <trkpt lat="45.71499" lon="4.66">
        <ele>463.957123</ele>
        <time>2016-06-05T07:15:00Z</time>
      </trkpt>
      <trkpt lat="45.71497" lon="4.65998">
        <ele>464.42572</ele>
        <time>2016-06-05T07:15:02Z</time>
      </trkpt>
      <trkpt lat="45.71495" lon="4.65996">
        <ele>464.89859</ele>
        <time>2016-06-05T07:15:04Z</time>
      </trkpt>
      <trkpt lat="45.71492" lon="4.65994">
        <ele>465.339111</ele>
        <time>2016-06-05T07:15:06Z</time>
      </trkpt>
      <trkpt lat="45.71491" lon="4.65991">
        <ele>465.583496</ele>
        <time>2016-06-05T07:15:08Z</time>
      </trkpt>
      <trkpt lat="45.71488" lon="4.65989">
        <ele>465.958923</ele>
        <time>2016-06-05T07:15:10Z</time>
      </trkpt>
      <trkpt lat="45.71486" lon="4.65987">
        <ele>466.336517</ele>
        <time>2016-06-05T07:15:12Z</time>
      </trkpt>
      <trkpt lat="45.71483" lon="4.65984">
        <ele>466.613281</ele>
        <time>2016-06-05T07:15:14Z</time>
      </trkpt>
      <trkpt lat="45.71481" lon="4.65982">
        <ele>466.914948</ele>
        <time>2016-06-05T07:15:16Z</time>
      </trkpt>
      <trkpt lat="45.71479" lon="4.6598">
        <ele>467.363861</ele>
        <time>2016-06-05T07:15:18Z</time>
      </trkpt>
      <trkpt lat="45.71476" lon="4.65977">
        <ele>467.552734</ele>
        <time>2016-06-05T07:15:20Z</time>
      </trkpt>
      <trkpt lat="45.71474" lon="4.65975">
        <ele>467.904297</ele>
        <time>2016-06-05T07:15:22Z</time>
      </trkpt>
      <trkpt lat="45.71471" lon="4.65973">
        <ele>468.275482</ele>
        <time>2016-06-05T07:15:24Z</time>
      </trkpt>
      <trkpt lat="45.71469" lon="4.65971">
        <ele>468.547363</ele>
        <time>2016-06-05T07:15:26Z</time>
      </trkpt>
      <trkpt lat="45.71467" lon="4.65969">
        <ele>468.862213</ele>
        <time>2016-06-05T07:15:28Z</time>
      </trkpt>
      <trkpt lat="45.71464" lon="4.65967">
        <ele>469.221588</ele>
        <time>2016-06-05T07:15:30Z</time>
      </trkpt>
      <trkpt lat="45.71462" lon="4.65964">
        <ele>469.564148</ele>
        <time>2016-06-05T07:15:32Z</time>
      </trkpt>
      <trkpt lat="45.71459" lon="4.65963">
        <ele>469.937592</ele>
        <time>2016-06-05T07:15:34Z</time>
      </trkpt>
      <trkpt lat="45.71457" lon="4.65961">
        <ele>470.241608</ele>
        <time>2016-06-05T07:15:36Z</time>
      </trkpt>
      <trkpt lat="45.71454" lon="4.65959">
        <ele>470.575867</ele>
        <time>2016-06-05T07:15:38Z</time>
      </trkpt>
      <trkpt lat="45.71452" lon="4.65957">
        <ele>470.904968</ele>
        <time>2016-06-05T07:15:40Z</time>
      </trkpt>
      <trkpt lat="45.71449" lon="4.65955">
        <ele>471.196472</ele>
        <time>2016-06-05T07:15:42Z</time>
      </trkpt>
      <trkpt lat="45.71447" lon="4.65954">
        <ele>471.569519</ele>
        <time>2016-06-05T07:15:44Z</time>
      </trkpt>
      <trkpt lat="45.71444" lon="4.65952">
        <ele>471.691101</ele>
        <time>2016-06-05T07:15:46Z</time>
      </trkpt>
      <trkpt lat="45.71442" lon="4.6595">
        <ele>471.952332</ele>
        <time>2016-06-05T07:15:48Z</time>
      </trkpt>
      <trkpt lat="45.71439" lon="4.65947">
        <ele>472.411316</ele>
        <time>2016-06-05T07:15:50Z</time>
      </trkpt>
      <trkpt lat="45.71437" lon="4.65945">
        <ele>472.754395</ele>
        <time>2016-06-05T07:15:52Z</time>
      </trkpt>
      <trkpt lat="45.71434" lon="4.65944">
        <ele>473.104004</ele>
        <time>2016-06-05T07:15:54Z</time>
      </trkpt>
      <trkpt lat="45.71432" lon="4.65942">
        <ele>473.535065</ele>
        <time>2016-06-05T07:15:56Z</time>
      </trkpt>
      <trkpt lat="45.7143" lon="4.6594">
        <ele>474.030182</ele>
        <time>2016-06-05T07:15:58Z</time>
      </trkpt>
      <trkpt lat="45.71427" lon="4.65939">
        <ele>474.355804</ele>
        <time>2016-06-05T07:16:00Z</time>
      </trkpt>
      <trkpt lat="45.71425" lon="4.65936">
        <ele>474.783691</ele>
        <time>2016-06-05T07:16:02Z</time>
      </trkpt>
      <trkpt lat="45.71423" lon="4.65935">
        <ele>475.246338</ele>
        <time>2016-06-05T07:16:04Z</time>
      </trkpt>
      <trkpt lat="45.7142" lon="4.65933">
        <ele>475.634521</ele>
        <time>2016-06-05T07:16:06Z</time>
      </trkpt>
      <trkpt lat="45.71418" lon="4.65932">
        <ele>476.012512</ele>
        <time>2016-06-05T07:16:08Z</time>
      </trkpt>
      <trkpt lat="45.71416" lon="4.6593">
        <ele>476.370911</ele>
        <time>2016-06-05T07:16:10Z</time>
      </trkpt>
      <trkpt lat="45.71414" lon="4.65928">
        <ele>476.785095</ele>
        <time>2016-06-05T07:16:12Z</time>
      </trkpt>
      <trkpt lat="45.71412" lon="4.65926">
        <ele>477.01358</ele>
        <time>2016-06-05T07:16:14Z</time>
      </trkpt>
      <trkpt lat="45.71409" lon="4.65924">
        <ele>477.306824</ele>
        <time>2016-06-05T07:16:16Z</time>
      </trkpt>
      <trkpt lat="45.71407" lon="4.65923">
        <ele>477.684875</ele>
        <time>2016-06-05T07:16:18Z</time>
      </trkpt>
      <trkpt lat="45.71404" lon="4.65921">
        <ele>478.073792</ele>
        <time>2016-06-05T07:16:20Z</time>
      </trkpt>
      <trkpt lat="45.71402" lon="4.65919">
        <ele>478.523499</ele>
        <time>2016-06-05T07:16:22Z</time>
      </trkpt>
      <trkpt lat="45.71399" lon="4.65918">
        <ele>479.027039</ele>
        <time>2016-06-05T07:16:24Z</time>
      </trkpt>
      <trkpt lat="45.71397" lon="4.65916">
        <ele>479.435547</ele>
        <time>2016-06-05T07:16:26Z</time>
      </trkpt>
      <trkpt lat="45.71394" lon="4.65914">
        <ele>479.8461</ele>
        <time>2016-06-05T07:16:28Z</time>
      </trkpt>
      <trkpt lat="45.71392" lon="4.65913">
        <ele>480.297455</ele>
        <time>2016-06-05T07:16:30Z</time>
      </trkpt>
      <trkpt lat="45.71389" lon="4.65911">
        <ele>480.627777</ele>
        <time>2016-06-05T07:16:32Z</time>
      </trkpt>
      <trkpt lat="45.71386" lon="4.65909">
        <ele>481.14502</ele>
        <time>2016-06-05T07:16:34Z</time>
      </trkpt>
      <trkpt lat="45.71384" lon="4.65907">
        <ele>481.505798</ele>
        <time>2016-06-05T07:16:36Z</time>
      </trkpt>
      <trkpt lat="45.71381" lon="4.65905">
        <ele>481.875305</ele>
        <time>2016-06-05T07:16:38Z</time>
      </trkpt>
      <trkpt lat="45.71379" lon="4.65903">
        <ele>482.050598</ele>
        <time>2016-06-05T07:16:40Z</time>
      </trkpt>
      <trkpt lat="45.71376" lon="4.65901">
        <ele>482.470276</ele>
        <time>2016-06-05T07:16:42Z</time>
      </trkpt>
      <trkpt lat="45.71374" lon="4.65898">
        <ele>482.900635</ele>
        <time>2016-06-05T07:16:44Z</time>
      </trkpt>
      <trkpt lat="45.71372" lon="4.65896">
        <ele>483.220154</ele>
        <time>2016-06-05T07:16:46Z</time>
      </trkpt>
      <trkpt lat="45.71369" lon="4.65894">
        <ele>483.724548</ele>
        <time>2016-06-05T07:16:48Z</time>
      </trkpt>
      <trkpt lat="45.71367" lon="4.65892">
        <ele>484.19635</ele>
        <time>2016-06-05T07:16:50Z</time>
      </trkpt>
      <trkpt lat="45.71365" lon="4.6589">
        <ele>484.694153</ele>
        <time>2016-06-05T07:16:52Z</time>
      </trkpt>
      <trkpt lat="45.71363" lon="4.65888">
        <ele>485.076721</ele>
        <time>2016-06-05T07:16:54Z</time>
      </trkpt>
      <trkpt lat="45.71361" lon="4.65885">
        <ele>485.548492</ele>
        <time>2016-06-05T07:16:56Z</time>
      </trkpt>
      <trkpt lat="45.71359" lon="4.65883">
        <ele>486.028168</ele>
        <time>2016-06-05T07:16:58Z</time>
      </trkpt>
      <trkpt lat="45.71357" lon="4.6588">
        <ele>486.425537</ele>
        <time>2016-06-05T07:17:00Z</time>
      </trkpt>
      <trkpt lat="45.71355" lon="4.65878">
        <ele>486.879974</ele>
        <time>2016-06-05T07:17:02Z</time>
      </trkpt>
      <trkpt lat="45.71352" lon="4.65876">
        <ele>487.33017</ele>
        <time>2016-06-05T07:17:04Z</time>
      </trkpt>
      <trkpt lat="45.71351" lon="4.65873">
        <ele>487.745544</ele>
        <time>2016-06-05T07:17:06Z</time>
      </trkpt>
      <trkpt lat="45.71349" lon="4.6587">
        <ele>488.206726</ele>
        <time>2016-06-05T07:17:08Z</time>
      </trkpt>
      <trkpt lat="45.71351" lon="4.65862">
        <ele>492.130615</ele>
        <time>2016-06-05T07:18:33Z</time>
      </trkpt>
      <trkpt lat="45.71354" lon="4.65851">
        <ele>492.156799</ele>
        <time>2016-06-05T07:18:35Z</time>
      </trkpt>
      <trkpt lat="45.71355" lon="4.65839">
        <ele>492.086517</ele>
        <time>2016-06-05T07:18:37Z</time>
      </trkpt>
      <trkpt lat="45.71356" lon="4.65836">
        <ele>492.045166</ele>
        <time>2016-06-05T07:18:39Z</time>
      </trkpt>
      <trkpt lat="45.71355" lon="4.65832">
        <ele>492.029938</ele>
        <time>2016-06-05T07:18:41Z</time>
      </trkpt>
      <trkpt lat="45.71354" lon="4.65827">
        <ele>491.988586</ele>
        <time>2016-06-05T07:18:43Z</time>
      </trkpt>
      <trkpt lat="45.71353" lon="4.65823">
        <ele>491.971191</ele>
        <time>2016-06-05T07:18:45Z</time>
      </trkpt>
      <trkpt lat="45.71352" lon="4.65817">
        <ele>491.954346</ele>
        <time>2016-06-05T07:18:47Z</time>
      </trkpt>
      <trkpt lat="45.71351" lon="4.65811">
        <ele>491.866272</ele>
        <time>2016-06-05T07:18:49Z</time>
      </trkpt>
      <trkpt lat="45.7135" lon="4.65804">
        <ele>491.837982</ele>
        <time>2016-06-05T07:18:51Z</time>
      </trkpt>
      <trkpt lat="45.71348" lon="4.65797">
        <ele>491.918518</ele>
        <time>2016-06-05T07:18:53Z</time>
      </trkpt>
      <trkpt lat="45.71347" lon="4.65791">
        <ele>491.924988</ele>
        <time>2016-06-05T07:18:55Z</time>
      </trkpt>
      <trkpt lat="45.71345" lon="4.65786">
        <ele>491.914856</ele>
        <time>2016-06-05T07:18:57Z</time>
      </trkpt>
      <trkpt lat="45.71344" lon="4.6578">
        <ele>491.899597</ele>
        <time>2016-06-05T07:18:59Z</time>
      </trkpt>
      <trkpt lat="45.71342" lon="4.65774">
        <ele>491.897522</ele>
        <time>2016-06-05T07:19:01Z</time>
      </trkpt>
      <trkpt lat="45.71341" lon="4.65768">
        <ele>491.978027</ele>
        <time>2016-06-05T07:19:03Z</time>
      </trkpt>
      <trkpt lat="45.71342" lon="4.6576">
        <ele>491.908447</ele>
        <time>2016-06-05T07:19:05Z</time>
      </trkpt>
      <trkpt lat="45.71344" lon="4.65748">
        <ele>491.795319</ele>
        <time>2016-06-05T07:19:07Z</time>
      </trkpt>
      <trkpt lat="45.71346" lon="4.65733">
        <ele>491.635986</ele>
        <time>2016-06-05T07:19:09Z</time>
      </trkpt>
      <trkpt lat="45.71348" lon="4.6572">
        <ele>491.2771</ele>
        <time>2016-06-05T07:19:11Z</time>
      </trkpt>
      <trkpt lat="45.7135" lon="4.65707">
        <ele>491.133545</ele>
        <time>2016-06-05T07:19:13Z</time>
      </trkpt>
      <trkpt lat="45.71351" lon="4.65695">
        <ele>491.055237</ele>
        <time>2016-06-05T07:19:15Z</time>
      </trkpt>
      <trkpt lat="45.71354" lon="4.65684">
        <ele>490.761536</ele>
        <time>2016-06-05T07:19:17Z</time>
      </trkpt>
      <trkpt lat="45.71356" lon="4.65671">
        <ele>489.892151</ele>
        <time>2016-06-05T07:19:19Z</time>
      </trkpt>
      <trkpt lat="45.7136" lon="4.65657">
        <ele>489.289886</ele>
        <time>2016-06-05T07:19:21Z</time>
      </trkpt>
      <trkpt lat="45.71364" lon="4.65644">
        <ele>488.506348</ele>
        <time>2016-06-05T07:19:23Z</time>
      </trkpt>
      <trkpt lat="45.71367" lon="4.65632">
        <ele>487.857758</ele>
        <time>2016-06-05T07:19:25Z</time>
      </trkpt>
      <trkpt lat="45.71368" lon="4.65618">
        <ele>486.657776</ele>
        <time>2016-06-05T07:19:27Z</time>
      </trkpt>
      <trkpt lat="45.71368" lon="4.65603">
        <ele>485.31073</ele>
        <time>2016-06-05T07:19:29Z</time>
      </trkpt>
      <trkpt lat="45.71368" lon="4.65586">
        <ele>484.743652</ele>
        <time>2016-06-05T07:19:31Z</time>
      </trkpt>
      <trkpt lat="45.71369" lon="4.65572">
        <ele>483.534821</ele>
        <time>2016-06-05T07:19:33Z</time>
      </trkpt>
      <trkpt lat="45.71367" lon="4.65556">
        <ele>482.03125</ele>
        <time>2016-06-05T07:19:35Z</time>
      </trkpt>
      <trkpt lat="45.71367" lon="4.65542">
        <ele>480.406494</ele>
        <time>2016-06-05T07:19:37Z</time>
      </trkpt>
      <trkpt lat="45.7137" lon="4.65531">
        <ele>478.531799</ele>
        <time>2016-06-05T07:19:39Z</time>
      </trkpt>
      <trkpt lat="45.71378" lon="4.65525">
        <ele>476.568695</ele>
        <time>2016-06-05T07:19:41Z</time>
      </trkpt>
      <trkpt lat="45.71392" lon="4.65519">
        <ele>474.657654</ele>
        <time>2016-06-05T07:19:43Z</time>
      </trkpt>
      <trkpt lat="45.71405" lon="4.65512">
        <ele>472.812012</ele>
        <time>2016-06-05T07:19:45Z</time>
      </trkpt>
      <trkpt lat="45.71418" lon="4.65505">
        <ele>470.935852</ele>
        <time>2016-06-05T07:19:47Z</time>
      </trkpt>
      <trkpt lat="45.71422" lon="4.65492">
        <ele>469.029388</ele>
        <time>2016-06-05T07:19:49Z</time>
      </trkpt>
      <trkpt lat="45.71423" lon="4.65482">
        <ele>467.357483</ele>
        <time>2016-06-05T07:19:51Z</time>
      </trkpt>
      <trkpt lat="45.71424" lon="4.65473">
        <ele>465.844727</ele>
        <time>2016-06-05T07:19:53Z</time>
      </trkpt>
      <trkpt lat="45.71424" lon="4.65464">
        <ele>464.211914</ele>
        <time>2016-06-05T07:19:55Z</time>
      </trkpt>
      <trkpt lat="45.71423" lon="4.65457">
        <ele>462.502991</ele>
        <time>2016-06-05T07:19:57Z</time>
      </trkpt>
      <trkpt lat="45.71421" lon="4.6545">
        <ele>461.484924</ele>
        <time>2016-06-05T07:19:59Z</time>
      </trkpt>
      <trkpt lat="45.71419" lon="4.65443">
        <ele>461.10733</ele>
        <time>2016-06-05T07:20:01Z</time>
      </trkpt>
      <trkpt lat="45.71417" lon="4.65438">
        <ele>460.055328</ele>
        <time>2016-06-05T07:20:03Z</time>
      </trkpt>
      <trkpt lat="45.71414" lon="4.65432">
        <ele>459.11441</ele>
        <time>2016-06-05T07:20:05Z</time>
      </trkpt>
      <trkpt lat="45.71412" lon="4.65429">
        <ele>458.101318</ele>
        <time>2016-06-05T07:20:07Z</time>
      </trkpt>
      <trkpt lat="45.71409" lon="4.65425">
        <ele>457.663025</ele>
        <time>2016-06-05T07:20:09Z</time>
      </trkpt>
      <trkpt lat="45.71406" lon="4.65421">
        <ele>457.376404</ele>
        <time>2016-06-05T07:20:11Z</time>
      </trkpt>
      <trkpt lat="45.71403" lon="4.65417">
        <ele>456.898529</ele>
        <time>2016-06-05T07:20:13Z</time>
      </trkpt>
      <trkpt lat="45.714" lon="4.65413">
        <ele>456.73584</ele>
        <time>2016-06-05T07:20:15Z</time>
      </trkpt>
      <trkpt lat="45.71396" lon="4.65409">
        <ele>456.670746</ele>
        <time>2016-06-05T07:20:17Z</time>
      </trkpt>
      <trkpt lat="45.71392" lon="4.65405">
        <ele>457.032806</ele>
        <time>2016-06-05T07:20:19Z</time>
      </trkpt>
      <trkpt lat="45.71388" lon="4.654">
        <ele>457.178131</ele>
        <time>2016-06-05T07:20:21Z</time>
      </trkpt>
      <trkpt lat="45.71385" lon="4.65396">
        <ele>457.490295</ele>
        <time>2016-06-05T07:20:23Z</time>
      </trkpt>
      <trkpt lat="45.71381" lon="4.65391">
        <ele>457.863861</ele>
        <time>2016-06-05T07:20:25Z</time>
      </trkpt>
      <trkpt lat="45.71378" lon="4.65387">
        <ele>458.182068</ele>
        <time>2016-06-05T07:20:27Z</time>
      </trkpt>
      <trkpt lat="45.71375" lon="4.65382">
        <ele>458.546326</ele>
        <time>2016-06-05T07:20:29Z</time>
      </trkpt>
      <trkpt lat="45.71373" lon="4.65378">
        <ele>459.023346</ele>
        <time>2016-06-05T07:20:31Z</time>
      </trkpt>
      <trkpt lat="45.71371" lon="4.65375">
        <ele>459.422363</ele>
        <time>2016-06-05T07:20:33Z</time>
      </trkpt>
      <trkpt lat="45.71368" lon="4.65371">
        <ele>459.829651</ele>
        <time>2016-06-05T07:20:35Z</time>
      </trkpt>
      <trkpt lat="45.71365" lon="4.65367">
        <ele>460.191803</ele>
        <time>2016-06-05T07:20:37Z</time>
      </trkpt>
      <trkpt lat="45.71362" lon="4.65362">
        <ele>460.474426</ele>
        <time>2016-06-05T07:20:39Z</time>
      </trkpt>
      <trkpt lat="45.71361" lon="4.65355">
        <ele>460.563324</ele>
        <time>2016-06-05T07:20:41Z</time>
      </trkpt>
      <trkpt lat="45.71363" lon="4.65347">
        <ele>460.683929</ele>
        <time>2016-06-05T07:20:43Z</time>
      </trkpt>
      <trkpt lat="45.7137" lon="4.6534">
        <ele>460.874817</ele>
        <time>2016-06-05T07:20:45Z</time>
      </trkpt>
      <trkpt lat="45.71375" lon="4.65334">
        <ele>461.100403</ele>
        <time>2016-06-05T07:20:47Z</time>
      </trkpt>
      <trkpt lat="45.7138" lon="4.65327">
        <ele>461.338318</ele>
        <time>2016-06-05T07:20:49Z</time>
      </trkpt>
      <trkpt lat="45.71384" lon="4.65321">
        <ele>461.459778</ele>
        <time>2016-06-05T07:20:51Z</time>
      </trkpt>
      <trkpt lat="45.71388" lon="4.65314">
        <ele>461.63559</ele>
        <time>2016-06-05T07:20:53Z</time>
      </trkpt>
      <trkpt lat="45.71391" lon="4.65307">
        <ele>461.777771</ele>
        <time>2016-06-05T07:20:55Z</time>
      </trkpt>
      <trkpt lat="45.71394" lon="4.65299">
        <ele>461.94696</ele>
        <time>2016-06-05T07:20:57Z</time>
      </trkpt>
      <trkpt lat="45.71395" lon="4.65293">
        <ele>462.183441</ele>
        <time>2016-06-05T07:20:59Z</time>
      </trkpt>
      <trkpt lat="45.71397" lon="4.65286">
        <ele>462.315765</ele>
        <time>2016-06-05T07:21:01Z</time>
      </trkpt>
      <trkpt lat="45.71398" lon="4.65281">
        <ele>462.562073</ele>
        <time>2016-06-05T07:21:03Z</time>
      </trkpt>
      <trkpt lat="45.71398" lon="4.65275">
        <ele>462.75235</ele>
        <time>2016-06-05T07:21:05Z</time>
      </trkpt>
      <trkpt lat="45.714" lon="4.65269">
        <ele>462.947693</ele>
        <time>2016-06-05T07:21:07Z</time>
      </trkpt>
      <trkpt lat="45.71401" lon="4.65263">
        <ele>463.240662</ele>
        <time>2016-06-05T07:21:09Z</time>
      </trkpt>
      <trkpt lat="45.71402" lon="4.65255">
        <ele>463.515076</ele>
        <time>2016-06-05T07:21:11Z</time>
      </trkpt>
      <trkpt lat="45.71404" lon="4.65246">
        <ele>463.588806</ele>
        <time>2016-06-05T07:21:13Z</time>
      </trkpt>
      <trkpt lat="45.71405" lon="4.65235">
        <ele>463.818848</ele>
        <time>2016-06-05T07:21:15Z</time>
      </trkpt>
      <trkpt lat="45.71405" lon="4.65224">
        <ele>464.053284</ele>
        <time>2016-06-05T07:21:17Z</time>
      </trkpt>
      <trkpt lat="45.71407" lon="4.65214">
        <ele>464.220306</ele>
        <time>2016-06-05T07:21:19Z</time>
      </trkpt>
      <trkpt lat="45.71409" lon="4.65201">
        <ele>464.462585</ele>
        <time>2016-06-05T07:21:21Z</time>
      </trkpt>
      <trkpt lat="45.71411" lon="4.65189">
        <ele>464.81192</ele>
        <time>2016-06-05T07:21:23Z</time>
      </trkpt>
      <trkpt lat="45.71413" lon="4.65179">
        <ele>465.159088</ele>
        <time>2016-06-05T07:21:25Z</time>
      </trkpt>
      <trkpt lat="45.71417" lon="4.65169">
        <ele>465.445374</ele>
        <time>2016-06-05T07:21:27Z</time>
      </trkpt>
      <trkpt lat="45.71423" lon="4.65161">
        <ele>465.622803</ele>
        <time>2016-06-05T07:21:29Z</time>
      </trkpt>
      <trkpt lat="45.71429" lon="4.65155">
        <ele>465.770996</ele>
        <time>2016-06-05T07:21:31Z</time>
      </trkpt>
      <trkpt lat="45.71436" lon="4.6515">
        <ele>465.975159</ele>
        <time>2016-06-05T07:21:33Z</time>
      </trkpt>
      <trkpt lat="45.71444" lon="4.65149">
        <ele>466.105469</ele>
        <time>2016-06-05T07:21:35Z</time>
      </trkpt>
      <trkpt lat="45.71455" lon="4.65152">
        <ele>465.964447</ele>
        <time>2016-06-05T07:21:37Z</time>
      </trkpt>
      <trkpt lat="45.7147" lon="4.65153">
        <ele>465.101746</ele>
        <time>2016-06-05T07:21:39Z</time>
      </trkpt>
      <trkpt lat="45.7149" lon="4.65153">
        <ele>465.121643</ele>
        <time>2016-06-05T07:21:41Z</time>
      </trkpt>
      <trkpt lat="45.71508" lon="4.65149">
        <ele>464.403748</ele>
        <time>2016-06-05T07:21:43Z</time>
      </trkpt>
      <trkpt lat="45.71523" lon="4.65138">
        <ele>464.326721</ele>
        <time>2016-06-05T07:21:45Z</time>
      </trkpt>
      <trkpt lat="45.71533" lon="4.65124">
        <ele>463.892242</ele>
        <time>2016-06-05T07:21:47Z</time>
      </trkpt>
      <trkpt lat="45.71542" lon="4.65111">
        <ele>463.434265</ele>
        <time>2016-06-05T07:21:49Z</time>
      </trkpt>
      <trkpt lat="45.71548" lon="4.651">
        <ele>462.903381</ele>
        <time>2016-06-05T07:21:51Z</time>
      </trkpt>
      <trkpt lat="45.71555" lon="4.65089">
        <ele>462.117279</ele>
        <time>2016-06-05T07:21:53Z</time>
      </trkpt>
      <trkpt lat="45.71566" lon="4.65077">
        <ele>461.438568</ele>
        <time>2016-06-05T07:21:55Z</time>
      </trkpt>
      <trkpt lat="45.7158" lon="4.65063">
        <ele>460.970062</ele>
        <time>2016-06-05T07:21:57Z</time>
      </trkpt>
      <trkpt lat="45.71595" lon="4.65049">
        <ele>460.301666</ele>
        <time>2016-06-05T07:21:59Z</time>
      </trkpt>
      <trkpt lat="45.71609" lon="4.65033">
        <ele>459.135406</ele>
        <time>2016-06-05T07:22:01Z</time>
      </trkpt>
      <trkpt lat="45.71622" lon="4.65015">
        <ele>458.092773</ele>
        <time>2016-06-05T07:22:03Z</time>
      </trkpt>
      <trkpt lat="45.71634" lon="4.64996">
        <ele>457.197174</ele>
        <time>2016-06-05T07:22:05Z</time>
      </trkpt>
      <trkpt lat="45.71643" lon="4.64979">
        <ele>455.851166</ele>
        <time>2016-06-05T07:22:07Z</time>
      </trkpt>
      <trkpt lat="45.71646" lon="4.64965">
        <ele>454.61792</ele>
        <time>2016-06-05T07:22:09Z</time>
      </trkpt>
      <trkpt lat="45.71645" lon="4.64952">
        <ele>453.457672</ele>
        <time>2016-06-05T07:22:11Z</time>
      </trkpt>
      <trkpt lat="45.71644" lon="4.6494">
        <ele>452.885345</ele>
        <time>2016-06-05T07:22:13Z</time>
      </trkpt>
      <trkpt lat="45.71643" lon="4.64929">
        <ele>451.774597</ele>
        <time>2016-06-05T07:22:15Z</time>
      </trkpt>
      <trkpt lat="45.71642" lon="4.64919">
        <ele>450.894348</ele>
        <time>2016-06-05T07:22:17Z</time>
      </trkpt>
      <trkpt lat="45.7164" lon="4.64909">
        <ele>450.040436</ele>
        <time>2016-06-05T07:22:19Z</time>
      </trkpt>
      <trkpt lat="45.71639" lon="4.649">
        <ele>449.874603</ele>
        <time>2016-06-05T07:22:21Z</time>
      </trkpt>
      <trkpt lat="45.71638" lon="4.64891">
        <ele>449.039642</ele>
        <time>2016-06-05T07:22:23Z</time>
      </trkpt>
      <trkpt lat="45.71637" lon="4.64882">
        <ele>448.684387</ele>
        <time>2016-06-05T07:22:25Z</time>
      </trkpt>
      <trkpt lat="45.71635" lon="4.64873">
        <ele>447.881744</ele>
        <time>2016-06-05T07:22:27Z</time>
      </trkpt>
      <trkpt lat="45.71634" lon="4.64863">
        <ele>447.395813</ele>
        <time>2016-06-05T07:22:29Z</time>
      </trkpt>
      <trkpt lat="45.71632" lon="4.64853">
        <ele>446.846985</ele>
        <time>2016-06-05T07:22:31Z</time>
      </trkpt>
      <trkpt lat="45.71631" lon="4.64842">
        <ele>446.294525</ele>
        <time>2016-06-05T07:22:33Z</time>
      </trkpt>
      <trkpt lat="45.71629" lon="4.64831">
        <ele>445.951477</ele>
        <time>2016-06-05T07:22:35Z</time>
      </trkpt>
      <trkpt lat="45.71628" lon="4.64819">
        <ele>445.35556</ele>
        <time>2016-06-05T07:22:37Z</time>
      </trkpt>
      <trkpt lat="45.71626" lon="4.64806">
        <ele>444.894135</ele>
        <time>2016-06-05T07:22:39Z</time>
      </trkpt>
      <trkpt lat="45.71623" lon="4.64793">
        <ele>444.735931</ele>
        <time>2016-06-05T07:22:41Z</time>
      </trkpt>
      <trkpt lat="45.71618" lon="4.6478">
        <ele>445.082703</ele>
        <time>2016-06-05T07:22:43Z</time>
      </trkpt>
      <trkpt lat="45.71612" lon="4.64766">
        <ele>444.933105</ele>
        <time>2016-06-05T07:22:45Z</time>
      </trkpt>
      <trkpt lat="45.71604" lon="4.64752">
        <ele>444.476074</ele>
        <time>2016-06-05T07:22:47Z</time>
      </trkpt>
      <trkpt lat="45.71595" lon="4.64739">
        <ele>444.652527</ele>
        <time>2016-06-05T07:22:49Z</time>
      </trkpt>
      <trkpt lat="45.71584" lon="4.64726">
        <ele>444.741302</ele>
        <time>2016-06-05T07:22:51Z</time>
      </trkpt>
      <trkpt lat="45.71574" lon="4.64711">
        <ele>444.587311</ele>
        <time>2016-06-05T07:22:53Z</time>
      </trkpt>
      <trkpt lat="45.71568" lon="4.64694">
        <ele>444.380066</ele>
        <time>2016-06-05T07:22:55Z</time>
      </trkpt>
      <trkpt lat="45.71565" lon="4.64678">
        <ele>443.962219</ele>
        <time>2016-06-05T07:22:57Z</time>
      </trkpt>
      <trkpt lat="45.71561" lon="4.64662">
        <ele>443.879883</ele>
        <time>2016-06-05T07:22:59Z</time>
      </trkpt>
      <trkpt lat="45.71556" lon="4.64649">
        <ele>443.714264</ele>
        <time>2016-06-05T07:23:01Z</time>
      </trkpt>
      <trkpt lat="45.7155" lon="4.64635">
        <ele>443.359192</ele>
        <time>2016-06-05T07:23:03Z</time>
      </trkpt>
      <trkpt lat="45.71543" lon="4.64619">
        <ele>442.865631</ele>
        <time>2016-06-05T07:23:05Z</time>
      </trkpt>
      <trkpt lat="45.71536" lon="4.64604">
        <ele>442.47168</ele>
        <time>2016-06-05T07:23:07Z</time>
      </trkpt>
      <trkpt lat="45.71529" lon="4.64589">
        <ele>442.279877</ele>
        <time>2016-06-05T07:23:09Z</time>
      </trkpt>
      <trkpt lat="45.71526" lon="4.64573">
        <ele>441.964447</ele>
        <time>2016-06-05T07:23:11Z</time>
      </trkpt>
      <trkpt lat="45.7153" lon="4.64559">
        <ele>441.687317</ele>
        <time>2016-06-05T07:23:13Z</time>
      </trkpt>
      <trkpt lat="45.71536" lon="4.64551">
        <ele>441.897552</ele>
        <time>2016-06-05T07:23:15Z</time>
      </trkpt>
      <trkpt lat="45.71542" lon="4.64545">
        <ele>441.623352</ele>
        <time>2016-06-05T07:23:17Z</time>
      </trkpt>
      <trkpt lat="45.71547" lon="4.6454">
        <ele>441.450195</ele>
        <time>2016-06-05T07:23:19Z</time>
      </trkpt>
      <trkpt lat="45.71552" lon="4.64536">
        <ele>441.270416</ele>
        <time>2016-06-05T07:23:21Z</time>
      </trkpt>
      <trkpt lat="45.71556" lon="4.64531">
        <ele>441.053772</ele>
        <time>2016-06-05T07:23:23Z</time>
      </trkpt>
      <trkpt lat="45.71559" lon="4.64527">
        <ele>440.865234</ele>
        <time>2016-06-05T07:23:25Z</time>
      </trkpt>
      <trkpt lat="45.71562" lon="4.64523">
        <ele>441.083923</ele>
        <time>2016-06-05T07:23:27Z</time>
      </trkpt>
      <trkpt lat="45.71566" lon="4.64519">
        <ele>441.20517</ele>
        <time>2016-06-05T07:23:29Z</time>
      </trkpt>
      <trkpt lat="45.7157" lon="4.64517">
        <ele>441.211975</ele>
        <time>2016-06-05T07:23:31Z</time>
      </trkpt>
      <trkpt lat="45.71574" lon="4.64517">
        <ele>441.254303</ele>
        <time>2016-06-05T07:23:33Z</time>
      </trkpt>
      <trkpt lat="45.71578" lon="4.64518">
        <ele>441.530579</ele>
        <time>2016-06-05T07:23:35Z</time>
      </trkpt>
      <trkpt lat="45.71581" lon="4.6452">
        <ele>441.859711</ele>
        <time>2016-06-05T07:23:37Z</time>
      </trkpt>
      <trkpt lat="45.71583" lon="4.64521">
        <ele>442.241791</ele>
        <time>2016-06-05T07:23:39Z</time>
      </trkpt>
      <trkpt lat="45.71586" lon="4.64523">
        <ele>442.391754</ele>
        <time>2016-06-05T07:23:41Z</time>
      </trkpt>
      <trkpt lat="45.71589" lon="4.64524">
        <ele>442.710114</ele>
        <time>2016-06-05T07:23:43Z</time>
      </trkpt>
      <trkpt lat="45.71592" lon="4.64526">
        <ele>443.244873</ele>
        <time>2016-06-05T07:23:45Z</time>
      </trkpt>
      <trkpt lat="45.71595" lon="4.64528">
        <ele>443.874908</ele>
        <time>2016-06-05T07:23:47Z</time>
      </trkpt>
      <trkpt lat="45.71598" lon="4.64528">
        <ele>444.489807</ele>
        <time>2016-06-05T07:23:49Z</time>
      </trkpt>
      <trkpt lat="45.716" lon="4.64527">
        <ele>444.895264</ele>
        <time>2016-06-05T07:23:51Z</time>
      </trkpt>
      <trkpt lat="45.71604" lon="4.64526">
        <ele>445.228363</ele>
        <time>2016-06-05T07:23:53Z</time>
      </trkpt>
      <trkpt lat="45.71607" lon="4.64525">
        <ele>445.696198</ele>
        <time>2016-06-05T07:23:55Z</time>
      </trkpt>
      <trkpt lat="45.7161" lon="4.64524">
        <ele>445.822754</ele>
        <time>2016-06-05T07:23:57Z</time>
      </trkpt>
      <trkpt lat="45.71613" lon="4.64524">
        <ele>446.420471</ele>
        <time>2016-06-05T07:23:59Z</time>
      </trkpt>
      <trkpt lat="45.71616" lon="4.64523">
        <ele>446.903412</ele>
        <time>2016-06-05T07:24:01Z</time>
      </trkpt>
      <trkpt lat="45.71619" lon="4.64523">
        <ele>447.301758</ele>
        <time>2016-06-05T07:24:03Z</time>
      </trkpt>
      <trkpt lat="45.71622" lon="4.64522">
        <ele>447.795654</ele>
        <time>2016-06-05T07:24:05Z</time>
      </trkpt>
      <trkpt lat="45.71625" lon="4.64522">
        <ele>448.081635</ele>
        <time>2016-06-05T07:24:07Z</time>
      </trkpt>
      <trkpt lat="45.71627" lon="4.64522">
        <ele>448.417419</ele>
        <time>2016-06-05T07:24:09Z</time>
      </trkpt>
      <trkpt lat="45.71631" lon="4.64521">
        <ele>448.858063</ele>
        <time>2016-06-05T07:24:11Z</time>
      </trkpt>
      <trkpt lat="45.71633" lon="4.64521">
        <ele>449.383362</ele>
        <time>2016-06-05T07:24:13Z</time>
      </trkpt>
      <trkpt lat="45.71636" lon="4.6452">
        <ele>449.778656</ele>
        <time>2016-06-05T07:24:15Z</time>
      </trkpt>
      <trkpt lat="45.71639" lon="4.64519">
        <ele>450.095032</ele>
        <time>2016-06-05T07:24:17Z</time>
      </trkpt>
      <trkpt lat="45.71641" lon="4.64518">
        <ele>450.572937</ele>
        <time>2016-06-05T07:24:19Z</time>
      </trkpt>
      <trkpt lat="45.71644" lon="4.64516">
        <ele>451.012848</ele>
        <time>2016-06-05T07:24:21Z</time>
      </trkpt>
      <trkpt lat="45.71647" lon="4.64514">
        <ele>451.296204</ele>
        <time>2016-06-05T07:24:23Z</time>
      </trkpt>
      <trkpt lat="45.7165" lon="4.64512">
        <ele>451.686829</ele>
        <time>2016-06-05T07:24:25Z</time>
      </trkpt>
      <trkpt lat="45.71653" lon="4.64509">
        <ele>452.062103</ele>
        <time>2016-06-05T07:24:27Z</time>
      </trkpt>
      <trkpt lat="45.71655" lon="4.64506">
        <ele>452.415344</ele>
        <time>2016-06-05T07:24:29Z</time>
      </trkpt>
      <trkpt lat="45.71658" lon="4.64502">
        <ele>452.770813</ele>
        <time>2016-06-05T07:24:31Z</time>
      </trkpt>
      <trkpt lat="45.71661" lon="4.64497">
        <ele>453.08725</ele>
        <time>2016-06-05T07:24:33Z</time>
      </trkpt>
      <trkpt lat="45.71665" lon="4.64492">
        <ele>453.434265</ele>
        <time>2016-06-05T07:24:35Z</time>
      </trkpt>
      <trkpt lat="45.71668" lon="4.64487">
        <ele>453.775635</ele>
        <time>2016-06-05T07:24:37Z</time>
      </trkpt>
      <trkpt lat="45.71672" lon="4.64482">
        <ele>453.962006</ele>
        <time>2016-06-05T07:24:39Z</time>
      </trkpt>
      <trkpt lat="45.71676" lon="4.64476">
        <ele>454.074768</ele>
        <time>2016-06-05T07:24:41Z</time>
      </trkpt>
      <trkpt lat="45.7168" lon="4.64469">
        <ele>454.352203</ele>
        <time>2016-06-05T07:24:43Z</time>
      </trkpt>
      <trkpt lat="45.71683" lon="4.64463">
        <ele>454.551819</ele>
        <time>2016-06-05T07:24:45Z</time>
      </trkpt>
      <trkpt lat="45.71686" lon="4.64455">
        <ele>454.725922</ele>
        <time>2016-06-05T07:24:47Z</time>
      </trkpt>
      <trkpt lat="45.71689" lon="4.64446">
        <ele>454.997009</ele>
        <time>2016-06-05T07:24:49Z</time>
      </trkpt>
      <trkpt lat="45.71693" lon="4.64433">
        <ele>455.296234</ele>
        <time>2016-06-05T07:24:51Z</time>
      </trkpt>
      <trkpt lat="45.71698" lon="4.64419">
        <ele>455.231262</ele>
        <time>2016-06-05T07:24:53Z</time>
      </trkpt>
      <trkpt lat="45.71701" lon="4.64405">
        <ele>455.161926</ele>
        <time>2016-06-05T07:24:55Z</time>
      </trkpt>
      <trkpt lat="45.71704" lon="4.64393">
        <ele>455.118744</ele>
        <time>2016-06-05T07:24:57Z</time>
      </trkpt>
      <trkpt lat="45.71707" lon="4.64382">
        <ele>454.95874</ele>
        <time>2016-06-05T07:24:59Z</time>
      </trkpt>
      <trkpt lat="45.7171" lon="4.6437">
        <ele>454.473572</ele>
        <time>2016-06-05T07:25:01Z</time>
      </trkpt>
      <trkpt lat="45.71712" lon="4.64357">
        <ele>453.894226</ele>
        <time>2016-06-05T07:25:03Z</time>
      </trkpt>
      <trkpt lat="45.71712" lon="4.64343">
        <ele>453.072693</ele>
        <time>2016-06-05T07:25:05Z</time>
      </trkpt>
      <trkpt lat="45.7171" lon="4.6433">
        <ele>452.294617</ele>
        <time>2016-06-05T07:25:07Z</time>
      </trkpt>
      <trkpt lat="45.71706" lon="4.64317">
        <ele>451.101379</ele>
        <time>2016-06-05T07:25:09Z</time>
      </trkpt>
      <trkpt lat="45.71699" lon="4.64304">
        <ele>450.128967</ele>
        <time>2016-06-05T07:25:11Z</time>
      </trkpt>
      <trkpt lat="45.71693" lon="4.64289">
        <ele>448.970215</ele>
        <time>2016-06-05T07:25:13Z</time>
      </trkpt>
      <trkpt lat="45.71693" lon="4.64272">
        <ele>447.930664</ele>
        <time>2016-06-05T07:25:15Z</time>
      </trkpt>
      <trkpt lat="45.71694" lon="4.64258">
        <ele>447.304932</ele>
        <time>2016-06-05T07:25:17Z</time>
      </trkpt>
      <trkpt lat="45.71692" lon="4.64243">
        <ele>446.225922</ele>
        <time>2016-06-05T07:25:19Z</time>
      </trkpt>
      <trkpt lat="45.71686" lon="4.64227">
        <ele>445.249207</ele>
        <time>2016-06-05T07:25:21Z</time>
      </trkpt>
      <trkpt lat="45.7168" lon="4.64212">
        <ele>444.413269</ele>
        <time>2016-06-05T07:25:23Z</time>
      </trkpt>
      <trkpt lat="45.71674" lon="4.64197">
        <ele>442.655823</ele>
        <time>2016-06-05T07:25:25Z</time>
      </trkpt>
      <trkpt lat="45.71668" lon="4.64182">
        <ele>441.267334</ele>
        <time>2016-06-05T07:25:27Z</time>
      </trkpt>
      <trkpt lat="45.71664" lon="4.64168">
        <ele>439.925781</ele>
        <time>2016-06-05T07:25:29Z</time>
      </trkpt>
      <trkpt lat="45.71663" lon="4.64151">
        <ele>438.300232</ele>
        <time>2016-06-05T07:25:31Z</time>
      </trkpt>
      <trkpt lat="45.71665" lon="4.64134">
        <ele>435.851318</ele>
        <time>2016-06-05T07:25:33Z</time>
      </trkpt>
      <trkpt lat="45.71665" lon="4.64115">
        <ele>434.013</ele>
        <time>2016-06-05T07:25:35Z</time>
      </trkpt>
      <trkpt lat="45.71666" lon="4.64092">
        <ele>433.050293</ele>
        <time>2016-06-05T07:25:37Z</time>
      </trkpt>
      <trkpt lat="45.71663" lon="4.64071">
        <ele>430.97934</ele>
        <time>2016-06-05T07:25:39Z</time>
      </trkpt>
      <trkpt lat="45.71661" lon="4.64054">
        <ele>429.230469</ele>
        <time>2016-06-05T07:25:41Z</time>
      </trkpt>
      <trkpt lat="45.71663" lon="4.64041">
        <ele>427.606262</ele>
        <time>2016-06-05T07:25:43Z</time>
      </trkpt>
      <trkpt lat="45.71668" lon="4.64027">
        <ele>426.056824</ele>
        <time>2016-06-05T07:25:45Z</time>
      </trkpt>
      <trkpt lat="45.71675" lon="4.64014">
        <ele>424.73175</ele>
        <time>2016-06-05T07:25:47Z</time>
      </trkpt>
      <trkpt lat="45.71684" lon="4.64004">
        <ele>423.225189</ele>
        <time>2016-06-05T07:25:49Z</time>
      </trkpt>
      <trkpt lat="45.71693" lon="4.63995">
        <ele>422.004547</ele>
        <time>2016-06-05T07:25:51Z</time>
      </trkpt>
      <trkpt lat="45.71702" lon="4.63988">
        <ele>420.729492</ele>
        <time>2016-06-05T07:25:53Z</time>
      </trkpt>
      <trkpt lat="45.71709" lon="4.63979">
        <ele>419.318756</ele>
        <time>2016-06-05T07:25:55Z</time>
      </trkpt>
      <trkpt lat="45.71715" lon="4.63968">
        <ele>417.860291</ele>
        <time>2016-06-05T07:25:57Z</time>
      </trkpt>
      <trkpt lat="45.7172" lon="4.63955">
        <ele>416.631256</ele>
        <time>2016-06-05T07:25:59Z</time>
      </trkpt>
      <trkpt lat="45.71723" lon="4.6394">
        <ele>415.166504</ele>
        <time>2016-06-05T07:26:01Z</time>
      </trkpt>
      <trkpt lat="45.71725" lon="4.63926">
        <ele>414.470886</ele>
        <time>2016-06-05T07:26:03Z</time>
      </trkpt>
      <trkpt lat="45.71727" lon="4.63911">
        <ele>413.007751</ele>
        <time>2016-06-05T07:26:05Z</time>
      </trkpt>
      <trkpt lat="45.71728" lon="4.63897">
        <ele>412.135559</ele>
        <time>2016-06-05T07:26:07Z</time>
      </trkpt>
      <trkpt lat="45.71727" lon="4.63883">
        <ele>410.600159</ele>
        <time>2016-06-05T07:26:09Z</time>
      </trkpt>
      <trkpt lat="45.71727" lon="4.6387">
        <ele>409.238739</ele>
        <time>2016-06-05T07:26:11Z</time>
      </trkpt>
      <trkpt lat="45.71727" lon="4.63857">
        <ele>408.217316</ele>
        <time>2016-06-05T07:26:13Z</time>
      </trkpt>
      <trkpt lat="45.71726" lon="4.63845">
        <ele>407.949402</ele>
        <time>2016-06-05T07:26:15Z</time>
      </trkpt>
      <trkpt lat="45.71724" lon="4.63832">
        <ele>407.676636</ele>
        <time>2016-06-05T07:26:17Z</time>
      </trkpt>
      <trkpt lat="45.71723" lon="4.63819">
        <ele>407.356903</ele>
        <time>2016-06-05T07:26:19Z</time>
      </trkpt>
      <trkpt lat="45.71721" lon="4.63807">
        <ele>406.470459</ele>
        <time>2016-06-05T07:26:21Z</time>
      </trkpt>
      <trkpt lat="45.71719" lon="4.63795">
        <ele>405.836121</ele>
        <time>2016-06-05T07:26:23Z</time>
      </trkpt>
      <trkpt lat="45.71717" lon="4.63785">
        <ele>405.203949</ele>
        <time>2016-06-05T07:26:25Z</time>
      </trkpt>
      <trkpt lat="45.71714" lon="4.63774">
        <ele>404.724457</ele>
        <time>2016-06-05T07:26:27Z</time>
      </trkpt>
      <trkpt lat="45.71713" lon="4.63767">
        <ele>404.316589</ele>
        <time>2016-06-05T07:26:29Z</time>
      </trkpt>
      <trkpt lat="45.71711" lon="4.63759">
        <ele>403.743896</ele>
        <time>2016-06-05T07:26:31Z</time>
      </trkpt>
      <trkpt lat="45.71709" lon="4.63749">
        <ele>403.290405</ele>
        <time>2016-06-05T07:26:33Z</time>
      </trkpt>
      <trkpt lat="45.71708" lon="4.63739">
        <ele>402.604492</ele>
        <time>2016-06-05T07:26:35Z</time>
      </trkpt>
      <trkpt lat="45.71706" lon="4.6373">
        <ele>402.056732</ele>
        <time>2016-06-05T07:26:37Z</time>
      </trkpt>
      <trkpt lat="45.71705" lon="4.63721">
        <ele>401.612152</ele>
        <time>2016-06-05T07:26:39Z</time>
      </trkpt>
      <trkpt lat="45.71707" lon="4.63715">
        <ele>400.837921</ele>
        <time>2016-06-05T07:26:41Z</time>
      </trkpt>
      <trkpt lat="45.71712" lon="4.63716">
        <ele>400.393341</ele>
        <time>2016-06-05T07:26:43Z</time>
      </trkpt>
      <trkpt lat="45.71715" lon="4.63722">
        <ele>399.802704</ele>
        <time>2016-06-05T07:26:45Z</time>
      </trkpt>
      <trkpt lat="45.71718" lon="4.63727">
        <ele>399.231384</ele>
        <time>2016-06-05T07:26:47Z</time>
      </trkpt>
      <trkpt lat="45.71722" lon="4.63731">
        <ele>398.804504</ele>
        <time>2016-06-05T07:26:49Z</time>
      </trkpt>
      <trkpt lat="45.71725" lon="4.63736">
        <ele>398.345306</ele>
        <time>2016-06-05T07:26:51Z</time>
      </trkpt>
      <trkpt lat="45.71728" lon="4.63741">
        <ele>398.226776</ele>
        <time>2016-06-05T07:26:53Z</time>
      </trkpt>
      <trkpt lat="45.71732" lon="4.63747">
        <ele>397.752472</ele>
        <time>2016-06-05T07:26:55Z</time>
      </trkpt>
      <trkpt lat="45.71739" lon="4.63754">
        <ele>397.250427</ele>
        <time>2016-06-05T07:26:57Z</time>
      </trkpt>
      <trkpt lat="45.71745" lon="4.63764">
        <ele>396.576324</ele>
        <time>2016-06-05T07:26:59Z</time>
      </trkpt>
      <trkpt lat="45.7175" lon="4.63774">
        <ele>395.953735</ele>
        <time>2016-06-05T07:27:01Z</time>
      </trkpt>
      <trkpt lat="45.71755" lon="4.63787">
        <ele>395.457947</ele>
        <time>2016-06-05T07:27:03Z</time>
      </trkpt>
      <trkpt lat="45.71759" lon="4.63801">
        <ele>395.116241</ele>
        <time>2016-06-05T07:27:05Z</time>
      </trkpt>
      <trkpt lat="45.71763" lon="4.63817">
        <ele>394.720398</ele>
        <time>2016-06-05T07:27:07Z</time>
      </trkpt>
      <trkpt lat="45.71766" lon="4.63834">
        <ele>394.21225</ele>
        <time>2016-06-05T07:27:09Z</time>
      </trkpt>
      <trkpt lat="45.7177" lon="4.6385">
        <ele>393.616425</ele>
        <time>2016-06-05T07:27:11Z</time>
      </trkpt>
      <trkpt lat="45.71775" lon="4.63862">
        <ele>393.137848</ele>
        <time>2016-06-05T07:27:13Z</time>
      </trkpt>
      <trkpt lat="45.71779" lon="4.63876">
        <ele>392.237579</ele>
        <time>2016-06-05T07:27:15Z</time>
      </trkpt>
      <trkpt lat="45.71785" lon="4.63891">
        <ele>392.218201</ele>
        <time>2016-06-05T07:27:17Z</time>
      </trkpt>
      <trkpt lat="45.71792" lon="4.63904">
        <ele>391.376282</ele>
        <time>2016-06-05T07:27:19Z</time>
      </trkpt>
      <trkpt lat="45.718" lon="4.63918">
        <ele>390.351532</ele>
        <time>2016-06-05T07:27:21Z</time>
      </trkpt>
      <trkpt lat="45.71806" lon="4.63931">
        <ele>389.455811</ele>
        <time>2016-06-05T07:27:23Z</time>
      </trkpt>
      <trkpt lat="45.71809" lon="4.63942">
        <ele>388.634552</ele>
        <time>2016-06-05T07:27:25Z</time>
      </trkpt>
      <trkpt lat="45.71813" lon="4.63952">
        <ele>387.830536</ele>
        <time>2016-06-05T07:27:27Z</time>
      </trkpt>
      <trkpt lat="45.71816" lon="4.6396">
        <ele>386.919952</ele>
        <time>2016-06-05T07:27:29Z</time>
      </trkpt>
      <trkpt lat="45.71819" lon="4.63963">
        <ele>385.931763</ele>
        <time>2016-06-05T07:27:31Z</time>
      </trkpt>
      <trkpt lat="45.71822" lon="4.63962">
        <ele>385.01532</ele>
        <time>2016-06-05T07:27:33Z</time>
      </trkpt>
      <trkpt lat="45.71827" lon="4.63959">
        <ele>383.943207</ele>
        <time>2016-06-05T07:27:35Z</time>
      </trkpt>
      <trkpt lat="45.71834" lon="4.63956">
        <ele>382.806458</ele>
        <time>2016-06-05T07:27:37Z</time>
      </trkpt>
      <trkpt lat="45.71841" lon="4.63953">
        <ele>382.412506</ele>
        <time>2016-06-05T07:27:39Z</time>
      </trkpt>
      <trkpt lat="45.71849" lon="4.63951">
        <ele>381.459656</ele>
        <time>2016-06-05T07:27:41Z</time>
      </trkpt>
      <trkpt lat="45.71856" lon="4.63947">
        <ele>380.645996</ele>
        <time>2016-06-05T07:27:43Z</time>
      </trkpt>
      <trkpt lat="45.71863" lon="4.63944">
        <ele>379.765503</ele>
        <time>2016-06-05T07:27:45Z</time>
      </trkpt>
      <trkpt lat="45.71871" lon="4.63941">
        <ele>378.722534</ele>
        <time>2016-06-05T07:27:47Z</time>
      </trkpt>
      <trkpt lat="45.71877" lon="4.6394">
        <ele>377.783264</ele>
        <time>2016-06-05T07:27:49Z</time>
      </trkpt>
      <trkpt lat="45.71882" lon="4.63936">
        <ele>376.978058</ele>
        <time>2016-06-05T07:27:51Z</time>
      </trkpt>
      <trkpt lat="45.71883" lon="4.6393">
        <ele>376.31781</ele>
        <time>2016-06-05T07:27:53Z</time>
      </trkpt>
      <trkpt lat="45.7188" lon="4.63923">
        <ele>375.629761</ele>
        <time>2016-06-05T07:27:55Z</time>
      </trkpt>
      <trkpt lat="45.71877" lon="4.63916">
        <ele>375.427643</ele>
        <time>2016-06-05T07:27:57Z</time>
      </trkpt>
      <trkpt lat="45.71872" lon="4.63908">
        <ele>374.71283</ele>
        <time>2016-06-05T07:27:59Z</time>
      </trkpt>
      <trkpt lat="45.71869" lon="4.63901">
        <ele>374.764435</ele>
        <time>2016-06-05T07:28:01Z</time>
      </trkpt>
      <trkpt lat="45.71864" lon="4.63893">
        <ele>374.757996</ele>
        <time>2016-06-05T07:28:03Z</time>
      </trkpt>
      <trkpt lat="45.71861" lon="4.63885">
        <ele>374.775208</ele>
        <time>2016-06-05T07:28:05Z</time>
      </trkpt>
      <trkpt lat="45.71856" lon="4.63877">
        <ele>374.668671</ele>
        <time>2016-06-05T07:28:07Z</time>
      </trkpt>
      <trkpt lat="45.71852" lon="4.6387">
        <ele>374.534302</ele>
        <time>2016-06-05T07:28:09Z</time>
      </trkpt>
      <trkpt lat="45.71848" lon="4.63861">
        <ele>374.637543</ele>
        <time>2016-06-05T07:28:11Z</time>
      </trkpt>
      <trkpt lat="45.71844" lon="4.63852">
        <ele>374.796722</ele>
        <time>2016-06-05T07:28:13Z</time>
      </trkpt>
      <trkpt lat="45.71841" lon="4.63842">
        <ele>374.920441</ele>
        <time>2016-06-05T07:28:15Z</time>
      </trkpt>
      <trkpt lat="45.71838" lon="4.63831">
        <ele>375.135742</ele>
        <time>2016-06-05T07:28:17Z</time>
      </trkpt>
      <trkpt lat="45.71836" lon="4.6382">
        <ele>375.365906</ele>
        <time>2016-06-05T07:28:19Z</time>
      </trkpt>
      <trkpt lat="45.71834" lon="4.63809">
        <ele>375.51001</ele>
        <time>2016-06-05T07:28:21Z</time>
      </trkpt>
      <trkpt lat="45.71833" lon="4.63799">
        <ele>375.644592</ele>
        <time>2016-06-05T07:28:23Z</time>
      </trkpt>
      <trkpt lat="45.71832" lon="4.63788">
        <ele>375.799469</ele>
        <time>2016-06-05T07:28:25Z</time>
      </trkpt>
      <trkpt lat="45.71832" lon="4.63778">
        <ele>376.041199</ele>
        <time>2016-06-05T07:28:27Z</time>
      </trkpt>
      <trkpt lat="45.71832" lon="4.63768">
        <ele>376.292908</ele>
        <time>2016-06-05T07:28:29Z</time>
      </trkpt>
      <trkpt lat="45.71832" lon="4.63758">
        <ele>376.38324</ele>
        <time>2016-06-05T07:28:31Z</time>
      </trkpt>
      <trkpt lat="45.71832" lon="4.63748">
        <ele>376.526428</ele>
        <time>2016-06-05T07:28:33Z</time>
      </trkpt>
      <trkpt lat="45.71831" lon="4.63739">
        <ele>376.730286</ele>
        <time>2016-06-05T07:28:35Z</time>
      </trkpt>
      <trkpt lat="45.7183" lon="4.63733">
        <ele>376.833405</ele>
        <time>2016-06-05T07:28:37Z</time>
      </trkpt>
      <trkpt lat="45.7183" lon="4.63727">
        <ele>376.917297</ele>
        <time>2016-06-05T07:28:39Z</time>
      </trkpt>
      <trkpt lat="45.71829" lon="4.63723">
        <ele>377.052887</ele>
        <time>2016-06-05T07:28:41Z</time>
      </trkpt>
      <trkpt lat="45.71829" lon="4.63719">
        <ele>377.147522</ele>
        <time>2016-06-05T07:28:43Z</time>
      </trkpt>
      <trkpt lat="45.71828" lon="4.63715">
        <ele>377.306732</ele>
        <time>2016-06-05T07:28:45Z</time>
      </trkpt>
      <trkpt lat="45.71827" lon="4.63711">
        <ele>377.416443</ele>
        <time>2016-06-05T07:28:47Z</time>
      </trkpt>
      <trkpt lat="45.71827" lon="4.63707">
        <ele>377.519287</ele>
        <time>2016-06-05T07:28:49Z</time>
      </trkpt>
      <trkpt lat="45.71827" lon="4.63703">
        <ele>377.646881</ele>
        <time>2016-06-05T07:28:51Z</time>
      </trkpt>
      <trkpt lat="45.71826" lon="4.63699">
        <ele>377.749115</ele>
        <time>2016-06-05T07:28:53Z</time>
      </trkpt>
      <trkpt lat="45.71825" lon="4.63694">
        <ele>377.818359</ele>
        <time>2016-06-05T07:28:55Z</time>
      </trkpt>
      <trkpt lat="45.71825" lon="4.63689">
        <ele>377.927917</ele>
        <time>2016-06-05T07:28:57Z</time>
      </trkpt>
      <trkpt lat="45.71825" lon="4.63685">
        <ele>378.016174</ele>
        <time>2016-06-05T07:28:59Z</time>
      </trkpt>
      <trkpt lat="45.71824" lon="4.63681">
        <ele>378.089355</ele>
        <time>2016-06-05T07:29:01Z</time>
      </trkpt>
      <trkpt lat="45.71824" lon="4.63676">
        <ele>378.218445</ele>
        <time>2016-06-05T07:29:03Z</time>
      </trkpt>
      <trkpt lat="45.71823" lon="4.6367">
        <ele>378.308838</ele>
        <time>2016-06-05T07:29:05Z</time>
      </trkpt>
      <trkpt lat="45.71823" lon="4.63663">
        <ele>378.434753</ele>
        <time>2016-06-05T07:29:07Z</time>
      </trkpt>
      <trkpt lat="45.71823" lon="4.63657">
        <ele>378.512146</ele>
        <time>2016-06-05T07:29:09Z</time>
      </trkpt>
      <trkpt lat="45.71822" lon="4.6365">
        <ele>378.563812</ele>
        <time>2016-06-05T07:29:11Z</time>
      </trkpt>
      <trkpt lat="45.71821" lon="4.63643">
        <ele>378.71228</ele>
        <time>2016-06-05T07:29:13Z</time>
      </trkpt>
      <trkpt lat="45.7182" lon="4.63635">
        <ele>378.816528</ele>
        <time>2016-06-05T07:29:15Z</time>
      </trkpt>
      <trkpt lat="45.71819" lon="4.63626">
        <ele>378.889893</ele>
        <time>2016-06-05T07:29:17Z</time>
      </trkpt>
      <trkpt lat="45.71818" lon="4.63618">
        <ele>379.025391</ele>
        <time>2016-06-05T07:29:19Z</time>
      </trkpt>
      <trkpt lat="45.71817" lon="4.6361">
        <ele>379.079193</ele>
        <time>2016-06-05T07:29:21Z</time>
      </trkpt>
      <trkpt lat="45.71816" lon="4.63602">
        <ele>379.193268</ele>
        <time>2016-06-05T07:29:23Z</time>
      </trkpt>
      <trkpt lat="45.71815" lon="4.63594">
        <ele>379.249207</ele>
        <time>2016-06-05T07:29:25Z</time>
      </trkpt>
      <trkpt lat="45.71814" lon="4.63586">
        <ele>379.36969</ele>
        <time>2016-06-05T07:29:27Z</time>
      </trkpt>
      <trkpt lat="45.71812" lon="4.63579">
        <ele>379.501892</ele>
        <time>2016-06-05T07:29:29Z</time>
      </trkpt>
      <trkpt lat="45.7181" lon="4.63571">
        <ele>379.57077</ele>
        <time>2016-06-05T07:29:31Z</time>
      </trkpt>
      <trkpt lat="45.71807" lon="4.63564">
        <ele>379.715363</ele>
        <time>2016-06-05T07:29:33Z</time>
      </trkpt>
      <trkpt lat="45.71804" lon="4.63556">
        <ele>379.801453</ele>
        <time>2016-06-05T07:29:35Z</time>
      </trkpt>
      <trkpt lat="45.71801" lon="4.63548">
        <ele>380.036072</ele>
        <time>2016-06-05T07:29:37Z</time>
      </trkpt>
      <trkpt lat="45.71798" lon="4.6354">
        <ele>380.17157</ele>
        <time>2016-06-05T07:29:39Z</time>
      </trkpt>
      <trkpt lat="45.71795" lon="4.63532">
        <ele>380.298523</ele>
        <time>2016-06-05T07:29:41Z</time>
      </trkpt>
      <trkpt lat="45.71792" lon="4.63524">
        <ele>380.492249</ele>
        <time>2016-06-05T07:29:43Z</time>
      </trkpt>
      <trkpt lat="45.7179" lon="4.63516">
        <ele>380.500854</ele>
        <time>2016-06-05T07:29:45Z</time>
      </trkpt>
      <trkpt lat="45.71788" lon="4.63507">
        <ele>380.725769</ele>
        <time>2016-06-05T07:29:47Z</time>
      </trkpt>
      <trkpt lat="45.71786" lon="4.63497">
        <ele>380.933868</ele>
        <time>2016-06-05T07:29:49Z</time>
      </trkpt>
      <trkpt lat="45.71784" lon="4.63487">
        <ele>381.105042</ele>
        <time>2016-06-05T07:29:51Z</time>
      </trkpt>
      <trkpt lat="45.71782" lon="4.63476">
        <ele>381.251099</ele>
        <time>2016-06-05T07:29:53Z</time>
      </trkpt>
      <trkpt lat="45.7178" lon="4.63465">
        <ele>381.373779</ele>
        <time>2016-06-05T07:29:55Z</time>
      </trkpt>
      <trkpt lat="45.71779" lon="4.63454">
        <ele>381.498413</ele>
        <time>2016-06-05T07:29:57Z</time>
      </trkpt>
      <trkpt lat="45.71777" lon="4.63443">
        <ele>381.578064</ele>
        <time>2016-06-05T07:29:59Z</time>
      </trkpt>
      <trkpt lat="45.71777" lon="4.63433">
        <ele>381.832092</ele>
        <time>2016-06-05T07:30:01Z</time>
      </trkpt>
      <trkpt lat="45.71779" lon="4.63421">
        <ele>381.731171</ele>
        <time>2016-06-05T07:30:03Z</time>
      </trkpt>
      <trkpt lat="45.7178" lon="4.63409">
        <ele>381.711792</ele>
        <time>2016-06-05T07:30:05Z</time>
      </trkpt>
      <trkpt lat="45.71783" lon="4.63397">
        <ele>381.858765</ele>
        <time>2016-06-05T07:30:07Z</time>
      </trkpt>
      <trkpt lat="45.71784" lon="4.63386">
        <ele>381.95993</ele>
        <time>2016-06-05T07:30:09Z</time>
      </trkpt>
      <trkpt lat="45.71786" lon="4.63375">
        <ele>382.055847</ele>
        <time>2016-06-05T07:30:11Z</time>
      </trkpt>
      <trkpt lat="45.71787" lon="4.63364">
        <ele>382.144104</ele>
        <time>2016-06-05T07:30:13Z</time>
      </trkpt>
      <trkpt lat="45.71788" lon="4.63353">
        <ele>382.206543</ele>
        <time>2016-06-05T07:30:15Z</time>
      </trkpt>
      <trkpt lat="45.71789" lon="4.63342">
        <ele>382.333588</ele>
        <time>2016-06-05T07:30:17Z</time>
      </trkpt>
      <trkpt lat="45.71789" lon="4.63331">
        <ele>382.447693</ele>
        <time>2016-06-05T07:30:19Z</time>
      </trkpt>
      <trkpt lat="45.71789" lon="4.63319">
        <ele>382.542419</ele>
        <time>2016-06-05T07:30:21Z</time>
      </trkpt>
      <trkpt lat="45.7179" lon="4.63308">
        <ele>382.689758</ele>
        <time>2016-06-05T07:30:23Z</time>
      </trkpt>
      <trkpt lat="45.7179" lon="4.63296">
        <ele>382.732849</ele>
        <time>2016-06-05T07:30:25Z</time>
      </trkpt>
      <trkpt lat="45.7179" lon="4.63286">
        <ele>382.728546</ele>
        <time>2016-06-05T07:30:27Z</time>
      </trkpt>
      <trkpt lat="45.7179" lon="4.63275">
        <ele>382.730713</ele>
        <time>2016-06-05T07:30:29Z</time>
      </trkpt>
      <trkpt lat="45.71791" lon="4.63264">
        <ele>382.761475</ele>
        <time>2016-06-05T07:30:31Z</time>
      </trkpt>
      <trkpt lat="45.71791" lon="4.63253">
        <ele>382.844177</ele>
        <time>2016-06-05T07:30:33Z</time>
      </trkpt>
      <trkpt lat="45.71792" lon="4.63242">
        <ele>383.012421</ele>
        <time>2016-06-05T07:30:35Z</time>
      </trkpt>
      <trkpt lat="45.71792" lon="4.63231">
        <ele>383.156586</ele>
        <time>2016-06-05T07:30:37Z</time>
      </trkpt>
      <trkpt lat="45.7179" lon="4.63221">
        <ele>383.29007</ele>
        <time>2016-06-05T07:30:39Z</time>
      </trkpt>
      <trkpt lat="45.71789" lon="4.63212">
        <ele>383.483826</ele>
        <time>2016-06-05T07:30:41Z</time>
      </trkpt>
      <trkpt lat="45.71785" lon="4.63204">
        <ele>383.591492</ele>
        <time>2016-06-05T07:30:43Z</time>
      </trkpt>
      <trkpt lat="45.71782" lon="4.63196">
        <ele>383.987366</ele>
        <time>2016-06-05T07:30:45Z</time>
      </trkpt>
      <trkpt lat="45.71777" lon="4.63188">
        <ele>384.165436</ele>
        <time>2016-06-05T07:30:47Z</time>
      </trkpt>
      <trkpt lat="45.71773" lon="4.63179">
        <ele>384.408722</ele>
        <time>2016-06-05T07:30:49Z</time>
      </trkpt>
      <trkpt lat="45.71769" lon="4.63169">
        <ele>384.513153</ele>
        <time>2016-06-05T07:30:51Z</time>
      </trkpt>
      <trkpt lat="45.71767" lon="4.63161">
        <ele>384.685394</ele>
        <time>2016-06-05T07:30:53Z</time>
      </trkpt>
      <trkpt lat="45.71764" lon="4.63153">
        <ele>384.943787</ele>
        <time>2016-06-05T07:30:55Z</time>
      </trkpt>
      <trkpt lat="45.71762" lon="4.63145">
        <ele>385.221527</ele>
        <time>2016-06-05T07:30:57Z</time>
      </trkpt>
      <trkpt lat="45.71759" lon="4.63141">
        <ele>385.296906</ele>
        <time>2016-06-05T07:30:59Z</time>
      </trkpt>
      <trkpt lat="45.71755" lon="4.63142">
        <ele>385.370117</ele>
        <time>2016-06-05T07:31:01Z</time>
      </trkpt>
      <trkpt lat="45.71753" lon="4.63145">
        <ele>385.563293</ele>
        <time>2016-06-05T07:31:03Z</time>
      </trkpt>
      <trkpt lat="45.71752" lon="4.63149">
        <ele>385.616272</ele>
        <time>2016-06-05T07:31:05Z</time>
      </trkpt>
      <trkpt lat="45.71752" lon="4.63154">
        <ele>385.937103</ele>
        <time>2016-06-05T07:31:07Z</time>
      </trkpt>
      <trkpt lat="45.71751" lon="4.63158">
        <ele>386.329041</ele>
        <time>2016-06-05T07:31:09Z</time>
      </trkpt>
      <trkpt lat="45.7175" lon="4.63162">
        <ele>386.611145</ele>
        <time>2016-06-05T07:31:11Z</time>
      </trkpt>
      <trkpt lat="45.7175" lon="4.63165">
        <ele>386.86853</ele>
        <time>2016-06-05T07:31:13Z</time>
      </trkpt>
      <trkpt lat="45.7175" lon="4.63168">
        <ele>387.147491</ele>
        <time>2016-06-05T07:31:15Z</time>
      </trkpt>
      <trkpt lat="45.71749" lon="4.63172">
        <ele>387.546021</ele>
        <time>2016-06-05T07:31:17Z</time>
      </trkpt>
      <trkpt lat="45.71749" lon="4.63175">
        <ele>387.946625</ele>
        <time>2016-06-05T07:31:19Z</time>
      </trkpt>
      <trkpt lat="45.71748" lon="4.63178">
        <ele>388.332214</ele>
        <time>2016-06-05T07:31:21Z</time>
      </trkpt>
      <trkpt lat="45.71746" lon="4.6318">
        <ele>388.644562</ele>
        <time>2016-06-05T07:31:23Z</time>
      </trkpt>
      <trkpt lat="45.71745" lon="4.6318">
        <ele>389.00647</ele>
        <time>2016-06-05T07:31:25Z</time>
      </trkpt>
      <trkpt lat="45.71743" lon="4.6318">
        <ele>389.463104</ele>
        <time>2016-06-05T07:31:27Z</time>
      </trkpt>
      <trkpt lat="45.71742" lon="4.63179">
        <ele>389.669952</ele>
        <time>2016-06-05T07:31:29Z</time>
      </trkpt>
      <trkpt lat="45.7174" lon="4.63177">
        <ele>390.067444</ele>
        <time>2016-06-05T07:31:31Z</time>
      </trkpt>
      <trkpt lat="45.71739" lon="4.63176">
        <ele>390.583374</ele>
        <time>2016-06-05T07:31:33Z</time>
      </trkpt>
      <trkpt lat="45.71736" lon="4.63175">
        <ele>392.442841</ele>
        <time>2016-06-05T07:31:41Z</time>
      </trkpt>
      <trkpt lat="45.71735" lon="4.63174">
        <ele>392.895935</ele>
        <time>2016-06-05T07:31:43Z</time>
      </trkpt>
      <trkpt lat="45.71734" lon="4.63174">
        <ele>393.378601</ele>
        <time>2016-06-05T07:31:45Z</time>
      </trkpt>
      <trkpt lat="45.71732" lon="4.63173">
        <ele>394.029205</ele>
        <time>2016-06-05T07:31:47Z</time>
      </trkpt>
      <trkpt lat="45.71731" lon="4.63172">
        <ele>394.447266</ele>
        <time>2016-06-05T07:31:49Z</time>
      </trkpt>
      <trkpt lat="45.71725" lon="4.63168">
        <ele>396.983887</ele>
        <time>2016-06-05T07:32:03Z</time>
      </trkpt>
      <trkpt lat="45.71719" lon="4.63165">
        <ele>398.530273</ele>
        <time>2016-06-05T07:32:11Z</time>
      </trkpt>
      <trkpt lat="45.71718" lon="4.63164">
        <ele>398.868774</ele>
        <time>2016-06-05T07:32:13Z</time>
      </trkpt>
      <trkpt lat="45.71716" lon="4.63163">
        <ele>399.153381</ele>
        <time>2016-06-05T07:32:15Z</time>
      </trkpt>
      <trkpt lat="45.71713" lon="4.63164">
        <ele>400.9711</ele>
        <time>2016-06-05T07:32:27Z</time>
      </trkpt>
      <trkpt lat="45.71711" lon="4.63165">
        <ele>401.076752</ele>
        <time>2016-06-05T07:32:29Z</time>
      </trkpt>
      <trkpt lat="45.71708" lon="4.63166">
        <ele>401.963226</ele>
        <time>2016-06-05T07:32:35Z</time>
      </trkpt>
      <trkpt lat="45.71703" lon="4.63166">
        <ele>402.227722</ele>
        <time>2016-06-05T07:32:37Z</time>
      </trkpt>
      <trkpt lat="45.71701" lon="4.63167">
        <ele>402.944641</ele>
        <time>2016-06-05T07:32:43Z</time>
      </trkpt>
      <trkpt lat="45.717" lon="4.63168">
        <ele>403.194763</ele>
        <time>2016-06-05T07:32:45Z</time>
      </trkpt>
      <trkpt lat="45.71697" lon="4.63168">
        <ele>403.427734</ele>
        <time>2016-06-05T07:32:47Z</time>
      </trkpt>
      <trkpt lat="45.71694" lon="4.63168">
        <ele>403.570068</ele>
        <time>2016-06-05T07:32:49Z</time>
      </trkpt>
      <trkpt lat="45.7169" lon="4.63169">
        <ele>403.697327</ele>
        <time>2016-06-05T07:32:51Z</time>
      </trkpt>
      <trkpt lat="45.71688" lon="4.63169">
        <ele>403.894104</ele>
        <time>2016-06-05T07:32:53Z</time>
      </trkpt>
      <trkpt lat="45.71685" lon="4.63169">
        <ele>404.1745</ele>
        <time>2016-06-05T07:32:55Z</time>
      </trkpt>
      <trkpt lat="45.71682" lon="4.63169">
        <ele>404.230621</ele>
        <time>2016-06-05T07:32:57Z</time>
      </trkpt>
      <trkpt lat="45.71679" lon="4.6317">
        <ele>404.526215</ele>
        <time>2016-06-05T07:32:59Z</time>
      </trkpt>
      <trkpt lat="45.71676" lon="4.63169">
        <ele>404.789459</ele>
        <time>2016-06-05T07:33:01Z</time>
      </trkpt>
      <trkpt lat="45.71673" lon="4.63169">
        <ele>405.026764</ele>
        <time>2016-06-05T07:33:03Z</time>
      </trkpt>
      <trkpt lat="45.7167" lon="4.63168">
        <ele>405.242523</ele>
        <time>2016-06-05T07:33:05Z</time>
      </trkpt>
      <trkpt lat="45.71667" lon="4.63168">
        <ele>405.544617</ele>
        <time>2016-06-05T07:33:07Z</time>
      </trkpt>
      <trkpt lat="45.71664" lon="4.63168">
        <ele>405.920074</ele>
        <time>2016-06-05T07:33:09Z</time>
      </trkpt>
      <trkpt lat="45.7166" lon="4.63167">
        <ele>406.25238</ele>
        <time>2016-06-05T07:33:11Z</time>
      </trkpt>
      <trkpt lat="45.71657" lon="4.63167">
        <ele>406.541687</ele>
        <time>2016-06-05T07:33:13Z</time>
      </trkpt>
      <trkpt lat="45.71654" lon="4.63166">
        <ele>406.923645</ele>
        <time>2016-06-05T07:33:15Z</time>
      </trkpt>
      <trkpt lat="45.7165" lon="4.63166">
        <ele>407.18689</ele>
        <time>2016-06-05T07:33:17Z</time>
      </trkpt>
      <trkpt lat="45.71647" lon="4.63165">
        <ele>407.534271</ele>
        <time>2016-06-05T07:33:19Z</time>
      </trkpt>
      <trkpt lat="45.71644" lon="4.63166">
        <ele>407.906647</ele>
        <time>2016-06-05T07:33:21Z</time>
      </trkpt>
      <trkpt lat="45.7164" lon="4.63165">
        <ele>408.247864</ele>
        <time>2016-06-05T07:33:23Z</time>
      </trkpt>
      <trkpt lat="45.71636" lon="4.63165">
        <ele>408.673035</ele>
        <time>2016-06-05T07:33:25Z</time>
      </trkpt>
      <trkpt lat="45.71632" lon="4.63165">
        <ele>408.871582</ele>
        <time>2016-06-05T07:33:27Z</time>
      </trkpt>
      <trkpt lat="45.71628" lon="4.63164">
        <ele>409.203461</ele>
        <time>2016-06-05T07:33:29Z</time>
      </trkpt>
      <trkpt lat="45.71624" lon="4.63164">
        <ele>409.581116</ele>
        <time>2016-06-05T07:33:31Z</time>
      </trkpt>
      <trkpt lat="45.7162" lon="4.63163">
        <ele>409.939362</ele>
        <time>2016-06-05T07:33:33Z</time>
      </trkpt>
      <trkpt lat="45.71616" lon="4.63162">
        <ele>410.407776</ele>
        <time>2016-06-05T07:33:35Z</time>
      </trkpt>
      <trkpt lat="45.71612" lon="4.63162">
        <ele>410.766052</ele>
        <time>2016-06-05T07:33:37Z</time>
      </trkpt>
      <trkpt lat="45.71608" lon="4.63161">
        <ele>411.005676</ele>
        <time>2016-06-05T07:33:39Z</time>
      </trkpt>
      <trkpt lat="45.71604" lon="4.6316">
        <ele>411.504333</ele>
        <time>2016-06-05T07:33:41Z</time>
      </trkpt>
      <trkpt lat="45.716" lon="4.63157">
        <ele>411.828125</ele>
        <time>2016-06-05T07:33:43Z</time>
      </trkpt>
      <trkpt lat="45.71597" lon="4.63155">
        <ele>412.203552</ele>
        <time>2016-06-05T07:33:45Z</time>
      </trkpt>
      <trkpt lat="45.71594" lon="4.63153">
        <ele>412.810211</ele>
        <time>2016-06-05T07:33:47Z</time>
      </trkpt>
      <trkpt lat="45.71593" lon="4.6315">
        <ele>413.090393</ele>
        <time>2016-06-05T07:33:49Z</time>
      </trkpt>
      <trkpt lat="45.7159" lon="4.63147">
        <ele>413.468201</ele>
        <time>2016-06-05T07:33:51Z</time>
      </trkpt>
      <trkpt lat="45.71589" lon="4.63145">
        <ele>413.914856</ele>
        <time>2016-06-05T07:33:53Z</time>
      </trkpt>
      <trkpt lat="45.71587" lon="4.63142">
        <ele>414.34024</ele>
        <time>2016-06-05T07:33:55Z</time>
      </trkpt>
      <trkpt lat="45.71584" lon="4.63139">
        <ele>414.774261</ele>
        <time>2016-06-05T07:33:57Z</time>
      </trkpt>
      <trkpt lat="45.71582" lon="4.63137">
        <ele>415.067963</ele>
        <time>2016-06-05T07:33:59Z</time>
      </trkpt>
      <trkpt lat="45.7158" lon="4.63135">
        <ele>415.514984</ele>
        <time>2016-06-05T07:34:01Z</time>
      </trkpt>
      <trkpt lat="45.71578" lon="4.63132">
        <ele>415.918793</ele>
        <time>2016-06-05T07:34:03Z</time>
      </trkpt>
      <trkpt lat="45.71575" lon="4.63129">
        <ele>416.372314</ele>
        <time>2016-06-05T07:34:05Z</time>
      </trkpt>
      <trkpt lat="45.71571" lon="4.63126">
        <ele>416.720062</ele>
        <time>2016-06-05T07:34:07Z</time>
      </trkpt>
      <trkpt lat="45.71568" lon="4.63123">
        <ele>417.16333</ele>
        <time>2016-06-05T07:34:09Z</time>
      </trkpt>
      <trkpt lat="45.71564" lon="4.63119">
        <ele>417.610413</ele>
        <time>2016-06-05T07:34:11Z</time>
      </trkpt>
      <trkpt lat="45.7156" lon="4.63114">
        <ele>418.005615</ele>
        <time>2016-06-05T07:34:13Z</time>
      </trkpt>
      <trkpt lat="45.71556" lon="4.6311">
        <ele>418.387939</ele>
        <time>2016-06-05T07:34:15Z</time>
      </trkpt>
      <trkpt lat="45.71552" lon="4.63106">
        <ele>418.800476</ele>
        <time>2016-06-05T07:34:17Z</time>
      </trkpt>
      <trkpt lat="45.71547" lon="4.63103">
        <ele>419.266998</ele>
        <time>2016-06-05T07:34:19Z</time>
      </trkpt>
      <trkpt lat="45.71542" lon="4.631">
        <ele>419.387939</ele>
        <time>2016-06-05T07:34:21Z</time>
      </trkpt>
      <trkpt lat="45.71537" lon="4.63096">
        <ele>419.508881</ele>
        <time>2016-06-05T07:34:23Z</time>
      </trkpt>
      <trkpt lat="45.71532" lon="4.63093">
        <ele>419.850189</ele>
        <time>2016-06-05T07:34:25Z</time>
      </trkpt>
      <trkpt lat="45.71528" lon="4.63089">
        <ele>420.126892</ele>
        <time>2016-06-05T07:34:27Z</time>
      </trkpt>
      <trkpt lat="45.71523" lon="4.63085">
        <ele>420.250061</ele>
        <time>2016-06-05T07:34:29Z</time>
      </trkpt>
      <trkpt lat="45.71521" lon="4.63079">
        <ele>420.543945</ele>
        <time>2016-06-05T07:34:31Z</time>
      </trkpt>
      <trkpt lat="45.71522" lon="4.63076">
        <ele>420.764313</ele>
        <time>2016-06-05T07:34:33Z</time>
      </trkpt>
      <trkpt lat="45.71525" lon="4.63076">
        <ele>420.967438</ele>
        <time>2016-06-05T07:34:35Z</time>
      </trkpt>
      <trkpt lat="45.71527" lon="4.63075">
        <ele>421.241882</ele>
        <time>2016-06-05T07:34:37Z</time>
      </trkpt>
      <trkpt lat="45.71529" lon="4.63074">
        <ele>421.57251</ele>
        <time>2016-06-05T07:34:39Z</time>
      </trkpt>
      <trkpt lat="45.71531" lon="4.63073">
        <ele>421.812408</ele>
        <time>2016-06-05T07:34:41Z</time>
      </trkpt>
      <trkpt lat="45.71534" lon="4.63073">
        <ele>422.099792</ele>
        <time>2016-06-05T07:34:43Z</time>
      </trkpt>
      <trkpt lat="45.71536" lon="4.63073">
        <ele>422.413177</ele>
        <time>2016-06-05T07:34:45Z</time>
      </trkpt>
      <trkpt lat="45.71538" lon="4.63073">
        <ele>422.707123</ele>
        <time>2016-06-05T07:34:47Z</time>
      </trkpt>
      <trkpt lat="45.71541" lon="4.63074">
        <ele>422.886475</ele>
        <time>2016-06-05T07:34:49Z</time>
      </trkpt>
      <trkpt lat="45.71543" lon="4.63074">
        <ele>423.204193</ele>
        <time>2016-06-05T07:34:51Z</time>
      </trkpt>
      <trkpt lat="45.71546" lon="4.63074">
        <ele>423.595398</ele>
        <time>2016-06-05T07:34:53Z</time>
      </trkpt>
      <trkpt lat="45.71549" lon="4.63073">
        <ele>424.06665</ele>
        <time>2016-06-05T07:34:55Z</time>
      </trkpt>
      <trkpt lat="45.71552" lon="4.63073">
        <ele>424.460052</ele>
        <time>2016-06-05T07:34:57Z</time>
      </trkpt>
      <trkpt lat="45.71555" lon="4.63073">
        <ele>424.860016</ele>
        <time>2016-06-05T07:34:59Z</time>
      </trkpt>
      <trkpt lat="45.71557" lon="4.63072">
        <ele>425.344299</ele>
        <time>2016-06-05T07:35:01Z</time>
      </trkpt>
      <trkpt lat="45.7156" lon="4.63072">
        <ele>425.893616</ele>
        <time>2016-06-05T07:35:03Z</time>
      </trkpt>
      <trkpt lat="45.71563" lon="4.63072">
        <ele>426.408112</ele>
        <time>2016-06-05T07:35:05Z</time>
      </trkpt>
      <trkpt lat="45.71566" lon="4.63072">
        <ele>426.987457</ele>
        <time>2016-06-05T07:35:07Z</time>
      </trkpt>
      <trkpt lat="45.71569" lon="4.63072">
        <ele>427.547424</ele>
        <time>2016-06-05T07:35:09Z</time>
      </trkpt>
      <trkpt lat="45.71571" lon="4.63071">
        <ele>428.066315</ele>
        <time>2016-06-05T07:35:11Z</time>
      </trkpt>
      <trkpt lat="45.71574" lon="4.63071">
        <ele>428.637543</ele>
        <time>2016-06-05T07:35:13Z</time>
      </trkpt>
      <trkpt lat="45.71577" lon="4.6307">
        <ele>428.968353</ele>
        <time>2016-06-05T07:35:15Z</time>
      </trkpt>
      <trkpt lat="45.71579" lon="4.63069">
        <ele>429.510986</ele>
        <time>2016-06-05T07:35:17Z</time>
      </trkpt>
      <trkpt lat="45.71581" lon="4.63067">
        <ele>429.993225</ele>
        <time>2016-06-05T07:35:19Z</time>
      </trkpt>
      <trkpt lat="45.71583" lon="4.63065">
        <ele>430.421387</ele>
        <time>2016-06-05T07:35:21Z</time>
      </trkpt>
      <trkpt lat="45.71584" lon="4.63062">
        <ele>430.891418</ele>
        <time>2016-06-05T07:35:23Z</time>
      </trkpt>
      <trkpt lat="45.71585" lon="4.63059">
        <ele>431.420807</ele>
        <time>2016-06-05T07:35:25Z</time>
      </trkpt>
      <trkpt lat="45.71584" lon="4.63056">
        <ele>431.957214</ele>
        <time>2016-06-05T07:35:27Z</time>
      </trkpt>
      <trkpt lat="45.71583" lon="4.63053">
        <ele>432.430969</ele>
        <time>2016-06-05T07:35:29Z</time>
      </trkpt>
      <trkpt lat="45.71581" lon="4.6305">
        <ele>432.960938</ele>
        <time>2016-06-05T07:35:31Z</time>
      </trkpt>
      <trkpt lat="45.7158" lon="4.63047">
        <ele>433.454163</ele>
        <time>2016-06-05T07:35:33Z</time>
      </trkpt>
      <trkpt lat="45.71579" lon="4.63044">
        <ele>433.906311</ele>
        <time>2016-06-05T07:35:35Z</time>
      </trkpt>
      <trkpt lat="45.71577" lon="4.63042">
        <ele>434.326813</ele>
        <time>2016-06-05T07:35:37Z</time>
      </trkpt>
      <trkpt lat="45.71576" lon="4.63039">
        <ele>434.720612</ele>
        <time>2016-06-05T07:35:39Z</time>
      </trkpt>
      <trkpt lat="45.71575" lon="4.63036">
        <ele>435.177094</ele>
        <time>2016-06-05T07:35:41Z</time>
      </trkpt>
      <trkpt lat="45.71574" lon="4.63033">
        <ele>435.367493</ele>
        <time>2016-06-05T07:35:43Z</time>
      </trkpt>
      <trkpt lat="45.71572" lon="4.6303">
        <ele>435.83017</ele>
        <time>2016-06-05T07:35:45Z</time>
      </trkpt>
      <trkpt lat="45.71571" lon="4.63028">
        <ele>436.236969</ele>
        <time>2016-06-05T07:35:47Z</time>
      </trkpt>
      <trkpt lat="45.71569" lon="4.63025">
        <ele>436.559387</ele>
        <time>2016-06-05T07:35:49Z</time>
      </trkpt>
      <trkpt lat="45.71568" lon="4.63022">
        <ele>436.888275</ele>
        <time>2016-06-05T07:35:51Z</time>
      </trkpt>
      <trkpt lat="45.71566" lon="4.6302">
        <ele>437.269135</ele>
        <time>2016-06-05T07:35:53Z</time>
      </trkpt>
      <trkpt lat="45.71565" lon="4.63018">
        <ele>437.610748</ele>
        <time>2016-06-05T07:35:55Z</time>
      </trkpt>
      <trkpt lat="45.71563" lon="4.63016">
        <ele>437.931305</ele>
        <time>2016-06-05T07:35:57Z</time>
      </trkpt>
      <trkpt lat="45.71561" lon="4.63014">
        <ele>438.305756</ele>
        <time>2016-06-05T07:35:59Z</time>
      </trkpt>
      <trkpt lat="45.71558" lon="4.63012">
        <ele>438.699707</ele>
        <time>2016-06-05T07:36:01Z</time>
      </trkpt>
      <trkpt lat="45.71557" lon="4.6301">
        <ele>439.068909</ele>
        <time>2016-06-05T07:36:03Z</time>
      </trkpt>
      <trkpt lat="45.71555" lon="4.63008">
        <ele>439.45636</ele>
        <time>2016-06-05T07:36:05Z</time>
      </trkpt>
      <trkpt lat="45.71553" lon="4.63007">
        <ele>439.839996</ele>
        <time>2016-06-05T07:36:07Z</time>
      </trkpt>
      <trkpt lat="45.71552" lon="4.63004">
        <ele>440.045593</ele>
        <time>2016-06-05T07:36:09Z</time>
      </trkpt>
      <trkpt lat="45.71549" lon="4.63002">
        <ele>440.463867</ele>
        <time>2016-06-05T07:36:11Z</time>
      </trkpt>
      <trkpt lat="45.71547" lon="4.63">
        <ele>440.832855</ele>
        <time>2016-06-05T07:36:13Z</time>
      </trkpt>
      <trkpt lat="45.71545" lon="4.62998">
        <ele>441.209564</ele>
        <time>2016-06-05T07:36:15Z</time>
      </trkpt>
      <trkpt lat="45.71544" lon="4.62996">
        <ele>441.592834</ele>
        <time>2016-06-05T07:36:17Z</time>
      </trkpt>
      <trkpt lat="45.71542" lon="4.62994">
        <ele>442.105164</ele>
        <time>2016-06-05T07:36:19Z</time>
      </trkpt>
      <trkpt lat="45.71541" lon="4.62993">
        <ele>442.585876</ele>
        <time>2016-06-05T07:36:21Z</time>
      </trkpt>
      <trkpt lat="45.71539" lon="4.62991">
        <ele>443.013092</ele>
        <time>2016-06-05T07:36:23Z</time>
      </trkpt>
      <trkpt lat="45.71538" lon="4.62989">
        <ele>443.502533</ele>
        <time>2016-06-05T07:36:25Z</time>
      </trkpt>
      <trkpt lat="45.71536" lon="4.62988">
        <ele>444.007141</ele>
        <time>2016-06-05T07:36:27Z</time>
      </trkpt>
      <trkpt lat="45.71534" lon="4.62986">
        <ele>444.490082</ele>
        <time>2016-06-05T07:36:29Z</time>
      </trkpt>
      <trkpt lat="45.71532" lon="4.62985">
        <ele>445.011963</ele>
        <time>2016-06-05T07:36:31Z</time>
      </trkpt>
      <trkpt lat="45.7153" lon="4.62983">
        <ele>445.263184</ele>
        <time>2016-06-05T07:36:33Z</time>
      </trkpt>
      <trkpt lat="45.71528" lon="4.62982">
        <ele>445.740814</ele>
        <time>2016-06-05T07:36:35Z</time>
      </trkpt>
      <trkpt lat="45.71526" lon="4.62981">
        <ele>446.230804</ele>
        <time>2016-06-05T07:36:37Z</time>
      </trkpt>
      <trkpt lat="45.71524" lon="4.6298">
        <ele>446.739563</ele>
        <time>2016-06-05T07:36:39Z</time>
      </trkpt>
      <trkpt lat="45.71522" lon="4.62978">
        <ele>447.216064</ele>
        <time>2016-06-05T07:36:41Z</time>
      </trkpt>
      <trkpt lat="45.7152" lon="4.62977">
        <ele>447.692627</ele>
        <time>2016-06-05T07:36:43Z</time>
      </trkpt>
      <trkpt lat="45.71518" lon="4.62975">
        <ele>448.178314</ele>
        <time>2016-06-05T07:36:45Z</time>
      </trkpt>
      <trkpt lat="45.71516" lon="4.62975">
        <ele>448.622467</ele>
        <time>2016-06-05T07:36:47Z</time>
      </trkpt>
      <trkpt lat="45.71513" lon="4.62974">
        <ele>449.051422</ele>
        <time>2016-06-05T07:36:49Z</time>
      </trkpt>
      <trkpt lat="45.71511" lon="4.62972">
        <ele>449.488434</ele>
        <time>2016-06-05T07:36:51Z</time>
      </trkpt>
      <trkpt lat="45.71509" lon="4.6297">
        <ele>449.886139</ele>
        <time>2016-06-05T07:36:53Z</time>
      </trkpt>
      <trkpt lat="45.71507" lon="4.62968">
        <ele>450.25943</ele>
        <time>2016-06-05T07:36:55Z</time>
      </trkpt>
      <trkpt lat="45.71504" lon="4.62967">
        <ele>450.679779</ele>
        <time>2016-06-05T07:36:57Z</time>
      </trkpt>
      <trkpt lat="45.71501" lon="4.62965">
        <ele>451.085022</ele>
        <time>2016-06-05T07:36:59Z</time>
      </trkpt>
      <trkpt lat="45.71497" lon="4.62964">
        <ele>451.258362</ele>
        <time>2016-06-05T07:37:01Z</time>
      </trkpt>
      <trkpt lat="45.71494" lon="4.62963">
        <ele>451.543762</ele>
        <time>2016-06-05T07:37:03Z</time>
      </trkpt>
      <trkpt lat="45.71491" lon="4.62962">
        <ele>451.894135</ele>
        <time>2016-06-05T07:37:05Z</time>
      </trkpt>
      <trkpt lat="45.71488" lon="4.6296">
        <ele>452.214905</ele>
        <time>2016-06-05T07:37:07Z</time>
      </trkpt>
      <trkpt lat="45.71483" lon="4.62959">
        <ele>452.409973</ele>
        <time>2016-06-05T07:37:09Z</time>
      </trkpt>
      <trkpt lat="45.71478" lon="4.62957">
        <ele>452.69751</ele>
        <time>2016-06-05T07:37:11Z</time>
      </trkpt>
      <trkpt lat="45.71472" lon="4.62954">
        <ele>452.946716</ele>
        <time>2016-06-05T07:37:13Z</time>
      </trkpt>
      <trkpt lat="45.71465" lon="4.62953">
        <ele>453.171967</ele>
        <time>2016-06-05T07:37:15Z</time>
      </trkpt>
      <trkpt lat="45.71455" lon="4.62953">
        <ele>453.472351</ele>
        <time>2016-06-05T07:37:17Z</time>
      </trkpt>
      <trkpt lat="45.71444" lon="4.62954">
        <ele>453.61972</ele>
        <time>2016-06-05T07:37:19Z</time>
      </trkpt>
      <trkpt lat="45.71433" lon="4.62955">
        <ele>453.695618</ele>
        <time>2016-06-05T07:37:21Z</time>
      </trkpt>
      <trkpt lat="45.71423" lon="4.62957">
        <ele>453.743317</ele>
        <time>2016-06-05T07:37:23Z</time>
      </trkpt>
      <trkpt lat="45.71413" lon="4.62959">
        <ele>453.838684</ele>
        <time>2016-06-05T07:37:25Z</time>
      </trkpt>
      <trkpt lat="45.71405" lon="4.62961">
        <ele>453.862213</ele>
        <time>2016-06-05T07:37:27Z</time>
      </trkpt>
      <trkpt lat="45.71399" lon="4.62964">
        <ele>453.890381</ele>
        <time>2016-06-05T07:37:29Z</time>
      </trkpt>
      <trkpt lat="45.71392" lon="4.62969">
        <ele>453.873047</ele>
        <time>2016-06-05T07:37:31Z</time>
      </trkpt>
      <trkpt lat="45.71385" lon="4.62976">
        <ele>453.891785</ele>
        <time>2016-06-05T07:37:33Z</time>
      </trkpt>
      <trkpt lat="45.71378" lon="4.62985">
        <ele>453.820313</ele>
        <time>2016-06-05T07:37:35Z</time>
      </trkpt>
      <trkpt lat="45.71372" lon="4.62995">
        <ele>453.84137</ele>
        <time>2016-06-05T07:37:37Z</time>
      </trkpt>
      <trkpt lat="45.71365" lon="4.63003">
        <ele>453.763275</ele>
        <time>2016-06-05T07:37:39Z</time>
      </trkpt>
      <trkpt lat="45.71362" lon="4.63003">
        <ele>453.481262</ele>
        <time>2016-06-05T07:37:43Z</time>
      </trkpt>
      <trkpt lat="45.71359" lon="4.63003">
        <ele>451.850769</ele>
        <time>2016-06-05T07:41:15Z</time>
      </trkpt>
      <trkpt lat="45.71357" lon="4.63011">
        <ele>451.851868</ele>
        <time>2016-06-05T07:41:20Z</time>
      </trkpt>
      <trkpt lat="45.71356" lon="4.63013">
        <ele>451.864838</ele>
        <time>2016-06-05T07:41:22Z</time>
      </trkpt>
      <trkpt lat="45.71354" lon="4.63016">
        <ele>451.823669</ele>
        <time>2016-06-05T07:41:24Z</time>
      </trkpt>
      <trkpt lat="45.71352" lon="4.63018">
        <ele>451.90387</ele>
        <time>2016-06-05T07:41:26Z</time>
      </trkpt>
      <trkpt lat="45.71349" lon="4.63021">
        <ele>451.913818</ele>
        <time>2016-06-05T07:41:28Z</time>
      </trkpt>
      <trkpt lat="45.71348" lon="4.63023">
        <ele>451.95932</ele>
        <time>2016-06-05T07:41:30Z</time>
      </trkpt>
      <trkpt lat="45.71347" lon="4.63026">
        <ele>451.998291</ele>
        <time>2016-06-05T07:41:32Z</time>
      </trkpt>
      <trkpt lat="45.71346" lon="4.63029">
        <ele>452.048157</ele>
        <time>2016-06-05T07:41:34Z</time>
      </trkpt>
      <trkpt lat="45.71344" lon="4.63031">
        <ele>452.189209</ele>
        <time>2016-06-05T07:41:36Z</time>
      </trkpt>
      <trkpt lat="45.71343" lon="4.63034">
        <ele>452.279846</ele>
        <time>2016-06-05T07:41:38Z</time>
      </trkpt>
      <trkpt lat="45.7134" lon="4.63035">
        <ele>452.362213</ele>
        <time>2016-06-05T07:41:40Z</time>
      </trkpt>
      <trkpt lat="45.71339" lon="4.63034">
        <ele>452.485748</ele>
        <time>2016-06-05T07:41:42Z</time>
      </trkpt>
      <trkpt lat="45.71341" lon="4.63032">
        <ele>452.605316</ele>
        <time>2016-06-05T07:41:44Z</time>
      </trkpt>
      <trkpt lat="45.71342" lon="4.63028">
        <ele>452.756348</ele>
        <time>2016-06-05T07:41:46Z</time>
      </trkpt>
      <trkpt lat="45.71343" lon="4.63025">
        <ele>452.94281</ele>
        <time>2016-06-05T07:41:48Z</time>
      </trkpt>
      <trkpt lat="45.71343" lon="4.63023">
        <ele>453.031677</ele>
        <time>2016-06-05T07:41:50Z</time>
      </trkpt>
      <trkpt lat="45.71343" lon="4.6302">
        <ele>453.153961</ele>
        <time>2016-06-05T07:41:52Z</time>
      </trkpt>
      <trkpt lat="45.71343" lon="4.63018">
        <ele>453.419769</ele>
        <time>2016-06-05T07:41:54Z</time>
      </trkpt>
      <trkpt lat="45.71343" lon="4.63015">
        <ele>453.74707</ele>
        <time>2016-06-05T07:41:56Z</time>
      </trkpt>
      <trkpt lat="45.71344" lon="4.63012">
        <ele>453.973572</ele>
        <time>2016-06-05T07:41:58Z</time>
      </trkpt>
      <trkpt lat="45.71344" lon="4.63009">
        <ele>454.249176</ele>
        <time>2016-06-05T07:42:00Z</time>
      </trkpt>
      <trkpt lat="45.71344" lon="4.63006">
        <ele>454.511475</ele>
        <time>2016-06-05T07:42:02Z</time>
      </trkpt>
      <trkpt lat="45.71345" lon="4.63003">
        <ele>454.849701</ele>
        <time>2016-06-05T07:42:04Z</time>
      </trkpt>
      <trkpt lat="45.71345" lon="4.63">
        <ele>455.248535</ele>
        <time>2016-06-05T07:42:06Z</time>
      </trkpt>
      <trkpt lat="45.71346" lon="4.62997">
        <ele>455.538818</ele>
        <time>2016-06-05T07:42:08Z</time>
      </trkpt>
      <trkpt lat="45.71347" lon="4.62994">
        <ele>455.955994</ele>
        <time>2016-06-05T07:42:10Z</time>
      </trkpt>
      <trkpt lat="45.71347" lon="4.62991">
        <ele>456.354889</ele>
        <time>2016-06-05T07:42:12Z</time>
      </trkpt>
      <trkpt lat="45.71349" lon="4.62987">
        <ele>456.721344</ele>
        <time>2016-06-05T07:42:14Z</time>
      </trkpt>
      <trkpt lat="45.7135" lon="4.62984">
        <ele>457.083435</ele>
        <time>2016-06-05T07:42:16Z</time>
      </trkpt>
      <trkpt lat="45.71351" lon="4.62981">
        <ele>457.274078</ele>
        <time>2016-06-05T07:42:18Z</time>
      </trkpt>
      <trkpt lat="45.71352" lon="4.62977">
        <ele>457.650482</ele>
        <time>2016-06-05T07:42:20Z</time>
      </trkpt>
      <trkpt lat="45.71353" lon="4.62974">
        <ele>458.142761</ele>
        <time>2016-06-05T07:42:22Z</time>
      </trkpt>
      <trkpt lat="45.71354" lon="4.62971">
        <ele>458.548279</ele>
        <time>2016-06-05T07:42:24Z</time>
      </trkpt>
      <trkpt lat="45.71355" lon="4.62967">
        <ele>458.997375</ele>
        <time>2016-06-05T07:42:26Z</time>
      </trkpt>
      <trkpt lat="45.71356" lon="4.62964">
        <ele>459.450439</ele>
        <time>2016-06-05T07:42:28Z</time>
      </trkpt>
      <trkpt lat="45.71357" lon="4.6296">
        <ele>459.892883</ele>
        <time>2016-06-05T07:42:30Z</time>
      </trkpt>
      <trkpt lat="45.71358" lon="4.62956">
        <ele>460.365723</ele>
        <time>2016-06-05T07:42:32Z</time>
      </trkpt>
      <trkpt lat="45.71359" lon="4.62952">
        <ele>460.909332</ele>
        <time>2016-06-05T07:42:34Z</time>
      </trkpt>
      <trkpt lat="45.71359" lon="4.62949">
        <ele>461.414703</ele>
        <time>2016-06-05T07:42:36Z</time>
      </trkpt>
      <trkpt lat="45.7136" lon="4.62945">
        <ele>461.931061</ele>
        <time>2016-06-05T07:42:38Z</time>
      </trkpt>
      <trkpt lat="45.7136" lon="4.62941">
        <ele>462.189209</ele>
        <time>2016-06-05T07:42:40Z</time>
      </trkpt>
      <trkpt lat="45.7136" lon="4.62937">
        <ele>462.681793</ele>
        <time>2016-06-05T07:42:42Z</time>
      </trkpt>
      <trkpt lat="45.7136" lon="4.62933">
        <ele>463.200531</ele>
        <time>2016-06-05T07:42:44Z</time>
      </trkpt>
      <trkpt lat="45.71359" lon="4.62929">
        <ele>463.636658</ele>
        <time>2016-06-05T07:42:46Z</time>
      </trkpt>
      <trkpt lat="45.71359" lon="4.62926">
        <ele>464.146637</ele>
        <time>2016-06-05T07:42:48Z</time>
      </trkpt>
      <trkpt lat="45.71358" lon="4.62922">
        <ele>464.697998</ele>
        <time>2016-06-05T07:42:50Z</time>
      </trkpt>
      <trkpt lat="45.71358" lon="4.62918">
        <ele>465.173248</ele>
        <time>2016-06-05T07:42:52Z</time>
      </trkpt>
      <trkpt lat="45.71357" lon="4.62915">
        <ele>465.683167</ele>
        <time>2016-06-05T07:42:54Z</time>
      </trkpt>
      <trkpt lat="45.71356" lon="4.62911">
        <ele>466.27124</ele>
        <time>2016-06-05T07:42:56Z</time>
      </trkpt>
      <trkpt lat="45.71355" lon="4.62908">
        <ele>466.835541</ele>
        <time>2016-06-05T07:42:58Z</time>
      </trkpt>
      <trkpt lat="45.71355" lon="4.62904">
        <ele>467.398926</ele>
        <time>2016-06-05T07:43:00Z</time>
      </trkpt>
      <trkpt lat="45.71353" lon="4.62901">
        <ele>467.950256</ele>
        <time>2016-06-05T07:43:02Z</time>
      </trkpt>
      <trkpt lat="45.71352" lon="4.62898">
        <ele>468.215027</ele>
        <time>2016-06-05T07:43:04Z</time>
      </trkpt>
      <trkpt lat="45.71352" lon="4.62895">
        <ele>468.708679</ele>
        <time>2016-06-05T07:43:06Z</time>
      </trkpt>
      <trkpt lat="45.71351" lon="4.62892">
        <ele>469.212097</ele>
        <time>2016-06-05T07:43:08Z</time>
      </trkpt>
      <trkpt lat="45.71349" lon="4.62888">
        <ele>469.737061</ele>
        <time>2016-06-05T07:43:10Z</time>
      </trkpt>
      <trkpt lat="45.71347" lon="4.62885">
        <ele>470.238525</ele>
        <time>2016-06-05T07:43:12Z</time>
      </trkpt>
      <trkpt lat="45.71346" lon="4.62882">
        <ele>470.720215</ele>
        <time>2016-06-05T07:43:14Z</time>
      </trkpt>
      <trkpt lat="45.71345" lon="4.62879">
        <ele>471.131104</ele>
        <time>2016-06-05T07:43:16Z</time>
      </trkpt>
      <trkpt lat="45.71343" lon="4.62875">
        <ele>471.628326</ele>
        <time>2016-06-05T07:43:18Z</time>
      </trkpt>
      <trkpt lat="45.71342" lon="4.62872">
        <ele>472.069153</ele>
        <time>2016-06-05T07:43:20Z</time>
      </trkpt>
      <trkpt lat="45.7134" lon="4.62869">
        <ele>472.53598</ele>
        <time>2016-06-05T07:43:22Z</time>
      </trkpt>
      <trkpt lat="45.71339" lon="4.62866">
        <ele>472.789551</ele>
        <time>2016-06-05T07:43:24Z</time>
      </trkpt>
      <trkpt lat="45.71338" lon="4.62863">
        <ele>473.247864</ele>
        <time>2016-06-05T07:43:26Z</time>
      </trkpt>
      <trkpt lat="45.71336" lon="4.6286">
        <ele>473.803711</ele>
        <time>2016-06-05T07:43:28Z</time>
      </trkpt>
      <trkpt lat="45.71335" lon="4.62857">
        <ele>474.214203</ele>
        <time>2016-06-05T07:43:30Z</time>
      </trkpt>
      <trkpt lat="45.71334" lon="4.62854">
        <ele>474.648529</ele>
        <time>2016-06-05T07:43:32Z</time>
      </trkpt>
      <trkpt lat="45.71333" lon="4.6285">
        <ele>475.085114</ele>
        <time>2016-06-05T07:43:34Z</time>
      </trkpt>
      <trkpt lat="45.71333" lon="4.62846">
        <ele>475.545563</ele>
        <time>2016-06-05T07:43:36Z</time>
      </trkpt>
      <trkpt lat="45.71333" lon="4.62843">
        <ele>475.908356</ele>
        <time>2016-06-05T07:43:38Z</time>
      </trkpt>
      <trkpt lat="45.71332" lon="4.62841">
        <ele>476.292877</ele>
        <time>2016-06-05T07:43:40Z</time>
      </trkpt>
      <trkpt lat="45.71331" lon="4.62838">
        <ele>476.733826</ele>
        <time>2016-06-05T07:43:42Z</time>
      </trkpt>
      <trkpt lat="45.71329" lon="4.62836">
        <ele>477.105316</ele>
        <time>2016-06-05T07:43:44Z</time>
      </trkpt>
      <trkpt lat="45.71328" lon="4.62834">
        <ele>477.298676</ele>
        <time>2016-06-05T07:43:46Z</time>
      </trkpt>
      <trkpt lat="45.71326" lon="4.62832">
        <ele>477.698792</ele>
        <time>2016-06-05T07:43:48Z</time>
      </trkpt>
      <trkpt lat="45.71325" lon="4.62829">
        <ele>478.131165</ele>
        <time>2016-06-05T07:43:50Z</time>
      </trkpt>
      <trkpt lat="45.71324" lon="4.62825">
        <ele>478.496155</ele>
        <time>2016-06-05T07:43:52Z</time>
      </trkpt>
      <trkpt lat="45.71323" lon="4.62822">
        <ele>478.922028</ele>
        <time>2016-06-05T07:43:54Z</time>
      </trkpt>
      <trkpt lat="45.71321" lon="4.62819">
        <ele>479.288879</ele>
        <time>2016-06-05T07:43:56Z</time>
      </trkpt>
      <trkpt lat="45.7132" lon="4.62816">
        <ele>479.631653</ele>
        <time>2016-06-05T07:43:58Z</time>
      </trkpt>
      <trkpt lat="45.71318" lon="4.62813">
        <ele>479.996735</ele>
        <time>2016-06-05T07:44:00Z</time>
      </trkpt>
      <trkpt lat="45.71317" lon="4.6281">
        <ele>480.30307</ele>
        <time>2016-06-05T07:44:02Z</time>
      </trkpt>
      <trkpt lat="45.71316" lon="4.62807">
        <ele>480.64859</ele>
        <time>2016-06-05T07:44:04Z</time>
      </trkpt>
      <trkpt lat="45.71315" lon="4.62804">
        <ele>481.080719</ele>
        <time>2016-06-05T07:44:06Z</time>
      </trkpt>
      <trkpt lat="45.71315" lon="4.62802">
        <ele>481.272034</ele>
        <time>2016-06-05T07:44:08Z</time>
      </trkpt>
      <trkpt lat="45.71314" lon="4.62799">
        <ele>481.592224</ele>
        <time>2016-06-05T07:44:10Z</time>
      </trkpt>
      <trkpt lat="45.71312" lon="4.62797">
        <ele>481.989929</ele>
        <time>2016-06-05T07:44:12Z</time>
      </trkpt>
      <trkpt lat="45.71311" lon="4.62794">
        <ele>482.309479</ele>
        <time>2016-06-05T07:44:14Z</time>
      </trkpt>
      <trkpt lat="45.7131" lon="4.6279">
        <ele>482.665924</ele>
        <time>2016-06-05T07:44:16Z</time>
      </trkpt>
      <trkpt lat="45.71309" lon="4.62787">
        <ele>483.06958</ele>
        <time>2016-06-05T07:44:18Z</time>
      </trkpt>
      <trkpt lat="45.71308" lon="4.62784">
        <ele>483.435211</ele>
        <time>2016-06-05T07:44:20Z</time>
      </trkpt>
      <trkpt lat="45.71307" lon="4.62782">
        <ele>483.844391</ele>
        <time>2016-06-05T07:44:22Z</time>
      </trkpt>
      <trkpt lat="45.71306" lon="4.6278">
        <ele>484.194153</ele>
        <time>2016-06-05T07:44:24Z</time>
      </trkpt>
      <trkpt lat="45.71305" lon="4.62778">
        <ele>484.68985</ele>
        <time>2016-06-05T07:44:26Z</time>
      </trkpt>
      <trkpt lat="45.71304" lon="4.62776">
        <ele>485.124695</ele>
        <time>2016-06-05T07:44:28Z</time>
      </trkpt>
      <trkpt lat="45.71303" lon="4.62773">
        <ele>485.529938</ele>
        <time>2016-06-05T07:44:30Z</time>
      </trkpt>
      <trkpt lat="45.71301" lon="4.62769">
        <ele>486.430176</ele>
        <time>2016-06-05T07:44:34Z</time>
      </trkpt>
      <trkpt lat="45.71299" lon="4.62766">
        <ele>486.869446</ele>
        <time>2016-06-05T07:44:36Z</time>
      </trkpt>
      <trkpt lat="45.71297" lon="4.62763">
        <ele>487.096191</ele>
        <time>2016-06-05T07:44:38Z</time>
      </trkpt>
      <trkpt lat="45.71295" lon="4.62761">
        <ele>487.588135</ele>
        <time>2016-06-05T07:44:40Z</time>
      </trkpt>
      <trkpt lat="45.71293" lon="4.62759">
        <ele>488.062683</ele>
        <time>2016-06-05T07:44:42Z</time>
      </trkpt>
      <trkpt lat="45.71291" lon="4.62756">
        <ele>488.617279</ele>
        <time>2016-06-05T07:44:44Z</time>
      </trkpt>
      <trkpt lat="45.71289" lon="4.62753">
        <ele>489.117523</ele>
        <time>2016-06-05T07:44:46Z</time>
      </trkpt>
      <trkpt lat="45.71288" lon="4.62751">
        <ele>489.54599</ele>
        <time>2016-06-05T07:44:48Z</time>
      </trkpt>
      <trkpt lat="45.71286" lon="4.62749">
        <ele>490.039001</ele>
        <time>2016-06-05T07:44:50Z</time>
      </trkpt>
      <trkpt lat="45.71286" lon="4.62746">
        <ele>490.491882</ele>
        <time>2016-06-05T07:44:52Z</time>
      </trkpt>
      <trkpt lat="45.71284" lon="4.62744">
        <ele>490.912842</ele>
        <time>2016-06-05T07:44:54Z</time>
      </trkpt>
      <trkpt lat="45.71283" lon="4.62741">
        <ele>491.428375</ele>
        <time>2016-06-05T07:44:56Z</time>
      </trkpt>
      <trkpt lat="45.71281" lon="4.62739">
        <ele>491.774261</ele>
        <time>2016-06-05T07:44:58Z</time>
      </trkpt>
      <trkpt lat="45.7128" lon="4.62736">
        <ele>492.238342</ele>
        <time>2016-06-05T07:45:00Z</time>
      </trkpt>
      <trkpt lat="45.71278" lon="4.62733">
        <ele>492.475006</ele>
        <time>2016-06-05T07:45:02Z</time>
      </trkpt>
      <trkpt lat="45.71277" lon="4.6273">
        <ele>492.869629</ele>
        <time>2016-06-05T07:45:04Z</time>
      </trkpt>
      <trkpt lat="45.71276" lon="4.62727">
        <ele>493.319275</ele>
        <time>2016-06-05T07:45:06Z</time>
      </trkpt>
      <trkpt lat="45.71275" lon="4.62725">
        <ele>493.715332</ele>
        <time>2016-06-05T07:45:08Z</time>
      </trkpt>
      <trkpt lat="45.71273" lon="4.62721">
        <ele>494.577057</ele>
        <time>2016-06-05T07:45:12Z</time>
      </trkpt>
      <trkpt lat="45.71271" lon="4.62718">
        <ele>495.047058</ele>
        <time>2016-06-05T07:45:14Z</time>
      </trkpt>
      <trkpt lat="45.71269" lon="4.62715">
        <ele>495.379944</ele>
        <time>2016-06-05T07:45:16Z</time>
      </trkpt>
      <trkpt lat="45.71267" lon="4.62713">
        <ele>495.795593</ele>
        <time>2016-06-05T07:45:18Z</time>
      </trkpt>
      <trkpt lat="45.71265" lon="4.6271">
        <ele>496.191254</ele>
        <time>2016-06-05T07:45:20Z</time>
      </trkpt>
      <trkpt lat="45.71264" lon="4.62708">
        <ele>496.63266</ele>
        <time>2016-06-05T07:45:22Z</time>
      </trkpt>
      <trkpt lat="45.71262" lon="4.62705">
        <ele>496.933014</ele>
        <time>2016-06-05T07:45:24Z</time>
      </trkpt>
      <trkpt lat="45.7126" lon="4.62703">
        <ele>497.279144</ele>
        <time>2016-06-05T07:45:26Z</time>
      </trkpt>
      <trkpt lat="45.71259" lon="4.627">
        <ele>497.721039</ele>
        <time>2016-06-05T07:45:28Z</time>
      </trkpt>
      <trkpt lat="45.71257" lon="4.62698">
        <ele>498.056305</ele>
        <time>2016-06-05T07:45:30Z</time>
      </trkpt>
      <trkpt lat="45.71256" lon="4.62695">
        <ele>498.252197</ele>
        <time>2016-06-05T07:45:32Z</time>
      </trkpt>
      <trkpt lat="45.71254" lon="4.62692">
        <ele>498.619781</ele>
        <time>2016-06-05T07:45:34Z</time>
      </trkpt>
      <trkpt lat="45.71253" lon="4.6269">
        <ele>498.999664</ele>
        <time>2016-06-05T07:45:36Z</time>
      </trkpt>
      <trkpt lat="45.71252" lon="4.62687">
        <ele>499.387146</ele>
        <time>2016-06-05T07:45:38Z</time>
      </trkpt>
      <trkpt lat="45.71251" lon="4.62685">
        <ele>499.807312</ele>
        <time>2016-06-05T07:45:40Z</time>
      </trkpt>
      <trkpt lat="45.71249" lon="4.62682">
        <ele>500.162445</ele>
        <time>2016-06-05T07:45:42Z</time>
      </trkpt>
      <trkpt lat="45.71248" lon="4.62679">
        <ele>500.515778</ele>
        <time>2016-06-05T07:45:44Z</time>
      </trkpt>
      <trkpt lat="45.71245" lon="4.62676">
        <ele>500.883057</ele>
        <time>2016-06-05T07:45:46Z</time>
      </trkpt>
      <trkpt lat="45.71243" lon="4.62673">
        <ele>501.301117</ele>
        <time>2016-06-05T07:45:48Z</time>
      </trkpt>
      <trkpt lat="45.71241" lon="4.6267">
        <ele>501.704041</ele>
        <time>2016-06-05T07:45:50Z</time>
      </trkpt>
      <trkpt lat="45.71239" lon="4.62668">
        <ele>502.141754</ele>
        <time>2016-06-05T07:45:52Z</time>
      </trkpt>
      <trkpt lat="45.71238" lon="4.62665">
        <ele>502.553467</ele>
        <time>2016-06-05T07:45:54Z</time>
      </trkpt>
      <trkpt lat="45.71236" lon="4.62663">
        <ele>502.965088</ele>
        <time>2016-06-05T07:45:56Z</time>
      </trkpt>
      <trkpt lat="45.71235" lon="4.6266">
        <ele>503.374664</ele>
        <time>2016-06-05T07:45:58Z</time>
      </trkpt>
      <trkpt lat="45.71233" lon="4.62657">
        <ele>503.651306</ele>
        <time>2016-06-05T07:46:00Z</time>
      </trkpt>
      <trkpt lat="45.71231" lon="4.62654">
        <ele>504.059998</ele>
        <time>2016-06-05T07:46:02Z</time>
      </trkpt>
      <trkpt lat="45.7123" lon="4.62651">
        <ele>504.471741</ele>
        <time>2016-06-05T07:46:04Z</time>
      </trkpt>
      <trkpt lat="45.71228" lon="4.62648">
        <ele>504.972809</ele>
        <time>2016-06-05T07:46:06Z</time>
      </trkpt>
      <trkpt lat="45.71226" lon="4.62646">
        <ele>505.326599</ele>
        <time>2016-06-05T07:46:08Z</time>
      </trkpt>
      <trkpt lat="45.71224" lon="4.62644">
        <ele>505.695374</ele>
        <time>2016-06-05T07:46:10Z</time>
      </trkpt>
      <trkpt lat="45.71223" lon="4.62641">
        <ele>506.100525</ele>
        <time>2016-06-05T07:46:12Z</time>
      </trkpt>
      <trkpt lat="45.71222" lon="4.62639">
        <ele>506.453369</ele>
        <time>2016-06-05T07:46:14Z</time>
      </trkpt>
      <trkpt lat="45.7122" lon="4.62636">
        <ele>506.897797</ele>
        <time>2016-06-05T07:46:16Z</time>
      </trkpt>
      <trkpt lat="45.71219" lon="4.62632">
        <ele>507.292145</ele>
        <time>2016-06-05T07:46:18Z</time>
      </trkpt>
      <trkpt lat="45.71217" lon="4.62629">
        <ele>507.778076</ele>
        <time>2016-06-05T07:46:20Z</time>
      </trkpt>
      <trkpt lat="45.71215" lon="4.62626">
        <ele>507.993805</ele>
        <time>2016-06-05T07:46:22Z</time>
      </trkpt>
      <trkpt lat="45.71213" lon="4.62623">
        <ele>508.421936</ele>
        <time>2016-06-05T07:46:24Z</time>
      </trkpt>
      <trkpt lat="45.71211" lon="4.6262">
        <ele>508.857513</ele>
        <time>2016-06-05T07:46:26Z</time>
      </trkpt>
      <trkpt lat="45.7121" lon="4.62618">
        <ele>509.301605</ele>
        <time>2016-06-05T07:46:28Z</time>
      </trkpt>
      <trkpt lat="45.71208" lon="4.62615">
        <ele>509.624176</ele>
        <time>2016-06-05T07:46:30Z</time>
      </trkpt>
      <trkpt lat="45.71207" lon="4.62612">
        <ele>510.001221</ele>
        <time>2016-06-05T07:46:32Z</time>
      </trkpt>
      <trkpt lat="45.71205" lon="4.62609">
        <ele>510.36084</ele>
        <time>2016-06-05T07:46:34Z</time>
      </trkpt>
      <trkpt lat="45.71203" lon="4.62606">
        <ele>510.647552</ele>
        <time>2016-06-05T07:46:36Z</time>
      </trkpt>
      <trkpt lat="45.712" lon="4.62602">
        <ele>511.052979</ele>
        <time>2016-06-05T07:46:38Z</time>
      </trkpt>
      <trkpt lat="45.71199" lon="4.626">
        <ele>511.366852</ele>
        <time>2016-06-05T07:46:40Z</time>
      </trkpt>
      <trkpt lat="45.71197" lon="4.62597">
        <ele>511.698883</ele>
        <time>2016-06-05T07:46:42Z</time>
      </trkpt>
      <trkpt lat="45.71195" lon="4.62593">
        <ele>512.163269</ele>
        <time>2016-06-05T07:46:44Z</time>
      </trkpt>
      <trkpt lat="45.71193" lon="4.6259">
        <ele>512.483765</ele>
        <time>2016-06-05T07:46:46Z</time>
      </trkpt>
      <trkpt lat="45.71191" lon="4.62587">
        <ele>512.908875</ele>
        <time>2016-06-05T07:46:48Z</time>
      </trkpt>
      <trkpt lat="45.71189" lon="4.62584">
        <ele>513.365173</ele>
        <time>2016-06-05T07:46:50Z</time>
      </trkpt>
      <trkpt lat="45.71187" lon="4.6258">
        <ele>513.543823</ele>
        <time>2016-06-05T07:46:52Z</time>
      </trkpt>
      <trkpt lat="45.71185" lon="4.62576">
        <ele>513.936279</ele>
        <time>2016-06-05T07:46:54Z</time>
      </trkpt>
      <trkpt lat="45.71184" lon="4.62572">
        <ele>514.409424</ele>
        <time>2016-06-05T07:46:56Z</time>
      </trkpt>
      <trkpt lat="45.71183" lon="4.62569">
        <ele>514.775757</ele>
        <time>2016-06-05T07:46:58Z</time>
      </trkpt>
      <trkpt lat="45.71182" lon="4.62564">
        <ele>515.107117</ele>
        <time>2016-06-05T07:47:00Z</time>
      </trkpt>
      <trkpt lat="45.7118" lon="4.6256">
        <ele>515.45166</ele>
        <time>2016-06-05T07:47:02Z</time>
      </trkpt>
      <trkpt lat="45.71178" lon="4.62556">
        <ele>515.858093</ele>
        <time>2016-06-05T07:47:04Z</time>
      </trkpt>
      <trkpt lat="45.71176" lon="4.62553">
        <ele>516.283813</ele>
        <time>2016-06-05T07:47:06Z</time>
      </trkpt>
      <trkpt lat="45.71174" lon="4.6255">
        <ele>516.674194</ele>
        <time>2016-06-05T07:47:08Z</time>
      </trkpt>
      <trkpt lat="45.71172" lon="4.62546">
        <ele>517.047058</ele>
        <time>2016-06-05T07:47:10Z</time>
      </trkpt>
      <trkpt lat="45.7117" lon="4.62543">
        <ele>517.286926</ele>
        <time>2016-06-05T07:47:12Z</time>
      </trkpt>
      <trkpt lat="45.71169" lon="4.6254">
        <ele>517.664246</ele>
        <time>2016-06-05T07:47:14Z</time>
      </trkpt>
      <trkpt lat="45.71167" lon="4.62537">
        <ele>518.063354</ele>
        <time>2016-06-05T07:47:16Z</time>
      </trkpt>
      <trkpt lat="45.71164" lon="4.62534">
        <ele>518.254089</ele>
        <time>2016-06-05T07:47:18Z</time>
      </trkpt>
      <trkpt lat="45.71162" lon="4.62532">
        <ele>518.556213</ele>
        <time>2016-06-05T07:47:20Z</time>
      </trkpt>
      <trkpt lat="45.71161" lon="4.62529">
        <ele>518.956238</ele>
        <time>2016-06-05T07:47:22Z</time>
      </trkpt>
      <trkpt lat="45.71159" lon="4.62525">
        <ele>519.346741</ele>
        <time>2016-06-05T07:47:24Z</time>
      </trkpt>
      <trkpt lat="45.71157" lon="4.62524">
        <ele>519.704529</ele>
        <time>2016-06-05T07:47:26Z</time>
      </trkpt>
      <trkpt lat="45.71155" lon="4.62522">
        <ele>520.045471</ele>
        <time>2016-06-05T07:47:28Z</time>
      </trkpt>
      <trkpt lat="45.71152" lon="4.62517">
        <ele>521.153748</ele>
        <time>2016-06-05T07:47:34Z</time>
      </trkpt>
      <trkpt lat="45.71149" lon="4.62517">
        <ele>521.529907</ele>
        <time>2016-06-05T07:47:36Z</time>
      </trkpt>
      <trkpt lat="45.71146" lon="4.62512">
        <ele>522.982544</ele>
        <time>2016-06-05T07:47:44Z</time>
      </trkpt>
      <trkpt lat="45.71144" lon="4.62508">
        <ele>523.674377</ele>
        <time>2016-06-05T07:47:48Z</time>
      </trkpt>
      <trkpt lat="45.71136" lon="4.62501">
        <ele>526.920349</ele>
        <time>2016-06-05T07:48:12Z</time>
      </trkpt>
      <trkpt lat="45.71134" lon="4.62502">
        <ele>527.28717</ele>
        <time>2016-06-05T07:48:20Z</time>
      </trkpt>
      <trkpt lat="45.71132" lon="4.62501">
        <ele>527.41156</ele>
        <time>2016-06-05T07:48:22Z</time>
      </trkpt>
      <trkpt lat="45.71127" lon="4.62498">
        <ele>527.154541</ele>
        <time>2016-06-05T07:48:24Z</time>
      </trkpt>
      <trkpt lat="45.71122" lon="4.62494">
        <ele>527.120544</ele>
        <time>2016-06-05T07:48:26Z</time>
      </trkpt>
      <trkpt lat="45.71117" lon="4.6249">
        <ele>527.229736</ele>
        <time>2016-06-05T07:48:28Z</time>
      </trkpt>
      <trkpt lat="45.7111" lon="4.62487">
        <ele>527.290833</ele>
        <time>2016-06-05T07:48:30Z</time>
      </trkpt>
      <trkpt lat="45.71103" lon="4.62482">
        <ele>527.09436</ele>
        <time>2016-06-05T07:48:32Z</time>
      </trkpt>
      <trkpt lat="45.71093" lon="4.62474">
        <ele>526.923401</ele>
        <time>2016-06-05T07:48:34Z</time>
      </trkpt>
      <trkpt lat="45.71085" lon="4.62465">
        <ele>526.628113</ele>
        <time>2016-06-05T07:48:36Z</time>
      </trkpt>
      <trkpt lat="45.71077" lon="4.62453">
        <ele>526.383667</ele>
        <time>2016-06-05T07:48:38Z</time>
      </trkpt>
      <trkpt lat="45.71067" lon="4.62442">
        <ele>526.141968</ele>
        <time>2016-06-05T07:48:40Z</time>
      </trkpt>
      <trkpt lat="45.71059" lon="4.62431">
        <ele>526.096069</ele>
        <time>2016-06-05T07:48:42Z</time>
      </trkpt>
      <trkpt lat="45.71051" lon="4.62421">
        <ele>525.819763</ele>
        <time>2016-06-05T07:48:44Z</time>
      </trkpt>
      <trkpt lat="45.71046" lon="4.62412">
        <ele>525.646606</ele>
        <time>2016-06-05T07:48:46Z</time>
      </trkpt>
      <trkpt lat="45.71042" lon="4.62404">
        <ele>525.386841</ele>
        <time>2016-06-05T07:48:48Z</time>
      </trkpt>
      <trkpt lat="45.71034" lon="4.62395">
        <ele>525.203491</ele>
        <time>2016-06-05T07:48:50Z</time>
      </trkpt>
      <trkpt lat="45.71028" lon="4.62386">
        <ele>524.801941</ele>
        <time>2016-06-05T07:48:52Z</time>
      </trkpt>
      <trkpt lat="45.7102" lon="4.62375">
        <ele>524.557373</ele>
        <time>2016-06-05T07:48:54Z</time>
      </trkpt>
      <trkpt lat="45.71014" lon="4.62365">
        <ele>524.420349</ele>
        <time>2016-06-05T07:48:56Z</time>
      </trkpt>
      <trkpt lat="45.71009" lon="4.62356">
        <ele>524.328674</ele>
        <time>2016-06-05T07:48:58Z</time>
      </trkpt>
      <trkpt lat="45.71005" lon="4.62347">
        <ele>524.146667</ele>
        <time>2016-06-05T07:49:00Z</time>
      </trkpt>
      <trkpt lat="45.71" lon="4.6234">
        <ele>523.91748</ele>
        <time>2016-06-05T07:49:02Z</time>
      </trkpt>
      <trkpt lat="45.70995" lon="4.62334">
        <ele>523.782227</ele>
        <time>2016-06-05T07:49:04Z</time>
      </trkpt>
      <trkpt lat="45.70991" lon="4.62328">
        <ele>523.831421</ele>
        <time>2016-06-05T07:49:06Z</time>
      </trkpt>
      <trkpt lat="45.70988" lon="4.62322">
        <ele>523.741882</ele>
        <time>2016-06-05T07:49:08Z</time>
      </trkpt>
      <trkpt lat="45.70985" lon="4.62316">
        <ele>523.752808</ele>
        <time>2016-06-05T07:49:10Z</time>
      </trkpt>
      <trkpt lat="45.70981" lon="4.6231">
        <ele>523.820557</ele>
        <time>2016-06-05T07:49:12Z</time>
      </trkpt>
      <trkpt lat="45.70977" lon="4.62304">
        <ele>524.02356</ele>
        <time>2016-06-05T07:49:14Z</time>
      </trkpt>
      <trkpt lat="45.70974" lon="4.62298">
        <ele>524.247437</ele>
        <time>2016-06-05T07:49:16Z</time>
      </trkpt>
      <trkpt lat="45.70974" lon="4.62292">
        <ele>524.640503</ele>
        <time>2016-06-05T07:49:18Z</time>
      </trkpt>
      <trkpt lat="45.70974" lon="4.62286">
        <ele>524.891479</ele>
        <time>2016-06-05T07:49:20Z</time>
      </trkpt>
      <trkpt lat="45.70973" lon="4.62279">
        <ele>525.215759</ele>
        <time>2016-06-05T07:49:22Z</time>
      </trkpt>
      <trkpt lat="45.70972" lon="4.62272">
        <ele>525.409119</ele>
        <time>2016-06-05T07:49:24Z</time>
      </trkpt>
      <trkpt lat="45.70971" lon="4.62265">
        <ele>525.724243</ele>
        <time>2016-06-05T07:49:26Z</time>
      </trkpt>
      <trkpt lat="45.70969" lon="4.62258">
        <ele>526.141235</ele>
        <time>2016-06-05T07:49:28Z</time>
      </trkpt>
      <trkpt lat="45.70968" lon="4.62251">
        <ele>526.289917</ele>
        <time>2016-06-05T07:49:30Z</time>
      </trkpt>
      <trkpt lat="45.70969" lon="4.62244">
        <ele>526.573669</ele>
        <time>2016-06-05T07:49:32Z</time>
      </trkpt>
      <trkpt lat="45.70968" lon="4.62237">
        <ele>527.117798</ele>
        <time>2016-06-05T07:49:34Z</time>
      </trkpt>
      <trkpt lat="45.70968" lon="4.6223">
        <ele>527.552307</ele>
        <time>2016-06-05T07:49:36Z</time>
      </trkpt>
      <trkpt lat="45.70968" lon="4.62224">
        <ele>527.857056</ele>
        <time>2016-06-05T07:49:38Z</time>
      </trkpt>
      <trkpt lat="45.70968" lon="4.62217">
        <ele>528.147522</ele>
        <time>2016-06-05T07:49:40Z</time>
      </trkpt>
      <trkpt lat="45.70966" lon="4.62211">
        <ele>528.66272</ele>
        <time>2016-06-05T07:49:42Z</time>
      </trkpt>
      <trkpt lat="45.70965" lon="4.62206">
        <ele>529.123596</ele>
        <time>2016-06-05T07:49:44Z</time>
      </trkpt>
      <trkpt lat="45.70964" lon="4.62201">
        <ele>529.523071</ele>
        <time>2016-06-05T07:49:46Z</time>
      </trkpt>
      <trkpt lat="45.70966" lon="4.62193">
        <ele>529.959717</ele>
        <time>2016-06-05T07:49:48Z</time>
      </trkpt>
      <trkpt lat="45.70968" lon="4.62181">
        <ele>530.256958</ele>
        <time>2016-06-05T07:49:50Z</time>
      </trkpt>
      <trkpt lat="45.70969" lon="4.62168">
        <ele>530.438171</ele>
        <time>2016-06-05T07:49:52Z</time>
      </trkpt>
      <trkpt lat="45.70971" lon="4.62154">
        <ele>530.647827</ele>
        <time>2016-06-05T07:49:54Z</time>
      </trkpt>
      <trkpt lat="45.70975" lon="4.62137">
        <ele>530.835632</ele>
        <time>2016-06-05T07:49:56Z</time>
      </trkpt>
      <trkpt lat="45.70976" lon="4.6212">
        <ele>530.972717</ele>
        <time>2016-06-05T07:49:58Z</time>
      </trkpt>
      <trkpt lat="45.70978" lon="4.62107">
        <ele>530.899475</ele>
        <time>2016-06-05T07:50:00Z</time>
      </trkpt>
      <trkpt lat="45.70983" lon="4.62092">
        <ele>530.916931</ele>
        <time>2016-06-05T07:50:02Z</time>
      </trkpt>
      <trkpt lat="45.7099" lon="4.62077">
        <ele>530.803406</ele>
        <time>2016-06-05T07:50:04Z</time>
      </trkpt>
      <trkpt lat="45.70997" lon="4.6206">
        <ele>530.266724</ele>
        <time>2016-06-05T07:50:06Z</time>
      </trkpt>
      <trkpt lat="45.71005" lon="4.62044">
        <ele>530.099548</ele>
        <time>2016-06-05T07:50:08Z</time>
      </trkpt>
      <trkpt lat="45.7101" lon="4.62025">
        <ele>529.937866</ele>
        <time>2016-06-05T07:50:10Z</time>
      </trkpt>
      <trkpt lat="45.71012" lon="4.62007">
        <ele>529.43573</ele>
        <time>2016-06-05T07:50:12Z</time>
      </trkpt>
      <trkpt lat="45.71017" lon="4.61989">
        <ele>528.991943</ele>
        <time>2016-06-05T07:50:14Z</time>
      </trkpt>
      <trkpt lat="45.71019" lon="4.61969">
        <ele>528.479065</ele>
        <time>2016-06-05T07:50:16Z</time>
      </trkpt>
      <trkpt lat="45.71022" lon="4.61951">
        <ele>527.951294</ele>
        <time>2016-06-05T07:50:18Z</time>
      </trkpt>
      <trkpt lat="45.71024" lon="4.61935">
        <ele>527.750427</ele>
        <time>2016-06-05T07:50:20Z</time>
      </trkpt>
      <trkpt lat="45.71027" lon="4.61922">
        <ele>527.383667</ele>
        <time>2016-06-05T07:50:22Z</time>
      </trkpt>
      <trkpt lat="45.71029" lon="4.61908">
        <ele>526.669861</ele>
        <time>2016-06-05T07:50:24Z</time>
      </trkpt>
      <trkpt lat="45.7103" lon="4.61893">
        <ele>526.02356</ele>
        <time>2016-06-05T07:50:26Z</time>
      </trkpt>
      <trkpt lat="45.71032" lon="4.6188">
        <ele>525.425415</ele>
        <time>2016-06-05T07:50:28Z</time>
      </trkpt>
      <trkpt lat="45.71034" lon="4.61866">
        <ele>524.792358</ele>
        <time>2016-06-05T07:50:30Z</time>
      </trkpt>
      <trkpt lat="45.71037" lon="4.61854">
        <ele>524.324829</ele>
        <time>2016-06-05T07:50:32Z</time>
      </trkpt>
      <trkpt lat="45.71039" lon="4.61843">
        <ele>523.771973</ele>
        <time>2016-06-05T07:50:34Z</time>
      </trkpt>
      <trkpt lat="45.7104" lon="4.61832">
        <ele>523.36145</ele>
        <time>2016-06-05T07:50:36Z</time>
      </trkpt>
      <trkpt lat="45.7104" lon="4.6182">
        <ele>522.953186</ele>
        <time>2016-06-05T07:50:38Z</time>
      </trkpt>
      <trkpt lat="45.7104" lon="4.61808">
        <ele>522.489197</ele>
        <time>2016-06-05T07:50:40Z</time>
      </trkpt>
      <trkpt lat="45.7104" lon="4.61795">
        <ele>522.190308</ele>
        <time>2016-06-05T07:50:42Z</time>
      </trkpt>
      <trkpt lat="45.71039" lon="4.6178">
        <ele>521.884705</ele>
        <time>2016-06-05T07:50:44Z</time>
      </trkpt>
      <trkpt lat="45.71037" lon="4.61762">
        <ele>521.74939</ele>
        <time>2016-06-05T07:50:46Z</time>
      </trkpt>
      <trkpt lat="45.71037" lon="4.61745">
        <ele>521.88501</ele>
        <time>2016-06-05T07:50:48Z</time>
      </trkpt>
      <trkpt lat="45.71035" lon="4.61728">
        <ele>521.620056</ele>
        <time>2016-06-05T07:50:50Z</time>
      </trkpt>
      <trkpt lat="45.71035" lon="4.61713">
        <ele>521.18811</ele>
        <time>2016-06-05T07:50:52Z</time>
      </trkpt>
      <trkpt lat="45.71037" lon="4.61698">
        <ele>521.360413</ele>
        <time>2016-06-05T07:50:54Z</time>
      </trkpt>
      <trkpt lat="45.71039" lon="4.61682">
        <ele>521.445557</ele>
        <time>2016-06-05T07:50:56Z</time>
      </trkpt>
      <trkpt lat="45.71043" lon="4.6167">
        <ele>521.457397</ele>
        <time>2016-06-05T07:50:58Z</time>
      </trkpt>
      <trkpt lat="45.71048" lon="4.61658">
        <ele>521.413696</ele>
        <time>2016-06-05T07:51:00Z</time>
      </trkpt>
      <trkpt lat="45.71051" lon="4.61644">
        <ele>521.365662</ele>
        <time>2016-06-05T07:51:02Z</time>
      </trkpt>
      <trkpt lat="45.71053" lon="4.6163">
        <ele>521.322021</ele>
        <time>2016-06-05T07:51:04Z</time>
      </trkpt>
      <trkpt lat="45.71055" lon="4.61618">
        <ele>521.449646</ele>
        <time>2016-06-05T07:51:06Z</time>
      </trkpt>
      <trkpt lat="45.71058" lon="4.61604">
        <ele>521.530396</ele>
        <time>2016-06-05T07:51:08Z</time>
      </trkpt>
      <trkpt lat="45.71059" lon="4.61589">
        <ele>521.74646</ele>
        <time>2016-06-05T07:51:10Z</time>
      </trkpt>
      <trkpt lat="45.71059" lon="4.61576">
        <ele>521.844727</ele>
        <time>2016-06-05T07:51:12Z</time>
      </trkpt>
      <trkpt lat="45.71058" lon="4.61566">
        <ele>521.82074</ele>
        <time>2016-06-05T07:51:14Z</time>
      </trkpt>
      <trkpt lat="45.71058" lon="4.61555">
        <ele>521.982788</ele>
        <time>2016-06-05T07:51:16Z</time>
      </trkpt>
      <trkpt lat="45.71058" lon="4.61544">
        <ele>521.96521</ele>
        <time>2016-06-05T07:51:18Z</time>
      </trkpt>
      <trkpt lat="45.71058" lon="4.61533">
        <ele>521.969604</ele>
        <time>2016-06-05T07:51:20Z</time>
      </trkpt>
      <trkpt lat="45.71058" lon="4.61522">
        <ele>521.978333</ele>
        <time>2016-06-05T07:51:22Z</time>
      </trkpt>
      <trkpt lat="45.71058" lon="4.61512">
        <ele>522.155396</ele>
        <time>2016-06-05T07:51:24Z</time>
      </trkpt>
      <trkpt lat="45.71057" lon="4.61502">
        <ele>522.352661</ele>
        <time>2016-06-05T07:51:26Z</time>
      </trkpt>
      <trkpt lat="45.71053" lon="4.61492">
        <ele>522.430725</ele>
        <time>2016-06-05T07:51:28Z</time>
      </trkpt>
      <trkpt lat="45.7105" lon="4.61482">
        <ele>522.65979</ele>
        <time>2016-06-05T07:51:30Z</time>
      </trkpt>
      <trkpt lat="45.71046" lon="4.61469">
        <ele>522.989319</ele>
        <time>2016-06-05T07:51:32Z</time>
      </trkpt>
      <trkpt lat="45.71041" lon="4.61453">
        <ele>523.03949</ele>
        <time>2016-06-05T07:51:34Z</time>
      </trkpt>
      <trkpt lat="45.71036" lon="4.61437">
        <ele>523.080933</ele>
        <time>2016-06-05T07:51:36Z</time>
      </trkpt>
      <trkpt lat="45.71032" lon="4.61425">
        <ele>523.087524</ele>
        <time>2016-06-05T07:51:38Z</time>
      </trkpt>
      <trkpt lat="45.71027" lon="4.61413">
        <ele>523.28949</ele>
        <time>2016-06-05T07:51:40Z</time>
      </trkpt>
      <trkpt lat="45.71024" lon="4.61402">
        <ele>523.566589</ele>
        <time>2016-06-05T07:51:42Z</time>
      </trkpt>
      <trkpt lat="45.7102" lon="4.61391">
        <ele>523.832825</ele>
        <time>2016-06-05T07:51:44Z</time>
      </trkpt>
      <trkpt lat="45.71016" lon="4.61379">
        <ele>524.147095</ele>
        <time>2016-06-05T07:51:46Z</time>
      </trkpt>
      <trkpt lat="45.71013" lon="4.61369">
        <ele>524.370728</ele>
        <time>2016-06-05T07:51:48Z</time>
      </trkpt>
      <trkpt lat="45.71011" lon="4.61358">
        <ele>524.469116</ele>
        <time>2016-06-05T07:51:50Z</time>
      </trkpt>
      <trkpt lat="45.71011" lon="4.61348">
        <ele>524.610107</ele>
        <time>2016-06-05T07:51:52Z</time>
      </trkpt>
      <trkpt lat="45.71014" lon="4.61338">
        <ele>524.660278</ele>
        <time>2016-06-05T07:51:54Z</time>
      </trkpt>
      <trkpt lat="45.71018" lon="4.61327">
        <ele>524.69519</ele>
        <time>2016-06-05T07:51:56Z</time>
      </trkpt>
      <trkpt lat="45.71026" lon="4.61314">
        <ele>524.636292</ele>
        <time>2016-06-05T07:51:58Z</time>
      </trkpt>
      <trkpt lat="45.71034" lon="4.61301">
        <ele>524.619568</ele>
        <time>2016-06-05T07:52:00Z</time>
      </trkpt>
      <trkpt lat="45.71043" lon="4.61291">
        <ele>524.676331</ele>
        <time>2016-06-05T07:52:02Z</time>
      </trkpt>
      <trkpt lat="45.7105" lon="4.61282">
        <ele>524.815369</ele>
        <time>2016-06-05T07:52:04Z</time>
      </trkpt>
      <trkpt lat="45.71057" lon="4.61274">
        <ele>524.956909</ele>
        <time>2016-06-05T07:52:06Z</time>
      </trkpt>
      <trkpt lat="45.71062" lon="4.61265">
        <ele>525.056519</ele>
        <time>2016-06-05T07:52:08Z</time>
      </trkpt>
      <trkpt lat="45.71067" lon="4.61256">
        <ele>525.351196</ele>
        <time>2016-06-05T07:52:10Z</time>
      </trkpt>
      <trkpt lat="45.71072" lon="4.61246">
        <ele>525.534607</ele>
        <time>2016-06-05T07:52:12Z</time>
      </trkpt>
      <trkpt lat="45.71076" lon="4.61237">
        <ele>525.584839</ele>
        <time>2016-06-05T07:52:14Z</time>
      </trkpt>
      <trkpt lat="45.71079" lon="4.61228">
        <ele>525.875122</ele>
        <time>2016-06-05T07:52:16Z</time>
      </trkpt>
      <trkpt lat="45.7108" lon="4.61219">
        <ele>526.126587</ele>
        <time>2016-06-05T07:52:18Z</time>
      </trkpt>
      <trkpt lat="45.71081" lon="4.61211">
        <ele>526.569702</ele>
        <time>2016-06-05T07:52:20Z</time>
      </trkpt>
      <trkpt lat="45.71081" lon="4.61205">
        <ele>526.910095</ele>
        <time>2016-06-05T07:52:22Z</time>
      </trkpt>
      <trkpt lat="45.71082" lon="4.61199">
        <ele>527.056396</ele>
        <time>2016-06-05T07:52:24Z</time>
      </trkpt>
      <trkpt lat="45.71082" lon="4.61193">
        <ele>527.251221</ele>
        <time>2016-06-05T07:52:26Z</time>
      </trkpt>
      <trkpt lat="45.71082" lon="4.61186">
        <ele>527.388733</ele>
        <time>2016-06-05T07:52:28Z</time>
      </trkpt>
      <trkpt lat="45.71082" lon="4.61178">
        <ele>527.759888</ele>
        <time>2016-06-05T07:52:30Z</time>
      </trkpt>
      <trkpt lat="45.71082" lon="4.61169">
        <ele>528.065491</ele>
        <time>2016-06-05T07:52:32Z</time>
      </trkpt>
      <trkpt lat="45.71081" lon="4.6116">
        <ele>528.359009</ele>
        <time>2016-06-05T07:52:34Z</time>
      </trkpt>
      <trkpt lat="45.7108" lon="4.61151">
        <ele>528.703918</ele>
        <time>2016-06-05T07:52:36Z</time>
      </trkpt>
      <trkpt lat="45.71081" lon="4.61135">
        <ele>528.719177</ele>
        <time>2016-06-05T07:52:38Z</time>
      </trkpt>
      <trkpt lat="45.71081" lon="4.61115">
        <ele>528.664124</ele>
        <time>2016-06-05T07:52:40Z</time>
      </trkpt>
      <trkpt lat="45.71078" lon="4.61096">
        <ele>528.67511</ele>
        <time>2016-06-05T07:52:42Z</time>
      </trkpt>
      <trkpt lat="45.71074" lon="4.61079">
        <ele>528.845947</ele>
        <time>2016-06-05T07:52:44Z</time>
      </trkpt>
      <trkpt lat="45.71068" lon="4.61065">
        <ele>529.027405</ele>
        <time>2016-06-05T07:52:46Z</time>
      </trkpt>
      <trkpt lat="45.7106" lon="4.61047">
        <ele>528.678284</ele>
        <time>2016-06-05T07:52:48Z</time>
      </trkpt>
      <trkpt lat="45.71056" lon="4.61033">
        <ele>528.413452</ele>
        <time>2016-06-05T07:52:50Z</time>
      </trkpt>
      <trkpt lat="45.71055" lon="4.61023">
        <ele>527.80896</ele>
        <time>2016-06-05T07:52:52Z</time>
      </trkpt>
      <trkpt lat="45.71058" lon="4.61014">
        <ele>527.448792</ele>
        <time>2016-06-05T07:52:54Z</time>
      </trkpt>
      <trkpt lat="45.71061" lon="4.61002">
        <ele>527.275269</ele>
        <time>2016-06-05T07:52:56Z</time>
      </trkpt>
      <trkpt lat="45.71064" lon="4.60991">
        <ele>526.86438</ele>
        <time>2016-06-05T07:52:58Z</time>
      </trkpt>
      <trkpt lat="45.71068" lon="4.60981">
        <ele>526.372925</ele>
        <time>2016-06-05T07:53:00Z</time>
      </trkpt>
      <trkpt lat="45.71072" lon="4.60971">
        <ele>525.829468</ele>
        <time>2016-06-05T07:53:02Z</time>
      </trkpt>
      <trkpt lat="45.71076" lon="4.60963">
        <ele>525.519653</ele>
        <time>2016-06-05T07:53:04Z</time>
      </trkpt>
      <trkpt lat="45.71079" lon="4.60956">
        <ele>525.043457</ele>
        <time>2016-06-05T07:53:06Z</time>
      </trkpt>
      <trkpt lat="45.71082" lon="4.6095">
        <ele>524.685547</ele>
        <time>2016-06-05T07:53:08Z</time>
      </trkpt>
      <trkpt lat="45.71084" lon="4.60943">
        <ele>524.207458</ele>
        <time>2016-06-05T07:53:10Z</time>
      </trkpt>
      <trkpt lat="45.71086" lon="4.60936">
        <ele>523.788269</ele>
        <time>2016-06-05T07:53:12Z</time>
      </trkpt>
      <trkpt lat="45.71088" lon="4.6093">
        <ele>523.377808</ele>
        <time>2016-06-05T07:53:14Z</time>
      </trkpt>
      <trkpt lat="45.7109" lon="4.60924">
        <ele>522.99353</ele>
        <time>2016-06-05T07:53:16Z</time>
      </trkpt>
      <trkpt lat="45.71093" lon="4.60917">
        <ele>522.790527</ele>
        <time>2016-06-05T07:53:18Z</time>
      </trkpt>
      <trkpt lat="45.71095" lon="4.60911">
        <ele>522.723511</ele>
        <time>2016-06-05T07:53:20Z</time>
      </trkpt>
      <trkpt lat="45.71096" lon="4.60905">
        <ele>522.823853</ele>
        <time>2016-06-05T07:53:22Z</time>
      </trkpt>
      <trkpt lat="45.71097" lon="4.609">
        <ele>522.86084</ele>
        <time>2016-06-05T07:53:24Z</time>
      </trkpt>
      <trkpt lat="45.71099" lon="4.60895">
        <ele>522.686157</ele>
        <time>2016-06-05T07:53:26Z</time>
      </trkpt>
      <trkpt lat="45.71101" lon="4.60891">
        <ele>522.672729</ele>
        <time>2016-06-05T07:53:28Z</time>
      </trkpt>
      <trkpt lat="45.71103" lon="4.60887">
        <ele>522.994324</ele>
        <time>2016-06-05T07:53:30Z</time>
      </trkpt>
      <trkpt lat="45.71106" lon="4.60883">
        <ele>523.494324</ele>
        <time>2016-06-05T07:53:32Z</time>
      </trkpt>
      <trkpt lat="45.71108" lon="4.60879">
        <ele>523.953796</ele>
        <time>2016-06-05T07:53:34Z</time>
      </trkpt>
      <trkpt lat="45.71111" lon="4.60876">
        <ele>524.369629</ele>
        <time>2016-06-05T07:53:36Z</time>
      </trkpt>
      <trkpt lat="45.71114" lon="4.60874">
        <ele>524.84552</ele>
        <time>2016-06-05T07:53:38Z</time>
      </trkpt>
      <trkpt lat="45.71117" lon="4.60872">
        <ele>525.32843</ele>
        <time>2016-06-05T07:53:40Z</time>
      </trkpt>
      <trkpt lat="45.71121" lon="4.6087">
        <ele>525.819458</ele>
        <time>2016-06-05T07:53:42Z</time>
      </trkpt>
      <trkpt lat="45.71125" lon="4.60868">
        <ele>526.098816</ele>
        <time>2016-06-05T07:53:44Z</time>
      </trkpt>
      <trkpt lat="45.71132" lon="4.60872">
        <ele>526.171204</ele>
        <time>2016-06-05T07:53:46Z</time>
      </trkpt>
      <trkpt lat="45.71142" lon="4.60879">
        <ele>526.432922</ele>
        <time>2016-06-05T07:53:48Z</time>
      </trkpt>
      <trkpt lat="45.71151" lon="4.60882">
        <ele>526.535522</ele>
        <time>2016-06-05T07:53:50Z</time>
      </trkpt>
      <trkpt lat="45.71156" lon="4.60875">
        <ele>526.699219</ele>
        <time>2016-06-05T07:53:52Z</time>
      </trkpt>
      <trkpt lat="45.7116" lon="4.60863">
        <ele>526.721008</ele>
        <time>2016-06-05T07:53:54Z</time>
      </trkpt>
      <trkpt lat="45.71162" lon="4.60853">
        <ele>526.729797</ele>
        <time>2016-06-05T07:53:56Z</time>
      </trkpt>
      <trkpt lat="45.71164" lon="4.60843">
        <ele>526.778809</ele>
        <time>2016-06-05T07:53:58Z</time>
      </trkpt>
      <trkpt lat="45.71165" lon="4.60834">
        <ele>526.828918</ele>
        <time>2016-06-05T07:54:00Z</time>
      </trkpt>
      <trkpt lat="45.71165" lon="4.60826">
        <ele>526.845825</ele>
        <time>2016-06-05T07:54:02Z</time>
      </trkpt>
      <trkpt lat="45.71165" lon="4.60818">
        <ele>526.941833</ele>
        <time>2016-06-05T07:54:04Z</time>
      </trkpt>
      <trkpt lat="45.71164" lon="4.60809">
        <ele>527.031372</ele>
        <time>2016-06-05T07:54:06Z</time>
      </trkpt>
      <trkpt lat="45.71165" lon="4.60798">
        <ele>526.9375</ele>
        <time>2016-06-05T07:54:08Z</time>
      </trkpt>
      <trkpt lat="45.71167" lon="4.60786">
        <ele>526.769409</ele>
        <time>2016-06-05T07:54:10Z</time>
      </trkpt>
      <trkpt lat="45.71168" lon="4.60772">
        <ele>526.627563</ele>
        <time>2016-06-05T07:54:12Z</time>
      </trkpt>
      <trkpt lat="45.7117" lon="4.60756">
        <ele>526.576965</ele>
        <time>2016-06-05T07:54:14Z</time>
      </trkpt>
      <trkpt lat="45.71171" lon="4.60738">
        <ele>526.40332</ele>
        <time>2016-06-05T07:54:16Z</time>
      </trkpt>
      <trkpt lat="45.71172" lon="4.6072">
        <ele>526.102051</ele>
        <time>2016-06-05T07:54:18Z</time>
      </trkpt>
      <trkpt lat="45.71175" lon="4.60703">
        <ele>525.746216</ele>
        <time>2016-06-05T07:54:20Z</time>
      </trkpt>
      <trkpt lat="45.71177" lon="4.60688">
        <ele>525.52887</ele>
        <time>2016-06-05T07:54:22Z</time>
      </trkpt>
      <trkpt lat="45.71179" lon="4.60674">
        <ele>525.177368</ele>
        <time>2016-06-05T07:54:24Z</time>
      </trkpt>
      <trkpt lat="45.71182" lon="4.6066">
        <ele>525.013062</ele>
        <time>2016-06-05T07:54:26Z</time>
      </trkpt>
      <trkpt lat="45.71183" lon="4.60647">
        <ele>524.950867</ele>
        <time>2016-06-05T07:54:28Z</time>
      </trkpt>
      <trkpt lat="45.71185" lon="4.60634">
        <ele>524.848267</ele>
        <time>2016-06-05T07:54:30Z</time>
      </trkpt>
      <trkpt lat="45.71187" lon="4.60621">
        <ele>524.843872</ele>
        <time>2016-06-05T07:54:32Z</time>
      </trkpt>
      <trkpt lat="45.71189" lon="4.60607">
        <ele>524.907166</ele>
        <time>2016-06-05T07:54:34Z</time>
      </trkpt>
      <trkpt lat="45.71191" lon="4.60594">
        <ele>524.963928</ele>
        <time>2016-06-05T07:54:36Z</time>
      </trkpt>
      <trkpt lat="45.71193" lon="4.6058">
        <ele>524.959595</ele>
        <time>2016-06-05T07:54:38Z</time>
      </trkpt>
      <trkpt lat="45.71195" lon="4.60568">
        <ele>525.024048</ele>
        <time>2016-06-05T07:54:40Z</time>
      </trkpt>
      <trkpt lat="45.71197" lon="4.60556">
        <ele>525.229248</ele>
        <time>2016-06-05T07:54:42Z</time>
      </trkpt>
      <trkpt lat="45.71199" lon="4.60544">
        <ele>525.185547</ele>
        <time>2016-06-05T07:54:44Z</time>
      </trkpt>
      <trkpt lat="45.71202" lon="4.60532">
        <ele>525.220459</ele>
        <time>2016-06-05T07:54:46Z</time>
      </trkpt>
      <trkpt lat="45.71206" lon="4.6052">
        <ele>525.130981</ele>
        <time>2016-06-05T07:54:48Z</time>
      </trkpt>
      <trkpt lat="45.71211" lon="4.60509">
        <ele>525.261902</ele>
        <time>2016-06-05T07:54:50Z</time>
      </trkpt>
      <trkpt lat="45.71215" lon="4.60496">
        <ele>525.341919</ele>
        <time>2016-06-05T07:54:52Z</time>
      </trkpt>
      <trkpt lat="45.71219" lon="4.60482">
        <ele>525.466431</ele>
        <time>2016-06-05T07:54:54Z</time>
      </trkpt>
      <trkpt lat="45.71222" lon="4.60469">
        <ele>525.366028</ele>
        <time>2016-06-05T07:54:56Z</time>
      </trkpt>
      <trkpt lat="45.71226" lon="4.60454">
        <ele>525.298401</ele>
        <time>2016-06-05T07:54:58Z</time>
      </trkpt>
      <trkpt lat="45.71228" lon="4.60437">
        <ele>525.534119</ele>
        <time>2016-06-05T07:55:00Z</time>
      </trkpt>
      <trkpt lat="45.71232" lon="4.60417">
        <ele>525.377014</ele>
        <time>2016-06-05T07:55:02Z</time>
      </trkpt>
      <trkpt lat="45.71235" lon="4.60395">
        <ele>525.110718</ele>
        <time>2016-06-05T07:55:04Z</time>
      </trkpt>
      <trkpt lat="45.71237" lon="4.60372">
        <ele>524.771362</ele>
        <time>2016-06-05T07:55:06Z</time>
      </trkpt>
      <trkpt lat="45.71239" lon="4.60349">
        <ele>524.391907</ele>
        <time>2016-06-05T07:55:08Z</time>
      </trkpt>
      <trkpt lat="45.71239" lon="4.60326">
        <ele>524.098389</ele>
        <time>2016-06-05T07:55:10Z</time>
      </trkpt>
      <trkpt lat="45.71236" lon="4.60303">
        <ele>523.585815</ele>
        <time>2016-06-05T07:55:12Z</time>
      </trkpt>
      <trkpt lat="45.71232" lon="4.60285">
        <ele>523.014282</ele>
        <time>2016-06-05T07:55:14Z</time>
      </trkpt>
      <trkpt lat="45.7123" lon="4.60272">
        <ele>522.586731</ele>
        <time>2016-06-05T07:55:16Z</time>
      </trkpt>
      <trkpt lat="45.71228" lon="4.60262">
        <ele>522.340149</ele>
        <time>2016-06-05T07:55:18Z</time>
      </trkpt>
      <trkpt lat="45.71227" lon="4.60254">
        <ele>522.108521</ele>
        <time>2016-06-05T07:55:20Z</time>
      </trkpt>
      <trkpt lat="45.71227" lon="4.60246">
        <ele>521.792114</ele>
        <time>2016-06-05T07:55:22Z</time>
      </trkpt>
      <trkpt lat="45.71225" lon="4.60239">
        <ele>521.384033</ele>
        <time>2016-06-05T07:55:24Z</time>
      </trkpt>
      <trkpt lat="45.71223" lon="4.60232">
        <ele>521.209473</ele>
        <time>2016-06-05T07:55:26Z</time>
      </trkpt>
      <trkpt lat="45.71222" lon="4.60226">
        <ele>521.047974</ele>
        <time>2016-06-05T07:55:28Z</time>
      </trkpt>
      <trkpt lat="45.71219" lon="4.6022">
        <ele>520.879944</ele>
        <time>2016-06-05T07:55:30Z</time>
      </trkpt>
      <trkpt lat="45.71217" lon="4.60215">
        <ele>520.703125</ele>
        <time>2016-06-05T07:55:32Z</time>
      </trkpt>
      <trkpt lat="45.71216" lon="4.60209">
        <ele>520.55542</ele>
        <time>2016-06-05T07:55:34Z</time>
      </trkpt>
      <trkpt lat="45.71215" lon="4.60204">
        <ele>520.553223</ele>
        <time>2016-06-05T07:55:36Z</time>
      </trkpt>
      <trkpt lat="45.71214" lon="4.60199">
        <ele>520.762756</ele>
        <time>2016-06-05T07:55:38Z</time>
      </trkpt>
      <trkpt lat="45.71213" lon="4.60194">
        <ele>520.773682</ele>
        <time>2016-06-05T07:55:40Z</time>
      </trkpt>
      <trkpt lat="45.71211" lon="4.60189">
        <ele>521.020264</ele>
        <time>2016-06-05T07:55:42Z</time>
      </trkpt>
      <trkpt lat="45.7121" lon="4.60184">
        <ele>521.170898</ele>
        <time>2016-06-05T07:55:44Z</time>
      </trkpt>
      <trkpt lat="45.71208" lon="4.6018">
        <ele>521.577576</ele>
        <time>2016-06-05T07:55:46Z</time>
      </trkpt>
      <trkpt lat="45.71207" lon="4.60175">
        <ele>522.180664</ele>
        <time>2016-06-05T07:55:48Z</time>
      </trkpt>
      <trkpt lat="45.71206" lon="4.60171">
        <ele>522.697876</ele>
        <time>2016-06-05T07:55:50Z</time>
      </trkpt>
      <trkpt lat="45.71204" lon="4.60166">
        <ele>523.319885</ele>
        <time>2016-06-05T07:55:52Z</time>
      </trkpt>
      <trkpt lat="45.71203" lon="4.60162">
        <ele>524.159973</ele>
        <time>2016-06-05T07:55:54Z</time>
      </trkpt>
      <trkpt lat="45.712" lon="4.60157">
        <ele>525.032715</ele>
        <time>2016-06-05T07:55:56Z</time>
      </trkpt>
      <trkpt lat="45.71198" lon="4.60152">
        <ele>525.706909</ele>
        <time>2016-06-05T07:55:58Z</time>
      </trkpt>
      <trkpt lat="45.71196" lon="4.60148">
        <ele>526.414429</ele>
        <time>2016-06-05T07:56:00Z</time>
      </trkpt>
      <trkpt lat="45.71194" lon="4.60144">
        <ele>526.925171</ele>
        <time>2016-06-05T07:56:02Z</time>
      </trkpt>
      <trkpt lat="45.71192" lon="4.60139">
        <ele>527.536316</ele>
        <time>2016-06-05T07:56:04Z</time>
      </trkpt>
      <trkpt lat="45.7119" lon="4.60135">
        <ele>528.151855</ele>
        <time>2016-06-05T07:56:06Z</time>
      </trkpt>
      <trkpt lat="45.71187" lon="4.6013">
        <ele>528.695435</ele>
        <time>2016-06-05T07:56:08Z</time>
      </trkpt>
      <trkpt lat="45.71185" lon="4.60126">
        <ele>528.924683</ele>
        <time>2016-06-05T07:56:10Z</time>
      </trkpt>
      <trkpt lat="45.71183" lon="4.60121">
        <ele>529.385315</ele>
        <time>2016-06-05T07:56:12Z</time>
      </trkpt>
      <trkpt lat="45.7118" lon="4.60117">
        <ele>529.883179</ele>
        <time>2016-06-05T07:56:14Z</time>
      </trkpt>
      <trkpt lat="45.71178" lon="4.60112">
        <ele>530.365662</ele>
        <time>2016-06-05T07:56:16Z</time>
      </trkpt>
      <trkpt lat="45.71175" lon="4.60107">
        <ele>530.743408</ele>
        <time>2016-06-05T07:56:18Z</time>
      </trkpt>
      <trkpt lat="45.71172" lon="4.60102">
        <ele>531.125549</ele>
        <time>2016-06-05T07:56:20Z</time>
      </trkpt>
      <trkpt lat="45.71169" lon="4.60098">
        <ele>531.525146</ele>
        <time>2016-06-05T07:56:22Z</time>
      </trkpt>
      <trkpt lat="45.71166" lon="4.60094">
        <ele>531.86145</ele>
        <time>2016-06-05T07:56:24Z</time>
      </trkpt>
      <trkpt lat="45.71163" lon="4.6009">
        <ele>532.149841</ele>
        <time>2016-06-05T07:56:26Z</time>
      </trkpt>
      <trkpt lat="45.71159" lon="4.60086">
        <ele>532.546021</ele>
        <time>2016-06-05T07:56:28Z</time>
      </trkpt>
      <trkpt lat="45.71157" lon="4.60082">
        <ele>532.845825</ele>
        <time>2016-06-05T07:56:30Z</time>
      </trkpt>
      <trkpt lat="45.71154" lon="4.60079">
        <ele>533.142639</ele>
        <time>2016-06-05T07:56:32Z</time>
      </trkpt>
      <trkpt lat="45.71151" lon="4.60076">
        <ele>533.435303</ele>
        <time>2016-06-05T07:56:34Z</time>
      </trkpt>
      <trkpt lat="45.71148" lon="4.60072">
        <ele>533.603577</ele>
        <time>2016-06-05T07:56:36Z</time>
      </trkpt>
      <trkpt lat="45.71144" lon="4.60068">
        <ele>533.891968</ele>
        <time>2016-06-05T07:56:38Z</time>
      </trkpt>
      <trkpt lat="45.71141" lon="4.60064">
        <ele>534.300537</ele>
        <time>2016-06-05T07:56:40Z</time>
      </trkpt>
      <trkpt lat="45.71137" lon="4.6006">
        <ele>534.641357</ele>
        <time>2016-06-05T07:56:42Z</time>
      </trkpt>
      <trkpt lat="45.71135" lon="4.60057">
        <ele>535.071655</ele>
        <time>2016-06-05T07:56:44Z</time>
      </trkpt>
      <trkpt lat="45.71133" lon="4.60052">
        <ele>535.414917</ele>
        <time>2016-06-05T07:56:46Z</time>
      </trkpt>
      <trkpt lat="45.71134" lon="4.60042">
        <ele>535.860718</ele>
        <time>2016-06-05T07:56:48Z</time>
      </trkpt>
      <trkpt lat="45.71133" lon="4.6003">
        <ele>536.375427</ele>
        <time>2016-06-05T07:56:50Z</time>
      </trkpt>
      <trkpt lat="45.71132" lon="4.60021">
        <ele>536.561157</ele>
        <time>2016-06-05T07:56:52Z</time>
      </trkpt>
      <trkpt lat="45.7113" lon="4.60014">
        <ele>536.312134</ele>
        <time>2016-06-05T07:56:54Z</time>
      </trkpt>
      <trkpt lat="45.71128" lon="4.60008">
        <ele>536.069702</ele>
        <time>2016-06-05T07:56:56Z</time>
      </trkpt>
      <trkpt lat="45.71126" lon="4.60004">
        <ele>535.842651</ele>
        <time>2016-06-05T07:56:58Z</time>
      </trkpt>
      <trkpt lat="45.71126" lon="4.59997">
        <ele>535.643921</ele>
        <time>2016-06-05T07:57:00Z</time>
      </trkpt>
      <trkpt lat="45.71127" lon="4.59993">
        <ele>535.565308</ele>
        <time>2016-06-05T07:57:02Z</time>
      </trkpt>
      <trkpt lat="45.71128" lon="4.5999">
        <ele>535.533203</ele>
        <time>2016-06-05T07:57:04Z</time>
      </trkpt>
      <trkpt lat="45.71129" lon="4.59986">
        <ele>534.687012</ele>
        <time>2016-06-05T07:57:08Z</time>
      </trkpt>
      <trkpt lat="45.71129" lon="4.59983">
        <ele>534.197876</ele>
        <time>2016-06-05T07:57:10Z</time>
      </trkpt>
      <trkpt lat="45.71131" lon="4.5998">
        <ele>533.721375</ele>
        <time>2016-06-05T07:57:12Z</time>
      </trkpt>
      <trkpt lat="45.71134" lon="4.59977">
        <ele>533.208496</ele>
        <time>2016-06-05T07:57:14Z</time>
      </trkpt>
      <trkpt lat="45.71137" lon="4.59974">
        <ele>532.518555</ele>
        <time>2016-06-05T07:57:16Z</time>
      </trkpt>
      <trkpt lat="45.71139" lon="4.59971">
        <ele>531.832825</ele>
        <time>2016-06-05T07:57:18Z</time>
      </trkpt>
      <trkpt lat="45.71141" lon="4.59967">
        <ele>531.036133</ele>
        <time>2016-06-05T07:57:20Z</time>
      </trkpt>
      <trkpt lat="45.71144" lon="4.59964">
        <ele>530.494751</ele>
        <time>2016-06-05T07:57:22Z</time>
      </trkpt>
      <trkpt lat="45.71147" lon="4.59961">
        <ele>529.604675</ele>
        <time>2016-06-05T07:57:24Z</time>
      </trkpt>
      <trkpt lat="45.71152" lon="4.59958">
        <ele>528.454285</ele>
        <time>2016-06-05T07:57:26Z</time>
      </trkpt>
      <trkpt lat="45.71154" lon="4.59956">
        <ele>527.408203</ele>
        <time>2016-06-05T07:57:28Z</time>
      </trkpt>
      <trkpt lat="45.71159" lon="4.59957">
        <ele>526.266235</ele>
        <time>2016-06-05T07:57:30Z</time>
      </trkpt>
      <trkpt lat="45.71165" lon="4.5996">
        <ele>525.103149</ele>
        <time>2016-06-05T07:57:32Z</time>
      </trkpt>
      <trkpt lat="45.71171" lon="4.59961">
        <ele>524.341187</ele>
        <time>2016-06-05T07:57:34Z</time>
      </trkpt>
      <trkpt lat="45.71176" lon="4.59963">
        <ele>523.893738</ele>
        <time>2016-06-05T07:57:36Z</time>
      </trkpt>
      <trkpt lat="45.7118" lon="4.59965">
        <ele>523.467896</ele>
        <time>2016-06-05T07:57:38Z</time>
      </trkpt>
      <trkpt lat="45.71186" lon="4.59967">
        <ele>523.079346</ele>
        <time>2016-06-05T07:57:40Z</time>
      </trkpt>
      <trkpt lat="45.71191" lon="4.59969">
        <ele>522.56427</ele>
        <time>2016-06-05T07:57:42Z</time>
      </trkpt>
      <trkpt lat="45.71196" lon="4.5997">
        <ele>522.041931</ele>
        <time>2016-06-05T07:57:44Z</time>
      </trkpt>
      <trkpt lat="45.71201" lon="4.59972">
        <ele>521.33783</ele>
        <time>2016-06-05T07:57:46Z</time>
      </trkpt>
      <trkpt lat="45.71204" lon="4.59974">
        <ele>521.171997</ele>
        <time>2016-06-05T07:57:48Z</time>
      </trkpt>
      <trkpt lat="45.71208" lon="4.59976">
        <ele>521.106567</ele>
        <time>2016-06-05T07:57:50Z</time>
      </trkpt>
      <trkpt lat="45.71212" lon="4.59977">
        <ele>520.929749</ele>
        <time>2016-06-05T07:57:52Z</time>
      </trkpt>
      <trkpt lat="45.71215" lon="4.59979">
        <ele>520.800842</ele>
        <time>2016-06-05T07:57:54Z</time>
      </trkpt>
      <trkpt lat="45.71219" lon="4.5998">
        <ele>520.667603</ele>
        <time>2016-06-05T07:57:56Z</time>
      </trkpt>
      <trkpt lat="45.71222" lon="4.59981">
        <ele>520.776733</ele>
        <time>2016-06-05T07:57:58Z</time>
      </trkpt>
      <trkpt lat="45.71224" lon="4.59982">
        <ele>520.807251</ele>
        <time>2016-06-05T07:58:00Z</time>
      </trkpt>
      <trkpt lat="45.71227" lon="4.59983">
        <ele>520.985046</ele>
        <time>2016-06-05T07:58:02Z</time>
      </trkpt>
      <trkpt lat="45.7123" lon="4.59985">
        <ele>521.224182</ele>
        <time>2016-06-05T07:58:04Z</time>
      </trkpt>
      <trkpt lat="45.71233" lon="4.59986">
        <ele>521.708496</ele>
        <time>2016-06-05T07:58:06Z</time>
      </trkpt>
      <trkpt lat="45.71236" lon="4.59989">
        <ele>522.072876</ele>
        <time>2016-06-05T07:58:08Z</time>
      </trkpt>
      <trkpt lat="45.71238" lon="4.59992">
        <ele>522.4198</ele>
        <time>2016-06-05T07:58:10Z</time>
      </trkpt>
      <trkpt lat="45.71242" lon="4.59995">
        <ele>522.718628</ele>
        <time>2016-06-05T07:58:12Z</time>
      </trkpt>
      <trkpt lat="45.71246" lon="4.59999">
        <ele>522.875854</ele>
        <time>2016-06-05T07:58:14Z</time>
      </trkpt>
      <trkpt lat="45.71249" lon="4.60003">
        <ele>523.165222</ele>
        <time>2016-06-05T07:58:16Z</time>
      </trkpt>
      <trkpt lat="45.71254" lon="4.60009">
        <ele>523.516602</ele>
        <time>2016-06-05T07:58:18Z</time>
      </trkpt>
      <trkpt lat="45.71258" lon="4.60015">
        <ele>523.783081</ele>
        <time>2016-06-05T07:58:20Z</time>
      </trkpt>
      <trkpt lat="45.71263" lon="4.60021">
        <ele>524.06897</ele>
        <time>2016-06-05T07:58:22Z</time>
      </trkpt>
      <trkpt lat="45.71268" lon="4.60026">
        <ele>524.466187</ele>
        <time>2016-06-05T07:58:24Z</time>
      </trkpt>
      <trkpt lat="45.71274" lon="4.60032">
        <ele>524.749878</ele>
        <time>2016-06-05T07:58:26Z</time>
      </trkpt>
      <trkpt lat="45.7128" lon="4.60038">
        <ele>525.085876</ele>
        <time>2016-06-05T07:58:28Z</time>
      </trkpt>
      <trkpt lat="45.71286" lon="4.60043">
        <ele>525.422058</ele>
        <time>2016-06-05T07:58:30Z</time>
      </trkpt>
      <trkpt lat="45.71291" lon="4.60048">
        <ele>525.568359</ele>
        <time>2016-06-05T07:58:32Z</time>
      </trkpt>
      <trkpt lat="45.71295" lon="4.60054">
        <ele>525.873901</ele>
        <time>2016-06-05T07:58:34Z</time>
      </trkpt>
      <trkpt lat="45.71299" lon="4.60059">
        <ele>526.094849</ele>
        <time>2016-06-05T07:58:36Z</time>
      </trkpt>
      <trkpt lat="45.71302" lon="4.60064">
        <ele>526.221497</ele>
        <time>2016-06-05T07:58:38Z</time>
      </trkpt>
      <trkpt lat="45.71305" lon="4.60073">
        <ele>526.28479</ele>
        <time>2016-06-05T07:58:40Z</time>
      </trkpt>
      <trkpt lat="45.71309" lon="4.60082">
        <ele>526.40918</ele>
        <time>2016-06-05T07:58:42Z</time>
      </trkpt>
      <trkpt lat="45.71314" lon="4.60091">
        <ele>526.521362</ele>
        <time>2016-06-05T07:58:44Z</time>
      </trkpt>
      <trkpt lat="45.71318" lon="4.601">
        <ele>526.527954</ele>
        <time>2016-06-05T07:58:46Z</time>
      </trkpt>
      <trkpt lat="45.71322" lon="4.6011">
        <ele>526.643616</ele>
        <time>2016-06-05T07:58:48Z</time>
      </trkpt>
      <trkpt lat="45.71326" lon="4.60118">
        <ele>526.702515</ele>
        <time>2016-06-05T07:58:50Z</time>
      </trkpt>
      <trkpt lat="45.7133" lon="4.60129">
        <ele>526.789917</ele>
        <time>2016-06-05T07:58:52Z</time>
      </trkpt>
      <trkpt lat="45.71333" lon="4.60138">
        <ele>526.86853</ele>
        <time>2016-06-05T07:58:54Z</time>
      </trkpt>
      <trkpt lat="45.71335" lon="4.6015">
        <ele>526.812622</ele>
        <time>2016-06-05T07:58:56Z</time>
      </trkpt>
      <trkpt lat="45.71338" lon="4.60164">
        <ele>526.753723</ele>
        <time>2016-06-05T07:58:58Z</time>
      </trkpt>
      <trkpt lat="45.71338" lon="4.6018">
        <ele>526.803894</ele>
        <time>2016-06-05T07:59:00Z</time>
      </trkpt>
      <trkpt lat="45.71339" lon="4.60193">
        <ele>526.865051</ele>
        <time>2016-06-05T07:59:02Z</time>
      </trkpt>
      <trkpt lat="45.7134" lon="4.60207">
        <ele>526.788635</ele>
        <time>2016-06-05T07:59:04Z</time>
      </trkpt>
      <trkpt lat="45.71341" lon="4.6022">
        <ele>526.823608</ele>
        <time>2016-06-05T07:59:06Z</time>
      </trkpt>
      <trkpt lat="45.71344" lon="4.60232">
        <ele>526.771179</ele>
        <time>2016-06-05T07:59:08Z</time>
      </trkpt>
      <trkpt lat="45.71347" lon="4.60243">
        <ele>526.688049</ele>
        <time>2016-06-05T07:59:10Z</time>
      </trkpt>
      <trkpt lat="45.71351" lon="4.6025">
        <ele>526.574524</ele>
        <time>2016-06-05T07:59:12Z</time>
      </trkpt>
      <trkpt lat="45.71355" lon="4.60253">
        <ele>526.770874</ele>
        <time>2016-06-05T07:59:14Z</time>
      </trkpt>
      <trkpt lat="45.71358" lon="4.60255">
        <ele>526.757813</ele>
        <time>2016-06-05T07:59:16Z</time>
      </trkpt>
      <trkpt lat="45.71361" lon="4.60256">
        <ele>526.798096</ele>
        <time>2016-06-05T07:59:18Z</time>
      </trkpt>
      <trkpt lat="45.71364" lon="4.60258">
        <ele>526.955322</ele>
        <time>2016-06-05T07:59:20Z</time>
      </trkpt>
      <trkpt lat="45.71367" lon="4.60259">
        <ele>527.123413</ele>
        <time>2016-06-05T07:59:22Z</time>
      </trkpt>
      <trkpt lat="45.71369" lon="4.60261">
        <ele>527.234741</ele>
        <time>2016-06-05T07:59:24Z</time>
      </trkpt>
      <trkpt lat="45.71372" lon="4.60262">
        <ele>527.481506</ele>
        <time>2016-06-05T07:59:26Z</time>
      </trkpt>
      <trkpt lat="45.71374" lon="4.60264">
        <ele>527.787231</ele>
        <time>2016-06-05T07:59:28Z</time>
      </trkpt>
      <trkpt lat="45.71376" lon="4.60266">
        <ele>527.876709</ele>
        <time>2016-06-05T07:59:30Z</time>
      </trkpt>
      <trkpt lat="45.71378" lon="4.60269">
        <ele>528.135864</ele>
        <time>2016-06-05T07:59:32Z</time>
      </trkpt>
      <trkpt lat="45.7138" lon="4.60271">
        <ele>528.460144</ele>
        <time>2016-06-05T07:59:34Z</time>
      </trkpt>
      <trkpt lat="45.71382" lon="4.60274">
        <ele>528.866333</ele>
        <time>2016-06-05T07:59:36Z</time>
      </trkpt>
      <trkpt lat="45.71384" lon="4.60275">
        <ele>529.392639</ele>
        <time>2016-06-05T07:59:38Z</time>
      </trkpt>
      <trkpt lat="45.71385" lon="4.60277">
        <ele>529.856018</ele>
        <time>2016-06-05T07:59:40Z</time>
      </trkpt>
      <trkpt lat="45.71386" lon="4.60279">
        <ele>530.273315</ele>
        <time>2016-06-05T07:59:42Z</time>
      </trkpt>
      <trkpt lat="45.71388" lon="4.60281">
        <ele>531.684326</ele>
        <time>2016-06-05T07:59:48Z</time>
      </trkpt>
      <trkpt lat="45.71389" lon="4.60282">
        <ele>532.321899</ele>
        <time>2016-06-05T07:59:50Z</time>
      </trkpt>
      <trkpt lat="45.71392" lon="4.60284">
        <ele>534.91333</ele>
        <time>2016-06-05T08:00:03Z</time>
      </trkpt>
      <trkpt lat="45.71394" lon="4.60284">
        <ele>535.307678</ele>
        <time>2016-06-05T08:00:05Z</time>
      </trkpt>
      <trkpt lat="45.71395" lon="4.60285">
        <ele>535.704224</ele>
        <time>2016-06-05T08:00:07Z</time>
      </trkpt>
      <trkpt lat="45.71396" lon="4.60287">
        <ele>536.014709</ele>
        <time>2016-06-05T08:00:09Z</time>
      </trkpt>
      <trkpt lat="45.71397" lon="4.60288">
        <ele>536.274658</ele>
        <time>2016-06-05T08:00:11Z</time>
      </trkpt>
      <trkpt lat="45.71398" lon="4.60289">
        <ele>536.635864</ele>
        <time>2016-06-05T08:00:13Z</time>
      </trkpt>
      <trkpt lat="45.71399" lon="4.6029">
        <ele>536.883789</ele>
        <time>2016-06-05T08:00:15Z</time>
      </trkpt>
      <trkpt lat="45.71401" lon="4.60291">
        <ele>537.279663</ele>
        <time>2016-06-05T08:00:19Z</time>
      </trkpt>
      <trkpt lat="45.71403" lon="4.60291">
        <ele>537.515259</ele>
        <time>2016-06-05T08:00:21Z</time>
      </trkpt>
      <trkpt lat="45.71404" lon="4.60292">
        <ele>537.753296</ele>
        <time>2016-06-05T08:00:23Z</time>
      </trkpt>
      <trkpt lat="45.71405" lon="4.60293">
        <ele>537.825195</ele>
        <time>2016-06-05T08:00:25Z</time>
      </trkpt>
      <trkpt lat="45.71407" lon="4.60294">
        <ele>538.054626</ele>
        <time>2016-06-05T08:00:27Z</time>
      </trkpt>
      <trkpt lat="45.71408" lon="4.60295">
        <ele>538.25824</ele>
        <time>2016-06-05T08:00:29Z</time>
      </trkpt>
      <trkpt lat="45.71409" lon="4.60296">
        <ele>538.494324</ele>
        <time>2016-06-05T08:00:31Z</time>
      </trkpt>
      <trkpt lat="45.7141" lon="4.60297">
        <ele>538.745667</ele>
        <time>2016-06-05T08:00:33Z</time>
      </trkpt>
      <trkpt lat="45.71412" lon="4.60298">
        <ele>538.885559</ele>
        <time>2016-06-05T08:00:35Z</time>
      </trkpt>
      <trkpt lat="45.71413" lon="4.603">
        <ele>539.473267</ele>
        <time>2016-06-05T08:00:39Z</time>
      </trkpt>
      <trkpt lat="45.71415" lon="4.60301">
        <ele>539.755249</ele>
        <time>2016-06-05T08:00:41Z</time>
      </trkpt>
      <trkpt lat="45.71416" lon="4.60302">
        <ele>540.13562</ele>
        <time>2016-06-05T08:00:43Z</time>
      </trkpt>
      <trkpt lat="45.71417" lon="4.60303">
        <ele>540.457947</ele>
        <time>2016-06-05T08:00:45Z</time>
      </trkpt>
      <trkpt lat="45.71419" lon="4.60304">
        <ele>541.114563</ele>
        <time>2016-06-05T08:00:49Z</time>
      </trkpt>
      <trkpt lat="45.71422" lon="4.60306">
        <ele>541.890686</ele>
        <time>2016-06-05T08:00:57Z</time>
      </trkpt>
      <trkpt lat="45.71423" lon="4.60307">
        <ele>542.146118</ele>
        <time>2016-06-05T08:00:59Z</time>
      </trkpt>
      <trkpt lat="45.71425" lon="4.60308">
        <ele>542.321045</ele>
        <time>2016-06-05T08:01:01Z</time>
      </trkpt>
      <trkpt lat="45.71427" lon="4.60309">
        <ele>542.59552</ele>
        <time>2016-06-05T08:01:03Z</time>
      </trkpt>
      <trkpt lat="45.71429" lon="4.6031">
        <ele>542.882019</ele>
        <time>2016-06-05T08:01:05Z</time>
      </trkpt>
      <trkpt lat="45.71431" lon="4.60311">
        <ele>543.338928</ele>
        <time>2016-06-05T08:01:07Z</time>
      </trkpt>
      <trkpt lat="45.71433" lon="4.60312">
        <ele>543.594727</ele>
        <time>2016-06-05T08:01:09Z</time>
      </trkpt>
      <trkpt lat="45.71435" lon="4.60313">
        <ele>543.882996</ele>
        <time>2016-06-05T08:01:11Z</time>
      </trkpt>
      <trkpt lat="45.71436" lon="4.60314">
        <ele>544.166931</ele>
        <time>2016-06-05T08:01:13Z</time>
      </trkpt>
      <trkpt lat="45.71439" lon="4.60315">
        <ele>544.409607</ele>
        <time>2016-06-05T08:01:15Z</time>
      </trkpt>
      <trkpt lat="45.71441" lon="4.60316">
        <ele>544.597717</ele>
        <time>2016-06-05T08:01:17Z</time>
      </trkpt>
      <trkpt lat="45.71442" lon="4.60316">
        <ele>544.77478</ele>
        <time>2016-06-05T08:01:19Z</time>
      </trkpt>
      <trkpt lat="45.71445" lon="4.60318">
        <ele>545.251831</ele>
        <time>2016-06-05T08:01:23Z</time>
      </trkpt>
      <trkpt lat="45.71449" lon="4.60318">
        <ele>545.43335</ele>
        <time>2016-06-05T08:01:25Z</time>
      </trkpt>
      <trkpt lat="45.71452" lon="4.60317">
        <ele>545.542725</ele>
        <time>2016-06-05T08:01:27Z</time>
      </trkpt>
      <trkpt lat="45.71454" lon="4.60317">
        <ele>545.658691</ele>
        <time>2016-06-05T08:01:29Z</time>
      </trkpt>
      <trkpt lat="45.71457" lon="4.60316">
        <ele>545.759277</ele>
        <time>2016-06-05T08:01:31Z</time>
      </trkpt>
      <trkpt lat="45.7146" lon="4.60314">
        <ele>546.157104</ele>
        <time>2016-06-05T08:01:33Z</time>
      </trkpt>
      <trkpt lat="45.71463" lon="4.60312">
        <ele>546.297546</ele>
        <time>2016-06-05T08:01:35Z</time>
      </trkpt>
      <trkpt lat="45.71466" lon="4.6031">
        <ele>546.582825</ele>
        <time>2016-06-05T08:01:37Z</time>
      </trkpt>
      <trkpt lat="45.71468" lon="4.60308">
        <ele>546.815308</ele>
        <time>2016-06-05T08:01:39Z</time>
      </trkpt>
      <trkpt lat="45.71472" lon="4.60306">
        <ele>547.079956</ele>
        <time>2016-06-05T08:01:41Z</time>
      </trkpt>
      <trkpt lat="45.71477" lon="4.60304">
        <ele>547.107178</ele>
        <time>2016-06-05T08:01:43Z</time>
      </trkpt>
      <trkpt lat="45.71481" lon="4.60302">
        <ele>547.218689</ele>
        <time>2016-06-05T08:01:45Z</time>
      </trkpt>
      <trkpt lat="45.71485" lon="4.60301">
        <ele>547.29303</ele>
        <time>2016-06-05T08:01:47Z</time>
      </trkpt>
      <trkpt lat="45.71489" lon="4.60299">
        <ele>547.38269</ele>
        <time>2016-06-05T08:01:49Z</time>
      </trkpt>
      <trkpt lat="45.71494" lon="4.60296">
        <ele>547.853149</ele>
        <time>2016-06-05T08:01:51Z</time>
      </trkpt>
      <trkpt lat="45.715" lon="4.60293">
        <ele>548.002014</ele>
        <time>2016-06-05T08:01:53Z</time>
      </trkpt>
      <trkpt lat="45.71507" lon="4.60291">
        <ele>548.111389</ele>
        <time>2016-06-05T08:01:55Z</time>
      </trkpt>
      <trkpt lat="45.71513" lon="4.60288">
        <ele>548.161682</ele>
        <time>2016-06-05T08:01:57Z</time>
      </trkpt>
      <trkpt lat="45.71518" lon="4.60284">
        <ele>548.372009</ele>
        <time>2016-06-05T08:01:59Z</time>
      </trkpt>
      <trkpt lat="45.71524" lon="4.6028">
        <ele>548.55365</ele>
        <time>2016-06-05T08:02:01Z</time>
      </trkpt>
      <trkpt lat="45.7153" lon="4.60275">
        <ele>548.678345</ele>
        <time>2016-06-05T08:02:03Z</time>
      </trkpt>
      <trkpt lat="45.71535" lon="4.60269">
        <ele>548.893982</ele>
        <time>2016-06-05T08:02:05Z</time>
      </trkpt>
      <trkpt lat="45.7154" lon="4.60264">
        <ele>549.252869</ele>
        <time>2016-06-05T08:02:07Z</time>
      </trkpt>
      <trkpt lat="45.71546" lon="4.60259">
        <ele>549.467224</ele>
        <time>2016-06-05T08:02:09Z</time>
      </trkpt>
      <trkpt lat="45.71551" lon="4.60253">
        <ele>549.734131</ele>
        <time>2016-06-05T08:02:11Z</time>
      </trkpt>
      <trkpt lat="45.71557" lon="4.60248">
        <ele>549.987915</ele>
        <time>2016-06-05T08:02:13Z</time>
      </trkpt>
      <trkpt lat="45.71562" lon="4.60243">
        <ele>550.268005</ele>
        <time>2016-06-05T08:02:15Z</time>
      </trkpt>
      <trkpt lat="45.71568" lon="4.60237">
        <ele>550.57605</ele>
        <time>2016-06-05T08:02:17Z</time>
      </trkpt>
      <trkpt lat="45.71574" lon="4.60232">
        <ele>550.730408</ele>
        <time>2016-06-05T08:02:19Z</time>
      </trkpt>
      <trkpt lat="45.7158" lon="4.60227">
        <ele>550.969482</ele>
        <time>2016-06-05T08:02:21Z</time>
      </trkpt>
      <trkpt lat="45.71586" lon="4.60222">
        <ele>551.108521</ele>
        <time>2016-06-05T08:02:23Z</time>
      </trkpt>
      <trkpt lat="45.71592" lon="4.60217">
        <ele>551.427917</ele>
        <time>2016-06-05T08:02:25Z</time>
      </trkpt>
      <trkpt lat="45.71598" lon="4.60212">
        <ele>551.657715</ele>
        <time>2016-06-05T08:02:27Z</time>
      </trkpt>
      <trkpt lat="45.71603" lon="4.60207">
        <ele>551.971985</ele>
        <time>2016-06-05T08:02:29Z</time>
      </trkpt>
      <trkpt lat="45.7161" lon="4.60203">
        <ele>552.28064</ele>
        <time>2016-06-05T08:02:31Z</time>
      </trkpt>
      <trkpt lat="45.71615" lon="4.60199">
        <ele>552.189636</ele>
        <time>2016-06-05T08:02:33Z</time>
      </trkpt>
      <trkpt lat="45.71621" lon="4.60196">
        <ele>552.168091</ele>
        <time>2016-06-05T08:02:35Z</time>
      </trkpt>
      <trkpt lat="45.71627" lon="4.60192">
        <ele>552.325562</ele>
        <time>2016-06-05T08:02:37Z</time>
      </trkpt>
      <trkpt lat="45.71633" lon="4.60188">
        <ele>552.548462</ele>
        <time>2016-06-05T08:02:39Z</time>
      </trkpt>
      <trkpt lat="45.71638" lon="4.60184">
        <ele>552.649109</ele>
        <time>2016-06-05T08:02:41Z</time>
      </trkpt>
      <trkpt lat="45.71643" lon="4.6018">
        <ele>552.819824</ele>
        <time>2016-06-05T08:02:43Z</time>
      </trkpt>
      <trkpt lat="45.7165" lon="4.60179">
        <ele>552.951172</ele>
        <time>2016-06-05T08:02:45Z</time>
      </trkpt>
      <trkpt lat="45.71655" lon="4.60182">
        <ele>553.022095</ele>
        <time>2016-06-05T08:02:47Z</time>
      </trkpt>
      <trkpt lat="45.71659" lon="4.60189">
        <ele>552.936707</ele>
        <time>2016-06-05T08:02:49Z</time>
      </trkpt>
      <trkpt lat="45.71662" lon="4.60195">
        <ele>553.015503</ele>
        <time>2016-06-05T08:02:51Z</time>
      </trkpt>
      <trkpt lat="45.71664" lon="4.60202">
        <ele>553.141602</ele>
        <time>2016-06-05T08:02:53Z</time>
      </trkpt>
      <trkpt lat="45.71667" lon="4.60208">
        <ele>553.271606</ele>
        <time>2016-06-05T08:02:55Z</time>
      </trkpt>
      <trkpt lat="45.71669" lon="4.60215">
        <ele>553.424805</ele>
        <time>2016-06-05T08:02:57Z</time>
      </trkpt>
      <trkpt lat="45.71671" lon="4.60222">
        <ele>553.641479</ele>
        <time>2016-06-05T08:02:59Z</time>
      </trkpt>
      <trkpt lat="45.71672" lon="4.60228">
        <ele>553.786987</ele>
        <time>2016-06-05T08:03:01Z</time>
      </trkpt>
      <trkpt lat="45.71675" lon="4.60235">
        <ele>553.90625</ele>
        <time>2016-06-05T08:03:03Z</time>
      </trkpt>
      <trkpt lat="45.71677" lon="4.60241">
        <ele>554.14917</ele>
        <time>2016-06-05T08:03:05Z</time>
      </trkpt>
      <trkpt lat="45.71679" lon="4.60248">
        <ele>554.214844</ele>
        <time>2016-06-05T08:03:07Z</time>
      </trkpt>
      <trkpt lat="45.71681" lon="4.60254">
        <ele>554.512573</ele>
        <time>2016-06-05T08:03:09Z</time>
      </trkpt>
      <trkpt lat="45.71681" lon="4.60259">
        <ele>554.690674</ele>
        <time>2016-06-05T08:03:11Z</time>
      </trkpt>
      <trkpt lat="45.71682" lon="4.60265">
        <ele>554.943604</ele>
        <time>2016-06-05T08:03:13Z</time>
      </trkpt>
      <trkpt lat="45.71683" lon="4.60272">
        <ele>555.183411</ele>
        <time>2016-06-05T08:03:15Z</time>
      </trkpt>
      <trkpt lat="45.71684" lon="4.60278">
        <ele>555.631958</ele>
        <time>2016-06-05T08:03:17Z</time>
      </trkpt>
      <trkpt lat="45.71685" lon="4.60284">
        <ele>556.063171</ele>
        <time>2016-06-05T08:03:19Z</time>
      </trkpt>
      <trkpt lat="45.71686" lon="4.6029">
        <ele>556.423523</ele>
        <time>2016-06-05T08:03:21Z</time>
      </trkpt>
      <trkpt lat="45.71689" lon="4.60295">
        <ele>556.841736</ele>
        <time>2016-06-05T08:03:23Z</time>
      </trkpt>
      <trkpt lat="45.71691" lon="4.603">
        <ele>557.305908</ele>
        <time>2016-06-05T08:03:25Z</time>
      </trkpt>
      <trkpt lat="45.71694" lon="4.60304">
        <ele>557.634399</ele>
        <time>2016-06-05T08:03:27Z</time>
      </trkpt>
      <trkpt lat="45.71698" lon="4.60309">
        <ele>558.098511</ele>
        <time>2016-06-05T08:03:29Z</time>
      </trkpt>
      <trkpt lat="45.71701" lon="4.60313">
        <ele>558.324036</ele>
        <time>2016-06-05T08:03:31Z</time>
      </trkpt>
      <trkpt lat="45.71705" lon="4.60318">
        <ele>558.786072</ele>
        <time>2016-06-05T08:03:33Z</time>
      </trkpt>
      <trkpt lat="45.71707" lon="4.60322">
        <ele>559.241272</ele>
        <time>2016-06-05T08:03:35Z</time>
      </trkpt>
      <trkpt lat="45.7171" lon="4.60326">
        <ele>559.663025</ele>
        <time>2016-06-05T08:03:37Z</time>
      </trkpt>
      <trkpt lat="45.71713" lon="4.6033">
        <ele>560.070435</ele>
        <time>2016-06-05T08:03:39Z</time>
      </trkpt>
      <trkpt lat="45.71718" lon="4.60334">
        <ele>560.3573</ele>
        <time>2016-06-05T08:03:41Z</time>
      </trkpt>
      <trkpt lat="45.71726" lon="4.60344">
        <ele>560.550049</ele>
        <time>2016-06-05T08:03:44Z</time>
      </trkpt>
      <trkpt lat="45.71734" lon="4.60352">
        <ele>560.843872</ele>
        <time>2016-06-05T08:03:46Z</time>
      </trkpt>
      <trkpt lat="45.71743" lon="4.6036">
        <ele>561.198669</ele>
        <time>2016-06-05T08:03:48Z</time>
      </trkpt>
      <trkpt lat="45.71751" lon="4.60368">
        <ele>561.553589</ele>
        <time>2016-06-05T08:03:50Z</time>
      </trkpt>
      <trkpt lat="45.7176" lon="4.60376">
        <ele>561.816345</ele>
        <time>2016-06-05T08:03:52Z</time>
      </trkpt>
      <trkpt lat="45.71768" lon="4.60385">
        <ele>561.987183</ele>
        <time>2016-06-05T08:03:54Z</time>
      </trkpt>
      <trkpt lat="45.71776" lon="4.60395">
        <ele>562.217957</ele>
        <time>2016-06-05T08:03:56Z</time>
      </trkpt>
      <trkpt lat="45.71783" lon="4.60404">
        <ele>562.316528</ele>
        <time>2016-06-05T08:03:58Z</time>
      </trkpt>
      <trkpt lat="45.7179" lon="4.60416">
        <ele>562.354919</ele>
        <time>2016-06-05T08:04:00Z</time>
      </trkpt>
      <trkpt lat="45.7179" lon="4.60434">
        <ele>562.289246</ele>
        <time>2016-06-05T08:04:02Z</time>
      </trkpt>
      <trkpt lat="45.7178" lon="4.60451">
        <ele>562.338562</ele>
        <time>2016-06-05T08:04:05Z</time>
      </trkpt>
      <trkpt lat="45.71776" lon="4.60456">
        <ele>562.409546</ele>
        <time>2016-06-05T08:04:07Z</time>
      </trkpt>
      <trkpt lat="45.71772" lon="4.60459">
        <ele>562.453369</ele>
        <time>2016-06-05T08:04:09Z</time>
      </trkpt>
      <trkpt lat="45.71768" lon="4.60462">
        <ele>562.516907</ele>
        <time>2016-06-05T08:04:11Z</time>
      </trkpt>
      <trkpt lat="45.71764" lon="4.60465">
        <ele>562.718445</ele>
        <time>2016-06-05T08:04:13Z</time>
      </trkpt>
      <trkpt lat="45.71761" lon="4.60468">
        <ele>562.821411</ele>
        <time>2016-06-05T08:04:15Z</time>
      </trkpt>
      <trkpt lat="45.71756" lon="4.60471">
        <ele>563.047058</ele>
        <time>2016-06-05T08:04:17Z</time>
      </trkpt>
      <trkpt lat="45.71753" lon="4.60474">
        <ele>563.175293</ele>
        <time>2016-06-05T08:04:19Z</time>
      </trkpt>
      <trkpt lat="45.7175" lon="4.60477">
        <ele>563.442627</ele>
        <time>2016-06-05T08:04:21Z</time>
      </trkpt>
      <trkpt lat="45.71746" lon="4.6048">
        <ele>563.668335</ele>
        <time>2016-06-05T08:04:23Z</time>
      </trkpt>
      <trkpt lat="45.71743" lon="4.60483">
        <ele>563.859009</ele>
        <time>2016-06-05T08:04:25Z</time>
      </trkpt>
      <trkpt lat="45.71742" lon="4.60488">
        <ele>564.119385</ele>
        <time>2016-06-05T08:04:27Z</time>
      </trkpt>
      <trkpt lat="45.71742" lon="4.60493">
        <ele>564.248657</ele>
        <time>2016-06-05T08:04:29Z</time>
      </trkpt>
      <trkpt lat="45.71743" lon="4.60499">
        <ele>564.489685</ele>
        <time>2016-06-05T08:04:31Z</time>
      </trkpt>
      <trkpt lat="45.71744" lon="4.60504">
        <ele>564.664917</ele>
        <time>2016-06-05T08:04:33Z</time>
      </trkpt>
      <trkpt lat="45.71745" lon="4.6051">
        <ele>564.954224</ele>
        <time>2016-06-05T08:04:35Z</time>
      </trkpt>
      <trkpt lat="45.71747" lon="4.60515">
        <ele>565.344238</ele>
        <time>2016-06-05T08:04:37Z</time>
      </trkpt>
      <trkpt lat="45.7175" lon="4.60521">
        <ele>565.661987</ele>
        <time>2016-06-05T08:04:39Z</time>
      </trkpt>
      <trkpt lat="45.71752" lon="4.60528">
        <ele>566.130493</ele>
        <time>2016-06-05T08:04:41Z</time>
      </trkpt>
      <trkpt lat="45.71754" lon="4.60533">
        <ele>566.58313</ele>
        <time>2016-06-05T08:04:43Z</time>
      </trkpt>
      <trkpt lat="45.71755" lon="4.60539">
        <ele>567.161499</ele>
        <time>2016-06-05T08:04:45Z</time>
      </trkpt>
      <trkpt lat="45.71756" lon="4.60543">
        <ele>567.594238</ele>
        <time>2016-06-05T08:04:47Z</time>
      </trkpt>
      <trkpt lat="45.71757" lon="4.60549">
        <ele>568.078552</ele>
        <time>2016-06-05T08:04:49Z</time>
      </trkpt>
      <trkpt lat="45.71759" lon="4.60555">
        <ele>568.486206</ele>
        <time>2016-06-05T08:04:51Z</time>
      </trkpt>
      <trkpt lat="45.71761" lon="4.6056">
        <ele>568.672485</ele>
        <time>2016-06-05T08:04:53Z</time>
      </trkpt>
      <trkpt lat="45.71765" lon="4.60563">
        <ele>568.924561</ele>
        <time>2016-06-05T08:04:55Z</time>
      </trkpt>
      <trkpt lat="45.71768" lon="4.60567">
        <ele>569.288391</ele>
        <time>2016-06-05T08:04:57Z</time>
      </trkpt>
      <trkpt lat="45.71771" lon="4.6057">
        <ele>569.46814</ele>
        <time>2016-06-05T08:04:59Z</time>
      </trkpt>
      <trkpt lat="45.71773" lon="4.60573">
        <ele>569.814453</ele>
        <time>2016-06-05T08:05:01Z</time>
      </trkpt>
      <trkpt lat="45.71776" lon="4.60577">
        <ele>570.090698</ele>
        <time>2016-06-05T08:05:03Z</time>
      </trkpt>
      <trkpt lat="45.71778" lon="4.60581">
        <ele>570.366882</ele>
        <time>2016-06-05T08:05:05Z</time>
      </trkpt>
      <trkpt lat="45.7178" lon="4.60586">
        <ele>570.618835</ele>
        <time>2016-06-05T08:05:07Z</time>
      </trkpt>
      <trkpt lat="45.71783" lon="4.60592">
        <ele>570.936829</ele>
        <time>2016-06-05T08:05:09Z</time>
      </trkpt>
      <trkpt lat="45.71785" lon="4.60598">
        <ele>571.301758</ele>
        <time>2016-06-05T08:05:11Z</time>
      </trkpt>
      <trkpt lat="45.71788" lon="4.60604">
        <ele>571.518738</ele>
        <time>2016-06-05T08:05:13Z</time>
      </trkpt>
      <trkpt lat="45.71791" lon="4.60609">
        <ele>571.841003</ele>
        <time>2016-06-05T08:05:15Z</time>
      </trkpt>
      <trkpt lat="45.71794" lon="4.60613">
        <ele>572.15033</ele>
        <time>2016-06-05T08:05:17Z</time>
      </trkpt>
      <trkpt lat="45.71798" lon="4.60618">
        <ele>572.378296</ele>
        <time>2016-06-05T08:05:19Z</time>
      </trkpt>
      <trkpt lat="45.71803" lon="4.60624">
        <ele>572.430969</ele>
        <time>2016-06-05T08:05:21Z</time>
      </trkpt>
      <trkpt lat="45.71807" lon="4.6063">
        <ele>572.652832</ele>
        <time>2016-06-05T08:05:23Z</time>
      </trkpt>
      <trkpt lat="45.71812" lon="4.60637">
        <ele>572.864624</ele>
        <time>2016-06-05T08:05:25Z</time>
      </trkpt>
      <trkpt lat="45.71816" lon="4.60644">
        <ele>573.031311</ele>
        <time>2016-06-05T08:05:27Z</time>
      </trkpt>
      <trkpt lat="45.71822" lon="4.60651">
        <ele>573.182617</ele>
        <time>2016-06-05T08:05:29Z</time>
      </trkpt>
      <trkpt lat="45.71828" lon="4.60658">
        <ele>573.329468</ele>
        <time>2016-06-05T08:05:31Z</time>
      </trkpt>
      <trkpt lat="45.71834" lon="4.60665">
        <ele>573.504944</ele>
        <time>2016-06-05T08:05:33Z</time>
      </trkpt>
      <trkpt lat="45.71841" lon="4.60672">
        <ele>573.590454</ele>
        <time>2016-06-05T08:05:35Z</time>
      </trkpt>
      <trkpt lat="45.71848" lon="4.6068">
        <ele>573.739563</ele>
        <time>2016-06-05T08:05:37Z</time>
      </trkpt>
      <trkpt lat="45.71855" lon="4.60687">
        <ele>573.785583</ele>
        <time>2016-06-05T08:05:39Z</time>
      </trkpt>
      <trkpt lat="45.71863" lon="4.60695">
        <ele>573.903992</ele>
        <time>2016-06-05T08:05:41Z</time>
      </trkpt>
      <trkpt lat="45.71871" lon="4.60703">
        <ele>573.893066</ele>
        <time>2016-06-05T08:05:43Z</time>
      </trkpt>
      <trkpt lat="45.7188" lon="4.60709">
        <ele>573.783447</ele>
        <time>2016-06-05T08:05:45Z</time>
      </trkpt>
      <trkpt lat="45.71888" lon="4.60717">
        <ele>573.87561</ele>
        <time>2016-06-05T08:05:47Z</time>
      </trkpt>
      <trkpt lat="45.71895" lon="4.60726">
        <ele>573.877869</ele>
        <time>2016-06-05T08:05:49Z</time>
      </trkpt>
      <trkpt lat="45.71902" lon="4.60735">
        <ele>573.719849</ele>
        <time>2016-06-05T08:05:51Z</time>
      </trkpt>
      <trkpt lat="45.71908" lon="4.60744">
        <ele>573.532471</ele>
        <time>2016-06-05T08:05:53Z</time>
      </trkpt>
      <trkpt lat="45.71914" lon="4.60754">
        <ele>573.484253</ele>
        <time>2016-06-05T08:05:55Z</time>
      </trkpt>
      <trkpt lat="45.71921" lon="4.60764">
        <ele>573.304504</ele>
        <time>2016-06-05T08:05:57Z</time>
      </trkpt>
      <trkpt lat="45.71928" lon="4.60775">
        <ele>573.15741</ele>
        <time>2016-06-05T08:05:59Z</time>
      </trkpt>
      <trkpt lat="45.71936" lon="4.60786">
        <ele>572.903076</ele>
        <time>2016-06-05T08:06:01Z</time>
      </trkpt>
      <trkpt lat="45.71944" lon="4.60798">
        <ele>572.664124</ele>
        <time>2016-06-05T08:06:03Z</time>
      </trkpt>
      <trkpt lat="45.71952" lon="4.6081">
        <ele>572.520264</ele>
        <time>2016-06-05T08:06:05Z</time>
      </trkpt>
      <trkpt lat="45.71959" lon="4.60821">
        <ele>572.371216</ele>
        <time>2016-06-05T08:06:07Z</time>
      </trkpt>
      <trkpt lat="45.71967" lon="4.60833">
        <ele>572.206726</ele>
        <time>2016-06-05T08:06:09Z</time>
      </trkpt>
      <trkpt lat="45.71975" lon="4.60844">
        <ele>572.075195</ele>
        <time>2016-06-05T08:06:11Z</time>
      </trkpt>
      <trkpt lat="45.71982" lon="4.60854">
        <ele>571.934082</ele>
        <time>2016-06-05T08:06:13Z</time>
      </trkpt>
      <trkpt lat="45.7199" lon="4.60864">
        <ele>571.809204</ele>
        <time>2016-06-05T08:06:15Z</time>
      </trkpt>
      <trkpt lat="45.71998" lon="4.60875">
        <ele>571.631653</ele>
        <time>2016-06-05T08:06:17Z</time>
      </trkpt>
      <trkpt lat="45.72006" lon="4.60885">
        <ele>571.287476</ele>
        <time>2016-06-05T08:06:19Z</time>
      </trkpt>
      <trkpt lat="45.72015" lon="4.60894">
        <ele>571.103271</ele>
        <time>2016-06-05T08:06:21Z</time>
      </trkpt>
      <trkpt lat="45.72023" lon="4.60902">
        <ele>570.859924</ele>
        <time>2016-06-05T08:06:23Z</time>
      </trkpt>
      <trkpt lat="45.72031" lon="4.6091">
        <ele>570.672729</ele>
        <time>2016-06-05T08:06:25Z</time>
      </trkpt>
      <trkpt lat="45.72038" lon="4.60918">
        <ele>570.455688</ele>
        <time>2016-06-05T08:06:27Z</time>
      </trkpt>
      <trkpt lat="45.72043" lon="4.60925">
        <ele>570.234192</ele>
        <time>2016-06-05T08:06:29Z</time>
      </trkpt>
      <trkpt lat="45.72048" lon="4.60932">
        <ele>570.050171</ele>
        <time>2016-06-05T08:06:31Z</time>
      </trkpt>
      <trkpt lat="45.72053" lon="4.60938">
        <ele>570.017273</ele>
        <time>2016-06-05T08:06:33Z</time>
      </trkpt>
      <trkpt lat="45.72057" lon="4.60945">
        <ele>569.971252</ele>
        <time>2016-06-05T08:06:35Z</time>
      </trkpt>
      <trkpt lat="45.72062" lon="4.60951">
        <ele>570.010681</ele>
        <time>2016-06-05T08:06:37Z</time>
      </trkpt>
      <trkpt lat="45.72065" lon="4.60957">
        <ele>570.070679</ele>
        <time>2016-06-05T08:06:39Z</time>
      </trkpt>
      <trkpt lat="45.72069" lon="4.60963">
        <ele>570.099243</ele>
        <time>2016-06-05T08:06:41Z</time>
      </trkpt>
      <trkpt lat="45.72073" lon="4.60968">
        <ele>570.322815</ele>
        <time>2016-06-05T08:06:43Z</time>
      </trkpt>
      <trkpt lat="45.72077" lon="4.60971">
        <ele>570.548645</ele>
        <time>2016-06-05T08:06:45Z</time>
      </trkpt>
      <trkpt lat="45.72083" lon="4.60975">
        <ele>570.543884</ele>
        <time>2016-06-05T08:06:47Z</time>
      </trkpt>
      <trkpt lat="45.72088" lon="4.60977">
        <ele>570.640381</ele>
        <time>2016-06-05T08:06:49Z</time>
      </trkpt>
      <trkpt lat="45.72094" lon="4.6098">
        <ele>570.875244</ele>
        <time>2016-06-05T08:06:51Z</time>
      </trkpt>
      <trkpt lat="45.72099" lon="4.60982">
        <ele>571.057983</ele>
        <time>2016-06-05T08:06:53Z</time>
      </trkpt>
      <trkpt lat="45.72105" lon="4.60984">
        <ele>571.171875</ele>
        <time>2016-06-05T08:06:55Z</time>
      </trkpt>
      <trkpt lat="45.7211" lon="4.60986">
        <ele>571.110474</ele>
        <time>2016-06-05T08:06:57Z</time>
      </trkpt>
      <trkpt lat="45.72115" lon="4.60988">
        <ele>571.364868</ele>
        <time>2016-06-05T08:06:59Z</time>
      </trkpt>
      <trkpt lat="45.7212" lon="4.6099">
        <ele>571.649841</ele>
        <time>2016-06-05T08:07:01Z</time>
      </trkpt>
      <trkpt lat="45.72124" lon="4.60993">
        <ele>571.99408</ele>
        <time>2016-06-05T08:07:03Z</time>
      </trkpt>
      <trkpt lat="45.72128" lon="4.60995">
        <ele>572.211182</ele>
        <time>2016-06-05T08:07:05Z</time>
      </trkpt>
      <trkpt lat="45.72132" lon="4.60998">
        <ele>572.450684</ele>
        <time>2016-06-05T08:07:07Z</time>
      </trkpt>
      <trkpt lat="45.72136" lon="4.61001">
        <ele>572.957214</ele>
        <time>2016-06-05T08:07:09Z</time>
      </trkpt>
      <trkpt lat="45.72141" lon="4.61005">
        <ele>573.145813</ele>
        <time>2016-06-05T08:07:11Z</time>
      </trkpt>
      <trkpt lat="45.72145" lon="4.61008">
        <ele>573.356323</ele>
        <time>2016-06-05T08:07:13Z</time>
      </trkpt>
      <trkpt lat="45.72149" lon="4.6101">
        <ele>573.693604</ele>
        <time>2016-06-05T08:07:15Z</time>
      </trkpt>
      <trkpt lat="45.72153" lon="4.61013">
        <ele>574.002808</ele>
        <time>2016-06-05T08:07:17Z</time>
      </trkpt>
      <trkpt lat="45.72157" lon="4.61017">
        <ele>574.27832</ele>
        <time>2016-06-05T08:07:19Z</time>
      </trkpt>
      <trkpt lat="45.7216" lon="4.61022">
        <ele>574.50647</ele>
        <time>2016-06-05T08:07:21Z</time>
      </trkpt>
      <trkpt lat="45.72162" lon="4.61028">
        <ele>574.679688</ele>
        <time>2016-06-05T08:07:23Z</time>
      </trkpt>
      <trkpt lat="45.72162" lon="4.61034">
        <ele>574.90564</ele>
        <time>2016-06-05T08:07:25Z</time>
      </trkpt>
      <trkpt lat="45.7216" lon="4.6104">
        <ele>575.078918</ele>
        <time>2016-06-05T08:07:27Z</time>
      </trkpt>
      <trkpt lat="45.72158" lon="4.61046">
        <ele>575.435181</ele>
        <time>2016-06-05T08:07:29Z</time>
      </trkpt>
      <trkpt lat="45.72157" lon="4.61052">
        <ele>575.71814</ele>
        <time>2016-06-05T08:07:31Z</time>
      </trkpt>
      <trkpt lat="45.72155" lon="4.61058">
        <ele>575.816528</ele>
        <time>2016-06-05T08:07:33Z</time>
      </trkpt>
      <trkpt lat="45.72154" lon="4.61063">
        <ele>576.079712</ele>
        <time>2016-06-05T08:07:35Z</time>
      </trkpt>
      <trkpt lat="45.72152" lon="4.61069">
        <ele>576.419739</ele>
        <time>2016-06-05T08:07:37Z</time>
      </trkpt>
      <trkpt lat="45.72151" lon="4.61074">
        <ele>576.941711</ele>
        <time>2016-06-05T08:07:39Z</time>
      </trkpt>
      <trkpt lat="45.7215" lon="4.61079">
        <ele>577.207153</ele>
        <time>2016-06-05T08:07:41Z</time>
      </trkpt>
      <trkpt lat="45.72149" lon="4.61084">
        <ele>577.632751</ele>
        <time>2016-06-05T08:07:43Z</time>
      </trkpt>
      <trkpt lat="45.72147" lon="4.61089">
        <ele>577.789734</ele>
        <time>2016-06-05T08:07:45Z</time>
      </trkpt>
      <trkpt lat="45.72146" lon="4.61093">
        <ele>578.048828</ele>
        <time>2016-06-05T08:07:47Z</time>
      </trkpt>
      <trkpt lat="45.72146" lon="4.61097">
        <ele>578.431458</ele>
        <time>2016-06-05T08:07:49Z</time>
      </trkpt>
      <trkpt lat="45.72145" lon="4.611">
        <ele>578.714478</ele>
        <time>2016-06-05T08:07:51Z</time>
      </trkpt>
      <trkpt lat="45.72144" lon="4.61104">
        <ele>579.143738</ele>
        <time>2016-06-05T08:07:53Z</time>
      </trkpt>
      <trkpt lat="45.72142" lon="4.61108">
        <ele>579.625793</ele>
        <time>2016-06-05T08:07:55Z</time>
      </trkpt>
      <trkpt lat="45.72141" lon="4.61112">
        <ele>579.964539</ele>
        <time>2016-06-05T08:07:57Z</time>
      </trkpt>
      <trkpt lat="45.7214" lon="4.61115">
        <ele>580.341675</ele>
        <time>2016-06-05T08:07:59Z</time>
      </trkpt>
      <trkpt lat="45.72139" lon="4.61119">
        <ele>580.758667</ele>
        <time>2016-06-05T08:08:01Z</time>
      </trkpt>
      <trkpt lat="45.72137" lon="4.61121">
        <ele>581.217407</ele>
        <time>2016-06-05T08:08:03Z</time>
      </trkpt>
      <trkpt lat="45.72135" lon="4.61124">
        <ele>581.704651</ele>
        <time>2016-06-05T08:08:05Z</time>
      </trkpt>
      <trkpt lat="45.72133" lon="4.61126">
        <ele>582.151672</ele>
        <time>2016-06-05T08:08:07Z</time>
      </trkpt>
      <trkpt lat="45.72131" lon="4.61128">
        <ele>582.364624</ele>
        <time>2016-06-05T08:08:09Z</time>
      </trkpt>
      <trkpt lat="45.72129" lon="4.6113">
        <ele>582.768738</ele>
        <time>2016-06-05T08:08:11Z</time>
      </trkpt>
      <trkpt lat="45.72126" lon="4.61131">
        <ele>583.297729</ele>
        <time>2016-06-05T08:08:13Z</time>
      </trkpt>
      <trkpt lat="45.72123" lon="4.61133">
        <ele>583.896973</ele>
        <time>2016-06-05T08:08:15Z</time>
      </trkpt>
      <trkpt lat="45.72121" lon="4.61135">
        <ele>584.430542</ele>
        <time>2016-06-05T08:08:17Z</time>
      </trkpt>
      <trkpt lat="45.72119" lon="4.61137">
        <ele>584.825623</ele>
        <time>2016-06-05T08:08:19Z</time>
      </trkpt>
      <trkpt lat="45.72117" lon="4.61138">
        <ele>585.245422</ele>
        <time>2016-06-05T08:08:21Z</time>
      </trkpt>
      <trkpt lat="45.72115" lon="4.61139">
        <ele>585.695435</ele>
        <time>2016-06-05T08:08:23Z</time>
      </trkpt>
      <trkpt lat="45.72113" lon="4.61141">
        <ele>586.046753</ele>
        <time>2016-06-05T08:08:25Z</time>
      </trkpt>
      <trkpt lat="45.7211" lon="4.61143">
        <ele>586.427307</ele>
        <time>2016-06-05T08:08:27Z</time>
      </trkpt>
      <trkpt lat="45.72108" lon="4.61144">
        <ele>586.850525</ele>
        <time>2016-06-05T08:08:29Z</time>
      </trkpt>
      <trkpt lat="45.72105" lon="4.61145">
        <ele>587.215088</ele>
        <time>2016-06-05T08:08:31Z</time>
      </trkpt>
      <trkpt lat="45.72103" lon="4.61147">
        <ele>587.696045</ele>
        <time>2016-06-05T08:08:33Z</time>
      </trkpt>
      <trkpt lat="45.721" lon="4.61148">
        <ele>588.133789</ele>
        <time>2016-06-05T08:08:35Z</time>
      </trkpt>
      <trkpt lat="45.72098" lon="4.6115">
        <ele>588.562195</ele>
        <time>2016-06-05T08:08:37Z</time>
      </trkpt>
      <trkpt lat="45.72095" lon="4.61151">
        <ele>588.720337</ele>
        <time>2016-06-05T08:08:39Z</time>
      </trkpt>
      <trkpt lat="45.72093" lon="4.61152">
        <ele>589.081421</ele>
        <time>2016-06-05T08:08:41Z</time>
      </trkpt>
      <trkpt lat="45.72091" lon="4.61153">
        <ele>589.49646</ele>
        <time>2016-06-05T08:08:43Z</time>
      </trkpt>
      <trkpt lat="45.72089" lon="4.61155">
        <ele>589.795166</ele>
        <time>2016-06-05T08:08:45Z</time>
      </trkpt>
      <trkpt lat="45.72086" lon="4.61156">
        <ele>590.139343</ele>
        <time>2016-06-05T08:08:47Z</time>
      </trkpt>
      <trkpt lat="45.72084" lon="4.61157">
        <ele>590.531067</ele>
        <time>2016-06-05T08:08:49Z</time>
      </trkpt>
      <trkpt lat="45.72083" lon="4.61159">
        <ele>590.934204</ele>
        <time>2016-06-05T08:08:51Z</time>
      </trkpt>
      <trkpt lat="45.72081" lon="4.61162">
        <ele>591.336182</ele>
        <time>2016-06-05T08:08:53Z</time>
      </trkpt>
      <trkpt lat="45.72079" lon="4.61163">
        <ele>591.720642</ele>
        <time>2016-06-05T08:08:55Z</time>
      </trkpt>
      <trkpt lat="45.72077" lon="4.61165">
        <ele>592.057007</ele>
        <time>2016-06-05T08:08:57Z</time>
      </trkpt>
      <trkpt lat="45.72075" lon="4.61167">
        <ele>592.405823</ele>
        <time>2016-06-05T08:08:59Z</time>
      </trkpt>
      <trkpt lat="45.72073" lon="4.61168">
        <ele>592.799133</ele>
        <time>2016-06-05T08:09:01Z</time>
      </trkpt>
      <trkpt lat="45.7207" lon="4.6117">
        <ele>593.1875</ele>
        <time>2016-06-05T08:09:03Z</time>
      </trkpt>
      <trkpt lat="45.72068" lon="4.61171">
        <ele>593.380859</ele>
        <time>2016-06-05T08:09:05Z</time>
      </trkpt>
      <trkpt lat="45.72065" lon="4.61173">
        <ele>593.840088</ele>
        <time>2016-06-05T08:09:07Z</time>
      </trkpt>
      <trkpt lat="45.72063" lon="4.61175">
        <ele>594.3125</ele>
        <time>2016-06-05T08:09:09Z</time>
      </trkpt>
      <trkpt lat="45.72061" lon="4.61176">
        <ele>594.745361</ele>
        <time>2016-06-05T08:09:11Z</time>
      </trkpt>
      <trkpt lat="45.72058" lon="4.61178">
        <ele>595.224365</ele>
        <time>2016-06-05T08:09:13Z</time>
      </trkpt>
      <trkpt lat="45.72056" lon="4.6118">
        <ele>595.641968</ele>
        <time>2016-06-05T08:09:15Z</time>
      </trkpt>
      <trkpt lat="45.72055" lon="4.61182">
        <ele>596.114441</ele>
        <time>2016-06-05T08:09:17Z</time>
      </trkpt>
      <trkpt lat="45.72053" lon="4.61183">
        <ele>596.592529</ele>
        <time>2016-06-05T08:09:19Z</time>
      </trkpt>
      <trkpt lat="45.72052" lon="4.61185">
        <ele>597.137024</ele>
        <time>2016-06-05T08:09:21Z</time>
      </trkpt>
      <trkpt lat="45.7205" lon="4.61187">
        <ele>597.576538</ele>
        <time>2016-06-05T08:09:23Z</time>
      </trkpt>
      <trkpt lat="45.72048" lon="4.61189">
        <ele>597.996399</ele>
        <time>2016-06-05T08:09:25Z</time>
      </trkpt>
      <trkpt lat="45.72046" lon="4.61191">
        <ele>598.462402</ele>
        <time>2016-06-05T08:09:27Z</time>
      </trkpt>
      <trkpt lat="45.72044" lon="4.61192">
        <ele>598.992859</ele>
        <time>2016-06-05T08:09:29Z</time>
      </trkpt>
      <trkpt lat="45.72041" lon="4.61194">
        <ele>599.467773</ele>
        <time>2016-06-05T08:09:31Z</time>
      </trkpt>
      <trkpt lat="45.72039" lon="4.61195">
        <ele>599.885437</ele>
        <time>2016-06-05T08:09:33Z</time>
      </trkpt>
      <trkpt lat="45.72036" lon="4.61197">
        <ele>600.127319</ele>
        <time>2016-06-05T08:09:35Z</time>
      </trkpt>
      <trkpt lat="45.72034" lon="4.612">
        <ele>600.542969</ele>
        <time>2016-06-05T08:09:37Z</time>
      </trkpt>
      <trkpt lat="45.72031" lon="4.61202">
        <ele>601.072632</ele>
        <time>2016-06-05T08:09:39Z</time>
      </trkpt>
      <trkpt lat="45.7203" lon="4.61203">
        <ele>601.563477</ele>
        <time>2016-06-05T08:09:41Z</time>
      </trkpt>
      <trkpt lat="45.72028" lon="4.61205">
        <ele>602.016418</ele>
        <time>2016-06-05T08:09:43Z</time>
      </trkpt>
      <trkpt lat="45.72026" lon="4.61207">
        <ele>602.537598</ele>
        <time>2016-06-05T08:09:45Z</time>
      </trkpt>
      <trkpt lat="45.72024" lon="4.61208">
        <ele>602.974609</ele>
        <time>2016-06-05T08:09:47Z</time>
      </trkpt>
      <trkpt lat="45.72022" lon="4.61209">
        <ele>603.42981</ele>
        <time>2016-06-05T08:09:49Z</time>
      </trkpt>
      <trkpt lat="45.72019" lon="4.61211">
        <ele>603.871887</ele>
        <time>2016-06-05T08:09:51Z</time>
      </trkpt>
      <trkpt lat="45.72017" lon="4.61213">
        <ele>604.262146</ele>
        <time>2016-06-05T08:09:53Z</time>
      </trkpt>
      <trkpt lat="45.72014" lon="4.61214">
        <ele>604.695496</ele>
        <time>2016-06-05T08:09:55Z</time>
      </trkpt>
      <trkpt lat="45.72012" lon="4.61215">
        <ele>605.040894</ele>
        <time>2016-06-05T08:09:57Z</time>
      </trkpt>
      <trkpt lat="45.7201" lon="4.61216">
        <ele>605.452209</ele>
        <time>2016-06-05T08:09:59Z</time>
      </trkpt>
      <trkpt lat="45.72008" lon="4.61216">
        <ele>605.664795</ele>
        <time>2016-06-05T08:10:01Z</time>
      </trkpt>
      <trkpt lat="45.72007" lon="4.61217">
        <ele>606.023315</ele>
        <time>2016-06-05T08:10:03Z</time>
      </trkpt>
      <trkpt lat="45.72005" lon="4.61218">
        <ele>606.430176</ele>
        <time>2016-06-05T08:10:05Z</time>
      </trkpt>
      <trkpt lat="45.72003" lon="4.6122">
        <ele>606.874573</ele>
        <time>2016-06-05T08:10:07Z</time>
      </trkpt>
      <trkpt lat="45.72001" lon="4.6122">
        <ele>607.239746</ele>
        <time>2016-06-05T08:10:09Z</time>
      </trkpt>
      <trkpt lat="45.71999" lon="4.61219">
        <ele>607.631409</ele>
        <time>2016-06-05T08:10:11Z</time>
      </trkpt>
      <trkpt lat="45.71995" lon="4.61222">
        <ele>609.489136</ele>
        <time>2016-06-05T08:10:21Z</time>
      </trkpt>
      <trkpt lat="45.71994" lon="4.61224">
        <ele>609.834595</ele>
        <time>2016-06-05T08:10:23Z</time>
      </trkpt>
      <trkpt lat="45.71993" lon="4.61226">
        <ele>610.197693</ele>
        <time>2016-06-05T08:10:25Z</time>
      </trkpt>
      <trkpt lat="45.71991" lon="4.61227">
        <ele>610.917908</ele>
        <time>2016-06-05T08:10:29Z</time>
      </trkpt>
      <trkpt lat="45.71989" lon="4.61228">
        <ele>611.259094</ele>
        <time>2016-06-05T08:10:31Z</time>
      </trkpt>
      <trkpt lat="45.71989" lon="4.6123">
        <ele>611.413147</ele>
        <time>2016-06-05T08:10:33Z</time>
      </trkpt>
      <trkpt lat="45.71988" lon="4.61232">
        <ele>611.733276</ele>
        <time>2016-06-05T08:10:35Z</time>
      </trkpt>
      <trkpt lat="45.71987" lon="4.61234">
        <ele>612.010559</ele>
        <time>2016-06-05T08:10:37Z</time>
      </trkpt>
      <trkpt lat="45.71987" lon="4.61237">
        <ele>612.382507</ele>
        <time>2016-06-05T08:10:39Z</time>
      </trkpt>
      <trkpt lat="45.71988" lon="4.61239">
        <ele>612.646667</ele>
        <time>2016-06-05T08:10:41Z</time>
      </trkpt>
      <trkpt lat="45.71988" lon="4.61241">
        <ele>612.861938</ele>
        <time>2016-06-05T08:10:43Z</time>
      </trkpt>
      <trkpt lat="45.71988" lon="4.61243">
        <ele>613.251404</ele>
        <time>2016-06-05T08:10:45Z</time>
      </trkpt>
      <trkpt lat="45.71988" lon="4.61245">
        <ele>613.548584</ele>
        <time>2016-06-05T08:10:47Z</time>
      </trkpt>
      <trkpt lat="45.71988" lon="4.61247">
        <ele>613.889832</ele>
        <time>2016-06-05T08:10:49Z</time>
      </trkpt>
      <trkpt lat="45.71988" lon="4.6125">
        <ele>614.20105</ele>
        <time>2016-06-05T08:10:51Z</time>
      </trkpt>
      <trkpt lat="45.71989" lon="4.61252">
        <ele>614.46936</ele>
        <time>2016-06-05T08:10:53Z</time>
      </trkpt>
      <trkpt lat="45.71989" lon="4.61255">
        <ele>614.801819</ele>
        <time>2016-06-05T08:10:55Z</time>
      </trkpt>
      <trkpt lat="45.71989" lon="4.61258">
        <ele>615.138794</ele>
        <time>2016-06-05T08:10:57Z</time>
      </trkpt>
      <trkpt lat="45.71989" lon="4.6126">
        <ele>615.4823</ele>
        <time>2016-06-05T08:10:59Z</time>
      </trkpt>
      <trkpt lat="45.71989" lon="4.61263">
        <ele>615.603394</ele>
        <time>2016-06-05T08:11:01Z</time>
      </trkpt>
      <trkpt lat="45.71988" lon="4.61266">
        <ele>615.825806</ele>
        <time>2016-06-05T08:11:03Z</time>
      </trkpt>
      <trkpt lat="45.71988" lon="4.61269">
        <ele>616.169312</ele>
        <time>2016-06-05T08:11:05Z</time>
      </trkpt>
      <trkpt lat="45.71988" lon="4.6127">
        <ele>616.431335</ele>
        <time>2016-06-05T08:11:07Z</time>
      </trkpt>
      <trkpt lat="45.71987" lon="4.61273">
        <ele>616.722046</ele>
        <time>2016-06-05T08:11:09Z</time>
      </trkpt>
      <trkpt lat="45.71986" lon="4.61277">
        <ele>616.978394</ele>
        <time>2016-06-05T08:11:11Z</time>
      </trkpt>
      <trkpt lat="45.71985" lon="4.61281">
        <ele>617.251526</ele>
        <time>2016-06-05T08:11:13Z</time>
      </trkpt>
      <trkpt lat="45.71985" lon="4.61286">
        <ele>617.551208</ele>
        <time>2016-06-05T08:11:15Z</time>
      </trkpt>
      <trkpt lat="45.71985" lon="4.61291">
        <ele>617.877991</ele>
        <time>2016-06-05T08:11:17Z</time>
      </trkpt>
      <trkpt lat="45.71986" lon="4.61296">
        <ele>618.115845</ele>
        <time>2016-06-05T08:11:19Z</time>
      </trkpt>
      <trkpt lat="45.71989" lon="4.61299">
        <ele>618.243591</ele>
        <time>2016-06-05T08:11:21Z</time>
      </trkpt>
      <trkpt lat="45.71992" lon="4.61301">
        <ele>618.585022</ele>
        <time>2016-06-05T08:11:23Z</time>
      </trkpt>
      <trkpt lat="45.71995" lon="4.61302">
        <ele>618.952759</ele>
        <time>2016-06-05T08:11:25Z</time>
      </trkpt>
      <trkpt lat="45.71998" lon="4.61303">
        <ele>619.241638</ele>
        <time>2016-06-05T08:11:27Z</time>
      </trkpt>
      <trkpt lat="45.72" lon="4.61303">
        <ele>619.534607</ele>
        <time>2016-06-05T08:11:29Z</time>
      </trkpt>
      <trkpt lat="45.72002" lon="4.61303">
        <ele>619.809937</ele>
        <time>2016-06-05T08:11:31Z</time>
      </trkpt>
      <trkpt lat="45.72005" lon="4.61303">
        <ele>620.053955</ele>
        <time>2016-06-05T08:11:33Z</time>
      </trkpt>
      <trkpt lat="45.72007" lon="4.61303">
        <ele>620.368164</ele>
        <time>2016-06-05T08:11:35Z</time>
      </trkpt>
      <trkpt lat="45.7201" lon="4.61304">
        <ele>620.592896</ele>
        <time>2016-06-05T08:11:37Z</time>
      </trkpt>
      <trkpt lat="45.72012" lon="4.61307">
        <ele>620.870483</ele>
        <time>2016-06-05T08:11:39Z</time>
      </trkpt>
      <trkpt lat="45.72014" lon="4.61309">
        <ele>621.200989</ele>
        <time>2016-06-05T08:11:41Z</time>
      </trkpt>
      <trkpt lat="45.72016" lon="4.61312">
        <ele>621.577759</ele>
        <time>2016-06-05T08:11:43Z</time>
      </trkpt>
      <trkpt lat="45.72018" lon="4.61313">
        <ele>621.992004</ele>
        <time>2016-06-05T08:11:45Z</time>
      </trkpt>
      <trkpt lat="45.72021" lon="4.61314">
        <ele>622.315918</ele>
        <time>2016-06-05T08:11:47Z</time>
      </trkpt>
      <trkpt lat="45.72023" lon="4.61315">
        <ele>622.725769</ele>
        <time>2016-06-05T08:11:49Z</time>
      </trkpt>
      <trkpt lat="45.72026" lon="4.61315">
        <ele>622.888855</ele>
        <time>2016-06-05T08:11:51Z</time>
      </trkpt>
      <trkpt lat="45.72028" lon="4.61315">
        <ele>623.284546</ele>
        <time>2016-06-05T08:11:53Z</time>
      </trkpt>
      <trkpt lat="45.72031" lon="4.61315">
        <ele>623.692261</ele>
        <time>2016-06-05T08:11:55Z</time>
      </trkpt>
      <trkpt lat="45.72033" lon="4.61316">
        <ele>624.095154</ele>
        <time>2016-06-05T08:11:57Z</time>
      </trkpt>
      <trkpt lat="45.72036" lon="4.61316">
        <ele>624.434814</ele>
        <time>2016-06-05T08:11:59Z</time>
      </trkpt>
      <trkpt lat="45.72039" lon="4.61316">
        <ele>624.831421</ele>
        <time>2016-06-05T08:12:01Z</time>
      </trkpt>
      <trkpt lat="45.72041" lon="4.61317">
        <ele>625.239136</ele>
        <time>2016-06-05T08:12:03Z</time>
      </trkpt>
      <trkpt lat="45.72044" lon="4.61317">
        <ele>625.605042</ele>
        <time>2016-06-05T08:12:05Z</time>
      </trkpt>
      <trkpt lat="45.72048" lon="4.61318">
        <ele>625.95105</ele>
        <time>2016-06-05T08:12:07Z</time>
      </trkpt>
      <trkpt lat="45.72051" lon="4.6132">
        <ele>626.264038</ele>
        <time>2016-06-05T08:12:09Z</time>
      </trkpt>
      <trkpt lat="45.72055" lon="4.61322">
        <ele>626.577026</ele>
        <time>2016-06-05T08:12:11Z</time>
      </trkpt>
      <trkpt lat="45.72058" lon="4.61322">
        <ele>626.929626</ele>
        <time>2016-06-05T08:12:13Z</time>
      </trkpt>
      <trkpt lat="45.72061" lon="4.61323">
        <ele>627.089233</ele>
        <time>2016-06-05T08:12:15Z</time>
      </trkpt>
      <trkpt lat="45.72064" lon="4.61324">
        <ele>627.463989</ele>
        <time>2016-06-05T08:12:17Z</time>
      </trkpt>
      <trkpt lat="45.72068" lon="4.61325">
        <ele>627.782532</ele>
        <time>2016-06-05T08:12:19Z</time>
      </trkpt>
      <trkpt lat="45.72072" lon="4.61326">
        <ele>628.073547</ele>
        <time>2016-06-05T08:12:21Z</time>
      </trkpt>
      <trkpt lat="45.72078" lon="4.61328">
        <ele>628.148499</ele>
        <time>2016-06-05T08:12:23Z</time>
      </trkpt>
      <trkpt lat="45.72085" lon="4.61328">
        <ele>628.0755</ele>
        <time>2016-06-05T08:12:25Z</time>
      </trkpt>
      <trkpt lat="45.72092" lon="4.61331">
        <ele>628.181763</ele>
        <time>2016-06-05T08:12:27Z</time>
      </trkpt>
      <trkpt lat="45.72099" lon="4.61333">
        <ele>628.426514</ele>
        <time>2016-06-05T08:12:29Z</time>
      </trkpt>
      <trkpt lat="45.72105" lon="4.61334">
        <ele>628.497009</ele>
        <time>2016-06-05T08:12:31Z</time>
      </trkpt>
      <trkpt lat="45.72109" lon="4.61336">
        <ele>628.609436</ele>
        <time>2016-06-05T08:12:33Z</time>
      </trkpt>
      <trkpt lat="45.72114" lon="4.61337">
        <ele>628.770386</ele>
        <time>2016-06-05T08:12:35Z</time>
      </trkpt>
      <trkpt lat="45.7212" lon="4.61338">
        <ele>628.8255</ele>
        <time>2016-06-05T08:12:37Z</time>
      </trkpt>
      <trkpt lat="45.72125" lon="4.61339">
        <ele>628.931702</ele>
        <time>2016-06-05T08:12:39Z</time>
      </trkpt>
      <trkpt lat="45.72129" lon="4.61341">
        <ele>628.974731</ele>
        <time>2016-06-05T08:12:41Z</time>
      </trkpt>
      <trkpt lat="45.72134" lon="4.61343">
        <ele>629.067444</ele>
        <time>2016-06-05T08:12:43Z</time>
      </trkpt>
      <trkpt lat="45.72138" lon="4.61346">
        <ele>629.107117</ele>
        <time>2016-06-05T08:12:45Z</time>
      </trkpt>
      <trkpt lat="45.72141" lon="4.6135">
        <ele>629.184265</ele>
        <time>2016-06-05T08:12:47Z</time>
      </trkpt>
      <trkpt lat="45.72144" lon="4.61355">
        <ele>629.318787</ele>
        <time>2016-06-05T08:12:49Z</time>
      </trkpt>
      <trkpt lat="45.72147" lon="4.61359">
        <ele>629.387146</ele>
        <time>2016-06-05T08:12:51Z</time>
      </trkpt>
      <trkpt lat="45.72151" lon="4.61362">
        <ele>629.508057</ele>
        <time>2016-06-05T08:12:53Z</time>
      </trkpt>
      <trkpt lat="45.72155" lon="4.61364">
        <ele>629.682251</ele>
        <time>2016-06-05T08:12:55Z</time>
      </trkpt>
      <trkpt lat="45.72158" lon="4.61366">
        <ele>629.837952</ele>
        <time>2016-06-05T08:12:57Z</time>
      </trkpt>
      <trkpt lat="45.72162" lon="4.61366">
        <ele>629.95697</ele>
        <time>2016-06-05T08:12:59Z</time>
      </trkpt>
      <trkpt lat="45.72165" lon="4.61366">
        <ele>630.25592</ele>
        <time>2016-06-05T08:13:01Z</time>
      </trkpt>
      <trkpt lat="45.72169" lon="4.61366">
        <ele>630.520447</ele>
        <time>2016-06-05T08:13:03Z</time>
      </trkpt>
      <trkpt lat="45.72172" lon="4.61366">
        <ele>631.122314</ele>
        <time>2016-06-05T08:13:05Z</time>
      </trkpt>
      <trkpt lat="45.72175" lon="4.61367">
        <ele>631.199829</ele>
        <time>2016-06-05T08:13:07Z</time>
      </trkpt>
      <trkpt lat="45.72178" lon="4.61367">
        <ele>631.450562</ele>
        <time>2016-06-05T08:13:09Z</time>
      </trkpt>
      <trkpt lat="45.72181" lon="4.61367">
        <ele>631.750549</ele>
        <time>2016-06-05T08:13:11Z</time>
      </trkpt>
      <trkpt lat="45.72184" lon="4.61368">
        <ele>632.059326</ele>
        <time>2016-06-05T08:13:13Z</time>
      </trkpt>
      <trkpt lat="45.72187" lon="4.61368">
        <ele>632.40564</ele>
        <time>2016-06-05T08:13:15Z</time>
      </trkpt>
      <trkpt lat="45.7219" lon="4.61369">
        <ele>632.696838</ele>
        <time>2016-06-05T08:13:17Z</time>
      </trkpt>
      <trkpt lat="45.72193" lon="4.61369">
        <ele>633.082764</ele>
        <time>2016-06-05T08:13:19Z</time>
      </trkpt>
      <trkpt lat="45.72195" lon="4.6137">
        <ele>633.468811</ele>
        <time>2016-06-05T08:13:21Z</time>
      </trkpt>
      <trkpt lat="45.72198" lon="4.61371">
        <ele>633.934204</ele>
        <time>2016-06-05T08:13:23Z</time>
      </trkpt>
      <trkpt lat="45.72201" lon="4.61373">
        <ele>634.459229</ele>
        <time>2016-06-05T08:13:25Z</time>
      </trkpt>
      <trkpt lat="45.72203" lon="4.61373">
        <ele>635.021851</ele>
        <time>2016-06-05T08:13:27Z</time>
      </trkpt>
      <trkpt lat="45.72205" lon="4.61374">
        <ele>635.473999</ele>
        <time>2016-06-05T08:13:29Z</time>
      </trkpt>
      <trkpt lat="45.72208" lon="4.61375">
        <ele>635.918823</ele>
        <time>2016-06-05T08:13:31Z</time>
      </trkpt>
      <trkpt lat="45.7221" lon="4.61375">
        <ele>636.439575</ele>
        <time>2016-06-05T08:13:33Z</time>
      </trkpt>
      <trkpt lat="45.72212" lon="4.61376">
        <ele>637.002563</ele>
        <time>2016-06-05T08:13:35Z</time>
      </trkpt>
      <trkpt lat="45.72215" lon="4.61378">
        <ele>637.187927</ele>
        <time>2016-06-05T08:13:37Z</time>
      </trkpt>
      <trkpt lat="45.72217" lon="4.61379">
        <ele>637.697693</ele>
        <time>2016-06-05T08:13:39Z</time>
      </trkpt>
      <trkpt lat="45.7222" lon="4.6138">
        <ele>639.032715</ele>
        <time>2016-06-05T08:13:46Z</time>
      </trkpt>
      <trkpt lat="45.72221" lon="4.6138">
        <ele>639.429688</ele>
        <time>2016-06-05T08:13:48Z</time>
      </trkpt>
      <trkpt lat="45.72223" lon="4.6138">
        <ele>639.842529</ele>
        <time>2016-06-05T08:13:50Z</time>
      </trkpt>
      <trkpt lat="45.72224" lon="4.61381">
        <ele>640.18689</ele>
        <time>2016-06-05T08:13:52Z</time>
      </trkpt>
      <trkpt lat="45.72226" lon="4.61381">
        <ele>640.690063</ele>
        <time>2016-06-05T08:13:54Z</time>
      </trkpt>
      <trkpt lat="45.72227" lon="4.61381">
        <ele>641.047668</ele>
        <time>2016-06-05T08:13:56Z</time>
      </trkpt>
      <trkpt lat="45.72229" lon="4.61382">
        <ele>641.452759</ele>
        <time>2016-06-05T08:13:58Z</time>
      </trkpt>
      <trkpt lat="45.72231" lon="4.61382">
        <ele>641.79718</ele>
        <time>2016-06-05T08:14:00Z</time>
      </trkpt>
      <trkpt lat="45.72232" lon="4.61382">
        <ele>641.991394</ele>
        <time>2016-06-05T08:14:02Z</time>
      </trkpt>
      <trkpt lat="45.72234" lon="4.61382">
        <ele>642.329163</ele>
        <time>2016-06-05T08:14:04Z</time>
      </trkpt>
      <trkpt lat="45.72236" lon="4.61382">
        <ele>642.576355</ele>
        <time>2016-06-05T08:14:06Z</time>
      </trkpt>
      <trkpt lat="45.72238" lon="4.61382">
        <ele>642.810425</ele>
        <time>2016-06-05T08:14:08Z</time>
      </trkpt>
      <trkpt lat="45.72239" lon="4.61382">
        <ele>643.093079</ele>
        <time>2016-06-05T08:14:10Z</time>
      </trkpt>
      <trkpt lat="45.72241" lon="4.61382">
        <ele>643.351379</ele>
        <time>2016-06-05T08:14:12Z</time>
      </trkpt>
      <trkpt lat="45.72243" lon="4.61382">
        <ele>643.64801</ele>
        <time>2016-06-05T08:14:14Z</time>
      </trkpt>
      <trkpt lat="45.72244" lon="4.61382">
        <ele>643.854919</ele>
        <time>2016-06-05T08:14:16Z</time>
      </trkpt>
      <trkpt lat="45.72246" lon="4.61382">
        <ele>644.100037</ele>
        <time>2016-06-05T08:14:18Z</time>
      </trkpt>
      <trkpt lat="45.72247" lon="4.61382">
        <ele>644.272278</ele>
        <time>2016-06-05T08:14:20Z</time>
      </trkpt>
      <trkpt lat="45.72249" lon="4.61383">
        <ele>644.561584</ele>
        <time>2016-06-05T08:14:22Z</time>
      </trkpt>
      <trkpt lat="45.7225" lon="4.61383">
        <ele>644.965698</ele>
        <time>2016-06-05T08:14:24Z</time>
      </trkpt>
      <trkpt lat="45.72252" lon="4.61383">
        <ele>645.124634</ele>
        <time>2016-06-05T08:14:26Z</time>
      </trkpt>
      <trkpt lat="45.72253" lon="4.61383">
        <ele>645.511108</ele>
        <time>2016-06-05T08:14:28Z</time>
      </trkpt>
      <trkpt lat="45.72255" lon="4.61382">
        <ele>645.824341</ele>
        <time>2016-06-05T08:14:30Z</time>
      </trkpt>
      <trkpt lat="45.72257" lon="4.61382">
        <ele>646.160034</ele>
        <time>2016-06-05T08:14:32Z</time>
      </trkpt>
      <trkpt lat="45.72258" lon="4.61382">
        <ele>646.515625</ele>
        <time>2016-06-05T08:14:34Z</time>
      </trkpt>
      <trkpt lat="45.7226" lon="4.61381">
        <ele>646.744751</ele>
        <time>2016-06-05T08:14:36Z</time>
      </trkpt>
      <trkpt lat="45.72261" lon="4.61381">
        <ele>647.120239</ele>
        <time>2016-06-05T08:14:38Z</time>
      </trkpt>
      <trkpt lat="45.72263" lon="4.6138">
        <ele>647.512207</ele>
        <time>2016-06-05T08:14:40Z</time>
      </trkpt>
      <trkpt lat="45.72265" lon="4.61379">
        <ele>647.851563</ele>
        <time>2016-06-05T08:14:42Z</time>
      </trkpt>
      <trkpt lat="45.72266" lon="4.61378">
        <ele>648.225281</ele>
        <time>2016-06-05T08:14:44Z</time>
      </trkpt>
      <trkpt lat="45.72268" lon="4.61377">
        <ele>648.545593</ele>
        <time>2016-06-05T08:14:46Z</time>
      </trkpt>
      <trkpt lat="45.7227" lon="4.61376">
        <ele>648.914429</ele>
        <time>2016-06-05T08:14:48Z</time>
      </trkpt>
      <trkpt lat="45.72272" lon="4.61376">
        <ele>649.16626</ele>
        <time>2016-06-05T08:14:50Z</time>
      </trkpt>
      <trkpt lat="45.72273" lon="4.61375">
        <ele>649.539612</ele>
        <time>2016-06-05T08:14:52Z</time>
      </trkpt>
      <trkpt lat="45.72275" lon="4.61374">
        <ele>649.932861</ele>
        <time>2016-06-05T08:14:54Z</time>
      </trkpt>
      <trkpt lat="45.72277" lon="4.61374">
        <ele>650.102966</ele>
        <time>2016-06-05T08:14:56Z</time>
      </trkpt>
      <trkpt lat="45.72278" lon="4.61373">
        <ele>650.456543</ele>
        <time>2016-06-05T08:14:58Z</time>
      </trkpt>
      <trkpt lat="45.7228" lon="4.61372">
        <ele>650.810059</ele>
        <time>2016-06-05T08:15:00Z</time>
      </trkpt>
      <trkpt lat="45.72282" lon="4.61372">
        <ele>651.229797</ele>
        <time>2016-06-05T08:15:02Z</time>
      </trkpt>
      <trkpt lat="45.72284" lon="4.61371">
        <ele>651.51593</ele>
        <time>2016-06-05T08:15:04Z</time>
      </trkpt>
      <trkpt lat="45.72285" lon="4.61371">
        <ele>651.852661</ele>
        <time>2016-06-05T08:15:06Z</time>
      </trkpt>
      <trkpt lat="45.72287" lon="4.6137">
        <ele>652.199585</ele>
        <time>2016-06-05T08:15:08Z</time>
      </trkpt>
      <trkpt lat="45.72288" lon="4.6137">
        <ele>652.542786</ele>
        <time>2016-06-05T08:15:10Z</time>
      </trkpt>
      <trkpt lat="45.7229" lon="4.61369">
        <ele>652.832397</ele>
        <time>2016-06-05T08:15:12Z</time>
      </trkpt>
      <trkpt lat="45.72292" lon="4.61368">
        <ele>653.168335</ele>
        <time>2016-06-05T08:15:14Z</time>
      </trkpt>
      <trkpt lat="45.72294" lon="4.61366">
        <ele>654.030701</ele>
        <time>2016-06-05T08:15:20Z</time>
      </trkpt>
      <trkpt lat="45.72297" lon="4.61364">
        <ele>654.315796</ele>
        <time>2016-06-05T08:15:22Z</time>
      </trkpt>
      <trkpt lat="45.723" lon="4.61362">
        <ele>654.495605</ele>
        <time>2016-06-05T08:15:24Z</time>
      </trkpt>
      <trkpt lat="45.72302" lon="4.61361">
        <ele>654.838074</ele>
        <time>2016-06-05T08:15:26Z</time>
      </trkpt>
      <trkpt lat="45.72305" lon="4.6136">
        <ele>655.269165</ele>
        <time>2016-06-05T08:15:28Z</time>
      </trkpt>
      <trkpt lat="45.72308" lon="4.61359">
        <ele>655.658264</ele>
        <time>2016-06-05T08:15:30Z</time>
      </trkpt>
      <trkpt lat="45.72311" lon="4.61359">
        <ele>656.040039</ele>
        <time>2016-06-05T08:15:32Z</time>
      </trkpt>
      <trkpt lat="45.72314" lon="4.61358">
        <ele>656.379089</ele>
        <time>2016-06-05T08:15:34Z</time>
      </trkpt>
      <trkpt lat="45.72316" lon="4.61357">
        <ele>656.707703</ele>
        <time>2016-06-05T08:15:36Z</time>
      </trkpt>
      <trkpt lat="45.72319" lon="4.61356">
        <ele>657.088013</ele>
        <time>2016-06-05T08:15:38Z</time>
      </trkpt>
      <trkpt lat="45.72322" lon="4.61355">
        <ele>657.424072</ele>
        <time>2016-06-05T08:15:40Z</time>
      </trkpt>
      <trkpt lat="45.72325" lon="4.61353">
        <ele>657.6474</ele>
        <time>2016-06-05T08:15:42Z</time>
      </trkpt>
      <trkpt lat="45.72328" lon="4.61352">
        <ele>658.030945</ele>
        <time>2016-06-05T08:15:44Z</time>
      </trkpt>
      <trkpt lat="45.72331" lon="4.6135">
        <ele>658.429016</ele>
        <time>2016-06-05T08:15:46Z</time>
      </trkpt>
      <trkpt lat="45.72334" lon="4.61348">
        <ele>658.779724</ele>
        <time>2016-06-05T08:15:48Z</time>
      </trkpt>
      <trkpt lat="45.72337" lon="4.61346">
        <ele>658.894714</ele>
        <time>2016-06-05T08:15:50Z</time>
      </trkpt>
      <trkpt lat="45.72339" lon="4.61344">
        <ele>659.191528</ele>
        <time>2016-06-05T08:15:52Z</time>
      </trkpt>
      <trkpt lat="45.72343" lon="4.61342">
        <ele>659.50531</ele>
        <time>2016-06-05T08:15:54Z</time>
      </trkpt>
      <trkpt lat="45.72346" lon="4.6134">
        <ele>659.793152</ele>
        <time>2016-06-05T08:15:56Z</time>
      </trkpt>
      <trkpt lat="45.72349" lon="4.61338">
        <ele>660.195679</ele>
        <time>2016-06-05T08:15:58Z</time>
      </trkpt>
      <trkpt lat="45.72352" lon="4.61337">
        <ele>660.6026</ele>
        <time>2016-06-05T08:16:00Z</time>
      </trkpt>
      <trkpt lat="45.72355" lon="4.61334">
        <ele>661.010376</ele>
        <time>2016-06-05T08:16:02Z</time>
      </trkpt>
      <trkpt lat="45.72358" lon="4.61331">
        <ele>661.337769</ele>
        <time>2016-06-05T08:16:04Z</time>
      </trkpt>
      <trkpt lat="45.7236" lon="4.61328">
        <ele>661.769897</ele>
        <time>2016-06-05T08:16:06Z</time>
      </trkpt>
      <trkpt lat="45.72363" lon="4.61327">
        <ele>662.084045</ele>
        <time>2016-06-05T08:16:08Z</time>
      </trkpt>
      <trkpt lat="45.72366" lon="4.61325">
        <ele>662.351685</ele>
        <time>2016-06-05T08:16:10Z</time>
      </trkpt>
      <trkpt lat="45.7237" lon="4.61324">
        <ele>662.645142</ele>
        <time>2016-06-05T08:16:12Z</time>
      </trkpt>
      <trkpt lat="45.72373" lon="4.61322">
        <ele>663.057312</ele>
        <time>2016-06-05T08:16:14Z</time>
      </trkpt>
      <trkpt lat="45.72377" lon="4.61321">
        <ele>663.257751</ele>
        <time>2016-06-05T08:16:16Z</time>
      </trkpt>
      <trkpt lat="45.7238" lon="4.61319">
        <ele>663.637451</ele>
        <time>2016-06-05T08:16:18Z</time>
      </trkpt>
      <trkpt lat="45.72383" lon="4.61318">
        <ele>664.000854</ele>
        <time>2016-06-05T08:16:20Z</time>
      </trkpt>
      <trkpt lat="45.72386" lon="4.61316">
        <ele>664.405701</ele>
        <time>2016-06-05T08:16:22Z</time>
      </trkpt>
      <trkpt lat="45.72389" lon="4.61314">
        <ele>664.884155</ele>
        <time>2016-06-05T08:16:24Z</time>
      </trkpt>
      <trkpt lat="45.72392" lon="4.61312">
        <ele>665.246094</ele>
        <time>2016-06-05T08:16:26Z</time>
      </trkpt>
      <trkpt lat="45.72394" lon="4.61311">
        <ele>665.529358</ele>
        <time>2016-06-05T08:16:28Z</time>
      </trkpt>
      <trkpt lat="45.72398" lon="4.61309">
        <ele>665.896606</ele>
        <time>2016-06-05T08:16:30Z</time>
      </trkpt>
      <trkpt lat="45.724" lon="4.61308">
        <ele>666.283569</ele>
        <time>2016-06-05T08:16:32Z</time>
      </trkpt>
      <trkpt lat="45.72403" lon="4.61305">
        <ele>666.507019</ele>
        <time>2016-06-05T08:16:34Z</time>
      </trkpt>
      <trkpt lat="45.72406" lon="4.61303">
        <ele>666.912292</ele>
        <time>2016-06-05T08:16:36Z</time>
      </trkpt>
      <trkpt lat="45.72409" lon="4.613">
        <ele>667.200623</ele>
        <time>2016-06-05T08:16:38Z</time>
      </trkpt>
      <trkpt lat="45.72412" lon="4.61299">
        <ele>667.468384</ele>
        <time>2016-06-05T08:16:40Z</time>
      </trkpt>
      <trkpt lat="45.72415" lon="4.61296">
        <ele>667.707397</ele>
        <time>2016-06-05T08:16:42Z</time>
      </trkpt>
      <trkpt lat="45.72418" lon="4.61294">
        <ele>667.972107</ele>
        <time>2016-06-05T08:16:44Z</time>
      </trkpt>
      <trkpt lat="45.72421" lon="4.61291">
        <ele>668.319702</ele>
        <time>2016-06-05T08:16:46Z</time>
      </trkpt>
      <trkpt lat="45.72424" lon="4.61287">
        <ele>668.546387</ele>
        <time>2016-06-05T08:16:48Z</time>
      </trkpt>
      <trkpt lat="45.72428" lon="4.61284">
        <ele>668.840698</ele>
        <time>2016-06-05T08:16:50Z</time>
      </trkpt>
      <trkpt lat="45.72431" lon="4.61281">
        <ele>669.221375</ele>
        <time>2016-06-05T08:16:52Z</time>
      </trkpt>
      <trkpt lat="45.72434" lon="4.61277">
        <ele>669.567383</ele>
        <time>2016-06-05T08:16:54Z</time>
      </trkpt>
      <trkpt lat="45.72437" lon="4.61274">
        <ele>669.883911</ele>
        <time>2016-06-05T08:16:56Z</time>
      </trkpt>
      <trkpt lat="45.7244" lon="4.6127">
        <ele>670.032227</ele>
        <time>2016-06-05T08:16:58Z</time>
      </trkpt>
      <trkpt lat="45.72443" lon="4.61267">
        <ele>670.263245</ele>
        <time>2016-06-05T08:17:00Z</time>
      </trkpt>
      <trkpt lat="45.72446" lon="4.61265">
        <ele>670.497864</ele>
        <time>2016-06-05T08:17:02Z</time>
      </trkpt>
      <trkpt lat="45.72449" lon="4.61262">
        <ele>670.728149</ele>
        <time>2016-06-05T08:17:04Z</time>
      </trkpt>
      <trkpt lat="45.72452" lon="4.61259">
        <ele>671.079468</ele>
        <time>2016-06-05T08:17:06Z</time>
      </trkpt>
      <trkpt lat="45.72455" lon="4.61256">
        <ele>671.430237</ele>
        <time>2016-06-05T08:17:08Z</time>
      </trkpt>
      <trkpt lat="45.72458" lon="4.61253">
        <ele>671.780029</ele>
        <time>2016-06-05T08:17:10Z</time>
      </trkpt>
      <trkpt lat="45.72459" lon="4.6125">
        <ele>672.083374</ele>
        <time>2016-06-05T08:17:12Z</time>
      </trkpt>
      <trkpt lat="45.72462" lon="4.61247">
        <ele>672.466309</ele>
        <time>2016-06-05T08:17:14Z</time>
      </trkpt>
      <trkpt lat="45.72464" lon="4.61244">
        <ele>672.789185</ele>
        <time>2016-06-05T08:17:16Z</time>
      </trkpt>
      <trkpt lat="45.72466" lon="4.61241">
        <ele>673.184509</ele>
        <time>2016-06-05T08:17:18Z</time>
      </trkpt>
      <trkpt lat="45.72468" lon="4.61238">
        <ele>673.620667</ele>
        <time>2016-06-05T08:17:20Z</time>
      </trkpt>
      <trkpt lat="45.7247" lon="4.61235">
        <ele>673.813354</ele>
        <time>2016-06-05T08:17:22Z</time>
      </trkpt>
      <trkpt lat="45.72472" lon="4.61232">
        <ele>674.201233</ele>
        <time>2016-06-05T08:17:24Z</time>
      </trkpt>
      <trkpt lat="45.72474" lon="4.61228">
        <ele>674.657349</ele>
        <time>2016-06-05T08:17:26Z</time>
      </trkpt>
      <trkpt lat="45.72476" lon="4.61225">
        <ele>674.971619</ele>
        <time>2016-06-05T08:17:28Z</time>
      </trkpt>
      <trkpt lat="45.72478" lon="4.61222">
        <ele>675.354919</ele>
        <time>2016-06-05T08:17:30Z</time>
      </trkpt>
      <trkpt lat="45.7248" lon="4.61218">
        <ele>675.717285</ele>
        <time>2016-06-05T08:17:32Z</time>
      </trkpt>
      <trkpt lat="45.72482" lon="4.61214">
        <ele>676.082825</ele>
        <time>2016-06-05T08:17:34Z</time>
      </trkpt>
      <trkpt lat="45.72484" lon="4.61211">
        <ele>676.490417</ele>
        <time>2016-06-05T08:17:36Z</time>
      </trkpt>
      <trkpt lat="45.72485" lon="4.61207">
        <ele>676.87146</ele>
        <time>2016-06-05T08:17:38Z</time>
      </trkpt>
      <trkpt lat="45.72486" lon="4.61205">
        <ele>677.295471</ele>
        <time>2016-06-05T08:17:40Z</time>
      </trkpt>
      <trkpt lat="45.72487" lon="4.61202">
        <ele>677.72522</ele>
        <time>2016-06-05T08:17:42Z</time>
      </trkpt>
      <trkpt lat="45.72489" lon="4.61198">
        <ele>678.194824</ele>
        <time>2016-06-05T08:17:44Z</time>
      </trkpt>
      <trkpt lat="45.7249" lon="4.61195">
        <ele>678.684448</ele>
        <time>2016-06-05T08:17:46Z</time>
      </trkpt>
      <trkpt lat="45.72491" lon="4.61193">
        <ele>678.832886</ele>
        <time>2016-06-05T08:17:48Z</time>
      </trkpt>
      <trkpt lat="45.72492" lon="4.6119">
        <ele>679.190308</ele>
        <time>2016-06-05T08:17:50Z</time>
      </trkpt>
      <trkpt lat="45.72492" lon="4.61187">
        <ele>679.546997</ele>
        <time>2016-06-05T08:17:52Z</time>
      </trkpt>
      <trkpt lat="45.72492" lon="4.61184">
        <ele>679.948792</ele>
        <time>2016-06-05T08:17:54Z</time>
      </trkpt>
      <trkpt lat="45.72493" lon="4.61181">
        <ele>680.312134</ele>
        <time>2016-06-05T08:17:56Z</time>
      </trkpt>
      <trkpt lat="45.72493" lon="4.61177">
        <ele>680.706604</ele>
        <time>2016-06-05T08:17:58Z</time>
      </trkpt>
      <trkpt lat="45.72493" lon="4.61174">
        <ele>681.04303</ele>
        <time>2016-06-05T08:18:00Z</time>
      </trkpt>
      <trkpt lat="45.72493" lon="4.6117">
        <ele>681.475769</ele>
        <time>2016-06-05T08:18:02Z</time>
      </trkpt>
      <trkpt lat="45.72493" lon="4.61167">
        <ele>681.931946</ele>
        <time>2016-06-05T08:18:04Z</time>
      </trkpt>
      <trkpt lat="45.72492" lon="4.61163">
        <ele>682.313538</ele>
        <time>2016-06-05T08:18:06Z</time>
      </trkpt>
      <trkpt lat="45.72492" lon="4.6116">
        <ele>682.727661</ele>
        <time>2016-06-05T08:18:08Z</time>
      </trkpt>
      <trkpt lat="45.72493" lon="4.61157">
        <ele>683.237366</ele>
        <time>2016-06-05T08:18:10Z</time>
      </trkpt>
      <trkpt lat="45.72493" lon="4.61154">
        <ele>683.682922</ele>
        <time>2016-06-05T08:18:12Z</time>
      </trkpt>
      <trkpt lat="45.72493" lon="4.61151">
        <ele>684.11377</ele>
        <time>2016-06-05T08:18:14Z</time>
      </trkpt>
      <trkpt lat="45.72494" lon="4.61148">
        <ele>684.506104</ele>
        <time>2016-06-05T08:18:16Z</time>
      </trkpt>
      <trkpt lat="45.72494" lon="4.61145">
        <ele>684.670166</ele>
        <time>2016-06-05T08:18:18Z</time>
      </trkpt>
      <trkpt lat="45.72494" lon="4.61143">
        <ele>684.972229</ele>
        <time>2016-06-05T08:18:20Z</time>
      </trkpt>
      <trkpt lat="45.72495" lon="4.61139">
        <ele>685.362427</ele>
        <time>2016-06-05T08:18:22Z</time>
      </trkpt>
      <trkpt lat="45.72495" lon="4.61137">
        <ele>685.723755</ele>
        <time>2016-06-05T08:18:24Z</time>
      </trkpt>
      <trkpt lat="45.72495" lon="4.61133">
        <ele>686.066345</ele>
        <time>2016-06-05T08:18:26Z</time>
      </trkpt>
      <trkpt lat="45.72496" lon="4.6113">
        <ele>686.416626</ele>
        <time>2016-06-05T08:18:28Z</time>
      </trkpt>
      <trkpt lat="45.72497" lon="4.61126">
        <ele>686.717529</ele>
        <time>2016-06-05T08:18:30Z</time>
      </trkpt>
      <trkpt lat="45.72498" lon="4.61123">
        <ele>687.089966</ele>
        <time>2016-06-05T08:18:32Z</time>
      </trkpt>
      <trkpt lat="45.72499" lon="4.61119">
        <ele>687.501709</ele>
        <time>2016-06-05T08:18:34Z</time>
      </trkpt>
      <trkpt lat="45.725" lon="4.61115">
        <ele>687.867554</ele>
        <time>2016-06-05T08:18:36Z</time>
      </trkpt>
      <trkpt lat="45.72501" lon="4.61111">
        <ele>688.222534</ele>
        <time>2016-06-05T08:18:38Z</time>
      </trkpt>
      <trkpt lat="45.72503" lon="4.61107">
        <ele>688.399963</ele>
        <time>2016-06-05T08:18:40Z</time>
      </trkpt>
      <trkpt lat="45.72504" lon="4.61104">
        <ele>688.848999</ele>
        <time>2016-06-05T08:18:42Z</time>
      </trkpt>
      <trkpt lat="45.72505" lon="4.611">
        <ele>689.265259</ele>
        <time>2016-06-05T08:18:44Z</time>
      </trkpt>
      <trkpt lat="45.72506" lon="4.61097">
        <ele>689.580933</ele>
        <time>2016-06-05T08:18:46Z</time>
      </trkpt>
      <trkpt lat="45.72506" lon="4.61093">
        <ele>689.988647</ele>
        <time>2016-06-05T08:18:48Z</time>
      </trkpt>
      <trkpt lat="45.72507" lon="4.61089">
        <ele>690.3927</ele>
        <time>2016-06-05T08:18:50Z</time>
      </trkpt>
      <trkpt lat="45.72508" lon="4.61085">
        <ele>690.771362</ele>
        <time>2016-06-05T08:18:52Z</time>
      </trkpt>
      <trkpt lat="45.72508" lon="4.61081">
        <ele>691.124084</ele>
        <time>2016-06-05T08:18:54Z</time>
      </trkpt>
      <trkpt lat="45.72509" lon="4.61078">
        <ele>691.487854</ele>
        <time>2016-06-05T08:18:56Z</time>
      </trkpt>
      <trkpt lat="45.7251" lon="4.61074">
        <ele>691.853882</ele>
        <time>2016-06-05T08:18:58Z</time>
      </trkpt>
      <trkpt lat="45.72511" lon="4.6107">
        <ele>692.270386</ele>
        <time>2016-06-05T08:19:00Z</time>
      </trkpt>
      <trkpt lat="45.72511" lon="4.61066">
        <ele>692.474426</ele>
        <time>2016-06-05T08:19:02Z</time>
      </trkpt>
      <trkpt lat="45.72512" lon="4.61062">
        <ele>692.869263</ele>
        <time>2016-06-05T08:19:04Z</time>
      </trkpt>
      <trkpt lat="45.72512" lon="4.61058">
        <ele>693.28186</ele>
        <time>2016-06-05T08:19:06Z</time>
      </trkpt>
      <trkpt lat="45.72513" lon="4.61054">
        <ele>693.70459</ele>
        <time>2016-06-05T08:19:08Z</time>
      </trkpt>
      <trkpt lat="45.72513" lon="4.6105">
        <ele>694.126099</ele>
        <time>2016-06-05T08:19:10Z</time>
      </trkpt>
      <trkpt lat="45.72514" lon="4.61046">
        <ele>694.567688</ele>
        <time>2016-06-05T08:19:12Z</time>
      </trkpt>
      <trkpt lat="45.72514" lon="4.61042">
        <ele>694.87384</ele>
        <time>2016-06-05T08:19:14Z</time>
      </trkpt>
      <trkpt lat="45.72515" lon="4.61038">
        <ele>695.224182</ele>
        <time>2016-06-05T08:19:16Z</time>
      </trkpt>
      <trkpt lat="45.72516" lon="4.61034">
        <ele>695.552612</ele>
        <time>2016-06-05T08:19:18Z</time>
      </trkpt>
      <trkpt lat="45.72516" lon="4.6103">
        <ele>695.880798</ele>
        <time>2016-06-05T08:19:20Z</time>
      </trkpt>
      <trkpt lat="45.72517" lon="4.61026">
        <ele>696.286194</ele>
        <time>2016-06-05T08:19:22Z</time>
      </trkpt>
      <trkpt lat="45.72517" lon="4.61022">
        <ele>696.630249</ele>
        <time>2016-06-05T08:19:24Z</time>
      </trkpt>
      <trkpt lat="45.72518" lon="4.61018">
        <ele>696.794495</ele>
        <time>2016-06-05T08:19:26Z</time>
      </trkpt>
      <trkpt lat="45.72519" lon="4.61014">
        <ele>697.181519</ele>
        <time>2016-06-05T08:19:28Z</time>
      </trkpt>
      <trkpt lat="45.7252" lon="4.6101">
        <ele>697.50177</ele>
        <time>2016-06-05T08:19:30Z</time>
      </trkpt>
      <trkpt lat="45.7252" lon="4.61006">
        <ele>697.839111</ele>
        <time>2016-06-05T08:19:32Z</time>
      </trkpt>
      <trkpt lat="45.72521" lon="4.61002">
        <ele>698.664429</ele>
        <time>2016-06-05T08:19:38Z</time>
      </trkpt>
      <trkpt lat="45.72521" lon="4.60999">
        <ele>699.052917</ele>
        <time>2016-06-05T08:19:40Z</time>
      </trkpt>
      <trkpt lat="45.72521" lon="4.60997">
        <ele>699.387085</ele>
        <time>2016-06-05T08:19:42Z</time>
      </trkpt>
      <trkpt lat="45.72522" lon="4.60994">
        <ele>699.757568</ele>
        <time>2016-06-05T08:19:44Z</time>
      </trkpt>
      <trkpt lat="45.72522" lon="4.60992">
        <ele>700.015137</ele>
        <time>2016-06-05T08:19:46Z</time>
      </trkpt>
      <trkpt lat="45.72523" lon="4.60989">
        <ele>700.18158</ele>
        <time>2016-06-05T08:19:48Z</time>
      </trkpt>
      <trkpt lat="45.72524" lon="4.60987">
        <ele>700.440979</ele>
        <time>2016-06-05T08:19:50Z</time>
      </trkpt>
      <trkpt lat="45.72525" lon="4.60985">
        <ele>700.745178</ele>
        <time>2016-06-05T08:19:52Z</time>
      </trkpt>
      <trkpt lat="45.72526" lon="4.60983">
        <ele>701.098206</ele>
        <time>2016-06-05T08:19:54Z</time>
      </trkpt>
      <trkpt lat="45.72527" lon="4.6098">
        <ele>701.804077</ele>
        <time>2016-06-05T08:19:58Z</time>
      </trkpt>
      <trkpt lat="45.72529" lon="4.60976">
        <ele>702.920959</ele>
        <time>2016-06-05T08:20:04Z</time>
      </trkpt>
      <trkpt lat="45.7253" lon="4.60974">
        <ele>703.165161</ele>
        <time>2016-06-05T08:20:06Z</time>
      </trkpt>
      <trkpt lat="45.72531" lon="4.60971">
        <ele>703.49231</ele>
        <time>2016-06-05T08:20:08Z</time>
      </trkpt>
      <trkpt lat="45.72532" lon="4.6097">
        <ele>703.641052</ele>
        <time>2016-06-05T08:20:10Z</time>
      </trkpt>
      <trkpt lat="45.72532" lon="4.60968">
        <ele>703.93335</ele>
        <time>2016-06-05T08:20:12Z</time>
      </trkpt>
      <trkpt lat="45.72533" lon="4.60966">
        <ele>704.202026</ele>
        <time>2016-06-05T08:20:14Z</time>
      </trkpt>
      <trkpt lat="45.72534" lon="4.60965">
        <ele>704.516357</ele>
        <time>2016-06-05T08:20:16Z</time>
      </trkpt>
      <trkpt lat="45.72535" lon="4.60963">
        <ele>705.027161</ele>
        <time>2016-06-05T08:20:18Z</time>
      </trkpt>
      <trkpt lat="45.72537" lon="4.60959">
        <ele>705.901184</ele>
        <time>2016-06-05T08:20:24Z</time>
      </trkpt>
      <trkpt lat="45.72538" lon="4.60958">
        <ele>706.188904</ele>
        <time>2016-06-05T08:20:26Z</time>
      </trkpt>
      <trkpt lat="45.7254" lon="4.60955">
        <ele>706.889038</ele>
        <time>2016-06-05T08:20:30Z</time>
      </trkpt>
      <trkpt lat="45.72541" lon="4.60954">
        <ele>707.217896</ele>
        <time>2016-06-05T08:20:32Z</time>
      </trkpt>
      <trkpt lat="45.72543" lon="4.60953">
        <ele>707.36676</ele>
        <time>2016-06-05T08:20:34Z</time>
      </trkpt>
      <trkpt lat="45.72544" lon="4.60951">
        <ele>707.605591</ele>
        <time>2016-06-05T08:20:36Z</time>
      </trkpt>
      <trkpt lat="45.72545" lon="4.6095">
        <ele>707.919312</ele>
        <time>2016-06-05T08:20:38Z</time>
      </trkpt>
      <trkpt lat="45.72546" lon="4.60949">
        <ele>708.190369</ele>
        <time>2016-06-05T08:20:40Z</time>
      </trkpt>
      <trkpt lat="45.72547" lon="4.60948">
        <ele>708.485901</ele>
        <time>2016-06-05T08:20:42Z</time>
      </trkpt>
      <trkpt lat="45.72548" lon="4.60946">
        <ele>708.768311</ele>
        <time>2016-06-05T08:20:44Z</time>
      </trkpt>
      <trkpt lat="45.72548" lon="4.60945">
        <ele>709.037231</ele>
        <time>2016-06-05T08:20:46Z</time>
      </trkpt>
      <trkpt lat="45.72551" lon="4.60942">
        <ele>709.953003</ele>
        <time>2016-06-05T08:20:52Z</time>
      </trkpt>
      <trkpt lat="45.72552" lon="4.60941">
        <ele>710.310791</ele>
        <time>2016-06-05T08:20:54Z</time>
      </trkpt>
      <trkpt lat="45.72553" lon="4.6094">
        <ele>710.499695</ele>
        <time>2016-06-05T08:20:56Z</time>
      </trkpt>
      <trkpt lat="45.72554" lon="4.60939">
        <ele>711.006287</ele>
        <time>2016-06-05T08:21:00Z</time>
      </trkpt>
      <trkpt lat="45.72557" lon="4.60936">
        <ele>711.889038</ele>
        <time>2016-06-05T08:21:06Z</time>
      </trkpt>
      <trkpt lat="45.72558" lon="4.60934">
        <ele>712.392944</ele>
        <time>2016-06-05T08:21:10Z</time>
      </trkpt>
      <trkpt lat="45.72561" lon="4.60931">
        <ele>713.310791</ele>
        <time>2016-06-05T08:21:16Z</time>
      </trkpt>
      <trkpt lat="45.72561" lon="4.6093">
        <ele>713.626465</ele>
        <time>2016-06-05T08:21:18Z</time>
      </trkpt>
      <trkpt lat="45.72562" lon="4.60929">
        <ele>713.919922</ele>
        <time>2016-06-05T08:21:20Z</time>
      </trkpt>
      <trkpt lat="45.72564" lon="4.60928">
        <ele>714.111084</ele>
        <time>2016-06-05T08:21:22Z</time>
      </trkpt>
      <trkpt lat="45.72565" lon="4.60927">
        <ele>714.403625</ele>
        <time>2016-06-05T08:21:24Z</time>
      </trkpt>
      <trkpt lat="45.72567" lon="4.60925">
        <ele>715.008179</ele>
        <time>2016-06-05T08:21:28Z</time>
      </trkpt>
      <trkpt lat="45.72568" lon="4.60925">
        <ele>715.326111</ele>
        <time>2016-06-05T08:21:30Z</time>
      </trkpt>
      <trkpt lat="45.72569" lon="4.60924">
        <ele>715.56073</ele>
        <time>2016-06-05T08:21:32Z</time>
      </trkpt>
      <trkpt lat="45.7257" lon="4.60922">
        <ele>715.838684</ele>
        <time>2016-06-05T08:21:34Z</time>
      </trkpt>
      <trkpt lat="45.72572" lon="4.60921">
        <ele>716.076538</ele>
        <time>2016-06-05T08:21:36Z</time>
      </trkpt>
      <trkpt lat="45.72573" lon="4.6092">
        <ele>716.424133</ele>
        <time>2016-06-05T08:21:38Z</time>
      </trkpt>
      <trkpt lat="45.72574" lon="4.60919">
        <ele>716.723755</ele>
        <time>2016-06-05T08:21:40Z</time>
      </trkpt>
      <trkpt lat="45.72575" lon="4.60917">
        <ele>717.02124</ele>
        <time>2016-06-05T08:21:42Z</time>
      </trkpt>
      <trkpt lat="45.72576" lon="4.60916">
        <ele>717.321472</ele>
        <time>2016-06-05T08:21:44Z</time>
      </trkpt>
      <trkpt lat="45.72577" lon="4.60915">
        <ele>717.581665</ele>
        <time>2016-06-05T08:21:46Z</time>
      </trkpt>
      <trkpt lat="45.72578" lon="4.60914">
        <ele>717.703979</ele>
        <time>2016-06-05T08:21:48Z</time>
      </trkpt>
      <trkpt lat="45.72579" lon="4.60913">
        <ele>718.010498</ele>
        <time>2016-06-05T08:21:50Z</time>
      </trkpt>
      <trkpt lat="45.7258" lon="4.60912">
        <ele>718.314331</ele>
        <time>2016-06-05T08:21:52Z</time>
      </trkpt>
      <trkpt lat="45.72582" lon="4.60911">
        <ele>718.60907</ele>
        <time>2016-06-05T08:21:54Z</time>
      </trkpt>
      <trkpt lat="45.72583" lon="4.60908">
        <ele>719.127625</ele>
        <time>2016-06-05T08:21:58Z</time>
      </trkpt>
      <trkpt lat="45.72584" lon="4.60907">
        <ele>719.516907</ele>
        <time>2016-06-05T08:22:00Z</time>
      </trkpt>
      <trkpt lat="45.72586" lon="4.60904">
        <ele>720.31189</ele>
        <time>2016-06-05T08:22:06Z</time>
      </trkpt>
      <trkpt lat="45.72588" lon="4.60901">
        <ele>720.96814</ele>
        <time>2016-06-05T08:22:10Z</time>
      </trkpt>
      <trkpt lat="45.72589" lon="4.609">
        <ele>721.346375</ele>
        <time>2016-06-05T08:22:12Z</time>
      </trkpt>
      <trkpt lat="45.7259" lon="4.60899">
        <ele>721.505371</ele>
        <time>2016-06-05T08:22:14Z</time>
      </trkpt>
      <trkpt lat="45.72591" lon="4.60898">
        <ele>721.789673</ele>
        <time>2016-06-05T08:22:16Z</time>
      </trkpt>
      <trkpt lat="45.72593" lon="4.60897">
        <ele>722.143433</ele>
        <time>2016-06-05T08:22:18Z</time>
      </trkpt>
      <trkpt lat="45.72595" lon="4.60896">
        <ele>722.379272</ele>
        <time>2016-06-05T08:22:20Z</time>
      </trkpt>
      <trkpt lat="45.72596" lon="4.60895">
        <ele>722.71521</ele>
        <time>2016-06-05T08:22:22Z</time>
      </trkpt>
      <trkpt lat="45.72597" lon="4.60894">
        <ele>723.020081</ele>
        <time>2016-06-05T08:22:24Z</time>
      </trkpt>
      <trkpt lat="45.72599" lon="4.60893">
        <ele>723.34198</ele>
        <time>2016-06-05T08:22:26Z</time>
      </trkpt>
      <trkpt lat="45.726" lon="4.60892">
        <ele>723.633484</ele>
        <time>2016-06-05T08:22:28Z</time>
      </trkpt>
      <trkpt lat="45.72602" lon="4.60892">
        <ele>724.000854</ele>
        <time>2016-06-05T08:22:30Z</time>
      </trkpt>
      <trkpt lat="45.72603" lon="4.60891">
        <ele>724.32312</ele>
        <time>2016-06-05T08:22:32Z</time>
      </trkpt>
      <trkpt lat="45.72605" lon="4.6089">
        <ele>724.665894</ele>
        <time>2016-06-05T08:22:34Z</time>
      </trkpt>
      <trkpt lat="45.72606" lon="4.60889">
        <ele>724.971313</ele>
        <time>2016-06-05T08:22:36Z</time>
      </trkpt>
      <trkpt lat="45.72608" lon="4.60888">
        <ele>725.37616</ele>
        <time>2016-06-05T08:22:38Z</time>
      </trkpt>
      <trkpt lat="45.72609" lon="4.60888">
        <ele>725.674377</ele>
        <time>2016-06-05T08:22:40Z</time>
      </trkpt>
      <trkpt lat="45.72611" lon="4.60888">
        <ele>725.954834</ele>
        <time>2016-06-05T08:22:42Z</time>
      </trkpt>
      <trkpt lat="45.72612" lon="4.60887">
        <ele>726.279785</ele>
        <time>2016-06-05T08:22:44Z</time>
      </trkpt>
      <trkpt lat="45.72614" lon="4.60886">
        <ele>726.460083</ele>
        <time>2016-06-05T08:22:46Z</time>
      </trkpt>
      <trkpt lat="45.72615" lon="4.60886">
        <ele>726.758301</ele>
        <time>2016-06-05T08:22:48Z</time>
      </trkpt>
      <trkpt lat="45.72617" lon="4.60885">
        <ele>727.021545</ele>
        <time>2016-06-05T08:22:50Z</time>
      </trkpt>
      <trkpt lat="45.72619" lon="4.60885">
        <ele>727.375488</ele>
        <time>2016-06-05T08:22:52Z</time>
      </trkpt>
      <trkpt lat="45.7262" lon="4.60884">
        <ele>727.7005</ele>
        <time>2016-06-05T08:22:54Z</time>
      </trkpt>
      <trkpt lat="45.72622" lon="4.60884">
        <ele>728.034363</ele>
        <time>2016-06-05T08:22:56Z</time>
      </trkpt>
      <trkpt lat="45.72623" lon="4.60883">
        <ele>728.375488</ele>
        <time>2016-06-05T08:22:58Z</time>
      </trkpt>
      <trkpt lat="45.72625" lon="4.60883">
        <ele>728.678284</ele>
        <time>2016-06-05T08:23:00Z</time>
      </trkpt>
      <trkpt lat="45.72627" lon="4.60882">
        <ele>728.992188</ele>
        <time>2016-06-05T08:23:02Z</time>
      </trkpt>
      <trkpt lat="45.72629" lon="4.60882">
        <ele>729.321716</ele>
        <time>2016-06-05T08:23:04Z</time>
      </trkpt>
      <trkpt lat="45.7263" lon="4.6088">
        <ele>729.633423</ele>
        <time>2016-06-05T08:23:06Z</time>
      </trkpt>
      <trkpt lat="45.72632" lon="4.60879">
        <ele>729.823364</ele>
        <time>2016-06-05T08:23:08Z</time>
      </trkpt>
      <trkpt lat="45.72633" lon="4.60877">
        <ele>730.800659</ele>
        <time>2016-06-05T08:23:15Z</time>
      </trkpt>
      <trkpt lat="45.72635" lon="4.60876">
        <ele>731.089478</ele>
        <time>2016-06-05T08:23:17Z</time>
      </trkpt>
      <trkpt lat="45.72636" lon="4.60874">
        <ele>731.298828</ele>
        <time>2016-06-05T08:23:19Z</time>
      </trkpt>
      <trkpt lat="45.72638" lon="4.60873">
        <ele>731.528442</ele>
        <time>2016-06-05T08:23:21Z</time>
      </trkpt>
      <trkpt lat="45.72641" lon="4.60871">
        <ele>731.793396</ele>
        <time>2016-06-05T08:23:23Z</time>
      </trkpt>
      <trkpt lat="45.72643" lon="4.6087">
        <ele>732.009705</ele>
        <time>2016-06-05T08:23:25Z</time>
      </trkpt>
      <trkpt lat="45.72645" lon="4.60869">
        <ele>732.330444</ele>
        <time>2016-06-05T08:23:27Z</time>
      </trkpt>
      <trkpt lat="45.72647" lon="4.60869">
        <ele>732.597656</ele>
        <time>2016-06-05T08:23:29Z</time>
      </trkpt>
      <trkpt lat="45.72648" lon="4.60867">
        <ele>732.865784</ele>
        <time>2016-06-05T08:23:31Z</time>
      </trkpt>
      <trkpt lat="45.72649" lon="4.60864">
        <ele>733.121948</ele>
        <time>2016-06-05T08:23:33Z</time>
      </trkpt>
      <trkpt lat="45.72651" lon="4.60861">
        <ele>733.213257</ele>
        <time>2016-06-05T08:23:35Z</time>
      </trkpt>
      <trkpt lat="45.72652" lon="4.60858">
        <ele>733.498413</ele>
        <time>2016-06-05T08:23:37Z</time>
      </trkpt>
      <trkpt lat="45.72654" lon="4.60855">
        <ele>733.799133</ele>
        <time>2016-06-05T08:23:39Z</time>
      </trkpt>
      <trkpt lat="45.72655" lon="4.60852">
        <ele>734.115417</ele>
        <time>2016-06-05T08:23:41Z</time>
      </trkpt>
      <trkpt lat="45.72656" lon="4.60849">
        <ele>734.418335</ele>
        <time>2016-06-05T08:23:43Z</time>
      </trkpt>
      <trkpt lat="45.72658" lon="4.60846">
        <ele>734.743591</ele>
        <time>2016-06-05T08:23:45Z</time>
      </trkpt>
      <trkpt lat="45.7266" lon="4.60843">
        <ele>735.051086</ele>
        <time>2016-06-05T08:23:47Z</time>
      </trkpt>
      <trkpt lat="45.72662" lon="4.60841">
        <ele>735.368103</ele>
        <time>2016-06-05T08:23:49Z</time>
      </trkpt>
      <trkpt lat="45.72664" lon="4.60839">
        <ele>735.770386</ele>
        <time>2016-06-05T08:23:51Z</time>
      </trkpt>
      <trkpt lat="45.72666" lon="4.60836">
        <ele>735.942688</ele>
        <time>2016-06-05T08:23:53Z</time>
      </trkpt>
      <trkpt lat="45.72667" lon="4.60833">
        <ele>736.115967</ele>
        <time>2016-06-05T08:23:55Z</time>
      </trkpt>
      <trkpt lat="45.7267" lon="4.60831">
        <ele>736.596924</ele>
        <time>2016-06-05T08:23:57Z</time>
      </trkpt>
      <trkpt lat="45.72672" lon="4.60828">
        <ele>737.022583</ele>
        <time>2016-06-05T08:23:59Z</time>
      </trkpt>
      <trkpt lat="45.72674" lon="4.60826">
        <ele>737.478271</ele>
        <time>2016-06-05T08:24:01Z</time>
      </trkpt>
      <trkpt lat="45.72676" lon="4.60825">
        <ele>737.917236</ele>
        <time>2016-06-05T08:24:03Z</time>
      </trkpt>
      <trkpt lat="45.72678" lon="4.60823">
        <ele>738.400513</ele>
        <time>2016-06-05T08:24:05Z</time>
      </trkpt>
      <trkpt lat="45.7268" lon="4.60822">
        <ele>738.881409</ele>
        <time>2016-06-05T08:24:07Z</time>
      </trkpt>
      <trkpt lat="45.72681" lon="4.60821">
        <ele>739.349426</ele>
        <time>2016-06-05T08:24:09Z</time>
      </trkpt>
      <trkpt lat="45.72683" lon="4.60821">
        <ele>739.800659</ele>
        <time>2016-06-05T08:24:11Z</time>
      </trkpt>
      <trkpt lat="45.72685" lon="4.6082">
        <ele>740.288757</ele>
        <time>2016-06-05T08:24:13Z</time>
      </trkpt>
      <trkpt lat="45.72687" lon="4.6082">
        <ele>740.719666</ele>
        <time>2016-06-05T08:24:15Z</time>
      </trkpt>
      <trkpt lat="45.72689" lon="4.6082">
        <ele>741.134155</ele>
        <time>2016-06-05T08:24:17Z</time>
      </trkpt>
      <trkpt lat="45.72692" lon="4.60819">
        <ele>741.459595</ele>
        <time>2016-06-05T08:24:19Z</time>
      </trkpt>
      <trkpt lat="45.72695" lon="4.60819">
        <ele>741.858582</ele>
        <time>2016-06-05T08:24:21Z</time>
      </trkpt>
      <trkpt lat="45.72698" lon="4.60818">
        <ele>741.967834</ele>
        <time>2016-06-05T08:24:23Z</time>
      </trkpt>
      <trkpt lat="45.72702" lon="4.60817">
        <ele>742.318848</ele>
        <time>2016-06-05T08:24:25Z</time>
      </trkpt>
      <trkpt lat="45.72705" lon="4.60817">
        <ele>742.568542</ele>
        <time>2016-06-05T08:24:27Z</time>
      </trkpt>
      <trkpt lat="45.72709" lon="4.60816">
        <ele>742.854004</ele>
        <time>2016-06-05T08:24:29Z</time>
      </trkpt>
      <trkpt lat="45.72712" lon="4.60816">
        <ele>743.043518</ele>
        <time>2016-06-05T08:24:31Z</time>
      </trkpt>
      <trkpt lat="45.72715" lon="4.60815">
        <ele>743.346069</ele>
        <time>2016-06-05T08:24:33Z</time>
      </trkpt>
      <trkpt lat="45.72719" lon="4.60814">
        <ele>743.549866</ele>
        <time>2016-06-05T08:24:35Z</time>
      </trkpt>
      <trkpt lat="45.72724" lon="4.60813">
        <ele>743.818176</ele>
        <time>2016-06-05T08:24:37Z</time>
      </trkpt>
      <trkpt lat="45.72728" lon="4.60811">
        <ele>743.934937</ele>
        <time>2016-06-05T08:24:39Z</time>
      </trkpt>
      <trkpt lat="45.72733" lon="4.6081">
        <ele>743.963867</ele>
        <time>2016-06-05T08:24:41Z</time>
      </trkpt>
      <trkpt lat="45.72737" lon="4.60809">
        <ele>744.047485</ele>
        <time>2016-06-05T08:24:43Z</time>
      </trkpt>
      <trkpt lat="45.72741" lon="4.60807">
        <ele>744.161804</ele>
        <time>2016-06-05T08:24:45Z</time>
      </trkpt>
      <trkpt lat="45.72746" lon="4.60806">
        <ele>744.123901</ele>
        <time>2016-06-05T08:24:47Z</time>
      </trkpt>
      <trkpt lat="45.7275" lon="4.60805">
        <ele>744.164307</ele>
        <time>2016-06-05T08:24:49Z</time>
      </trkpt>
      <trkpt lat="45.72755" lon="4.60803">
        <ele>744.224487</ele>
        <time>2016-06-05T08:24:51Z</time>
      </trkpt>
      <trkpt lat="45.72759" lon="4.60802">
        <ele>744.247925</ele>
        <time>2016-06-05T08:24:53Z</time>
      </trkpt>
      <trkpt lat="45.72763" lon="4.60801">
        <ele>744.154297</ele>
        <time>2016-06-05T08:24:55Z</time>
      </trkpt>
      <trkpt lat="45.72768" lon="4.60799">
        <ele>744.244019</ele>
        <time>2016-06-05T08:24:57Z</time>
      </trkpt>
      <trkpt lat="45.72772" lon="4.60798">
        <ele>744.371094</ele>
        <time>2016-06-05T08:24:59Z</time>
      </trkpt>
      <trkpt lat="45.72776" lon="4.60796">
        <ele>744.478149</ele>
        <time>2016-06-05T08:25:01Z</time>
      </trkpt>
      <trkpt lat="45.7278" lon="4.60795">
        <ele>744.529114</ele>
        <time>2016-06-05T08:25:03Z</time>
      </trkpt>
      <trkpt lat="45.72784" lon="4.60794">
        <ele>744.652954</ele>
        <time>2016-06-05T08:25:05Z</time>
      </trkpt>
      <trkpt lat="45.72788" lon="4.60792">
        <ele>744.719849</ele>
        <time>2016-06-05T08:25:07Z</time>
      </trkpt>
      <trkpt lat="45.72792" lon="4.60792">
        <ele>744.869263</ele>
        <time>2016-06-05T08:25:09Z</time>
      </trkpt>
      <trkpt lat="45.72796" lon="4.60791">
        <ele>744.964722</ele>
        <time>2016-06-05T08:25:11Z</time>
      </trkpt>
      <trkpt lat="45.728" lon="4.60791">
        <ele>745.114075</ele>
        <time>2016-06-05T08:25:13Z</time>
      </trkpt>
      <trkpt lat="45.72804" lon="4.60791">
        <ele>745.276794</ele>
        <time>2016-06-05T08:25:15Z</time>
      </trkpt>
      <trkpt lat="45.72808" lon="4.60791">
        <ele>745.433716</ele>
        <time>2016-06-05T08:25:17Z</time>
      </trkpt>
      <trkpt lat="45.72812" lon="4.60791">
        <ele>745.464905</ele>
        <time>2016-06-05T08:25:19Z</time>
      </trkpt>
      <trkpt lat="45.72816" lon="4.60792">
        <ele>745.618103</ele>
        <time>2016-06-05T08:25:21Z</time>
      </trkpt>
      <trkpt lat="45.7282" lon="4.60793">
        <ele>745.787537</ele>
        <time>2016-06-05T08:25:23Z</time>
      </trkpt>
      <trkpt lat="45.72823" lon="4.60794">
        <ele>745.939148</ele>
        <time>2016-06-05T08:25:25Z</time>
      </trkpt>
      <trkpt lat="45.72827" lon="4.60795">
        <ele>746.134827</ele>
        <time>2016-06-05T08:25:27Z</time>
      </trkpt>
      <trkpt lat="45.7283" lon="4.60796">
        <ele>746.37561</ele>
        <time>2016-06-05T08:25:29Z</time>
      </trkpt>
      <trkpt lat="45.72833" lon="4.60797">
        <ele>746.614258</ele>
        <time>2016-06-05T08:25:31Z</time>
      </trkpt>
      <trkpt lat="45.72836" lon="4.60799">
        <ele>746.799438</ele>
        <time>2016-06-05T08:25:33Z</time>
      </trkpt>
      <trkpt lat="45.72839" lon="4.60799">
        <ele>747.15625</ele>
        <time>2016-06-05T08:25:35Z</time>
      </trkpt>
      <trkpt lat="45.72842" lon="4.608">
        <ele>747.426147</ele>
        <time>2016-06-05T08:25:37Z</time>
      </trkpt>
      <trkpt lat="45.72846" lon="4.60802">
        <ele>747.624146</ele>
        <time>2016-06-05T08:25:39Z</time>
      </trkpt>
      <trkpt lat="45.72848" lon="4.60803">
        <ele>747.820435</ele>
        <time>2016-06-05T08:25:41Z</time>
      </trkpt>
      <trkpt lat="45.72851" lon="4.60804">
        <ele>748.043457</ele>
        <time>2016-06-05T08:25:43Z</time>
      </trkpt>
      <trkpt lat="45.72854" lon="4.60805">
        <ele>748.318237</ele>
        <time>2016-06-05T08:25:45Z</time>
      </trkpt>
      <trkpt lat="45.72856" lon="4.60806">
        <ele>748.628296</ele>
        <time>2016-06-05T08:25:47Z</time>
      </trkpt>
      <trkpt lat="45.72858" lon="4.60807">
        <ele>748.766541</ele>
        <time>2016-06-05T08:25:49Z</time>
      </trkpt>
      <trkpt lat="45.72861" lon="4.60808">
        <ele>748.999573</ele>
        <time>2016-06-05T08:25:51Z</time>
      </trkpt>
      <trkpt lat="45.72863" lon="4.60809">
        <ele>749.385803</ele>
        <time>2016-06-05T08:25:53Z</time>
      </trkpt>
      <trkpt lat="45.72865" lon="4.6081">
        <ele>749.675842</ele>
        <time>2016-06-05T08:25:55Z</time>
      </trkpt>
      <trkpt lat="45.72867" lon="4.6081">
        <ele>749.906738</ele>
        <time>2016-06-05T08:25:57Z</time>
      </trkpt>
      <trkpt lat="45.72868" lon="4.60812">
        <ele>750.270447</ele>
        <time>2016-06-05T08:25:59Z</time>
      </trkpt>
      <trkpt lat="45.7287" lon="4.60812">
        <ele>750.602417</ele>
        <time>2016-06-05T08:26:01Z</time>
      </trkpt>
      <trkpt lat="45.72872" lon="4.60813">
        <ele>750.894775</ele>
        <time>2016-06-05T08:26:03Z</time>
      </trkpt>
      <trkpt lat="45.72874" lon="4.60814">
        <ele>751.309692</ele>
        <time>2016-06-05T08:26:05Z</time>
      </trkpt>
      <trkpt lat="45.72875" lon="4.60815">
        <ele>751.635498</ele>
        <time>2016-06-05T08:26:07Z</time>
      </trkpt>
      <trkpt lat="45.72878" lon="4.60816">
        <ele>751.952332</ele>
        <time>2016-06-05T08:26:09Z</time>
      </trkpt>
      <trkpt lat="45.7288" lon="4.60817">
        <ele>752.139771</ele>
        <time>2016-06-05T08:26:11Z</time>
      </trkpt>
      <trkpt lat="45.72883" lon="4.60819">
        <ele>752.445496</ele>
        <time>2016-06-05T08:26:13Z</time>
      </trkpt>
      <trkpt lat="45.72886" lon="4.60821">
        <ele>752.778015</ele>
        <time>2016-06-05T08:26:15Z</time>
      </trkpt>
      <trkpt lat="45.72887" lon="4.60823">
        <ele>753.045776</ele>
        <time>2016-06-05T08:26:17Z</time>
      </trkpt>
      <trkpt lat="45.7289" lon="4.60826">
        <ele>753.332642</ele>
        <time>2016-06-05T08:26:19Z</time>
      </trkpt>
      <trkpt lat="45.72893" lon="4.60828">
        <ele>753.676147</ele>
        <time>2016-06-05T08:26:21Z</time>
      </trkpt>
      <trkpt lat="45.72895" lon="4.60831">
        <ele>754.024292</ele>
        <time>2016-06-05T08:26:23Z</time>
      </trkpt>
      <trkpt lat="45.72898" lon="4.60834">
        <ele>754.292114</ele>
        <time>2016-06-05T08:26:25Z</time>
      </trkpt>
      <trkpt lat="45.729" lon="4.60838">
        <ele>754.633606</ele>
        <time>2016-06-05T08:26:27Z</time>
      </trkpt>
      <trkpt lat="45.72903" lon="4.60841">
        <ele>754.914856</ele>
        <time>2016-06-05T08:26:29Z</time>
      </trkpt>
      <trkpt lat="45.72906" lon="4.60845">
        <ele>755.204956</ele>
        <time>2016-06-05T08:26:31Z</time>
      </trkpt>
      <trkpt lat="45.7291" lon="4.60848">
        <ele>755.437134</ele>
        <time>2016-06-05T08:26:33Z</time>
      </trkpt>
      <trkpt lat="45.72914" lon="4.60852">
        <ele>755.698303</ele>
        <time>2016-06-05T08:26:35Z</time>
      </trkpt>
      <trkpt lat="45.72918" lon="4.60855">
        <ele>755.792053</ele>
        <time>2016-06-05T08:26:37Z</time>
      </trkpt>
      <trkpt lat="45.72922" lon="4.60859">
        <ele>756.023987</ele>
        <time>2016-06-05T08:26:39Z</time>
      </trkpt>
      <trkpt lat="45.72925" lon="4.60861">
        <ele>756.066345</ele>
        <time>2016-06-05T08:26:41Z</time>
      </trkpt>
      <trkpt lat="45.72929" lon="4.60864">
        <ele>756.312134</ele>
        <time>2016-06-05T08:26:43Z</time>
      </trkpt>
      <trkpt lat="45.72932" lon="4.60867">
        <ele>756.484497</ele>
        <time>2016-06-05T08:26:45Z</time>
      </trkpt>
      <trkpt lat="45.72935" lon="4.60869">
        <ele>756.634033</ele>
        <time>2016-06-05T08:26:47Z</time>
      </trkpt>
      <trkpt lat="45.72937" lon="4.60872">
        <ele>756.77179</ele>
        <time>2016-06-05T08:26:49Z</time>
      </trkpt>
      <trkpt lat="45.72939" lon="4.60873">
        <ele>756.876648</ele>
        <time>2016-06-05T08:26:51Z</time>
      </trkpt>
      <trkpt lat="45.72942" lon="4.60875">
        <ele>756.964966</ele>
        <time>2016-06-05T08:26:53Z</time>
      </trkpt>
      <trkpt lat="45.72946" lon="4.60877">
        <ele>757.038696</ele>
        <time>2016-06-05T08:26:55Z</time>
      </trkpt>
      <trkpt lat="45.72952" lon="4.60877">
        <ele>757.016357</ele>
        <time>2016-06-05T08:26:57Z</time>
      </trkpt>
      <trkpt lat="45.72958" lon="4.60875">
        <ele>756.931519</ele>
        <time>2016-06-05T08:26:59Z</time>
      </trkpt>
      <trkpt lat="45.72965" lon="4.60874">
        <ele>756.845276</ele>
        <time>2016-06-05T08:27:01Z</time>
      </trkpt>
      <trkpt lat="45.72974" lon="4.60872">
        <ele>756.691772</ele>
        <time>2016-06-05T08:27:03Z</time>
      </trkpt>
      <trkpt lat="45.72984" lon="4.60865">
        <ele>756.388245</ele>
        <time>2016-06-05T08:27:05Z</time>
      </trkpt>
      <trkpt lat="45.72992" lon="4.60853">
        <ele>755.817139</ele>
        <time>2016-06-05T08:27:07Z</time>
      </trkpt>
      <trkpt lat="45.72998" lon="4.60843">
        <ele>755.179016</ele>
        <time>2016-06-05T08:27:09Z</time>
      </trkpt>
      <trkpt lat="45.73003" lon="4.60832">
        <ele>754.792847</ele>
        <time>2016-06-05T08:27:11Z</time>
      </trkpt>
      <trkpt lat="45.73008" lon="4.60818">
        <ele>753.98468</ele>
        <time>2016-06-05T08:27:13Z</time>
      </trkpt>
      <trkpt lat="45.73015" lon="4.60803">
        <ele>753.360046</ele>
        <time>2016-06-05T08:27:15Z</time>
      </trkpt>
      <trkpt lat="45.73022" lon="4.60791">
        <ele>752.608337</ele>
        <time>2016-06-05T08:27:17Z</time>
      </trkpt>
      <trkpt lat="45.73027" lon="4.60783">
        <ele>751.496826</ele>
        <time>2016-06-05T08:27:19Z</time>
      </trkpt>
      <trkpt lat="45.73031" lon="4.60776">
        <ele>750.805298</ele>
        <time>2016-06-05T08:27:21Z</time>
      </trkpt>
      <trkpt lat="45.73032" lon="4.6077">
        <ele>750.379272</ele>
        <time>2016-06-05T08:27:23Z</time>
      </trkpt>
      <trkpt lat="45.73032" lon="4.60765">
        <ele>749.55719</ele>
        <time>2016-06-05T08:27:25Z</time>
      </trkpt>
      <trkpt lat="45.73032" lon="4.6076">
        <ele>748.59314</ele>
        <time>2016-06-05T08:27:27Z</time>
      </trkpt>
      <trkpt lat="45.73032" lon="4.60755">
        <ele>747.674133</ele>
        <time>2016-06-05T08:27:29Z</time>
      </trkpt>
      <trkpt lat="45.73032" lon="4.6075">
        <ele>746.769165</ele>
        <time>2016-06-05T08:27:31Z</time>
      </trkpt>
      <trkpt lat="45.73031" lon="4.60746">
        <ele>746.091003</ele>
        <time>2016-06-05T08:27:33Z</time>
      </trkpt>
      <trkpt lat="45.73031" lon="4.60742">
        <ele>745.306702</ele>
        <time>2016-06-05T08:27:35Z</time>
      </trkpt>
      <trkpt lat="45.73029" lon="4.60737">
        <ele>744.227417</ele>
        <time>2016-06-05T08:27:37Z</time>
      </trkpt>
      <trkpt lat="45.73029" lon="4.60733">
        <ele>743.567078</ele>
        <time>2016-06-05T08:27:39Z</time>
      </trkpt>
      <trkpt lat="45.73028" lon="4.60729">
        <ele>743.009644</ele>
        <time>2016-06-05T08:27:41Z</time>
      </trkpt>
      <trkpt lat="45.73028" lon="4.60725">
        <ele>742.404907</ele>
        <time>2016-06-05T08:27:43Z</time>
      </trkpt>
      <trkpt lat="45.73027" lon="4.6072">
        <ele>742.279968</ele>
        <time>2016-06-05T08:27:45Z</time>
      </trkpt>
      <trkpt lat="45.73027" lon="4.60716">
        <ele>741.849426</ele>
        <time>2016-06-05T08:27:47Z</time>
      </trkpt>
      <trkpt lat="45.73026" lon="4.60711">
        <ele>741.811462</ele>
        <time>2016-06-05T08:27:49Z</time>
      </trkpt>
      <trkpt lat="45.73026" lon="4.60707">
        <ele>741.626343</ele>
        <time>2016-06-05T08:27:51Z</time>
      </trkpt>
      <trkpt lat="45.73026" lon="4.60704">
        <ele>741.336304</ele>
        <time>2016-06-05T08:27:53Z</time>
      </trkpt>
      <trkpt lat="45.73027" lon="4.60701">
        <ele>741.523193</ele>
        <time>2016-06-05T08:27:55Z</time>
      </trkpt>
      <trkpt lat="45.73026" lon="4.60697">
        <ele>741.549377</ele>
        <time>2016-06-05T08:27:57Z</time>
      </trkpt>
      <trkpt lat="45.73026" lon="4.60694">
        <ele>741.578186</ele>
        <time>2016-06-05T08:27:59Z</time>
      </trkpt>
      <trkpt lat="45.73026" lon="4.6069">
        <ele>742.09082</ele>
        <time>2016-06-05T08:28:01Z</time>
      </trkpt>
      <trkpt lat="45.73026" lon="4.60687">
        <ele>742.262512</ele>
        <time>2016-06-05T08:28:03Z</time>
      </trkpt>
      <trkpt lat="45.73024" lon="4.60684">
        <ele>742.484558</ele>
        <time>2016-06-05T08:28:05Z</time>
      </trkpt>
      <trkpt lat="45.73024" lon="4.6068">
        <ele>742.660706</ele>
        <time>2016-06-05T08:28:07Z</time>
      </trkpt>
      <trkpt lat="45.73023" lon="4.60676">
        <ele>743.0979</ele>
        <time>2016-06-05T08:28:09Z</time>
      </trkpt>
      <trkpt lat="45.73022" lon="4.60672">
        <ele>743.503662</ele>
        <time>2016-06-05T08:28:11Z</time>
      </trkpt>
      <trkpt lat="45.73021" lon="4.60667">
        <ele>744.460938</ele>
        <time>2016-06-05T08:28:13Z</time>
      </trkpt>
      <trkpt lat="45.73021" lon="4.60664">
        <ele>744.674988</ele>
        <time>2016-06-05T08:28:15Z</time>
      </trkpt>
      <trkpt lat="45.73019" lon="4.6066">
        <ele>744.975952</ele>
        <time>2016-06-05T08:28:17Z</time>
      </trkpt>
      <trkpt lat="45.73018" lon="4.60657">
        <ele>745.610718</ele>
        <time>2016-06-05T08:28:19Z</time>
      </trkpt>
      <trkpt lat="45.73018" lon="4.60654">
        <ele>745.890503</ele>
        <time>2016-06-05T08:28:21Z</time>
      </trkpt>
      <trkpt lat="45.73018" lon="4.60652">
        <ele>746.251831</ele>
        <time>2016-06-05T08:28:23Z</time>
      </trkpt>
      <trkpt lat="45.73017" lon="4.6065">
        <ele>746.642151</ele>
        <time>2016-06-05T08:28:25Z</time>
      </trkpt>
      <trkpt lat="45.73017" lon="4.60646">
        <ele>746.90094</ele>
        <time>2016-06-05T08:28:27Z</time>
      </trkpt>
      <trkpt lat="45.73016" lon="4.60642">
        <ele>747.195313</ele>
        <time>2016-06-05T08:28:29Z</time>
      </trkpt>
      <trkpt lat="45.73016" lon="4.60636">
        <ele>747.81311</ele>
        <time>2016-06-05T08:28:33Z</time>
      </trkpt>
      <trkpt lat="45.73015" lon="4.60634">
        <ele>748.139526</ele>
        <time>2016-06-05T08:28:35Z</time>
      </trkpt>
      <trkpt lat="45.73015" lon="4.60632">
        <ele>748.473999</ele>
        <time>2016-06-05T08:28:37Z</time>
      </trkpt>
      <trkpt lat="45.73014" lon="4.60629">
        <ele>748.761292</ele>
        <time>2016-06-05T08:28:39Z</time>
      </trkpt>
      <trkpt lat="45.73013" lon="4.60627">
        <ele>749.1427</ele>
        <time>2016-06-05T08:28:41Z</time>
      </trkpt>
      <trkpt lat="45.73013" lon="4.60624">
        <ele>749.477783</ele>
        <time>2016-06-05T08:28:43Z</time>
      </trkpt>
      <trkpt lat="45.73011" lon="4.6062">
        <ele>749.727661</ele>
        <time>2016-06-05T08:28:45Z</time>
      </trkpt>
      <trkpt lat="45.73011" lon="4.60617">
        <ele>750.068726</ele>
        <time>2016-06-05T08:28:47Z</time>
      </trkpt>
      <trkpt lat="45.7301" lon="4.60614">
        <ele>750.461121</ele>
        <time>2016-06-05T08:28:49Z</time>
      </trkpt>
      <trkpt lat="45.73009" lon="4.60611">
        <ele>750.748962</ele>
        <time>2016-06-05T08:28:51Z</time>
      </trkpt>
      <trkpt lat="45.73008" lon="4.60608">
        <ele>751.143921</ele>
        <time>2016-06-05T08:28:53Z</time>
      </trkpt>
      <trkpt lat="45.73006" lon="4.60604">
        <ele>751.346497</ele>
        <time>2016-06-05T08:28:59Z</time>
      </trkpt>
      <trkpt lat="45.73005" lon="4.60602">
        <ele>751.693542</ele>
        <time>2016-06-05T08:29:01Z</time>
      </trkpt>
      <trkpt lat="45.73002" lon="4.60594">
        <ele>753.518616</ele>
        <time>2016-06-05T08:29:15Z</time>
      </trkpt>
      <trkpt lat="45.73001" lon="4.6059">
        <ele>753.786438</ele>
        <time>2016-06-05T08:29:19Z</time>
      </trkpt>
      <trkpt lat="45.72998" lon="4.60581">
        <ele>755.024353</ele>
        <time>2016-06-05T08:29:29Z</time>
      </trkpt>
      <trkpt lat="45.72995" lon="4.60571">
        <ele>756.340698</ele>
        <time>2016-06-05T08:29:41Z</time>
      </trkpt>
      <trkpt lat="45.72995" lon="4.60569">
        <ele>756.528259</ele>
        <time>2016-06-05T08:29:43Z</time>
      </trkpt>
      <trkpt lat="45.72995" lon="4.60567">
        <ele>756.660706</ele>
        <time>2016-06-05T08:29:45Z</time>
      </trkpt>
      <trkpt lat="45.72994" lon="4.60565">
        <ele>756.986694</ele>
        <time>2016-06-05T08:29:47Z</time>
      </trkpt>
      <trkpt lat="45.72988" lon="4.60546">
        <ele>757.496338</ele>
        <time>2016-06-05T08:29:51Z</time>
      </trkpt>
      <trkpt lat="45.72988" lon="4.60543">
        <ele>758.035706</ele>
        <time>2016-06-05T08:29:55Z</time>
      </trkpt>
      <trkpt lat="45.72987" lon="4.6054">
        <ele>758.32605</ele>
        <time>2016-06-05T08:29:57Z</time>
      </trkpt>
      <trkpt lat="45.72986" lon="4.60535">
        <ele>758.997986</ele>
        <time>2016-06-05T08:30:03Z</time>
      </trkpt>
      <trkpt lat="45.72985" lon="4.60533">
        <ele>759.247314</ele>
        <time>2016-06-05T08:30:05Z</time>
      </trkpt>
      <trkpt lat="45.72984" lon="4.6053">
        <ele>759.602417</ele>
        <time>2016-06-05T08:30:07Z</time>
      </trkpt>
      <trkpt lat="45.72983" lon="4.60528">
        <ele>759.794006</ele>
        <time>2016-06-05T08:30:09Z</time>
      </trkpt>
      <trkpt lat="45.72982" lon="4.60525">
        <ele>760.003418</ele>
        <time>2016-06-05T08:30:11Z</time>
      </trkpt>
      <trkpt lat="45.72981" lon="4.60523">
        <ele>760.212158</ele>
        <time>2016-06-05T08:30:13Z</time>
      </trkpt>
      <trkpt lat="45.7298" lon="4.60521">
        <ele>760.486572</ele>
        <time>2016-06-05T08:30:15Z</time>
      </trkpt>
      <trkpt lat="45.72979" lon="4.60519">
        <ele>760.658569</ele>
        <time>2016-06-05T08:30:17Z</time>
      </trkpt>
      <trkpt lat="45.72975" lon="4.60505">
        <ele>762.393616</ele>
        <time>2016-06-05T08:30:35Z</time>
      </trkpt>
      <trkpt lat="45.72973" lon="4.60501">
        <ele>762.908813</ele>
        <time>2016-06-05T08:30:39Z</time>
      </trkpt>
      <trkpt lat="45.72971" lon="4.60496">
        <ele>763.678101</ele>
        <time>2016-06-05T08:30:45Z</time>
      </trkpt>
      <trkpt lat="45.72968" lon="4.60491">
        <ele>764.409607</ele>
        <time>2016-06-05T08:30:51Z</time>
      </trkpt>
      <trkpt lat="45.72966" lon="4.60489">
        <ele>764.696167</ele>
        <time>2016-06-05T08:30:53Z</time>
      </trkpt>
      <trkpt lat="45.72965" lon="4.60487">
        <ele>764.953369</ele>
        <time>2016-06-05T08:30:55Z</time>
      </trkpt>
      <trkpt lat="45.72964" lon="4.60486">
        <ele>765.040466</ele>
        <time>2016-06-05T08:30:57Z</time>
      </trkpt>
      <trkpt lat="45.72961" lon="4.60483">
        <ele>765.633484</ele>
        <time>2016-06-05T08:31:01Z</time>
      </trkpt>
      <trkpt lat="45.7296" lon="4.60481">
        <ele>765.995483</ele>
        <time>2016-06-05T08:31:03Z</time>
      </trkpt>
      <trkpt lat="45.72959" lon="4.6048">
        <ele>766.453491</ele>
        <time>2016-06-05T08:31:05Z</time>
      </trkpt>
      <trkpt lat="45.72953" lon="4.60472">
        <ele>768.020752</ele>
        <time>2016-06-05T08:31:17Z</time>
      </trkpt>
      <trkpt lat="45.7295" lon="4.60465">
        <ele>781.666687</ele>
        <time>2016-06-05T08:33:04Z</time>
      </trkpt>
      <trkpt lat="45.72948" lon="4.60463">
        <ele>781.942078</ele>
        <time>2016-06-05T08:33:06Z</time>
      </trkpt>
      <trkpt lat="45.72902" lon="4.60409">
        <ele>782.234253</ele>
        <time>2016-06-05T08:33:08Z</time>
      </trkpt>
      <trkpt lat="45.729" lon="4.60408">
        <ele>782.520813</ele>
        <time>2016-06-05T08:33:10Z</time>
      </trkpt>
      <trkpt lat="45.72899" lon="4.60406">
        <ele>782.798157</ele>
        <time>2016-06-05T08:33:12Z</time>
      </trkpt>
      <trkpt lat="45.72898" lon="4.60405">
        <ele>783.0802</ele>
        <time>2016-06-05T08:33:14Z</time>
      </trkpt>
      <trkpt lat="45.72896" lon="4.60404">
        <ele>783.400208</ele>
        <time>2016-06-05T08:33:16Z</time>
      </trkpt>
      <trkpt lat="45.72895" lon="4.60402">
        <ele>783.723633</ele>
        <time>2016-06-05T08:33:18Z</time>
      </trkpt>
      <trkpt lat="45.72894" lon="4.60401">
        <ele>784.005676</ele>
        <time>2016-06-05T08:33:20Z</time>
      </trkpt>
      <trkpt lat="45.72892" lon="4.604">
        <ele>784.301086</ele>
        <time>2016-06-05T08:33:22Z</time>
      </trkpt>
      <trkpt lat="45.72891" lon="4.60399">
        <ele>784.453308</ele>
        <time>2016-06-05T08:33:24Z</time>
      </trkpt>
      <trkpt lat="45.7289" lon="4.60397">
        <ele>784.589844</ele>
        <time>2016-06-05T08:33:26Z</time>
      </trkpt>
      <trkpt lat="45.72888" lon="4.60396">
        <ele>785.008667</ele>
        <time>2016-06-05T08:33:28Z</time>
      </trkpt>
      <trkpt lat="45.72887" lon="4.60395">
        <ele>785.167603</ele>
        <time>2016-06-05T08:33:30Z</time>
      </trkpt>
      <trkpt lat="45.72886" lon="4.60393">
        <ele>785.43396</ele>
        <time>2016-06-05T08:33:32Z</time>
      </trkpt>
      <trkpt lat="45.72885" lon="4.60392">
        <ele>785.673157</ele>
        <time>2016-06-05T08:33:34Z</time>
      </trkpt>
      <trkpt lat="45.72883" lon="4.60391">
        <ele>785.90802</ele>
        <time>2016-06-05T08:33:36Z</time>
      </trkpt>
      <trkpt lat="45.72882" lon="4.6039">
        <ele>786.216431</ele>
        <time>2016-06-05T08:33:38Z</time>
      </trkpt>
      <trkpt lat="45.72881" lon="4.60388">
        <ele>786.38208</ele>
        <time>2016-06-05T08:33:40Z</time>
      </trkpt>
      <trkpt lat="45.72879" lon="4.60387">
        <ele>786.614868</ele>
        <time>2016-06-05T08:33:42Z</time>
      </trkpt>
      <trkpt lat="45.72878" lon="4.60385">
        <ele>786.811951</ele>
        <time>2016-06-05T08:33:44Z</time>
      </trkpt>
      <trkpt lat="45.72877" lon="4.60384">
        <ele>787.033569</ele>
        <time>2016-06-05T08:33:46Z</time>
      </trkpt>
      <trkpt lat="45.72876" lon="4.60382">
        <ele>787.197021</ele>
        <time>2016-06-05T08:33:48Z</time>
      </trkpt>
      <trkpt lat="45.72875" lon="4.60381">
        <ele>787.479126</ele>
        <time>2016-06-05T08:33:50Z</time>
      </trkpt>
      <trkpt lat="45.72873" lon="4.60379">
        <ele>787.732178</ele>
        <time>2016-06-05T08:33:52Z</time>
      </trkpt>
      <trkpt lat="45.72872" lon="4.60378">
        <ele>787.880493</ele>
        <time>2016-06-05T08:33:54Z</time>
      </trkpt>
      <trkpt lat="45.72871" lon="4.60376">
        <ele>788.090942</ele>
        <time>2016-06-05T08:33:56Z</time>
      </trkpt>
      <trkpt lat="45.72871" lon="4.60374">
        <ele>788.21637</ele>
        <time>2016-06-05T08:33:58Z</time>
      </trkpt>
      <trkpt lat="45.7287" lon="4.60372">
        <ele>788.429077</ele>
        <time>2016-06-05T08:34:00Z</time>
      </trkpt>
      <trkpt lat="45.72869" lon="4.60371">
        <ele>788.679932</ele>
        <time>2016-06-05T08:34:02Z</time>
      </trkpt>
      <trkpt lat="45.72865" lon="4.60364">
        <ele>791.07489</ele>
        <time>2016-06-05T08:34:26Z</time>
      </trkpt>
      <trkpt lat="45.72863" lon="4.60363">
        <ele>791.255188</ele>
        <time>2016-06-05T08:34:28Z</time>
      </trkpt>
      <trkpt lat="45.72862" lon="4.60362">
        <ele>791.411926</ele>
        <time>2016-06-05T08:34:30Z</time>
      </trkpt>
      <trkpt lat="45.72859" lon="4.60361">
        <ele>791.503784</ele>
        <time>2016-06-05T08:34:32Z</time>
      </trkpt>
      <trkpt lat="45.72858" lon="4.60359">
        <ele>791.743469</ele>
        <time>2016-06-05T08:34:34Z</time>
      </trkpt>
      <trkpt lat="45.72857" lon="4.60358">
        <ele>791.875671</ele>
        <time>2016-06-05T08:34:36Z</time>
      </trkpt>
      <trkpt lat="45.72855" lon="4.60356">
        <ele>792.151184</ele>
        <time>2016-06-05T08:34:38Z</time>
      </trkpt>
      <trkpt lat="45.72853" lon="4.60354">
        <ele>792.397644</ele>
        <time>2016-06-05T08:34:40Z</time>
      </trkpt>
      <trkpt lat="45.7285" lon="4.60353">
        <ele>792.55481</ele>
        <time>2016-06-05T08:34:42Z</time>
      </trkpt>
      <trkpt lat="45.72849" lon="4.60351">
        <ele>792.760925</ele>
        <time>2016-06-05T08:34:44Z</time>
      </trkpt>
      <trkpt lat="45.72847" lon="4.6035">
        <ele>792.841614</ele>
        <time>2016-06-05T08:34:46Z</time>
      </trkpt>
      <trkpt lat="45.72845" lon="4.60349">
        <ele>793.027527</ele>
        <time>2016-06-05T08:34:48Z</time>
      </trkpt>
      <trkpt lat="45.72844" lon="4.60348">
        <ele>793.117188</ele>
        <time>2016-06-05T08:34:50Z</time>
      </trkpt>
      <trkpt lat="45.72842" lon="4.60345">
        <ele>793.275269</ele>
        <time>2016-06-05T08:34:52Z</time>
      </trkpt>
      <trkpt lat="45.72841" lon="4.60342">
        <ele>793.550903</ele>
        <time>2016-06-05T08:34:54Z</time>
      </trkpt>
      <trkpt lat="45.72839" lon="4.6034">
        <ele>793.783875</ele>
        <time>2016-06-05T08:34:56Z</time>
      </trkpt>
      <trkpt lat="45.72837" lon="4.60337">
        <ele>793.956421</ele>
        <time>2016-06-05T08:34:58Z</time>
      </trkpt>
      <trkpt lat="45.72835" lon="4.60335">
        <ele>794.160339</ele>
        <time>2016-06-05T08:35:00Z</time>
      </trkpt>
      <trkpt lat="45.72833" lon="4.60332">
        <ele>794.465454</ele>
        <time>2016-06-05T08:35:02Z</time>
      </trkpt>
      <trkpt lat="45.72831" lon="4.60329">
        <ele>794.801636</ele>
        <time>2016-06-05T08:35:04Z</time>
      </trkpt>
      <trkpt lat="45.72829" lon="4.60327">
        <ele>795.14679</ele>
        <time>2016-06-05T08:35:06Z</time>
      </trkpt>
      <trkpt lat="45.72827" lon="4.60324">
        <ele>795.499695</ele>
        <time>2016-06-05T08:35:08Z</time>
      </trkpt>
      <trkpt lat="45.72825" lon="4.60321">
        <ele>795.849304</ele>
        <time>2016-06-05T08:35:10Z</time>
      </trkpt>
      <trkpt lat="45.72822" lon="4.60319">
        <ele>796.16748</ele>
        <time>2016-06-05T08:35:12Z</time>
      </trkpt>
      <trkpt lat="45.7282" lon="4.60317">
        <ele>796.279602</ele>
        <time>2016-06-05T08:35:14Z</time>
      </trkpt>
      <trkpt lat="45.72818" lon="4.60314">
        <ele>796.493652</ele>
        <time>2016-06-05T08:35:16Z</time>
      </trkpt>
      <trkpt lat="45.72816" lon="4.60311">
        <ele>796.88147</ele>
        <time>2016-06-05T08:35:18Z</time>
      </trkpt>
      <trkpt lat="45.72814" lon="4.60308">
        <ele>797.123413</ele>
        <time>2016-06-05T08:35:20Z</time>
      </trkpt>
      <trkpt lat="45.72812" lon="4.60306">
        <ele>797.331909</ele>
        <time>2016-06-05T08:35:22Z</time>
      </trkpt>
      <trkpt lat="45.72811" lon="4.60303">
        <ele>797.686646</ele>
        <time>2016-06-05T08:35:24Z</time>
      </trkpt>
      <trkpt lat="45.72809" lon="4.60301">
        <ele>797.981262</ele>
        <time>2016-06-05T08:35:26Z</time>
      </trkpt>
      <trkpt lat="45.72807" lon="4.60299">
        <ele>798.404907</ele>
        <time>2016-06-05T08:35:28Z</time>
      </trkpt>
      <trkpt lat="45.72805" lon="4.60296">
        <ele>798.806152</ele>
        <time>2016-06-05T08:35:30Z</time>
      </trkpt>
      <trkpt lat="45.72804" lon="4.60293">
        <ele>799.151367</ele>
        <time>2016-06-05T08:35:32Z</time>
      </trkpt>
      <trkpt lat="45.72802" lon="4.60291">
        <ele>799.371887</ele>
        <time>2016-06-05T08:35:34Z</time>
      </trkpt>
      <trkpt lat="45.728" lon="4.60289">
        <ele>799.636353</ele>
        <time>2016-06-05T08:35:36Z</time>
      </trkpt>
      <trkpt lat="45.72798" lon="4.60286">
        <ele>799.847107</ele>
        <time>2016-06-05T08:35:38Z</time>
      </trkpt>
      <trkpt lat="45.72796" lon="4.60283">
        <ele>800.298523</ele>
        <time>2016-06-05T08:35:40Z</time>
      </trkpt>
      <trkpt lat="45.72794" lon="4.6028">
        <ele>800.724487</ele>
        <time>2016-06-05T08:35:42Z</time>
      </trkpt>
      <trkpt lat="45.72792" lon="4.60278">
        <ele>801.055969</ele>
        <time>2016-06-05T08:35:44Z</time>
      </trkpt>
      <trkpt lat="45.72791" lon="4.60276">
        <ele>801.383057</ele>
        <time>2016-06-05T08:35:46Z</time>
      </trkpt>
      <trkpt lat="45.72789" lon="4.60273">
        <ele>801.675781</ele>
        <time>2016-06-05T08:35:48Z</time>
      </trkpt>
      <trkpt lat="45.72786" lon="4.60271">
        <ele>802.043518</ele>
        <time>2016-06-05T08:35:50Z</time>
      </trkpt>
      <trkpt lat="45.72784" lon="4.60268">
        <ele>802.301392</ele>
        <time>2016-06-05T08:35:52Z</time>
      </trkpt>
      <trkpt lat="45.72783" lon="4.60265">
        <ele>802.615356</ele>
        <time>2016-06-05T08:35:54Z</time>
      </trkpt>
      <trkpt lat="45.72781" lon="4.60261">
        <ele>802.993042</ele>
        <time>2016-06-05T08:35:56Z</time>
      </trkpt>
      <trkpt lat="45.7278" lon="4.60259">
        <ele>803.273376</ele>
        <time>2016-06-05T08:35:58Z</time>
      </trkpt>
      <trkpt lat="45.72777" lon="4.60256">
        <ele>803.439331</ele>
        <time>2016-06-05T08:36:00Z</time>
      </trkpt>
      <trkpt lat="45.72775" lon="4.60254">
        <ele>803.797913</ele>
        <time>2016-06-05T08:36:02Z</time>
      </trkpt>
      <trkpt lat="45.72773" lon="4.60251">
        <ele>804.145508</ele>
        <time>2016-06-05T08:36:04Z</time>
      </trkpt>
      <trkpt lat="45.72771" lon="4.60248">
        <ele>804.45636</ele>
        <time>2016-06-05T08:36:06Z</time>
      </trkpt>
      <trkpt lat="45.72769" lon="4.60246">
        <ele>804.781982</ele>
        <time>2016-06-05T08:36:08Z</time>
      </trkpt>
      <trkpt lat="45.72768" lon="4.60243">
        <ele>805.091431</ele>
        <time>2016-06-05T08:36:10Z</time>
      </trkpt>
      <trkpt lat="45.72766" lon="4.6024">
        <ele>805.317322</ele>
        <time>2016-06-05T08:36:12Z</time>
      </trkpt>
      <trkpt lat="45.72763" lon="4.60238">
        <ele>805.74353</ele>
        <time>2016-06-05T08:36:14Z</time>
      </trkpt>
      <trkpt lat="45.72761" lon="4.60236">
        <ele>806.074707</ele>
        <time>2016-06-05T08:36:16Z</time>
      </trkpt>
      <trkpt lat="45.72758" lon="4.60232">
        <ele>806.433655</ele>
        <time>2016-06-05T08:36:18Z</time>
      </trkpt>
      <trkpt lat="45.72755" lon="4.6023">
        <ele>806.688538</ele>
        <time>2016-06-05T08:36:20Z</time>
      </trkpt>
      <trkpt lat="45.72753" lon="4.60227">
        <ele>806.953247</ele>
        <time>2016-06-05T08:36:22Z</time>
      </trkpt>
      <trkpt lat="45.72751" lon="4.60224">
        <ele>807.072144</ele>
        <time>2016-06-05T08:36:24Z</time>
      </trkpt>
      <trkpt lat="45.72748" lon="4.60221">
        <ele>807.280518</ele>
        <time>2016-06-05T08:36:26Z</time>
      </trkpt>
      <trkpt lat="45.72746" lon="4.60218">
        <ele>807.511841</ele>
        <time>2016-06-05T08:36:28Z</time>
      </trkpt>
      <trkpt lat="45.72744" lon="4.60215">
        <ele>807.849426</ele>
        <time>2016-06-05T08:36:30Z</time>
      </trkpt>
      <trkpt lat="45.72741" lon="4.60212">
        <ele>808.114136</ele>
        <time>2016-06-05T08:36:32Z</time>
      </trkpt>
      <trkpt lat="45.72739" lon="4.60209">
        <ele>808.423706</ele>
        <time>2016-06-05T08:36:34Z</time>
      </trkpt>
      <trkpt lat="45.72737" lon="4.60206">
        <ele>808.729614</ele>
        <time>2016-06-05T08:36:36Z</time>
      </trkpt>
      <trkpt lat="45.72735" lon="4.60204">
        <ele>808.987671</ele>
        <time>2016-06-05T08:36:38Z</time>
      </trkpt>
      <trkpt lat="45.72733" lon="4.602">
        <ele>809.295044</ele>
        <time>2016-06-05T08:36:40Z</time>
      </trkpt>
      <trkpt lat="45.72731" lon="4.60197">
        <ele>809.508484</ele>
        <time>2016-06-05T08:36:42Z</time>
      </trkpt>
      <trkpt lat="45.7273" lon="4.60193">
        <ele>809.771301</ele>
        <time>2016-06-05T08:36:44Z</time>
      </trkpt>
      <trkpt lat="45.7273" lon="4.6019">
        <ele>810.006836</ele>
        <time>2016-06-05T08:36:46Z</time>
      </trkpt>
      <trkpt lat="45.7273" lon="4.60186">
        <ele>810.09668</ele>
        <time>2016-06-05T08:36:48Z</time>
      </trkpt>
      <trkpt lat="45.7273" lon="4.60183">
        <ele>810.345703</ele>
        <time>2016-06-05T08:36:50Z</time>
      </trkpt>
      <trkpt lat="45.7273" lon="4.60179">
        <ele>810.621765</ele>
        <time>2016-06-05T08:36:52Z</time>
      </trkpt>
      <trkpt lat="45.72731" lon="4.60175">
        <ele>810.906006</ele>
        <time>2016-06-05T08:36:54Z</time>
      </trkpt>
      <trkpt lat="45.72731" lon="4.60171">
        <ele>811.06311</ele>
        <time>2016-06-05T08:36:56Z</time>
      </trkpt>
      <trkpt lat="45.72731" lon="4.60167">
        <ele>811.336853</ele>
        <time>2016-06-05T08:36:58Z</time>
      </trkpt>
      <trkpt lat="45.72733" lon="4.60163">
        <ele>811.577026</ele>
        <time>2016-06-05T08:37:00Z</time>
      </trkpt>
      <trkpt lat="45.72735" lon="4.6016">
        <ele>811.8172</ele>
        <time>2016-06-05T08:37:02Z</time>
      </trkpt>
      <trkpt lat="45.72736" lon="4.60156">
        <ele>812.097778</ele>
        <time>2016-06-05T08:37:04Z</time>
      </trkpt>
      <trkpt lat="45.72738" lon="4.60153">
        <ele>812.313416</ele>
        <time>2016-06-05T08:37:06Z</time>
      </trkpt>
      <trkpt lat="45.72739" lon="4.60149">
        <ele>812.614197</ele>
        <time>2016-06-05T08:37:08Z</time>
      </trkpt>
      <trkpt lat="45.7274" lon="4.60146">
        <ele>812.804993</ele>
        <time>2016-06-05T08:37:10Z</time>
      </trkpt>
      <trkpt lat="45.72742" lon="4.60143">
        <ele>813.066772</ele>
        <time>2016-06-05T08:37:12Z</time>
      </trkpt>
      <trkpt lat="45.72744" lon="4.6014">
        <ele>813.360962</ele>
        <time>2016-06-05T08:37:14Z</time>
      </trkpt>
      <trkpt lat="45.72745" lon="4.60136">
        <ele>813.596558</ele>
        <time>2016-06-05T08:37:16Z</time>
      </trkpt>
      <trkpt lat="45.72747" lon="4.60133">
        <ele>813.856323</ele>
        <time>2016-06-05T08:37:18Z</time>
      </trkpt>
      <trkpt lat="45.72749" lon="4.6013">
        <ele>814.127747</ele>
        <time>2016-06-05T08:37:20Z</time>
      </trkpt>
      <trkpt lat="45.72751" lon="4.60127">
        <ele>814.44873</ele>
        <time>2016-06-05T08:37:22Z</time>
      </trkpt>
      <trkpt lat="45.72752" lon="4.60123">
        <ele>814.742859</ele>
        <time>2016-06-05T08:37:24Z</time>
      </trkpt>
      <trkpt lat="45.72754" lon="4.6012">
        <ele>815.088379</ele>
        <time>2016-06-05T08:37:26Z</time>
      </trkpt>
      <trkpt lat="45.72756" lon="4.60117">
        <ele>815.458801</ele>
        <time>2016-06-05T08:37:28Z</time>
      </trkpt>
      <trkpt lat="45.72759" lon="4.60113">
        <ele>815.789673</ele>
        <time>2016-06-05T08:37:30Z</time>
      </trkpt>
      <trkpt lat="45.7276" lon="4.6011">
        <ele>816.07489</ele>
        <time>2016-06-05T08:37:32Z</time>
      </trkpt>
      <trkpt lat="45.72763" lon="4.60107">
        <ele>816.342163</ele>
        <time>2016-06-05T08:37:34Z</time>
      </trkpt>
      <trkpt lat="45.72765" lon="4.60103">
        <ele>816.532227</ele>
        <time>2016-06-05T08:37:36Z</time>
      </trkpt>
      <trkpt lat="45.72767" lon="4.601">
        <ele>816.817505</ele>
        <time>2016-06-05T08:37:38Z</time>
      </trkpt>
      <trkpt lat="45.72767" lon="4.60097">
        <ele>817.18573</ele>
        <time>2016-06-05T08:37:40Z</time>
      </trkpt>
      <trkpt lat="45.72765" lon="4.60095">
        <ele>817.450806</ele>
        <time>2016-06-05T08:37:42Z</time>
      </trkpt>
      <trkpt lat="45.72763" lon="4.60097">
        <ele>817.695618</ele>
        <time>2016-06-05T08:37:44Z</time>
      </trkpt>
      <trkpt lat="45.7276" lon="4.60098">
        <ele>817.96344</ele>
        <time>2016-06-05T08:37:46Z</time>
      </trkpt>
      <trkpt lat="45.72757" lon="4.60097">
        <ele>818.306274</ele>
        <time>2016-06-05T08:37:48Z</time>
      </trkpt>
      <trkpt lat="45.72752" lon="4.60097">
        <ele>818.537598</ele>
        <time>2016-06-05T08:37:50Z</time>
      </trkpt>
      <trkpt lat="45.72747" lon="4.60098">
        <ele>818.779419</ele>
        <time>2016-06-05T08:37:52Z</time>
      </trkpt>
      <trkpt lat="45.72743" lon="4.60098">
        <ele>818.896179</ele>
        <time>2016-06-05T08:37:54Z</time>
      </trkpt>
      <trkpt lat="45.72738" lon="4.60099">
        <ele>819.224121</ele>
        <time>2016-06-05T08:37:56Z</time>
      </trkpt>
      <trkpt lat="45.72732" lon="4.60099">
        <ele>819.552124</ele>
        <time>2016-06-05T08:37:58Z</time>
      </trkpt>
      <trkpt lat="45.72726" lon="4.601">
        <ele>819.648743</ele>
        <time>2016-06-05T08:38:00Z</time>
      </trkpt>
      <trkpt lat="45.7272" lon="4.601">
        <ele>819.911743</ele>
        <time>2016-06-05T08:38:02Z</time>
      </trkpt>
      <trkpt lat="45.72714" lon="4.60101">
        <ele>819.887024</ele>
        <time>2016-06-05T08:38:04Z</time>
      </trkpt>
      <trkpt lat="45.72707" lon="4.60102">
        <ele>819.974609</ele>
        <time>2016-06-05T08:38:06Z</time>
      </trkpt>
      <trkpt lat="45.727" lon="4.60102">
        <ele>820.066711</ele>
        <time>2016-06-05T08:38:08Z</time>
      </trkpt>
      <trkpt lat="45.72693" lon="4.60101">
        <ele>820.192505</ele>
        <time>2016-06-05T08:38:10Z</time>
      </trkpt>
      <trkpt lat="45.72685" lon="4.60101">
        <ele>820.365417</ele>
        <time>2016-06-05T08:38:12Z</time>
      </trkpt>
      <trkpt lat="45.72676" lon="4.60099">
        <ele>820.408081</ele>
        <time>2016-06-05T08:38:14Z</time>
      </trkpt>
      <trkpt lat="45.72668" lon="4.60098">
        <ele>820.596802</ele>
        <time>2016-06-05T08:38:16Z</time>
      </trkpt>
      <trkpt lat="45.7266" lon="4.60095">
        <ele>820.598999</ele>
        <time>2016-06-05T08:38:18Z</time>
      </trkpt>
      <trkpt lat="45.72653" lon="4.60094">
        <ele>820.62146</ele>
        <time>2016-06-05T08:38:20Z</time>
      </trkpt>
      <trkpt lat="45.72646" lon="4.60092">
        <ele>820.747253</ele>
        <time>2016-06-05T08:38:22Z</time>
      </trkpt>
      <trkpt lat="45.7264" lon="4.6009">
        <ele>820.841614</ele>
        <time>2016-06-05T08:38:24Z</time>
      </trkpt>
      <trkpt lat="45.72633" lon="4.60088">
        <ele>820.962891</ele>
        <time>2016-06-05T08:38:26Z</time>
      </trkpt>
      <trkpt lat="45.72625" lon="4.60085">
        <ele>821.00061</ele>
        <time>2016-06-05T08:38:28Z</time>
      </trkpt>
      <trkpt lat="45.72619" lon="4.60082">
        <ele>820.976685</ele>
        <time>2016-06-05T08:38:30Z</time>
      </trkpt>
      <trkpt lat="45.72612" lon="4.60078">
        <ele>821.0755</ele>
        <time>2016-06-05T08:38:32Z</time>
      </trkpt>
      <trkpt lat="45.72606" lon="4.60075">
        <ele>821.203247</ele>
        <time>2016-06-05T08:38:34Z</time>
      </trkpt>
      <trkpt lat="45.72599" lon="4.60072">
        <ele>821.307251</ele>
        <time>2016-06-05T08:38:36Z</time>
      </trkpt>
      <trkpt lat="45.72593" lon="4.60066">
        <ele>821.232788</ele>
        <time>2016-06-05T08:38:38Z</time>
      </trkpt>
      <trkpt lat="45.72587" lon="4.60059">
        <ele>821.097839</ele>
        <time>2016-06-05T08:38:40Z</time>
      </trkpt>
      <trkpt lat="45.72581" lon="4.60052">
        <ele>821.248352</ele>
        <time>2016-06-05T08:38:42Z</time>
      </trkpt>
      <trkpt lat="45.72577" lon="4.60047">
        <ele>821.417664</ele>
        <time>2016-06-05T08:38:44Z</time>
      </trkpt>
      <trkpt lat="45.72574" lon="4.60043">
        <ele>821.534485</ele>
        <time>2016-06-05T08:38:46Z</time>
      </trkpt>
      <trkpt lat="45.7257" lon="4.60039">
        <ele>821.619934</ele>
        <time>2016-06-05T08:38:48Z</time>
      </trkpt>
      <trkpt lat="45.72566" lon="4.60035">
        <ele>821.561401</ele>
        <time>2016-06-05T08:38:50Z</time>
      </trkpt>
      <trkpt lat="45.72562" lon="4.6003">
        <ele>821.583984</ele>
        <time>2016-06-05T08:38:52Z</time>
      </trkpt>
      <trkpt lat="45.72559" lon="4.60027">
        <ele>821.527039</ele>
        <time>2016-06-05T08:38:54Z</time>
      </trkpt>
      <trkpt lat="45.72556" lon="4.60024">
        <ele>821.704468</ele>
        <time>2016-06-05T08:38:56Z</time>
      </trkpt>
      <trkpt lat="45.72553" lon="4.6002">
        <ele>821.866333</ele>
        <time>2016-06-05T08:38:58Z</time>
      </trkpt>
      <trkpt lat="45.7255" lon="4.60017">
        <ele>821.953918</ele>
        <time>2016-06-05T08:39:00Z</time>
      </trkpt>
      <trkpt lat="45.72546" lon="4.60013">
        <ele>822.126831</ele>
        <time>2016-06-05T08:39:02Z</time>
      </trkpt>
      <trkpt lat="45.72542" lon="4.6001">
        <ele>822.165039</ele>
        <time>2016-06-05T08:39:04Z</time>
      </trkpt>
      <trkpt lat="45.72539" lon="4.60007">
        <ele>822.384644</ele>
        <time>2016-06-05T08:39:06Z</time>
      </trkpt>
      <trkpt lat="45.72535" lon="4.60003">
        <ele>822.490234</ele>
        <time>2016-06-05T08:39:08Z</time>
      </trkpt>
      <trkpt lat="45.7253" lon="4.59999">
        <ele>822.562134</ele>
        <time>2016-06-05T08:39:10Z</time>
      </trkpt>
      <trkpt lat="45.72526" lon="4.59994">
        <ele>822.854187</ele>
        <time>2016-06-05T08:39:12Z</time>
      </trkpt>
      <trkpt lat="45.72521" lon="4.5999">
        <ele>822.888</ele>
        <time>2016-06-05T08:39:14Z</time>
      </trkpt>
      <trkpt lat="45.72518" lon="4.59984">
        <ele>823.021362</ele>
        <time>2016-06-05T08:39:16Z</time>
      </trkpt>
      <trkpt lat="45.72514" lon="4.5998">
        <ele>823.28595</ele>
        <time>2016-06-05T08:39:18Z</time>
      </trkpt>
      <trkpt lat="45.7251" lon="4.59975">
        <ele>823.645691</ele>
        <time>2016-06-05T08:39:20Z</time>
      </trkpt>
      <trkpt lat="45.72508" lon="4.5997">
        <ele>823.973938</ele>
        <time>2016-06-05T08:39:22Z</time>
      </trkpt>
      <trkpt lat="45.72504" lon="4.59964">
        <ele>824.102051</ele>
        <time>2016-06-05T08:39:24Z</time>
      </trkpt>
      <trkpt lat="45.72501" lon="4.59959">
        <ele>824.415833</ele>
        <time>2016-06-05T08:39:26Z</time>
      </trkpt>
      <trkpt lat="45.72498" lon="4.59953">
        <ele>824.820435</ele>
        <time>2016-06-05T08:39:28Z</time>
      </trkpt>
      <trkpt lat="45.72495" lon="4.59948">
        <ele>825.195679</ele>
        <time>2016-06-05T08:39:30Z</time>
      </trkpt>
      <trkpt lat="45.72493" lon="4.59943">
        <ele>825.687866</ele>
        <time>2016-06-05T08:39:32Z</time>
      </trkpt>
      <trkpt lat="45.72491" lon="4.59937">
        <ele>826.032532</ele>
        <time>2016-06-05T08:39:34Z</time>
      </trkpt>
      <trkpt lat="45.72488" lon="4.5993">
        <ele>826.389954</ele>
        <time>2016-06-05T08:39:36Z</time>
      </trkpt>
      <trkpt lat="45.72483" lon="4.59924">
        <ele>826.484253</ele>
        <time>2016-06-05T08:39:38Z</time>
      </trkpt>
      <trkpt lat="45.72478" lon="4.59917">
        <ele>826.63855</ele>
        <time>2016-06-05T08:39:40Z</time>
      </trkpt>
      <trkpt lat="45.72474" lon="4.59909">
        <ele>827.063354</ele>
        <time>2016-06-05T08:39:42Z</time>
      </trkpt>
      <trkpt lat="45.72471" lon="4.59902">
        <ele>827.414063</ele>
        <time>2016-06-05T08:39:44Z</time>
      </trkpt>
      <trkpt lat="45.72467" lon="4.59895">
        <ele>827.651184</ele>
        <time>2016-06-05T08:39:46Z</time>
      </trkpt>
      <trkpt lat="45.72465" lon="4.59888">
        <ele>827.94397</ele>
        <time>2016-06-05T08:39:48Z</time>
      </trkpt>
      <trkpt lat="45.72462" lon="4.59882">
        <ele>828.125977</ele>
        <time>2016-06-05T08:39:50Z</time>
      </trkpt>
      <trkpt lat="45.72459" lon="4.59876">
        <ele>828.478882</ele>
        <time>2016-06-05T08:39:52Z</time>
      </trkpt>
      <trkpt lat="45.72456" lon="4.59869">
        <ele>828.647461</ele>
        <time>2016-06-05T08:39:54Z</time>
      </trkpt>
      <trkpt lat="45.72451" lon="4.5986">
        <ele>829.122742</ele>
        <time>2016-06-05T08:39:57Z</time>
      </trkpt>
      <trkpt lat="45.72448" lon="4.59855">
        <ele>829.214966</ele>
        <time>2016-06-05T08:39:59Z</time>
      </trkpt>
      <trkpt lat="45.72444" lon="4.59848">
        <ele>829.291321</ele>
        <time>2016-06-05T08:40:01Z</time>
      </trkpt>
      <trkpt lat="45.72439" lon="4.59839">
        <ele>829.415405</ele>
        <time>2016-06-05T08:40:03Z</time>
      </trkpt>
      <trkpt lat="45.72435" lon="4.59829">
        <ele>829.644043</ele>
        <time>2016-06-05T08:40:05Z</time>
      </trkpt>
      <trkpt lat="45.7243" lon="4.59819">
        <ele>829.82843</ele>
        <time>2016-06-05T08:40:07Z</time>
      </trkpt>
      <trkpt lat="45.72425" lon="4.5981">
        <ele>829.846375</ele>
        <time>2016-06-05T08:40:09Z</time>
      </trkpt>
      <trkpt lat="45.72419" lon="4.59799">
        <ele>829.952026</ele>
        <time>2016-06-05T08:40:11Z</time>
      </trkpt>
      <trkpt lat="45.72412" lon="4.59788">
        <ele>829.79248</ele>
        <time>2016-06-05T08:40:13Z</time>
      </trkpt>
      <trkpt lat="45.72405" lon="4.59777">
        <ele>829.628418</ele>
        <time>2016-06-05T08:40:15Z</time>
      </trkpt>
      <trkpt lat="45.72398" lon="4.59766">
        <ele>829.666138</ele>
        <time>2016-06-05T08:40:17Z</time>
      </trkpt>
      <trkpt lat="45.72391" lon="4.59754">
        <ele>829.607727</ele>
        <time>2016-06-05T08:40:19Z</time>
      </trkpt>
      <trkpt lat="45.72384" lon="4.59742">
        <ele>829.48938</ele>
        <time>2016-06-05T08:40:21Z</time>
      </trkpt>
      <trkpt lat="45.72378" lon="4.59731">
        <ele>829.383606</ele>
        <time>2016-06-05T08:40:23Z</time>
      </trkpt>
      <trkpt lat="45.72373" lon="4.59719">
        <ele>829.179077</ele>
        <time>2016-06-05T08:40:25Z</time>
      </trkpt>
      <trkpt lat="45.72369" lon="4.59708">
        <ele>829.112793</ele>
        <time>2016-06-05T08:40:27Z</time>
      </trkpt>
      <trkpt lat="45.72365" lon="4.59698">
        <ele>829.018372</ele>
        <time>2016-06-05T08:40:29Z</time>
      </trkpt>
      <trkpt lat="45.72362" lon="4.59687">
        <ele>829.02063</ele>
        <time>2016-06-05T08:40:31Z</time>
      </trkpt>
      <trkpt lat="45.72358" lon="4.59678">
        <ele>828.995789</ele>
        <time>2016-06-05T08:40:33Z</time>
      </trkpt>
      <trkpt lat="45.72355" lon="4.59668">
        <ele>829.135132</ele>
        <time>2016-06-05T08:40:35Z</time>
      </trkpt>
      <trkpt lat="45.72351" lon="4.59657">
        <ele>829.009277</ele>
        <time>2016-06-05T08:40:37Z</time>
      </trkpt>
      <trkpt lat="45.72348" lon="4.59647">
        <ele>828.944153</ele>
        <time>2016-06-05T08:40:39Z</time>
      </trkpt>
      <trkpt lat="45.72344" lon="4.59636">
        <ele>828.895508</ele>
        <time>2016-06-05T08:40:41Z</time>
      </trkpt>
      <trkpt lat="45.72341" lon="4.59626">
        <ele>828.775391</ele>
        <time>2016-06-05T08:40:43Z</time>
      </trkpt>
      <trkpt lat="45.72338" lon="4.59615">
        <ele>828.740112</ele>
        <time>2016-06-05T08:40:45Z</time>
      </trkpt>
      <trkpt lat="45.72335" lon="4.59604">
        <ele>828.567078</ele>
        <time>2016-06-05T08:40:47Z</time>
      </trkpt>
      <trkpt lat="45.72332" lon="4.59592">
        <ele>828.281433</ele>
        <time>2016-06-05T08:40:49Z</time>
      </trkpt>
      <trkpt lat="45.72329" lon="4.5958">
        <ele>828.23877</ele>
        <time>2016-06-05T08:40:51Z</time>
      </trkpt>
      <trkpt lat="45.72326" lon="4.59567">
        <ele>828.211792</ele>
        <time>2016-06-05T08:40:53Z</time>
      </trkpt>
      <trkpt lat="45.72322" lon="4.59555">
        <ele>828.260559</ele>
        <time>2016-06-05T08:40:55Z</time>
      </trkpt>
      <trkpt lat="45.72319" lon="4.59542">
        <ele>828.246948</ele>
        <time>2016-06-05T08:40:57Z</time>
      </trkpt>
      <trkpt lat="45.72316" lon="4.5953">
        <ele>828.092285</ele>
        <time>2016-06-05T08:40:59Z</time>
      </trkpt>
      <trkpt lat="45.72314" lon="4.59517">
        <ele>827.885559</ele>
        <time>2016-06-05T08:41:01Z</time>
      </trkpt>
      <trkpt lat="45.72311" lon="4.59504">
        <ele>828.065308</ele>
        <time>2016-06-05T08:41:03Z</time>
      </trkpt>
      <trkpt lat="45.72308" lon="4.59491">
        <ele>828.015015</ele>
        <time>2016-06-05T08:41:05Z</time>
      </trkpt>
      <trkpt lat="45.72306" lon="4.59479">
        <ele>828.113403</ele>
        <time>2016-06-05T08:41:07Z</time>
      </trkpt>
      <trkpt lat="45.72304" lon="4.59467">
        <ele>828.26709</ele>
        <time>2016-06-05T08:41:09Z</time>
      </trkpt>
      <trkpt lat="45.72301" lon="4.59455">
        <ele>828.316589</ele>
        <time>2016-06-05T08:41:11Z</time>
      </trkpt>
      <trkpt lat="45.723" lon="4.59444">
        <ele>828.533386</ele>
        <time>2016-06-05T08:41:13Z</time>
      </trkpt>
      <trkpt lat="45.72297" lon="4.59433">
        <ele>828.364746</ele>
        <time>2016-06-05T08:41:15Z</time>
      </trkpt>
      <trkpt lat="45.72295" lon="4.59421">
        <ele>828.236633</ele>
        <time>2016-06-05T08:41:17Z</time>
      </trkpt>
      <trkpt lat="45.72292" lon="4.59408">
        <ele>828.407593</ele>
        <time>2016-06-05T08:41:19Z</time>
      </trkpt>
      <trkpt lat="45.7229" lon="4.59396">
        <ele>828.471863</ele>
        <time>2016-06-05T08:41:21Z</time>
      </trkpt>
      <trkpt lat="45.72287" lon="4.59382">
        <ele>828.507813</ele>
        <time>2016-06-05T08:41:23Z</time>
      </trkpt>
      <trkpt lat="45.72285" lon="4.59369">
        <ele>828.383301</ele>
        <time>2016-06-05T08:41:25Z</time>
      </trkpt>
      <trkpt lat="45.72282" lon="4.59356">
        <ele>828.174194</ele>
        <time>2016-06-05T08:41:27Z</time>
      </trkpt>
      <trkpt lat="45.72281" lon="4.59344">
        <ele>828.41925</ele>
        <time>2016-06-05T08:41:29Z</time>
      </trkpt>
      <trkpt lat="45.72279" lon="4.59332">
        <ele>828.57666</ele>
        <time>2016-06-05T08:41:31Z</time>
      </trkpt>
      <trkpt lat="45.72279" lon="4.59321">
        <ele>828.527161</ele>
        <time>2016-06-05T08:41:33Z</time>
      </trkpt>
      <trkpt lat="45.72281" lon="4.59312">
        <ele>828.482239</ele>
        <time>2016-06-05T08:41:35Z</time>
      </trkpt>
      <trkpt lat="45.72282" lon="4.59304">
        <ele>828.431641</ele>
        <time>2016-06-05T08:41:37Z</time>
      </trkpt>
      <trkpt lat="45.72284" lon="4.59298">
        <ele>828.43396</ele>
        <time>2016-06-05T08:41:39Z</time>
      </trkpt>
      <trkpt lat="45.72286" lon="4.59293">
        <ele>828.582214</ele>
        <time>2016-06-05T08:41:41Z</time>
      </trkpt>
      <trkpt lat="45.72287" lon="4.59282">
        <ele>825.668152</ele>
        <time>2016-06-05T08:45:35Z</time>
      </trkpt>
      <trkpt lat="45.72289" lon="4.59274">
        <ele>825.674316</ele>
        <time>2016-06-05T08:45:37Z</time>
      </trkpt>
      <trkpt lat="45.7229" lon="4.59269">
        <ele>825.668762</ele>
        <time>2016-06-05T08:45:39Z</time>
      </trkpt>
      <trkpt lat="45.72292" lon="4.59262">
        <ele>825.72052</ele>
        <time>2016-06-05T08:45:41Z</time>
      </trkpt>
      <trkpt lat="45.72294" lon="4.59255">
        <ele>825.522766</ele>
        <time>2016-06-05T08:45:43Z</time>
      </trkpt>
      <trkpt lat="45.72295" lon="4.59246">
        <ele>825.439636</ele>
        <time>2016-06-05T08:45:45Z</time>
      </trkpt>
      <trkpt lat="45.72297" lon="4.59238">
        <ele>825.230652</ele>
        <time>2016-06-05T08:45:47Z</time>
      </trkpt>
      <trkpt lat="45.72297" lon="4.59232">
        <ele>824.959656</ele>
        <time>2016-06-05T08:45:49Z</time>
      </trkpt>
      <trkpt lat="45.72299" lon="4.59227">
        <ele>824.78894</ele>
        <time>2016-06-05T08:45:51Z</time>
      </trkpt>
      <trkpt lat="45.72298" lon="4.59223">
        <ele>824.082886</ele>
        <time>2016-06-05T08:45:59Z</time>
      </trkpt>
      <trkpt lat="45.72299" lon="4.59219">
        <ele>823.837036</ele>
        <time>2016-06-05T08:46:01Z</time>
      </trkpt>
      <trkpt lat="45.72299" lon="4.59213">
        <ele>823.531433</ele>
        <time>2016-06-05T08:46:03Z</time>
      </trkpt>
      <trkpt lat="45.72301" lon="4.59205">
        <ele>823.23938</ele>
        <time>2016-06-05T08:46:05Z</time>
      </trkpt>
      <trkpt lat="45.72302" lon="4.59196">
        <ele>822.884399</ele>
        <time>2016-06-05T08:46:07Z</time>
      </trkpt>
      <trkpt lat="45.72303" lon="4.59186">
        <ele>822.718567</ele>
        <time>2016-06-05T08:46:09Z</time>
      </trkpt>
      <trkpt lat="45.72305" lon="4.59174">
        <ele>822.344849</ele>
        <time>2016-06-05T08:46:11Z</time>
      </trkpt>
      <trkpt lat="45.72306" lon="4.59162">
        <ele>822.15155</ele>
        <time>2016-06-05T08:46:13Z</time>
      </trkpt>
      <trkpt lat="45.72308" lon="4.5915">
        <ele>821.69989</ele>
        <time>2016-06-05T08:46:15Z</time>
      </trkpt>
      <trkpt lat="45.72311" lon="4.59138">
        <ele>821.385437</ele>
        <time>2016-06-05T08:46:17Z</time>
      </trkpt>
      <trkpt lat="45.72314" lon="4.59126">
        <ele>821.220703</ele>
        <time>2016-06-05T08:46:19Z</time>
      </trkpt>
      <trkpt lat="45.72319" lon="4.59114">
        <ele>820.915161</ele>
        <time>2016-06-05T08:46:21Z</time>
      </trkpt>
      <trkpt lat="45.72324" lon="4.59103">
        <ele>820.728638</ele>
        <time>2016-06-05T08:46:23Z</time>
      </trkpt>
      <trkpt lat="45.72331" lon="4.59091">
        <ele>820.567261</ele>
        <time>2016-06-05T08:46:25Z</time>
      </trkpt>
      <trkpt lat="45.72337" lon="4.5908">
        <ele>820.372864</ele>
        <time>2016-06-05T08:46:27Z</time>
      </trkpt>
      <trkpt lat="45.72344" lon="4.5907">
        <ele>820.249329</ele>
        <time>2016-06-05T08:46:29Z</time>
      </trkpt>
      <trkpt lat="45.72352" lon="4.59059">
        <ele>820.130249</ele>
        <time>2016-06-05T08:46:31Z</time>
      </trkpt>
      <trkpt lat="45.72358" lon="4.59049">
        <ele>819.845032</ele>
        <time>2016-06-05T08:46:33Z</time>
      </trkpt>
      <trkpt lat="45.72364" lon="4.59038">
        <ele>819.727539</ele>
        <time>2016-06-05T08:46:35Z</time>
      </trkpt>
      <trkpt lat="45.72371" lon="4.59026">
        <ele>819.584839</ele>
        <time>2016-06-05T08:46:37Z</time>
      </trkpt>
      <trkpt lat="45.72378" lon="4.59014">
        <ele>819.043823</ele>
        <time>2016-06-05T08:46:39Z</time>
      </trkpt>
      <trkpt lat="45.72385" lon="4.59002">
        <ele>818.880798</ele>
        <time>2016-06-05T08:46:41Z</time>
      </trkpt>
      <trkpt lat="45.72392" lon="4.58991">
        <ele>818.6427</ele>
        <time>2016-06-05T08:46:43Z</time>
      </trkpt>
      <trkpt lat="45.72399" lon="4.5898">
        <ele>818.296875</ele>
        <time>2016-06-05T08:46:45Z</time>
      </trkpt>
      <trkpt lat="45.72405" lon="4.58969">
        <ele>818.218262</ele>
        <time>2016-06-05T08:46:47Z</time>
      </trkpt>
      <trkpt lat="45.72412" lon="4.5896">
        <ele>818.191284</ele>
        <time>2016-06-05T08:46:49Z</time>
      </trkpt>
      <trkpt lat="45.72418" lon="4.58951">
        <ele>817.660889</ele>
        <time>2016-06-05T08:46:51Z</time>
      </trkpt>
      <trkpt lat="45.72424" lon="4.58941">
        <ele>817.609985</ele>
        <time>2016-06-05T08:46:53Z</time>
      </trkpt>
      <trkpt lat="45.7243" lon="4.5893">
        <ele>817.601013</ele>
        <time>2016-06-05T08:46:55Z</time>
      </trkpt>
      <trkpt lat="45.72436" lon="4.58918">
        <ele>817.495483</ele>
        <time>2016-06-05T08:46:57Z</time>
      </trkpt>
      <trkpt lat="45.72441" lon="4.58906">
        <ele>817.36438</ele>
        <time>2016-06-05T08:46:59Z</time>
      </trkpt>
      <trkpt lat="45.72445" lon="4.58894">
        <ele>817.184692</ele>
        <time>2016-06-05T08:47:01Z</time>
      </trkpt>
      <trkpt lat="45.7245" lon="4.58884">
        <ele>817.065613</ele>
        <time>2016-06-05T08:47:03Z</time>
      </trkpt>
      <trkpt lat="45.72453" lon="4.58873">
        <ele>817.042786</ele>
        <time>2016-06-05T08:47:05Z</time>
      </trkpt>
      <trkpt lat="45.72456" lon="4.58862">
        <ele>817.048462</ele>
        <time>2016-06-05T08:47:07Z</time>
      </trkpt>
      <trkpt lat="45.72459" lon="4.5885">
        <ele>817.131592</ele>
        <time>2016-06-05T08:47:09Z</time>
      </trkpt>
      <trkpt lat="45.7246" lon="4.58839">
        <ele>817.165222</ele>
        <time>2016-06-05T08:47:11Z</time>
      </trkpt>
      <trkpt lat="45.72462" lon="4.58829">
        <ele>817.073181</ele>
        <time>2016-06-05T08:47:13Z</time>
      </trkpt>
      <trkpt lat="45.72462" lon="4.58822">
        <ele>817.168091</ele>
        <time>2016-06-05T08:47:15Z</time>
      </trkpt>
      <trkpt lat="45.72463" lon="4.58813">
        <ele>817.186829</ele>
        <time>2016-06-05T08:47:17Z</time>
      </trkpt>
      <trkpt lat="45.72463" lon="4.58803">
        <ele>817.174561</ele>
        <time>2016-06-05T08:47:19Z</time>
      </trkpt>
      <trkpt lat="45.72461" lon="4.58792">
        <ele>817.574219</ele>
        <time>2016-06-05T08:47:21Z</time>
      </trkpt>
      <trkpt lat="45.7246" lon="4.58782">
        <ele>817.52478</ele>
        <time>2016-06-05T08:47:23Z</time>
      </trkpt>
      <trkpt lat="45.72458" lon="4.58773">
        <ele>817.74939</ele>
        <time>2016-06-05T08:47:25Z</time>
      </trkpt>
      <trkpt lat="45.72456" lon="4.58763">
        <ele>817.978455</ele>
        <time>2016-06-05T08:47:27Z</time>
      </trkpt>
      <trkpt lat="45.72455" lon="4.58755">
        <ele>818.021118</ele>
        <time>2016-06-05T08:47:29Z</time>
      </trkpt>
      <trkpt lat="45.72453" lon="4.58746">
        <ele>818.127686</ele>
        <time>2016-06-05T08:47:31Z</time>
      </trkpt>
      <trkpt lat="45.7245" lon="4.58737">
        <ele>818.549866</ele>
        <time>2016-06-05T08:47:33Z</time>
      </trkpt>
      <trkpt lat="45.72446" lon="4.58729">
        <ele>818.655457</ele>
        <time>2016-06-05T08:47:35Z</time>
      </trkpt>
      <trkpt lat="45.72444" lon="4.58722">
        <ele>818.61731</ele>
        <time>2016-06-05T08:47:37Z</time>
      </trkpt>
      <trkpt lat="45.72439" lon="4.58712">
        <ele>818.745239</ele>
        <time>2016-06-05T08:47:39Z</time>
      </trkpt>
      <trkpt lat="45.72435" lon="4.58704">
        <ele>818.809692</ele>
        <time>2016-06-05T08:47:41Z</time>
      </trkpt>
      <trkpt lat="45.72432" lon="4.58695">
        <ele>818.731079</ele>
        <time>2016-06-05T08:47:43Z</time>
      </trkpt>
      <trkpt lat="45.72429" lon="4.58686">
        <ele>818.843384</ele>
        <time>2016-06-05T08:47:45Z</time>
      </trkpt>
      <trkpt lat="45.72426" lon="4.58676">
        <ele>818.841125</ele>
        <time>2016-06-05T08:47:47Z</time>
      </trkpt>
      <trkpt lat="45.72422" lon="4.58667">
        <ele>818.789429</ele>
        <time>2016-06-05T08:47:49Z</time>
      </trkpt>
      <trkpt lat="45.72418" lon="4.58658">
        <ele>818.75116</ele>
        <time>2016-06-05T08:47:51Z</time>
      </trkpt>
      <trkpt lat="45.72416" lon="4.58653">
        <ele>818.800659</ele>
        <time>2016-06-05T08:47:53Z</time>
      </trkpt>
      <trkpt lat="45.72413" lon="4.58646">
        <ele>818.838745</ele>
        <time>2016-06-05T08:47:55Z</time>
      </trkpt>
      <trkpt lat="45.72412" lon="4.5864">
        <ele>818.869568</ele>
        <time>2016-06-05T08:47:57Z</time>
      </trkpt>
      <trkpt lat="45.7241" lon="4.58635">
        <ele>819.040283</ele>
        <time>2016-06-05T08:47:59Z</time>
      </trkpt>
      <trkpt lat="45.72408" lon="4.58627">
        <ele>819.027832</ele>
        <time>2016-06-05T08:48:01Z</time>
      </trkpt>
      <trkpt lat="45.72406" lon="4.5862">
        <ele>819.151367</ele>
        <time>2016-06-05T08:48:03Z</time>
      </trkpt>
      <trkpt lat="45.72403" lon="4.58613">
        <ele>819.164856</ele>
        <time>2016-06-05T08:48:05Z</time>
      </trkpt>
      <trkpt lat="45.724" lon="4.58605">
        <ele>818.944458</ele>
        <time>2016-06-05T08:48:07Z</time>
      </trkpt>
      <trkpt lat="45.72398" lon="4.58597">
        <ele>818.91748</ele>
        <time>2016-06-05T08:48:09Z</time>
      </trkpt>
      <trkpt lat="45.72396" lon="4.58591">
        <ele>818.659058</ele>
        <time>2016-06-05T08:48:11Z</time>
      </trkpt>
      <trkpt lat="45.72393" lon="4.58583">
        <ele>818.506348</ele>
        <time>2016-06-05T08:48:13Z</time>
      </trkpt>
      <trkpt lat="45.7239" lon="4.5857">
        <ele>818.670288</ele>
        <time>2016-06-05T08:48:15Z</time>
      </trkpt>
      <trkpt lat="45.72384" lon="4.58543">
        <ele>818.587158</ele>
        <time>2016-06-05T08:48:17Z</time>
      </trkpt>
      <trkpt lat="45.7238" lon="4.58533">
        <ele>818.836548</ele>
        <time>2016-06-05T08:48:19Z</time>
      </trkpt>
      <trkpt lat="45.72379" lon="4.58525">
        <ele>818.897156</ele>
        <time>2016-06-05T08:48:21Z</time>
      </trkpt>
      <trkpt lat="45.72376" lon="4.58514">
        <ele>818.938477</ele>
        <time>2016-06-05T08:48:23Z</time>
      </trkpt>
      <trkpt lat="45.72374" lon="4.585">
        <ele>819.068726</ele>
        <time>2016-06-05T08:48:25Z</time>
      </trkpt>
      <trkpt lat="45.72371" lon="4.58484">
        <ele>819.018372</ele>
        <time>2016-06-05T08:48:27Z</time>
      </trkpt>
      <trkpt lat="45.7237" lon="4.58467">
        <ele>818.974792</ele>
        <time>2016-06-05T08:48:29Z</time>
      </trkpt>
      <trkpt lat="45.72369" lon="4.58451">
        <ele>818.961304</ele>
        <time>2016-06-05T08:48:31Z</time>
      </trkpt>
      <trkpt lat="45.72368" lon="4.58434">
        <ele>819.130005</ele>
        <time>2016-06-05T08:48:33Z</time>
      </trkpt>
      <trkpt lat="45.72366" lon="4.58416">
        <ele>818.867188</ele>
        <time>2016-06-05T08:48:35Z</time>
      </trkpt>
      <trkpt lat="45.72363" lon="4.58397">
        <ele>818.62854</ele>
        <time>2016-06-05T08:48:37Z</time>
      </trkpt>
      <trkpt lat="45.7236" lon="4.58378">
        <ele>818.309692</ele>
        <time>2016-06-05T08:48:39Z</time>
      </trkpt>
      <trkpt lat="45.72357" lon="4.5836">
        <ele>818.051392</ele>
        <time>2016-06-05T08:48:41Z</time>
      </trkpt>
      <trkpt lat="45.72355" lon="4.58343">
        <ele>817.854492</ele>
        <time>2016-06-05T08:48:43Z</time>
      </trkpt>
      <trkpt lat="45.72351" lon="4.58329">
        <ele>817.523682</ele>
        <time>2016-06-05T08:48:45Z</time>
      </trkpt>
      <trkpt lat="45.7235" lon="4.58319">
        <ele>817.476501</ele>
        <time>2016-06-05T08:48:47Z</time>
      </trkpt>
      <trkpt lat="45.72349" lon="4.58309">
        <ele>817.425232</ele>
        <time>2016-06-05T08:48:49Z</time>
      </trkpt>
      <trkpt lat="45.72348" lon="4.58296">
        <ele>817.223206</ele>
        <time>2016-06-05T08:48:51Z</time>
      </trkpt>
      <trkpt lat="45.72346" lon="4.58286">
        <ele>817.379333</ele>
        <time>2016-06-05T08:48:53Z</time>
      </trkpt>
      <trkpt lat="45.72344" lon="4.58277">
        <ele>817.446716</ele>
        <time>2016-06-05T08:48:55Z</time>
      </trkpt>
      <trkpt lat="45.72343" lon="4.5827">
        <ele>817.523071</ele>
        <time>2016-06-05T08:48:57Z</time>
      </trkpt>
      <trkpt lat="45.72342" lon="4.58263">
        <ele>817.379944</ele>
        <time>2016-06-05T08:48:59Z</time>
      </trkpt>
      <trkpt lat="45.7234" lon="4.58256">
        <ele>817.245117</ele>
        <time>2016-06-05T08:49:01Z</time>
      </trkpt>
      <trkpt lat="45.72339" lon="4.58249">
        <ele>817.153687</ele>
        <time>2016-06-05T08:49:03Z</time>
      </trkpt>
      <trkpt lat="45.72337" lon="4.58243">
        <ele>817.12677</ele>
        <time>2016-06-05T08:49:05Z</time>
      </trkpt>
      <trkpt lat="45.72336" lon="4.58236">
        <ele>817.030212</ele>
        <time>2016-06-05T08:49:07Z</time>
      </trkpt>
      <trkpt lat="45.72334" lon="4.58224">
        <ele>817.064087</ele>
        <time>2016-06-05T08:49:11Z</time>
      </trkpt>
      <trkpt lat="45.72334" lon="4.58219">
        <ele>817.136292</ele>
        <time>2016-06-05T08:49:13Z</time>
      </trkpt>
      <trkpt lat="45.72334" lon="4.58212">
        <ele>817.336182</ele>
        <time>2016-06-05T08:49:15Z</time>
      </trkpt>
      <trkpt lat="45.72333" lon="4.58206">
        <ele>817.300171</ele>
        <time>2016-06-05T08:49:17Z</time>
      </trkpt>
      <trkpt lat="45.72332" lon="4.58202">
        <ele>817.46637</ele>
        <time>2016-06-05T08:49:19Z</time>
      </trkpt>
      <trkpt lat="45.72332" lon="4.58197">
        <ele>817.876099</ele>
        <time>2016-06-05T08:49:21Z</time>
      </trkpt>
      <trkpt lat="45.72331" lon="4.5819">
        <ele>818.334167</ele>
        <time>2016-06-05T08:49:23Z</time>
      </trkpt>
      <trkpt lat="45.7233" lon="4.58184">
        <ele>818.83075</ele>
        <time>2016-06-05T08:49:25Z</time>
      </trkpt>
      <trkpt lat="45.7233" lon="4.58179">
        <ele>819.083801</ele>
        <time>2016-06-05T08:49:27Z</time>
      </trkpt>
      <trkpt lat="45.72329" lon="4.58173">
        <ele>819.580872</ele>
        <time>2016-06-05T08:49:29Z</time>
      </trkpt>
      <trkpt lat="45.72329" lon="4.58168">
        <ele>820.011597</ele>
        <time>2016-06-05T08:49:31Z</time>
      </trkpt>
      <trkpt lat="45.72328" lon="4.58164">
        <ele>820.566284</ele>
        <time>2016-06-05T08:49:33Z</time>
      </trkpt>
      <trkpt lat="45.72328" lon="4.58159">
        <ele>821.12561</ele>
        <time>2016-06-05T08:49:35Z</time>
      </trkpt>
      <trkpt lat="45.72327" lon="4.58153">
        <ele>821.557129</ele>
        <time>2016-06-05T08:49:37Z</time>
      </trkpt>
      <trkpt lat="45.72327" lon="4.58148">
        <ele>821.907593</ele>
        <time>2016-06-05T08:49:39Z</time>
      </trkpt>
      <trkpt lat="45.72327" lon="4.58142">
        <ele>822.273804</ele>
        <time>2016-06-05T08:49:41Z</time>
      </trkpt>
      <trkpt lat="45.72327" lon="4.58137">
        <ele>822.473816</ele>
        <time>2016-06-05T08:49:43Z</time>
      </trkpt>
      <trkpt lat="45.72327" lon="4.58133">
        <ele>822.889954</ele>
        <time>2016-06-05T08:49:45Z</time>
      </trkpt>
      <trkpt lat="45.72326" lon="4.58128">
        <ele>823.193665</ele>
        <time>2016-06-05T08:49:47Z</time>
      </trkpt>
      <trkpt lat="45.72326" lon="4.58123">
        <ele>823.750854</ele>
        <time>2016-06-05T08:49:49Z</time>
      </trkpt>
      <trkpt lat="45.72326" lon="4.58119">
        <ele>824.198059</ele>
        <time>2016-06-05T08:49:51Z</time>
      </trkpt>
      <trkpt lat="45.72325" lon="4.58114">
        <ele>824.748352</ele>
        <time>2016-06-05T08:49:53Z</time>
      </trkpt>
      <trkpt lat="45.72325" lon="4.5811">
        <ele>825.175476</ele>
        <time>2016-06-05T08:49:55Z</time>
      </trkpt>
      <trkpt lat="45.72324" lon="4.58107">
        <ele>825.62384</ele>
        <time>2016-06-05T08:49:57Z</time>
      </trkpt>
      <trkpt lat="45.72324" lon="4.58103">
        <ele>826.045776</ele>
        <time>2016-06-05T08:49:59Z</time>
      </trkpt>
      <trkpt lat="45.72324" lon="4.58099">
        <ele>826.447144</ele>
        <time>2016-06-05T08:50:01Z</time>
      </trkpt>
      <trkpt lat="45.72324" lon="4.58095">
        <ele>826.832214</ele>
        <time>2016-06-05T08:50:03Z</time>
      </trkpt>
      <trkpt lat="45.72324" lon="4.58091">
        <ele>827.21582</ele>
        <time>2016-06-05T08:50:05Z</time>
      </trkpt>
      <trkpt lat="45.72323" lon="4.58087">
        <ele>827.806946</ele>
        <time>2016-06-05T08:50:07Z</time>
      </trkpt>
      <trkpt lat="45.72323" lon="4.58084">
        <ele>828.078918</ele>
        <time>2016-06-05T08:50:09Z</time>
      </trkpt>
      <trkpt lat="45.72322" lon="4.5808">
        <ele>828.519653</ele>
        <time>2016-06-05T08:50:11Z</time>
      </trkpt>
      <trkpt lat="45.72321" lon="4.58077">
        <ele>828.967468</ele>
        <time>2016-06-05T08:50:13Z</time>
      </trkpt>
      <trkpt lat="45.72319" lon="4.58074">
        <ele>829.412598</ele>
        <time>2016-06-05T08:50:15Z</time>
      </trkpt>
      <trkpt lat="45.72318" lon="4.58071">
        <ele>829.828613</ele>
        <time>2016-06-05T08:50:17Z</time>
      </trkpt>
      <trkpt lat="45.72318" lon="4.58068">
        <ele>830.273743</ele>
        <time>2016-06-05T08:50:19Z</time>
      </trkpt>
      <trkpt lat="45.72318" lon="4.58065">
        <ele>830.707703</ele>
        <time>2016-06-05T08:50:21Z</time>
      </trkpt>
      <trkpt lat="45.72316" lon="4.58061">
        <ele>831.907104</ele>
        <time>2016-06-05T08:50:27Z</time>
      </trkpt>
      <trkpt lat="45.72315" lon="4.58058">
        <ele>832.096497</ele>
        <time>2016-06-05T08:50:29Z</time>
      </trkpt>
      <trkpt lat="45.72314" lon="4.58056">
        <ele>832.488098</ele>
        <time>2016-06-05T08:50:31Z</time>
      </trkpt>
      <trkpt lat="45.72313" lon="4.58054">
        <ele>832.895142</ele>
        <time>2016-06-05T08:50:33Z</time>
      </trkpt>
      <trkpt lat="45.72311" lon="4.58052">
        <ele>833.30011</ele>
        <time>2016-06-05T08:50:35Z</time>
      </trkpt>
      <trkpt lat="45.7231" lon="4.58051">
        <ele>833.656372</ele>
        <time>2016-06-05T08:50:37Z</time>
      </trkpt>
      <trkpt lat="45.72308" lon="4.58049">
        <ele>834.028503</ele>
        <time>2016-06-05T08:50:39Z</time>
      </trkpt>
      <trkpt lat="45.72307" lon="4.58048">
        <ele>834.380066</ele>
        <time>2016-06-05T08:50:41Z</time>
      </trkpt>
      <trkpt lat="45.72305" lon="4.58047">
        <ele>834.800659</ele>
        <time>2016-06-05T08:50:43Z</time>
      </trkpt>
      <trkpt lat="45.72304" lon="4.58045">
        <ele>835.149414</ele>
        <time>2016-06-05T08:50:45Z</time>
      </trkpt>
      <trkpt lat="45.72303" lon="4.58043">
        <ele>835.315796</ele>
        <time>2016-06-05T08:50:47Z</time>
      </trkpt>
      <trkpt lat="45.72302" lon="4.58041">
        <ele>835.617859</ele>
        <time>2016-06-05T08:50:49Z</time>
      </trkpt>
      <trkpt lat="45.72301" lon="4.5804">
        <ele>835.883301</ele>
        <time>2016-06-05T08:50:51Z</time>
      </trkpt>
      <trkpt lat="45.723" lon="4.58038">
        <ele>836.108276</ele>
        <time>2016-06-05T08:50:53Z</time>
      </trkpt>
      <trkpt lat="45.72299" lon="4.58036">
        <ele>836.403442</ele>
        <time>2016-06-05T08:50:55Z</time>
      </trkpt>
      <trkpt lat="45.72298" lon="4.58034">
        <ele>836.657715</ele>
        <time>2016-06-05T08:50:57Z</time>
      </trkpt>
      <trkpt lat="45.72298" lon="4.58032">
        <ele>836.888</ele>
        <time>2016-06-05T08:50:59Z</time>
      </trkpt>
      <trkpt lat="45.72297" lon="4.5803">
        <ele>837.139954</ele>
        <time>2016-06-05T08:51:01Z</time>
      </trkpt>
      <trkpt lat="45.72295" lon="4.58028">
        <ele>837.416687</ele>
        <time>2016-06-05T08:51:03Z</time>
      </trkpt>
      <trkpt lat="45.72293" lon="4.58025">
        <ele>838.085449</ele>
        <time>2016-06-05T08:51:09Z</time>
      </trkpt>
      <trkpt lat="45.72292" lon="4.58022">
        <ele>838.210938</ele>
        <time>2016-06-05T08:51:11Z</time>
      </trkpt>
      <trkpt lat="45.72291" lon="4.58019">
        <ele>838.413757</ele>
        <time>2016-06-05T08:51:13Z</time>
      </trkpt>
      <trkpt lat="45.7229" lon="4.58016">
        <ele>838.674805</ele>
        <time>2016-06-05T08:51:15Z</time>
      </trkpt>
      <trkpt lat="45.7229" lon="4.58013">
        <ele>838.980774</ele>
        <time>2016-06-05T08:51:17Z</time>
      </trkpt>
      <trkpt lat="45.7229" lon="4.5801">
        <ele>839.233276</ele>
        <time>2016-06-05T08:51:19Z</time>
      </trkpt>
      <trkpt lat="45.72289" lon="4.58006">
        <ele>839.429077</ele>
        <time>2016-06-05T08:51:21Z</time>
      </trkpt>
      <trkpt lat="45.72287" lon="4.58003">
        <ele>839.645325</ele>
        <time>2016-06-05T08:51:23Z</time>
      </trkpt>
      <trkpt lat="45.72286" lon="4.57999">
        <ele>839.796082</ele>
        <time>2016-06-05T08:51:25Z</time>
      </trkpt>
      <trkpt lat="45.72284" lon="4.57994">
        <ele>840.072937</ele>
        <time>2016-06-05T08:51:27Z</time>
      </trkpt>
      <trkpt lat="45.72282" lon="4.5799">
        <ele>840.34082</ele>
        <time>2016-06-05T08:51:29Z</time>
      </trkpt>
      <trkpt lat="45.72281" lon="4.57986">
        <ele>840.469055</ele>
        <time>2016-06-05T08:51:31Z</time>
      </trkpt>
      <trkpt lat="45.72279" lon="4.57982">
        <ele>840.674438</ele>
        <time>2016-06-05T08:51:33Z</time>
      </trkpt>
      <trkpt lat="45.72278" lon="4.57978">
        <ele>840.991821</ele>
        <time>2016-06-05T08:51:35Z</time>
      </trkpt>
      <trkpt lat="45.72276" lon="4.57973">
        <ele>841.257019</ele>
        <time>2016-06-05T08:51:37Z</time>
      </trkpt>
      <trkpt lat="45.72275" lon="4.57969">
        <ele>841.468628</ele>
        <time>2016-06-05T08:51:39Z</time>
      </trkpt>
      <trkpt lat="45.72274" lon="4.57964">
        <ele>841.72168</ele>
        <time>2016-06-05T08:51:41Z</time>
      </trkpt>
      <trkpt lat="45.72273" lon="4.5796">
        <ele>842.016479</ele>
        <time>2016-06-05T08:51:43Z</time>
      </trkpt>
      <trkpt lat="45.72271" lon="4.57956">
        <ele>842.31366</ele>
        <time>2016-06-05T08:51:45Z</time>
      </trkpt>
      <trkpt lat="45.72269" lon="4.57952">
        <ele>842.682434</ele>
        <time>2016-06-05T08:51:47Z</time>
      </trkpt>
      <trkpt lat="45.72268" lon="4.57948">
        <ele>843.065125</ele>
        <time>2016-06-05T08:51:49Z</time>
      </trkpt>
      <trkpt lat="45.72265" lon="4.57944">
        <ele>843.40509</ele>
        <time>2016-06-05T08:51:51Z</time>
      </trkpt>
      <trkpt lat="45.72263" lon="4.5794">
        <ele>843.679321</ele>
        <time>2016-06-05T08:51:53Z</time>
      </trkpt>
      <trkpt lat="45.72261" lon="4.57935">
        <ele>843.895386</ele>
        <time>2016-06-05T08:51:55Z</time>
      </trkpt>
      <trkpt lat="45.72258" lon="4.57931">
        <ele>844.282837</ele>
        <time>2016-06-05T08:51:57Z</time>
      </trkpt>
      <trkpt lat="45.72255" lon="4.57926">
        <ele>844.555298</ele>
        <time>2016-06-05T08:51:59Z</time>
      </trkpt>
      <trkpt lat="45.72253" lon="4.57921">
        <ele>844.917786</ele>
        <time>2016-06-05T08:52:01Z</time>
      </trkpt>
      <trkpt lat="45.72251" lon="4.57915">
        <ele>845.352356</ele>
        <time>2016-06-05T08:52:03Z</time>
      </trkpt>
      <trkpt lat="45.72249" lon="4.5791">
        <ele>845.729614</ele>
        <time>2016-06-05T08:52:05Z</time>
      </trkpt>
      <trkpt lat="45.72245" lon="4.57905">
        <ele>846.173218</ele>
        <time>2016-06-05T08:52:07Z</time>
      </trkpt>
      <trkpt lat="45.72241" lon="4.57899">
        <ele>846.324097</ele>
        <time>2016-06-05T08:52:09Z</time>
      </trkpt>
      <trkpt lat="45.72236" lon="4.57893">
        <ele>846.562378</ele>
        <time>2016-06-05T08:52:11Z</time>
      </trkpt>
      <trkpt lat="45.72229" lon="4.57886">
        <ele>846.845703</ele>
        <time>2016-06-05T08:52:13Z</time>
      </trkpt>
      <trkpt lat="45.72222" lon="4.57877">
        <ele>847.061829</ele>
        <time>2016-06-05T08:52:15Z</time>
      </trkpt>
      <trkpt lat="45.72213" lon="4.57867">
        <ele>847.144165</ele>
        <time>2016-06-05T08:52:17Z</time>
      </trkpt>
      <trkpt lat="45.72207" lon="4.57856">
        <ele>847.204895</ele>
        <time>2016-06-05T08:52:19Z</time>
      </trkpt>
      <trkpt lat="45.72199" lon="4.57847">
        <ele>847.276733</ele>
        <time>2016-06-05T08:52:21Z</time>
      </trkpt>
      <trkpt lat="45.72192" lon="4.57837">
        <ele>847.041138</ele>
        <time>2016-06-05T08:52:23Z</time>
      </trkpt>
      <trkpt lat="45.72187" lon="4.57828">
        <ele>846.839844</ele>
        <time>2016-06-05T08:52:25Z</time>
      </trkpt>
      <trkpt lat="45.72183" lon="4.57816">
        <ele>846.470825</ele>
        <time>2016-06-05T08:52:27Z</time>
      </trkpt>
      <trkpt lat="45.72178" lon="4.57805">
        <ele>846.033997</ele>
        <time>2016-06-05T08:52:29Z</time>
      </trkpt>
      <trkpt lat="45.72173" lon="4.57795">
        <ele>845.78186</ele>
        <time>2016-06-05T08:52:31Z</time>
      </trkpt>
      <trkpt lat="45.72168" lon="4.57784">
        <ele>845.367676</ele>
        <time>2016-06-05T08:52:33Z</time>
      </trkpt>
      <trkpt lat="45.72165" lon="4.57773">
        <ele>844.805054</ele>
        <time>2016-06-05T08:52:35Z</time>
      </trkpt>
      <trkpt lat="45.72161" lon="4.57762">
        <ele>843.850891</ele>
        <time>2016-06-05T08:52:37Z</time>
      </trkpt>
      <trkpt lat="45.72157" lon="4.57749">
        <ele>842.901245</ele>
        <time>2016-06-05T08:52:39Z</time>
      </trkpt>
      <trkpt lat="45.72152" lon="4.57734">
        <ele>842.010071</ele>
        <time>2016-06-05T08:52:41Z</time>
      </trkpt>
      <trkpt lat="45.72147" lon="4.57714">
        <ele>841.125488</ele>
        <time>2016-06-05T08:52:43Z</time>
      </trkpt>
      <trkpt lat="45.72139" lon="4.57693">
        <ele>840.171265</ele>
        <time>2016-06-05T08:52:45Z</time>
      </trkpt>
      <trkpt lat="45.72133" lon="4.57671">
        <ele>839.733215</ele>
        <time>2016-06-05T08:52:47Z</time>
      </trkpt>
      <trkpt lat="45.72127" lon="4.57648">
        <ele>838.70575</ele>
        <time>2016-06-05T08:52:49Z</time>
      </trkpt>
      <trkpt lat="45.72123" lon="4.57622">
        <ele>837.414734</ele>
        <time>2016-06-05T08:52:51Z</time>
      </trkpt>
      <trkpt lat="45.72118" lon="4.57595">
        <ele>836.408691</ele>
        <time>2016-06-05T08:52:53Z</time>
      </trkpt>
      <trkpt lat="45.72112" lon="4.57568">
        <ele>835.23645</ele>
        <time>2016-06-05T08:52:55Z</time>
      </trkpt>
      <trkpt lat="45.72105" lon="4.57542">
        <ele>834.012573</ele>
        <time>2016-06-05T08:52:57Z</time>
      </trkpt>
      <trkpt lat="45.72097" lon="4.57516">
        <ele>832.983215</ele>
        <time>2016-06-05T08:52:59Z</time>
      </trkpt>
      <trkpt lat="45.7209" lon="4.5749">
        <ele>831.418274</ele>
        <time>2016-06-05T08:53:01Z</time>
      </trkpt>
      <trkpt lat="45.72081" lon="4.57465">
        <ele>830.768372</ele>
        <time>2016-06-05T08:53:03Z</time>
      </trkpt>
      <trkpt lat="45.7207" lon="4.57442">
        <ele>829.105469</ele>
        <time>2016-06-05T08:53:05Z</time>
      </trkpt>
      <trkpt lat="45.72062" lon="4.57423">
        <ele>828.287292</ele>
        <time>2016-06-05T08:53:07Z</time>
      </trkpt>
      <trkpt lat="45.72055" lon="4.57408">
        <ele>827.108398</ele>
        <time>2016-06-05T08:53:09Z</time>
      </trkpt>
      <trkpt lat="45.72051" lon="4.57396">
        <ele>826.508179</ele>
        <time>2016-06-05T08:53:11Z</time>
      </trkpt>
      <trkpt lat="45.72046" lon="4.57382">
        <ele>825.258301</ele>
        <time>2016-06-05T08:53:13Z</time>
      </trkpt>
      <trkpt lat="45.72042" lon="4.57364">
        <ele>824.446594</ele>
        <time>2016-06-05T08:53:15Z</time>
      </trkpt>
      <trkpt lat="45.72042" lon="4.57344">
        <ele>823.507324</ele>
        <time>2016-06-05T08:53:17Z</time>
      </trkpt>
      <trkpt lat="45.72046" lon="4.57322">
        <ele>822.614136</ele>
        <time>2016-06-05T08:53:19Z</time>
      </trkpt>
      <trkpt lat="45.72053" lon="4.57299">
        <ele>821.482117</ele>
        <time>2016-06-05T08:53:21Z</time>
      </trkpt>
      <trkpt lat="45.7206" lon="4.57274">
        <ele>820.114746</ele>
        <time>2016-06-05T08:53:23Z</time>
      </trkpt>
      <trkpt lat="45.72067" lon="4.57247">
        <ele>818.695435</ele>
        <time>2016-06-05T08:53:25Z</time>
      </trkpt>
      <trkpt lat="45.72071" lon="4.57219">
        <ele>817.578064</ele>
        <time>2016-06-05T08:53:27Z</time>
      </trkpt>
      <trkpt lat="45.72075" lon="4.5719">
        <ele>815.976013</ele>
        <time>2016-06-05T08:53:29Z</time>
      </trkpt>
      <trkpt lat="45.72078" lon="4.5716">
        <ele>815.125244</ele>
        <time>2016-06-05T08:53:31Z</time>
      </trkpt>
      <trkpt lat="45.7208" lon="4.57132">
        <ele>814.416077</ele>
        <time>2016-06-05T08:53:33Z</time>
      </trkpt>
      <trkpt lat="45.72082" lon="4.57106">
        <ele>813.260193</ele>
        <time>2016-06-05T08:53:35Z</time>
      </trkpt>
      <trkpt lat="45.72085" lon="4.57081">
        <ele>812.050354</ele>
        <time>2016-06-05T08:53:37Z</time>
      </trkpt>
      <trkpt lat="45.72087" lon="4.57058">
        <ele>810.907837</ele>
        <time>2016-06-05T08:53:39Z</time>
      </trkpt>
      <trkpt lat="45.72087" lon="4.57036">
        <ele>809.536438</ele>
        <time>2016-06-05T08:53:41Z</time>
      </trkpt>
      <trkpt lat="45.72085" lon="4.57015">
        <ele>808.888794</ele>
        <time>2016-06-05T08:53:43Z</time>
      </trkpt>
      <trkpt lat="45.72084" lon="4.56995">
        <ele>807.867432</ele>
        <time>2016-06-05T08:53:45Z</time>
      </trkpt>
      <trkpt lat="45.72083" lon="4.56976">
        <ele>807.411926</ele>
        <time>2016-06-05T08:53:47Z</time>
      </trkpt>
      <trkpt lat="45.72084" lon="4.56959">
        <ele>806.761047</ele>
        <time>2016-06-05T08:53:49Z</time>
      </trkpt>
      <trkpt lat="45.72085" lon="4.56943">
        <ele>806.102051</ele>
        <time>2016-06-05T08:53:51Z</time>
      </trkpt>
      <trkpt lat="45.72086" lon="4.56927">
        <ele>805.372681</ele>
        <time>2016-06-05T08:53:53Z</time>
      </trkpt>
      <trkpt lat="45.72086" lon="4.56912">
        <ele>805.184204</ele>
        <time>2016-06-05T08:53:55Z</time>
      </trkpt>
      <trkpt lat="45.72088" lon="4.56898">
        <ele>804.503967</ele>
        <time>2016-06-05T08:53:57Z</time>
      </trkpt>
      <trkpt lat="45.72089" lon="4.56884">
        <ele>804.075134</ele>
        <time>2016-06-05T08:53:59Z</time>
      </trkpt>
      <trkpt lat="45.72089" lon="4.56871">
        <ele>803.795837</ele>
        <time>2016-06-05T08:54:01Z</time>
      </trkpt>
      <trkpt lat="45.72089" lon="4.56858">
        <ele>803.766663</ele>
        <time>2016-06-05T08:54:03Z</time>
      </trkpt>
      <trkpt lat="45.72088" lon="4.56845">
        <ele>803.990845</ele>
        <time>2016-06-05T08:54:05Z</time>
      </trkpt>
      <trkpt lat="45.72087" lon="4.56832">
        <ele>804.083862</ele>
        <time>2016-06-05T08:54:07Z</time>
      </trkpt>
      <trkpt lat="45.72085" lon="4.56821">
        <ele>804.00415</ele>
        <time>2016-06-05T08:54:09Z</time>
      </trkpt>
      <trkpt lat="45.72081" lon="4.56813">
        <ele>804.282166</ele>
        <time>2016-06-05T08:54:11Z</time>
      </trkpt>
      <trkpt lat="45.72075" lon="4.56812">
        <ele>804.41449</ele>
        <time>2016-06-05T08:54:13Z</time>
      </trkpt>
      <trkpt lat="45.72068" lon="4.5681">
        <ele>804.856323</ele>
        <time>2016-06-05T08:54:15Z</time>
      </trkpt>
      <trkpt lat="45.72063" lon="4.56804">
        <ele>805.019897</ele>
        <time>2016-06-05T08:54:17Z</time>
      </trkpt>
      <trkpt lat="45.7206" lon="4.56796">
        <ele>805.437073</ele>
        <time>2016-06-05T08:54:19Z</time>
      </trkpt>
      <trkpt lat="45.72057" lon="4.56789">
        <ele>805.856506</ele>
        <time>2016-06-05T08:54:21Z</time>
      </trkpt>
      <trkpt lat="45.72053" lon="4.56786">
        <ele>806.259216</ele>
        <time>2016-06-05T08:54:23Z</time>
      </trkpt>
      <trkpt lat="45.72051" lon="4.56782">
        <ele>806.375916</ele>
        <time>2016-06-05T08:54:25Z</time>
      </trkpt>
      <trkpt lat="45.72047" lon="4.56777">
        <ele>807.008362</ele>
        <time>2016-06-05T08:54:27Z</time>
      </trkpt>
      <trkpt lat="45.72043" lon="4.56772">
        <ele>807.214722</ele>
        <time>2016-06-05T08:54:29Z</time>
      </trkpt>
      <trkpt lat="45.72039" lon="4.56768">
        <ele>807.468201</ele>
        <time>2016-06-05T08:54:31Z</time>
      </trkpt>
      <trkpt lat="45.72036" lon="4.56764">
        <ele>807.61853</ele>
        <time>2016-06-05T08:54:33Z</time>
      </trkpt>
      <trkpt lat="45.72033" lon="4.56762">
        <ele>808.02356</ele>
        <time>2016-06-05T08:54:35Z</time>
      </trkpt>
      <trkpt lat="45.72031" lon="4.56761">
        <ele>808.180298</ele>
        <time>2016-06-05T08:54:37Z</time>
      </trkpt>
      <trkpt lat="45.72027" lon="4.56761">
        <ele>808.368774</ele>
        <time>2016-06-05T08:54:39Z</time>
      </trkpt>
      <trkpt lat="45.72023" lon="4.56762">
        <ele>808.640259</ele>
        <time>2016-06-05T08:54:41Z</time>
      </trkpt>
      <trkpt lat="45.72018" lon="4.56764">
        <ele>808.925415</ele>
        <time>2016-06-05T08:54:43Z</time>
      </trkpt>
      <trkpt lat="45.72014" lon="4.56765">
        <ele>809.021912</ele>
        <time>2016-06-05T08:54:45Z</time>
      </trkpt>
      <trkpt lat="45.72009" lon="4.56765">
        <ele>809.430298</ele>
        <time>2016-06-05T08:54:47Z</time>
      </trkpt>
      <trkpt lat="45.72005" lon="4.56765">
        <ele>809.494385</ele>
        <time>2016-06-05T08:54:49Z</time>
      </trkpt>
      <trkpt lat="45.72001" lon="4.56765">
        <ele>809.884888</ele>
        <time>2016-06-05T08:54:51Z</time>
      </trkpt>
      <trkpt lat="45.71996" lon="4.56765">
        <ele>810.227417</ele>
        <time>2016-06-05T08:54:53Z</time>
      </trkpt>
      <trkpt lat="45.71992" lon="4.56766">
        <ele>810.626892</ele>
        <time>2016-06-05T08:54:55Z</time>
      </trkpt>
      <trkpt lat="45.71989" lon="4.56766">
        <ele>810.936584</ele>
        <time>2016-06-05T08:54:57Z</time>
      </trkpt>
      <trkpt lat="45.71985" lon="4.56766">
        <ele>811.244385</ele>
        <time>2016-06-05T08:54:59Z</time>
      </trkpt>
      <trkpt lat="45.71981" lon="4.56767">
        <ele>811.475525</ele>
        <time>2016-06-05T08:55:01Z</time>
      </trkpt>
      <trkpt lat="45.71977" lon="4.56767">
        <ele>811.84137</ele>
        <time>2016-06-05T08:55:03Z</time>
      </trkpt>
      <trkpt lat="45.71973" lon="4.56768">
        <ele>812.211487</ele>
        <time>2016-06-05T08:55:05Z</time>
      </trkpt>
      <trkpt lat="45.71969" lon="4.56768">
        <ele>812.631714</ele>
        <time>2016-06-05T08:55:07Z</time>
      </trkpt>
      <trkpt lat="45.71965" lon="4.56769">
        <ele>812.573181</ele>
        <time>2016-06-05T08:55:09Z</time>
      </trkpt>
      <trkpt lat="45.71961" lon="4.56769">
        <ele>812.898682</ele>
        <time>2016-06-05T08:55:11Z</time>
      </trkpt>
      <trkpt lat="45.71957" lon="4.56769">
        <ele>813.073792</ele>
        <time>2016-06-05T08:55:13Z</time>
      </trkpt>
      <trkpt lat="45.71953" lon="4.56768">
        <ele>813.484497</ele>
        <time>2016-06-05T08:55:15Z</time>
      </trkpt>
      <trkpt lat="45.71949" lon="4.56768">
        <ele>813.694214</ele>
        <time>2016-06-05T08:55:17Z</time>
      </trkpt>
      <trkpt lat="45.71945" lon="4.56769">
        <ele>814.037415</ele>
        <time>2016-06-05T08:55:19Z</time>
      </trkpt>
      <trkpt lat="45.71942" lon="4.5677">
        <ele>814.327209</ele>
        <time>2016-06-05T08:55:21Z</time>
      </trkpt>
      <trkpt lat="45.71938" lon="4.56772">
        <ele>814.717896</ele>
        <time>2016-06-05T08:55:23Z</time>
      </trkpt>
      <trkpt lat="45.71934" lon="4.56773">
        <ele>814.798523</ele>
        <time>2016-06-05T08:55:25Z</time>
      </trkpt>
      <trkpt lat="45.7193" lon="4.56773">
        <ele>815.213867</ele>
        <time>2016-06-05T08:55:27Z</time>
      </trkpt>
      <trkpt lat="45.71927" lon="4.56771">
        <ele>815.402466</ele>
        <time>2016-06-05T08:55:29Z</time>
      </trkpt>
      <trkpt lat="45.71923" lon="4.56768">
        <ele>815.797485</ele>
        <time>2016-06-05T08:55:31Z</time>
      </trkpt>
      <trkpt lat="45.71919" lon="4.56764">
        <ele>815.982544</ele>
        <time>2016-06-05T08:55:33Z</time>
      </trkpt>
      <trkpt lat="45.71915" lon="4.56761">
        <ele>816.164429</ele>
        <time>2016-06-05T08:55:35Z</time>
      </trkpt>
      <trkpt lat="45.71912" lon="4.56757">
        <ele>816.308105</ele>
        <time>2016-06-05T08:55:37Z</time>
      </trkpt>
      <trkpt lat="45.71908" lon="4.56754">
        <ele>816.647156</ele>
        <time>2016-06-05T08:55:39Z</time>
      </trkpt>
      <trkpt lat="45.71905" lon="4.5675">
        <ele>816.732544</ele>
        <time>2016-06-05T08:55:41Z</time>
      </trkpt>
      <trkpt lat="45.71903" lon="4.56747">
        <ele>816.973511</ele>
        <time>2016-06-05T08:55:43Z</time>
      </trkpt>
      <trkpt lat="45.71901" lon="4.56744">
        <ele>817.137512</ele>
        <time>2016-06-05T08:55:45Z</time>
      </trkpt>
      <trkpt lat="45.71899" lon="4.56741">
        <ele>817.422974</ele>
        <time>2016-06-05T08:55:49Z</time>
      </trkpt>
      <trkpt lat="45.71898" lon="4.56739">
        <ele>817.680786</ele>
        <time>2016-06-05T08:55:51Z</time>
      </trkpt>
      <trkpt lat="45.71895" lon="4.56736">
        <ele>817.826721</ele>
        <time>2016-06-05T08:55:53Z</time>
      </trkpt>
      <trkpt lat="45.71893" lon="4.56735">
        <ele>818.119934</ele>
        <time>2016-06-05T08:55:55Z</time>
      </trkpt>
      <trkpt lat="45.71892" lon="4.56733">
        <ele>818.405151</ele>
        <time>2016-06-05T08:55:57Z</time>
      </trkpt>
      <trkpt lat="45.71891" lon="4.56731">
        <ele>818.740417</ele>
        <time>2016-06-05T08:55:59Z</time>
      </trkpt>
      <trkpt lat="45.71889" lon="4.5673">
        <ele>818.975464</ele>
        <time>2016-06-05T08:56:01Z</time>
      </trkpt>
      <trkpt lat="45.71888" lon="4.56728">
        <ele>819.14624</ele>
        <time>2016-06-05T08:56:03Z</time>
      </trkpt>
      <trkpt lat="45.71886" lon="4.56726">
        <ele>819.307922</ele>
        <time>2016-06-05T08:56:05Z</time>
      </trkpt>
      <trkpt lat="45.71882" lon="4.56723">
        <ele>819.960938</ele>
        <time>2016-06-05T08:56:09Z</time>
      </trkpt>
      <trkpt lat="45.7188" lon="4.56722">
        <ele>820.258667</ele>
        <time>2016-06-05T08:56:11Z</time>
      </trkpt>
      <trkpt lat="45.71878" lon="4.56721">
        <ele>820.521606</ele>
        <time>2016-06-05T08:56:13Z</time>
      </trkpt>
      <trkpt lat="45.71877" lon="4.5672">
        <ele>820.79364</ele>
        <time>2016-06-05T08:56:15Z</time>
      </trkpt>
      <trkpt lat="45.71875" lon="4.56719">
        <ele>821.10614</ele>
        <time>2016-06-05T08:56:17Z</time>
      </trkpt>
      <trkpt lat="45.71874" lon="4.56718">
        <ele>821.42511</ele>
        <time>2016-06-05T08:56:19Z</time>
      </trkpt>
      <trkpt lat="45.71872" lon="4.56718">
        <ele>821.786926</ele>
        <time>2016-06-05T08:56:21Z</time>
      </trkpt>
      <trkpt lat="45.71871" lon="4.56717">
        <ele>822.159851</ele>
        <time>2016-06-05T08:56:23Z</time>
      </trkpt>
      <trkpt lat="45.7187" lon="4.56716">
        <ele>822.523071</ele>
        <time>2016-06-05T08:56:25Z</time>
      </trkpt>
      <trkpt lat="45.71868" lon="4.56715">
        <ele>822.866821</ele>
        <time>2016-06-05T08:56:27Z</time>
      </trkpt>
      <trkpt lat="45.71867" lon="4.56713">
        <ele>823.340942</ele>
        <time>2016-06-05T08:56:29Z</time>
      </trkpt>
      <trkpt lat="45.71864" lon="4.56711">
        <ele>823.513855</ele>
        <time>2016-06-05T08:56:31Z</time>
      </trkpt>
      <trkpt lat="45.71863" lon="4.5671">
        <ele>823.878906</ele>
        <time>2016-06-05T08:56:33Z</time>
      </trkpt>
      <trkpt lat="45.71861" lon="4.5671">
        <ele>824.285522</ele>
        <time>2016-06-05T08:56:35Z</time>
      </trkpt>
      <trkpt lat="45.71859" lon="4.56708">
        <ele>824.749512</ele>
        <time>2016-06-05T08:56:37Z</time>
      </trkpt>
      <trkpt lat="45.71856" lon="4.56706">
        <ele>825.255188</ele>
        <time>2016-06-05T08:56:41Z</time>
      </trkpt>
      <trkpt lat="45.71854" lon="4.56705">
        <ele>825.538879</ele>
        <time>2016-06-05T08:56:43Z</time>
      </trkpt>
      <trkpt lat="45.71853" lon="4.56704">
        <ele>826.064941</ele>
        <time>2016-06-05T08:56:45Z</time>
      </trkpt>
      <trkpt lat="45.7185" lon="4.56703">
        <ele>826.321655</ele>
        <time>2016-06-05T08:56:47Z</time>
      </trkpt>
      <trkpt lat="45.71848" lon="4.56701">
        <ele>826.503784</ele>
        <time>2016-06-05T08:56:49Z</time>
      </trkpt>
      <trkpt lat="45.71845" lon="4.56699">
        <ele>826.898071</ele>
        <time>2016-06-05T08:56:51Z</time>
      </trkpt>
      <trkpt lat="45.71843" lon="4.56698">
        <ele>827.259949</ele>
        <time>2016-06-05T08:56:53Z</time>
      </trkpt>
      <trkpt lat="45.7184" lon="4.56696">
        <ele>827.563354</ele>
        <time>2016-06-05T08:56:55Z</time>
      </trkpt>
      <trkpt lat="45.71838" lon="4.56695">
        <ele>827.891418</ele>
        <time>2016-06-05T08:56:57Z</time>
      </trkpt>
      <trkpt lat="45.71835" lon="4.56693">
        <ele>828.068726</ele>
        <time>2016-06-05T08:56:59Z</time>
      </trkpt>
      <trkpt lat="45.71832" lon="4.5669">
        <ele>829.138672</ele>
        <time>2016-06-05T08:57:07Z</time>
      </trkpt>
      <trkpt lat="45.71829" lon="4.56689">
        <ele>829.440918</ele>
        <time>2016-06-05T08:57:09Z</time>
      </trkpt>
      <trkpt lat="45.71824" lon="4.56687">
        <ele>829.578003</ele>
        <time>2016-06-05T08:57:11Z</time>
      </trkpt>
      <trkpt lat="45.71821" lon="4.56686">
        <ele>829.977722</ele>
        <time>2016-06-05T08:57:13Z</time>
      </trkpt>
      <trkpt lat="45.71817" lon="4.56686">
        <ele>830.28125</ele>
        <time>2016-06-05T08:57:15Z</time>
      </trkpt>
      <trkpt lat="45.71814" lon="4.56686">
        <ele>830.470093</ele>
        <time>2016-06-05T08:57:17Z</time>
      </trkpt>
      <trkpt lat="45.71811" lon="4.56685">
        <ele>830.780457</ele>
        <time>2016-06-05T08:57:19Z</time>
      </trkpt>
      <trkpt lat="45.71808" lon="4.56685">
        <ele>831.009888</ele>
        <time>2016-06-05T08:57:21Z</time>
      </trkpt>
      <trkpt lat="45.71804" lon="4.56686">
        <ele>831.241516</ele>
        <time>2016-06-05T08:57:23Z</time>
      </trkpt>
      <trkpt lat="45.71801" lon="4.56686">
        <ele>831.459656</ele>
        <time>2016-06-05T08:57:25Z</time>
      </trkpt>
      <trkpt lat="45.71798" lon="4.56685">
        <ele>831.581055</ele>
        <time>2016-06-05T08:57:27Z</time>
      </trkpt>
      <trkpt lat="45.71795" lon="4.56685">
        <ele>831.913086</ele>
        <time>2016-06-05T08:57:29Z</time>
      </trkpt>
      <trkpt lat="45.71791" lon="4.56684">
        <ele>832.302124</ele>
        <time>2016-06-05T08:57:31Z</time>
      </trkpt>
      <trkpt lat="45.71788" lon="4.56683">
        <ele>832.56073</ele>
        <time>2016-06-05T08:57:33Z</time>
      </trkpt>
      <trkpt lat="45.71784" lon="4.56681">
        <ele>832.772156</ele>
        <time>2016-06-05T08:57:35Z</time>
      </trkpt>
      <trkpt lat="45.71781" lon="4.5668">
        <ele>832.963379</ele>
        <time>2016-06-05T08:57:37Z</time>
      </trkpt>
      <trkpt lat="45.71777" lon="4.5668">
        <ele>833.20166</ele>
        <time>2016-06-05T08:57:39Z</time>
      </trkpt>
      <trkpt lat="45.71774" lon="4.56679">
        <ele>833.478394</ele>
        <time>2016-06-05T08:57:41Z</time>
      </trkpt>
      <trkpt lat="45.71771" lon="4.56679">
        <ele>833.775269</ele>
        <time>2016-06-05T08:57:43Z</time>
      </trkpt>
      <trkpt lat="45.71767" lon="4.56678">
        <ele>834.045288</ele>
        <time>2016-06-05T08:57:45Z</time>
      </trkpt>
      <trkpt lat="45.71764" lon="4.56678">
        <ele>834.299622</ele>
        <time>2016-06-05T08:57:47Z</time>
      </trkpt>
      <trkpt lat="45.7176" lon="4.56678">
        <ele>834.717102</ele>
        <time>2016-06-05T08:57:49Z</time>
      </trkpt>
      <trkpt lat="45.71756" lon="4.56679">
        <ele>834.879883</ele>
        <time>2016-06-05T08:57:51Z</time>
      </trkpt>
      <trkpt lat="45.71753" lon="4.56679">
        <ele>835.078125</ele>
        <time>2016-06-05T08:57:53Z</time>
      </trkpt>
      <trkpt lat="45.71749" lon="4.5668">
        <ele>835.294617</ele>
        <time>2016-06-05T08:57:55Z</time>
      </trkpt>
      <trkpt lat="45.71745" lon="4.5668">
        <ele>835.665833</ele>
        <time>2016-06-05T08:57:57Z</time>
      </trkpt>
      <trkpt lat="45.71742" lon="4.56681">
        <ele>835.917786</ele>
        <time>2016-06-05T08:57:59Z</time>
      </trkpt>
      <trkpt lat="45.71738" lon="4.56682">
        <ele>836.070801</ele>
        <time>2016-06-05T08:58:01Z</time>
      </trkpt>
      <trkpt lat="45.71735" lon="4.56683">
        <ele>836.365356</ele>
        <time>2016-06-05T08:58:03Z</time>
      </trkpt>
      <trkpt lat="45.71731" lon="4.56684">
        <ele>836.659973</ele>
        <time>2016-06-05T08:58:05Z</time>
      </trkpt>
      <trkpt lat="45.71727" lon="4.56684">
        <ele>836.943481</ele>
        <time>2016-06-05T08:58:07Z</time>
      </trkpt>
      <trkpt lat="45.71723" lon="4.56685">
        <ele>837.256165</ele>
        <time>2016-06-05T08:58:09Z</time>
      </trkpt>
      <trkpt lat="45.71719" lon="4.56686">
        <ele>837.484253</ele>
        <time>2016-06-05T08:58:11Z</time>
      </trkpt>
      <trkpt lat="45.71714" lon="4.56688">
        <ele>837.712769</ele>
        <time>2016-06-05T08:58:13Z</time>
      </trkpt>
      <trkpt lat="45.71709" lon="4.56692">
        <ele>837.906372</ele>
        <time>2016-06-05T08:58:15Z</time>
      </trkpt>
      <trkpt lat="45.71705" lon="4.56695">
        <ele>838.269348</ele>
        <time>2016-06-05T08:58:17Z</time>
      </trkpt>
      <trkpt lat="45.71698" lon="4.56699">
        <ele>838.710632</ele>
        <time>2016-06-05T08:58:19Z</time>
      </trkpt>
      <trkpt lat="45.71692" lon="4.56706">
        <ele>838.845703</ele>
        <time>2016-06-05T08:58:21Z</time>
      </trkpt>
      <trkpt lat="45.71686" lon="4.56714">
        <ele>838.573608</ele>
        <time>2016-06-05T08:58:23Z</time>
      </trkpt>
      <trkpt lat="45.71681" lon="4.56723">
        <ele>838.636597</ele>
        <time>2016-06-05T08:58:25Z</time>
      </trkpt>
      <trkpt lat="45.71674" lon="4.56729">
        <ele>838.806458</ele>
        <time>2016-06-05T08:58:27Z</time>
      </trkpt>
      <trkpt lat="45.71669" lon="4.56731">
        <ele>838.896301</ele>
        <time>2016-06-05T08:58:29Z</time>
      </trkpt>
      <trkpt lat="45.71662" lon="4.56732">
        <ele>838.707336</ele>
        <time>2016-06-05T08:58:31Z</time>
      </trkpt>
      <trkpt lat="45.71656" lon="4.5673">
        <ele>838.996765</ele>
        <time>2016-06-05T08:58:33Z</time>
      </trkpt>
      <trkpt lat="45.71651" lon="4.56727">
        <ele>839.052734</ele>
        <time>2016-06-05T08:58:35Z</time>
      </trkpt>
      <trkpt lat="45.71647" lon="4.56723">
        <ele>839.162415</ele>
        <time>2016-06-05T08:58:37Z</time>
      </trkpt>
      <trkpt lat="45.71643" lon="4.5672">
        <ele>839.178101</ele>
        <time>2016-06-05T08:58:39Z</time>
      </trkpt>
      <trkpt lat="45.71639" lon="4.56716">
        <ele>839.322144</ele>
        <time>2016-06-05T08:58:41Z</time>
      </trkpt>
      <trkpt lat="45.71634" lon="4.56712">
        <ele>839.457336</ele>
        <time>2016-06-05T08:58:43Z</time>
      </trkpt>
      <trkpt lat="45.71628" lon="4.56708">
        <ele>839.973022</ele>
        <time>2016-06-05T08:58:45Z</time>
      </trkpt>
      <trkpt lat="45.71621" lon="4.56702">
        <ele>839.550415</ele>
        <time>2016-06-05T08:58:47Z</time>
      </trkpt>
      <trkpt lat="45.71613" lon="4.56695">
        <ele>839.491882</ele>
        <time>2016-06-05T08:58:49Z</time>
      </trkpt>
      <trkpt lat="45.71606" lon="4.56686">
        <ele>839.615601</ele>
        <time>2016-06-05T08:58:51Z</time>
      </trkpt>
      <trkpt lat="45.71598" lon="4.56675">
        <ele>839.473999</ele>
        <time>2016-06-05T08:58:53Z</time>
      </trkpt>
      <trkpt lat="45.71592" lon="4.56665">
        <ele>839.717163</ele>
        <time>2016-06-05T08:58:55Z</time>
      </trkpt>
      <trkpt lat="45.71586" lon="4.56656">
        <ele>839.72168</ele>
        <time>2016-06-05T08:58:57Z</time>
      </trkpt>
      <trkpt lat="45.71581" lon="4.56647">
        <ele>839.293457</ele>
        <time>2016-06-05T08:58:59Z</time>
      </trkpt>
      <trkpt lat="45.71574" lon="4.56638">
        <ele>838.247742</ele>
        <time>2016-06-05T08:59:01Z</time>
      </trkpt>
      <trkpt lat="45.71568" lon="4.5663">
        <ele>837.991333</ele>
        <time>2016-06-05T08:59:03Z</time>
      </trkpt>
      <trkpt lat="45.71561" lon="4.56622">
        <ele>837.903503</ele>
        <time>2016-06-05T08:59:05Z</time>
      </trkpt>
      <trkpt lat="45.71554" lon="4.56613">
        <ele>837.095093</ele>
        <time>2016-06-05T08:59:07Z</time>
      </trkpt>
      <trkpt lat="45.71548" lon="4.56603">
        <ele>836.901672</ele>
        <time>2016-06-05T08:59:09Z</time>
      </trkpt>
      <trkpt lat="45.71541" lon="4.56594">
        <ele>836.585266</ele>
        <time>2016-06-05T08:59:11Z</time>
      </trkpt>
      <trkpt lat="45.71534" lon="4.56585">
        <ele>836.279419</ele>
        <time>2016-06-05T08:59:13Z</time>
      </trkpt>
      <trkpt lat="45.71529" lon="4.56577">
        <ele>835.861023</ele>
        <time>2016-06-05T08:59:15Z</time>
      </trkpt>
      <trkpt lat="45.71523" lon="4.56568">
        <ele>835.484863</ele>
        <time>2016-06-05T08:59:17Z</time>
      </trkpt>
      <trkpt lat="45.71518" lon="4.5656">
        <ele>834.933777</ele>
        <time>2016-06-05T08:59:19Z</time>
      </trkpt>
      <trkpt lat="45.71515" lon="4.56551">
        <ele>833.980591</ele>
        <time>2016-06-05T08:59:21Z</time>
      </trkpt>
      <trkpt lat="45.7151" lon="4.56544">
        <ele>833.35321</ele>
        <time>2016-06-05T08:59:23Z</time>
      </trkpt>
      <trkpt lat="45.71506" lon="4.56537">
        <ele>832.635132</ele>
        <time>2016-06-05T08:59:25Z</time>
      </trkpt>
      <trkpt lat="45.71502" lon="4.56529">
        <ele>831.176392</ele>
        <time>2016-06-05T08:59:27Z</time>
      </trkpt>
      <trkpt lat="45.71497" lon="4.56523">
        <ele>829.640137</ele>
        <time>2016-06-05T08:59:29Z</time>
      </trkpt>
      <trkpt lat="45.71493" lon="4.56514">
        <ele>829.237671</ele>
        <time>2016-06-05T08:59:31Z</time>
      </trkpt>
      <trkpt lat="45.71486" lon="4.56504">
        <ele>828.233032</ele>
        <time>2016-06-05T08:59:33Z</time>
      </trkpt>
      <trkpt lat="45.71482" lon="4.56493">
        <ele>827.191528</ele>
        <time>2016-06-05T08:59:35Z</time>
      </trkpt>
      <trkpt lat="45.71479" lon="4.56484">
        <ele>825.540344</ele>
        <time>2016-06-05T08:59:37Z</time>
      </trkpt>
      <trkpt lat="45.71476" lon="4.56476">
        <ele>824.474609</ele>
        <time>2016-06-05T08:59:39Z</time>
      </trkpt>
      <trkpt lat="45.71473" lon="4.56469">
        <ele>823.003784</ele>
        <time>2016-06-05T08:59:41Z</time>
      </trkpt>
      <trkpt lat="45.71471" lon="4.56461">
        <ele>822.484558</ele>
        <time>2016-06-05T08:59:43Z</time>
      </trkpt>
      <trkpt lat="45.71468" lon="4.56452">
        <ele>822.180969</ele>
        <time>2016-06-05T08:59:45Z</time>
      </trkpt>
      <trkpt lat="45.71466" lon="4.56442">
        <ele>821.266968</ele>
        <time>2016-06-05T08:59:47Z</time>
      </trkpt>
      <trkpt lat="45.71464" lon="4.56434">
        <ele>820.937195</ele>
        <time>2016-06-05T08:59:49Z</time>
      </trkpt>
      <trkpt lat="45.7146" lon="4.56429">
        <ele>820.144165</ele>
        <time>2016-06-05T08:59:51Z</time>
      </trkpt>
      <trkpt lat="45.71456" lon="4.56424">
        <ele>819.190735</ele>
        <time>2016-06-05T08:59:53Z</time>
      </trkpt>
      <trkpt lat="45.7145" lon="4.56418">
        <ele>818.373901</ele>
        <time>2016-06-05T08:59:55Z</time>
      </trkpt>
      <trkpt lat="45.71443" lon="4.56412">
        <ele>817.434692</ele>
        <time>2016-06-05T08:59:57Z</time>
      </trkpt>
      <trkpt lat="45.71436" lon="4.56409">
        <ele>816.585876</ele>
        <time>2016-06-05T08:59:59Z</time>
      </trkpt>
      <trkpt lat="45.7143" lon="4.56411">
        <ele>815.810547</ele>
        <time>2016-06-05T09:00:01Z</time>
      </trkpt>
      <trkpt lat="45.71426" lon="4.56419">
        <ele>815.430969</ele>
        <time>2016-06-05T09:00:03Z</time>
      </trkpt>
      <trkpt lat="45.71426" lon="4.5643">
        <ele>814.863281</ele>
        <time>2016-06-05T09:00:05Z</time>
      </trkpt>
      <trkpt lat="45.71427" lon="4.56441">
        <ele>814.712646</ele>
        <time>2016-06-05T09:00:07Z</time>
      </trkpt>
      <trkpt lat="45.71428" lon="4.56453">
        <ele>814.479126</ele>
        <time>2016-06-05T09:00:09Z</time>
      </trkpt>
      <trkpt lat="45.71428" lon="4.56465">
        <ele>814.184387</ele>
        <time>2016-06-05T09:00:11Z</time>
      </trkpt>
      <trkpt lat="45.71428" lon="4.56479">
        <ele>813.79541</ele>
        <time>2016-06-05T09:00:13Z</time>
      </trkpt>
      <trkpt lat="45.71426" lon="4.56492">
        <ele>813.260559</ele>
        <time>2016-06-05T09:00:15Z</time>
      </trkpt>
      <trkpt lat="45.71423" lon="4.56504">
        <ele>812.917603</ele>
        <time>2016-06-05T09:00:17Z</time>
      </trkpt>
      <trkpt lat="45.71421" lon="4.56518">
        <ele>812.930969</ele>
        <time>2016-06-05T09:00:19Z</time>
      </trkpt>
      <trkpt lat="45.71418" lon="4.56532">
        <ele>812.565735</ele>
        <time>2016-06-05T09:00:21Z</time>
      </trkpt>
      <trkpt lat="45.71416" lon="4.56546">
        <ele>813.00354</ele>
        <time>2016-06-05T09:00:23Z</time>
      </trkpt>
      <trkpt lat="45.71414" lon="4.5656">
        <ele>812.664673</ele>
        <time>2016-06-05T09:00:25Z</time>
      </trkpt>
      <trkpt lat="45.71413" lon="4.56574">
        <ele>812.568054</ele>
        <time>2016-06-05T09:00:27Z</time>
      </trkpt>
      <trkpt lat="45.71412" lon="4.56587">
        <ele>812.214661</ele>
        <time>2016-06-05T09:00:29Z</time>
      </trkpt>
      <trkpt lat="45.71412" lon="4.566">
        <ele>812.046265</ele>
        <time>2016-06-05T09:00:31Z</time>
      </trkpt>
      <trkpt lat="45.71411" lon="4.56613">
        <ele>811.895874</ele>
        <time>2016-06-05T09:00:33Z</time>
      </trkpt>
      <trkpt lat="45.7141" lon="4.56625">
        <ele>811.833008</ele>
        <time>2016-06-05T09:00:35Z</time>
      </trkpt>
      <trkpt lat="45.71409" lon="4.56637">
        <ele>811.74231</ele>
        <time>2016-06-05T09:00:37Z</time>
      </trkpt>
      <trkpt lat="45.71407" lon="4.56649">
        <ele>811.649597</ele>
        <time>2016-06-05T09:00:39Z</time>
      </trkpt>
      <trkpt lat="45.71405" lon="4.56662">
        <ele>811.532898</ele>
        <time>2016-06-05T09:00:41Z</time>
      </trkpt>
      <trkpt lat="45.71401" lon="4.56674">
        <ele>811.389526</ele>
        <time>2016-06-05T09:00:43Z</time>
      </trkpt>
      <trkpt lat="45.71396" lon="4.56684">
        <ele>811.254883</ele>
        <time>2016-06-05T09:00:45Z</time>
      </trkpt>
      <trkpt lat="45.7139" lon="4.56694">
        <ele>811.135925</ele>
        <time>2016-06-05T09:00:47Z</time>
      </trkpt>
      <trkpt lat="45.71383" lon="4.56701">
        <ele>811.158386</ele>
        <time>2016-06-05T09:00:49Z</time>
      </trkpt>
      <trkpt lat="45.71375" lon="4.56703">
        <ele>811.033325</ele>
        <time>2016-06-05T09:00:51Z</time>
      </trkpt>
      <trkpt lat="45.71368" lon="4.56705">
        <ele>811.049438</ele>
        <time>2016-06-05T09:00:53Z</time>
      </trkpt>
      <trkpt lat="45.71362" lon="4.56707">
        <ele>810.995544</ele>
        <time>2016-06-05T09:00:55Z</time>
      </trkpt>
      <trkpt lat="45.71356" lon="4.56709">
        <ele>810.993286</ele>
        <time>2016-06-05T09:00:57Z</time>
      </trkpt>
      <trkpt lat="45.7135" lon="4.56712">
        <ele>811.096558</ele>
        <time>2016-06-05T09:00:59Z</time>
      </trkpt>
      <trkpt lat="45.71344" lon="4.56714">
        <ele>811.107788</ele>
        <time>2016-06-05T09:01:01Z</time>
      </trkpt>
      <trkpt lat="45.71336" lon="4.56716">
        <ele>811.113708</ele>
        <time>2016-06-05T09:01:03Z</time>
      </trkpt>
      <trkpt lat="45.71329" lon="4.5672">
        <ele>811.274841</ele>
        <time>2016-06-05T09:01:05Z</time>
      </trkpt>
      <trkpt lat="45.71322" lon="4.56724">
        <ele>811.250183</ele>
        <time>2016-06-05T09:01:07Z</time>
      </trkpt>
      <trkpt lat="45.71315" lon="4.56728">
        <ele>811.342224</ele>
        <time>2016-06-05T09:01:09Z</time>
      </trkpt>
      <trkpt lat="45.71309" lon="4.56732">
        <ele>811.524048</ele>
        <time>2016-06-05T09:01:11Z</time>
      </trkpt>
      <trkpt lat="45.71302" lon="4.56736">
        <ele>811.696411</ele>
        <time>2016-06-05T09:01:13Z</time>
      </trkpt>
      <trkpt lat="45.71296" lon="4.5674">
        <ele>811.887573</ele>
        <time>2016-06-05T09:01:15Z</time>
      </trkpt>
      <trkpt lat="45.7129" lon="4.56743">
        <ele>812.013306</ele>
        <time>2016-06-05T09:01:17Z</time>
      </trkpt>
      <trkpt lat="45.71285" lon="4.56747">
        <ele>812.24292</ele>
        <time>2016-06-05T09:01:19Z</time>
      </trkpt>
      <trkpt lat="45.71279" lon="4.56751">
        <ele>812.402222</ele>
        <time>2016-06-05T09:01:21Z</time>
      </trkpt>
      <trkpt lat="45.71274" lon="4.56755">
        <ele>812.619995</ele>
        <time>2016-06-05T09:01:23Z</time>
      </trkpt>
      <trkpt lat="45.71269" lon="4.5676">
        <ele>812.855713</ele>
        <time>2016-06-05T09:01:25Z</time>
      </trkpt>
      <trkpt lat="45.71264" lon="4.56764">
        <ele>813.21936</ele>
        <time>2016-06-05T09:01:27Z</time>
      </trkpt>
      <trkpt lat="45.71259" lon="4.56769">
        <ele>813.538208</ele>
        <time>2016-06-05T09:01:29Z</time>
      </trkpt>
      <trkpt lat="45.71254" lon="4.56773">
        <ele>813.690857</ele>
        <time>2016-06-05T09:01:31Z</time>
      </trkpt>
      <trkpt lat="45.71249" lon="4.56778">
        <ele>813.984863</ele>
        <time>2016-06-05T09:01:33Z</time>
      </trkpt>
      <trkpt lat="45.71245" lon="4.56783">
        <ele>814.323914</ele>
        <time>2016-06-05T09:01:35Z</time>
      </trkpt>
      <trkpt lat="45.71241" lon="4.56788">
        <ele>814.687622</ele>
        <time>2016-06-05T09:01:37Z</time>
      </trkpt>
      <trkpt lat="45.71236" lon="4.56793">
        <ele>815.134399</ele>
        <time>2016-06-05T09:01:39Z</time>
      </trkpt>
      <trkpt lat="45.71232" lon="4.56797">
        <ele>815.472839</ele>
        <time>2016-06-05T09:01:41Z</time>
      </trkpt>
      <trkpt lat="45.71228" lon="4.56802">
        <ele>815.919678</ele>
        <time>2016-06-05T09:01:43Z</time>
      </trkpt>
      <trkpt lat="45.71224" lon="4.56806">
        <ele>816.101563</ele>
        <time>2016-06-05T09:01:45Z</time>
      </trkpt>
      <trkpt lat="45.71219" lon="4.56811">
        <ele>816.577637</ele>
        <time>2016-06-05T09:01:47Z</time>
      </trkpt>
      <trkpt lat="45.71215" lon="4.56815">
        <ele>817.024414</ele>
        <time>2016-06-05T09:01:49Z</time>
      </trkpt>
      <trkpt lat="45.7121" lon="4.56819">
        <ele>817.42865</ele>
        <time>2016-06-05T09:01:51Z</time>
      </trkpt>
      <trkpt lat="45.71206" lon="4.56821">
        <ele>817.756531</ele>
        <time>2016-06-05T09:01:53Z</time>
      </trkpt>
      <trkpt lat="45.71202" lon="4.56822">
        <ele>818.138733</ele>
        <time>2016-06-05T09:01:55Z</time>
      </trkpt>
      <trkpt lat="45.71197" lon="4.56824">
        <ele>818.630127</ele>
        <time>2016-06-05T09:01:57Z</time>
      </trkpt>
      <trkpt lat="45.71192" lon="4.56825">
        <ele>819.097473</ele>
        <time>2016-06-05T09:01:59Z</time>
      </trkpt>
      <trkpt lat="45.71188" lon="4.56826">
        <ele>819.297363</ele>
        <time>2016-06-05T09:02:01Z</time>
      </trkpt>
      <trkpt lat="45.71183" lon="4.56826">
        <ele>819.755554</ele>
        <time>2016-06-05T09:02:03Z</time>
      </trkpt>
      <trkpt lat="45.7118" lon="4.56827">
        <ele>820.128296</ele>
        <time>2016-06-05T09:02:05Z</time>
      </trkpt>
      <trkpt lat="45.71175" lon="4.56828">
        <ele>820.602356</ele>
        <time>2016-06-05T09:02:07Z</time>
      </trkpt>
      <trkpt lat="45.71171" lon="4.56828">
        <ele>820.9505</ele>
        <time>2016-06-05T09:02:09Z</time>
      </trkpt>
      <trkpt lat="45.71167" lon="4.56828">
        <ele>821.384094</ele>
        <time>2016-06-05T09:02:11Z</time>
      </trkpt>
      <trkpt lat="45.71162" lon="4.56828">
        <ele>821.739075</ele>
        <time>2016-06-05T09:02:13Z</time>
      </trkpt>
      <trkpt lat="45.71158" lon="4.56828">
        <ele>822.1427</ele>
        <time>2016-06-05T09:02:15Z</time>
      </trkpt>
      <trkpt lat="45.71153" lon="4.56826">
        <ele>822.493286</ele>
        <time>2016-06-05T09:02:17Z</time>
      </trkpt>
      <trkpt lat="45.71148" lon="4.56824">
        <ele>822.913391</ele>
        <time>2016-06-05T09:02:19Z</time>
      </trkpt>
      <trkpt lat="45.71144" lon="4.56822">
        <ele>823.270691</ele>
        <time>2016-06-05T09:02:21Z</time>
      </trkpt>
      <trkpt lat="45.7114" lon="4.5682">
        <ele>823.693726</ele>
        <time>2016-06-05T09:02:23Z</time>
      </trkpt>
      <trkpt lat="45.71137" lon="4.56818">
        <ele>824.131958</ele>
        <time>2016-06-05T09:02:25Z</time>
      </trkpt>
      <trkpt lat="45.71133" lon="4.56816">
        <ele>824.316223</ele>
        <time>2016-06-05T09:02:27Z</time>
      </trkpt>
      <trkpt lat="45.71129" lon="4.56814">
        <ele>824.648926</ele>
        <time>2016-06-05T09:02:29Z</time>
      </trkpt>
      <trkpt lat="45.71125" lon="4.56811">
        <ele>825.071777</ele>
        <time>2016-06-05T09:02:31Z</time>
      </trkpt>
      <trkpt lat="45.71121" lon="4.56809">
        <ele>825.420288</ele>
        <time>2016-06-05T09:02:33Z</time>
      </trkpt>
      <trkpt lat="45.71118" lon="4.56805">
        <ele>825.899048</ele>
        <time>2016-06-05T09:02:35Z</time>
      </trkpt>
      <trkpt lat="45.71114" lon="4.56802">
        <ele>826.247437</ele>
        <time>2016-06-05T09:02:37Z</time>
      </trkpt>
      <trkpt lat="45.71111" lon="4.56799">
        <ele>826.544128</ele>
        <time>2016-06-05T09:02:39Z</time>
      </trkpt>
      <trkpt lat="45.71107" lon="4.56797">
        <ele>826.846863</ele>
        <time>2016-06-05T09:02:41Z</time>
      </trkpt>
      <trkpt lat="45.71103" lon="4.56794">
        <ele>827.192993</ele>
        <time>2016-06-05T09:02:43Z</time>
      </trkpt>
      <trkpt lat="45.711" lon="4.56791">
        <ele>827.518921</ele>
        <time>2016-06-05T09:02:45Z</time>
      </trkpt>
      <trkpt lat="45.71097" lon="4.56787">
        <ele>827.74823</ele>
        <time>2016-06-05T09:02:47Z</time>
      </trkpt>
      <trkpt lat="45.71094" lon="4.56784">
        <ele>827.928101</ele>
        <time>2016-06-05T09:02:49Z</time>
      </trkpt>
      <trkpt lat="45.7109" lon="4.5678">
        <ele>828.348511</ele>
        <time>2016-06-05T09:02:51Z</time>
      </trkpt>
      <trkpt lat="45.71087" lon="4.56776">
        <ele>828.690247</ele>
        <time>2016-06-05T09:02:53Z</time>
      </trkpt>
      <trkpt lat="45.71084" lon="4.56773">
        <ele>829.142212</ele>
        <time>2016-06-05T09:02:55Z</time>
      </trkpt>
      <trkpt lat="45.71081" lon="4.56769">
        <ele>829.474304</ele>
        <time>2016-06-05T09:02:57Z</time>
      </trkpt>
      <trkpt lat="45.71078" lon="4.56764">
        <ele>829.845215</ele>
        <time>2016-06-05T09:02:59Z</time>
      </trkpt>
      <trkpt lat="45.71075" lon="4.5676">
        <ele>830.148743</ele>
        <time>2016-06-05T09:03:01Z</time>
      </trkpt>
      <trkpt lat="45.71072" lon="4.56755">
        <ele>830.438782</ele>
        <time>2016-06-05T09:03:03Z</time>
      </trkpt>
      <trkpt lat="45.71069" lon="4.5675">
        <ele>830.679382</ele>
        <time>2016-06-05T09:03:05Z</time>
      </trkpt>
      <trkpt lat="45.71065" lon="4.56745">
        <ele>830.989746</ele>
        <time>2016-06-05T09:03:07Z</time>
      </trkpt>
      <trkpt lat="45.71062" lon="4.5674">
        <ele>831.36731</ele>
        <time>2016-06-05T09:03:09Z</time>
      </trkpt>
      <trkpt lat="45.71059" lon="4.56735">
        <ele>831.699829</ele>
        <time>2016-06-05T09:03:11Z</time>
      </trkpt>
      <trkpt lat="45.71056" lon="4.5673">
        <ele>831.841492</ele>
        <time>2016-06-05T09:03:13Z</time>
      </trkpt>
      <trkpt lat="45.71053" lon="4.56725">
        <ele>832.178589</ele>
        <time>2016-06-05T09:03:15Z</time>
      </trkpt>
      <trkpt lat="45.7105" lon="4.56719">
        <ele>832.453003</ele>
        <time>2016-06-05T09:03:17Z</time>
      </trkpt>
      <trkpt lat="45.71046" lon="4.56714">
        <ele>832.60614</ele>
        <time>2016-06-05T09:03:19Z</time>
      </trkpt>
      <trkpt lat="45.71044" lon="4.56708">
        <ele>833.032837</ele>
        <time>2016-06-05T09:03:21Z</time>
      </trkpt>
      <trkpt lat="45.71042" lon="4.56703">
        <ele>833.383667</ele>
        <time>2016-06-05T09:03:23Z</time>
      </trkpt>
      <trkpt lat="45.71039" lon="4.56698">
        <ele>833.778015</ele>
        <time>2016-06-05T09:03:25Z</time>
      </trkpt>
      <trkpt lat="45.71037" lon="4.56693">
        <ele>834.169312</ele>
        <time>2016-06-05T09:03:27Z</time>
      </trkpt>
      <trkpt lat="45.71036" lon="4.56687">
        <ele>834.590027</ele>
        <time>2016-06-05T09:03:29Z</time>
      </trkpt>
      <trkpt lat="45.71034" lon="4.56681">
        <ele>834.801453</ele>
        <time>2016-06-05T09:03:31Z</time>
      </trkpt>
      <trkpt lat="45.71033" lon="4.56675">
        <ele>835.071106</ele>
        <time>2016-06-05T09:03:33Z</time>
      </trkpt>
      <trkpt lat="45.71032" lon="4.56669">
        <ele>835.350098</ele>
        <time>2016-06-05T09:03:35Z</time>
      </trkpt>
      <trkpt lat="45.7103" lon="4.56663">
        <ele>835.597534</ele>
        <time>2016-06-05T09:03:37Z</time>
      </trkpt>
      <trkpt lat="45.71029" lon="4.56657">
        <ele>835.92511</ele>
        <time>2016-06-05T09:03:39Z</time>
      </trkpt>
      <trkpt lat="45.71027" lon="4.5665">
        <ele>836.227539</ele>
        <time>2016-06-05T09:03:41Z</time>
      </trkpt>
      <trkpt lat="45.71026" lon="4.56644">
        <ele>836.478638</ele>
        <time>2016-06-05T09:03:43Z</time>
      </trkpt>
      <trkpt lat="45.71024" lon="4.56637">
        <ele>836.791199</ele>
        <time>2016-06-05T09:03:45Z</time>
      </trkpt>
      <trkpt lat="45.71022" lon="4.56629">
        <ele>837.052124</ele>
        <time>2016-06-05T09:03:47Z</time>
      </trkpt>
      <trkpt lat="45.71021" lon="4.56622">
        <ele>837.353638</ele>
        <time>2016-06-05T09:03:49Z</time>
      </trkpt>
      <trkpt lat="45.71019" lon="4.56615">
        <ele>837.59436</ele>
        <time>2016-06-05T09:03:51Z</time>
      </trkpt>
      <trkpt lat="45.71018" lon="4.56608">
        <ele>837.812622</ele>
        <time>2016-06-05T09:03:53Z</time>
      </trkpt>
      <trkpt lat="45.71016" lon="4.56601">
        <ele>837.931946</ele>
        <time>2016-06-05T09:03:55Z</time>
      </trkpt>
      <trkpt lat="45.71016" lon="4.56593">
        <ele>838.21759</ele>
        <time>2016-06-05T09:03:57Z</time>
      </trkpt>
      <trkpt lat="45.71016" lon="4.56586">
        <ele>838.408875</ele>
        <time>2016-06-05T09:03:59Z</time>
      </trkpt>
      <trkpt lat="45.71017" lon="4.56579">
        <ele>838.620789</ele>
        <time>2016-06-05T09:04:01Z</time>
      </trkpt>
      <trkpt lat="45.71017" lon="4.56572">
        <ele>838.778992</ele>
        <time>2016-06-05T09:04:03Z</time>
      </trkpt>
      <trkpt lat="45.71018" lon="4.56566">
        <ele>838.907349</ele>
        <time>2016-06-05T09:04:05Z</time>
      </trkpt>
      <trkpt lat="45.71017" lon="4.5656">
        <ele>839.037781</ele>
        <time>2016-06-05T09:04:07Z</time>
      </trkpt>
      <trkpt lat="45.71016" lon="4.56554">
        <ele>839.229126</ele>
        <time>2016-06-05T09:04:09Z</time>
      </trkpt>
      <trkpt lat="45.71015" lon="4.56549">
        <ele>839.388855</ele>
        <time>2016-06-05T09:04:11Z</time>
      </trkpt>
      <trkpt lat="45.71013" lon="4.56542">
        <ele>839.594727</ele>
        <time>2016-06-05T09:04:14Z</time>
      </trkpt>
      <trkpt lat="45.71011" lon="4.56537">
        <ele>839.693665</ele>
        <time>2016-06-05T09:04:16Z</time>
      </trkpt>
      <trkpt lat="45.71011" lon="4.56532">
        <ele>839.886414</ele>
        <time>2016-06-05T09:04:18Z</time>
      </trkpt>
      <trkpt lat="45.7101" lon="4.56527">
        <ele>840.027222</ele>
        <time>2016-06-05T09:04:20Z</time>
      </trkpt>
      <trkpt lat="45.71009" lon="4.56523">
        <ele>840.317566</ele>
        <time>2016-06-05T09:04:22Z</time>
      </trkpt>
      <trkpt lat="45.71008" lon="4.56518">
        <ele>840.395325</ele>
        <time>2016-06-05T09:04:24Z</time>
      </trkpt>
      <trkpt lat="45.71007" lon="4.56514">
        <ele>840.522339</ele>
        <time>2016-06-05T09:04:26Z</time>
      </trkpt>
      <trkpt lat="45.71007" lon="4.5651">
        <ele>840.740601</ele>
        <time>2016-06-05T09:04:28Z</time>
      </trkpt>
      <trkpt lat="45.71007" lon="4.56505">
        <ele>840.988098</ele>
        <time>2016-06-05T09:04:30Z</time>
      </trkpt>
      <trkpt lat="45.71007" lon="4.56501">
        <ele>841.251465</ele>
        <time>2016-06-05T09:04:32Z</time>
      </trkpt>
      <trkpt lat="45.71007" lon="4.56497">
        <ele>841.573364</ele>
        <time>2016-06-05T09:04:34Z</time>
      </trkpt>
      <trkpt lat="45.71007" lon="4.56493">
        <ele>841.891785</ele>
        <time>2016-06-05T09:04:36Z</time>
      </trkpt>
      <trkpt lat="45.71008" lon="4.56489">
        <ele>842.198547</ele>
        <time>2016-06-05T09:04:38Z</time>
      </trkpt>
      <trkpt lat="45.71009" lon="4.56485">
        <ele>842.551941</ele>
        <time>2016-06-05T09:04:40Z</time>
      </trkpt>
      <trkpt lat="45.71009" lon="4.56482">
        <ele>842.957214</ele>
        <time>2016-06-05T09:04:42Z</time>
      </trkpt>
      <trkpt lat="45.71009" lon="4.56478">
        <ele>843.384399</ele>
        <time>2016-06-05T09:04:44Z</time>
      </trkpt>
      <trkpt lat="45.71009" lon="4.56475">
        <ele>843.812134</ele>
        <time>2016-06-05T09:04:46Z</time>
      </trkpt>
      <trkpt lat="45.71009" lon="4.56471">
        <ele>844.055298</ele>
        <time>2016-06-05T09:04:48Z</time>
      </trkpt>
      <trkpt lat="45.71009" lon="4.56468">
        <ele>844.439087</ele>
        <time>2016-06-05T09:04:50Z</time>
      </trkpt>
      <trkpt lat="45.71009" lon="4.56464">
        <ele>844.770142</ele>
        <time>2016-06-05T09:04:52Z</time>
      </trkpt>
      <trkpt lat="45.71009" lon="4.5646">
        <ele>845.15741</ele>
        <time>2016-06-05T09:04:54Z</time>
      </trkpt>
      <trkpt lat="45.71008" lon="4.56456">
        <ele>845.548462</ele>
        <time>2016-06-05T09:04:56Z</time>
      </trkpt>
      <trkpt lat="45.71008" lon="4.56452">
        <ele>845.942993</ele>
        <time>2016-06-05T09:04:58Z</time>
      </trkpt>
      <trkpt lat="45.71009" lon="4.56449">
        <ele>846.39856</ele>
        <time>2016-06-05T09:05:00Z</time>
      </trkpt>
      <trkpt lat="45.71009" lon="4.56446">
        <ele>846.847778</ele>
        <time>2016-06-05T09:05:02Z</time>
      </trkpt>
      <trkpt lat="45.71009" lon="4.56442">
        <ele>847.210449</ele>
        <time>2016-06-05T09:05:04Z</time>
      </trkpt>
      <trkpt lat="45.7101" lon="4.56439">
        <ele>847.79364</ele>
        <time>2016-06-05T09:05:06Z</time>
      </trkpt>
      <trkpt lat="45.7101" lon="4.56436">
        <ele>848.170044</ele>
        <time>2016-06-05T09:05:08Z</time>
      </trkpt>
      <trkpt lat="45.7101" lon="4.56432">
        <ele>848.586914</ele>
        <time>2016-06-05T09:05:10Z</time>
      </trkpt>
      <trkpt lat="45.7101" lon="4.56428">
        <ele>848.803101</ele>
        <time>2016-06-05T09:05:12Z</time>
      </trkpt>
      <trkpt lat="45.7101" lon="4.56424">
        <ele>849.173706</ele>
        <time>2016-06-05T09:05:14Z</time>
      </trkpt>
      <trkpt lat="45.71009" lon="4.56421">
        <ele>849.543152</ele>
        <time>2016-06-05T09:05:16Z</time>
      </trkpt>
      <trkpt lat="45.71009" lon="4.56418">
        <ele>849.86438</ele>
        <time>2016-06-05T09:05:18Z</time>
      </trkpt>
      <trkpt lat="45.71008" lon="4.56414">
        <ele>850.227051</ele>
        <time>2016-06-05T09:05:20Z</time>
      </trkpt>
      <trkpt lat="45.71008" lon="4.56411">
        <ele>850.524536</ele>
        <time>2016-06-05T09:05:22Z</time>
      </trkpt>
      <trkpt lat="45.71008" lon="4.56407">
        <ele>850.828491</ele>
        <time>2016-06-05T09:05:24Z</time>
      </trkpt>
      <trkpt lat="45.71008" lon="4.56403">
        <ele>851.123657</ele>
        <time>2016-06-05T09:05:26Z</time>
      </trkpt>
      <trkpt lat="45.71007" lon="4.564">
        <ele>851.45929</ele>
        <time>2016-06-05T09:05:28Z</time>
      </trkpt>
      <trkpt lat="45.71007" lon="4.56396">
        <ele>851.728821</ele>
        <time>2016-06-05T09:05:30Z</time>
      </trkpt>
      <trkpt lat="45.71008" lon="4.56393">
        <ele>852.001587</ele>
        <time>2016-06-05T09:05:32Z</time>
      </trkpt>
      <trkpt lat="45.71008" lon="4.56389">
        <ele>852.325989</ele>
        <time>2016-06-05T09:05:34Z</time>
      </trkpt>
      <trkpt lat="45.71007" lon="4.56385">
        <ele>852.582886</ele>
        <time>2016-06-05T09:05:36Z</time>
      </trkpt>
      <trkpt lat="45.71006" lon="4.56382">
        <ele>852.866882</ele>
        <time>2016-06-05T09:05:38Z</time>
      </trkpt>
      <trkpt lat="45.71006" lon="4.56378">
        <ele>853.022095</ele>
        <time>2016-06-05T09:05:40Z</time>
      </trkpt>
      <trkpt lat="45.71006" lon="4.56374">
        <ele>853.315125</ele>
        <time>2016-06-05T09:05:42Z</time>
      </trkpt>
      <trkpt lat="45.71006" lon="4.5637">
        <ele>853.513367</ele>
        <time>2016-06-05T09:05:44Z</time>
      </trkpt>
      <trkpt lat="45.71005" lon="4.56366">
        <ele>853.788269</ele>
        <time>2016-06-05T09:05:46Z</time>
      </trkpt>
      <trkpt lat="45.71006" lon="4.56363">
        <ele>854.042969</ele>
        <time>2016-06-05T09:05:48Z</time>
      </trkpt>
      <trkpt lat="45.71006" lon="4.56359">
        <ele>854.280579</ele>
        <time>2016-06-05T09:05:50Z</time>
      </trkpt>
      <trkpt lat="45.71006" lon="4.56355">
        <ele>854.502075</ele>
        <time>2016-06-05T09:05:52Z</time>
      </trkpt>
      <trkpt lat="45.71006" lon="4.56352">
        <ele>854.706665</ele>
        <time>2016-06-05T09:05:54Z</time>
      </trkpt>
      <trkpt lat="45.71006" lon="4.56348">
        <ele>854.92981</ele>
        <time>2016-06-05T09:05:56Z</time>
      </trkpt>
      <trkpt lat="45.71007" lon="4.56344">
        <ele>855.29718</ele>
        <time>2016-06-05T09:05:58Z</time>
      </trkpt>
      <trkpt lat="45.71007" lon="4.56341">
        <ele>855.542969</ele>
        <time>2016-06-05T09:06:00Z</time>
      </trkpt>
      <trkpt lat="45.71006" lon="4.56334">
        <ele>856.783203</ele>
        <time>2016-06-05T09:06:12Z</time>
      </trkpt>
      <trkpt lat="45.71007" lon="4.5633">
        <ele>857.017456</ele>
        <time>2016-06-05T09:06:14Z</time>
      </trkpt>
      <trkpt lat="45.71007" lon="4.56327">
        <ele>857.242859</ele>
        <time>2016-06-05T09:06:16Z</time>
      </trkpt>
      <trkpt lat="45.71007" lon="4.56324">
        <ele>857.432251</ele>
        <time>2016-06-05T09:06:18Z</time>
      </trkpt>
      <trkpt lat="45.71007" lon="4.5632">
        <ele>857.680176</ele>
        <time>2016-06-05T09:06:20Z</time>
      </trkpt>
      <trkpt lat="45.71007" lon="4.56316">
        <ele>857.860962</ele>
        <time>2016-06-05T09:06:22Z</time>
      </trkpt>
      <trkpt lat="45.71007" lon="4.56313">
        <ele>858.125854</ele>
        <time>2016-06-05T09:06:24Z</time>
      </trkpt>
      <trkpt lat="45.71007" lon="4.5631">
        <ele>858.378418</ele>
        <time>2016-06-05T09:06:26Z</time>
      </trkpt>
      <trkpt lat="45.71007" lon="4.56307">
        <ele>858.601563</ele>
        <time>2016-06-05T09:06:28Z</time>
      </trkpt>
      <trkpt lat="45.71008" lon="4.56304">
        <ele>858.919556</ele>
        <time>2016-06-05T09:06:30Z</time>
      </trkpt>
      <trkpt lat="45.71008" lon="4.563">
        <ele>859.0448</ele>
        <time>2016-06-05T09:06:32Z</time>
      </trkpt>
      <trkpt lat="45.71008" lon="4.56298">
        <ele>859.324402</ele>
        <time>2016-06-05T09:06:34Z</time>
      </trkpt>
      <trkpt lat="45.71008" lon="4.56295">
        <ele>859.5802</ele>
        <time>2016-06-05T09:06:36Z</time>
      </trkpt>
      <trkpt lat="45.71007" lon="4.56292">
        <ele>859.83728</ele>
        <time>2016-06-05T09:06:38Z</time>
      </trkpt>
      <trkpt lat="45.71007" lon="4.56288">
        <ele>860.074036</ele>
        <time>2016-06-05T09:06:40Z</time>
      </trkpt>
      <trkpt lat="45.71007" lon="4.56285">
        <ele>860.37854</ele>
        <time>2016-06-05T09:06:42Z</time>
      </trkpt>
      <trkpt lat="45.71007" lon="4.56282">
        <ele>860.718872</ele>
        <time>2016-06-05T09:06:44Z</time>
      </trkpt>
      <trkpt lat="45.71006" lon="4.56279">
        <ele>861.009644</ele>
        <time>2016-06-05T09:06:46Z</time>
      </trkpt>
      <trkpt lat="45.71006" lon="4.56276">
        <ele>861.395813</ele>
        <time>2016-06-05T09:06:48Z</time>
      </trkpt>
      <trkpt lat="45.71006" lon="4.56273">
        <ele>861.767883</ele>
        <time>2016-06-05T09:06:50Z</time>
      </trkpt>
      <trkpt lat="45.71006" lon="4.56271">
        <ele>861.934753</ele>
        <time>2016-06-05T09:06:52Z</time>
      </trkpt>
      <trkpt lat="45.71006" lon="4.56268">
        <ele>862.317749</ele>
        <time>2016-06-05T09:06:54Z</time>
      </trkpt>
      <trkpt lat="45.71006" lon="4.56266">
        <ele>862.710327</ele>
        <time>2016-06-05T09:06:56Z</time>
      </trkpt>
      <trkpt lat="45.71006" lon="4.56263">
        <ele>863.278931</ele>
        <time>2016-06-05T09:06:58Z</time>
      </trkpt>
      <trkpt lat="45.71005" lon="4.56261">
        <ele>863.689575</ele>
        <time>2016-06-05T09:07:00Z</time>
      </trkpt>
      <trkpt lat="45.71005" lon="4.56259">
        <ele>864.057739</ele>
        <time>2016-06-05T09:07:02Z</time>
      </trkpt>
      <trkpt lat="45.71005" lon="4.56257">
        <ele>864.441895</ele>
        <time>2016-06-05T09:07:04Z</time>
      </trkpt>
      <trkpt lat="45.71004" lon="4.56255">
        <ele>864.87384</ele>
        <time>2016-06-05T09:07:06Z</time>
      </trkpt>
      <trkpt lat="45.71003" lon="4.56253">
        <ele>865.300171</ele>
        <time>2016-06-05T09:07:08Z</time>
      </trkpt>
      <trkpt lat="45.71003" lon="4.56251">
        <ele>865.758301</ele>
        <time>2016-06-05T09:07:10Z</time>
      </trkpt>
      <trkpt lat="45.71003" lon="4.56248">
        <ele>866.18927</ele>
        <time>2016-06-05T09:07:12Z</time>
      </trkpt>
      <trkpt lat="45.71002" lon="4.56245">
        <ele>866.637573</ele>
        <time>2016-06-05T09:07:14Z</time>
      </trkpt>
      <trkpt lat="45.71001" lon="4.56243">
        <ele>867.095703</ele>
        <time>2016-06-05T09:07:16Z</time>
      </trkpt>
      <trkpt lat="45.71001" lon="4.5624">
        <ele>867.486694</ele>
        <time>2016-06-05T09:07:18Z</time>
      </trkpt>
      <trkpt lat="45.71" lon="4.56238">
        <ele>867.935852</ele>
        <time>2016-06-05T09:07:20Z</time>
      </trkpt>
      <trkpt lat="45.70999" lon="4.56235">
        <ele>868.125366</ele>
        <time>2016-06-05T09:07:22Z</time>
      </trkpt>
      <trkpt lat="45.70998" lon="4.56232">
        <ele>868.468445</ele>
        <time>2016-06-05T09:07:24Z</time>
      </trkpt>
      <trkpt lat="45.70997" lon="4.5623">
        <ele>868.831726</ele>
        <time>2016-06-05T09:07:26Z</time>
      </trkpt>
      <trkpt lat="45.70996" lon="4.56227">
        <ele>869.220032</ele>
        <time>2016-06-05T09:07:28Z</time>
      </trkpt>
      <trkpt lat="45.70995" lon="4.56224">
        <ele>869.574341</ele>
        <time>2016-06-05T09:07:30Z</time>
      </trkpt>
      <trkpt lat="45.70993" lon="4.56221">
        <ele>869.955933</ele>
        <time>2016-06-05T09:07:32Z</time>
      </trkpt>
      <trkpt lat="45.70992" lon="4.56219">
        <ele>870.359192</ele>
        <time>2016-06-05T09:07:34Z</time>
      </trkpt>
      <trkpt lat="45.70991" lon="4.56216">
        <ele>870.783569</ele>
        <time>2016-06-05T09:07:36Z</time>
      </trkpt>
      <trkpt lat="45.70989" lon="4.56213">
        <ele>871.023071</ele>
        <time>2016-06-05T09:07:38Z</time>
      </trkpt>
      <trkpt lat="45.70987" lon="4.5621">
        <ele>871.287231</ele>
        <time>2016-06-05T09:07:40Z</time>
      </trkpt>
      <trkpt lat="45.70986" lon="4.56207">
        <ele>871.747253</ele>
        <time>2016-06-05T09:07:42Z</time>
      </trkpt>
      <trkpt lat="45.70984" lon="4.56205">
        <ele>872.1875</ele>
        <time>2016-06-05T09:07:44Z</time>
      </trkpt>
      <trkpt lat="45.70982" lon="4.56202">
        <ele>872.601746</ele>
        <time>2016-06-05T09:07:46Z</time>
      </trkpt>
      <trkpt lat="45.70981" lon="4.562">
        <ele>872.748535</ele>
        <time>2016-06-05T09:07:48Z</time>
      </trkpt>
      <trkpt lat="45.7098" lon="4.56197">
        <ele>873.108704</ele>
        <time>2016-06-05T09:07:50Z</time>
      </trkpt>
      <trkpt lat="45.70979" lon="4.56194">
        <ele>873.463196</ele>
        <time>2016-06-05T09:07:52Z</time>
      </trkpt>
      <trkpt lat="45.70977" lon="4.56191">
        <ele>873.810913</ele>
        <time>2016-06-05T09:07:54Z</time>
      </trkpt>
      <trkpt lat="45.70976" lon="4.56189">
        <ele>874.217468</ele>
        <time>2016-06-05T09:07:56Z</time>
      </trkpt>
      <trkpt lat="45.70975" lon="4.56186">
        <ele>874.501953</ele>
        <time>2016-06-05T09:07:58Z</time>
      </trkpt>
      <trkpt lat="45.70974" lon="4.56184">
        <ele>874.912903</ele>
        <time>2016-06-05T09:08:00Z</time>
      </trkpt>
      <trkpt lat="45.70973" lon="4.56181">
        <ele>875.33075</ele>
        <time>2016-06-05T09:08:02Z</time>
      </trkpt>
      <trkpt lat="45.70972" lon="4.56179">
        <ele>875.777954</ele>
        <time>2016-06-05T09:08:04Z</time>
      </trkpt>
      <trkpt lat="45.70971" lon="4.56176">
        <ele>876.138062</ele>
        <time>2016-06-05T09:08:06Z</time>
      </trkpt>
      <trkpt lat="45.7097" lon="4.56174">
        <ele>876.540039</ele>
        <time>2016-06-05T09:08:08Z</time>
      </trkpt>
      <trkpt lat="45.70969" lon="4.56172">
        <ele>876.727539</ele>
        <time>2016-06-05T09:08:10Z</time>
      </trkpt>
      <trkpt lat="45.70968" lon="4.5617">
        <ele>877.120483</ele>
        <time>2016-06-05T09:08:12Z</time>
      </trkpt>
      <trkpt lat="45.70968" lon="4.56167">
        <ele>877.502258</ele>
        <time>2016-06-05T09:08:14Z</time>
      </trkpt>
      <trkpt lat="45.70966" lon="4.56164">
        <ele>877.900208</ele>
        <time>2016-06-05T09:08:16Z</time>
      </trkpt>
      <trkpt lat="45.70966" lon="4.56161">
        <ele>878.203979</ele>
        <time>2016-06-05T09:08:18Z</time>
      </trkpt>
      <trkpt lat="45.70965" lon="4.56159">
        <ele>878.597351</ele>
        <time>2016-06-05T09:08:20Z</time>
      </trkpt>
      <trkpt lat="45.70964" lon="4.56156">
        <ele>878.918152</ele>
        <time>2016-06-05T09:08:22Z</time>
      </trkpt>
      <trkpt lat="45.70964" lon="4.56152">
        <ele>879.189087</ele>
        <time>2016-06-05T09:08:24Z</time>
      </trkpt>
      <trkpt lat="45.70962" lon="4.56151">
        <ele>879.530273</ele>
        <time>2016-06-05T09:08:26Z</time>
      </trkpt>
      <trkpt lat="45.70961" lon="4.56148">
        <ele>881.162292</ele>
        <time>2016-06-05T09:08:44Z</time>
      </trkpt>
      <trkpt lat="45.70959" lon="4.56146">
        <ele>881.183899</ele>
        <time>2016-06-05T09:08:46Z</time>
      </trkpt>
      <trkpt lat="45.70957" lon="4.56145">
        <ele>881.258301</ele>
        <time>2016-06-05T09:08:48Z</time>
      </trkpt>
      <trkpt lat="45.70955" lon="4.56144">
        <ele>881.324829</ele>
        <time>2016-06-05T09:08:50Z</time>
      </trkpt>
      <trkpt lat="45.7095" lon="4.56142">
        <ele>881.340698</ele>
        <time>2016-06-05T09:08:52Z</time>
      </trkpt>
      <trkpt lat="45.70944" lon="4.56139">
        <ele>881.216431</ele>
        <time>2016-06-05T09:08:54Z</time>
      </trkpt>
      <trkpt lat="45.70938" lon="4.56136">
        <ele>881.029602</ele>
        <time>2016-06-05T09:08:56Z</time>
      </trkpt>
      <trkpt lat="45.70931" lon="4.56133">
        <ele>880.970886</ele>
        <time>2016-06-05T09:08:58Z</time>
      </trkpt>
      <trkpt lat="45.70923" lon="4.56132">
        <ele>880.739563</ele>
        <time>2016-06-05T09:09:00Z</time>
      </trkpt>
      <trkpt lat="45.70916" lon="4.56131">
        <ele>880.614868</ele>
        <time>2016-06-05T09:09:02Z</time>
      </trkpt>
      <trkpt lat="45.7091" lon="4.56127">
        <ele>880.262695</ele>
        <time>2016-06-05T09:09:04Z</time>
      </trkpt>
      <trkpt lat="45.70903" lon="4.56124">
        <ele>879.862915</ele>
        <time>2016-06-05T09:09:06Z</time>
      </trkpt>
      <trkpt lat="45.70895" lon="4.5612">
        <ele>879.490112</ele>
        <time>2016-06-05T09:09:08Z</time>
      </trkpt>
      <trkpt lat="45.70887" lon="4.56115">
        <ele>879.05188</ele>
        <time>2016-06-05T09:09:10Z</time>
      </trkpt>
      <trkpt lat="45.70879" lon="4.56109">
        <ele>877.869446</ele>
        <time>2016-06-05T09:09:12Z</time>
      </trkpt>
      <trkpt lat="45.70871" lon="4.56102">
        <ele>877.589355</ele>
        <time>2016-06-05T09:09:14Z</time>
      </trkpt>
      <trkpt lat="45.70861" lon="4.56098">
        <ele>877.159668</ele>
        <time>2016-06-05T09:09:16Z</time>
      </trkpt>
      <trkpt lat="45.70852" lon="4.56093">
        <ele>876.100891</ele>
        <time>2016-06-05T09:09:18Z</time>
      </trkpt>
      <trkpt lat="45.70842" lon="4.56088">
        <ele>875.193359</ele>
        <time>2016-06-05T09:09:20Z</time>
      </trkpt>
      <trkpt lat="45.70835" lon="4.56083">
        <ele>874.411987</ele>
        <time>2016-06-05T09:09:22Z</time>
      </trkpt>
      <trkpt lat="45.70831" lon="4.56079">
        <ele>873.65271</ele>
        <time>2016-06-05T09:09:24Z</time>
      </trkpt>
      <trkpt lat="45.70828" lon="4.56076">
        <ele>872.952942</ele>
        <time>2016-06-05T09:09:26Z</time>
      </trkpt>
      <trkpt lat="45.70826" lon="4.56074">
        <ele>872.318359</ele>
        <time>2016-06-05T09:09:28Z</time>
      </trkpt>
      <trkpt lat="45.70823" lon="4.56073">
        <ele>871.680664</ele>
        <time>2016-06-05T09:09:30Z</time>
      </trkpt>
      <trkpt lat="45.7082" lon="4.56072">
        <ele>871.100281</ele>
        <time>2016-06-05T09:09:32Z</time>
      </trkpt>
      <trkpt lat="45.70817" lon="4.56071">
        <ele>870.384399</ele>
        <time>2016-06-05T09:09:34Z</time>
      </trkpt>
      <trkpt lat="45.70815" lon="4.5607">
        <ele>869.954712</ele>
        <time>2016-06-05T09:09:36Z</time>
      </trkpt>
      <trkpt lat="45.70812" lon="4.56068">
        <ele>869.588867</ele>
        <time>2016-06-05T09:09:38Z</time>
      </trkpt>
      <trkpt lat="45.70809" lon="4.56067">
        <ele>869.272644</ele>
        <time>2016-06-05T09:09:40Z</time>
      </trkpt>
      <trkpt lat="45.70806" lon="4.56066">
        <ele>869.121216</ele>
        <time>2016-06-05T09:09:42Z</time>
      </trkpt>
      <trkpt lat="45.70803" lon="4.56064">
        <ele>868.753052</ele>
        <time>2016-06-05T09:09:44Z</time>
      </trkpt>
      <trkpt lat="45.708" lon="4.56063">
        <ele>868.561035</ele>
        <time>2016-06-05T09:09:46Z</time>
      </trkpt>
      <trkpt lat="45.70797" lon="4.56062">
        <ele>868.425476</ele>
        <time>2016-06-05T09:09:48Z</time>
      </trkpt>
      <trkpt lat="45.70794" lon="4.56062">
        <ele>868.221802</ele>
        <time>2016-06-05T09:09:50Z</time>
      </trkpt>
      <trkpt lat="45.70792" lon="4.5606">
        <ele>868.034485</ele>
        <time>2016-06-05T09:09:52Z</time>
      </trkpt>
      <trkpt lat="45.7079" lon="4.56059">
        <ele>868.749329</ele>
        <time>2016-06-05T09:09:54Z</time>
      </trkpt>
      <trkpt lat="45.70788" lon="4.56058">
        <ele>868.673462</ele>
        <time>2016-06-05T09:09:56Z</time>
      </trkpt>
      <trkpt lat="45.70786" lon="4.56056">
        <ele>868.973511</ele>
        <time>2016-06-05T09:09:58Z</time>
      </trkpt>
      <trkpt lat="45.70783" lon="4.56055">
        <ele>869.4823</ele>
        <time>2016-06-05T09:10:00Z</time>
      </trkpt>
      <trkpt lat="45.7078" lon="4.56054">
        <ele>869.913269</ele>
        <time>2016-06-05T09:10:02Z</time>
      </trkpt>
      <trkpt lat="45.70778" lon="4.56053">
        <ele>870.287292</ele>
        <time>2016-06-05T09:10:04Z</time>
      </trkpt>
      <trkpt lat="45.70775" lon="4.56052">
        <ele>870.398438</ele>
        <time>2016-06-05T09:10:06Z</time>
      </trkpt>
      <trkpt lat="45.70772" lon="4.56051">
        <ele>870.679688</ele>
        <time>2016-06-05T09:10:08Z</time>
      </trkpt>
      <trkpt lat="45.70769" lon="4.56049">
        <ele>870.933899</ele>
        <time>2016-06-05T09:10:10Z</time>
      </trkpt>
      <trkpt lat="45.70766" lon="4.56048">
        <ele>871.249878</ele>
        <time>2016-06-05T09:10:12Z</time>
      </trkpt>
      <trkpt lat="45.70763" lon="4.56047">
        <ele>871.647278</ele>
        <time>2016-06-05T09:10:14Z</time>
      </trkpt>
      <trkpt lat="45.7076" lon="4.56045">
        <ele>871.944336</ele>
        <time>2016-06-05T09:10:16Z</time>
      </trkpt>
      <trkpt lat="45.70757" lon="4.56044">
        <ele>872.249146</ele>
        <time>2016-06-05T09:10:18Z</time>
      </trkpt>
      <trkpt lat="45.70754" lon="4.56042">
        <ele>872.576355</ele>
        <time>2016-06-05T09:10:20Z</time>
      </trkpt>
      <trkpt lat="45.70752" lon="4.5604">
        <ele>872.68927</ele>
        <time>2016-06-05T09:10:22Z</time>
      </trkpt>
      <trkpt lat="45.70749" lon="4.56038">
        <ele>872.919617</ele>
        <time>2016-06-05T09:10:24Z</time>
      </trkpt>
      <trkpt lat="45.70747" lon="4.56036">
        <ele>873.217651</ele>
        <time>2016-06-05T09:10:26Z</time>
      </trkpt>
      <trkpt lat="45.70744" lon="4.56033">
        <ele>873.608398</ele>
        <time>2016-06-05T09:10:28Z</time>
      </trkpt>
      <trkpt lat="45.70743" lon="4.5603">
        <ele>873.99231</ele>
        <time>2016-06-05T09:10:30Z</time>
      </trkpt>
      <trkpt lat="45.70741" lon="4.56025">
        <ele>874.347351</ele>
        <time>2016-06-05T09:10:32Z</time>
      </trkpt>
      <trkpt lat="45.7074" lon="4.56021">
        <ele>874.588989</ele>
        <time>2016-06-05T09:10:34Z</time>
      </trkpt>
      <trkpt lat="45.70739" lon="4.56017">
        <ele>874.805176</ele>
        <time>2016-06-05T09:10:36Z</time>
      </trkpt>
      <trkpt lat="45.70738" lon="4.56013">
        <ele>875.186829</ele>
        <time>2016-06-05T09:10:38Z</time>
      </trkpt>
      <trkpt lat="45.70737" lon="4.56008">
        <ele>875.51886</ele>
        <time>2016-06-05T09:10:40Z</time>
      </trkpt>
      <trkpt lat="45.70737" lon="4.56004">
        <ele>875.833984</ele>
        <time>2016-06-05T09:10:42Z</time>
      </trkpt>
      <trkpt lat="45.70736" lon="4.56">
        <ele>876.217773</ele>
        <time>2016-06-05T09:10:44Z</time>
      </trkpt>
      <trkpt lat="45.70735" lon="4.55996">
        <ele>876.525574</ele>
        <time>2016-06-05T09:10:46Z</time>
      </trkpt>
      <trkpt lat="45.70734" lon="4.55992">
        <ele>876.888672</ele>
        <time>2016-06-05T09:10:48Z</time>
      </trkpt>
      <trkpt lat="45.70734" lon="4.55988">
        <ele>877.247864</ele>
        <time>2016-06-05T09:10:50Z</time>
      </trkpt>
      <trkpt lat="45.70733" lon="4.55984">
        <ele>877.643372</ele>
        <time>2016-06-05T09:10:52Z</time>
      </trkpt>
      <trkpt lat="45.70731" lon="4.55981">
        <ele>877.986694</ele>
        <time>2016-06-05T09:10:54Z</time>
      </trkpt>
      <trkpt lat="45.7073" lon="4.55977">
        <ele>878.366211</ele>
        <time>2016-06-05T09:10:56Z</time>
      </trkpt>
      <trkpt lat="45.70729" lon="4.55974">
        <ele>878.599915</ele>
        <time>2016-06-05T09:10:58Z</time>
      </trkpt>
      <trkpt lat="45.70729" lon="4.5597">
        <ele>878.923218</ele>
        <time>2016-06-05T09:11:00Z</time>
      </trkpt>
      <trkpt lat="45.70727" lon="4.55966">
        <ele>879.359497</ele>
        <time>2016-06-05T09:11:02Z</time>
      </trkpt>
      <trkpt lat="45.70726" lon="4.55962">
        <ele>879.739075</ele>
        <time>2016-06-05T09:11:04Z</time>
      </trkpt>
      <trkpt lat="45.70725" lon="4.55958">
        <ele>880.132141</ele>
        <time>2016-06-05T09:11:06Z</time>
      </trkpt>
      <trkpt lat="45.70723" lon="4.55953">
        <ele>880.450684</ele>
        <time>2016-06-05T09:11:08Z</time>
      </trkpt>
      <trkpt lat="45.70721" lon="4.55948">
        <ele>880.656372</ele>
        <time>2016-06-05T09:11:10Z</time>
      </trkpt>
      <trkpt lat="45.7072" lon="4.55943">
        <ele>880.875488</ele>
        <time>2016-06-05T09:11:12Z</time>
      </trkpt>
      <trkpt lat="45.70718" lon="4.55938">
        <ele>881.163879</ele>
        <time>2016-06-05T09:11:14Z</time>
      </trkpt>
      <trkpt lat="45.70716" lon="4.55933">
        <ele>881.360962</ele>
        <time>2016-06-05T09:11:16Z</time>
      </trkpt>
      <trkpt lat="45.70715" lon="4.55928">
        <ele>881.68396</ele>
        <time>2016-06-05T09:11:18Z</time>
      </trkpt>
      <trkpt lat="45.70713" lon="4.55923">
        <ele>882.009399</ele>
        <time>2016-06-05T09:11:20Z</time>
      </trkpt>
      <trkpt lat="45.70712" lon="4.55918">
        <ele>882.289551</ele>
        <time>2016-06-05T09:11:22Z</time>
      </trkpt>
      <trkpt lat="45.7071" lon="4.55913">
        <ele>882.48175</ele>
        <time>2016-06-05T09:11:24Z</time>
      </trkpt>
      <trkpt lat="45.70709" lon="4.55909">
        <ele>882.619812</ele>
        <time>2016-06-05T09:11:26Z</time>
      </trkpt>
      <trkpt lat="45.70707" lon="4.55904">
        <ele>882.944214</ele>
        <time>2016-06-05T09:11:28Z</time>
      </trkpt>
      <trkpt lat="45.70706" lon="4.55899">
        <ele>883.195129</ele>
        <time>2016-06-05T09:11:30Z</time>
      </trkpt>
      <trkpt lat="45.70705" lon="4.55894">
        <ele>883.3927</ele>
        <time>2016-06-05T09:11:32Z</time>
      </trkpt>
      <trkpt lat="45.70704" lon="4.55889">
        <ele>883.56427</ele>
        <time>2016-06-05T09:11:34Z</time>
      </trkpt>
      <trkpt lat="45.70702" lon="4.55884">
        <ele>883.729309</ele>
        <time>2016-06-05T09:11:36Z</time>
      </trkpt>
      <trkpt lat="45.70702" lon="4.55879">
        <ele>883.948242</ele>
        <time>2016-06-05T09:11:38Z</time>
      </trkpt>
      <trkpt lat="45.70701" lon="4.55874">
        <ele>884.101074</ele>
        <time>2016-06-05T09:11:40Z</time>
      </trkpt>
      <trkpt lat="45.707" lon="4.55868">
        <ele>884.336243</ele>
        <time>2016-06-05T09:11:42Z</time>
      </trkpt>
      <trkpt lat="45.70698" lon="4.55864">
        <ele>884.469604</ele>
        <time>2016-06-05T09:11:44Z</time>
      </trkpt>
      <trkpt lat="45.70697" lon="4.55859">
        <ele>884.670776</ele>
        <time>2016-06-05T09:11:46Z</time>
      </trkpt>
      <trkpt lat="45.70694" lon="4.55856">
        <ele>884.817749</ele>
        <time>2016-06-05T09:11:48Z</time>
      </trkpt>
      <trkpt lat="45.70691" lon="4.55856">
        <ele>885.052856</ele>
        <time>2016-06-05T09:11:50Z</time>
      </trkpt>
      <trkpt lat="45.70688" lon="4.5586">
        <ele>885.317383</ele>
        <time>2016-06-05T09:11:52Z</time>
      </trkpt>
      <trkpt lat="45.70685" lon="4.55867">
        <ele>885.407837</ele>
        <time>2016-06-05T09:11:54Z</time>
      </trkpt>
      <trkpt lat="45.70681" lon="4.55874">
        <ele>885.543762</ele>
        <time>2016-06-05T09:11:56Z</time>
      </trkpt>
      <trkpt lat="45.70677" lon="4.55881">
        <ele>885.74939</ele>
        <time>2016-06-05T09:11:58Z</time>
      </trkpt>
      <trkpt lat="45.70673" lon="4.55888">
        <ele>885.787903</ele>
        <time>2016-06-05T09:12:00Z</time>
      </trkpt>
      <trkpt lat="45.70669" lon="4.55896">
        <ele>885.968933</ele>
        <time>2016-06-05T09:12:02Z</time>
      </trkpt>
      <trkpt lat="45.70665" lon="4.55903">
        <ele>886.016235</ele>
        <time>2016-06-05T09:12:04Z</time>
      </trkpt>
      <trkpt lat="45.7066" lon="4.55911">
        <ele>885.937317</ele>
        <time>2016-06-05T09:12:06Z</time>
      </trkpt>
      <trkpt lat="45.70656" lon="4.5592">
        <ele>886.055664</ele>
        <time>2016-06-05T09:12:08Z</time>
      </trkpt>
      <trkpt lat="45.70652" lon="4.55929">
        <ele>886.064636</ele>
        <time>2016-06-05T09:12:10Z</time>
      </trkpt>
      <trkpt lat="45.70647" lon="4.55938">
        <ele>886.000366</ele>
        <time>2016-06-05T09:12:12Z</time>
      </trkpt>
      <trkpt lat="45.70643" lon="4.55948">
        <ele>886.047852</ele>
        <time>2016-06-05T09:12:14Z</time>
      </trkpt>
      <trkpt lat="45.70637" lon="4.55958">
        <ele>885.591614</ele>
        <time>2016-06-05T09:12:16Z</time>
      </trkpt>
      <trkpt lat="45.70631" lon="4.55967">
        <ele>885.557617</ele>
        <time>2016-06-05T09:12:18Z</time>
      </trkpt>
      <trkpt lat="45.70626" lon="4.55976">
        <ele>885.422058</ele>
        <time>2016-06-05T09:12:20Z</time>
      </trkpt>
      <trkpt lat="45.70619" lon="4.55986">
        <ele>885.235168</ele>
        <time>2016-06-05T09:12:22Z</time>
      </trkpt>
      <trkpt lat="45.7061" lon="4.55995">
        <ele>885.099426</ele>
        <time>2016-06-05T09:12:24Z</time>
      </trkpt>
      <trkpt lat="45.70601" lon="4.56004">
        <ele>884.823608</ele>
        <time>2016-06-05T09:12:26Z</time>
      </trkpt>
      <trkpt lat="45.70591" lon="4.56018">
        <ele>884.513306</ele>
        <time>2016-06-05T09:12:28Z</time>
      </trkpt>
      <trkpt lat="45.7058" lon="4.56033">
        <ele>884.258606</ele>
        <time>2016-06-05T09:12:30Z</time>
      </trkpt>
      <trkpt lat="45.70568" lon="4.56051">
        <ele>883.680054</ele>
        <time>2016-06-05T09:12:32Z</time>
      </trkpt>
      <trkpt lat="45.70557" lon="4.56068">
        <ele>883.017944</ele>
        <time>2016-06-05T09:12:34Z</time>
      </trkpt>
      <trkpt lat="45.70548" lon="4.56083">
        <ele>881.977356</ele>
        <time>2016-06-05T09:12:36Z</time>
      </trkpt>
      <trkpt lat="45.70539" lon="4.56099">
        <ele>881.697266</ele>
        <time>2016-06-05T09:12:38Z</time>
      </trkpt>
      <trkpt lat="45.70531" lon="4.56111">
        <ele>881.057007</ele>
        <time>2016-06-05T09:12:40Z</time>
      </trkpt>
      <trkpt lat="45.70525" lon="4.56118">
        <ele>880.126587</ele>
        <time>2016-06-05T09:12:42Z</time>
      </trkpt>
      <trkpt lat="45.70519" lon="4.56123">
        <ele>879.186646</ele>
        <time>2016-06-05T09:12:44Z</time>
      </trkpt>
      <trkpt lat="45.70514" lon="4.56134">
        <ele>878.414673</ele>
        <time>2016-06-05T09:12:46Z</time>
      </trkpt>
      <trkpt lat="45.70509" lon="4.56148">
        <ele>877.502441</ele>
        <time>2016-06-05T09:12:48Z</time>
      </trkpt>
      <trkpt lat="45.70501" lon="4.56163">
        <ele>876.407104</ele>
        <time>2016-06-05T09:12:50Z</time>
      </trkpt>
      <trkpt lat="45.70494" lon="4.56179">
        <ele>875.289185</ele>
        <time>2016-06-05T09:12:52Z</time>
      </trkpt>
      <trkpt lat="45.70487" lon="4.56191">
        <ele>874.117493</ele>
        <time>2016-06-05T09:12:54Z</time>
      </trkpt>
      <trkpt lat="45.70483" lon="4.56199">
        <ele>872.981628</ele>
        <time>2016-06-05T09:12:56Z</time>
      </trkpt>
      <trkpt lat="45.70481" lon="4.56205">
        <ele>863.747681</ele>
        <time>2016-06-05T09:13:37Z</time>
      </trkpt>
      <trkpt lat="45.70482" lon="4.56202">
        <ele>863.752136</ele>
        <time>2016-06-05T09:13:39Z</time>
      </trkpt>
      <trkpt lat="45.7048" lon="4.56202">
        <ele>863.515137</ele>
        <time>2016-06-05T09:13:51Z</time>
      </trkpt>
      <trkpt lat="45.70478" lon="4.56204">
        <ele>863.473633</ele>
        <time>2016-06-05T09:13:53Z</time>
      </trkpt>
      <trkpt lat="45.70475" lon="4.56206">
        <ele>863.284302</ele>
        <time>2016-06-05T09:14:00Z</time>
      </trkpt>
      <trkpt lat="45.70474" lon="4.56208">
        <ele>863.189453</ele>
        <time>2016-06-05T09:14:02Z</time>
      </trkpt>
      <trkpt lat="45.70473" lon="4.56209">
        <ele>863.155579</ele>
        <time>2016-06-05T09:14:04Z</time>
      </trkpt>
      <trkpt lat="45.70472" lon="4.56211">
        <ele>863.103333</ele>
        <time>2016-06-05T09:14:06Z</time>
      </trkpt>
      <trkpt lat="45.70472" lon="4.56212">
        <ele>863.056152</ele>
        <time>2016-06-05T09:14:08Z</time>
      </trkpt>
      <trkpt lat="45.7047" lon="4.56214">
        <ele>863.060913</ele>
        <time>2016-06-05T09:14:10Z</time>
      </trkpt>
      <trkpt lat="45.70469" lon="4.56216">
        <ele>863.01355</ele>
        <time>2016-06-05T09:14:12Z</time>
      </trkpt>
      <trkpt lat="45.70469" lon="4.56218">
        <ele>863.015808</ele>
        <time>2016-06-05T09:14:14Z</time>
      </trkpt>
      <trkpt lat="45.70467" lon="4.56221">
        <ele>862.933411</ele>
        <time>2016-06-05T09:14:16Z</time>
      </trkpt>
      <trkpt lat="45.70465" lon="4.56222">
        <ele>862.899536</ele>
        <time>2016-06-05T09:14:18Z</time>
      </trkpt>
      <trkpt lat="45.70459" lon="4.56229">
        <ele>861.07782</ele>
        <time>2016-06-05T09:15:03Z</time>
      </trkpt>
      <trkpt lat="45.70454" lon="4.56236">
        <ele>860.966003</ele>
        <time>2016-06-05T09:15:05Z</time>
      </trkpt>
      <trkpt lat="45.70449" lon="4.5624">
        <ele>860.810364</ele>
        <time>2016-06-05T09:15:07Z</time>
      </trkpt>
      <trkpt lat="45.70443" lon="4.56244">
        <ele>860.659302</ele>
        <time>2016-06-05T09:15:09Z</time>
      </trkpt>
      <trkpt lat="45.70437" lon="4.56249">
        <ele>860.54657</ele>
        <time>2016-06-05T09:15:11Z</time>
      </trkpt>
      <trkpt lat="45.70432" lon="4.56253">
        <ele>860.632996</ele>
        <time>2016-06-05T09:15:13Z</time>
      </trkpt>
      <trkpt lat="45.70426" lon="4.56257">
        <ele>860.630737</ele>
        <time>2016-06-05T09:15:15Z</time>
      </trkpt>
      <trkpt lat="45.70419" lon="4.56261">
        <ele>860.461609</ele>
        <time>2016-06-05T09:15:17Z</time>
      </trkpt>
      <trkpt lat="45.70412" lon="4.56265">
        <ele>860.274414</ele>
        <time>2016-06-05T09:15:19Z</time>
      </trkpt>
      <trkpt lat="45.70405" lon="4.5627">
        <ele>860.141418</ele>
        <time>2016-06-05T09:15:21Z</time>
      </trkpt>
      <trkpt lat="45.70398" lon="4.56273">
        <ele>859.859558</ele>
        <time>2016-06-05T09:15:23Z</time>
      </trkpt>
      <trkpt lat="45.7039" lon="4.56278">
        <ele>859.779907</ele>
        <time>2016-06-05T09:15:25Z</time>
      </trkpt>
      <trkpt lat="45.70383" lon="4.56283">
        <ele>859.637695</ele>
        <time>2016-06-05T09:15:27Z</time>
      </trkpt>
      <trkpt lat="45.70377" lon="4.56289">
        <ele>859.565063</ele>
        <time>2016-06-05T09:15:29Z</time>
      </trkpt>
      <trkpt lat="45.70372" lon="4.56293">
        <ele>859.407104</ele>
        <time>2016-06-05T09:15:31Z</time>
      </trkpt>
      <trkpt lat="45.70368" lon="4.56296">
        <ele>859.362</ele>
        <time>2016-06-05T09:15:33Z</time>
      </trkpt>
      <trkpt lat="45.70366" lon="4.56298">
        <ele>859.208984</ele>
        <time>2016-06-05T09:15:35Z</time>
      </trkpt>
      <trkpt lat="45.70364" lon="4.56302">
        <ele>859.109741</ele>
        <time>2016-06-05T09:15:37Z</time>
      </trkpt>
      <trkpt lat="45.70362" lon="4.56306">
        <ele>859.078735</ele>
        <time>2016-06-05T09:15:39Z</time>
      </trkpt>
      <trkpt lat="45.70359" lon="4.56308">
        <ele>859.203735</ele>
        <time>2016-06-05T09:15:41Z</time>
      </trkpt>
      <trkpt lat="45.70353" lon="4.56311">
        <ele>859.262329</ele>
        <time>2016-06-05T09:15:43Z</time>
      </trkpt>
      <trkpt lat="45.70347" lon="4.56315">
        <ele>859.31189</ele>
        <time>2016-06-05T09:15:45Z</time>
      </trkpt>
      <trkpt lat="45.7034" lon="4.5632">
        <ele>859.534302</ele>
        <time>2016-06-05T09:15:47Z</time>
      </trkpt>
      <trkpt lat="45.70334" lon="4.56325">
        <ele>859.606445</ele>
        <time>2016-06-05T09:15:49Z</time>
      </trkpt>
      <trkpt lat="45.70327" lon="4.5633">
        <ele>859.565796</ele>
        <time>2016-06-05T09:15:51Z</time>
      </trkpt>
      <trkpt lat="45.7032" lon="4.56334">
        <ele>859.753052</ele>
        <time>2016-06-05T09:15:53Z</time>
      </trkpt>
      <trkpt lat="45.70313" lon="4.56337">
        <ele>859.588379</ele>
        <time>2016-06-05T09:15:55Z</time>
      </trkpt>
      <trkpt lat="45.70305" lon="4.5634">
        <ele>859.534302</ele>
        <time>2016-06-05T09:15:57Z</time>
      </trkpt>
      <trkpt lat="45.70299" lon="4.56344">
        <ele>859.649292</ele>
        <time>2016-06-05T09:15:59Z</time>
      </trkpt>
      <trkpt lat="45.70294" lon="4.56347">
        <ele>859.786804</ele>
        <time>2016-06-05T09:16:01Z</time>
      </trkpt>
      <trkpt lat="45.70289" lon="4.56349">
        <ele>859.987488</ele>
        <time>2016-06-05T09:16:03Z</time>
      </trkpt>
      <trkpt lat="45.70283" lon="4.56351">
        <ele>860.111511</ele>
        <time>2016-06-05T09:16:05Z</time>
      </trkpt>
      <trkpt lat="45.70278" lon="4.56353">
        <ele>860.195313</ele>
        <time>2016-06-05T09:16:07Z</time>
      </trkpt>
      <trkpt lat="45.70274" lon="4.56354">
        <ele>860.292297</ele>
        <time>2016-06-05T09:16:09Z</time>
      </trkpt>
      <trkpt lat="45.70269" lon="4.56355">
        <ele>860.350952</ele>
        <time>2016-06-05T09:16:11Z</time>
      </trkpt>
      <trkpt lat="45.70263" lon="4.56357">
        <ele>860.489929</ele>
        <time>2016-06-05T09:16:13Z</time>
      </trkpt>
      <trkpt lat="45.70255" lon="4.56358">
        <ele>860.548523</ele>
        <time>2016-06-05T09:16:15Z</time>
      </trkpt>
      <trkpt lat="45.70247" lon="4.56358">
        <ele>860.710266</ele>
        <time>2016-06-05T09:16:17Z</time>
      </trkpt>
      <trkpt lat="45.70239" lon="4.56359">
        <ele>860.965149</ele>
        <time>2016-06-05T09:16:19Z</time>
      </trkpt>
      <trkpt lat="45.70231" lon="4.5636">
        <ele>861.123169</ele>
        <time>2016-06-05T09:16:21Z</time>
      </trkpt>
      <trkpt lat="45.70224" lon="4.56362">
        <ele>860.737671</ele>
        <time>2016-06-05T09:16:23Z</time>
      </trkpt>
      <trkpt lat="45.70218" lon="4.56363">
        <ele>860.730835</ele>
        <time>2016-06-05T09:16:25Z</time>
      </trkpt>
      <trkpt lat="45.70211" lon="4.56365">
        <ele>860.599976</ele>
        <time>2016-06-05T09:16:27Z</time>
      </trkpt>
      <trkpt lat="45.70204" lon="4.56368">
        <ele>860.439331</ele>
        <time>2016-06-05T09:16:29Z</time>
      </trkpt>
      <trkpt lat="45.702" lon="4.56371">
        <ele>860.495728</ele>
        <time>2016-06-05T09:16:31Z</time>
      </trkpt>
      <trkpt lat="45.70197" lon="4.56374">
        <ele>860.628784</ele>
        <time>2016-06-05T09:16:33Z</time>
      </trkpt>
      <trkpt lat="45.70194" lon="4.56376">
        <ele>860.649109</ele>
        <time>2016-06-05T09:16:35Z</time>
      </trkpt>
      <trkpt lat="45.7019" lon="4.56378">
        <ele>860.815796</ele>
        <time>2016-06-05T09:16:37Z</time>
      </trkpt>
      <trkpt lat="45.70186" lon="4.56381">
        <ele>860.953796</ele>
        <time>2016-06-05T09:16:39Z</time>
      </trkpt>
      <trkpt lat="45.70183" lon="4.56384">
        <ele>860.829773</ele>
        <time>2016-06-05T09:16:41Z</time>
      </trkpt>
      <trkpt lat="45.7018" lon="4.56387">
        <ele>860.768921</ele>
        <time>2016-06-05T09:16:43Z</time>
      </trkpt>
      <trkpt lat="45.70176" lon="4.56391">
        <ele>860.862915</ele>
        <time>2016-06-05T09:16:45Z</time>
      </trkpt>
      <trkpt lat="45.70173" lon="4.56396">
        <ele>860.894836</ele>
        <time>2016-06-05T09:16:47Z</time>
      </trkpt>
      <trkpt lat="45.7017" lon="4.56401">
        <ele>860.946655</ele>
        <time>2016-06-05T09:16:49Z</time>
      </trkpt>
      <trkpt lat="45.70167" lon="4.56405">
        <ele>861.014526</ele>
        <time>2016-06-05T09:16:51Z</time>
      </trkpt>
      <trkpt lat="45.70165" lon="4.56411">
        <ele>861.109253</ele>
        <time>2016-06-05T09:16:53Z</time>
      </trkpt>
      <trkpt lat="45.70162" lon="4.56416">
        <ele>861.256714</ele>
        <time>2016-06-05T09:16:55Z</time>
      </trkpt>
      <trkpt lat="45.7016" lon="4.56421">
        <ele>861.4823</ele>
        <time>2016-06-05T09:16:57Z</time>
      </trkpt>
      <trkpt lat="45.70159" lon="4.56428">
        <ele>861.622864</ele>
        <time>2016-06-05T09:16:59Z</time>
      </trkpt>
      <trkpt lat="45.70157" lon="4.56434">
        <ele>861.823608</ele>
        <time>2016-06-05T09:17:01Z</time>
      </trkpt>
      <trkpt lat="45.70156" lon="4.56441">
        <ele>861.879883</ele>
        <time>2016-06-05T09:17:03Z</time>
      </trkpt>
      <trkpt lat="45.70155" lon="4.56448">
        <ele>862.371887</ele>
        <time>2016-06-05T09:17:05Z</time>
      </trkpt>
      <trkpt lat="45.70153" lon="4.56458">
        <ele>862.532227</ele>
        <time>2016-06-05T09:17:07Z</time>
      </trkpt>
      <trkpt lat="45.70153" lon="4.56471">
        <ele>862.893555</ele>
        <time>2016-06-05T09:17:09Z</time>
      </trkpt>
      <trkpt lat="45.70153" lon="4.56479">
        <ele>862.855164</ele>
        <time>2016-06-05T09:17:11Z</time>
      </trkpt>
      <trkpt lat="45.70154" lon="4.56487">
        <ele>863.042847</ele>
        <time>2016-06-05T09:17:13Z</time>
      </trkpt>
      <trkpt lat="45.70153" lon="4.56495">
        <ele>863.063171</ele>
        <time>2016-06-05T09:17:15Z</time>
      </trkpt>
      <trkpt lat="45.70156" lon="4.56506">
        <ele>863.128601</ele>
        <time>2016-06-05T09:17:17Z</time>
      </trkpt>
      <trkpt lat="45.7016" lon="4.56515">
        <ele>863.293579</ele>
        <time>2016-06-05T09:17:19Z</time>
      </trkpt>
      <trkpt lat="45.70164" lon="4.56528">
        <ele>863.526733</ele>
        <time>2016-06-05T09:17:21Z</time>
      </trkpt>
      <trkpt lat="45.70169" lon="4.56541">
        <ele>863.772583</ele>
        <time>2016-06-05T09:17:23Z</time>
      </trkpt>
      <trkpt lat="45.70174" lon="4.56557">
        <ele>864.040894</ele>
        <time>2016-06-05T09:17:25Z</time>
      </trkpt>
      <trkpt lat="45.7018" lon="4.56571">
        <ele>864.217651</ele>
        <time>2016-06-05T09:17:27Z</time>
      </trkpt>
      <trkpt lat="45.70186" lon="4.56584">
        <ele>864.269531</ele>
        <time>2016-06-05T09:17:29Z</time>
      </trkpt>
      <trkpt lat="45.70192" lon="4.56594">
        <ele>864.140808</ele>
        <time>2016-06-05T09:17:31Z</time>
      </trkpt>
      <trkpt lat="45.70199" lon="4.56605">
        <ele>864.262573</ele>
        <time>2016-06-05T09:17:33Z</time>
      </trkpt>
      <trkpt lat="45.70207" lon="4.56616">
        <ele>864.19043</ele>
        <time>2016-06-05T09:17:35Z</time>
      </trkpt>
      <trkpt lat="45.70216" lon="4.56623">
        <ele>864.164246</ele>
        <time>2016-06-05T09:17:37Z</time>
      </trkpt>
      <trkpt lat="45.70226" lon="4.56628">
        <ele>863.627625</ele>
        <time>2016-06-05T09:17:39Z</time>
      </trkpt>
      <trkpt lat="45.70234" lon="4.56634">
        <ele>863.302917</ele>
        <time>2016-06-05T09:17:41Z</time>
      </trkpt>
      <trkpt lat="45.70245" lon="4.56645">
        <ele>862.76825</ele>
        <time>2016-06-05T09:17:43Z</time>
      </trkpt>
      <trkpt lat="45.70256" lon="4.56658">
        <ele>862.540833</ele>
        <time>2016-06-05T09:17:45Z</time>
      </trkpt>
      <trkpt lat="45.70265" lon="4.56672">
        <ele>862.215637</ele>
        <time>2016-06-05T09:17:47Z</time>
      </trkpt>
      <trkpt lat="45.70272" lon="4.56686">
        <ele>861.899414</ele>
        <time>2016-06-05T09:17:49Z</time>
      </trkpt>
      <trkpt lat="45.70275" lon="4.56701">
        <ele>861.563293</ele>
        <time>2016-06-05T09:17:51Z</time>
      </trkpt>
      <trkpt lat="45.70278" lon="4.56716">
        <ele>861.145691</ele>
        <time>2016-06-05T09:17:53Z</time>
      </trkpt>
      <trkpt lat="45.70281" lon="4.56731">
        <ele>860.942749</ele>
        <time>2016-06-05T09:17:55Z</time>
      </trkpt>
      <trkpt lat="45.70285" lon="4.56748">
        <ele>860.582031</ele>
        <time>2016-06-05T09:17:57Z</time>
      </trkpt>
      <trkpt lat="45.70292" lon="4.56762">
        <ele>859.975281</ele>
        <time>2016-06-05T09:17:59Z</time>
      </trkpt>
      <trkpt lat="45.70299" lon="4.56775">
        <ele>858.786499</ele>
        <time>2016-06-05T09:18:01Z</time>
      </trkpt>
      <trkpt lat="45.70305" lon="4.56789">
        <ele>858.15686</ele>
        <time>2016-06-05T09:18:03Z</time>
      </trkpt>
      <trkpt lat="45.7031" lon="4.56806">
        <ele>857.545776</ele>
        <time>2016-06-05T09:18:05Z</time>
      </trkpt>
      <trkpt lat="45.70314" lon="4.56821">
        <ele>856.952942</ele>
        <time>2016-06-05T09:18:07Z</time>
      </trkpt>
      <trkpt lat="45.70316" lon="4.56837">
        <ele>856.233582</ele>
        <time>2016-06-05T09:18:09Z</time>
      </trkpt>
      <trkpt lat="45.70316" lon="4.56852">
        <ele>855.588867</ele>
        <time>2016-06-05T09:18:11Z</time>
      </trkpt>
      <trkpt lat="45.70318" lon="4.56866">
        <ele>855.302612</ele>
        <time>2016-06-05T09:18:13Z</time>
      </trkpt>
      <trkpt lat="45.7032" lon="4.5688">
        <ele>854.479858</ele>
        <time>2016-06-05T09:18:15Z</time>
      </trkpt>
      <trkpt lat="45.70324" lon="4.56894">
        <ele>853.804993</ele>
        <time>2016-06-05T09:18:17Z</time>
      </trkpt>
      <trkpt lat="45.70329" lon="4.56907">
        <ele>853.379028</ele>
        <time>2016-06-05T09:18:19Z</time>
      </trkpt>
      <trkpt lat="45.70333" lon="4.56919">
        <ele>852.541138</ele>
        <time>2016-06-05T09:18:21Z</time>
      </trkpt>
      <trkpt lat="45.70335" lon="4.56934">
        <ele>852.237</ele>
        <time>2016-06-05T09:18:23Z</time>
      </trkpt>
      <trkpt lat="45.70337" lon="4.56952">
        <ele>851.827637</ele>
        <time>2016-06-05T09:18:25Z</time>
      </trkpt>
      <trkpt lat="45.70341" lon="4.56971">
        <ele>851.267761</ele>
        <time>2016-06-05T09:18:27Z</time>
      </trkpt>
      <trkpt lat="45.70345" lon="4.56991">
        <ele>850.860046</ele>
        <time>2016-06-05T09:18:29Z</time>
      </trkpt>
      <trkpt lat="45.70347" lon="4.5701">
        <ele>850.022827</ele>
        <time>2016-06-05T09:18:31Z</time>
      </trkpt>
      <trkpt lat="45.70351" lon="4.57027">
        <ele>848.977844</ele>
        <time>2016-06-05T09:18:33Z</time>
      </trkpt>
      <trkpt lat="45.70354" lon="4.57039">
        <ele>849.221558</ele>
        <time>2016-06-05T09:18:35Z</time>
      </trkpt>
      <trkpt lat="45.70356" lon="4.57056">
        <ele>848.998535</ele>
        <time>2016-06-05T09:18:37Z</time>
      </trkpt>
      <trkpt lat="45.70361" lon="4.57074">
        <ele>848.534485</ele>
        <time>2016-06-05T09:18:39Z</time>
      </trkpt>
      <trkpt lat="45.70365" lon="4.57093">
        <ele>848.146973</ele>
        <time>2016-06-05T09:18:41Z</time>
      </trkpt>
      <trkpt lat="45.70365" lon="4.57114">
        <ele>848.694946</ele>
        <time>2016-06-05T09:18:43Z</time>
      </trkpt>
      <trkpt lat="45.70367" lon="4.57134">
        <ele>848.798706</ele>
        <time>2016-06-05T09:18:45Z</time>
      </trkpt>
      <trkpt lat="45.7037" lon="4.57156">
        <ele>848.213074</ele>
        <time>2016-06-05T09:18:47Z</time>
      </trkpt>
      <trkpt lat="45.70371" lon="4.57178">
        <ele>848.213074</ele>
        <time>2016-06-05T09:18:49Z</time>
      </trkpt>
      <trkpt lat="45.70369" lon="4.57201">
        <ele>847.884644</ele>
        <time>2016-06-05T09:18:51Z</time>
      </trkpt>
      <trkpt lat="45.70369" lon="4.57225">
        <ele>847.728394</ele>
        <time>2016-06-05T09:18:53Z</time>
      </trkpt>
      <trkpt lat="45.70369" lon="4.57248">
        <ele>846.72229</ele>
        <time>2016-06-05T09:18:55Z</time>
      </trkpt>
      <trkpt lat="45.70369" lon="4.5727">
        <ele>846.974487</ele>
        <time>2016-06-05T09:18:57Z</time>
      </trkpt>
      <trkpt lat="45.70369" lon="4.5729">
        <ele>847.416199</ele>
        <time>2016-06-05T09:18:59Z</time>
      </trkpt>
      <trkpt lat="45.70368" lon="4.5731">
        <ele>847.303711</ele>
        <time>2016-06-05T09:19:01Z</time>
      </trkpt>
      <trkpt lat="45.70367" lon="4.5733">
        <ele>847.596375</ele>
        <time>2016-06-05T09:19:03Z</time>
      </trkpt>
      <trkpt lat="45.70364" lon="4.57349">
        <ele>847.654175</ele>
        <time>2016-06-05T09:19:05Z</time>
      </trkpt>
      <trkpt lat="45.70362" lon="4.57371">
        <ele>847.693054</ele>
        <time>2016-06-05T09:19:07Z</time>
      </trkpt>
      <trkpt lat="45.70362" lon="4.57393">
        <ele>847.312317</ele>
        <time>2016-06-05T09:19:09Z</time>
      </trkpt>
      <trkpt lat="45.70362" lon="4.57415">
        <ele>847.053345</ele>
        <time>2016-06-05T09:19:11Z</time>
      </trkpt>
      <trkpt lat="45.70363" lon="4.57438">
        <ele>847.523621</ele>
        <time>2016-06-05T09:19:13Z</time>
      </trkpt>
      <trkpt lat="45.70368" lon="4.57458">
        <ele>848.042969</ele>
        <time>2016-06-05T09:19:15Z</time>
      </trkpt>
      <trkpt lat="45.70371" lon="4.57476">
        <ele>847.042358</ele>
        <time>2016-06-05T09:19:17Z</time>
      </trkpt>
      <trkpt lat="45.70375" lon="4.57495">
        <ele>846.686523</ele>
        <time>2016-06-05T09:19:19Z</time>
      </trkpt>
      <trkpt lat="45.70381" lon="4.57512">
        <ele>846.750793</ele>
        <time>2016-06-05T09:19:21Z</time>
      </trkpt>
      <trkpt lat="45.70385" lon="4.57529">
        <ele>846.679321</ele>
        <time>2016-06-05T09:19:23Z</time>
      </trkpt>
      <trkpt lat="45.70389" lon="4.57547">
        <ele>846.361694</ele>
        <time>2016-06-05T09:19:25Z</time>
      </trkpt>
      <trkpt lat="45.70393" lon="4.57564">
        <ele>845.845093</ele>
        <time>2016-06-05T09:19:27Z</time>
      </trkpt>
      <trkpt lat="45.70398" lon="4.5758">
        <ele>846.011719</ele>
        <time>2016-06-05T09:19:29Z</time>
      </trkpt>
      <trkpt lat="45.70406" lon="4.57595">
        <ele>845.831543</ele>
        <time>2016-06-05T09:19:31Z</time>
      </trkpt>
      <trkpt lat="45.70417" lon="4.57609">
        <ele>845.362976</ele>
        <time>2016-06-05T09:19:33Z</time>
      </trkpt>
      <trkpt lat="45.70428" lon="4.57621">
        <ele>845.208374</ele>
        <time>2016-06-05T09:19:35Z</time>
      </trkpt>
      <trkpt lat="45.70438" lon="4.57634">
        <ele>845.565796</ele>
        <time>2016-06-05T09:19:37Z</time>
      </trkpt>
      <trkpt lat="45.70446" lon="4.57652">
        <ele>844.746277</ele>
        <time>2016-06-05T09:19:39Z</time>
      </trkpt>
      <trkpt lat="45.70454" lon="4.57671">
        <ele>843.651733</ele>
        <time>2016-06-05T09:19:41Z</time>
      </trkpt>
      <trkpt lat="45.70462" lon="4.57688">
        <ele>842.5672</ele>
        <time>2016-06-05T09:19:43Z</time>
      </trkpt>
      <trkpt lat="45.7047" lon="4.577">
        <ele>842.483887</ele>
        <time>2016-06-05T09:19:45Z</time>
      </trkpt>
      <trkpt lat="45.70476" lon="4.57711">
        <ele>841.925415</ele>
        <time>2016-06-05T09:19:47Z</time>
      </trkpt>
      <trkpt lat="45.70479" lon="4.5772">
        <ele>841.340027</ele>
        <time>2016-06-05T09:19:49Z</time>
      </trkpt>
      <trkpt lat="45.70484" lon="4.57727">
        <ele>828.14386</ele>
        <time>2016-06-05T09:21:51Z</time>
      </trkpt>
      <trkpt lat="45.70491" lon="4.57734">
        <ele>827.871887</ele>
        <time>2016-06-05T09:21:53Z</time>
      </trkpt>
      <trkpt lat="45.70496" lon="4.57747">
        <ele>827.586304</ele>
        <time>2016-06-05T09:21:55Z</time>
      </trkpt>
      <trkpt lat="45.70502" lon="4.5776">
        <ele>827.316589</ele>
        <time>2016-06-05T09:21:57Z</time>
      </trkpt>
      <trkpt lat="45.70508" lon="4.57774">
        <ele>826.952515</ele>
        <time>2016-06-05T09:21:59Z</time>
      </trkpt>
      <trkpt lat="45.70515" lon="4.57789">
        <ele>826.641418</ele>
        <time>2016-06-05T09:22:01Z</time>
      </trkpt>
      <trkpt lat="45.70524" lon="4.57805">
        <ele>826.308777</ele>
        <time>2016-06-05T09:22:03Z</time>
      </trkpt>
      <trkpt lat="45.70534" lon="4.57824">
        <ele>825.897461</ele>
        <time>2016-06-05T09:22:05Z</time>
      </trkpt>
      <trkpt lat="45.70545" lon="4.57843">
        <ele>825.542358</ele>
        <time>2016-06-05T09:22:07Z</time>
      </trkpt>
      <trkpt lat="45.70557" lon="4.57864">
        <ele>825.171387</ele>
        <time>2016-06-05T09:22:09Z</time>
      </trkpt>
      <trkpt lat="45.7057" lon="4.57885">
        <ele>824.805054</ele>
        <time>2016-06-05T09:22:11Z</time>
      </trkpt>
      <trkpt lat="45.70582" lon="4.57907">
        <ele>824.443237</ele>
        <time>2016-06-05T09:22:13Z</time>
      </trkpt>
      <trkpt lat="45.70595" lon="4.57931">
        <ele>824.29718</ele>
        <time>2016-06-05T09:22:15Z</time>
      </trkpt>
      <trkpt lat="45.70608" lon="4.57955">
        <ele>823.897278</ele>
        <time>2016-06-05T09:22:17Z</time>
      </trkpt>
      <trkpt lat="45.70618" lon="4.57976">
        <ele>823.196472</ele>
        <time>2016-06-05T09:22:19Z</time>
      </trkpt>
      <trkpt lat="45.70628" lon="4.57997">
        <ele>822.84082</ele>
        <time>2016-06-05T09:22:21Z</time>
      </trkpt>
      <trkpt lat="45.70636" lon="4.5802">
        <ele>822.50293</ele>
        <time>2016-06-05T09:22:23Z</time>
      </trkpt>
      <trkpt lat="45.70646" lon="4.58045">
        <ele>822.064819</ele>
        <time>2016-06-05T09:22:25Z</time>
      </trkpt>
      <trkpt lat="45.70655" lon="4.58073">
        <ele>821.703125</ele>
        <time>2016-06-05T09:22:27Z</time>
      </trkpt>
      <trkpt lat="45.70664" lon="4.58103">
        <ele>821.304504</ele>
        <time>2016-06-05T09:22:29Z</time>
      </trkpt>
      <trkpt lat="45.70672" lon="4.58133">
        <ele>821.002747</ele>
        <time>2016-06-05T09:22:31Z</time>
      </trkpt>
      <trkpt lat="45.70679" lon="4.58164">
        <ele>820.791626</ele>
        <time>2016-06-05T09:22:33Z</time>
      </trkpt>
      <trkpt lat="45.70686" lon="4.58195">
        <ele>820.46106</ele>
        <time>2016-06-05T09:22:35Z</time>
      </trkpt>
      <trkpt lat="45.70692" lon="4.58224">
        <ele>820.072388</ele>
        <time>2016-06-05T09:22:37Z</time>
      </trkpt>
      <trkpt lat="45.70694" lon="4.58255">
        <ele>819.57373</ele>
        <time>2016-06-05T09:22:39Z</time>
      </trkpt>
      <trkpt lat="45.70694" lon="4.58288">
        <ele>819.176147</ele>
        <time>2016-06-05T09:22:41Z</time>
      </trkpt>
      <trkpt lat="45.70691" lon="4.58321">
        <ele>818.760803</ele>
        <time>2016-06-05T09:22:43Z</time>
      </trkpt>
      <trkpt lat="45.70686" lon="4.58353">
        <ele>818.430603</ele>
        <time>2016-06-05T09:22:45Z</time>
      </trkpt>
      <trkpt lat="45.70682" lon="4.58384">
        <ele>818.101379</ele>
        <time>2016-06-05T09:22:47Z</time>
      </trkpt>
      <trkpt lat="45.70678" lon="4.58412">
        <ele>817.659058</ele>
        <time>2016-06-05T09:22:49Z</time>
      </trkpt>
      <trkpt lat="45.70676" lon="4.58436">
        <ele>817.463684</ele>
        <time>2016-06-05T09:22:51Z</time>
      </trkpt>
      <trkpt lat="45.70673" lon="4.58457">
        <ele>817.184692</ele>
        <time>2016-06-05T09:22:53Z</time>
      </trkpt>
      <trkpt lat="45.70669" lon="4.58474">
        <ele>816.769165</ele>
        <time>2016-06-05T09:22:55Z</time>
      </trkpt>
      <trkpt lat="45.70671" lon="4.58491">
        <ele>816.499695</ele>
        <time>2016-06-05T09:22:57Z</time>
      </trkpt>
      <trkpt lat="45.70675" lon="4.58507">
        <ele>816.351501</ele>
        <time>2016-06-05T09:22:59Z</time>
      </trkpt>
      <trkpt lat="45.70678" lon="4.58524">
        <ele>816.3479</ele>
        <time>2016-06-05T09:23:01Z</time>
      </trkpt>
      <trkpt lat="45.7068" lon="4.5854">
        <ele>815.961914</ele>
        <time>2016-06-05T09:23:03Z</time>
      </trkpt>
      <trkpt lat="45.70682" lon="4.58556">
        <ele>815.659607</ele>
        <time>2016-06-05T09:23:05Z</time>
      </trkpt>
      <trkpt lat="45.70683" lon="4.58573">
        <ele>815.409668</ele>
        <time>2016-06-05T09:23:07Z</time>
      </trkpt>
      <trkpt lat="45.70684" lon="4.58591">
        <ele>815.012329</ele>
        <time>2016-06-05T09:23:09Z</time>
      </trkpt>
      <trkpt lat="45.70686" lon="4.58609">
        <ele>814.816895</ele>
        <time>2016-06-05T09:23:11Z</time>
      </trkpt>
      <trkpt lat="45.70687" lon="4.58627">
        <ele>814.402344</ele>
        <time>2016-06-05T09:23:13Z</time>
      </trkpt>
      <trkpt lat="45.70688" lon="4.58643">
        <ele>814.222961</ele>
        <time>2016-06-05T09:23:15Z</time>
      </trkpt>
      <trkpt lat="45.70683" lon="4.58653">
        <ele>813.870483</ele>
        <time>2016-06-05T09:23:17Z</time>
      </trkpt>
      <trkpt lat="45.70677" lon="4.58656">
        <ele>813.724609</ele>
        <time>2016-06-05T09:23:19Z</time>
      </trkpt>
      <trkpt lat="45.70672" lon="4.58657">
        <ele>813.533813</ele>
        <time>2016-06-05T09:23:21Z</time>
      </trkpt>
      <trkpt lat="45.70668" lon="4.58659">
        <ele>813.392395</ele>
        <time>2016-06-05T09:23:23Z</time>
      </trkpt>
      <trkpt lat="45.70664" lon="4.58663">
        <ele>813.227051</ele>
        <time>2016-06-05T09:23:25Z</time>
      </trkpt>
      <trkpt lat="45.70663" lon="4.58669">
        <ele>812.958801</ele>
        <time>2016-06-05T09:23:27Z</time>
      </trkpt>
      <trkpt lat="45.70663" lon="4.58676">
        <ele>812.764526</ele>
        <time>2016-06-05T09:23:29Z</time>
      </trkpt>
      <trkpt lat="45.70663" lon="4.58682">
        <ele>812.587219</ele>
        <time>2016-06-05T09:23:31Z</time>
      </trkpt>
      <trkpt lat="45.70664" lon="4.58689">
        <ele>812.189758</ele>
        <time>2016-06-05T09:23:33Z</time>
      </trkpt>
      <trkpt lat="45.70665" lon="4.58696">
        <ele>811.893921</ele>
        <time>2016-06-05T09:23:35Z</time>
      </trkpt>
      <trkpt lat="45.70665" lon="4.58703">
        <ele>811.723389</ele>
        <time>2016-06-05T09:23:37Z</time>
      </trkpt>
      <trkpt lat="45.70666" lon="4.58711">
        <ele>811.444763</ele>
        <time>2016-06-05T09:23:39Z</time>
      </trkpt>
      <trkpt lat="45.70666" lon="4.58718">
        <ele>811.273193</ele>
        <time>2016-06-05T09:23:41Z</time>
      </trkpt>
      <trkpt lat="45.70667" lon="4.58726">
        <ele>811.120056</ele>
        <time>2016-06-05T09:23:43Z</time>
      </trkpt>
      <trkpt lat="45.70667" lon="4.58734">
        <ele>811.054993</ele>
        <time>2016-06-05T09:23:45Z</time>
      </trkpt>
      <trkpt lat="45.70668" lon="4.58742">
        <ele>810.857544</ele>
        <time>2016-06-05T09:23:47Z</time>
      </trkpt>
      <trkpt lat="45.70667" lon="4.58751">
        <ele>810.658569</ele>
        <time>2016-06-05T09:23:49Z</time>
      </trkpt>
      <trkpt lat="45.70667" lon="4.58759">
        <ele>810.247925</ele>
        <time>2016-06-05T09:23:51Z</time>
      </trkpt>
      <trkpt lat="45.70665" lon="4.58767">
        <ele>809.862</ele>
        <time>2016-06-05T09:23:53Z</time>
      </trkpt>
      <trkpt lat="45.70664" lon="4.58774">
        <ele>809.702759</ele>
        <time>2016-06-05T09:23:55Z</time>
      </trkpt>
      <trkpt lat="45.70661" lon="4.58782">
        <ele>809.2677</ele>
        <time>2016-06-05T09:23:57Z</time>
      </trkpt>
      <trkpt lat="45.70659" lon="4.58789">
        <ele>808.881714</ele>
        <time>2016-06-05T09:23:59Z</time>
      </trkpt>
      <trkpt lat="45.70656" lon="4.58796">
        <ele>808.450989</ele>
        <time>2016-06-05T09:24:01Z</time>
      </trkpt>
      <trkpt lat="45.70653" lon="4.58803">
        <ele>808.058411</ele>
        <time>2016-06-05T09:24:03Z</time>
      </trkpt>
      <trkpt lat="45.7065" lon="4.58809">
        <ele>807.618652</ele>
        <time>2016-06-05T09:24:05Z</time>
      </trkpt>
      <trkpt lat="45.70646" lon="4.58815">
        <ele>807.13739</ele>
        <time>2016-06-05T09:24:07Z</time>
      </trkpt>
      <trkpt lat="45.70643" lon="4.58822">
        <ele>806.639771</ele>
        <time>2016-06-05T09:24:09Z</time>
      </trkpt>
      <trkpt lat="45.70639" lon="4.58829">
        <ele>806.197876</ele>
        <time>2016-06-05T09:24:11Z</time>
      </trkpt>
      <trkpt lat="45.70635" lon="4.58839">
        <ele>805.926453</ele>
        <time>2016-06-05T09:24:13Z</time>
      </trkpt>
      <trkpt lat="45.70631" lon="4.58852">
        <ele>805.457642</ele>
        <time>2016-06-05T09:24:15Z</time>
      </trkpt>
      <trkpt lat="45.70627" lon="4.5887">
        <ele>804.890259</ele>
        <time>2016-06-05T09:24:17Z</time>
      </trkpt>
      <trkpt lat="45.70625" lon="4.5889">
        <ele>804.327271</ele>
        <time>2016-06-05T09:24:19Z</time>
      </trkpt>
      <trkpt lat="45.70625" lon="4.58908">
        <ele>803.757935</ele>
        <time>2016-06-05T09:24:21Z</time>
      </trkpt>
      <trkpt lat="45.70628" lon="4.58926">
        <ele>803.184387</ele>
        <time>2016-06-05T09:24:23Z</time>
      </trkpt>
      <trkpt lat="45.70632" lon="4.58942">
        <ele>802.61322</ele>
        <time>2016-06-05T09:24:25Z</time>
      </trkpt>
      <trkpt lat="45.70635" lon="4.58958">
        <ele>801.895569</ele>
        <time>2016-06-05T09:24:27Z</time>
      </trkpt>
      <trkpt lat="45.70636" lon="4.58973">
        <ele>801.299011</ele>
        <time>2016-06-05T09:24:29Z</time>
      </trkpt>
      <trkpt lat="45.70638" lon="4.58987">
        <ele>800.760925</ele>
        <time>2016-06-05T09:24:31Z</time>
      </trkpt>
      <trkpt lat="45.70639" lon="4.59001">
        <ele>800.276672</ele>
        <time>2016-06-05T09:24:33Z</time>
      </trkpt>
      <trkpt lat="45.70639" lon="4.59014">
        <ele>799.808105</ele>
        <time>2016-06-05T09:24:35Z</time>
      </trkpt>
      <trkpt lat="45.70638" lon="4.59029">
        <ele>799.568237</ele>
        <time>2016-06-05T09:24:37Z</time>
      </trkpt>
      <trkpt lat="45.70636" lon="4.59043">
        <ele>799.170593</ele>
        <time>2016-06-05T09:24:39Z</time>
      </trkpt>
      <trkpt lat="45.70635" lon="4.59057">
        <ele>798.764832</ele>
        <time>2016-06-05T09:24:41Z</time>
      </trkpt>
      <trkpt lat="45.70633" lon="4.59071">
        <ele>798.224731</ele>
        <time>2016-06-05T09:24:43Z</time>
      </trkpt>
      <trkpt lat="45.70631" lon="4.59086">
        <ele>797.731567</ele>
        <time>2016-06-05T09:24:45Z</time>
      </trkpt>
      <trkpt lat="45.7063" lon="4.59098">
        <ele>797.292175</ele>
        <time>2016-06-05T09:24:47Z</time>
      </trkpt>
      <trkpt lat="45.70628" lon="4.59109">
        <ele>796.92688</ele>
        <time>2016-06-05T09:24:49Z</time>
      </trkpt>
      <trkpt lat="45.70626" lon="4.5912">
        <ele>796.614136</ele>
        <time>2016-06-05T09:24:51Z</time>
      </trkpt>
      <trkpt lat="45.70623" lon="4.5913">
        <ele>796.228699</ele>
        <time>2016-06-05T09:24:53Z</time>
      </trkpt>
      <trkpt lat="45.70619" lon="4.5914">
        <ele>795.809692</ele>
        <time>2016-06-05T09:24:55Z</time>
      </trkpt>
      <trkpt lat="45.70614" lon="4.59149">
        <ele>795.487</ele>
        <time>2016-06-05T09:24:57Z</time>
      </trkpt>
      <trkpt lat="45.70609" lon="4.59159">
        <ele>795.025391</ele>
        <time>2016-06-05T09:24:59Z</time>
      </trkpt>
      <trkpt lat="45.70604" lon="4.59168">
        <ele>794.707214</ele>
        <time>2016-06-05T09:25:01Z</time>
      </trkpt>
      <trkpt lat="45.70599" lon="4.59177">
        <ele>794.557129</ele>
        <time>2016-06-05T09:25:03Z</time>
      </trkpt>
      <trkpt lat="45.70593" lon="4.59187">
        <ele>794.193481</ele>
        <time>2016-06-05T09:25:05Z</time>
      </trkpt>
      <trkpt lat="45.70587" lon="4.59196">
        <ele>793.789856</ele>
        <time>2016-06-05T09:25:07Z</time>
      </trkpt>
      <trkpt lat="45.70581" lon="4.59205">
        <ele>793.533813</ele>
        <time>2016-06-05T09:25:09Z</time>
      </trkpt>
      <trkpt lat="45.70575" lon="4.59214">
        <ele>793.211487</ele>
        <time>2016-06-05T09:25:11Z</time>
      </trkpt>
      <trkpt lat="45.7057" lon="4.59223">
        <ele>792.96228</ele>
        <time>2016-06-05T09:25:13Z</time>
      </trkpt>
      <trkpt lat="45.70565" lon="4.59232">
        <ele>792.71582</ele>
        <time>2016-06-05T09:25:15Z</time>
      </trkpt>
      <trkpt lat="45.70559" lon="4.59241">
        <ele>792.400024</ele>
        <time>2016-06-05T09:25:17Z</time>
      </trkpt>
      <trkpt lat="45.70553" lon="4.5925">
        <ele>792.109253</ele>
        <time>2016-06-05T09:25:19Z</time>
      </trkpt>
      <trkpt lat="45.70546" lon="4.59259">
        <ele>791.728394</ele>
        <time>2016-06-05T09:25:21Z</time>
      </trkpt>
      <trkpt lat="45.70539" lon="4.59265">
        <ele>791.602905</ele>
        <time>2016-06-05T09:25:23Z</time>
      </trkpt>
      <trkpt lat="45.70531" lon="4.59271">
        <ele>791.356567</ele>
        <time>2016-06-05T09:25:25Z</time>
      </trkpt>
      <trkpt lat="45.70523" lon="4.59278">
        <ele>791.139282</ele>
        <time>2016-06-05T09:25:27Z</time>
      </trkpt>
      <trkpt lat="45.70515" lon="4.59284">
        <ele>790.948853</ele>
        <time>2016-06-05T09:25:29Z</time>
      </trkpt>
      <trkpt lat="45.70507" lon="4.59289">
        <ele>790.682312</ele>
        <time>2016-06-05T09:25:31Z</time>
      </trkpt>
      <trkpt lat="45.70499" lon="4.59295">
        <ele>790.360962</ele>
        <time>2016-06-05T09:25:33Z</time>
      </trkpt>
      <trkpt lat="45.70492" lon="4.593">
        <ele>790.149353</ele>
        <time>2016-06-05T09:25:35Z</time>
      </trkpt>
      <trkpt lat="45.70485" lon="4.59305">
        <ele>789.896301</ele>
        <time>2016-06-05T09:25:37Z</time>
      </trkpt>
      <trkpt lat="45.70477" lon="4.5931">
        <ele>789.714172</ele>
        <time>2016-06-05T09:25:39Z</time>
      </trkpt>
      <trkpt lat="45.70468" lon="4.59315">
        <ele>789.541748</ele>
        <time>2016-06-05T09:25:41Z</time>
      </trkpt>
      <trkpt lat="45.70459" lon="4.59318">
        <ele>789.210327</ele>
        <time>2016-06-05T09:25:43Z</time>
      </trkpt>
      <trkpt lat="45.70451" lon="4.59319">
        <ele>789.031189</ele>
        <time>2016-06-05T09:25:45Z</time>
      </trkpt>
      <trkpt lat="45.70442" lon="4.59321">
        <ele>788.78479</ele>
        <time>2016-06-05T09:25:47Z</time>
      </trkpt>
      <trkpt lat="45.70433" lon="4.59324">
        <ele>788.751221</ele>
        <time>2016-06-05T09:25:49Z</time>
      </trkpt>
      <trkpt lat="45.70423" lon="4.59328">
        <ele>788.498779</ele>
        <time>2016-06-05T09:25:51Z</time>
      </trkpt>
      <trkpt lat="45.70413" lon="4.59334">
        <ele>788.211914</ele>
        <time>2016-06-05T09:25:53Z</time>
      </trkpt>
      <trkpt lat="45.70403" lon="4.59342">
        <ele>787.773621</ele>
        <time>2016-06-05T09:25:55Z</time>
      </trkpt>
      <trkpt lat="45.70394" lon="4.59353">
        <ele>787.397461</ele>
        <time>2016-06-05T09:25:57Z</time>
      </trkpt>
      <trkpt lat="45.70386" lon="4.59362">
        <ele>787.025879</ele>
        <time>2016-06-05T09:25:59Z</time>
      </trkpt>
      <trkpt lat="45.70378" lon="4.5937">
        <ele>786.632324</ele>
        <time>2016-06-05T09:26:01Z</time>
      </trkpt>
      <trkpt lat="45.70368" lon="4.59378">
        <ele>786.21814</ele>
        <time>2016-06-05T09:26:03Z</time>
      </trkpt>
      <trkpt lat="45.7036" lon="4.59386">
        <ele>785.886719</ele>
        <time>2016-06-05T09:26:05Z</time>
      </trkpt>
      <trkpt lat="45.70353" lon="4.59393">
        <ele>785.629272</ele>
        <time>2016-06-05T09:26:07Z</time>
      </trkpt>
      <trkpt lat="45.70348" lon="4.59399">
        <ele>785.432251</ele>
        <time>2016-06-05T09:26:09Z</time>
      </trkpt>
      <trkpt lat="45.70345" lon="4.59402">
        <ele>784.921875</ele>
        <time>2016-06-05T09:26:11Z</time>
      </trkpt>
      <trkpt lat="45.70342" lon="4.59405">
        <ele>784.561401</ele>
        <time>2016-06-05T09:26:13Z</time>
      </trkpt>
      <trkpt lat="45.70339" lon="4.59408">
        <ele>784.071289</ele>
        <time>2016-06-05T09:26:15Z</time>
      </trkpt>
      <trkpt lat="45.70338" lon="4.5941">
        <ele>782.07428</ele>
        <time>2016-06-05T09:26:26Z</time>
      </trkpt>
      <trkpt lat="45.70329" lon="4.59418">
        <ele>738.526001</ele>
        <time>2016-06-05T09:29:41Z</time>
      </trkpt>
      <trkpt lat="45.70321" lon="4.59427">
        <ele>738.068726</ele>
        <time>2016-06-05T09:29:43Z</time>
      </trkpt>
      <trkpt lat="45.70313" lon="4.59433">
        <ele>737.507324</ele>
        <time>2016-06-05T09:29:45Z</time>
      </trkpt>
      <trkpt lat="45.70303" lon="4.5944">
        <ele>737.387024</ele>
        <time>2016-06-05T09:29:47Z</time>
      </trkpt>
      <trkpt lat="45.70295" lon="4.59449">
        <ele>736.901306</ele>
        <time>2016-06-05T09:29:49Z</time>
      </trkpt>
      <trkpt lat="45.70286" lon="4.5946">
        <ele>736.827881</ele>
        <time>2016-06-05T09:29:51Z</time>
      </trkpt>
      <trkpt lat="45.70278" lon="4.59472">
        <ele>736.291626</ele>
        <time>2016-06-05T09:29:53Z</time>
      </trkpt>
      <trkpt lat="45.70271" lon="4.59483">
        <ele>736.184692</ele>
        <time>2016-06-05T09:29:55Z</time>
      </trkpt>
      <trkpt lat="45.70264" lon="4.59494">
        <ele>736.068787</ele>
        <time>2016-06-05T09:29:57Z</time>
      </trkpt>
      <trkpt lat="45.70257" lon="4.59504">
        <ele>735.725708</ele>
        <time>2016-06-05T09:29:59Z</time>
      </trkpt>
      <trkpt lat="45.7025" lon="4.59514">
        <ele>735.585388</ele>
        <time>2016-06-05T09:30:01Z</time>
      </trkpt>
      <trkpt lat="45.70244" lon="4.59525">
        <ele>735.53717</ele>
        <time>2016-06-05T09:30:03Z</time>
      </trkpt>
      <trkpt lat="45.70237" lon="4.59537">
        <ele>735.314392</ele>
        <time>2016-06-05T09:30:05Z</time>
      </trkpt>
      <trkpt lat="45.70232" lon="4.59546">
        <ele>734.866089</ele>
        <time>2016-06-05T09:30:07Z</time>
      </trkpt>
      <trkpt lat="45.70227" lon="4.59555">
        <ele>734.681213</ele>
        <time>2016-06-05T09:30:09Z</time>
      </trkpt>
      <trkpt lat="45.70224" lon="4.59561">
        <ele>734.453308</ele>
        <time>2016-06-05T09:30:11Z</time>
      </trkpt>
      <trkpt lat="45.70219" lon="4.59566">
        <ele>734.382019</ele>
        <time>2016-06-05T09:30:13Z</time>
      </trkpt>
      <trkpt lat="45.70213" lon="4.59574">
        <ele>734.110291</ele>
        <time>2016-06-05T09:30:15Z</time>
      </trkpt>
      <trkpt lat="45.70211" lon="4.59582">
        <ele>734.085815</ele>
        <time>2016-06-05T09:30:17Z</time>
      </trkpt>
      <trkpt lat="45.70208" lon="4.59589">
        <ele>734.090271</ele>
        <time>2016-06-05T09:30:19Z</time>
      </trkpt>
      <trkpt lat="45.70205" lon="4.59598">
        <ele>734.150391</ele>
        <time>2016-06-05T09:30:21Z</time>
      </trkpt>
      <trkpt lat="45.702" lon="4.59608">
        <ele>733.948486</ele>
        <time>2016-06-05T09:30:23Z</time>
      </trkpt>
      <trkpt lat="45.70197" lon="4.59618">
        <ele>734.096008</ele>
        <time>2016-06-05T09:30:25Z</time>
      </trkpt>
      <trkpt lat="45.70194" lon="4.59628">
        <ele>734.165039</ele>
        <time>2016-06-05T09:30:27Z</time>
      </trkpt>
      <trkpt lat="45.7019" lon="4.59638">
        <ele>734.054321</ele>
        <time>2016-06-05T09:30:29Z</time>
      </trkpt>
      <trkpt lat="45.70187" lon="4.59647">
        <ele>734.370667</ele>
        <time>2016-06-05T09:30:31Z</time>
      </trkpt>
      <trkpt lat="45.70184" lon="4.59657">
        <ele>734.292114</ele>
        <time>2016-06-05T09:30:33Z</time>
      </trkpt>
      <trkpt lat="45.70181" lon="4.59666">
        <ele>734.755493</ele>
        <time>2016-06-05T09:30:35Z</time>
      </trkpt>
      <trkpt lat="45.70178" lon="4.59674">
        <ele>734.71521</ele>
        <time>2016-06-05T09:30:37Z</time>
      </trkpt>
      <trkpt lat="45.70175" lon="4.59681">
        <ele>734.721802</ele>
        <time>2016-06-05T09:30:39Z</time>
      </trkpt>
      <trkpt lat="45.70174" lon="4.59686">
        <ele>735.013672</ele>
        <time>2016-06-05T09:30:41Z</time>
      </trkpt>
      <trkpt lat="45.70172" lon="4.59691">
        <ele>735.133911</ele>
        <time>2016-06-05T09:30:43Z</time>
      </trkpt>
      <trkpt lat="45.70169" lon="4.59697">
        <ele>735.154602</ele>
        <time>2016-06-05T09:30:45Z</time>
      </trkpt>
      <trkpt lat="45.70168" lon="4.59702">
        <ele>735.343933</ele>
        <time>2016-06-05T09:30:47Z</time>
      </trkpt>
      <trkpt lat="45.70166" lon="4.59707">
        <ele>735.862122</ele>
        <time>2016-06-05T09:30:49Z</time>
      </trkpt>
      <trkpt lat="45.70163" lon="4.59713">
        <ele>736.109497</ele>
        <time>2016-06-05T09:30:51Z</time>
      </trkpt>
      <trkpt lat="45.70159" lon="4.5972">
        <ele>736.443359</ele>
        <time>2016-06-05T09:30:53Z</time>
      </trkpt>
      <trkpt lat="45.70153" lon="4.5973">
        <ele>736.639465</ele>
        <time>2016-06-05T09:30:55Z</time>
      </trkpt>
      <trkpt lat="45.70147" lon="4.59742">
        <ele>737.165222</ele>
        <time>2016-06-05T09:30:57Z</time>
      </trkpt>
      <trkpt lat="45.70139" lon="4.59755">
        <ele>737.321167</ele>
        <time>2016-06-05T09:30:59Z</time>
      </trkpt>
      <trkpt lat="45.70132" lon="4.59767">
        <ele>737.47937</ele>
        <time>2016-06-05T09:31:01Z</time>
      </trkpt>
      <trkpt lat="45.70125" lon="4.5978">
        <ele>737.819336</ele>
        <time>2016-06-05T09:31:03Z</time>
      </trkpt>
      <trkpt lat="45.70119" lon="4.59793">
        <ele>738.04657</ele>
        <time>2016-06-05T09:31:05Z</time>
      </trkpt>
      <trkpt lat="45.70113" lon="4.59808">
        <ele>738.34729</ele>
        <time>2016-06-05T09:31:07Z</time>
      </trkpt>
      <trkpt lat="45.70108" lon="4.59818">
        <ele>738.52771</ele>
        <time>2016-06-05T09:31:09Z</time>
      </trkpt>
      <trkpt lat="45.70102" lon="4.59827">
        <ele>738.665649</ele>
        <time>2016-06-05T09:31:11Z</time>
      </trkpt>
      <trkpt lat="45.70098" lon="4.59836">
        <ele>738.854797</ele>
        <time>2016-06-05T09:31:13Z</time>
      </trkpt>
      <trkpt lat="45.70095" lon="4.59843">
        <ele>738.972473</ele>
        <time>2016-06-05T09:31:15Z</time>
      </trkpt>
      <trkpt lat="45.70091" lon="4.59851">
        <ele>739.009766</ele>
        <time>2016-06-05T09:31:17Z</time>
      </trkpt>
      <trkpt lat="45.70087" lon="4.59859">
        <ele>739.17041</ele>
        <time>2016-06-05T09:31:19Z</time>
      </trkpt>
      <trkpt lat="45.70083" lon="4.59868">
        <ele>739.482544</ele>
        <time>2016-06-05T09:31:21Z</time>
      </trkpt>
      <trkpt lat="45.70078" lon="4.59877">
        <ele>739.745544</ele>
        <time>2016-06-05T09:31:23Z</time>
      </trkpt>
      <trkpt lat="45.70074" lon="4.59885">
        <ele>740.015991</ele>
        <time>2016-06-05T09:31:25Z</time>
      </trkpt>
      <trkpt lat="45.7007" lon="4.59894">
        <ele>740.051636</ele>
        <time>2016-06-05T09:31:27Z</time>
      </trkpt>
      <trkpt lat="45.70066" lon="4.59904">
        <ele>740.310547</ele>
        <time>2016-06-05T09:31:29Z</time>
      </trkpt>
      <trkpt lat="45.70062" lon="4.59914">
        <ele>740.434509</ele>
        <time>2016-06-05T09:31:31Z</time>
      </trkpt>
      <trkpt lat="45.70057" lon="4.59925">
        <ele>740.501343</ele>
        <time>2016-06-05T09:31:33Z</time>
      </trkpt>
      <trkpt lat="45.70052" lon="4.59936">
        <ele>740.620361</ele>
        <time>2016-06-05T09:31:35Z</time>
      </trkpt>
      <trkpt lat="45.70047" lon="4.59946">
        <ele>740.720703</ele>
        <time>2016-06-05T09:31:37Z</time>
      </trkpt>
      <trkpt lat="45.70042" lon="4.59956">
        <ele>740.803345</ele>
        <time>2016-06-05T09:31:39Z</time>
      </trkpt>
      <trkpt lat="45.70036" lon="4.59967">
        <ele>740.979492</ele>
        <time>2016-06-05T09:31:41Z</time>
      </trkpt>
      <trkpt lat="45.70031" lon="4.59977">
        <ele>741.242554</ele>
        <time>2016-06-05T09:31:43Z</time>
      </trkpt>
      <trkpt lat="45.70025" lon="4.59988">
        <ele>741.406799</ele>
        <time>2016-06-05T09:31:45Z</time>
      </trkpt>
      <trkpt lat="45.70018" lon="4.59999">
        <ele>741.861694</ele>
        <time>2016-06-05T09:31:47Z</time>
      </trkpt>
      <trkpt lat="45.7001" lon="4.60011">
        <ele>742.122498</ele>
        <time>2016-06-05T09:31:49Z</time>
      </trkpt>
      <trkpt lat="45.70002" lon="4.60022">
        <ele>742.262268</ele>
        <time>2016-06-05T09:31:51Z</time>
      </trkpt>
      <trkpt lat="45.69996" lon="4.60034">
        <ele>742.482361</ele>
        <time>2016-06-05T09:31:53Z</time>
      </trkpt>
      <trkpt lat="45.6999" lon="4.60045">
        <ele>742.640991</ele>
        <time>2016-06-05T09:31:55Z</time>
      </trkpt>
      <trkpt lat="45.69985" lon="4.60056">
        <ele>742.947266</ele>
        <time>2016-06-05T09:31:57Z</time>
      </trkpt>
      <trkpt lat="45.6998" lon="4.60066">
        <ele>743.200806</ele>
        <time>2016-06-05T09:31:59Z</time>
      </trkpt>
      <trkpt lat="45.69974" lon="4.60077">
        <ele>743.309937</ele>
        <time>2016-06-05T09:32:01Z</time>
      </trkpt>
      <trkpt lat="45.69969" lon="4.60087">
        <ele>743.46814</ele>
        <time>2016-06-05T09:32:03Z</time>
      </trkpt>
      <trkpt lat="45.69963" lon="4.60097">
        <ele>743.470337</ele>
        <time>2016-06-05T09:32:05Z</time>
      </trkpt>
      <trkpt lat="45.69956" lon="4.60106">
        <ele>743.704529</ele>
        <time>2016-06-05T09:32:07Z</time>
      </trkpt>
      <trkpt lat="45.69948" lon="4.60116">
        <ele>743.858032</ele>
        <time>2016-06-05T09:32:09Z</time>
      </trkpt>
      <trkpt lat="45.69941" lon="4.60126">
        <ele>744.021606</ele>
        <time>2016-06-05T09:32:11Z</time>
      </trkpt>
      <trkpt lat="45.69935" lon="4.60136">
        <ele>744.418579</ele>
        <time>2016-06-05T09:32:13Z</time>
      </trkpt>
      <trkpt lat="45.69928" lon="4.60145">
        <ele>744.529968</ele>
        <time>2016-06-05T09:32:15Z</time>
      </trkpt>
      <trkpt lat="45.69921" lon="4.60155">
        <ele>744.721008</ele>
        <time>2016-06-05T09:32:17Z</time>
      </trkpt>
      <trkpt lat="45.69914" lon="4.60164">
        <ele>744.953613</ele>
        <time>2016-06-05T09:32:19Z</time>
      </trkpt>
      <trkpt lat="45.69907" lon="4.60174">
        <ele>745.042603</ele>
        <time>2016-06-05T09:32:21Z</time>
      </trkpt>
      <trkpt lat="45.69901" lon="4.60182">
        <ele>745.225281</ele>
        <time>2016-06-05T09:32:23Z</time>
      </trkpt>
      <trkpt lat="45.69896" lon="4.60189">
        <ele>745.379211</ele>
        <time>2016-06-05T09:32:25Z</time>
      </trkpt>
      <trkpt lat="45.69892" lon="4.60195">
        <ele>745.48291</ele>
        <time>2016-06-05T09:32:27Z</time>
      </trkpt>
      <trkpt lat="45.69889" lon="4.60201">
        <ele>745.618958</ele>
        <time>2016-06-05T09:32:29Z</time>
      </trkpt>
      <trkpt lat="45.69885" lon="4.60205">
        <ele>745.662109</ele>
        <time>2016-06-05T09:32:31Z</time>
      </trkpt>
      <trkpt lat="45.69883" lon="4.6021">
        <ele>745.813782</ele>
        <time>2016-06-05T09:32:33Z</time>
      </trkpt>
      <trkpt lat="45.69879" lon="4.60213">
        <ele>746.065796</ele>
        <time>2016-06-05T09:32:35Z</time>
      </trkpt>
      <trkpt lat="45.69876" lon="4.60218">
        <ele>746.12384</ele>
        <time>2016-06-05T09:32:37Z</time>
      </trkpt>
      <trkpt lat="45.69873" lon="4.60223">
        <ele>746.200623</ele>
        <time>2016-06-05T09:32:39Z</time>
      </trkpt>
      <trkpt lat="45.69869" lon="4.6023">
        <ele>746.420044</ele>
        <time>2016-06-05T09:32:41Z</time>
      </trkpt>
      <trkpt lat="45.69866" lon="4.60237">
        <ele>746.756775</ele>
        <time>2016-06-05T09:32:43Z</time>
      </trkpt>
      <trkpt lat="45.69864" lon="4.60243">
        <ele>746.904297</ele>
        <time>2016-06-05T09:32:45Z</time>
      </trkpt>
      <trkpt lat="45.69862" lon="4.60251">
        <ele>747.109497</ele>
        <time>2016-06-05T09:32:47Z</time>
      </trkpt>
      <trkpt lat="45.69861" lon="4.60258">
        <ele>747.198608</ele>
        <time>2016-06-05T09:32:49Z</time>
      </trkpt>
      <trkpt lat="45.69861" lon="4.60263">
        <ele>747.448425</ele>
        <time>2016-06-05T09:32:51Z</time>
      </trkpt>
      <trkpt lat="45.69861" lon="4.60268">
        <ele>747.591187</ele>
        <time>2016-06-05T09:32:53Z</time>
      </trkpt>
      <trkpt lat="45.69861" lon="4.60274">
        <ele>747.675964</ele>
        <time>2016-06-05T09:32:55Z</time>
      </trkpt>
      <trkpt lat="45.69861" lon="4.60279">
        <ele>747.661011</ele>
        <time>2016-06-05T09:32:57Z</time>
      </trkpt>
      <trkpt lat="45.69861" lon="4.60286">
        <ele>747.774048</ele>
        <time>2016-06-05T09:32:59Z</time>
      </trkpt>
      <trkpt lat="45.6986" lon="4.60294">
        <ele>747.863281</ele>
        <time>2016-06-05T09:33:01Z</time>
      </trkpt>
      <trkpt lat="45.6986" lon="4.60302">
        <ele>748.124146</ele>
        <time>2016-06-05T09:33:03Z</time>
      </trkpt>
      <trkpt lat="45.69859" lon="4.60311">
        <ele>748.260132</ele>
        <time>2016-06-05T09:33:05Z</time>
      </trkpt>
      <trkpt lat="45.69858" lon="4.60319">
        <ele>748.389465</ele>
        <time>2016-06-05T09:33:07Z</time>
      </trkpt>
      <trkpt lat="45.69857" lon="4.60328">
        <ele>748.700623</ele>
        <time>2016-06-05T09:33:09Z</time>
      </trkpt>
      <trkpt lat="45.69857" lon="4.6034">
        <ele>748.533325</ele>
        <time>2016-06-05T09:33:11Z</time>
      </trkpt>
      <trkpt lat="45.69856" lon="4.60353">
        <ele>748.450806</ele>
        <time>2016-06-05T09:33:13Z</time>
      </trkpt>
      <trkpt lat="45.69855" lon="4.6037">
        <ele>748.4552</ele>
        <time>2016-06-05T09:33:15Z</time>
      </trkpt>
      <trkpt lat="45.69855" lon="4.6039">
        <ele>748.439514</ele>
        <time>2016-06-05T09:33:17Z</time>
      </trkpt>
      <trkpt lat="45.69855" lon="4.60408">
        <ele>748.400452</ele>
        <time>2016-06-05T09:33:19Z</time>
      </trkpt>
      <trkpt lat="45.69852" lon="4.60429">
        <ele>748.371704</ele>
        <time>2016-06-05T09:33:21Z</time>
      </trkpt>
      <trkpt lat="45.69852" lon="4.6045">
        <ele>748.282532</ele>
        <time>2016-06-05T09:33:23Z</time>
      </trkpt>
      <trkpt lat="45.69852" lon="4.60468">
        <ele>748.070679</ele>
        <time>2016-06-05T09:33:25Z</time>
      </trkpt>
      <trkpt lat="45.69852" lon="4.60486">
        <ele>748.083679</ele>
        <time>2016-06-05T09:33:27Z</time>
      </trkpt>
      <trkpt lat="45.69853" lon="4.60503">
        <ele>748.074402</ele>
        <time>2016-06-05T09:33:29Z</time>
      </trkpt>
      <trkpt lat="45.69853" lon="4.60521">
        <ele>747.89032</ele>
        <time>2016-06-05T09:33:31Z</time>
      </trkpt>
      <trkpt lat="45.69853" lon="4.6054">
        <ele>747.591553</ele>
        <time>2016-06-05T09:33:33Z</time>
      </trkpt>
      <trkpt lat="45.69855" lon="4.60561">
        <ele>747.384155</ele>
        <time>2016-06-05T09:33:35Z</time>
      </trkpt>
      <trkpt lat="45.69857" lon="4.60579">
        <ele>747.146301</ele>
        <time>2016-06-05T09:33:37Z</time>
      </trkpt>
      <trkpt lat="45.69865" lon="4.60594">
        <ele>747.251465</ele>
        <time>2016-06-05T09:33:39Z</time>
      </trkpt>
      <trkpt lat="45.69872" lon="4.60604">
        <ele>746.988403</ele>
        <time>2016-06-05T09:33:41Z</time>
      </trkpt>
      <trkpt lat="45.69881" lon="4.60612">
        <ele>746.843506</ele>
        <time>2016-06-05T09:33:43Z</time>
      </trkpt>
      <trkpt lat="45.69888" lon="4.6062">
        <ele>746.674011</ele>
        <time>2016-06-05T09:33:45Z</time>
      </trkpt>
      <trkpt lat="45.69895" lon="4.6063">
        <ele>746.47998</ele>
        <time>2016-06-05T09:33:47Z</time>
      </trkpt>
      <trkpt lat="45.69902" lon="4.60642">
        <ele>746.535767</ele>
        <time>2016-06-05T09:33:49Z</time>
      </trkpt>
      <trkpt lat="45.69907" lon="4.60655">
        <ele>746.292603</ele>
        <time>2016-06-05T09:33:51Z</time>
      </trkpt>
      <trkpt lat="45.6991" lon="4.60668">
        <ele>746.366272</ele>
        <time>2016-06-05T09:33:53Z</time>
      </trkpt>
      <trkpt lat="45.69914" lon="4.60681">
        <ele>746.297119</ele>
        <time>2016-06-05T09:33:55Z</time>
      </trkpt>
      <trkpt lat="45.69918" lon="4.60691">
        <ele>746.343994</ele>
        <time>2016-06-05T09:33:57Z</time>
      </trkpt>
      <trkpt lat="45.69921" lon="4.607">
        <ele>746.442261</ele>
        <time>2016-06-05T09:33:59Z</time>
      </trkpt>
      <trkpt lat="45.69923" lon="4.60707">
        <ele>746.456665</ele>
        <time>2016-06-05T09:34:01Z</time>
      </trkpt>
      <trkpt lat="45.69924" lon="4.60716">
        <ele>746.583801</ele>
        <time>2016-06-05T09:34:03Z</time>
      </trkpt>
      <trkpt lat="45.69925" lon="4.60724">
        <ele>746.687866</ele>
        <time>2016-06-05T09:34:05Z</time>
      </trkpt>
      <trkpt lat="45.69927" lon="4.60733">
        <ele>746.919861</ele>
        <time>2016-06-05T09:34:07Z</time>
      </trkpt>
      <trkpt lat="45.69927" lon="4.60744">
        <ele>747.114319</ele>
        <time>2016-06-05T09:34:09Z</time>
      </trkpt>
      <trkpt lat="45.69926" lon="4.60756">
        <ele>747.151245</ele>
        <time>2016-06-05T09:34:11Z</time>
      </trkpt>
      <trkpt lat="45.69926" lon="4.60769">
        <ele>747.282837</ele>
        <time>2016-06-05T09:34:13Z</time>
      </trkpt>
      <trkpt lat="45.69924" lon="4.6078">
        <ele>747.530396</ele>
        <time>2016-06-05T09:34:15Z</time>
      </trkpt>
      <trkpt lat="45.69922" lon="4.60791">
        <ele>747.81012</ele>
        <time>2016-06-05T09:34:17Z</time>
      </trkpt>
      <trkpt lat="45.6992" lon="4.60802">
        <ele>748.134888</ele>
        <time>2016-06-05T09:34:19Z</time>
      </trkpt>
      <trkpt lat="45.69918" lon="4.60812">
        <ele>748.413513</ele>
        <time>2016-06-05T09:34:21Z</time>
      </trkpt>
      <trkpt lat="45.69917" lon="4.60817">
        <ele>748.87146</ele>
        <time>2016-06-05T09:34:23Z</time>
      </trkpt>
      <trkpt lat="45.69915" lon="4.60824">
        <ele>749.240662</ele>
        <time>2016-06-05T09:34:25Z</time>
      </trkpt>
      <trkpt lat="45.69913" lon="4.6083">
        <ele>749.544006</ele>
        <time>2016-06-05T09:34:27Z</time>
      </trkpt>
      <trkpt lat="45.69911" lon="4.60837">
        <ele>749.820679</ele>
        <time>2016-06-05T09:34:29Z</time>
      </trkpt>
      <trkpt lat="45.69909" lon="4.60843">
        <ele>750.019104</ele>
        <time>2016-06-05T09:34:31Z</time>
      </trkpt>
      <trkpt lat="45.69907" lon="4.60849">
        <ele>750.20874</ele>
        <time>2016-06-05T09:34:33Z</time>
      </trkpt>
      <trkpt lat="45.69905" lon="4.60854">
        <ele>750.567932</ele>
        <time>2016-06-05T09:34:35Z</time>
      </trkpt>
      <trkpt lat="45.69903" lon="4.60861">
        <ele>751.031982</ele>
        <time>2016-06-05T09:34:37Z</time>
      </trkpt>
      <trkpt lat="45.69902" lon="4.60867">
        <ele>751.130127</ele>
        <time>2016-06-05T09:34:39Z</time>
      </trkpt>
      <trkpt lat="45.69901" lon="4.60874">
        <ele>751.433533</ele>
        <time>2016-06-05T09:34:41Z</time>
      </trkpt>
      <trkpt lat="45.69899" lon="4.6088">
        <ele>751.742798</ele>
        <time>2016-06-05T09:34:43Z</time>
      </trkpt>
      <trkpt lat="45.69898" lon="4.60887">
        <ele>752.131226</ele>
        <time>2016-06-05T09:34:45Z</time>
      </trkpt>
      <trkpt lat="45.69896" lon="4.60893">
        <ele>752.399719</ele>
        <time>2016-06-05T09:34:47Z</time>
      </trkpt>
      <trkpt lat="45.69894" lon="4.60898">
        <ele>752.814758</ele>
        <time>2016-06-05T09:34:49Z</time>
      </trkpt>
      <trkpt lat="45.69893" lon="4.60902">
        <ele>753.006653</ele>
        <time>2016-06-05T09:34:51Z</time>
      </trkpt>
      <trkpt lat="45.69891" lon="4.60908">
        <ele>753.343567</ele>
        <time>2016-06-05T09:34:53Z</time>
      </trkpt>
      <trkpt lat="45.69891" lon="4.60913">
        <ele>753.662659</ele>
        <time>2016-06-05T09:34:55Z</time>
      </trkpt>
      <trkpt lat="45.69889" lon="4.60918">
        <ele>753.989746</ele>
        <time>2016-06-05T09:34:57Z</time>
      </trkpt>
      <trkpt lat="45.69889" lon="4.60922">
        <ele>754.268677</ele>
        <time>2016-06-05T09:34:59Z</time>
      </trkpt>
      <trkpt lat="45.69888" lon="4.60926">
        <ele>754.439087</ele>
        <time>2016-06-05T09:35:01Z</time>
      </trkpt>
      <trkpt lat="45.69888" lon="4.60931">
        <ele>754.820801</ele>
        <time>2016-06-05T09:35:03Z</time>
      </trkpt>
      <trkpt lat="45.69886" lon="4.60936">
        <ele>755.085571</ele>
        <time>2016-06-05T09:35:05Z</time>
      </trkpt>
      <trkpt lat="45.69886" lon="4.60941">
        <ele>755.18158</ele>
        <time>2016-06-05T09:35:07Z</time>
      </trkpt>
      <trkpt lat="45.69885" lon="4.60946">
        <ele>755.409058</ele>
        <time>2016-06-05T09:35:09Z</time>
      </trkpt>
      <trkpt lat="45.69885" lon="4.6095">
        <ele>755.659058</ele>
        <time>2016-06-05T09:35:11Z</time>
      </trkpt>
      <trkpt lat="45.69885" lon="4.60954">
        <ele>755.902893</ele>
        <time>2016-06-05T09:35:13Z</time>
      </trkpt>
      <trkpt lat="45.69885" lon="4.60959">
        <ele>756.117188</ele>
        <time>2016-06-05T09:35:15Z</time>
      </trkpt>
      <trkpt lat="45.69885" lon="4.60964">
        <ele>756.286804</ele>
        <time>2016-06-05T09:35:17Z</time>
      </trkpt>
      <trkpt lat="45.69885" lon="4.60969">
        <ele>756.536804</ele>
        <time>2016-06-05T09:35:19Z</time>
      </trkpt>
      <trkpt lat="45.69885" lon="4.60974">
        <ele>756.840393</ele>
        <time>2016-06-05T09:35:21Z</time>
      </trkpt>
      <trkpt lat="45.69885" lon="4.60978">
        <ele>756.994385</ele>
        <time>2016-06-05T09:35:23Z</time>
      </trkpt>
      <trkpt lat="45.69885" lon="4.60983">
        <ele>757.139526</ele>
        <time>2016-06-05T09:35:25Z</time>
      </trkpt>
      <trkpt lat="45.69886" lon="4.6099">
        <ele>757.233276</ele>
        <time>2016-06-05T09:35:27Z</time>
      </trkpt>
      <trkpt lat="45.69886" lon="4.60996">
        <ele>757.358276</ele>
        <time>2016-06-05T09:35:29Z</time>
      </trkpt>
      <trkpt lat="45.69887" lon="4.61002">
        <ele>757.322632</ele>
        <time>2016-06-05T09:35:31Z</time>
      </trkpt>
      <trkpt lat="45.69887" lon="4.61008">
        <ele>757.463501</ele>
        <time>2016-06-05T09:35:33Z</time>
      </trkpt>
      <trkpt lat="45.69888" lon="4.61013">
        <ele>757.639893</ele>
        <time>2016-06-05T09:35:35Z</time>
      </trkpt>
      <trkpt lat="45.69888" lon="4.61019">
        <ele>757.831909</ele>
        <time>2016-06-05T09:35:37Z</time>
      </trkpt>
      <trkpt lat="45.69889" lon="4.61023">
        <ele>758.008301</ele>
        <time>2016-06-05T09:35:39Z</time>
      </trkpt>
      <trkpt lat="45.6989" lon="4.61027">
        <ele>758.09967</ele>
        <time>2016-06-05T09:35:41Z</time>
      </trkpt>
      <trkpt lat="45.69891" lon="4.61032">
        <ele>758.161499</ele>
        <time>2016-06-05T09:35:43Z</time>
      </trkpt>
      <trkpt lat="45.69892" lon="4.61038">
        <ele>758.054321</ele>
        <time>2016-06-05T09:35:45Z</time>
      </trkpt>
      <trkpt lat="45.69893" lon="4.61045">
        <ele>758.155884</ele>
        <time>2016-06-05T09:35:47Z</time>
      </trkpt>
      <trkpt lat="45.69895" lon="4.61051">
        <ele>758.218506</ele>
        <time>2016-06-05T09:35:49Z</time>
      </trkpt>
      <trkpt lat="45.69897" lon="4.61056">
        <ele>758.343262</ele>
        <time>2016-06-05T09:35:51Z</time>
      </trkpt>
      <trkpt lat="45.69899" lon="4.61061">
        <ele>758.315918</ele>
        <time>2016-06-05T09:35:53Z</time>
      </trkpt>
      <trkpt lat="45.69901" lon="4.61066">
        <ele>758.372131</ele>
        <time>2016-06-05T09:35:55Z</time>
      </trkpt>
      <trkpt lat="45.69902" lon="4.61072">
        <ele>758.369873</ele>
        <time>2016-06-05T09:35:57Z</time>
      </trkpt>
      <trkpt lat="45.69904" lon="4.61078">
        <ele>758.437805</ele>
        <time>2016-06-05T09:35:59Z</time>
      </trkpt>
      <trkpt lat="45.69907" lon="4.61083">
        <ele>758.491333</ele>
        <time>2016-06-05T09:36:01Z</time>
      </trkpt>
      <trkpt lat="45.69909" lon="4.61089">
        <ele>758.475647</ele>
        <time>2016-06-05T09:36:03Z</time>
      </trkpt>
      <trkpt lat="45.6991" lon="4.61096">
        <ele>758.495728</ele>
        <time>2016-06-05T09:36:05Z</time>
      </trkpt>
      <trkpt lat="45.69911" lon="4.61103">
        <ele>758.544861</ele>
        <time>2016-06-05T09:36:07Z</time>
      </trkpt>
      <trkpt lat="45.69911" lon="4.6111">
        <ele>758.634216</ele>
        <time>2016-06-05T09:36:09Z</time>
      </trkpt>
      <trkpt lat="45.69912" lon="4.61118">
        <ele>758.618591</ele>
        <time>2016-06-05T09:36:11Z</time>
      </trkpt>
      <trkpt lat="45.69912" lon="4.61126">
        <ele>758.803711</ele>
        <time>2016-06-05T09:36:13Z</time>
      </trkpt>
      <trkpt lat="45.69911" lon="4.61134">
        <ele>758.933228</ele>
        <time>2016-06-05T09:36:15Z</time>
      </trkpt>
      <trkpt lat="45.6991" lon="4.61142">
        <ele>758.901978</ele>
        <time>2016-06-05T09:36:17Z</time>
      </trkpt>
      <trkpt lat="45.69908" lon="4.61151">
        <ele>758.852905</ele>
        <time>2016-06-05T09:36:19Z</time>
      </trkpt>
      <trkpt lat="45.69903" lon="4.61162">
        <ele>758.955627</ele>
        <time>2016-06-05T09:36:21Z</time>
      </trkpt>
      <trkpt lat="45.69896" lon="4.61171">
        <ele>759.004944</ele>
        <time>2016-06-05T09:36:23Z</time>
      </trkpt>
      <trkpt lat="45.6989" lon="4.61182">
        <ele>759.143433</ele>
        <time>2016-06-05T09:36:25Z</time>
      </trkpt>
      <trkpt lat="45.69885" lon="4.61192">
        <ele>759.301941</ele>
        <time>2016-06-05T09:36:27Z</time>
      </trkpt>
      <trkpt lat="45.69879" lon="4.61201">
        <ele>759.420288</ele>
        <time>2016-06-05T09:36:29Z</time>
      </trkpt>
      <trkpt lat="45.69873" lon="4.61209">
        <ele>759.565308</ele>
        <time>2016-06-05T09:36:31Z</time>
      </trkpt>
      <trkpt lat="45.69867" lon="4.61217">
        <ele>759.701843</ele>
        <time>2016-06-05T09:36:33Z</time>
      </trkpt>
      <trkpt lat="45.69861" lon="4.61224">
        <ele>759.99884</ele>
        <time>2016-06-05T09:36:35Z</time>
      </trkpt>
      <trkpt lat="45.69854" lon="4.61231">
        <ele>759.869019</ele>
        <time>2016-06-05T09:36:37Z</time>
      </trkpt>
      <trkpt lat="45.69846" lon="4.61239">
        <ele>760.004272</ele>
        <time>2016-06-05T09:36:39Z</time>
      </trkpt>
      <trkpt lat="45.69837" lon="4.61245">
        <ele>760.136108</ele>
        <time>2016-06-05T09:36:41Z</time>
      </trkpt>
      <trkpt lat="45.69828" lon="4.61254">
        <ele>760.330505</ele>
        <time>2016-06-05T09:36:43Z</time>
      </trkpt>
      <trkpt lat="45.69821" lon="4.61263">
        <ele>760.70813</ele>
        <time>2016-06-05T09:36:45Z</time>
      </trkpt>
      <trkpt lat="45.69817" lon="4.61271">
        <ele>760.956421</ele>
        <time>2016-06-05T09:36:47Z</time>
      </trkpt>
      <trkpt lat="45.69813" lon="4.61278">
        <ele>761.17981</ele>
        <time>2016-06-05T09:36:49Z</time>
      </trkpt>
      <trkpt lat="45.69809" lon="4.61284">
        <ele>761.382935</ele>
        <time>2016-06-05T09:36:51Z</time>
      </trkpt>
      <trkpt lat="45.69806" lon="4.61291">
        <ele>761.481018</ele>
        <time>2016-06-05T09:36:53Z</time>
      </trkpt>
      <trkpt lat="45.69803" lon="4.61298">
        <ele>761.637329</ele>
        <time>2016-06-05T09:36:55Z</time>
      </trkpt>
      <trkpt lat="45.698" lon="4.61306">
        <ele>761.833862</ele>
        <time>2016-06-05T09:36:57Z</time>
      </trkpt>
      <trkpt lat="45.69798" lon="4.61315">
        <ele>761.925415</ele>
        <time>2016-06-05T09:36:59Z</time>
      </trkpt>
      <trkpt lat="45.69797" lon="4.61324">
        <ele>762.236023</ele>
        <time>2016-06-05T09:37:01Z</time>
      </trkpt>
      <trkpt lat="45.69796" lon="4.61331">
        <ele>762.343262</ele>
        <time>2016-06-05T09:37:03Z</time>
      </trkpt>
      <trkpt lat="45.69795" lon="4.61339">
        <ele>762.517456</ele>
        <time>2016-06-05T09:37:05Z</time>
      </trkpt>
      <trkpt lat="45.69794" lon="4.61348">
        <ele>762.689392</ele>
        <time>2016-06-05T09:37:07Z</time>
      </trkpt>
      <trkpt lat="45.69794" lon="4.61357">
        <ele>762.877075</ele>
        <time>2016-06-05T09:37:09Z</time>
      </trkpt>
      <trkpt lat="45.69794" lon="4.61365">
        <ele>763.034424</ele>
        <time>2016-06-05T09:37:11Z</time>
      </trkpt>
      <trkpt lat="45.69795" lon="4.61372">
        <ele>763.21106</ele>
        <time>2016-06-05T09:37:13Z</time>
      </trkpt>
      <trkpt lat="45.69796" lon="4.61377">
        <ele>763.369629</ele>
        <time>2016-06-05T09:37:15Z</time>
      </trkpt>
      <trkpt lat="45.69796" lon="4.61383">
        <ele>763.575134</ele>
        <time>2016-06-05T09:37:17Z</time>
      </trkpt>
      <trkpt lat="45.69797" lon="4.6139">
        <ele>764.050903</ele>
        <time>2016-06-05T09:37:19Z</time>
      </trkpt>
      <trkpt lat="45.69798" lon="4.61396">
        <ele>764.222839</ele>
        <time>2016-06-05T09:37:21Z</time>
      </trkpt>
      <trkpt lat="45.69799" lon="4.61403">
        <ele>764.315796</ele>
        <time>2016-06-05T09:37:23Z</time>
      </trkpt>
      <trkpt lat="45.69801" lon="4.6141">
        <ele>764.440735</ele>
        <time>2016-06-05T09:37:25Z</time>
      </trkpt>
      <trkpt lat="45.69801" lon="4.61418">
        <ele>764.247192</ele>
        <time>2016-06-05T09:37:27Z</time>
      </trkpt>
      <trkpt lat="45.69802" lon="4.61427">
        <ele>764.213318</ele>
        <time>2016-06-05T09:37:29Z</time>
      </trkpt>
      <trkpt lat="45.69803" lon="4.61437">
        <ele>764.38092</ele>
        <time>2016-06-05T09:37:31Z</time>
      </trkpt>
      <trkpt lat="45.69803" lon="4.61447">
        <ele>764.523987</ele>
        <time>2016-06-05T09:37:33Z</time>
      </trkpt>
      <trkpt lat="45.69803" lon="4.61459">
        <ele>764.792175</ele>
        <time>2016-06-05T09:37:35Z</time>
      </trkpt>
      <trkpt lat="45.69804" lon="4.6147">
        <ele>764.835876</ele>
        <time>2016-06-05T09:37:37Z</time>
      </trkpt>
      <trkpt lat="45.69805" lon="4.61482">
        <ele>765.01239</ele>
        <time>2016-06-05T09:37:39Z</time>
      </trkpt>
      <trkpt lat="45.69805" lon="4.61493">
        <ele>765.325073</ele>
        <time>2016-06-05T09:37:41Z</time>
      </trkpt>
      <trkpt lat="45.69805" lon="4.61505">
        <ele>765.08844</ele>
        <time>2016-06-05T09:37:43Z</time>
      </trkpt>
      <trkpt lat="45.69804" lon="4.61517">
        <ele>765.281677</ele>
        <time>2016-06-05T09:37:45Z</time>
      </trkpt>
      <trkpt lat="45.69803" lon="4.6153">
        <ele>765.395569</ele>
        <time>2016-06-05T09:37:47Z</time>
      </trkpt>
      <trkpt lat="45.69803" lon="4.61543">
        <ele>765.592224</ele>
        <time>2016-06-05T09:37:49Z</time>
      </trkpt>
      <trkpt lat="45.69803" lon="4.61557">
        <ele>765.721802</ele>
        <time>2016-06-05T09:37:51Z</time>
      </trkpt>
      <trkpt lat="45.69803" lon="4.61571">
        <ele>765.778931</ele>
        <time>2016-06-05T09:37:53Z</time>
      </trkpt>
      <trkpt lat="45.69804" lon="4.61586">
        <ele>765.910767</ele>
        <time>2016-06-05T09:37:55Z</time>
      </trkpt>
      <trkpt lat="45.69805" lon="4.616">
        <ele>766.120178</ele>
        <time>2016-06-05T09:37:57Z</time>
      </trkpt>
      <trkpt lat="45.69807" lon="4.61613">
        <ele>766.245239</ele>
        <time>2016-06-05T09:37:59Z</time>
      </trkpt>
      <trkpt lat="45.6981" lon="4.61625">
        <ele>766.401733</ele>
        <time>2016-06-05T09:38:01Z</time>
      </trkpt>
      <trkpt lat="45.69813" lon="4.61635">
        <ele>766.543396</ele>
        <time>2016-06-05T09:38:03Z</time>
      </trkpt>
      <trkpt lat="45.69815" lon="4.61644">
        <ele>766.60376</ele>
        <time>2016-06-05T09:38:05Z</time>
      </trkpt>
      <trkpt lat="45.69817" lon="4.61652">
        <ele>766.923218</ele>
        <time>2016-06-05T09:38:07Z</time>
      </trkpt>
      <trkpt lat="45.69819" lon="4.6166">
        <ele>766.98938</ele>
        <time>2016-06-05T09:38:09Z</time>
      </trkpt>
      <trkpt lat="45.69822" lon="4.61666">
        <ele>767.349487</ele>
        <time>2016-06-05T09:38:11Z</time>
      </trkpt>
      <trkpt lat="45.69824" lon="4.61671">
        <ele>767.557373</ele>
        <time>2016-06-05T09:38:13Z</time>
      </trkpt>
      <trkpt lat="45.69826" lon="4.61676">
        <ele>767.664673</ele>
        <time>2016-06-05T09:38:15Z</time>
      </trkpt>
      <trkpt lat="45.69828" lon="4.6168">
        <ele>767.914978</ele>
        <time>2016-06-05T09:38:17Z</time>
      </trkpt>
      <trkpt lat="45.69831" lon="4.61684">
        <ele>768.069275</ele>
        <time>2016-06-05T09:38:19Z</time>
      </trkpt>
      <trkpt lat="45.69834" lon="4.61689">
        <ele>768.147156</ele>
        <time>2016-06-05T09:38:21Z</time>
      </trkpt>
      <trkpt lat="45.69837" lon="4.61694">
        <ele>768.118042</ele>
        <time>2016-06-05T09:38:23Z</time>
      </trkpt>
      <trkpt lat="45.6984" lon="4.61698">
        <ele>768.60614</ele>
        <time>2016-06-05T09:38:25Z</time>
      </trkpt>
      <trkpt lat="45.69843" lon="4.61703">
        <ele>768.773804</ele>
        <time>2016-06-05T09:38:27Z</time>
      </trkpt>
      <trkpt lat="45.69846" lon="4.61706">
        <ele>768.901184</ele>
        <time>2016-06-05T09:38:29Z</time>
      </trkpt>
      <trkpt lat="45.69849" lon="4.6171">
        <ele>768.94812</ele>
        <time>2016-06-05T09:38:31Z</time>
      </trkpt>
      <trkpt lat="45.69852" lon="4.61714">
        <ele>769.086731</ele>
        <time>2016-06-05T09:38:33Z</time>
      </trkpt>
      <trkpt lat="45.69856" lon="4.61717">
        <ele>769.180542</ele>
        <time>2016-06-05T09:38:35Z</time>
      </trkpt>
      <trkpt lat="45.69859" lon="4.6172">
        <ele>769.334778</ele>
        <time>2016-06-05T09:38:37Z</time>
      </trkpt>
      <trkpt lat="45.69862" lon="4.61723">
        <ele>769.337708</ele>
        <time>2016-06-05T09:38:39Z</time>
      </trkpt>
      <trkpt lat="45.69865" lon="4.61727">
        <ele>769.424927</ele>
        <time>2016-06-05T09:38:41Z</time>
      </trkpt>
      <trkpt lat="45.69869" lon="4.6173">
        <ele>769.637329</ele>
        <time>2016-06-05T09:38:43Z</time>
      </trkpt>
      <trkpt lat="45.69872" lon="4.61733">
        <ele>769.7547</ele>
        <time>2016-06-05T09:38:45Z</time>
      </trkpt>
      <trkpt lat="45.69876" lon="4.61736">
        <ele>769.994812</ele>
        <time>2016-06-05T09:38:47Z</time>
      </trkpt>
      <trkpt lat="45.6988" lon="4.61739">
        <ele>770.137878</ele>
        <time>2016-06-05T09:38:49Z</time>
      </trkpt>
      <trkpt lat="45.69885" lon="4.61742">
        <ele>770.231445</ele>
        <time>2016-06-05T09:38:51Z</time>
      </trkpt>
      <trkpt lat="45.69889" lon="4.61745">
        <ele>770.358887</ele>
        <time>2016-06-05T09:38:53Z</time>
      </trkpt>
      <trkpt lat="45.69893" lon="4.61748">
        <ele>770.215698</ele>
        <time>2016-06-05T09:38:55Z</time>
      </trkpt>
      <trkpt lat="45.69897" lon="4.61752">
        <ele>770.325378</ele>
        <time>2016-06-05T09:38:57Z</time>
      </trkpt>
      <trkpt lat="45.69901" lon="4.61756">
        <ele>770.358948</ele>
        <time>2016-06-05T09:38:59Z</time>
      </trkpt>
      <trkpt lat="45.69906" lon="4.6176">
        <ele>770.507263</ele>
        <time>2016-06-05T09:39:01Z</time>
      </trkpt>
      <trkpt lat="45.69909" lon="4.61763">
        <ele>770.469666</ele>
        <time>2016-06-05T09:39:03Z</time>
      </trkpt>
      <trkpt lat="45.69913" lon="4.61767">
        <ele>770.579224</ele>
        <time>2016-06-05T09:39:05Z</time>
      </trkpt>
      <trkpt lat="45.69917" lon="4.61772">
        <ele>770.659668</ele>
        <time>2016-06-05T09:39:07Z</time>
      </trkpt>
      <trkpt lat="45.69921" lon="4.61776">
        <ele>770.693237</ele>
        <time>2016-06-05T09:39:09Z</time>
      </trkpt>
      <trkpt lat="45.69925" lon="4.61782">
        <ele>770.789368</ele>
        <time>2016-06-05T09:39:11Z</time>
      </trkpt>
      <trkpt lat="45.69929" lon="4.61788">
        <ele>770.977173</ele>
        <time>2016-06-05T09:39:13Z</time>
      </trkpt>
      <trkpt lat="45.69932" lon="4.61797">
        <ele>770.813965</ele>
        <time>2016-06-05T09:39:15Z</time>
      </trkpt>
      <trkpt lat="45.69935" lon="4.6181">
        <ele>771.092468</ele>
        <time>2016-06-05T09:39:17Z</time>
      </trkpt>
      <trkpt lat="45.69939" lon="4.61825">
        <ele>771.479309</ele>
        <time>2016-06-05T09:39:19Z</time>
      </trkpt>
      <trkpt lat="45.69944" lon="4.61841">
        <ele>771.43457</ele>
        <time>2016-06-05T09:39:21Z</time>
      </trkpt>
      <trkpt lat="45.69951" lon="4.61853">
        <ele>771.481567</ele>
        <time>2016-06-05T09:39:23Z</time>
      </trkpt>
      <trkpt lat="45.69957" lon="4.61864">
        <ele>771.479309</ele>
        <time>2016-06-05T09:39:25Z</time>
      </trkpt>
      <trkpt lat="45.69963" lon="4.61874">
        <ele>771.48938</ele>
        <time>2016-06-05T09:39:27Z</time>
      </trkpt>
      <trkpt lat="45.69968" lon="4.61884">
        <ele>771.385559</ele>
        <time>2016-06-05T09:39:29Z</time>
      </trkpt>
      <trkpt lat="45.69974" lon="4.61894">
        <ele>771.425781</ele>
        <time>2016-06-05T09:39:31Z</time>
      </trkpt>
      <trkpt lat="45.6998" lon="4.61905">
        <ele>771.47937</ele>
        <time>2016-06-05T09:39:33Z</time>
      </trkpt>
      <trkpt lat="45.69985" lon="4.61915">
        <ele>771.421265</ele>
        <time>2016-06-05T09:39:35Z</time>
      </trkpt>
      <trkpt lat="45.69992" lon="4.6192">
        <ele>771.555298</ele>
        <time>2016-06-05T09:39:37Z</time>
      </trkpt>
      <trkpt lat="45.69998" lon="4.61919">
        <ele>771.555298</ele>
        <time>2016-06-05T09:39:39Z</time>
      </trkpt>
      <trkpt lat="45.70002" lon="4.61917">
        <ele>771.593262</ele>
        <time>2016-06-05T09:39:41Z</time>
      </trkpt>
      <trkpt lat="45.70006" lon="4.61916">
        <ele>771.588867</ele>
        <time>2016-06-05T09:39:43Z</time>
      </trkpt>
      <trkpt lat="45.7001" lon="4.61916">
        <ele>771.760742</ele>
        <time>2016-06-05T09:39:45Z</time>
      </trkpt>
      <trkpt lat="45.70015" lon="4.61919">
        <ele>771.771179</ele>
        <time>2016-06-05T09:39:47Z</time>
      </trkpt>
      <trkpt lat="45.70019" lon="4.61924">
        <ele>771.762268</ele>
        <time>2016-06-05T09:39:49Z</time>
      </trkpt>
      <trkpt lat="45.70024" lon="4.61931">
        <ele>771.862854</ele>
        <time>2016-06-05T09:39:51Z</time>
      </trkpt>
      <trkpt lat="45.7003" lon="4.6194">
        <ele>771.988403</ele>
        <time>2016-06-05T09:39:53Z</time>
      </trkpt>
      <trkpt lat="45.70036" lon="4.61952">
        <ele>772.001831</ele>
        <time>2016-06-05T09:39:55Z</time>
      </trkpt>
      <trkpt lat="45.70044" lon="4.61964">
        <ele>772.272278</ele>
        <time>2016-06-05T09:39:57Z</time>
      </trkpt>
      <trkpt lat="45.70052" lon="4.61978">
        <ele>772.270996</ele>
        <time>2016-06-05T09:39:59Z</time>
      </trkpt>
      <trkpt lat="45.70061" lon="4.61992">
        <ele>772.067505</ele>
        <time>2016-06-05T09:40:01Z</time>
      </trkpt>
      <trkpt lat="45.70068" lon="4.62003">
        <ele>772.405151</ele>
        <time>2016-06-05T09:40:03Z</time>
      </trkpt>
      <trkpt lat="45.7007" lon="4.62012">
        <ele>772.499023</ele>
        <time>2016-06-05T09:40:05Z</time>
      </trkpt>
      <trkpt lat="45.70067" lon="4.62022">
        <ele>772.550415</ele>
        <time>2016-06-05T09:40:07Z</time>
      </trkpt>
      <trkpt lat="45.70062" lon="4.62035">
        <ele>772.697998</ele>
        <time>2016-06-05T09:40:09Z</time>
      </trkpt>
      <trkpt lat="45.70062" lon="4.62048">
        <ele>772.747009</ele>
        <time>2016-06-05T09:40:11Z</time>
      </trkpt>
      <trkpt lat="45.70068" lon="4.62061">
        <ele>773.018188</ele>
        <time>2016-06-05T09:40:13Z</time>
      </trkpt>
      <trkpt lat="45.70071" lon="4.62072">
        <ele>773.089722</ele>
        <time>2016-06-05T09:40:15Z</time>
      </trkpt>
      <trkpt lat="45.70068" lon="4.62077">
        <ele>773.308838</ele>
        <time>2016-06-05T09:40:17Z</time>
      </trkpt>
      <trkpt lat="45.70066" lon="4.62079">
        <ele>773.353577</ele>
        <time>2016-06-05T09:40:19Z</time>
      </trkpt>
      <trkpt lat="45.70067" lon="4.62087">
        <ele>774.416382</ele>
        <time>2016-06-05T09:40:34Z</time>
      </trkpt>
      <trkpt lat="45.70068" lon="4.6209">
        <ele>774.58374</ele>
        <time>2016-06-05T09:40:36Z</time>
      </trkpt>
      <trkpt lat="45.7007" lon="4.62093">
        <ele>774.521118</ele>
        <time>2016-06-05T09:40:38Z</time>
      </trkpt>
      <trkpt lat="45.70072" lon="4.621">
        <ele>774.879028</ele>
        <time>2016-06-05T09:40:40Z</time>
      </trkpt>
      <trkpt lat="45.70075" lon="4.62105">
        <ele>775.024414</ele>
        <time>2016-06-05T09:40:42Z</time>
      </trkpt>
      <trkpt lat="45.70078" lon="4.62111">
        <ele>774.749573</ele>
        <time>2016-06-05T09:40:44Z</time>
      </trkpt>
      <trkpt lat="45.7008" lon="4.62116">
        <ele>774.70929</ele>
        <time>2016-06-05T09:40:46Z</time>
      </trkpt>
      <trkpt lat="45.70083" lon="4.62119">
        <ele>774.535034</ele>
        <time>2016-06-05T09:40:48Z</time>
      </trkpt>
      <trkpt lat="45.70085" lon="4.62123">
        <ele>774.253784</ele>
        <time>2016-06-05T09:40:50Z</time>
      </trkpt>
      <trkpt lat="45.70088" lon="4.62127">
        <ele>774.095093</ele>
        <time>2016-06-05T09:40:52Z</time>
      </trkpt>
      <trkpt lat="45.70091" lon="4.62132">
        <ele>774.136658</ele>
        <time>2016-06-05T09:40:54Z</time>
      </trkpt>
      <trkpt lat="45.70094" lon="4.62136">
        <ele>774.053833</ele>
        <time>2016-06-05T09:40:56Z</time>
      </trkpt>
      <trkpt lat="45.70099" lon="4.62138">
        <ele>773.863831</ele>
        <time>2016-06-05T09:40:58Z</time>
      </trkpt>
      <trkpt lat="45.70104" lon="4.62141">
        <ele>773.977905</ele>
        <time>2016-06-05T09:41:00Z</time>
      </trkpt>
      <trkpt lat="45.70109" lon="4.62144">
        <ele>774.104553</ele>
        <time>2016-06-05T09:41:02Z</time>
      </trkpt>
      <trkpt lat="45.70115" lon="4.62147">
        <ele>774.10376</ele>
        <time>2016-06-05T09:41:04Z</time>
      </trkpt>
      <trkpt lat="45.7012" lon="4.62151">
        <ele>774.49762</ele>
        <time>2016-06-05T09:41:06Z</time>
      </trkpt>
      <trkpt lat="45.70125" lon="4.62154">
        <ele>774.151062</ele>
        <time>2016-06-05T09:41:08Z</time>
      </trkpt>
      <trkpt lat="45.70132" lon="4.62158">
        <ele>774.394897</ele>
        <time>2016-06-05T09:41:10Z</time>
      </trkpt>
      <trkpt lat="45.70139" lon="4.62162">
        <ele>774.573914</ele>
        <time>2016-06-05T09:41:12Z</time>
      </trkpt>
      <trkpt lat="45.70147" lon="4.62168">
        <ele>774.710388</ele>
        <time>2016-06-05T09:41:14Z</time>
      </trkpt>
      <trkpt lat="45.70155" lon="4.62176">
        <ele>774.746216</ele>
        <time>2016-06-05T09:41:16Z</time>
      </trkpt>
      <trkpt lat="45.70162" lon="4.62184">
        <ele>774.722839</ele>
        <time>2016-06-05T09:41:18Z</time>
      </trkpt>
      <trkpt lat="45.7017" lon="4.62194">
        <ele>774.977783</ele>
        <time>2016-06-05T09:41:20Z</time>
      </trkpt>
      <trkpt lat="45.7018" lon="4.62205">
        <ele>774.950928</ele>
        <time>2016-06-05T09:41:22Z</time>
      </trkpt>
      <trkpt lat="45.70188" lon="4.62218">
        <ele>774.572998</ele>
        <time>2016-06-05T09:41:24Z</time>
      </trkpt>
      <trkpt lat="45.70198" lon="4.62234">
        <ele>775.152222</ele>
        <time>2016-06-05T09:41:26Z</time>
      </trkpt>
      <trkpt lat="45.70207" lon="4.62249">
        <ele>775.247437</ele>
        <time>2016-06-05T09:41:28Z</time>
      </trkpt>
      <trkpt lat="45.70216" lon="4.62264">
        <ele>775.711182</ele>
        <time>2016-06-05T09:41:30Z</time>
      </trkpt>
      <trkpt lat="45.70224" lon="4.62278">
        <ele>776.113342</ele>
        <time>2016-06-05T09:41:32Z</time>
      </trkpt>
      <trkpt lat="45.70232" lon="4.62291">
        <ele>776.098206</ele>
        <time>2016-06-05T09:41:34Z</time>
      </trkpt>
      <trkpt lat="45.70239" lon="4.62306">
        <ele>776.241333</ele>
        <time>2016-06-05T09:41:36Z</time>
      </trkpt>
      <trkpt lat="45.70247" lon="4.6232">
        <ele>776.492493</ele>
        <time>2016-06-05T09:41:38Z</time>
      </trkpt>
      <trkpt lat="45.70256" lon="4.62335">
        <ele>776.899536</ele>
        <time>2016-06-05T09:41:40Z</time>
      </trkpt>
      <trkpt lat="45.70264" lon="4.62351">
        <ele>777.062439</ele>
        <time>2016-06-05T09:41:42Z</time>
      </trkpt>
      <trkpt lat="45.70272" lon="4.62368">
        <ele>777.225159</ele>
        <time>2016-06-05T09:41:44Z</time>
      </trkpt>
      <trkpt lat="45.7028" lon="4.62385">
        <ele>777.669128</ele>
        <time>2016-06-05T09:41:46Z</time>
      </trkpt>
      <trkpt lat="45.70287" lon="4.62401">
        <ele>777.720581</ele>
        <time>2016-06-05T09:41:48Z</time>
      </trkpt>
      <trkpt lat="45.70293" lon="4.62417">
        <ele>778.447388</ele>
        <time>2016-06-05T09:41:50Z</time>
      </trkpt>
      <trkpt lat="45.70297" lon="4.6243">
        <ele>778.57373</ele>
        <time>2016-06-05T09:41:52Z</time>
      </trkpt>
      <trkpt lat="45.70302" lon="4.62441">
        <ele>778.707886</ele>
        <time>2016-06-05T09:41:54Z</time>
      </trkpt>
      <trkpt lat="45.70307" lon="4.62452">
        <ele>778.748169</ele>
        <time>2016-06-05T09:41:56Z</time>
      </trkpt>
      <trkpt lat="45.70313" lon="4.62463">
        <ele>778.830933</ele>
        <time>2016-06-05T09:41:58Z</time>
      </trkpt>
      <trkpt lat="45.70317" lon="4.62472">
        <ele>779.365356</ele>
        <time>2016-06-05T09:42:00Z</time>
      </trkpt>
      <trkpt lat="45.70319" lon="4.62483">
        <ele>779.421448</ele>
        <time>2016-06-05T09:42:02Z</time>
      </trkpt>
      <trkpt lat="45.70318" lon="4.62497">
        <ele>779.801941</ele>
        <time>2016-06-05T09:42:04Z</time>
      </trkpt>
      <trkpt lat="45.70318" lon="4.62513">
        <ele>780.507263</ele>
        <time>2016-06-05T09:42:06Z</time>
      </trkpt>
      <trkpt lat="45.70321" lon="4.6253">
        <ele>780.784546</ele>
        <time>2016-06-05T09:42:08Z</time>
      </trkpt>
      <trkpt lat="45.70325" lon="4.62548">
        <ele>781.130066</ele>
        <time>2016-06-05T09:42:10Z</time>
      </trkpt>
      <trkpt lat="45.70331" lon="4.62563">
        <ele>780.927917</ele>
        <time>2016-06-05T09:42:12Z</time>
      </trkpt>
      <trkpt lat="45.70336" lon="4.62575">
        <ele>781.213989</ele>
        <time>2016-06-05T09:42:14Z</time>
      </trkpt>
      <trkpt lat="45.70336" lon="4.6258">
        <ele>781.786682</ele>
        <time>2016-06-05T09:42:16Z</time>
      </trkpt>
      <trkpt lat="45.70335" lon="4.62589">
        <ele>783.172363</ele>
        <time>2016-06-05T09:42:46Z</time>
      </trkpt>
      <trkpt lat="45.70331" lon="4.62592">
        <ele>783.196289</ele>
        <time>2016-06-05T09:42:48Z</time>
      </trkpt>
      <trkpt lat="45.70325" lon="4.62596">
        <ele>783.26123</ele>
        <time>2016-06-05T09:42:50Z</time>
      </trkpt>
      <trkpt lat="45.70319" lon="4.626">
        <ele>783.326172</ele>
        <time>2016-06-05T09:42:52Z</time>
      </trkpt>
      <trkpt lat="45.70315" lon="4.62607">
        <ele>783.46936</ele>
        <time>2016-06-05T09:42:54Z</time>
      </trkpt>
      <trkpt lat="45.70311" lon="4.62616">
        <ele>783.816406</ele>
        <time>2016-06-05T09:42:56Z</time>
      </trkpt>
      <trkpt lat="45.70308" lon="4.62625">
        <ele>783.827515</ele>
        <time>2016-06-05T09:42:58Z</time>
      </trkpt>
      <trkpt lat="45.70305" lon="4.62632">
        <ele>783.993286</ele>
        <time>2016-06-05T09:43:00Z</time>
      </trkpt>
      <trkpt lat="45.70301" lon="4.62643">
        <ele>783.881348</ele>
        <time>2016-06-05T09:43:02Z</time>
      </trkpt>
      <trkpt lat="45.70297" lon="4.62655">
        <ele>783.919434</ele>
        <time>2016-06-05T09:43:04Z</time>
      </trkpt>
      <trkpt lat="45.70293" lon="4.6267">
        <ele>783.776245</ele>
        <time>2016-06-05T09:43:06Z</time>
      </trkpt>
      <trkpt lat="45.70287" lon="4.62688">
        <ele>783.684448</ele>
        <time>2016-06-05T09:43:08Z</time>
      </trkpt>
      <trkpt lat="45.70281" lon="4.62707">
        <ele>783.67511</ele>
        <time>2016-06-05T09:43:10Z</time>
      </trkpt>
      <trkpt lat="45.70275" lon="4.62723">
        <ele>783.480408</ele>
        <time>2016-06-05T09:43:12Z</time>
      </trkpt>
      <trkpt lat="45.70271" lon="4.62732">
        <ele>783.692871</ele>
        <time>2016-06-05T09:43:14Z</time>
      </trkpt>
      <trkpt lat="45.70268" lon="4.62738">
        <ele>783.607849</ele>
        <time>2016-06-05T09:43:16Z</time>
      </trkpt>
      <trkpt lat="45.70265" lon="4.62743">
        <ele>783.542969</ele>
        <time>2016-06-05T09:43:18Z</time>
      </trkpt>
      <trkpt lat="45.70261" lon="4.6275">
        <ele>783.514038</ele>
        <time>2016-06-05T09:43:20Z</time>
      </trkpt>
      <trkpt lat="45.70258" lon="4.62757">
        <ele>783.449158</ele>
        <time>2016-06-05T09:43:22Z</time>
      </trkpt>
      <trkpt lat="45.70254" lon="4.62764">
        <ele>783.328308</ele>
        <time>2016-06-05T09:43:24Z</time>
      </trkpt>
      <trkpt lat="45.70249" lon="4.62772">
        <ele>783.232056</ele>
        <time>2016-06-05T09:43:26Z</time>
      </trkpt>
      <trkpt lat="45.70243" lon="4.6278">
        <ele>783.164001</ele>
        <time>2016-06-05T09:43:28Z</time>
      </trkpt>
      <trkpt lat="45.70236" lon="4.62789">
        <ele>782.658386</ele>
        <time>2016-06-05T09:43:30Z</time>
      </trkpt>
      <trkpt lat="45.70228" lon="4.628">
        <ele>782.602478</ele>
        <time>2016-06-05T09:43:32Z</time>
      </trkpt>
      <trkpt lat="45.70219" lon="4.62811">
        <ele>782.640503</ele>
        <time>2016-06-05T09:43:34Z</time>
      </trkpt>
      <trkpt lat="45.7021" lon="4.62822">
        <ele>782.545776</ele>
        <time>2016-06-05T09:43:36Z</time>
      </trkpt>
      <trkpt lat="45.70203" lon="4.62835">
        <ele>782.870483</ele>
        <time>2016-06-05T09:43:38Z</time>
      </trkpt>
      <trkpt lat="45.70195" lon="4.62849">
        <ele>782.85614</ele>
        <time>2016-06-05T09:43:40Z</time>
      </trkpt>
      <trkpt lat="45.70184" lon="4.62864">
        <ele>782.565125</ele>
        <time>2016-06-05T09:43:42Z</time>
      </trkpt>
      <trkpt lat="45.70173" lon="4.62879">
        <ele>782.448853</ele>
        <time>2016-06-05T09:43:44Z</time>
      </trkpt>
      <trkpt lat="45.70162" lon="4.62897">
        <ele>782.388306</ele>
        <time>2016-06-05T09:43:46Z</time>
      </trkpt>
      <trkpt lat="45.70152" lon="4.6291">
        <ele>782.236206</ele>
        <time>2016-06-05T09:43:48Z</time>
      </trkpt>
      <trkpt lat="45.70141" lon="4.62923">
        <ele>782.3302</ele>
        <time>2016-06-05T09:43:50Z</time>
      </trkpt>
      <trkpt lat="45.7013" lon="4.62935">
        <ele>782.161743</ele>
        <time>2016-06-05T09:43:52Z</time>
      </trkpt>
      <trkpt lat="45.70118" lon="4.62945">
        <ele>782.216125</ele>
        <time>2016-06-05T09:43:54Z</time>
      </trkpt>
      <trkpt lat="45.70105" lon="4.62953">
        <ele>782.050903</ele>
        <time>2016-06-05T09:43:56Z</time>
      </trkpt>
      <trkpt lat="45.70092" lon="4.6296">
        <ele>781.959167</ele>
        <time>2016-06-05T09:43:58Z</time>
      </trkpt>
      <trkpt lat="45.70078" lon="4.6297">
        <ele>781.772461</ele>
        <time>2016-06-05T09:44:00Z</time>
      </trkpt>
      <trkpt lat="45.70061" lon="4.62978">
        <ele>781.568665</ele>
        <time>2016-06-05T09:44:02Z</time>
      </trkpt>
      <trkpt lat="45.70048" lon="4.62985">
        <ele>781.407715</ele>
        <time>2016-06-05T09:44:04Z</time>
      </trkpt>
      <trkpt lat="45.70036" lon="4.62989">
        <ele>781.47168</ele>
        <time>2016-06-05T09:44:06Z</time>
      </trkpt>
      <trkpt lat="45.70025" lon="4.62995">
        <ele>781.501648</ele>
        <time>2016-06-05T09:44:08Z</time>
      </trkpt>
      <trkpt lat="45.70015" lon="4.63001">
        <ele>781.817078</ele>
        <time>2016-06-05T09:44:10Z</time>
      </trkpt>
      <trkpt lat="45.70007" lon="4.63004">
        <ele>781.662598</ele>
        <time>2016-06-05T09:44:12Z</time>
      </trkpt>
      <trkpt lat="45.70001" lon="4.63005">
        <ele>781.651367</ele>
        <time>2016-06-05T09:44:14Z</time>
      </trkpt>
      <trkpt lat="45.69996" lon="4.63003">
        <ele>781.383606</ele>
        <time>2016-06-05T09:44:16Z</time>
      </trkpt>
      <trkpt lat="45.69991" lon="4.63003">
        <ele>781.446289</ele>
        <time>2016-06-05T09:44:18Z</time>
      </trkpt>
      <trkpt lat="45.69986" lon="4.63006">
        <ele>781.336548</ele>
        <time>2016-06-05T09:44:20Z</time>
      </trkpt>
      <trkpt lat="45.69981" lon="4.63009">
        <ele>781.176453</ele>
        <time>2016-06-05T09:44:22Z</time>
      </trkpt>
      <trkpt lat="45.69974" lon="4.6301">
        <ele>781.151855</ele>
        <time>2016-06-05T09:44:24Z</time>
      </trkpt>
      <trkpt lat="45.69966" lon="4.6301">
        <ele>781.193359</ele>
        <time>2016-06-05T09:44:26Z</time>
      </trkpt>
      <trkpt lat="45.69958" lon="4.63011">
        <ele>781.63446</ele>
        <time>2016-06-05T09:44:28Z</time>
      </trkpt>
      <trkpt lat="45.69951" lon="4.63011">
        <ele>781.661377</ele>
        <time>2016-06-05T09:44:30Z</time>
      </trkpt>
      <trkpt lat="45.69943" lon="4.63013">
        <ele>781.66333</ele>
        <time>2016-06-05T09:44:32Z</time>
      </trkpt>
      <trkpt lat="45.69936" lon="4.63015">
        <ele>781.615601</ele>
        <time>2016-06-05T09:44:34Z</time>
      </trkpt>
      <trkpt lat="45.6993" lon="4.63016">
        <ele>781.590942</ele>
        <time>2016-06-05T09:44:36Z</time>
      </trkpt>
      <trkpt lat="45.69923" lon="4.63021">
        <ele>782.081055</ele>
        <time>2016-06-05T09:44:38Z</time>
      </trkpt>
      <trkpt lat="45.69918" lon="4.63028">
        <ele>782.148132</ele>
        <time>2016-06-05T09:44:40Z</time>
      </trkpt>
      <trkpt lat="45.69911" lon="4.63036">
        <ele>782.36615</ele>
        <time>2016-06-05T09:44:42Z</time>
      </trkpt>
      <trkpt lat="45.69903" lon="4.63042">
        <ele>782.10437</ele>
        <time>2016-06-05T09:44:44Z</time>
      </trkpt>
      <trkpt lat="45.69895" lon="4.63051">
        <ele>781.858826</ele>
        <time>2016-06-05T09:44:46Z</time>
      </trkpt>
      <trkpt lat="45.69889" lon="4.63062">
        <ele>781.992371</ele>
        <time>2016-06-05T09:44:48Z</time>
      </trkpt>
      <trkpt lat="45.69883" lon="4.63072">
        <ele>782.00354</ele>
        <time>2016-06-05T09:44:50Z</time>
      </trkpt>
      <trkpt lat="45.69878" lon="4.63081">
        <ele>781.887268</ele>
        <time>2016-06-05T09:44:52Z</time>
      </trkpt>
      <trkpt lat="45.69872" lon="4.63089">
        <ele>781.589722</ele>
        <time>2016-06-05T09:44:54Z</time>
      </trkpt>
      <trkpt lat="45.69869" lon="4.63095">
        <ele>781.790039</ele>
        <time>2016-06-05T09:44:56Z</time>
      </trkpt>
      <trkpt lat="45.69865" lon="4.63101">
        <ele>781.895691</ele>
        <time>2016-06-05T09:44:58Z</time>
      </trkpt>
      <trkpt lat="45.69861" lon="4.63106">
        <ele>781.705505</ele>
        <time>2016-06-05T09:45:00Z</time>
      </trkpt>
      <trkpt lat="45.69858" lon="4.63112">
        <ele>780.928833</ele>
        <time>2016-06-05T09:45:02Z</time>
      </trkpt>
      <trkpt lat="45.69854" lon="4.63118">
        <ele>780.901733</ele>
        <time>2016-06-05T09:45:04Z</time>
      </trkpt>
      <trkpt lat="45.6985" lon="4.63123">
        <ele>780.964478</ele>
        <time>2016-06-05T09:45:06Z</time>
      </trkpt>
      <trkpt lat="45.69845" lon="4.63128">
        <ele>780.343079</ele>
        <time>2016-06-05T09:45:08Z</time>
      </trkpt>
      <trkpt lat="45.69839" lon="4.63135">
        <ele>780.199829</ele>
        <time>2016-06-05T09:45:10Z</time>
      </trkpt>
      <trkpt lat="45.69834" lon="4.63143">
        <ele>780.237732</ele>
        <time>2016-06-05T09:45:12Z</time>
      </trkpt>
      <trkpt lat="45.69827" lon="4.63153">
        <ele>779.942505</ele>
        <time>2016-06-05T09:45:14Z</time>
      </trkpt>
      <trkpt lat="45.6982" lon="4.63166">
        <ele>779.915283</ele>
        <time>2016-06-05T09:45:16Z</time>
      </trkpt>
      <trkpt lat="45.69815" lon="4.63179">
        <ele>779.503479</ele>
        <time>2016-06-05T09:45:18Z</time>
      </trkpt>
      <trkpt lat="45.69811" lon="4.63192">
        <ele>778.905945</ele>
        <time>2016-06-05T09:45:20Z</time>
      </trkpt>
      <trkpt lat="45.69807" lon="4.63206">
        <ele>778.462036</ele>
        <time>2016-06-05T09:45:22Z</time>
      </trkpt>
      <trkpt lat="45.69804" lon="4.63223">
        <ele>778.321167</ele>
        <time>2016-06-05T09:45:24Z</time>
      </trkpt>
      <trkpt lat="45.69801" lon="4.63238">
        <ele>777.527466</ele>
        <time>2016-06-05T09:45:26Z</time>
      </trkpt>
      <trkpt lat="45.698" lon="4.63253">
        <ele>777.902649</ele>
        <time>2016-06-05T09:45:28Z</time>
      </trkpt>
      <trkpt lat="45.69799" lon="4.63266">
        <ele>777.757202</ele>
        <time>2016-06-05T09:45:30Z</time>
      </trkpt>
      <trkpt lat="45.69797" lon="4.63278">
        <ele>777.100098</ele>
        <time>2016-06-05T09:45:32Z</time>
      </trkpt>
      <trkpt lat="45.69796" lon="4.63289">
        <ele>777.039551</ele>
        <time>2016-06-05T09:45:34Z</time>
      </trkpt>
      <trkpt lat="45.69795" lon="4.633">
        <ele>776.802368</ele>
        <time>2016-06-05T09:45:36Z</time>
      </trkpt>
      <trkpt lat="45.69795" lon="4.6331">
        <ele>776.203979</ele>
        <time>2016-06-05T09:45:38Z</time>
      </trkpt>
      <trkpt lat="45.69796" lon="4.63321">
        <ele>775.829956</ele>
        <time>2016-06-05T09:45:40Z</time>
      </trkpt>
      <trkpt lat="45.69797" lon="4.63333">
        <ele>775.452148</ele>
        <time>2016-06-05T09:45:42Z</time>
      </trkpt>
      <trkpt lat="45.69801" lon="4.63344">
        <ele>775.195068</ele>
        <time>2016-06-05T09:45:44Z</time>
      </trkpt>
      <trkpt lat="45.69807" lon="4.63353">
        <ele>774.696594</ele>
        <time>2016-06-05T09:45:46Z</time>
      </trkpt>
      <trkpt lat="45.69814" lon="4.63362">
        <ele>774.103943</ele>
        <time>2016-06-05T09:45:48Z</time>
      </trkpt>
      <trkpt lat="45.69822" lon="4.63372">
        <ele>773.638916</ele>
        <time>2016-06-05T09:45:50Z</time>
      </trkpt>
      <trkpt lat="45.69829" lon="4.63383">
        <ele>773.486755</ele>
        <time>2016-06-05T09:45:52Z</time>
      </trkpt>
      <trkpt lat="45.69838" lon="4.63391">
        <ele>773.142334</ele>
        <time>2016-06-05T09:45:54Z</time>
      </trkpt>
      <trkpt lat="45.69843" lon="4.63396">
        <ele>772.977173</ele>
        <time>2016-06-05T09:45:56Z</time>
      </trkpt>
      <trkpt lat="45.69848" lon="4.63402">
        <ele>773.075623</ele>
        <time>2016-06-05T09:45:58Z</time>
      </trkpt>
      <trkpt lat="45.69854" lon="4.63411">
        <ele>773.120361</ele>
        <time>2016-06-05T09:46:00Z</time>
      </trkpt>
      <trkpt lat="45.6986" lon="4.63419">
        <ele>773.45813</ele>
        <time>2016-06-05T09:46:02Z</time>
      </trkpt>
      <trkpt lat="45.69863" lon="4.63428">
        <ele>773.354126</ele>
        <time>2016-06-05T09:46:04Z</time>
      </trkpt>
      <trkpt lat="45.69865" lon="4.63438">
        <ele>772.982605</ele>
        <time>2016-06-05T09:46:06Z</time>
      </trkpt>
      <trkpt lat="45.69866" lon="4.6345">
        <ele>773.522888</ele>
        <time>2016-06-05T09:46:08Z</time>
      </trkpt>
      <trkpt lat="45.69865" lon="4.63462">
        <ele>772.847351</ele>
        <time>2016-06-05T09:46:10Z</time>
      </trkpt>
      <trkpt lat="45.69865" lon="4.63474">
        <ele>772.297058</ele>
        <time>2016-06-05T09:46:12Z</time>
      </trkpt>
      <trkpt lat="45.69866" lon="4.63499">
        <ele>772.545715</ele>
        <time>2016-06-05T09:46:16Z</time>
      </trkpt>
      <trkpt lat="45.69869" lon="4.63514">
        <ele>772.192383</ele>
        <time>2016-06-05T09:46:18Z</time>
      </trkpt>
      <trkpt lat="45.6987" lon="4.63528">
        <ele>771.875</ele>
        <time>2016-06-05T09:46:20Z</time>
      </trkpt>
      <trkpt lat="45.69868" lon="4.6354">
        <ele>772.239563</ele>
        <time>2016-06-05T09:46:22Z</time>
      </trkpt>
      <trkpt lat="45.69863" lon="4.6355">
        <ele>771.79895</ele>
        <time>2016-06-05T09:46:24Z</time>
      </trkpt>
      <trkpt lat="45.6986" lon="4.6356">
        <ele>771.956726</ele>
        <time>2016-06-05T09:46:26Z</time>
      </trkpt>
      <trkpt lat="45.69856" lon="4.63573">
        <ele>772.021484</ele>
        <time>2016-06-05T09:46:28Z</time>
      </trkpt>
      <trkpt lat="45.69853" lon="4.63586">
        <ele>772.104187</ele>
        <time>2016-06-05T09:46:30Z</time>
      </trkpt>
      <trkpt lat="45.69849" lon="4.63601">
        <ele>771.945618</ele>
        <time>2016-06-05T09:46:32Z</time>
      </trkpt>
      <trkpt lat="45.69846" lon="4.63614">
        <ele>771.996582</ele>
        <time>2016-06-05T09:46:34Z</time>
      </trkpt>
      <trkpt lat="45.69843" lon="4.63627">
        <ele>771.595337</ele>
        <time>2016-06-05T09:46:36Z</time>
      </trkpt>
      <trkpt lat="45.69842" lon="4.63638">
        <ele>771.278076</ele>
        <time>2016-06-05T09:46:38Z</time>
      </trkpt>
      <trkpt lat="45.69841" lon="4.6365">
        <ele>771.300476</ele>
        <time>2016-06-05T09:46:40Z</time>
      </trkpt>
      <trkpt lat="45.69838" lon="4.63663">
        <ele>770.741394</ele>
        <time>2016-06-05T09:46:42Z</time>
      </trkpt>
      <trkpt lat="45.69834" lon="4.63678">
        <ele>770.41095</ele>
        <time>2016-06-05T09:46:44Z</time>
      </trkpt>
      <trkpt lat="45.69829" lon="4.63694">
        <ele>769.930176</ele>
        <time>2016-06-05T09:46:46Z</time>
      </trkpt>
      <trkpt lat="45.69823" lon="4.63704">
        <ele>769.700012</ele>
        <time>2016-06-05T09:46:48Z</time>
      </trkpt>
      <trkpt lat="45.69815" lon="4.63714">
        <ele>769.675415</ele>
        <time>2016-06-05T09:46:50Z</time>
      </trkpt>
      <trkpt lat="45.69808" lon="4.63726">
        <ele>769.217529</ele>
        <time>2016-06-05T09:46:52Z</time>
      </trkpt>
      <trkpt lat="45.69801" lon="4.63739">
        <ele>768.989624</ele>
        <time>2016-06-05T09:46:54Z</time>
      </trkpt>
      <trkpt lat="45.69795" lon="4.63752">
        <ele>768.676758</ele>
        <time>2016-06-05T09:46:56Z</time>
      </trkpt>
      <trkpt lat="45.69788" lon="4.63765">
        <ele>768.355652</ele>
        <time>2016-06-05T09:46:58Z</time>
      </trkpt>
      <trkpt lat="45.69783" lon="4.63777">
        <ele>767.141907</ele>
        <time>2016-06-05T09:47:00Z</time>
      </trkpt>
      <trkpt lat="45.69775" lon="4.63786">
        <ele>766.802429</ele>
        <time>2016-06-05T09:47:02Z</time>
      </trkpt>
      <trkpt lat="45.69767" lon="4.63793">
        <ele>765.966797</ele>
        <time>2016-06-05T09:47:04Z</time>
      </trkpt>
      <trkpt lat="45.69762" lon="4.63806">
        <ele>766.121704</ele>
        <time>2016-06-05T09:47:06Z</time>
      </trkpt>
      <trkpt lat="45.69761" lon="4.63821">
        <ele>765.248657</ele>
        <time>2016-06-05T09:47:08Z</time>
      </trkpt>
      <trkpt lat="45.69762" lon="4.63836">
        <ele>764.710083</ele>
        <time>2016-06-05T09:47:10Z</time>
      </trkpt>
      <trkpt lat="45.69767" lon="4.6385">
        <ele>764.374939</ele>
        <time>2016-06-05T09:47:12Z</time>
      </trkpt>
      <trkpt lat="45.6977" lon="4.63861">
        <ele>764.355774</ele>
        <time>2016-06-05T09:47:14Z</time>
      </trkpt>
      <trkpt lat="45.69771" lon="4.63869">
        <ele>763.906616</ele>
        <time>2016-06-05T09:47:16Z</time>
      </trkpt>
      <trkpt lat="45.6977" lon="4.63875">
        <ele>763.989319</ele>
        <time>2016-06-05T09:47:18Z</time>
      </trkpt>
      <trkpt lat="45.69766" lon="4.63882">
        <ele>763.710022</ele>
        <time>2016-06-05T09:47:20Z</time>
      </trkpt>
      <trkpt lat="45.6976" lon="4.63888">
        <ele>763.182556</ele>
        <time>2016-06-05T09:47:22Z</time>
      </trkpt>
      <trkpt lat="45.69751" lon="4.6389">
        <ele>762.113586</ele>
        <time>2016-06-05T09:47:24Z</time>
      </trkpt>
      <trkpt lat="45.69744" lon="4.6389">
        <ele>761.78479</ele>
        <time>2016-06-05T09:47:26Z</time>
      </trkpt>
      <trkpt lat="45.69744" lon="4.63896">
        <ele>761.208374</ele>
        <time>2016-06-05T09:47:28Z</time>
      </trkpt>
      <trkpt lat="45.6975" lon="4.639">
        <ele>760.940857</ele>
        <time>2016-06-05T09:47:30Z</time>
      </trkpt>
      <trkpt lat="45.69759" lon="4.63904">
        <ele>760.585571</ele>
        <time>2016-06-05T09:47:32Z</time>
      </trkpt>
      <trkpt lat="45.69769" lon="4.63907">
        <ele>760.498474</ele>
        <time>2016-06-05T09:47:34Z</time>
      </trkpt>
      <trkpt lat="45.69781" lon="4.63913">
        <ele>760.352234</ele>
        <time>2016-06-05T09:47:36Z</time>
      </trkpt>
      <trkpt lat="45.69792" lon="4.63922">
        <ele>760.119934</ele>
        <time>2016-06-05T09:47:38Z</time>
      </trkpt>
      <trkpt lat="45.69794" lon="4.63938">
        <ele>760.966492</ele>
        <time>2016-06-05T09:47:40Z</time>
      </trkpt>
      <trkpt lat="45.69789" lon="4.63951">
        <ele>761.037903</ele>
        <time>2016-06-05T09:47:42Z</time>
      </trkpt>
      <trkpt lat="45.69783" lon="4.63963">
        <ele>760.863647</ele>
        <time>2016-06-05T09:47:44Z</time>
      </trkpt>
      <trkpt lat="45.69778" lon="4.63973">
        <ele>760.635681</ele>
        <time>2016-06-05T09:47:46Z</time>
      </trkpt>
      <trkpt lat="45.69773" lon="4.63984">
        <ele>760.950134</ele>
        <time>2016-06-05T09:47:48Z</time>
      </trkpt>
      <trkpt lat="45.69769" lon="4.63996">
        <ele>760.894287</ele>
        <time>2016-06-05T09:47:50Z</time>
      </trkpt>
      <trkpt lat="45.69767" lon="4.64007">
        <ele>760.863037</ele>
        <time>2016-06-05T09:47:52Z</time>
      </trkpt>
      <trkpt lat="45.69765" lon="4.64018">
        <ele>760.719055</ele>
        <time>2016-06-05T09:47:54Z</time>
      </trkpt>
      <trkpt lat="45.69764" lon="4.64029">
        <ele>760.599731</ele>
        <time>2016-06-05T09:47:56Z</time>
      </trkpt>
      <trkpt lat="45.69764" lon="4.64039">
        <ele>760.482849</ele>
        <time>2016-06-05T09:47:58Z</time>
      </trkpt>
      <trkpt lat="45.69766" lon="4.64048">
        <ele>760.156616</ele>
        <time>2016-06-05T09:48:00Z</time>
      </trkpt>
      <trkpt lat="45.69769" lon="4.64057">
        <ele>759.906555</ele>
        <time>2016-06-05T09:48:02Z</time>
      </trkpt>
      <trkpt lat="45.69772" lon="4.64066">
        <ele>760.667053</ele>
        <time>2016-06-05T09:48:04Z</time>
      </trkpt>
      <trkpt lat="45.69776" lon="4.64075">
        <ele>760.374512</ele>
        <time>2016-06-05T09:48:06Z</time>
      </trkpt>
      <trkpt lat="45.69781" lon="4.64083">
        <ele>760.416931</ele>
        <time>2016-06-05T09:48:08Z</time>
      </trkpt>
      <trkpt lat="45.69786" lon="4.64091">
        <ele>760.450378</ele>
        <time>2016-06-05T09:48:10Z</time>
      </trkpt>
      <trkpt lat="45.69791" lon="4.64099">
        <ele>760.316406</ele>
        <time>2016-06-05T09:48:12Z</time>
      </trkpt>
      <trkpt lat="45.69796" lon="4.64106">
        <ele>760.312012</ele>
        <time>2016-06-05T09:48:14Z</time>
      </trkpt>
      <trkpt lat="45.69801" lon="4.64113">
        <ele>760.289673</ele>
        <time>2016-06-05T09:48:16Z</time>
      </trkpt>
      <trkpt lat="45.69805" lon="4.64121">
        <ele>760.223755</ele>
        <time>2016-06-05T09:48:18Z</time>
      </trkpt>
      <trkpt lat="45.69809" lon="4.64132">
        <ele>760.237122</ele>
        <time>2016-06-05T09:48:20Z</time>
      </trkpt>
      <trkpt lat="45.69809" lon="4.64147">
        <ele>760.049988</ele>
        <time>2016-06-05T09:48:22Z</time>
      </trkpt>
      <trkpt lat="45.69801" lon="4.64158">
        <ele>760.016479</ele>
        <time>2016-06-05T09:48:24Z</time>
      </trkpt>
      <trkpt lat="45.69793" lon="4.64167">
        <ele>759.945618</ele>
        <time>2016-06-05T09:48:26Z</time>
      </trkpt>
      <trkpt lat="45.69788" lon="4.64175">
        <ele>759.738098</ele>
        <time>2016-06-05T09:48:28Z</time>
      </trkpt>
      <trkpt lat="45.69785" lon="4.64182">
        <ele>759.617493</ele>
        <time>2016-06-05T09:48:30Z</time>
      </trkpt>
      <trkpt lat="45.69783" lon="4.64187">
        <ele>759.529114</ele>
        <time>2016-06-05T09:48:32Z</time>
      </trkpt>
      <trkpt lat="45.6978" lon="4.64193">
        <ele>759.355835</ele>
        <time>2016-06-05T09:48:34Z</time>
      </trkpt>
      <trkpt lat="45.69777" lon="4.64199">
        <ele>759.349121</ele>
        <time>2016-06-05T09:48:36Z</time>
      </trkpt>
      <trkpt lat="45.69772" lon="4.64206">
        <ele>759.063354</ele>
        <time>2016-06-05T09:48:38Z</time>
      </trkpt>
      <trkpt lat="45.69766" lon="4.64213">
        <ele>759.119141</ele>
        <time>2016-06-05T09:48:40Z</time>
      </trkpt>
      <trkpt lat="45.6976" lon="4.6422">
        <ele>758.985229</ele>
        <time>2016-06-05T09:48:42Z</time>
      </trkpt>
      <trkpt lat="45.69753" lon="4.64228">
        <ele>758.882507</ele>
        <time>2016-06-05T09:48:44Z</time>
      </trkpt>
      <trkpt lat="45.69743" lon="4.64236">
        <ele>758.70343</ele>
        <time>2016-06-05T09:48:46Z</time>
      </trkpt>
      <trkpt lat="45.69733" lon="4.64246">
        <ele>758.567017</ele>
        <time>2016-06-05T09:48:48Z</time>
      </trkpt>
      <trkpt lat="45.69727" lon="4.64259">
        <ele>758.328125</ele>
        <time>2016-06-05T09:48:50Z</time>
      </trkpt>
      <trkpt lat="45.69724" lon="4.64269">
        <ele>758.089172</ele>
        <time>2016-06-05T09:48:52Z</time>
      </trkpt>
      <trkpt lat="45.69722" lon="4.64279">
        <ele>757.909973</ele>
        <time>2016-06-05T09:48:54Z</time>
      </trkpt>
      <trkpt lat="45.6972" lon="4.64288">
        <ele>757.669617</ele>
        <time>2016-06-05T09:48:56Z</time>
      </trkpt>
      <trkpt lat="45.69717" lon="4.64297">
        <ele>757.442017</ele>
        <time>2016-06-05T09:48:58Z</time>
      </trkpt>
      <trkpt lat="45.69714" lon="4.64305">
        <ele>757.191895</ele>
        <time>2016-06-05T09:49:00Z</time>
      </trkpt>
      <trkpt lat="45.69712" lon="4.64314">
        <ele>756.966431</ele>
        <time>2016-06-05T09:49:02Z</time>
      </trkpt>
      <trkpt lat="45.69709" lon="4.64323">
        <ele>756.677063</ele>
        <time>2016-06-05T09:49:04Z</time>
      </trkpt>
      <trkpt lat="45.69707" lon="4.64333">
        <ele>756.404968</ele>
        <time>2016-06-05T09:49:06Z</time>
      </trkpt>
      <trkpt lat="45.69706" lon="4.64342">
        <ele>756.297852</ele>
        <time>2016-06-05T09:49:08Z</time>
      </trkpt>
      <trkpt lat="45.69705" lon="4.64353">
        <ele>756.228638</ele>
        <time>2016-06-05T09:49:10Z</time>
      </trkpt>
      <trkpt lat="45.69705" lon="4.64366">
        <ele>756.047852</ele>
        <time>2016-06-05T09:49:12Z</time>
      </trkpt>
      <trkpt lat="45.69707" lon="4.64379">
        <ele>755.810242</ele>
        <time>2016-06-05T09:49:14Z</time>
      </trkpt>
      <trkpt lat="45.69709" lon="4.64392">
        <ele>755.549133</ele>
        <time>2016-06-05T09:49:16Z</time>
      </trkpt>
      <trkpt lat="45.69714" lon="4.64405">
        <ele>755.118347</ele>
        <time>2016-06-05T09:49:18Z</time>
      </trkpt>
      <trkpt lat="45.69719" lon="4.64418">
        <ele>755.0578</ele>
        <time>2016-06-05T09:49:20Z</time>
      </trkpt>
      <trkpt lat="45.69728" lon="4.64431">
        <ele>754.829712</ele>
        <time>2016-06-05T09:49:22Z</time>
      </trkpt>
      <trkpt lat="45.69741" lon="4.64441">
        <ele>754.883301</ele>
        <time>2016-06-05T09:49:24Z</time>
      </trkpt>
      <trkpt lat="45.69756" lon="4.64446">
        <ele>754.644897</ele>
        <time>2016-06-05T09:49:26Z</time>
      </trkpt>
      <trkpt lat="45.6977" lon="4.64448">
        <ele>754.466614</ele>
        <time>2016-06-05T09:49:28Z</time>
      </trkpt>
      <trkpt lat="45.69784" lon="4.6445">
        <ele>754.471008</ele>
        <time>2016-06-05T09:49:30Z</time>
      </trkpt>
      <trkpt lat="45.69796" lon="4.6446">
        <ele>754.377625</ele>
        <time>2016-06-05T09:49:32Z</time>
      </trkpt>
      <trkpt lat="45.69801" lon="4.64474">
        <ele>754.295044</ele>
        <time>2016-06-05T09:49:34Z</time>
      </trkpt>
      <trkpt lat="45.69801" lon="4.64489">
        <ele>754.254883</ele>
        <time>2016-06-05T09:49:36Z</time>
      </trkpt>
      <trkpt lat="45.69797" lon="4.64502">
        <ele>754.109009</ele>
        <time>2016-06-05T09:49:38Z</time>
      </trkpt>
      <trkpt lat="45.69791" lon="4.64512">
        <ele>754.11731</ele>
        <time>2016-06-05T09:49:40Z</time>
      </trkpt>
      <trkpt lat="45.69784" lon="4.64522">
        <ele>754.018188</ele>
        <time>2016-06-05T09:49:42Z</time>
      </trkpt>
      <trkpt lat="45.69776" lon="4.64532">
        <ele>753.953613</ele>
        <time>2016-06-05T09:49:44Z</time>
      </trkpt>
      <trkpt lat="45.69768" lon="4.64542">
        <ele>753.840515</ele>
        <time>2016-06-05T09:49:46Z</time>
      </trkpt>
      <trkpt lat="45.6976" lon="4.64552">
        <ele>753.761536</ele>
        <time>2016-06-05T09:49:48Z</time>
      </trkpt>
      <trkpt lat="45.69753" lon="4.64561">
        <ele>753.634644</ele>
        <time>2016-06-05T09:49:50Z</time>
      </trkpt>
      <trkpt lat="45.69746" lon="4.64571">
        <ele>753.708313</ele>
        <time>2016-06-05T09:49:52Z</time>
      </trkpt>
      <trkpt lat="45.69739" lon="4.64581">
        <ele>753.710571</ele>
        <time>2016-06-05T09:49:54Z</time>
      </trkpt>
      <trkpt lat="45.69734" lon="4.64591">
        <ele>753.670288</ele>
        <time>2016-06-05T09:49:56Z</time>
      </trkpt>
      <trkpt lat="45.6973" lon="4.646">
        <ele>753.679321</ele>
        <time>2016-06-05T09:49:58Z</time>
      </trkpt>
      <trkpt lat="45.69727" lon="4.64609">
        <ele>753.795288</ele>
        <time>2016-06-05T09:50:00Z</time>
      </trkpt>
      <trkpt lat="45.69724" lon="4.64616">
        <ele>753.708496</ele>
        <time>2016-06-05T09:50:02Z</time>
      </trkpt>
      <trkpt lat="45.69721" lon="4.64622">
        <ele>753.604126</ele>
        <time>2016-06-05T09:50:04Z</time>
      </trkpt>
      <trkpt lat="45.69718" lon="4.64628">
        <ele>753.471375</ele>
        <time>2016-06-05T09:50:06Z</time>
      </trkpt>
      <trkpt lat="45.69716" lon="4.64634">
        <ele>753.658813</ele>
        <time>2016-06-05T09:50:08Z</time>
      </trkpt>
      <trkpt lat="45.69713" lon="4.64641">
        <ele>753.670044</ele>
        <time>2016-06-05T09:50:10Z</time>
      </trkpt>
      <trkpt lat="45.6971" lon="4.64647">
        <ele>753.571838</ele>
        <time>2016-06-05T09:50:12Z</time>
      </trkpt>
      <trkpt lat="45.69707" lon="4.64653">
        <ele>753.590393</ele>
        <time>2016-06-05T09:50:14Z</time>
      </trkpt>
      <trkpt lat="45.69704" lon="4.64659">
        <ele>753.611877</ele>
        <time>2016-06-05T09:50:16Z</time>
      </trkpt>
      <trkpt lat="45.69701" lon="4.64666">
        <ele>753.52478</ele>
        <time>2016-06-05T09:50:18Z</time>
      </trkpt>
      <trkpt lat="45.697" lon="4.64672">
        <ele>753.604248</ele>
        <time>2016-06-05T09:50:20Z</time>
      </trkpt>
      <trkpt lat="45.69698" lon="4.6468">
        <ele>753.560242</ele>
        <time>2016-06-05T09:50:22Z</time>
      </trkpt>
      <trkpt lat="45.69698" lon="4.64687">
        <ele>753.578125</ele>
        <time>2016-06-05T09:50:24Z</time>
      </trkpt>
      <trkpt lat="45.69697" lon="4.64693">
        <ele>753.624878</ele>
        <time>2016-06-05T09:50:26Z</time>
      </trkpt>
      <trkpt lat="45.69696" lon="4.647">
        <ele>753.702271</ele>
        <time>2016-06-05T09:50:28Z</time>
      </trkpt>
      <trkpt lat="45.69695" lon="4.64708">
        <ele>753.637512</ele>
        <time>2016-06-05T09:50:30Z</time>
      </trkpt>
      <trkpt lat="45.69695" lon="4.64715">
        <ele>753.781372</ele>
        <time>2016-06-05T09:50:32Z</time>
      </trkpt>
      <trkpt lat="45.69694" lon="4.64722">
        <ele>753.689819</ele>
        <time>2016-06-05T09:50:34Z</time>
      </trkpt>
      <trkpt lat="45.69694" lon="4.6473">
        <ele>753.573853</ele>
        <time>2016-06-05T09:50:36Z</time>
      </trkpt>
      <trkpt lat="45.69694" lon="4.64737">
        <ele>753.455505</ele>
        <time>2016-06-05T09:50:38Z</time>
      </trkpt>
      <trkpt lat="45.69694" lon="4.64745">
        <ele>753.483826</ele>
        <time>2016-06-05T09:50:40Z</time>
      </trkpt>
      <trkpt lat="45.69693" lon="4.64754">
        <ele>753.421326</ele>
        <time>2016-06-05T09:50:42Z</time>
      </trkpt>
      <trkpt lat="45.69694" lon="4.64763">
        <ele>753.390076</ele>
        <time>2016-06-05T09:50:44Z</time>
      </trkpt>
      <trkpt lat="45.69695" lon="4.64773">
        <ele>753.347107</ele>
        <time>2016-06-05T09:50:46Z</time>
      </trkpt>
      <trkpt lat="45.69696" lon="4.64782">
        <ele>753.222229</ele>
        <time>2016-06-05T09:50:48Z</time>
      </trkpt>
      <trkpt lat="45.69696" lon="4.64791">
        <ele>753.251282</ele>
        <time>2016-06-05T09:50:50Z</time>
      </trkpt>
      <trkpt lat="45.69698" lon="4.64801">
        <ele>753.092834</ele>
        <time>2016-06-05T09:50:52Z</time>
      </trkpt>
      <trkpt lat="45.69699" lon="4.64812">
        <ele>753.172485</ele>
        <time>2016-06-05T09:50:54Z</time>
      </trkpt>
      <trkpt lat="45.697" lon="4.64824">
        <ele>753.163574</ele>
        <time>2016-06-05T09:50:56Z</time>
      </trkpt>
      <trkpt lat="45.69702" lon="4.64836">
        <ele>753.077026</ele>
        <time>2016-06-05T09:50:58Z</time>
      </trkpt>
      <trkpt lat="45.69703" lon="4.64848">
        <ele>752.910217</ele>
        <time>2016-06-05T09:51:00Z</time>
      </trkpt>
      <trkpt lat="45.69705" lon="4.64859">
        <ele>752.83075</ele>
        <time>2016-06-05T09:51:02Z</time>
      </trkpt>
      <trkpt lat="45.69707" lon="4.6487">
        <ele>752.736572</ele>
        <time>2016-06-05T09:51:04Z</time>
      </trkpt>
      <trkpt lat="45.69709" lon="4.64882">
        <ele>752.672668</ele>
        <time>2016-06-05T09:51:06Z</time>
      </trkpt>
      <trkpt lat="45.69711" lon="4.64896">
        <ele>752.462952</ele>
        <time>2016-06-05T09:51:08Z</time>
      </trkpt>
      <trkpt lat="45.69715" lon="4.6491">
        <ele>752.280029</ele>
        <time>2016-06-05T09:51:10Z</time>
      </trkpt>
      <trkpt lat="45.69718" lon="4.64925">
        <ele>752.24884</ele>
        <time>2016-06-05T09:51:12Z</time>
      </trkpt>
      <trkpt lat="45.69722" lon="4.6494">
        <ele>752.036865</ele>
        <time>2016-06-05T09:51:14Z</time>
      </trkpt>
      <trkpt lat="45.69725" lon="4.64954">
        <ele>752.025696</ele>
        <time>2016-06-05T09:51:16Z</time>
      </trkpt>
      <trkpt lat="45.69728" lon="4.64967">
        <ele>752.255554</ele>
        <time>2016-06-05T09:51:18Z</time>
      </trkpt>
      <trkpt lat="45.69729" lon="4.64978">
        <ele>752.217651</ele>
        <time>2016-06-05T09:51:20Z</time>
      </trkpt>
      <trkpt lat="45.6973" lon="4.64987">
        <ele>752.129028</ele>
        <time>2016-06-05T09:51:22Z</time>
      </trkpt>
      <trkpt lat="45.6973" lon="4.64996">
        <ele>752.106689</ele>
        <time>2016-06-05T09:51:24Z</time>
      </trkpt>
      <trkpt lat="45.69731" lon="4.65005">
        <ele>752.090149</ele>
        <time>2016-06-05T09:51:26Z</time>
      </trkpt>
      <trkpt lat="45.69731" lon="4.65015">
        <ele>752.021545</ele>
        <time>2016-06-05T09:51:28Z</time>
      </trkpt>
      <trkpt lat="45.69732" lon="4.65025">
        <ele>752.001709</ele>
        <time>2016-06-05T09:51:30Z</time>
      </trkpt>
      <trkpt lat="45.69733" lon="4.65035">
        <ele>751.792603</ele>
        <time>2016-06-05T09:51:32Z</time>
      </trkpt>
      <trkpt lat="45.69737" lon="4.65043">
        <ele>751.838379</ele>
        <time>2016-06-05T09:51:34Z</time>
      </trkpt>
      <trkpt lat="45.69741" lon="4.65048">
        <ele>751.657593</ele>
        <time>2016-06-05T09:51:36Z</time>
      </trkpt>
      <trkpt lat="45.69746" lon="4.65051">
        <ele>751.601807</ele>
        <time>2016-06-05T09:51:38Z</time>
      </trkpt>
      <trkpt lat="45.69749" lon="4.65054">
        <ele>751.570618</ele>
        <time>2016-06-05T09:51:40Z</time>
      </trkpt>
      <trkpt lat="45.69752" lon="4.65056">
        <ele>751.689392</ele>
        <time>2016-06-05T09:51:42Z</time>
      </trkpt>
      <trkpt lat="45.69755" lon="4.65059">
        <ele>751.726501</ele>
        <time>2016-06-05T09:51:44Z</time>
      </trkpt>
      <trkpt lat="45.69757" lon="4.65064">
        <ele>751.749329</ele>
        <time>2016-06-05T09:51:46Z</time>
      </trkpt>
      <trkpt lat="45.69755" lon="4.65071">
        <ele>751.798401</ele>
        <time>2016-06-05T09:51:48Z</time>
      </trkpt>
      <trkpt lat="45.69753" lon="4.65079">
        <ele>751.786255</ele>
        <time>2016-06-05T09:51:50Z</time>
      </trkpt>
      <trkpt lat="45.6975" lon="4.65089">
        <ele>751.505188</ele>
        <time>2016-06-05T09:51:52Z</time>
      </trkpt>
      <trkpt lat="45.69748" lon="4.65102">
        <ele>751.48822</ele>
        <time>2016-06-05T09:51:54Z</time>
      </trkpt>
      <trkpt lat="45.69744" lon="4.65114">
        <ele>751.834229</ele>
        <time>2016-06-05T09:51:56Z</time>
      </trkpt>
      <trkpt lat="45.6974" lon="4.65126">
        <ele>752.571655</ele>
        <time>2016-06-05T09:51:58Z</time>
      </trkpt>
      <trkpt lat="45.69736" lon="4.65138">
        <ele>752.49707</ele>
        <time>2016-06-05T09:52:00Z</time>
      </trkpt>
      <trkpt lat="45.69732" lon="4.6515">
        <ele>752.566467</ele>
        <time>2016-06-05T09:52:02Z</time>
      </trkpt>
      <trkpt lat="45.69727" lon="4.65163">
        <ele>752.10498</ele>
        <time>2016-06-05T09:52:04Z</time>
      </trkpt>
      <trkpt lat="45.69722" lon="4.65176">
        <ele>752.41687</ele>
        <time>2016-06-05T09:52:06Z</time>
      </trkpt>
      <trkpt lat="45.69718" lon="4.65186">
        <ele>752.65155</ele>
        <time>2016-06-05T09:52:08Z</time>
      </trkpt>
      <trkpt lat="45.69716" lon="4.65198">
        <ele>752.69397</ele>
        <time>2016-06-05T09:52:10Z</time>
      </trkpt>
      <trkpt lat="45.69713" lon="4.65206">
        <ele>752.597595</ele>
        <time>2016-06-05T09:52:12Z</time>
      </trkpt>
      <trkpt lat="45.69711" lon="4.65216">
        <ele>752.485352</ele>
        <time>2016-06-05T09:52:14Z</time>
      </trkpt>
      <trkpt lat="45.69716" lon="4.65225">
        <ele>752.531128</ele>
        <time>2016-06-05T09:52:16Z</time>
      </trkpt>
      <trkpt lat="45.69724" lon="4.65234">
        <ele>752.526672</ele>
        <time>2016-06-05T09:52:18Z</time>
      </trkpt>
      <trkpt lat="45.6973" lon="4.65246">
        <ele>751.541687</ele>
        <time>2016-06-05T09:52:20Z</time>
      </trkpt>
      <trkpt lat="45.69733" lon="4.65258">
        <ele>751.603882</ele>
        <time>2016-06-05T09:52:22Z</time>
      </trkpt>
      <trkpt lat="45.69735" lon="4.6527">
        <ele>751.822876</ele>
        <time>2016-06-05T09:52:24Z</time>
      </trkpt>
      <trkpt lat="45.6974" lon="4.65281">
        <ele>751.443665</ele>
        <time>2016-06-05T09:52:26Z</time>
      </trkpt>
      <trkpt lat="45.69747" lon="4.65289">
        <ele>751.502075</ele>
        <time>2016-06-05T09:52:28Z</time>
      </trkpt>
      <trkpt lat="45.69753" lon="4.65297">
        <ele>751.574158</ele>
        <time>2016-06-05T09:52:30Z</time>
      </trkpt>
      <trkpt lat="45.69757" lon="4.65305">
        <ele>751.561768</ele>
        <time>2016-06-05T09:52:32Z</time>
      </trkpt>
      <trkpt lat="45.69756" lon="4.65317">
        <ele>752.057007</ele>
        <time>2016-06-05T09:52:34Z</time>
      </trkpt>
      <trkpt lat="45.69753" lon="4.65331">
        <ele>751.952148</ele>
        <time>2016-06-05T09:52:36Z</time>
      </trkpt>
      <trkpt lat="45.69754" lon="4.65346">
        <ele>751.465576</ele>
        <time>2016-06-05T09:52:38Z</time>
      </trkpt>
      <trkpt lat="45.69757" lon="4.65364">
        <ele>750.674622</ele>
        <time>2016-06-05T09:52:40Z</time>
      </trkpt>
      <trkpt lat="45.69759" lon="4.65383">
        <ele>750.354309</ele>
        <time>2016-06-05T09:52:42Z</time>
      </trkpt>
      <trkpt lat="45.69761" lon="4.65401">
        <ele>749.961487</ele>
        <time>2016-06-05T09:52:44Z</time>
      </trkpt>
      <trkpt lat="45.69764" lon="4.65419">
        <ele>749.955078</ele>
        <time>2016-06-05T09:52:46Z</time>
      </trkpt>
      <trkpt lat="45.69767" lon="4.65437">
        <ele>749.832275</ele>
        <time>2016-06-05T09:52:48Z</time>
      </trkpt>
      <trkpt lat="45.69773" lon="4.65455">
        <ele>749.593201</ele>
        <time>2016-06-05T09:52:50Z</time>
      </trkpt>
      <trkpt lat="45.6978" lon="4.65474">
        <ele>749.811951</ele>
        <time>2016-06-05T09:52:52Z</time>
      </trkpt>
      <trkpt lat="45.69788" lon="4.65497">
        <ele>749.663574</ele>
        <time>2016-06-05T09:52:54Z</time>
      </trkpt>
      <trkpt lat="45.69795" lon="4.65521">
        <ele>749.537476</ele>
        <time>2016-06-05T09:52:56Z</time>
      </trkpt>
      <trkpt lat="45.69799" lon="4.65542">
        <ele>748.160156</ele>
        <time>2016-06-05T09:52:58Z</time>
      </trkpt>
      <trkpt lat="45.69804" lon="4.65563">
        <ele>746.295898</ele>
        <time>2016-06-05T09:53:00Z</time>
      </trkpt>
      <trkpt lat="45.69807" lon="4.65583">
        <ele>743.918152</ele>
        <time>2016-06-05T09:53:02Z</time>
      </trkpt>
      <trkpt lat="45.69809" lon="4.65605">
        <ele>739.684448</ele>
        <time>2016-06-05T09:53:04Z</time>
      </trkpt>
      <trkpt lat="45.69811" lon="4.65624">
        <ele>733.718689</ele>
        <time>2016-06-05T09:53:06Z</time>
      </trkpt>
      <trkpt lat="45.69818" lon="4.65637">
        <ele>730.570679</ele>
        <time>2016-06-05T09:53:08Z</time>
      </trkpt>
      <trkpt lat="45.69829" lon="4.65649">
        <ele>725.911926</ele>
        <time>2016-06-05T09:53:10Z</time>
      </trkpt>
      <trkpt lat="45.69842" lon="4.65661">
        <ele>711.664185</ele>
        <time>2016-06-05T09:53:12Z</time>
      </trkpt>
      <trkpt lat="45.69856" lon="4.65671">
        <ele>711.664185</ele>
        <time>2016-06-05T09:53:14Z</time>
      </trkpt>
      <trkpt lat="45.6987" lon="4.6567">
        <ele>697.699646</ele>
        <time>2016-06-05T09:53:16Z</time>
      </trkpt>
      <trkpt lat="45.69882" lon="4.65672">
        <ele>697.699646</ele>
        <time>2016-06-05T09:53:18Z</time>
      </trkpt>
      <trkpt lat="45.69887" lon="4.65684">
        <ele>683.154602</ele>
        <time>2016-06-05T09:53:20Z</time>
      </trkpt>
      <trkpt lat="45.69886" lon="4.657">
        <ele>683.154602</ele>
        <time>2016-06-05T09:53:22Z</time>
      </trkpt>
      <trkpt lat="45.69885" lon="4.65721">
        <ele>666.592041</ele>
        <time>2016-06-05T09:53:24Z</time>
      </trkpt>
      <trkpt lat="45.69883" lon="4.65744">
        <ele>666.592041</ele>
        <time>2016-06-05T09:53:26Z</time>
      </trkpt>
      <trkpt lat="45.69883" lon="4.6577">
        <ele>657.431763</ele>
        <time>2016-06-05T09:53:28Z</time>
      </trkpt>
      <trkpt lat="45.69884" lon="4.65797">
        <ele>652.717773</ele>
        <time>2016-06-05T09:53:30Z</time>
      </trkpt>
      <trkpt lat="45.69886" lon="4.65823">
        <ele>633.205688</ele>
        <time>2016-06-05T09:53:32Z</time>
      </trkpt>
      <trkpt lat="45.69884" lon="4.65851">
        <ele>633.205688</ele>
        <time>2016-06-05T09:53:34Z</time>
      </trkpt>
      <trkpt lat="45.69882" lon="4.65879">
        <ele>614.657104</ele>
        <time>2016-06-05T09:53:36Z</time>
      </trkpt>
      <trkpt lat="45.69879" lon="4.65908">
        <ele>614.657104</ele>
        <time>2016-06-05T09:53:38Z</time>
      </trkpt>
      <trkpt lat="45.69876" lon="4.65938">
        <ele>598.537598</ele>
        <time>2016-06-05T09:53:40Z</time>
      </trkpt>
      <trkpt lat="45.69873" lon="4.65967">
        <ele>598.537598</ele>
        <time>2016-06-05T09:53:42Z</time>
      </trkpt>
      <trkpt lat="45.6987" lon="4.65997">
        <ele>586.336975</ele>
        <time>2016-06-05T09:53:44Z</time>
      </trkpt>
      <trkpt lat="45.69866" lon="4.66028">
        <ele>586.336975</ele>
        <time>2016-06-05T09:53:46Z</time>
      </trkpt>
      <trkpt lat="45.69861" lon="4.6606">
        <ele>581.951111</ele>
        <time>2016-06-05T09:53:48Z</time>
      </trkpt>
      <trkpt lat="45.69854" lon="4.66093">
        <ele>576.952271</ele>
        <time>2016-06-05T09:53:50Z</time>
      </trkpt>
      <trkpt lat="45.6985" lon="4.66127">
        <ele>574.023499</ele>
        <time>2016-06-05T09:53:52Z</time>
      </trkpt>
      <trkpt lat="45.69848" lon="4.66161">
        <ele>572.972351</ele>
        <time>2016-06-05T09:53:54Z</time>
      </trkpt>
      <trkpt lat="45.69848" lon="4.66191">
        <ele>570.051331</ele>
        <time>2016-06-05T09:53:56Z</time>
      </trkpt>
      <trkpt lat="45.69847" lon="4.6621">
        <ele>566.957031</ele>
        <time>2016-06-05T09:53:58Z</time>
      </trkpt>
      <trkpt lat="45.69848" lon="4.66219">
        <ele>563.95105</ele>
        <time>2016-06-05T09:54:00Z</time>
      </trkpt>
      <trkpt lat="45.69849" lon="4.66226">
        <ele>561.059814</ele>
        <time>2016-06-05T09:54:02Z</time>
      </trkpt>
      <trkpt lat="45.69849" lon="4.66233">
        <ele>558.707703</ele>
        <time>2016-06-05T09:54:04Z</time>
      </trkpt>
      <trkpt lat="45.69848" lon="4.66242">
        <ele>557.397461</ele>
        <time>2016-06-05T09:54:06Z</time>
      </trkpt>
      <trkpt lat="45.69847" lon="4.66255">
        <ele>555.049133</ele>
        <time>2016-06-05T09:54:08Z</time>
      </trkpt>
      <trkpt lat="45.69844" lon="4.66271">
        <ele>552.660645</ele>
        <time>2016-06-05T09:54:10Z</time>
      </trkpt>
      <trkpt lat="45.69842" lon="4.66286">
        <ele>549.505066</ele>
        <time>2016-06-05T09:54:12Z</time>
      </trkpt>
      <trkpt lat="45.69839" lon="4.66301">
        <ele>546.039429</ele>
        <time>2016-06-05T09:54:14Z</time>
      </trkpt>
      <trkpt lat="45.69836" lon="4.66317">
        <ele>542.171326</ele>
        <time>2016-06-05T09:54:16Z</time>
      </trkpt>
      <trkpt lat="45.69834" lon="4.66334">
        <ele>537.592041</ele>
        <time>2016-06-05T09:54:18Z</time>
      </trkpt>
      <trkpt lat="45.69831" lon="4.6635">
        <ele>532.676025</ele>
        <time>2016-06-05T09:54:20Z</time>
      </trkpt>
      <trkpt lat="45.69828" lon="4.66365">
        <ele>529.982117</ele>
        <time>2016-06-05T09:54:22Z</time>
      </trkpt>
      <trkpt lat="45.69825" lon="4.66381">
        <ele>525.204041</ele>
        <time>2016-06-05T09:54:24Z</time>
      </trkpt>
      <trkpt lat="45.69822" lon="4.66396">
        <ele>514.771912</ele>
        <time>2016-06-05T09:54:26Z</time>
      </trkpt>
      <trkpt lat="45.69819" lon="4.66411">
        <ele>514.771912</ele>
        <time>2016-06-05T09:54:28Z</time>
      </trkpt>
      <trkpt lat="45.69815" lon="4.66426">
        <ele>502.852051</ele>
        <time>2016-06-05T09:54:30Z</time>
      </trkpt>
      <trkpt lat="45.6981" lon="4.66441">
        <ele>502.852051</ele>
        <time>2016-06-05T09:54:32Z</time>
      </trkpt>
      <trkpt lat="45.69806" lon="4.66456">
        <ele>489.153503</ele>
        <time>2016-06-05T09:54:34Z</time>
      </trkpt>
      <trkpt lat="45.69802" lon="4.66472">
        <ele>489.153503</ele>
        <time>2016-06-05T09:54:36Z</time>
      </trkpt>
      <trkpt lat="45.69798" lon="4.66488">
        <ele>482.415588</ele>
        <time>2016-06-05T09:54:38Z</time>
      </trkpt>
      <trkpt lat="45.69793" lon="4.66503">
        <ele>478.706726</ele>
        <time>2016-06-05T09:54:40Z</time>
      </trkpt>
      <trkpt lat="45.69788" lon="4.66518">
        <ele>464.870026</ele>
        <time>2016-06-05T09:54:42Z</time>
      </trkpt>
      <trkpt lat="45.69782" lon="4.66534">
        <ele>464.870026</ele>
        <time>2016-06-05T09:54:44Z</time>
      </trkpt>
      <trkpt lat="45.69776" lon="4.66549">
        <ele>450.512939</ele>
        <time>2016-06-05T09:54:46Z</time>
      </trkpt>
      <trkpt lat="45.69769" lon="4.66563">
        <ele>450.512939</ele>
        <time>2016-06-05T09:54:48Z</time>
      </trkpt>
      <trkpt lat="45.69763" lon="4.66578">
        <ele>438.466614</ele>
        <time>2016-06-05T09:54:50Z</time>
      </trkpt>
      <trkpt lat="45.69758" lon="4.66594">
        <ele>438.466614</ele>
        <time>2016-06-05T09:54:52Z</time>
      </trkpt>
      <trkpt lat="45.69755" lon="4.66611">
        <ele>433.683838</ele>
        <time>2016-06-05T09:54:54Z</time>
      </trkpt>
      <trkpt lat="45.69753" lon="4.66631">
        <ele>429.278564</ele>
        <time>2016-06-05T09:54:56Z</time>
      </trkpt>
      <trkpt lat="45.69751" lon="4.66654">
        <ele>425.704742</ele>
        <time>2016-06-05T09:54:58Z</time>
      </trkpt>
      <trkpt lat="45.6975" lon="4.66678">
        <ele>422.681549</ele>
        <time>2016-06-05T09:55:00Z</time>
      </trkpt>
      <trkpt lat="45.69749" lon="4.66706">
        <ele>420.877258</ele>
        <time>2016-06-05T09:55:02Z</time>
      </trkpt>
      <trkpt lat="45.69748" lon="4.66737">
        <ele>418.221619</ele>
        <time>2016-06-05T09:55:04Z</time>
      </trkpt>
      <trkpt lat="45.69748" lon="4.66769">
        <ele>414.724915</ele>
        <time>2016-06-05T09:55:06Z</time>
      </trkpt>
      <trkpt lat="45.69747" lon="4.66802">
        <ele>412.244476</ele>
        <time>2016-06-05T09:55:08Z</time>
      </trkpt>
      <trkpt lat="45.69747" lon="4.66836">
        <ele>409.884125</ele>
        <time>2016-06-05T09:55:10Z</time>
      </trkpt>
      <trkpt lat="45.69748" lon="4.66867">
        <ele>407.564026</ele>
        <time>2016-06-05T09:55:12Z</time>
      </trkpt>
      <trkpt lat="45.6975" lon="4.66898">
        <ele>405.54184</ele>
        <time>2016-06-05T09:55:14Z</time>
      </trkpt>
      <trkpt lat="45.6975" lon="4.66931">
        <ele>404.229889</ele>
        <time>2016-06-05T09:55:16Z</time>
      </trkpt>
      <trkpt lat="45.69749" lon="4.66966">
        <ele>402.480652</ele>
        <time>2016-06-05T09:55:18Z</time>
      </trkpt>
      <trkpt lat="45.69749" lon="4.67001">
        <ele>400.785645</ele>
        <time>2016-06-05T09:55:20Z</time>
      </trkpt>
      <trkpt lat="45.6975" lon="4.67036">
        <ele>400.171387</ele>
        <time>2016-06-05T09:55:22Z</time>
      </trkpt>
      <trkpt lat="45.69751" lon="4.6707">
        <ele>398.837982</ele>
        <time>2016-06-05T09:55:24Z</time>
      </trkpt>
      <trkpt lat="45.69751" lon="4.67104">
        <ele>397.632996</ele>
        <time>2016-06-05T09:55:26Z</time>
      </trkpt>
      <trkpt lat="45.69752" lon="4.67136">
        <ele>396.306152</ele>
        <time>2016-06-05T09:55:28Z</time>
      </trkpt>
      <trkpt lat="45.69754" lon="4.67169">
        <ele>395.084045</ele>
        <time>2016-06-05T09:55:30Z</time>
      </trkpt>
      <trkpt lat="45.69754" lon="4.67202">
        <ele>393.666443</ele>
        <time>2016-06-05T09:55:32Z</time>
      </trkpt>
      <trkpt lat="45.69753" lon="4.67234">
        <ele>392.190918</ele>
        <time>2016-06-05T09:55:34Z</time>
      </trkpt>
      <trkpt lat="45.69749" lon="4.67266">
        <ele>390.519714</ele>
        <time>2016-06-05T09:55:36Z</time>
      </trkpt>
      <trkpt lat="45.69745" lon="4.67297">
        <ele>389.17572</ele>
        <time>2016-06-05T09:55:38Z</time>
      </trkpt>
      <trkpt lat="45.69741" lon="4.67324">
        <ele>386.890625</ele>
        <time>2016-06-05T09:55:40Z</time>
      </trkpt>
      <trkpt lat="45.69733" lon="4.67345">
        <ele>384.939392</ele>
        <time>2016-06-05T09:55:42Z</time>
      </trkpt>
      <trkpt lat="45.69728" lon="4.6736">
        <ele>384.577881</ele>
        <time>2016-06-05T09:55:44Z</time>
      </trkpt>
      <trkpt lat="45.69724" lon="4.6737">
        <ele>382.909729</ele>
        <time>2016-06-05T09:55:46Z</time>
      </trkpt>
      <trkpt lat="45.69717" lon="4.67379">
        <ele>381.454834</ele>
        <time>2016-06-05T09:55:48Z</time>
      </trkpt>
      <trkpt lat="45.69716" lon="4.67391">
        <ele>379.446747</ele>
        <time>2016-06-05T09:55:50Z</time>
      </trkpt>
      <trkpt lat="45.69716" lon="4.67402">
        <ele>377.766174</ele>
        <time>2016-06-05T09:55:52Z</time>
      </trkpt>
      <trkpt lat="45.69719" lon="4.67411">
        <ele>376.10733</ele>
        <time>2016-06-05T09:55:54Z</time>
      </trkpt>
      <trkpt lat="45.69724" lon="4.67417">
        <ele>374.874847</ele>
        <time>2016-06-05T09:55:56Z</time>
      </trkpt>
      <trkpt lat="45.69732" lon="4.67422">
        <ele>373.147156</ele>
        <time>2016-06-05T09:55:58Z</time>
      </trkpt>
      <trkpt lat="45.69739" lon="4.67428">
        <ele>371.858978</ele>
        <time>2016-06-05T09:56:00Z</time>
      </trkpt>
      <trkpt lat="45.69745" lon="4.67437">
        <ele>370.635345</ele>
        <time>2016-06-05T09:56:02Z</time>
      </trkpt>
      <trkpt lat="45.6975" lon="4.67446">
        <ele>369.26825</ele>
        <time>2016-06-05T09:56:04Z</time>
      </trkpt>
      <trkpt lat="45.69758" lon="4.67451">
        <ele>367.887512</ele>
        <time>2016-06-05T09:56:06Z</time>
      </trkpt>
      <trkpt lat="45.69765" lon="4.67453">
        <ele>367.330719</ele>
        <time>2016-06-05T09:56:08Z</time>
      </trkpt>
      <trkpt lat="45.69771" lon="4.67455">
        <ele>366.116699</ele>
        <time>2016-06-05T09:56:10Z</time>
      </trkpt>
      <trkpt lat="45.69778" lon="4.67457">
        <ele>364.96283</ele>
        <time>2016-06-05T09:56:12Z</time>
      </trkpt>
      <trkpt lat="45.69787" lon="4.67457">
        <ele>364.001953</ele>
        <time>2016-06-05T09:56:14Z</time>
      </trkpt>
      <trkpt lat="45.69796" lon="4.67456">
        <ele>363.051941</ele>
        <time>2016-06-05T09:56:16Z</time>
      </trkpt>
      <trkpt lat="45.69803" lon="4.67454">
        <ele>362.463135</ele>
        <time>2016-06-05T09:56:18Z</time>
      </trkpt>
      <trkpt lat="45.69809" lon="4.67452">
        <ele>361.597015</ele>
        <time>2016-06-05T09:56:20Z</time>
      </trkpt>
      <trkpt lat="45.69815" lon="4.67453">
        <ele>361.358551</ele>
        <time>2016-06-05T09:56:22Z</time>
      </trkpt>
      <trkpt lat="45.69822" lon="4.67454">
        <ele>361.001801</ele>
        <time>2016-06-05T09:56:24Z</time>
      </trkpt>
      <trkpt lat="45.6983" lon="4.67454">
        <ele>360.250793</ele>
        <time>2016-06-05T09:56:26Z</time>
      </trkpt>
      <trkpt lat="45.69838" lon="4.67455">
        <ele>359.827545</ele>
        <time>2016-06-05T09:56:28Z</time>
      </trkpt>
      <trkpt lat="45.69849" lon="4.67456">
        <ele>359.608398</ele>
        <time>2016-06-05T09:56:30Z</time>
      </trkpt>
      <trkpt lat="45.69858" lon="4.67456">
        <ele>359.468933</ele>
        <time>2016-06-05T09:56:32Z</time>
      </trkpt>
      <trkpt lat="45.69868" lon="4.6746">
        <ele>358.923767</ele>
        <time>2016-06-05T09:56:34Z</time>
      </trkpt>
      <trkpt lat="45.69874" lon="4.67474">
        <ele>358.822083</ele>
        <time>2016-06-05T09:56:36Z</time>
      </trkpt>
      <trkpt lat="45.69878" lon="4.67491">
        <ele>358.396576</ele>
        <time>2016-06-05T09:56:38Z</time>
      </trkpt>
      <trkpt lat="45.69884" lon="4.67509">
        <ele>358.305725</ele>
        <time>2016-06-05T09:56:40Z</time>
      </trkpt>
      <trkpt lat="45.69891" lon="4.67529">
        <ele>358.121002</ele>
        <time>2016-06-05T09:56:42Z</time>
      </trkpt>
      <trkpt lat="45.69896" lon="4.67549">
        <ele>357.831146</ele>
        <time>2016-06-05T09:56:44Z</time>
      </trkpt>
      <trkpt lat="45.69901" lon="4.67567">
        <ele>357.554138</ele>
        <time>2016-06-05T09:56:46Z</time>
      </trkpt>
      <trkpt lat="45.69906" lon="4.67577">
        <ele>357.270752</ele>
        <time>2016-06-05T09:56:48Z</time>
      </trkpt>
      <trkpt lat="45.69907" lon="4.67581">
        <ele>357.144043</ele>
        <time>2016-06-05T09:56:50Z</time>
      </trkpt>
      <trkpt lat="45.69907" lon="4.67583">
        <ele>356.201263</ele>
        <time>2016-06-05T09:56:56Z</time>
      </trkpt>
      <trkpt lat="45.69906" lon="4.67585">
        <ele>355.984863</ele>
        <time>2016-06-05T09:56:58Z</time>
      </trkpt>
      <trkpt lat="45.69904" lon="4.67586">
        <ele>355.613464</ele>
        <time>2016-06-05T09:57:00Z</time>
      </trkpt>
      <trkpt lat="45.69904" lon="4.67588">
        <ele>354.866364</ele>
        <time>2016-06-05T09:57:04Z</time>
      </trkpt>
      <trkpt lat="45.69902" lon="4.67589">
        <ele>354.394684</ele>
        <time>2016-06-05T09:57:06Z</time>
      </trkpt>
      <trkpt lat="45.69902" lon="4.67591">
        <ele>354.285187</ele>
        <time>2016-06-05T09:57:08Z</time>
      </trkpt>
      <trkpt lat="45.699" lon="4.67591">
        <ele>353.957214</ele>
        <time>2016-06-05T09:57:10Z</time>
      </trkpt>
      <trkpt lat="45.69898" lon="4.67592">
        <ele>353.58316</ele>
        <time>2016-06-05T09:57:12Z</time>
      </trkpt>
      <trkpt lat="45.69896" lon="4.67594">
        <ele>353.076294</ele>
        <time>2016-06-05T09:57:14Z</time>
      </trkpt>
      <trkpt lat="45.69893" lon="4.67596">
        <ele>352.874512</ele>
        <time>2016-06-05T09:57:16Z</time>
      </trkpt>
      <trkpt lat="45.69889" lon="4.67598">
        <ele>352.450165</ele>
        <time>2016-06-05T09:57:18Z</time>
      </trkpt>
      <trkpt lat="45.69884" lon="4.676">
        <ele>352.207611</ele>
        <time>2016-06-05T09:57:20Z</time>
      </trkpt>
      <trkpt lat="45.69878" lon="4.67603">
        <ele>351.899139</ele>
        <time>2016-06-05T09:57:22Z</time>
      </trkpt>
      <trkpt lat="45.69873" lon="4.67606">
        <ele>351.688782</ele>
        <time>2016-06-05T09:57:24Z</time>
      </trkpt>
      <trkpt lat="45.69869" lon="4.6761">
        <ele>351.527527</ele>
        <time>2016-06-05T09:57:26Z</time>
      </trkpt>
      <trkpt lat="45.69865" lon="4.67613">
        <ele>351.306458</ele>
        <time>2016-06-05T09:57:28Z</time>
      </trkpt>
      <trkpt lat="45.69861" lon="4.67618">
        <ele>351.066071</ele>
        <time>2016-06-05T09:57:30Z</time>
      </trkpt>
      <trkpt lat="45.69859" lon="4.67623">
        <ele>350.916718</ele>
        <time>2016-06-05T09:57:32Z</time>
      </trkpt>
      <trkpt lat="45.69856" lon="4.67628">
        <ele>350.699921</ele>
        <time>2016-06-05T09:57:34Z</time>
      </trkpt>
      <trkpt lat="45.69852" lon="4.67631">
        <ele>350.574982</ele>
        <time>2016-06-05T09:57:36Z</time>
      </trkpt>
      <trkpt lat="45.69849" lon="4.67632">
        <ele>350.519196</ele>
        <time>2016-06-05T09:57:38Z</time>
      </trkpt>
      <trkpt lat="45.69848" lon="4.67637">
        <ele>350.435028</ele>
        <time>2016-06-05T09:57:40Z</time>
      </trkpt>
      <trkpt lat="45.69849" lon="4.67641">
        <ele>350.437195</ele>
        <time>2016-06-05T09:57:42Z</time>
      </trkpt>
      <trkpt lat="45.69852" lon="4.67645">
        <ele>350.343872</ele>
        <time>2016-06-05T09:57:44Z</time>
      </trkpt>
      <trkpt lat="45.69853" lon="4.67652">
        <ele>350.294495</ele>
        <time>2016-06-05T09:57:46Z</time>
      </trkpt>
      <trkpt lat="45.69853" lon="4.67659">
        <ele>350.132904</ele>
        <time>2016-06-05T09:57:48Z</time>
      </trkpt>
      <trkpt lat="45.69852" lon="4.67668">
        <ele>350.006287</ele>
        <time>2016-06-05T09:57:50Z</time>
      </trkpt>
      <trkpt lat="45.69853" lon="4.6768">
        <ele>349.921051</ele>
        <time>2016-06-05T09:57:52Z</time>
      </trkpt>
      <trkpt lat="45.69853" lon="4.67694">
        <ele>349.784241</ele>
        <time>2016-06-05T09:57:54Z</time>
      </trkpt>
      <trkpt lat="45.69849" lon="4.67706">
        <ele>349.580383</ele>
        <time>2016-06-05T09:57:56Z</time>
      </trkpt>
      <trkpt lat="45.69844" lon="4.67719">
        <ele>349.49054</ele>
        <time>2016-06-05T09:57:58Z</time>
      </trkpt>
      <trkpt lat="45.69842" lon="4.67731">
        <ele>349.310303</ele>
        <time>2016-06-05T09:58:00Z</time>
      </trkpt>
      <trkpt lat="45.69843" lon="4.67742">
        <ele>348.969208</ele>
        <time>2016-06-05T09:58:02Z</time>
      </trkpt>
      <trkpt lat="45.69843" lon="4.6775">
        <ele>348.868378</ele>
        <time>2016-06-05T09:58:04Z</time>
      </trkpt>
      <trkpt lat="45.69844" lon="4.67755">
        <ele>348.643158</ele>
        <time>2016-06-05T09:58:06Z</time>
      </trkpt>
      <trkpt lat="45.69842" lon="4.67758">
        <ele>348.40744</ele>
        <time>2016-06-05T09:58:08Z</time>
      </trkpt>
      <trkpt lat="45.69841" lon="4.67764">
        <ele>348.195068</ele>
        <time>2016-06-05T09:58:10Z</time>
      </trkpt>
      <trkpt lat="45.69841" lon="4.67771">
        <ele>347.877563</ele>
        <time>2016-06-05T09:58:12Z</time>
      </trkpt>
      <trkpt lat="45.69844" lon="4.67778">
        <ele>347.574188</ele>
        <time>2016-06-05T09:58:14Z</time>
      </trkpt>
      <trkpt lat="45.69845" lon="4.67783">
        <ele>347.331573</ele>
        <time>2016-06-05T09:58:16Z</time>
      </trkpt>
      <trkpt lat="45.69844" lon="4.67787">
        <ele>347.052948</ele>
        <time>2016-06-05T09:58:18Z</time>
      </trkpt>
      <trkpt lat="45.69843" lon="4.67789">
        <ele>346.694702</ele>
        <time>2016-06-05T09:58:20Z</time>
      </trkpt>
      <trkpt lat="45.69843" lon="4.67795">
        <ele>346.41153</ele>
        <time>2016-06-05T09:58:22Z</time>
      </trkpt>
      <trkpt lat="45.69843" lon="4.67804">
        <ele>346.080017</ele>
        <time>2016-06-05T09:58:24Z</time>
      </trkpt>
      <trkpt lat="45.69841" lon="4.67816">
        <ele>345.78186</ele>
        <time>2016-06-05T09:58:26Z</time>
      </trkpt>
      <trkpt lat="45.69841" lon="4.6783">
        <ele>345.365784</ele>
        <time>2016-06-05T09:58:28Z</time>
      </trkpt>
      <trkpt lat="45.6984" lon="4.67845">
        <ele>345.232788</ele>
        <time>2016-06-05T09:58:30Z</time>
      </trkpt>
      <trkpt lat="45.69838" lon="4.67861">
        <ele>344.910004</ele>
        <time>2016-06-05T09:58:32Z</time>
      </trkpt>
      <trkpt lat="45.69836" lon="4.67878">
        <ele>344.497406</ele>
        <time>2016-06-05T09:58:34Z</time>
      </trkpt>
      <trkpt lat="45.69835" lon="4.67895">
        <ele>344.175171</ele>
        <time>2016-06-05T09:58:36Z</time>
      </trkpt>
      <trkpt lat="45.69834" lon="4.67909">
        <ele>344.012878</ele>
        <time>2016-06-05T09:58:38Z</time>
      </trkpt>
      <trkpt lat="45.69835" lon="4.67916">
        <ele>343.649231</ele>
        <time>2016-06-05T09:58:40Z</time>
      </trkpt>
      <trkpt lat="45.69836" lon="4.6792">
        <ele>343.276062</ele>
        <time>2016-06-05T09:58:42Z</time>
      </trkpt>
      <trkpt lat="45.69839" lon="4.67923">
        <ele>342.999512</ele>
        <time>2016-06-05T09:58:44Z</time>
      </trkpt>
      <trkpt lat="45.69842" lon="4.67921">
        <ele>342.645599</ele>
        <time>2016-06-05T09:58:46Z</time>
      </trkpt>
      <trkpt lat="45.69845" lon="4.67917">
        <ele>342.306793</ele>
        <time>2016-06-05T09:58:48Z</time>
      </trkpt>
      <trkpt lat="45.69847" lon="4.67913">
        <ele>342.096619</ele>
        <time>2016-06-05T09:58:50Z</time>
      </trkpt>
      <trkpt lat="45.69851" lon="4.67909">
        <ele>341.888672</ele>
        <time>2016-06-05T09:58:52Z</time>
      </trkpt>
      <trkpt lat="45.69855" lon="4.67907">
        <ele>341.716217</ele>
        <time>2016-06-05T09:58:54Z</time>
      </trkpt>
      <trkpt lat="45.6986" lon="4.67904">
        <ele>341.433197</ele>
        <time>2016-06-05T09:58:56Z</time>
      </trkpt>
      <trkpt lat="45.69864" lon="4.67902">
        <ele>341.188965</ele>
        <time>2016-06-05T09:58:58Z</time>
      </trkpt>
      <trkpt lat="45.69869" lon="4.679">
        <ele>340.942627</ele>
        <time>2016-06-05T09:59:00Z</time>
      </trkpt>
      <trkpt lat="45.69873" lon="4.67898">
        <ele>340.771149</ele>
        <time>2016-06-05T09:59:02Z</time>
      </trkpt>
      <trkpt lat="45.69877" lon="4.67895">
        <ele>340.440918</ele>
        <time>2016-06-05T09:59:04Z</time>
      </trkpt>
      <trkpt lat="45.6988" lon="4.6789">
        <ele>340.162262</ele>
        <time>2016-06-05T09:59:06Z</time>
      </trkpt>
      <trkpt lat="45.69882" lon="4.67884">
        <ele>339.904938</ele>
        <time>2016-06-05T09:59:08Z</time>
      </trkpt>
      <trkpt lat="45.69885" lon="4.6788">
        <ele>339.812744</ele>
        <time>2016-06-05T09:59:10Z</time>
      </trkpt>
      <trkpt lat="45.69888" lon="4.67877">
        <ele>339.616547</ele>
        <time>2016-06-05T09:59:12Z</time>
      </trkpt>
      <trkpt lat="45.69891" lon="4.67876">
        <ele>339.580109</ele>
        <time>2016-06-05T09:59:14Z</time>
      </trkpt>
    </trkseg>
  </trk>
</gpx>